<?xml version="1.0" encoding="UTF-8" standalone="no" ?>
<gpx xmlns="http://www.topografix.com/GPX/1/1" xmlns:xsi="http://www.w3.org/2001/XMLSchema-instance" xsi:schemaLocation="http://www.topografix.com/GPX/1/1 http://www.topografix.com/GPX/1/1/gpx.xsd" version="1.1" creator="VisuGPX - https://www.visugpx.com">
  <metadata>
    <name>Ballade à Bouquehault</name>
    <desc><![CDATA[Rando autour de Bouquehault]]></desc>
  </metadata>
  <trk>
    <name><![CDATA[Ballade à Bouquehault_1]]></name>
    <trkseg>
      <trkpt lat="50.82873" lon="1.90658">
        <ele>50</ele>
        <time>2015-05-12T12:33:40.000Z</time>
      </trkpt>
      <trkpt lat="50.82873" lon="1.90658">
        <ele>50</ele>
        <time>2015-05-12T12:33:41.000Z</time>
      </trkpt>
      <trkpt lat="50.82873" lon="1.90658">
        <ele>50</ele>
        <time>2015-05-12T12:33:42.000Z</time>
      </trkpt>
      <trkpt lat="50.82873" lon="1.90658">
        <ele>49</ele>
        <time>2015-05-12T12:33:43.000Z</time>
      </trkpt>
      <trkpt lat="50.82873" lon="1.90658">
        <ele>49</ele>
        <time>2015-05-12T12:33:44.000Z</time>
      </trkpt>
      <trkpt lat="50.82873" lon="1.90658">
        <ele>49</ele>
        <time>2015-05-12T12:33:45.000Z</time>
      </trkpt>
      <trkpt lat="50.82873" lon="1.90659">
        <ele>49</ele>
        <time>2015-05-12T12:33:46.000Z</time>
      </trkpt>
      <trkpt lat="50.82873" lon="1.90659">
        <ele>49</ele>
        <time>2015-05-12T12:33:47.000Z</time>
      </trkpt>
      <trkpt lat="50.82873" lon="1.90658">
        <ele>50</ele>
        <time>2015-05-12T12:33:48.000Z</time>
      </trkpt>
      <trkpt lat="50.82873" lon="1.90658">
        <ele>50</ele>
        <time>2015-05-12T12:33:49.000Z</time>
      </trkpt>
      <trkpt lat="50.82873" lon="1.90658">
        <ele>50</ele>
        <time>2015-05-12T12:33:50.000Z</time>
      </trkpt>
      <trkpt lat="50.82873" lon="1.90658">
        <ele>50</ele>
        <time>2015-05-12T12:33:51.000Z</time>
      </trkpt>
      <trkpt lat="50.82872" lon="1.90658">
        <ele>50</ele>
        <time>2015-05-12T12:33:52.000Z</time>
      </trkpt>
      <trkpt lat="50.82872" lon="1.90658">
        <ele>50</ele>
        <time>2015-05-12T12:33:53.000Z</time>
      </trkpt>
      <trkpt lat="50.82872" lon="1.90657">
        <ele>51</ele>
        <time>2015-05-12T12:33:54.000Z</time>
      </trkpt>
      <trkpt lat="50.82872" lon="1.90657">
        <ele>51</ele>
        <time>2015-05-12T12:33:55.000Z</time>
      </trkpt>
      <trkpt lat="50.82872" lon="1.90657">
        <ele>51</ele>
        <time>2015-05-12T12:33:56.000Z</time>
      </trkpt>
      <trkpt lat="50.82872" lon="1.90656">
        <ele>51</ele>
        <time>2015-05-12T12:33:57.000Z</time>
      </trkpt>
      <trkpt lat="50.82872" lon="1.90655">
        <ele>52</ele>
        <time>2015-05-12T12:33:58.000Z</time>
      </trkpt>
      <trkpt lat="50.82872" lon="1.90655">
        <ele>52</ele>
        <time>2015-05-12T12:33:59.000Z</time>
      </trkpt>
      <trkpt lat="50.82872" lon="1.90655">
        <ele>52</ele>
        <time>2015-05-12T12:34:00.000Z</time>
      </trkpt>
      <trkpt lat="50.82873" lon="1.90654">
        <ele>52</ele>
        <time>2015-05-12T12:34:01.000Z</time>
      </trkpt>
      <trkpt lat="50.82873" lon="1.90654">
        <ele>52</ele>
        <time>2015-05-12T12:34:02.000Z</time>
      </trkpt>
      <trkpt lat="50.82873" lon="1.90654">
        <ele>52</ele>
        <time>2015-05-12T12:34:03.000Z</time>
      </trkpt>
      <trkpt lat="50.82873" lon="1.90654">
        <ele>52</ele>
        <time>2015-05-12T12:34:04.000Z</time>
      </trkpt>
      <trkpt lat="50.82873" lon="1.90654">
        <ele>52</ele>
        <time>2015-05-12T12:34:05.000Z</time>
      </trkpt>
      <trkpt lat="50.82873" lon="1.90654">
        <ele>52</ele>
        <time>2015-05-12T12:34:06.000Z</time>
      </trkpt>
      <trkpt lat="50.82873" lon="1.90654">
        <ele>52</ele>
        <time>2015-05-12T12:34:07.000Z</time>
      </trkpt>
      <trkpt lat="50.82873" lon="1.90654">
        <ele>52</ele>
        <time>2015-05-12T12:34:08.000Z</time>
      </trkpt>
      <trkpt lat="50.82873" lon="1.90654">
        <ele>52</ele>
        <time>2015-05-12T12:34:09.000Z</time>
      </trkpt>
      <trkpt lat="50.82873" lon="1.90654">
        <ele>52</ele>
        <time>2015-05-12T12:34:10.000Z</time>
      </trkpt>
      <trkpt lat="50.82872" lon="1.90653">
        <ele>53</ele>
        <time>2015-05-12T12:34:11.000Z</time>
      </trkpt>
      <trkpt lat="50.82872" lon="1.90653">
        <ele>53</ele>
        <time>2015-05-12T12:34:12.000Z</time>
      </trkpt>
      <trkpt lat="50.82872" lon="1.90653">
        <ele>53</ele>
        <time>2015-05-12T12:34:13.000Z</time>
      </trkpt>
      <trkpt lat="50.82872" lon="1.90653">
        <ele>53</ele>
        <time>2015-05-12T12:34:14.000Z</time>
      </trkpt>
      <trkpt lat="50.82872" lon="1.90653">
        <ele>54</ele>
        <time>2015-05-12T12:34:15.000Z</time>
      </trkpt>
      <trkpt lat="50.82872" lon="1.90653">
        <ele>54</ele>
        <time>2015-05-12T12:34:16.000Z</time>
      </trkpt>
      <trkpt lat="50.82872" lon="1.90653">
        <ele>54</ele>
        <time>2015-05-12T12:34:17.000Z</time>
      </trkpt>
      <trkpt lat="50.82872" lon="1.90653">
        <ele>54</ele>
        <time>2015-05-12T12:34:18.000Z</time>
      </trkpt>
      <trkpt lat="50.82872" lon="1.90653">
        <ele>54</ele>
        <time>2015-05-12T12:34:19.000Z</time>
      </trkpt>
      <trkpt lat="50.82872" lon="1.90652">
        <ele>54</ele>
        <time>2015-05-12T12:34:20.000Z</time>
      </trkpt>
      <trkpt lat="50.82872" lon="1.90652">
        <ele>54</ele>
        <time>2015-05-12T12:34:21.000Z</time>
      </trkpt>
      <trkpt lat="50.82872" lon="1.90652">
        <ele>55</ele>
        <time>2015-05-12T12:34:22.000Z</time>
      </trkpt>
      <trkpt lat="50.82872" lon="1.90652">
        <ele>54</ele>
        <time>2015-05-12T12:34:23.000Z</time>
      </trkpt>
      <trkpt lat="50.82872" lon="1.90653">
        <ele>54</ele>
        <time>2015-05-12T12:34:24.000Z</time>
      </trkpt>
      <trkpt lat="50.82872" lon="1.90653">
        <ele>54</ele>
        <time>2015-05-12T12:34:25.000Z</time>
      </trkpt>
      <trkpt lat="50.82873" lon="1.90653">
        <ele>54</ele>
        <time>2015-05-12T12:34:26.000Z</time>
      </trkpt>
      <trkpt lat="50.82873" lon="1.90653">
        <ele>54</ele>
        <time>2015-05-12T12:34:27.000Z</time>
      </trkpt>
      <trkpt lat="50.82873" lon="1.90653">
        <ele>54</ele>
        <time>2015-05-12T12:34:28.000Z</time>
      </trkpt>
      <trkpt lat="50.82873" lon="1.90653">
        <ele>54</ele>
        <time>2015-05-12T12:34:29.000Z</time>
      </trkpt>
      <trkpt lat="50.82873" lon="1.90653">
        <ele>54</ele>
        <time>2015-05-12T12:34:30.000Z</time>
      </trkpt>
      <trkpt lat="50.82873" lon="1.90653">
        <ele>54</ele>
        <time>2015-05-12T12:34:31.000Z</time>
      </trkpt>
      <trkpt lat="50.82873" lon="1.90653">
        <ele>54</ele>
        <time>2015-05-12T12:34:32.000Z</time>
      </trkpt>
      <trkpt lat="50.82873" lon="1.90653">
        <ele>54</ele>
        <time>2015-05-12T12:34:33.000Z</time>
      </trkpt>
      <trkpt lat="50.82873" lon="1.90653">
        <ele>55</ele>
        <time>2015-05-12T12:34:34.000Z</time>
      </trkpt>
      <trkpt lat="50.82872" lon="1.90652">
        <ele>55</ele>
        <time>2015-05-12T12:34:35.000Z</time>
      </trkpt>
      <trkpt lat="50.82872" lon="1.90652">
        <ele>55</ele>
        <time>2015-05-12T12:34:36.000Z</time>
      </trkpt>
      <trkpt lat="50.82872" lon="1.90652">
        <ele>55</ele>
        <time>2015-05-12T12:34:37.000Z</time>
      </trkpt>
      <trkpt lat="50.82872" lon="1.90652">
        <ele>55</ele>
        <time>2015-05-12T12:34:38.000Z</time>
      </trkpt>
      <trkpt lat="50.82872" lon="1.90651">
        <ele>55</ele>
        <time>2015-05-12T12:34:39.000Z</time>
      </trkpt>
      <trkpt lat="50.82872" lon="1.90651">
        <ele>55</ele>
        <time>2015-05-12T12:34:40.000Z</time>
      </trkpt>
      <trkpt lat="50.82871" lon="1.90651">
        <ele>55</ele>
        <time>2015-05-12T12:34:41.000Z</time>
      </trkpt>
      <trkpt lat="50.82871" lon="1.90651">
        <ele>55</ele>
        <time>2015-05-12T12:34:42.000Z</time>
      </trkpt>
      <trkpt lat="50.82871" lon="1.90651">
        <ele>55</ele>
        <time>2015-05-12T12:34:43.000Z</time>
      </trkpt>
      <trkpt lat="50.82871" lon="1.90652">
        <ele>55</ele>
        <time>2015-05-12T12:34:44.000Z</time>
      </trkpt>
      <trkpt lat="50.82871" lon="1.90652">
        <ele>55</ele>
        <time>2015-05-12T12:34:45.000Z</time>
      </trkpt>
      <trkpt lat="50.82871" lon="1.90652">
        <ele>55</ele>
        <time>2015-05-12T12:34:46.000Z</time>
      </trkpt>
      <trkpt lat="50.82871" lon="1.90651">
        <ele>55</ele>
        <time>2015-05-12T12:34:47.000Z</time>
      </trkpt>
      <trkpt lat="50.82871" lon="1.90651">
        <ele>55</ele>
        <time>2015-05-12T12:34:48.000Z</time>
      </trkpt>
      <trkpt lat="50.82871" lon="1.90651">
        <ele>55</ele>
        <time>2015-05-12T12:34:49.000Z</time>
      </trkpt>
      <trkpt lat="50.82871" lon="1.90651">
        <ele>55</ele>
        <time>2015-05-12T12:34:50.000Z</time>
      </trkpt>
      <trkpt lat="50.82871" lon="1.90651">
        <ele>55</ele>
        <time>2015-05-12T12:34:51.000Z</time>
      </trkpt>
      <trkpt lat="50.82871" lon="1.90651">
        <ele>55</ele>
        <time>2015-05-12T12:34:52.000Z</time>
      </trkpt>
      <trkpt lat="50.82871" lon="1.90652">
        <ele>55</ele>
        <time>2015-05-12T12:34:53.000Z</time>
      </trkpt>
      <trkpt lat="50.82871" lon="1.90652">
        <ele>55</ele>
        <time>2015-05-12T12:34:54.000Z</time>
      </trkpt>
      <trkpt lat="50.82871" lon="1.90652">
        <ele>56</ele>
        <time>2015-05-12T12:34:55.000Z</time>
      </trkpt>
      <trkpt lat="50.8287" lon="1.90652">
        <ele>56</ele>
        <time>2015-05-12T12:34:56.000Z</time>
      </trkpt>
      <trkpt lat="50.8287" lon="1.90652">
        <ele>56</ele>
        <time>2015-05-12T12:34:57.000Z</time>
      </trkpt>
      <trkpt lat="50.8287" lon="1.90652">
        <ele>56</ele>
        <time>2015-05-12T12:34:58.000Z</time>
      </trkpt>
      <trkpt lat="50.8287" lon="1.90652">
        <ele>56</ele>
        <time>2015-05-12T12:34:59.000Z</time>
      </trkpt>
      <trkpt lat="50.8287" lon="1.90652">
        <ele>56</ele>
        <time>2015-05-12T12:35:00.000Z</time>
      </trkpt>
      <trkpt lat="50.8287" lon="1.90652">
        <ele>56</ele>
        <time>2015-05-12T12:35:01.000Z</time>
      </trkpt>
      <trkpt lat="50.82869" lon="1.90652">
        <ele>57</ele>
        <time>2015-05-12T12:35:02.000Z</time>
      </trkpt>
      <trkpt lat="50.82869" lon="1.90652">
        <ele>57</ele>
        <time>2015-05-12T12:35:03.000Z</time>
      </trkpt>
      <trkpt lat="50.82869" lon="1.90652">
        <ele>57</ele>
        <time>2015-05-12T12:35:04.000Z</time>
      </trkpt>
      <trkpt lat="50.82869" lon="1.90652">
        <ele>57</ele>
        <time>2015-05-12T12:35:05.000Z</time>
      </trkpt>
      <trkpt lat="50.82869" lon="1.90652">
        <ele>57</ele>
        <time>2015-05-12T12:35:06.000Z</time>
      </trkpt>
      <trkpt lat="50.82869" lon="1.90652">
        <ele>57</ele>
        <time>2015-05-12T12:35:07.000Z</time>
      </trkpt>
      <trkpt lat="50.82869" lon="1.90652">
        <ele>57</ele>
        <time>2015-05-12T12:35:08.000Z</time>
      </trkpt>
      <trkpt lat="50.82868" lon="1.90652">
        <ele>57</ele>
        <time>2015-05-12T12:35:09.000Z</time>
      </trkpt>
      <trkpt lat="50.82868" lon="1.90652">
        <ele>57</ele>
        <time>2015-05-12T12:35:10.000Z</time>
      </trkpt>
      <trkpt lat="50.82868" lon="1.90652">
        <ele>57</ele>
        <time>2015-05-12T12:35:11.000Z</time>
      </trkpt>
      <trkpt lat="50.82868" lon="1.90652">
        <ele>57</ele>
        <time>2015-05-12T12:35:12.000Z</time>
      </trkpt>
      <trkpt lat="50.82868" lon="1.90652">
        <ele>57</ele>
        <time>2015-05-12T12:35:13.000Z</time>
      </trkpt>
      <trkpt lat="50.82868" lon="1.90652">
        <ele>57</ele>
        <time>2015-05-12T12:35:14.000Z</time>
      </trkpt>
      <trkpt lat="50.82868" lon="1.90652">
        <ele>57</ele>
        <time>2015-05-12T12:35:15.000Z</time>
      </trkpt>
      <trkpt lat="50.82868" lon="1.90653">
        <ele>57</ele>
        <time>2015-05-12T12:35:16.000Z</time>
      </trkpt>
      <trkpt lat="50.82868" lon="1.90653">
        <ele>57</ele>
        <time>2015-05-12T12:35:17.000Z</time>
      </trkpt>
      <trkpt lat="50.82868" lon="1.90652">
        <ele>57</ele>
        <time>2015-05-12T12:35:18.000Z</time>
      </trkpt>
      <trkpt lat="50.82868" lon="1.90653">
        <ele>57</ele>
        <time>2015-05-12T12:35:19.000Z</time>
      </trkpt>
      <trkpt lat="50.82868" lon="1.90653">
        <ele>57</ele>
        <time>2015-05-12T12:35:20.000Z</time>
      </trkpt>
      <trkpt lat="50.82868" lon="1.90653">
        <ele>57</ele>
        <time>2015-05-12T12:35:21.000Z</time>
      </trkpt>
      <trkpt lat="50.82868" lon="1.90653">
        <ele>57</ele>
        <time>2015-05-12T12:35:22.000Z</time>
      </trkpt>
      <trkpt lat="50.82868" lon="1.90653">
        <ele>57</ele>
        <time>2015-05-12T12:35:23.000Z</time>
      </trkpt>
      <trkpt lat="50.82868" lon="1.90653">
        <ele>57</ele>
        <time>2015-05-12T12:35:24.000Z</time>
      </trkpt>
      <trkpt lat="50.82868" lon="1.90653">
        <ele>57</ele>
        <time>2015-05-12T12:35:25.000Z</time>
      </trkpt>
      <trkpt lat="50.82868" lon="1.90654">
        <ele>57</ele>
        <time>2015-05-12T12:35:26.000Z</time>
      </trkpt>
      <trkpt lat="50.82868" lon="1.90654">
        <ele>57</ele>
        <time>2015-05-12T12:35:27.000Z</time>
      </trkpt>
      <trkpt lat="50.82868" lon="1.90654">
        <ele>57</ele>
        <time>2015-05-12T12:35:28.000Z</time>
      </trkpt>
      <trkpt lat="50.82868" lon="1.90654">
        <ele>57</ele>
        <time>2015-05-12T12:35:29.000Z</time>
      </trkpt>
      <trkpt lat="50.82868" lon="1.90654">
        <ele>57</ele>
        <time>2015-05-12T12:35:30.000Z</time>
      </trkpt>
      <trkpt lat="50.82868" lon="1.90654">
        <ele>57</ele>
        <time>2015-05-12T12:35:31.000Z</time>
      </trkpt>
      <trkpt lat="50.82868" lon="1.90654">
        <ele>57</ele>
        <time>2015-05-12T12:35:32.000Z</time>
      </trkpt>
      <trkpt lat="50.82868" lon="1.90654">
        <ele>58</ele>
        <time>2015-05-12T12:35:33.000Z</time>
      </trkpt>
      <trkpt lat="50.82869" lon="1.90654">
        <ele>58</ele>
        <time>2015-05-12T12:35:34.000Z</time>
      </trkpt>
      <trkpt lat="50.82869" lon="1.90655">
        <ele>58</ele>
        <time>2015-05-12T12:35:35.000Z</time>
      </trkpt>
      <trkpt lat="50.82869" lon="1.90655">
        <ele>58</ele>
        <time>2015-05-12T12:35:36.000Z</time>
      </trkpt>
      <trkpt lat="50.82869" lon="1.90655">
        <ele>58</ele>
        <time>2015-05-12T12:35:37.000Z</time>
      </trkpt>
      <trkpt lat="50.82869" lon="1.90655">
        <ele>58</ele>
        <time>2015-05-12T12:35:38.000Z</time>
      </trkpt>
      <trkpt lat="50.82869" lon="1.90655">
        <ele>58</ele>
        <time>2015-05-12T12:35:39.000Z</time>
      </trkpt>
      <trkpt lat="50.82869" lon="1.90655">
        <ele>58</ele>
        <time>2015-05-12T12:35:40.000Z</time>
      </trkpt>
      <trkpt lat="50.82869" lon="1.90655">
        <ele>58</ele>
        <time>2015-05-12T12:35:41.000Z</time>
      </trkpt>
      <trkpt lat="50.82869" lon="1.90655">
        <ele>58</ele>
        <time>2015-05-12T12:35:42.000Z</time>
      </trkpt>
      <trkpt lat="50.82869" lon="1.90655">
        <ele>58</ele>
        <time>2015-05-12T12:35:43.000Z</time>
      </trkpt>
      <trkpt lat="50.82869" lon="1.90656">
        <ele>58</ele>
        <time>2015-05-12T12:35:44.000Z</time>
      </trkpt>
      <trkpt lat="50.82869" lon="1.90656">
        <ele>58</ele>
        <time>2015-05-12T12:35:45.000Z</time>
      </trkpt>
      <trkpt lat="50.82869" lon="1.90656">
        <ele>58</ele>
        <time>2015-05-12T12:35:46.000Z</time>
      </trkpt>
      <trkpt lat="50.82869" lon="1.90656">
        <ele>58</ele>
        <time>2015-05-12T12:35:47.000Z</time>
      </trkpt>
      <trkpt lat="50.82869" lon="1.90656">
        <ele>58</ele>
        <time>2015-05-12T12:35:48.000Z</time>
      </trkpt>
      <trkpt lat="50.82869" lon="1.90656">
        <ele>58</ele>
        <time>2015-05-12T12:35:49.000Z</time>
      </trkpt>
      <trkpt lat="50.82869" lon="1.90656">
        <ele>58</ele>
        <time>2015-05-12T12:35:50.000Z</time>
      </trkpt>
      <trkpt lat="50.82869" lon="1.90656">
        <ele>58</ele>
        <time>2015-05-12T12:35:51.000Z</time>
      </trkpt>
      <trkpt lat="50.82869" lon="1.90656">
        <ele>58</ele>
        <time>2015-05-12T12:35:52.000Z</time>
      </trkpt>
      <trkpt lat="50.82869" lon="1.90656">
        <ele>58</ele>
        <time>2015-05-12T12:35:53.000Z</time>
      </trkpt>
      <trkpt lat="50.82869" lon="1.90656">
        <ele>58</ele>
        <time>2015-05-12T12:35:54.000Z</time>
      </trkpt>
      <trkpt lat="50.82869" lon="1.90656">
        <ele>58</ele>
        <time>2015-05-12T12:35:55.000Z</time>
      </trkpt>
      <trkpt lat="50.82869" lon="1.90656">
        <ele>57</ele>
        <time>2015-05-12T12:35:56.000Z</time>
      </trkpt>
      <trkpt lat="50.82869" lon="1.90656">
        <ele>57</ele>
        <time>2015-05-12T12:35:57.000Z</time>
      </trkpt>
      <trkpt lat="50.82869" lon="1.90656">
        <ele>57</ele>
        <time>2015-05-12T12:35:58.000Z</time>
      </trkpt>
      <trkpt lat="50.82869" lon="1.90656">
        <ele>57</ele>
        <time>2015-05-12T12:35:59.000Z</time>
      </trkpt>
      <trkpt lat="50.82869" lon="1.90656">
        <ele>57</ele>
        <time>2015-05-12T12:36:00.000Z</time>
      </trkpt>
      <trkpt lat="50.82869" lon="1.90656">
        <ele>57</ele>
        <time>2015-05-12T12:36:01.000Z</time>
      </trkpt>
      <trkpt lat="50.82869" lon="1.90656">
        <ele>57</ele>
        <time>2015-05-12T12:36:02.000Z</time>
      </trkpt>
      <trkpt lat="50.82869" lon="1.90656">
        <ele>57</ele>
        <time>2015-05-12T12:36:03.000Z</time>
      </trkpt>
      <trkpt lat="50.82869" lon="1.90656">
        <ele>57</ele>
        <time>2015-05-12T12:36:04.000Z</time>
      </trkpt>
      <trkpt lat="50.82869" lon="1.90656">
        <ele>57</ele>
        <time>2015-05-12T12:36:05.000Z</time>
      </trkpt>
      <trkpt lat="50.82869" lon="1.90656">
        <ele>57</ele>
        <time>2015-05-12T12:36:06.000Z</time>
      </trkpt>
      <trkpt lat="50.82869" lon="1.90656">
        <ele>57</ele>
        <time>2015-05-12T12:36:07.000Z</time>
      </trkpt>
      <trkpt lat="50.82869" lon="1.90656">
        <ele>57</ele>
        <time>2015-05-12T12:36:08.000Z</time>
      </trkpt>
      <trkpt lat="50.82869" lon="1.90656">
        <ele>57</ele>
        <time>2015-05-12T12:36:09.000Z</time>
      </trkpt>
      <trkpt lat="50.82869" lon="1.90656">
        <ele>57</ele>
        <time>2015-05-12T12:36:10.000Z</time>
      </trkpt>
      <trkpt lat="50.8287" lon="1.90655">
        <ele>57</ele>
        <time>2015-05-12T12:36:11.000Z</time>
      </trkpt>
      <trkpt lat="50.8287" lon="1.90655">
        <ele>57</ele>
        <time>2015-05-12T12:36:12.000Z</time>
      </trkpt>
      <trkpt lat="50.8287" lon="1.90655">
        <ele>57</ele>
        <time>2015-05-12T12:36:13.000Z</time>
      </trkpt>
      <trkpt lat="50.8287" lon="1.90655">
        <ele>57</ele>
        <time>2015-05-12T12:36:14.000Z</time>
      </trkpt>
      <trkpt lat="50.8287" lon="1.90655">
        <ele>57</ele>
        <time>2015-05-12T12:36:15.000Z</time>
      </trkpt>
      <trkpt lat="50.8287" lon="1.90655">
        <ele>57</ele>
        <time>2015-05-12T12:36:16.000Z</time>
      </trkpt>
      <trkpt lat="50.8287" lon="1.90655">
        <ele>57</ele>
        <time>2015-05-12T12:36:17.000Z</time>
      </trkpt>
      <trkpt lat="50.8287" lon="1.90655">
        <ele>57</ele>
        <time>2015-05-12T12:36:18.000Z</time>
      </trkpt>
      <trkpt lat="50.8287" lon="1.90655">
        <ele>57</ele>
        <time>2015-05-12T12:36:19.000Z</time>
      </trkpt>
      <trkpt lat="50.8287" lon="1.90655">
        <ele>56</ele>
        <time>2015-05-12T12:36:20.000Z</time>
      </trkpt>
      <trkpt lat="50.8287" lon="1.90655">
        <ele>56</ele>
        <time>2015-05-12T12:36:21.000Z</time>
      </trkpt>
      <trkpt lat="50.8287" lon="1.90654">
        <ele>56</ele>
        <time>2015-05-12T12:36:22.000Z</time>
      </trkpt>
      <trkpt lat="50.8287" lon="1.90654">
        <ele>56</ele>
        <time>2015-05-12T12:36:23.000Z</time>
      </trkpt>
      <trkpt lat="50.8287" lon="1.90654">
        <ele>56</ele>
        <time>2015-05-12T12:36:24.000Z</time>
      </trkpt>
      <trkpt lat="50.82871" lon="1.90654">
        <ele>56</ele>
        <time>2015-05-12T12:36:25.000Z</time>
      </trkpt>
      <trkpt lat="50.82871" lon="1.90654">
        <ele>56</ele>
        <time>2015-05-12T12:36:26.000Z</time>
      </trkpt>
      <trkpt lat="50.82871" lon="1.90654">
        <ele>56</ele>
        <time>2015-05-12T12:36:27.000Z</time>
      </trkpt>
      <trkpt lat="50.82871" lon="1.90654">
        <ele>57</ele>
        <time>2015-05-12T12:36:28.000Z</time>
      </trkpt>
      <trkpt lat="50.82871" lon="1.90654">
        <ele>57</ele>
        <time>2015-05-12T12:36:29.000Z</time>
      </trkpt>
      <trkpt lat="50.82871" lon="1.90654">
        <ele>57</ele>
        <time>2015-05-12T12:36:30.000Z</time>
      </trkpt>
      <trkpt lat="50.82871" lon="1.90654">
        <ele>57</ele>
        <time>2015-05-12T12:36:31.000Z</time>
      </trkpt>
      <trkpt lat="50.82871" lon="1.90654">
        <ele>56</ele>
        <time>2015-05-12T12:36:32.000Z</time>
      </trkpt>
      <trkpt lat="50.82871" lon="1.90654">
        <ele>56</ele>
        <time>2015-05-12T12:36:33.000Z</time>
      </trkpt>
      <trkpt lat="50.82871" lon="1.90654">
        <ele>57</ele>
        <time>2015-05-12T12:36:34.000Z</time>
      </trkpt>
      <trkpt lat="50.82871" lon="1.90654">
        <ele>57</ele>
        <time>2015-05-12T12:36:35.000Z</time>
      </trkpt>
      <trkpt lat="50.82871" lon="1.90654">
        <ele>57</ele>
        <time>2015-05-12T12:36:36.000Z</time>
      </trkpt>
      <trkpt lat="50.82871" lon="1.90653">
        <ele>57</ele>
        <time>2015-05-12T12:36:37.000Z</time>
      </trkpt>
      <trkpt lat="50.82871" lon="1.90653">
        <ele>57</ele>
        <time>2015-05-12T12:36:38.000Z</time>
      </trkpt>
      <trkpt lat="50.82871" lon="1.90653">
        <ele>57</ele>
        <time>2015-05-12T12:36:39.000Z</time>
      </trkpt>
      <trkpt lat="50.82871" lon="1.90653">
        <ele>57</ele>
        <time>2015-05-12T12:36:40.000Z</time>
      </trkpt>
      <trkpt lat="50.82871" lon="1.90653">
        <ele>57</ele>
        <time>2015-05-12T12:36:41.000Z</time>
      </trkpt>
      <trkpt lat="50.82871" lon="1.90653">
        <ele>57</ele>
        <time>2015-05-12T12:36:42.000Z</time>
      </trkpt>
      <trkpt lat="50.82871" lon="1.90653">
        <ele>57</ele>
        <time>2015-05-12T12:36:43.000Z</time>
      </trkpt>
      <trkpt lat="50.82871" lon="1.90653">
        <ele>57</ele>
        <time>2015-05-12T12:36:44.000Z</time>
      </trkpt>
      <trkpt lat="50.82871" lon="1.90653">
        <ele>57</ele>
        <time>2015-05-12T12:36:45.000Z</time>
      </trkpt>
      <trkpt lat="50.82871" lon="1.90653">
        <ele>57</ele>
        <time>2015-05-12T12:36:46.000Z</time>
      </trkpt>
      <trkpt lat="50.82872" lon="1.90653">
        <ele>57</ele>
        <time>2015-05-12T12:36:47.000Z</time>
      </trkpt>
      <trkpt lat="50.82872" lon="1.90652">
        <ele>57</ele>
        <time>2015-05-12T12:36:48.000Z</time>
      </trkpt>
      <trkpt lat="50.82872" lon="1.90652">
        <ele>57</ele>
        <time>2015-05-12T12:36:49.000Z</time>
      </trkpt>
      <trkpt lat="50.82872" lon="1.90652">
        <ele>56</ele>
        <time>2015-05-12T12:36:50.000Z</time>
      </trkpt>
      <trkpt lat="50.82872" lon="1.90652">
        <ele>56</ele>
        <time>2015-05-12T12:36:51.000Z</time>
      </trkpt>
      <trkpt lat="50.82872" lon="1.90652">
        <ele>56</ele>
        <time>2015-05-12T12:36:52.000Z</time>
      </trkpt>
      <trkpt lat="50.82872" lon="1.90652">
        <ele>56</ele>
        <time>2015-05-12T12:36:53.000Z</time>
      </trkpt>
      <trkpt lat="50.82872" lon="1.90652">
        <ele>56</ele>
        <time>2015-05-12T12:36:54.000Z</time>
      </trkpt>
      <trkpt lat="50.82872" lon="1.90652">
        <ele>56</ele>
        <time>2015-05-12T12:36:55.000Z</time>
      </trkpt>
      <trkpt lat="50.82872" lon="1.90652">
        <ele>56</ele>
        <time>2015-05-12T12:36:56.000Z</time>
      </trkpt>
      <trkpt lat="50.82872" lon="1.90652">
        <ele>56</ele>
        <time>2015-05-12T12:36:57.000Z</time>
      </trkpt>
      <trkpt lat="50.82872" lon="1.90652">
        <ele>56</ele>
        <time>2015-05-12T12:36:58.000Z</time>
      </trkpt>
      <trkpt lat="50.82872" lon="1.90652">
        <ele>56</ele>
        <time>2015-05-12T12:36:59.000Z</time>
      </trkpt>
      <trkpt lat="50.82872" lon="1.90652">
        <ele>56</ele>
        <time>2015-05-12T12:37:00.000Z</time>
      </trkpt>
      <trkpt lat="50.82872" lon="1.90651">
        <ele>56</ele>
        <time>2015-05-12T12:37:01.000Z</time>
      </trkpt>
      <trkpt lat="50.82872" lon="1.90651">
        <ele>56</ele>
        <time>2015-05-12T12:37:02.000Z</time>
      </trkpt>
      <trkpt lat="50.82872" lon="1.90651">
        <ele>56</ele>
        <time>2015-05-12T12:37:03.000Z</time>
      </trkpt>
      <trkpt lat="50.82872" lon="1.90651">
        <ele>56</ele>
        <time>2015-05-12T12:37:04.000Z</time>
      </trkpt>
      <trkpt lat="50.82872" lon="1.90651">
        <ele>56</ele>
        <time>2015-05-12T12:37:05.000Z</time>
      </trkpt>
      <trkpt lat="50.82872" lon="1.90651">
        <ele>56</ele>
        <time>2015-05-12T12:37:06.000Z</time>
      </trkpt>
      <trkpt lat="50.82872" lon="1.90651">
        <ele>56</ele>
        <time>2015-05-12T12:37:07.000Z</time>
      </trkpt>
      <trkpt lat="50.82872" lon="1.90651">
        <ele>56</ele>
        <time>2015-05-12T12:37:08.000Z</time>
      </trkpt>
      <trkpt lat="50.82872" lon="1.90651">
        <ele>56</ele>
        <time>2015-05-12T12:37:09.000Z</time>
      </trkpt>
      <trkpt lat="50.82873" lon="1.90651">
        <ele>56</ele>
        <time>2015-05-12T12:37:10.000Z</time>
      </trkpt>
      <trkpt lat="50.82873" lon="1.9065">
        <ele>56</ele>
        <time>2015-05-12T12:37:11.000Z</time>
      </trkpt>
      <trkpt lat="50.82873" lon="1.9065">
        <ele>56</ele>
        <time>2015-05-12T12:37:12.000Z</time>
      </trkpt>
      <trkpt lat="50.82873" lon="1.9065">
        <ele>56</ele>
        <time>2015-05-12T12:37:13.000Z</time>
      </trkpt>
      <trkpt lat="50.82873" lon="1.9065">
        <ele>56</ele>
        <time>2015-05-12T12:37:14.000Z</time>
      </trkpt>
      <trkpt lat="50.82873" lon="1.9065">
        <ele>56</ele>
        <time>2015-05-12T12:37:15.000Z</time>
      </trkpt>
      <trkpt lat="50.82873" lon="1.9065">
        <ele>56</ele>
        <time>2015-05-12T12:37:16.000Z</time>
      </trkpt>
      <trkpt lat="50.82873" lon="1.9065">
        <ele>56</ele>
        <time>2015-05-12T12:37:17.000Z</time>
      </trkpt>
      <trkpt lat="50.82873" lon="1.9065">
        <ele>56</ele>
        <time>2015-05-12T12:37:18.000Z</time>
      </trkpt>
      <trkpt lat="50.82873" lon="1.9065">
        <ele>56</ele>
        <time>2015-05-12T12:37:19.000Z</time>
      </trkpt>
      <trkpt lat="50.82873" lon="1.9065">
        <ele>56</ele>
        <time>2015-05-12T12:37:20.000Z</time>
      </trkpt>
      <trkpt lat="50.82873" lon="1.9065">
        <ele>56</ele>
        <time>2015-05-12T12:37:21.000Z</time>
      </trkpt>
      <trkpt lat="50.82873" lon="1.9065">
        <ele>56</ele>
        <time>2015-05-12T12:37:22.000Z</time>
      </trkpt>
      <trkpt lat="50.82873" lon="1.9065">
        <ele>56</ele>
        <time>2015-05-12T12:37:23.000Z</time>
      </trkpt>
      <trkpt lat="50.82872" lon="1.9065">
        <ele>55</ele>
        <time>2015-05-12T12:37:24.000Z</time>
      </trkpt>
      <trkpt lat="50.82872" lon="1.9065">
        <ele>55</ele>
        <time>2015-05-12T12:37:25.000Z</time>
      </trkpt>
      <trkpt lat="50.82872" lon="1.90651">
        <ele>55</ele>
        <time>2015-05-12T12:37:26.000Z</time>
      </trkpt>
      <trkpt lat="50.82872" lon="1.90651">
        <ele>55</ele>
        <time>2015-05-12T12:37:27.000Z</time>
      </trkpt>
      <trkpt lat="50.82872" lon="1.90651">
        <ele>55</ele>
        <time>2015-05-12T12:37:28.000Z</time>
      </trkpt>
      <trkpt lat="50.82872" lon="1.90651">
        <ele>55</ele>
        <time>2015-05-12T12:37:29.000Z</time>
      </trkpt>
      <trkpt lat="50.82872" lon="1.90651">
        <ele>55</ele>
        <time>2015-05-12T12:37:30.000Z</time>
      </trkpt>
      <trkpt lat="50.82872" lon="1.90651">
        <ele>55</ele>
        <time>2015-05-12T12:37:31.000Z</time>
      </trkpt>
      <trkpt lat="50.82872" lon="1.90651">
        <ele>55</ele>
        <time>2015-05-12T12:37:32.000Z</time>
      </trkpt>
      <trkpt lat="50.82872" lon="1.90651">
        <ele>55</ele>
        <time>2015-05-12T12:37:33.000Z</time>
      </trkpt>
      <trkpt lat="50.82872" lon="1.90651">
        <ele>55</ele>
        <time>2015-05-12T12:37:34.000Z</time>
      </trkpt>
      <trkpt lat="50.82872" lon="1.90651">
        <ele>55</ele>
        <time>2015-05-12T12:37:35.000Z</time>
      </trkpt>
      <trkpt lat="50.82872" lon="1.90652">
        <ele>54</ele>
        <time>2015-05-12T12:37:36.000Z</time>
      </trkpt>
      <trkpt lat="50.82872" lon="1.90652">
        <ele>55</ele>
        <time>2015-05-12T12:37:37.000Z</time>
      </trkpt>
      <trkpt lat="50.82872" lon="1.90652">
        <ele>54</ele>
        <time>2015-05-12T12:37:38.000Z</time>
      </trkpt>
      <trkpt lat="50.82872" lon="1.90651">
        <ele>54</ele>
        <time>2015-05-12T12:37:39.000Z</time>
      </trkpt>
      <trkpt lat="50.82872" lon="1.90652">
        <ele>54</ele>
        <time>2015-05-12T12:37:40.000Z</time>
      </trkpt>
      <trkpt lat="50.82872" lon="1.90651">
        <ele>54</ele>
        <time>2015-05-12T12:37:41.000Z</time>
      </trkpt>
      <trkpt lat="50.82872" lon="1.90651">
        <ele>54</ele>
        <time>2015-05-12T12:37:42.000Z</time>
      </trkpt>
      <trkpt lat="50.82872" lon="1.90651">
        <ele>54</ele>
        <time>2015-05-12T12:37:43.000Z</time>
      </trkpt>
      <trkpt lat="50.82872" lon="1.90651">
        <ele>54</ele>
        <time>2015-05-12T12:37:44.000Z</time>
      </trkpt>
      <trkpt lat="50.82872" lon="1.90651">
        <ele>54</ele>
        <time>2015-05-12T12:37:45.000Z</time>
      </trkpt>
      <trkpt lat="50.82872" lon="1.90651">
        <ele>54</ele>
        <time>2015-05-12T12:37:46.000Z</time>
      </trkpt>
      <trkpt lat="50.82872" lon="1.90652">
        <ele>54</ele>
        <time>2015-05-12T12:37:47.000Z</time>
      </trkpt>
      <trkpt lat="50.82872" lon="1.90652">
        <ele>54</ele>
        <time>2015-05-12T12:37:48.000Z</time>
      </trkpt>
      <trkpt lat="50.82872" lon="1.90651">
        <ele>55</ele>
        <time>2015-05-12T12:37:49.000Z</time>
      </trkpt>
      <trkpt lat="50.82872" lon="1.90651">
        <ele>55</ele>
        <time>2015-05-12T12:37:50.000Z</time>
      </trkpt>
      <trkpt lat="50.82872" lon="1.90651">
        <ele>55</ele>
        <time>2015-05-12T12:37:51.000Z</time>
      </trkpt>
      <trkpt lat="50.82872" lon="1.90651">
        <ele>55</ele>
        <time>2015-05-12T12:37:52.000Z</time>
      </trkpt>
      <trkpt lat="50.82872" lon="1.90651">
        <ele>55</ele>
        <time>2015-05-12T12:37:53.000Z</time>
      </trkpt>
      <trkpt lat="50.82872" lon="1.90651">
        <ele>56</ele>
        <time>2015-05-12T12:37:54.000Z</time>
      </trkpt>
      <trkpt lat="50.82872" lon="1.90651">
        <ele>56</ele>
        <time>2015-05-12T12:37:55.000Z</time>
      </trkpt>
      <trkpt lat="50.82872" lon="1.90651">
        <ele>56</ele>
        <time>2015-05-12T12:37:56.000Z</time>
      </trkpt>
      <trkpt lat="50.82872" lon="1.90651">
        <ele>56</ele>
        <time>2015-05-12T12:37:57.000Z</time>
      </trkpt>
      <trkpt lat="50.82872" lon="1.90651">
        <ele>56</ele>
        <time>2015-05-12T12:37:58.000Z</time>
      </trkpt>
      <trkpt lat="50.82872" lon="1.90651">
        <ele>56</ele>
        <time>2015-05-12T12:37:59.000Z</time>
      </trkpt>
      <trkpt lat="50.82872" lon="1.90651">
        <ele>55</ele>
        <time>2015-05-12T12:38:00.000Z</time>
      </trkpt>
      <trkpt lat="50.82872" lon="1.90651">
        <ele>55</ele>
        <time>2015-05-12T12:38:01.000Z</time>
      </trkpt>
      <trkpt lat="50.82872" lon="1.90651">
        <ele>55</ele>
        <time>2015-05-12T12:38:02.000Z</time>
      </trkpt>
      <trkpt lat="50.82872" lon="1.90651">
        <ele>55</ele>
        <time>2015-05-12T12:38:03.000Z</time>
      </trkpt>
      <trkpt lat="50.82872" lon="1.90651">
        <ele>55</ele>
        <time>2015-05-12T12:38:04.000Z</time>
      </trkpt>
      <trkpt lat="50.82872" lon="1.90651">
        <ele>55</ele>
        <time>2015-05-12T12:38:05.000Z</time>
      </trkpt>
      <trkpt lat="50.82872" lon="1.90651">
        <ele>55</ele>
        <time>2015-05-12T12:38:06.000Z</time>
      </trkpt>
      <trkpt lat="50.82872" lon="1.90651">
        <ele>55</ele>
        <time>2015-05-12T12:38:07.000Z</time>
      </trkpt>
      <trkpt lat="50.82872" lon="1.90651">
        <ele>55</ele>
        <time>2015-05-12T12:38:08.000Z</time>
      </trkpt>
      <trkpt lat="50.82872" lon="1.90651">
        <ele>55</ele>
        <time>2015-05-12T12:38:09.000Z</time>
      </trkpt>
      <trkpt lat="50.82871" lon="1.90651">
        <ele>55</ele>
        <time>2015-05-12T12:38:10.000Z</time>
      </trkpt>
      <trkpt lat="50.82871" lon="1.90652">
        <ele>56</ele>
        <time>2015-05-12T12:38:11.000Z</time>
      </trkpt>
      <trkpt lat="50.82872" lon="1.90652">
        <ele>55</ele>
        <time>2015-05-12T12:38:12.000Z</time>
      </trkpt>
      <trkpt lat="50.82872" lon="1.90652">
        <ele>56</ele>
        <time>2015-05-12T12:38:13.000Z</time>
      </trkpt>
      <trkpt lat="50.82872" lon="1.90652">
        <ele>56</ele>
        <time>2015-05-12T12:38:14.000Z</time>
      </trkpt>
      <trkpt lat="50.82871" lon="1.90652">
        <ele>56</ele>
        <time>2015-05-12T12:38:15.000Z</time>
      </trkpt>
      <trkpt lat="50.82871" lon="1.90652">
        <ele>56</ele>
        <time>2015-05-12T12:38:16.000Z</time>
      </trkpt>
      <trkpt lat="50.82871" lon="1.90652">
        <ele>56</ele>
        <time>2015-05-12T12:38:17.000Z</time>
      </trkpt>
      <trkpt lat="50.82871" lon="1.90652">
        <ele>56</ele>
        <time>2015-05-12T12:38:18.000Z</time>
      </trkpt>
      <trkpt lat="50.82871" lon="1.90652">
        <ele>56</ele>
        <time>2015-05-12T12:38:19.000Z</time>
      </trkpt>
      <trkpt lat="50.82871" lon="1.90652">
        <ele>56</ele>
        <time>2015-05-12T12:38:20.000Z</time>
      </trkpt>
      <trkpt lat="50.82871" lon="1.90652">
        <ele>56</ele>
        <time>2015-05-12T12:38:21.000Z</time>
      </trkpt>
      <trkpt lat="50.82871" lon="1.90652">
        <ele>56</ele>
        <time>2015-05-12T12:38:22.000Z</time>
      </trkpt>
      <trkpt lat="50.82871" lon="1.90652">
        <ele>56</ele>
        <time>2015-05-12T12:38:23.000Z</time>
      </trkpt>
      <trkpt lat="50.82871" lon="1.90652">
        <ele>56</ele>
        <time>2015-05-12T12:38:24.000Z</time>
      </trkpt>
      <trkpt lat="50.82872" lon="1.90652">
        <ele>56</ele>
        <time>2015-05-12T12:38:25.000Z</time>
      </trkpt>
      <trkpt lat="50.82872" lon="1.90652">
        <ele>56</ele>
        <time>2015-05-12T12:38:26.000Z</time>
      </trkpt>
      <trkpt lat="50.82872" lon="1.90652">
        <ele>56</ele>
        <time>2015-05-12T12:38:27.000Z</time>
      </trkpt>
      <trkpt lat="50.82872" lon="1.90652">
        <ele>56</ele>
        <time>2015-05-12T12:38:28.000Z</time>
      </trkpt>
      <trkpt lat="50.82872" lon="1.90652">
        <ele>56</ele>
        <time>2015-05-12T12:38:29.000Z</time>
      </trkpt>
      <trkpt lat="50.82872" lon="1.90652">
        <ele>56</ele>
        <time>2015-05-12T12:38:30.000Z</time>
      </trkpt>
      <trkpt lat="50.82872" lon="1.90652">
        <ele>56</ele>
        <time>2015-05-12T12:38:31.000Z</time>
      </trkpt>
      <trkpt lat="50.82872" lon="1.90652">
        <ele>56</ele>
        <time>2015-05-12T12:38:32.000Z</time>
      </trkpt>
      <trkpt lat="50.82872" lon="1.90652">
        <ele>56</ele>
        <time>2015-05-12T12:38:33.000Z</time>
      </trkpt>
      <trkpt lat="50.82872" lon="1.90653">
        <ele>56</ele>
        <time>2015-05-12T12:38:34.000Z</time>
      </trkpt>
      <trkpt lat="50.82872" lon="1.90653">
        <ele>56</ele>
        <time>2015-05-12T12:38:35.000Z</time>
      </trkpt>
      <trkpt lat="50.82872" lon="1.90653">
        <ele>56</ele>
        <time>2015-05-12T12:38:36.000Z</time>
      </trkpt>
      <trkpt lat="50.82872" lon="1.90653">
        <ele>56</ele>
        <time>2015-05-12T12:38:37.000Z</time>
      </trkpt>
      <trkpt lat="50.82872" lon="1.90653">
        <ele>56</ele>
        <time>2015-05-12T12:38:38.000Z</time>
      </trkpt>
      <trkpt lat="50.82872" lon="1.90653">
        <ele>56</ele>
        <time>2015-05-12T12:38:39.000Z</time>
      </trkpt>
      <trkpt lat="50.82872" lon="1.90653">
        <ele>56</ele>
        <time>2015-05-12T12:38:40.000Z</time>
      </trkpt>
      <trkpt lat="50.82872" lon="1.90653">
        <ele>57</ele>
        <time>2015-05-12T12:38:41.000Z</time>
      </trkpt>
      <trkpt lat="50.82872" lon="1.90653">
        <ele>57</ele>
        <time>2015-05-12T12:38:42.000Z</time>
      </trkpt>
      <trkpt lat="50.82872" lon="1.90653">
        <ele>57</ele>
        <time>2015-05-12T12:38:43.000Z</time>
      </trkpt>
      <trkpt lat="50.82872" lon="1.90653">
        <ele>57</ele>
        <time>2015-05-12T12:38:44.000Z</time>
      </trkpt>
      <trkpt lat="50.82871" lon="1.90653">
        <ele>57</ele>
        <time>2015-05-12T12:38:45.000Z</time>
      </trkpt>
      <trkpt lat="50.82871" lon="1.90653">
        <ele>57</ele>
        <time>2015-05-12T12:38:46.000Z</time>
      </trkpt>
      <trkpt lat="50.82871" lon="1.90653">
        <ele>57</ele>
        <time>2015-05-12T12:38:47.000Z</time>
      </trkpt>
      <trkpt lat="50.82871" lon="1.90653">
        <ele>56</ele>
        <time>2015-05-12T12:38:48.000Z</time>
      </trkpt>
      <trkpt lat="50.82872" lon="1.90653">
        <ele>56</ele>
        <time>2015-05-12T12:38:49.000Z</time>
      </trkpt>
      <trkpt lat="50.82872" lon="1.90653">
        <ele>56</ele>
        <time>2015-05-12T12:38:50.000Z</time>
      </trkpt>
      <trkpt lat="50.82872" lon="1.90653">
        <ele>56</ele>
        <time>2015-05-12T12:38:51.000Z</time>
      </trkpt>
      <trkpt lat="50.82872" lon="1.90653">
        <ele>57</ele>
        <time>2015-05-12T12:38:52.000Z</time>
      </trkpt>
      <trkpt lat="50.82872" lon="1.90653">
        <ele>57</ele>
        <time>2015-05-12T12:38:53.000Z</time>
      </trkpt>
      <trkpt lat="50.82872" lon="1.90653">
        <ele>57</ele>
        <time>2015-05-12T12:38:54.000Z</time>
      </trkpt>
      <trkpt lat="50.82872" lon="1.90653">
        <ele>57</ele>
        <time>2015-05-12T12:38:55.000Z</time>
      </trkpt>
      <trkpt lat="50.82872" lon="1.90653">
        <ele>57</ele>
        <time>2015-05-12T12:38:56.000Z</time>
      </trkpt>
      <trkpt lat="50.82872" lon="1.90653">
        <ele>57</ele>
        <time>2015-05-12T12:38:57.000Z</time>
      </trkpt>
      <trkpt lat="50.82871" lon="1.90654">
        <ele>56</ele>
        <time>2015-05-12T12:38:58.000Z</time>
      </trkpt>
      <trkpt lat="50.82871" lon="1.90654">
        <ele>56</ele>
        <time>2015-05-12T12:38:59.000Z</time>
      </trkpt>
      <trkpt lat="50.8287" lon="1.90655">
        <ele>56</ele>
        <time>2015-05-12T12:39:00.000Z</time>
      </trkpt>
      <trkpt lat="50.8287" lon="1.90655">
        <ele>56</ele>
        <time>2015-05-12T12:39:01.000Z</time>
      </trkpt>
      <trkpt lat="50.8287" lon="1.90655">
        <ele>56</ele>
        <time>2015-05-12T12:39:02.000Z</time>
      </trkpt>
      <trkpt lat="50.8287" lon="1.90656">
        <ele>55</ele>
        <time>2015-05-12T12:39:03.000Z</time>
      </trkpt>
      <trkpt lat="50.82869" lon="1.90656">
        <ele>56</ele>
        <time>2015-05-12T12:39:04.000Z</time>
      </trkpt>
      <trkpt lat="50.82869" lon="1.90657">
        <ele>56</ele>
        <time>2015-05-12T12:39:05.000Z</time>
      </trkpt>
      <trkpt lat="50.82869" lon="1.90657">
        <ele>56</ele>
        <time>2015-05-12T12:39:06.000Z</time>
      </trkpt>
      <trkpt lat="50.82869" lon="1.90658">
        <ele>56</ele>
        <time>2015-05-12T12:39:07.000Z</time>
      </trkpt>
      <trkpt lat="50.82869" lon="1.90659">
        <ele>56</ele>
        <time>2015-05-12T12:39:08.000Z</time>
      </trkpt>
      <trkpt lat="50.82869" lon="1.9066">
        <ele>55</ele>
        <time>2015-05-12T12:39:09.000Z</time>
      </trkpt>
      <trkpt lat="50.82869" lon="1.90661">
        <ele>55</ele>
        <time>2015-05-12T12:39:10.000Z</time>
      </trkpt>
      <trkpt lat="50.82868" lon="1.90662">
        <ele>55</ele>
        <time>2015-05-12T12:39:11.000Z</time>
      </trkpt>
      <trkpt lat="50.82868" lon="1.90663">
        <ele>55</ele>
        <time>2015-05-12T12:39:12.000Z</time>
      </trkpt>
      <trkpt lat="50.82867" lon="1.90665">
        <ele>55</ele>
        <time>2015-05-12T12:39:13.000Z</time>
      </trkpt>
      <trkpt lat="50.82867" lon="1.90666">
        <ele>55</ele>
        <time>2015-05-12T12:39:14.000Z</time>
      </trkpt>
      <trkpt lat="50.82867" lon="1.90667">
        <ele>55</ele>
        <time>2015-05-12T12:39:15.000Z</time>
      </trkpt>
      <trkpt lat="50.82867" lon="1.90668">
        <ele>55</ele>
        <time>2015-05-12T12:39:16.000Z</time>
      </trkpt>
      <trkpt lat="50.82867" lon="1.9067">
        <ele>55</ele>
        <time>2015-05-12T12:39:17.000Z</time>
      </trkpt>
      <trkpt lat="50.82867" lon="1.90671">
        <ele>55</ele>
        <time>2015-05-12T12:39:18.000Z</time>
      </trkpt>
      <trkpt lat="50.82867" lon="1.90673">
        <ele>55</ele>
        <time>2015-05-12T12:39:19.000Z</time>
      </trkpt>
      <trkpt lat="50.82866" lon="1.90674">
        <ele>55</ele>
        <time>2015-05-12T12:39:20.000Z</time>
      </trkpt>
      <trkpt lat="50.82866" lon="1.90675">
        <ele>55</ele>
        <time>2015-05-12T12:39:21.000Z</time>
      </trkpt>
      <trkpt lat="50.82866" lon="1.90676">
        <ele>56</ele>
        <time>2015-05-12T12:39:22.000Z</time>
      </trkpt>
      <trkpt lat="50.82866" lon="1.90677">
        <ele>56</ele>
        <time>2015-05-12T12:39:23.000Z</time>
      </trkpt>
      <trkpt lat="50.82865" lon="1.90677">
        <ele>56</ele>
        <time>2015-05-12T12:39:24.000Z</time>
      </trkpt>
      <trkpt lat="50.82865" lon="1.90677">
        <ele>56</ele>
        <time>2015-05-12T12:39:25.000Z</time>
      </trkpt>
      <trkpt lat="50.82865" lon="1.90677">
        <ele>56</ele>
        <time>2015-05-12T12:39:26.000Z</time>
      </trkpt>
      <trkpt lat="50.82865" lon="1.90678">
        <ele>56</ele>
        <time>2015-05-12T12:39:27.000Z</time>
      </trkpt>
      <trkpt lat="50.82865" lon="1.90678">
        <ele>56</ele>
        <time>2015-05-12T12:39:28.000Z</time>
      </trkpt>
      <trkpt lat="50.82865" lon="1.90678">
        <ele>56</ele>
        <time>2015-05-12T12:39:29.000Z</time>
      </trkpt>
      <trkpt lat="50.82865" lon="1.90678">
        <ele>56</ele>
        <time>2015-05-12T12:39:30.000Z</time>
      </trkpt>
      <trkpt lat="50.82865" lon="1.90678">
        <ele>56</ele>
        <time>2015-05-12T12:39:31.000Z</time>
      </trkpt>
      <trkpt lat="50.82865" lon="1.90677">
        <ele>56</ele>
        <time>2015-05-12T12:39:32.000Z</time>
      </trkpt>
      <trkpt lat="50.82865" lon="1.90677">
        <ele>56</ele>
        <time>2015-05-12T12:39:33.000Z</time>
      </trkpt>
      <trkpt lat="50.82865" lon="1.90677">
        <ele>56</ele>
        <time>2015-05-12T12:39:34.000Z</time>
      </trkpt>
      <trkpt lat="50.82865" lon="1.90677">
        <ele>57</ele>
        <time>2015-05-12T12:39:35.000Z</time>
      </trkpt>
      <trkpt lat="50.82865" lon="1.90677">
        <ele>57</ele>
        <time>2015-05-12T12:39:36.000Z</time>
      </trkpt>
      <trkpt lat="50.82865" lon="1.90677">
        <ele>56</ele>
        <time>2015-05-12T12:39:37.000Z</time>
      </trkpt>
      <trkpt lat="50.82865" lon="1.90677">
        <ele>56</ele>
        <time>2015-05-12T12:39:38.000Z</time>
      </trkpt>
      <trkpt lat="50.82865" lon="1.90677">
        <ele>56</ele>
        <time>2015-05-12T12:39:39.000Z</time>
      </trkpt>
      <trkpt lat="50.82865" lon="1.90678">
        <ele>56</ele>
        <time>2015-05-12T12:39:40.000Z</time>
      </trkpt>
      <trkpt lat="50.82865" lon="1.90678">
        <ele>56</ele>
        <time>2015-05-12T12:39:41.000Z</time>
      </trkpt>
      <trkpt lat="50.82865" lon="1.90678">
        <ele>56</ele>
        <time>2015-05-12T12:39:42.000Z</time>
      </trkpt>
      <trkpt lat="50.82865" lon="1.90678">
        <ele>56</ele>
        <time>2015-05-12T12:39:43.000Z</time>
      </trkpt>
      <trkpt lat="50.82865" lon="1.90678">
        <ele>56</ele>
        <time>2015-05-12T12:39:44.000Z</time>
      </trkpt>
      <trkpt lat="50.82865" lon="1.90678">
        <ele>56</ele>
        <time>2015-05-12T12:39:45.000Z</time>
      </trkpt>
      <trkpt lat="50.82865" lon="1.90678">
        <ele>56</ele>
        <time>2015-05-12T12:39:46.000Z</time>
      </trkpt>
      <trkpt lat="50.82865" lon="1.90678">
        <ele>57</ele>
        <time>2015-05-12T12:39:47.000Z</time>
      </trkpt>
      <trkpt lat="50.82865" lon="1.90678">
        <ele>56</ele>
        <time>2015-05-12T12:39:48.000Z</time>
      </trkpt>
      <trkpt lat="50.82865" lon="1.90678">
        <ele>57</ele>
        <time>2015-05-12T12:39:49.000Z</time>
      </trkpt>
      <trkpt lat="50.82865" lon="1.90678">
        <ele>56</ele>
        <time>2015-05-12T12:39:50.000Z</time>
      </trkpt>
      <trkpt lat="50.82865" lon="1.90678">
        <ele>56</ele>
        <time>2015-05-12T12:39:51.000Z</time>
      </trkpt>
      <trkpt lat="50.82865" lon="1.90678">
        <ele>56</ele>
        <time>2015-05-12T12:39:52.000Z</time>
      </trkpt>
      <trkpt lat="50.82865" lon="1.90678">
        <ele>56</ele>
        <time>2015-05-12T12:39:53.000Z</time>
      </trkpt>
      <trkpt lat="50.82865" lon="1.90678">
        <ele>56</ele>
        <time>2015-05-12T12:39:54.000Z</time>
      </trkpt>
      <trkpt lat="50.82865" lon="1.90678">
        <ele>56</ele>
        <time>2015-05-12T12:39:55.000Z</time>
      </trkpt>
      <trkpt lat="50.82865" lon="1.90678">
        <ele>56</ele>
        <time>2015-05-12T12:39:56.000Z</time>
      </trkpt>
      <trkpt lat="50.82865" lon="1.90678">
        <ele>56</ele>
        <time>2015-05-12T12:39:57.000Z</time>
      </trkpt>
      <trkpt lat="50.82866" lon="1.90678">
        <ele>56</ele>
        <time>2015-05-12T12:39:58.000Z</time>
      </trkpt>
      <trkpt lat="50.82866" lon="1.90678">
        <ele>56</ele>
        <time>2015-05-12T12:39:59.000Z</time>
      </trkpt>
      <trkpt lat="50.82866" lon="1.90678">
        <ele>56</ele>
        <time>2015-05-12T12:40:00.000Z</time>
      </trkpt>
      <trkpt lat="50.82866" lon="1.90678">
        <ele>56</ele>
        <time>2015-05-12T12:40:01.000Z</time>
      </trkpt>
      <trkpt lat="50.82866" lon="1.90678">
        <ele>56</ele>
        <time>2015-05-12T12:40:02.000Z</time>
      </trkpt>
      <trkpt lat="50.82866" lon="1.90678">
        <ele>57</ele>
        <time>2015-05-12T12:40:03.000Z</time>
      </trkpt>
      <trkpt lat="50.82866" lon="1.90679">
        <ele>57</ele>
        <time>2015-05-12T12:40:04.000Z</time>
      </trkpt>
      <trkpt lat="50.82866" lon="1.90679">
        <ele>57</ele>
        <time>2015-05-12T12:40:05.000Z</time>
      </trkpt>
      <trkpt lat="50.82866" lon="1.90679">
        <ele>57</ele>
        <time>2015-05-12T12:40:06.000Z</time>
      </trkpt>
      <trkpt lat="50.82866" lon="1.90679">
        <ele>57</ele>
        <time>2015-05-12T12:40:07.000Z</time>
      </trkpt>
      <trkpt lat="50.82866" lon="1.90679">
        <ele>57</ele>
        <time>2015-05-12T12:40:08.000Z</time>
      </trkpt>
      <trkpt lat="50.82866" lon="1.90679">
        <ele>57</ele>
        <time>2015-05-12T12:40:09.000Z</time>
      </trkpt>
      <trkpt lat="50.82866" lon="1.90679">
        <ele>57</ele>
        <time>2015-05-12T12:40:10.000Z</time>
      </trkpt>
      <trkpt lat="50.82866" lon="1.90679">
        <ele>57</ele>
        <time>2015-05-12T12:40:11.000Z</time>
      </trkpt>
      <trkpt lat="50.82866" lon="1.9068">
        <ele>57</ele>
        <time>2015-05-12T12:40:12.000Z</time>
      </trkpt>
      <trkpt lat="50.82866" lon="1.9068">
        <ele>57</ele>
        <time>2015-05-12T12:40:13.000Z</time>
      </trkpt>
      <trkpt lat="50.82866" lon="1.9068">
        <ele>57</ele>
        <time>2015-05-12T12:40:14.000Z</time>
      </trkpt>
      <trkpt lat="50.82865" lon="1.90679">
        <ele>56</ele>
        <time>2015-05-12T12:40:15.000Z</time>
      </trkpt>
      <trkpt lat="50.82865" lon="1.90679">
        <ele>56</ele>
        <time>2015-05-12T12:40:16.000Z</time>
      </trkpt>
      <trkpt lat="50.82865" lon="1.90679">
        <ele>56</ele>
        <time>2015-05-12T12:40:17.000Z</time>
      </trkpt>
      <trkpt lat="50.82865" lon="1.90679">
        <ele>56</ele>
        <time>2015-05-12T12:40:18.000Z</time>
      </trkpt>
      <trkpt lat="50.82865" lon="1.90679">
        <ele>56</ele>
        <time>2015-05-12T12:40:19.000Z</time>
      </trkpt>
      <trkpt lat="50.82865" lon="1.9068">
        <ele>56</ele>
        <time>2015-05-12T12:40:20.000Z</time>
      </trkpt>
      <trkpt lat="50.82865" lon="1.9068">
        <ele>56</ele>
        <time>2015-05-12T12:40:21.000Z</time>
      </trkpt>
      <trkpt lat="50.82865" lon="1.90681">
        <ele>56</ele>
        <time>2015-05-12T12:40:22.000Z</time>
      </trkpt>
      <trkpt lat="50.82865" lon="1.90681">
        <ele>56</ele>
        <time>2015-05-12T12:40:23.000Z</time>
      </trkpt>
      <trkpt lat="50.82865" lon="1.90682">
        <ele>56</ele>
        <time>2015-05-12T12:40:24.000Z</time>
      </trkpt>
      <trkpt lat="50.82865" lon="1.90683">
        <ele>56</ele>
        <time>2015-05-12T12:40:25.000Z</time>
      </trkpt>
      <trkpt lat="50.82865" lon="1.90684">
        <ele>56</ele>
        <time>2015-05-12T12:40:26.000Z</time>
      </trkpt>
      <trkpt lat="50.82865" lon="1.90686">
        <ele>56</ele>
        <time>2015-05-12T12:40:27.000Z</time>
      </trkpt>
      <trkpt lat="50.82865" lon="1.90687">
        <ele>55</ele>
        <time>2015-05-12T12:40:28.000Z</time>
      </trkpt>
      <trkpt lat="50.82865" lon="1.90688">
        <ele>56</ele>
        <time>2015-05-12T12:40:29.000Z</time>
      </trkpt>
      <trkpt lat="50.82865" lon="1.90689">
        <ele>56</ele>
        <time>2015-05-12T12:40:30.000Z</time>
      </trkpt>
      <trkpt lat="50.82865" lon="1.90691">
        <ele>56</ele>
        <time>2015-05-12T12:40:31.000Z</time>
      </trkpt>
      <trkpt lat="50.82865" lon="1.90692">
        <ele>56</ele>
        <time>2015-05-12T12:40:32.000Z</time>
      </trkpt>
      <trkpt lat="50.82865" lon="1.90693">
        <ele>56</ele>
        <time>2015-05-12T12:40:33.000Z</time>
      </trkpt>
      <trkpt lat="50.82865" lon="1.90695">
        <ele>56</ele>
        <time>2015-05-12T12:40:34.000Z</time>
      </trkpt>
      <trkpt lat="50.82865" lon="1.90696">
        <ele>55</ele>
        <time>2015-05-12T12:40:35.000Z</time>
      </trkpt>
      <trkpt lat="50.82864" lon="1.90698">
        <ele>56</ele>
        <time>2015-05-12T12:40:36.000Z</time>
      </trkpt>
      <trkpt lat="50.82864" lon="1.90699">
        <ele>56</ele>
        <time>2015-05-12T12:40:37.000Z</time>
      </trkpt>
      <trkpt lat="50.82864" lon="1.907">
        <ele>56</ele>
        <time>2015-05-12T12:40:38.000Z</time>
      </trkpt>
      <trkpt lat="50.82864" lon="1.90702">
        <ele>56</ele>
        <time>2015-05-12T12:40:39.000Z</time>
      </trkpt>
      <trkpt lat="50.82864" lon="1.90703">
        <ele>56</ele>
        <time>2015-05-12T12:40:40.000Z</time>
      </trkpt>
      <trkpt lat="50.82864" lon="1.90704">
        <ele>56</ele>
        <time>2015-05-12T12:40:41.000Z</time>
      </trkpt>
      <trkpt lat="50.82864" lon="1.90705">
        <ele>56</ele>
        <time>2015-05-12T12:40:42.000Z</time>
      </trkpt>
      <trkpt lat="50.82863" lon="1.90706">
        <ele>57</ele>
        <time>2015-05-12T12:40:43.000Z</time>
      </trkpt>
      <trkpt lat="50.82863" lon="1.90707">
        <ele>57</ele>
        <time>2015-05-12T12:40:44.000Z</time>
      </trkpt>
      <trkpt lat="50.82863" lon="1.90708">
        <ele>57</ele>
        <time>2015-05-12T12:40:45.000Z</time>
      </trkpt>
      <trkpt lat="50.82863" lon="1.9071">
        <ele>56</ele>
        <time>2015-05-12T12:40:46.000Z</time>
      </trkpt>
      <trkpt lat="50.82862" lon="1.90711">
        <ele>57</ele>
        <time>2015-05-12T12:40:47.000Z</time>
      </trkpt>
      <trkpt lat="50.82862" lon="1.90713">
        <ele>57</ele>
        <time>2015-05-12T12:40:48.000Z</time>
      </trkpt>
      <trkpt lat="50.82862" lon="1.90714">
        <ele>57</ele>
        <time>2015-05-12T12:40:49.000Z</time>
      </trkpt>
      <trkpt lat="50.82862" lon="1.90716">
        <ele>57</ele>
        <time>2015-05-12T12:40:50.000Z</time>
      </trkpt>
      <trkpt lat="50.82862" lon="1.90717">
        <ele>57</ele>
        <time>2015-05-12T12:40:51.000Z</time>
      </trkpt>
      <trkpt lat="50.82862" lon="1.90719">
        <ele>57</ele>
        <time>2015-05-12T12:40:52.000Z</time>
      </trkpt>
      <trkpt lat="50.82861" lon="1.9072">
        <ele>56</ele>
        <time>2015-05-12T12:40:53.000Z</time>
      </trkpt>
      <trkpt lat="50.82861" lon="1.90721">
        <ele>56</ele>
        <time>2015-05-12T12:40:54.000Z</time>
      </trkpt>
      <trkpt lat="50.82861" lon="1.90723">
        <ele>56</ele>
        <time>2015-05-12T12:40:55.000Z</time>
      </trkpt>
      <trkpt lat="50.82861" lon="1.90725">
        <ele>56</ele>
        <time>2015-05-12T12:40:56.000Z</time>
      </trkpt>
      <trkpt lat="50.8286" lon="1.90726">
        <ele>57</ele>
        <time>2015-05-12T12:40:57.000Z</time>
      </trkpt>
      <trkpt lat="50.8286" lon="1.90727">
        <ele>57</ele>
        <time>2015-05-12T12:40:58.000Z</time>
      </trkpt>
      <trkpt lat="50.8286" lon="1.90729">
        <ele>57</ele>
        <time>2015-05-12T12:40:59.000Z</time>
      </trkpt>
      <trkpt lat="50.8286" lon="1.9073">
        <ele>57</ele>
        <time>2015-05-12T12:41:00.000Z</time>
      </trkpt>
      <trkpt lat="50.8286" lon="1.90732">
        <ele>57</ele>
        <time>2015-05-12T12:41:01.000Z</time>
      </trkpt>
      <trkpt lat="50.82859" lon="1.90733">
        <ele>57</ele>
        <time>2015-05-12T12:41:02.000Z</time>
      </trkpt>
      <trkpt lat="50.82859" lon="1.90735">
        <ele>57</ele>
        <time>2015-05-12T12:41:03.000Z</time>
      </trkpt>
      <trkpt lat="50.82859" lon="1.90736">
        <ele>57</ele>
        <time>2015-05-12T12:41:04.000Z</time>
      </trkpt>
      <trkpt lat="50.82859" lon="1.90737">
        <ele>57</ele>
        <time>2015-05-12T12:41:05.000Z</time>
      </trkpt>
      <trkpt lat="50.82859" lon="1.90739">
        <ele>57</ele>
        <time>2015-05-12T12:41:06.000Z</time>
      </trkpt>
      <trkpt lat="50.82859" lon="1.90741">
        <ele>57</ele>
        <time>2015-05-12T12:41:07.000Z</time>
      </trkpt>
      <trkpt lat="50.82858" lon="1.90742">
        <ele>57</ele>
        <time>2015-05-12T12:41:08.000Z</time>
      </trkpt>
      <trkpt lat="50.82858" lon="1.90744">
        <ele>57</ele>
        <time>2015-05-12T12:41:09.000Z</time>
      </trkpt>
      <trkpt lat="50.82858" lon="1.90745">
        <ele>57</ele>
        <time>2015-05-12T12:41:10.000Z</time>
      </trkpt>
      <trkpt lat="50.82858" lon="1.90747">
        <ele>57</ele>
        <time>2015-05-12T12:41:11.000Z</time>
      </trkpt>
      <trkpt lat="50.82858" lon="1.90748">
        <ele>57</ele>
        <time>2015-05-12T12:41:12.000Z</time>
      </trkpt>
      <trkpt lat="50.82858" lon="1.9075">
        <ele>57</ele>
        <time>2015-05-12T12:41:13.000Z</time>
      </trkpt>
      <trkpt lat="50.82857" lon="1.90752">
        <ele>57</ele>
        <time>2015-05-12T12:41:14.000Z</time>
      </trkpt>
      <trkpt lat="50.82857" lon="1.90753">
        <ele>57</ele>
        <time>2015-05-12T12:41:15.000Z</time>
      </trkpt>
      <trkpt lat="50.82857" lon="1.90755">
        <ele>57</ele>
        <time>2015-05-12T12:41:16.000Z</time>
      </trkpt>
      <trkpt lat="50.82857" lon="1.90756">
        <ele>58</ele>
        <time>2015-05-12T12:41:17.000Z</time>
      </trkpt>
      <trkpt lat="50.82857" lon="1.90758">
        <ele>58</ele>
        <time>2015-05-12T12:41:18.000Z</time>
      </trkpt>
      <trkpt lat="50.82857" lon="1.9076">
        <ele>58</ele>
        <time>2015-05-12T12:41:19.000Z</time>
      </trkpt>
      <trkpt lat="50.82857" lon="1.90761">
        <ele>58</ele>
        <time>2015-05-12T12:41:20.000Z</time>
      </trkpt>
      <trkpt lat="50.82856" lon="1.90763">
        <ele>58</ele>
        <time>2015-05-12T12:41:21.000Z</time>
      </trkpt>
      <trkpt lat="50.82856" lon="1.90765">
        <ele>58</ele>
        <time>2015-05-12T12:41:22.000Z</time>
      </trkpt>
      <trkpt lat="50.82856" lon="1.90766">
        <ele>58</ele>
        <time>2015-05-12T12:41:23.000Z</time>
      </trkpt>
      <trkpt lat="50.82856" lon="1.90768">
        <ele>58</ele>
        <time>2015-05-12T12:41:24.000Z</time>
      </trkpt>
      <trkpt lat="50.82856" lon="1.9077">
        <ele>58</ele>
        <time>2015-05-12T12:41:25.000Z</time>
      </trkpt>
      <trkpt lat="50.82855" lon="1.90772">
        <ele>58</ele>
        <time>2015-05-12T12:41:26.000Z</time>
      </trkpt>
      <trkpt lat="50.82855" lon="1.90773">
        <ele>58</ele>
        <time>2015-05-12T12:41:27.000Z</time>
      </trkpt>
      <trkpt lat="50.82855" lon="1.90775">
        <ele>58</ele>
        <time>2015-05-12T12:41:28.000Z</time>
      </trkpt>
      <trkpt lat="50.82855" lon="1.90776">
        <ele>57</ele>
        <time>2015-05-12T12:41:29.000Z</time>
      </trkpt>
      <trkpt lat="50.82855" lon="1.90778">
        <ele>57</ele>
        <time>2015-05-12T12:41:30.000Z</time>
      </trkpt>
      <trkpt lat="50.82855" lon="1.90779">
        <ele>57</ele>
        <time>2015-05-12T12:41:31.000Z</time>
      </trkpt>
      <trkpt lat="50.82854" lon="1.90781">
        <ele>58</ele>
        <time>2015-05-12T12:41:32.000Z</time>
      </trkpt>
      <trkpt lat="50.82854" lon="1.90783">
        <ele>58</ele>
        <time>2015-05-12T12:41:33.000Z</time>
      </trkpt>
      <trkpt lat="50.82854" lon="1.90784">
        <ele>57</ele>
        <time>2015-05-12T12:41:34.000Z</time>
      </trkpt>
      <trkpt lat="50.82854" lon="1.90786">
        <ele>58</ele>
        <time>2015-05-12T12:41:35.000Z</time>
      </trkpt>
      <trkpt lat="50.82854" lon="1.90787">
        <ele>57</ele>
        <time>2015-05-12T12:41:36.000Z</time>
      </trkpt>
      <trkpt lat="50.82854" lon="1.90789">
        <ele>58</ele>
        <time>2015-05-12T12:41:37.000Z</time>
      </trkpt>
      <trkpt lat="50.82853" lon="1.9079">
        <ele>58</ele>
        <time>2015-05-12T12:41:38.000Z</time>
      </trkpt>
      <trkpt lat="50.82853" lon="1.90792">
        <ele>57</ele>
        <time>2015-05-12T12:41:39.000Z</time>
      </trkpt>
      <trkpt lat="50.82853" lon="1.90793">
        <ele>57</ele>
        <time>2015-05-12T12:41:40.000Z</time>
      </trkpt>
      <trkpt lat="50.82853" lon="1.90795">
        <ele>57</ele>
        <time>2015-05-12T12:41:41.000Z</time>
      </trkpt>
      <trkpt lat="50.82853" lon="1.90796">
        <ele>57</ele>
        <time>2015-05-12T12:41:42.000Z</time>
      </trkpt>
      <trkpt lat="50.82852" lon="1.90798">
        <ele>57</ele>
        <time>2015-05-12T12:41:43.000Z</time>
      </trkpt>
      <trkpt lat="50.82852" lon="1.90799">
        <ele>58</ele>
        <time>2015-05-12T12:41:44.000Z</time>
      </trkpt>
      <trkpt lat="50.82852" lon="1.90801">
        <ele>58</ele>
        <time>2015-05-12T12:41:45.000Z</time>
      </trkpt>
      <trkpt lat="50.82852" lon="1.90802">
        <ele>58</ele>
        <time>2015-05-12T12:41:46.000Z</time>
      </trkpt>
      <trkpt lat="50.82852" lon="1.90804">
        <ele>58</ele>
        <time>2015-05-12T12:41:47.000Z</time>
      </trkpt>
      <trkpt lat="50.82851" lon="1.90806">
        <ele>58</ele>
        <time>2015-05-12T12:41:48.000Z</time>
      </trkpt>
      <trkpt lat="50.82851" lon="1.90807">
        <ele>58</ele>
        <time>2015-05-12T12:41:49.000Z</time>
      </trkpt>
      <trkpt lat="50.82851" lon="1.90809">
        <ele>58</ele>
        <time>2015-05-12T12:41:50.000Z</time>
      </trkpt>
      <trkpt lat="50.82851" lon="1.9081">
        <ele>58</ele>
        <time>2015-05-12T12:41:51.000Z</time>
      </trkpt>
      <trkpt lat="50.82851" lon="1.90812">
        <ele>58</ele>
        <time>2015-05-12T12:41:52.000Z</time>
      </trkpt>
      <trkpt lat="50.8285" lon="1.90813">
        <ele>58</ele>
        <time>2015-05-12T12:41:53.000Z</time>
      </trkpt>
      <trkpt lat="50.8285" lon="1.90815">
        <ele>58</ele>
        <time>2015-05-12T12:41:54.000Z</time>
      </trkpt>
      <trkpt lat="50.8285" lon="1.90817">
        <ele>58</ele>
        <time>2015-05-12T12:41:55.000Z</time>
      </trkpt>
      <trkpt lat="50.8285" lon="1.90819">
        <ele>58</ele>
        <time>2015-05-12T12:41:56.000Z</time>
      </trkpt>
      <trkpt lat="50.8285" lon="1.9082">
        <ele>58</ele>
        <time>2015-05-12T12:41:57.000Z</time>
      </trkpt>
      <trkpt lat="50.8285" lon="1.90822">
        <ele>58</ele>
        <time>2015-05-12T12:41:58.000Z</time>
      </trkpt>
      <trkpt lat="50.8285" lon="1.90824">
        <ele>58</ele>
        <time>2015-05-12T12:41:59.000Z</time>
      </trkpt>
      <trkpt lat="50.8285" lon="1.90825">
        <ele>58</ele>
        <time>2015-05-12T12:42:00.000Z</time>
      </trkpt>
      <trkpt lat="50.82849" lon="1.90827">
        <ele>58</ele>
        <time>2015-05-12T12:42:01.000Z</time>
      </trkpt>
      <trkpt lat="50.82849" lon="1.90828">
        <ele>59</ele>
        <time>2015-05-12T12:42:02.000Z</time>
      </trkpt>
      <trkpt lat="50.82849" lon="1.9083">
        <ele>59</ele>
        <time>2015-05-12T12:42:03.000Z</time>
      </trkpt>
      <trkpt lat="50.82849" lon="1.90832">
        <ele>59</ele>
        <time>2015-05-12T12:42:04.000Z</time>
      </trkpt>
      <trkpt lat="50.82849" lon="1.90833">
        <ele>59</ele>
        <time>2015-05-12T12:42:05.000Z</time>
      </trkpt>
      <trkpt lat="50.82849" lon="1.90835">
        <ele>59</ele>
        <time>2015-05-12T12:42:06.000Z</time>
      </trkpt>
      <trkpt lat="50.82849" lon="1.90836">
        <ele>59</ele>
        <time>2015-05-12T12:42:07.000Z</time>
      </trkpt>
      <trkpt lat="50.82849" lon="1.90838">
        <ele>59</ele>
        <time>2015-05-12T12:42:08.000Z</time>
      </trkpt>
      <trkpt lat="50.82848" lon="1.90839">
        <ele>59</ele>
        <time>2015-05-12T12:42:09.000Z</time>
      </trkpt>
      <trkpt lat="50.82848" lon="1.90841">
        <ele>59</ele>
        <time>2015-05-12T12:42:10.000Z</time>
      </trkpt>
      <trkpt lat="50.82848" lon="1.90842">
        <ele>59</ele>
        <time>2015-05-12T12:42:11.000Z</time>
      </trkpt>
      <trkpt lat="50.82848" lon="1.90844">
        <ele>59</ele>
        <time>2015-05-12T12:42:12.000Z</time>
      </trkpt>
      <trkpt lat="50.82848" lon="1.90846">
        <ele>59</ele>
        <time>2015-05-12T12:42:13.000Z</time>
      </trkpt>
      <trkpt lat="50.82848" lon="1.90847">
        <ele>60</ele>
        <time>2015-05-12T12:42:14.000Z</time>
      </trkpt>
      <trkpt lat="50.82848" lon="1.90849">
        <ele>60</ele>
        <time>2015-05-12T12:42:15.000Z</time>
      </trkpt>
      <trkpt lat="50.82847" lon="1.90851">
        <ele>60</ele>
        <time>2015-05-12T12:42:16.000Z</time>
      </trkpt>
      <trkpt lat="50.82847" lon="1.90853">
        <ele>60</ele>
        <time>2015-05-12T12:42:17.000Z</time>
      </trkpt>
      <trkpt lat="50.82847" lon="1.90854">
        <ele>60</ele>
        <time>2015-05-12T12:42:18.000Z</time>
      </trkpt>
      <trkpt lat="50.82847" lon="1.90856">
        <ele>60</ele>
        <time>2015-05-12T12:42:19.000Z</time>
      </trkpt>
      <trkpt lat="50.82847" lon="1.90858">
        <ele>60</ele>
        <time>2015-05-12T12:42:20.000Z</time>
      </trkpt>
      <trkpt lat="50.82846" lon="1.9086">
        <ele>60</ele>
        <time>2015-05-12T12:42:21.000Z</time>
      </trkpt>
      <trkpt lat="50.82846" lon="1.90862">
        <ele>60</ele>
        <time>2015-05-12T12:42:22.000Z</time>
      </trkpt>
      <trkpt lat="50.82846" lon="1.90863">
        <ele>60</ele>
        <time>2015-05-12T12:42:23.000Z</time>
      </trkpt>
      <trkpt lat="50.82846" lon="1.90865">
        <ele>60</ele>
        <time>2015-05-12T12:42:24.000Z</time>
      </trkpt>
      <trkpt lat="50.82846" lon="1.90867">
        <ele>60</ele>
        <time>2015-05-12T12:42:25.000Z</time>
      </trkpt>
      <trkpt lat="50.82846" lon="1.90869">
        <ele>60</ele>
        <time>2015-05-12T12:42:26.000Z</time>
      </trkpt>
      <trkpt lat="50.82845" lon="1.9087">
        <ele>61</ele>
        <time>2015-05-12T12:42:27.000Z</time>
      </trkpt>
      <trkpt lat="50.82845" lon="1.90873">
        <ele>61</ele>
        <time>2015-05-12T12:42:28.000Z</time>
      </trkpt>
      <trkpt lat="50.82845" lon="1.90874">
        <ele>61</ele>
        <time>2015-05-12T12:42:29.000Z</time>
      </trkpt>
      <trkpt lat="50.82845" lon="1.90876">
        <ele>61</ele>
        <time>2015-05-12T12:42:30.000Z</time>
      </trkpt>
      <trkpt lat="50.82845" lon="1.90877">
        <ele>61</ele>
        <time>2015-05-12T12:42:31.000Z</time>
      </trkpt>
      <trkpt lat="50.82844" lon="1.90879">
        <ele>61</ele>
        <time>2015-05-12T12:42:32.000Z</time>
      </trkpt>
      <trkpt lat="50.82844" lon="1.90881">
        <ele>61</ele>
        <time>2015-05-12T12:42:33.000Z</time>
      </trkpt>
      <trkpt lat="50.82844" lon="1.90883">
        <ele>60</ele>
        <time>2015-05-12T12:42:34.000Z</time>
      </trkpt>
      <trkpt lat="50.82844" lon="1.90885">
        <ele>60</ele>
        <time>2015-05-12T12:42:35.000Z</time>
      </trkpt>
      <trkpt lat="50.82843" lon="1.90886">
        <ele>60</ele>
        <time>2015-05-12T12:42:36.000Z</time>
      </trkpt>
      <trkpt lat="50.82843" lon="1.90888">
        <ele>60</ele>
        <time>2015-05-12T12:42:37.000Z</time>
      </trkpt>
      <trkpt lat="50.82843" lon="1.90889">
        <ele>60</ele>
        <time>2015-05-12T12:42:38.000Z</time>
      </trkpt>
      <trkpt lat="50.82843" lon="1.90891">
        <ele>61</ele>
        <time>2015-05-12T12:42:39.000Z</time>
      </trkpt>
      <trkpt lat="50.82843" lon="1.90893">
        <ele>61</ele>
        <time>2015-05-12T12:42:40.000Z</time>
      </trkpt>
      <trkpt lat="50.82842" lon="1.90895">
        <ele>60</ele>
        <time>2015-05-12T12:42:41.000Z</time>
      </trkpt>
      <trkpt lat="50.82842" lon="1.90896">
        <ele>60</ele>
        <time>2015-05-12T12:42:42.000Z</time>
      </trkpt>
      <trkpt lat="50.82842" lon="1.90898">
        <ele>60</ele>
        <time>2015-05-12T12:42:43.000Z</time>
      </trkpt>
      <trkpt lat="50.82842" lon="1.90899">
        <ele>60</ele>
        <time>2015-05-12T12:42:44.000Z</time>
      </trkpt>
      <trkpt lat="50.82841" lon="1.90901">
        <ele>60</ele>
        <time>2015-05-12T12:42:45.000Z</time>
      </trkpt>
      <trkpt lat="50.82841" lon="1.90903">
        <ele>61</ele>
        <time>2015-05-12T12:42:46.000Z</time>
      </trkpt>
      <trkpt lat="50.82841" lon="1.90905">
        <ele>61</ele>
        <time>2015-05-12T12:42:47.000Z</time>
      </trkpt>
      <trkpt lat="50.82841" lon="1.90907">
        <ele>61</ele>
        <time>2015-05-12T12:42:48.000Z</time>
      </trkpt>
      <trkpt lat="50.8284" lon="1.90909">
        <ele>61</ele>
        <time>2015-05-12T12:42:49.000Z</time>
      </trkpt>
      <trkpt lat="50.8284" lon="1.9091">
        <ele>61</ele>
        <time>2015-05-12T12:42:50.000Z</time>
      </trkpt>
      <trkpt lat="50.8284" lon="1.90912">
        <ele>61</ele>
        <time>2015-05-12T12:42:51.000Z</time>
      </trkpt>
      <trkpt lat="50.8284" lon="1.90913">
        <ele>61</ele>
        <time>2015-05-12T12:42:52.000Z</time>
      </trkpt>
      <trkpt lat="50.82839" lon="1.90915">
        <ele>61</ele>
        <time>2015-05-12T12:42:53.000Z</time>
      </trkpt>
      <trkpt lat="50.82839" lon="1.90917">
        <ele>61</ele>
        <time>2015-05-12T12:42:54.000Z</time>
      </trkpt>
      <trkpt lat="50.82839" lon="1.90919">
        <ele>61</ele>
        <time>2015-05-12T12:42:55.000Z</time>
      </trkpt>
      <trkpt lat="50.82839" lon="1.9092">
        <ele>62</ele>
        <time>2015-05-12T12:42:56.000Z</time>
      </trkpt>
      <trkpt lat="50.82838" lon="1.90922">
        <ele>61</ele>
        <time>2015-05-12T12:42:57.000Z</time>
      </trkpt>
      <trkpt lat="50.82838" lon="1.90924">
        <ele>61</ele>
        <time>2015-05-12T12:42:58.000Z</time>
      </trkpt>
      <trkpt lat="50.82838" lon="1.90926">
        <ele>61</ele>
        <time>2015-05-12T12:42:59.000Z</time>
      </trkpt>
      <trkpt lat="50.82837" lon="1.90927">
        <ele>62</ele>
        <time>2015-05-12T12:43:00.000Z</time>
      </trkpt>
      <trkpt lat="50.82837" lon="1.90929">
        <ele>61</ele>
        <time>2015-05-12T12:43:01.000Z</time>
      </trkpt>
      <trkpt lat="50.82837" lon="1.9093">
        <ele>61</ele>
        <time>2015-05-12T12:43:02.000Z</time>
      </trkpt>
      <trkpt lat="50.82836" lon="1.90932">
        <ele>61</ele>
        <time>2015-05-12T12:43:03.000Z</time>
      </trkpt>
      <trkpt lat="50.82836" lon="1.90934">
        <ele>61</ele>
        <time>2015-05-12T12:43:04.000Z</time>
      </trkpt>
      <trkpt lat="50.82836" lon="1.90936">
        <ele>61</ele>
        <time>2015-05-12T12:43:05.000Z</time>
      </trkpt>
      <trkpt lat="50.82835" lon="1.90938">
        <ele>61</ele>
        <time>2015-05-12T12:43:06.000Z</time>
      </trkpt>
      <trkpt lat="50.82835" lon="1.90939">
        <ele>61</ele>
        <time>2015-05-12T12:43:07.000Z</time>
      </trkpt>
      <trkpt lat="50.82835" lon="1.90941">
        <ele>61</ele>
        <time>2015-05-12T12:43:08.000Z</time>
      </trkpt>
      <trkpt lat="50.82835" lon="1.90943">
        <ele>61</ele>
        <time>2015-05-12T12:43:09.000Z</time>
      </trkpt>
      <trkpt lat="50.82834" lon="1.90944">
        <ele>61</ele>
        <time>2015-05-12T12:43:10.000Z</time>
      </trkpt>
      <trkpt lat="50.82834" lon="1.90946">
        <ele>61</ele>
        <time>2015-05-12T12:43:11.000Z</time>
      </trkpt>
      <trkpt lat="50.82834" lon="1.90948">
        <ele>61</ele>
        <time>2015-05-12T12:43:12.000Z</time>
      </trkpt>
      <trkpt lat="50.82833" lon="1.9095">
        <ele>61</ele>
        <time>2015-05-12T12:43:13.000Z</time>
      </trkpt>
      <trkpt lat="50.82833" lon="1.90951">
        <ele>61</ele>
        <time>2015-05-12T12:43:14.000Z</time>
      </trkpt>
      <trkpt lat="50.82833" lon="1.90953">
        <ele>61</ele>
        <time>2015-05-12T12:43:15.000Z</time>
      </trkpt>
      <trkpt lat="50.82833" lon="1.90955">
        <ele>61</ele>
        <time>2015-05-12T12:43:16.000Z</time>
      </trkpt>
      <trkpt lat="50.82833" lon="1.90957">
        <ele>61</ele>
        <time>2015-05-12T12:43:17.000Z</time>
      </trkpt>
      <trkpt lat="50.82832" lon="1.90958">
        <ele>62</ele>
        <time>2015-05-12T12:43:18.000Z</time>
      </trkpt>
      <trkpt lat="50.82832" lon="1.9096">
        <ele>62</ele>
        <time>2015-05-12T12:43:19.000Z</time>
      </trkpt>
      <trkpt lat="50.82832" lon="1.90962">
        <ele>62</ele>
        <time>2015-05-12T12:43:20.000Z</time>
      </trkpt>
      <trkpt lat="50.82831" lon="1.90964">
        <ele>62</ele>
        <time>2015-05-12T12:43:21.000Z</time>
      </trkpt>
      <trkpt lat="50.82831" lon="1.90966">
        <ele>63</ele>
        <time>2015-05-12T12:43:22.000Z</time>
      </trkpt>
      <trkpt lat="50.82831" lon="1.90967">
        <ele>62</ele>
        <time>2015-05-12T12:43:23.000Z</time>
      </trkpt>
      <trkpt lat="50.8283" lon="1.90969">
        <ele>62</ele>
        <time>2015-05-12T12:43:24.000Z</time>
      </trkpt>
      <trkpt lat="50.8283" lon="1.90971">
        <ele>62</ele>
        <time>2015-05-12T12:43:25.000Z</time>
      </trkpt>
      <trkpt lat="50.8283" lon="1.90972">
        <ele>62</ele>
        <time>2015-05-12T12:43:26.000Z</time>
      </trkpt>
      <trkpt lat="50.82829" lon="1.90974">
        <ele>62</ele>
        <time>2015-05-12T12:43:27.000Z</time>
      </trkpt>
      <trkpt lat="50.82829" lon="1.90976">
        <ele>62</ele>
        <time>2015-05-12T12:43:28.000Z</time>
      </trkpt>
      <trkpt lat="50.82828" lon="1.90978">
        <ele>62</ele>
        <time>2015-05-12T12:43:29.000Z</time>
      </trkpt>
      <trkpt lat="50.82827" lon="1.9098">
        <ele>62</ele>
        <time>2015-05-12T12:43:30.000Z</time>
      </trkpt>
      <trkpt lat="50.82827" lon="1.90981">
        <ele>62</ele>
        <time>2015-05-12T12:43:31.000Z</time>
      </trkpt>
      <trkpt lat="50.82826" lon="1.90983">
        <ele>61</ele>
        <time>2015-05-12T12:43:32.000Z</time>
      </trkpt>
      <trkpt lat="50.82826" lon="1.90985">
        <ele>61</ele>
        <time>2015-05-12T12:43:33.000Z</time>
      </trkpt>
      <trkpt lat="50.82825" lon="1.90987">
        <ele>61</ele>
        <time>2015-05-12T12:43:34.000Z</time>
      </trkpt>
      <trkpt lat="50.82825" lon="1.90988">
        <ele>61</ele>
        <time>2015-05-12T12:43:35.000Z</time>
      </trkpt>
      <trkpt lat="50.82825" lon="1.9099">
        <ele>62</ele>
        <time>2015-05-12T12:43:36.000Z</time>
      </trkpt>
      <trkpt lat="50.82825" lon="1.90991">
        <ele>62</ele>
        <time>2015-05-12T12:43:37.000Z</time>
      </trkpt>
      <trkpt lat="50.82825" lon="1.90993">
        <ele>62</ele>
        <time>2015-05-12T12:43:38.000Z</time>
      </trkpt>
      <trkpt lat="50.82824" lon="1.90995">
        <ele>62</ele>
        <time>2015-05-12T12:43:39.000Z</time>
      </trkpt>
      <trkpt lat="50.82824" lon="1.90996">
        <ele>63</ele>
        <time>2015-05-12T12:43:40.000Z</time>
      </trkpt>
      <trkpt lat="50.82824" lon="1.90998">
        <ele>63</ele>
        <time>2015-05-12T12:43:41.000Z</time>
      </trkpt>
      <trkpt lat="50.82824" lon="1.91">
        <ele>62</ele>
        <time>2015-05-12T12:43:42.000Z</time>
      </trkpt>
      <trkpt lat="50.82823" lon="1.91002">
        <ele>63</ele>
        <time>2015-05-12T12:43:43.000Z</time>
      </trkpt>
      <trkpt lat="50.82823" lon="1.91003">
        <ele>63</ele>
        <time>2015-05-12T12:43:44.000Z</time>
      </trkpt>
      <trkpt lat="50.82823" lon="1.91005">
        <ele>63</ele>
        <time>2015-05-12T12:43:45.000Z</time>
      </trkpt>
      <trkpt lat="50.82822" lon="1.91007">
        <ele>63</ele>
        <time>2015-05-12T12:43:46.000Z</time>
      </trkpt>
      <trkpt lat="50.82822" lon="1.91009">
        <ele>63</ele>
        <time>2015-05-12T12:43:47.000Z</time>
      </trkpt>
      <trkpt lat="50.82821" lon="1.91011">
        <ele>63</ele>
        <time>2015-05-12T12:43:48.000Z</time>
      </trkpt>
      <trkpt lat="50.82821" lon="1.91012">
        <ele>63</ele>
        <time>2015-05-12T12:43:49.000Z</time>
      </trkpt>
      <trkpt lat="50.8282" lon="1.91014">
        <ele>63</ele>
        <time>2015-05-12T12:43:50.000Z</time>
      </trkpt>
      <trkpt lat="50.8282" lon="1.91016">
        <ele>63</ele>
        <time>2015-05-12T12:43:51.000Z</time>
      </trkpt>
      <trkpt lat="50.8282" lon="1.91017">
        <ele>63</ele>
        <time>2015-05-12T12:43:52.000Z</time>
      </trkpt>
      <trkpt lat="50.82819" lon="1.91019">
        <ele>63</ele>
        <time>2015-05-12T12:43:53.000Z</time>
      </trkpt>
      <trkpt lat="50.82819" lon="1.91021">
        <ele>63</ele>
        <time>2015-05-12T12:43:54.000Z</time>
      </trkpt>
      <trkpt lat="50.82818" lon="1.91023">
        <ele>63</ele>
        <time>2015-05-12T12:43:55.000Z</time>
      </trkpt>
      <trkpt lat="50.82818" lon="1.91025">
        <ele>63</ele>
        <time>2015-05-12T12:43:56.000Z</time>
      </trkpt>
      <trkpt lat="50.82817" lon="1.91026">
        <ele>63</ele>
        <time>2015-05-12T12:43:57.000Z</time>
      </trkpt>
      <trkpt lat="50.82817" lon="1.91028">
        <ele>62</ele>
        <time>2015-05-12T12:43:58.000Z</time>
      </trkpt>
      <trkpt lat="50.82817" lon="1.9103">
        <ele>62</ele>
        <time>2015-05-12T12:43:59.000Z</time>
      </trkpt>
      <trkpt lat="50.82817" lon="1.91031">
        <ele>62</ele>
        <time>2015-05-12T12:44:00.000Z</time>
      </trkpt>
      <trkpt lat="50.82816" lon="1.91033">
        <ele>63</ele>
        <time>2015-05-12T12:44:01.000Z</time>
      </trkpt>
      <trkpt lat="50.82816" lon="1.91035">
        <ele>62</ele>
        <time>2015-05-12T12:44:02.000Z</time>
      </trkpt>
      <trkpt lat="50.82815" lon="1.91037">
        <ele>62</ele>
        <time>2015-05-12T12:44:03.000Z</time>
      </trkpt>
      <trkpt lat="50.82815" lon="1.91038">
        <ele>63</ele>
        <time>2015-05-12T12:44:04.000Z</time>
      </trkpt>
      <trkpt lat="50.82815" lon="1.9104">
        <ele>63</ele>
        <time>2015-05-12T12:44:05.000Z</time>
      </trkpt>
      <trkpt lat="50.82814" lon="1.91041">
        <ele>63</ele>
        <time>2015-05-12T12:44:06.000Z</time>
      </trkpt>
      <trkpt lat="50.82814" lon="1.91043">
        <ele>63</ele>
        <time>2015-05-12T12:44:07.000Z</time>
      </trkpt>
      <trkpt lat="50.82814" lon="1.91045">
        <ele>63</ele>
        <time>2015-05-12T12:44:08.000Z</time>
      </trkpt>
      <trkpt lat="50.82813" lon="1.91046">
        <ele>64</ele>
        <time>2015-05-12T12:44:09.000Z</time>
      </trkpt>
      <trkpt lat="50.82813" lon="1.91048">
        <ele>64</ele>
        <time>2015-05-12T12:44:10.000Z</time>
      </trkpt>
      <trkpt lat="50.82813" lon="1.9105">
        <ele>64</ele>
        <time>2015-05-12T12:44:11.000Z</time>
      </trkpt>
      <trkpt lat="50.82812" lon="1.91052">
        <ele>65</ele>
        <time>2015-05-12T12:44:12.000Z</time>
      </trkpt>
      <trkpt lat="50.82812" lon="1.91054">
        <ele>65</ele>
        <time>2015-05-12T12:44:13.000Z</time>
      </trkpt>
      <trkpt lat="50.82811" lon="1.91055">
        <ele>65</ele>
        <time>2015-05-12T12:44:14.000Z</time>
      </trkpt>
      <trkpt lat="50.82811" lon="1.91057">
        <ele>65</ele>
        <time>2015-05-12T12:44:15.000Z</time>
      </trkpt>
      <trkpt lat="50.8281" lon="1.91059">
        <ele>65</ele>
        <time>2015-05-12T12:44:16.000Z</time>
      </trkpt>
      <trkpt lat="50.8281" lon="1.91061">
        <ele>66</ele>
        <time>2015-05-12T12:44:17.000Z</time>
      </trkpt>
      <trkpt lat="50.8281" lon="1.91063">
        <ele>66</ele>
        <time>2015-05-12T12:44:18.000Z</time>
      </trkpt>
      <trkpt lat="50.82809" lon="1.91064">
        <ele>66</ele>
        <time>2015-05-12T12:44:19.000Z</time>
      </trkpt>
      <trkpt lat="50.82809" lon="1.91066">
        <ele>66</ele>
        <time>2015-05-12T12:44:20.000Z</time>
      </trkpt>
      <trkpt lat="50.82809" lon="1.91068">
        <ele>66</ele>
        <time>2015-05-12T12:44:21.000Z</time>
      </trkpt>
      <trkpt lat="50.82809" lon="1.91069">
        <ele>66</ele>
        <time>2015-05-12T12:44:22.000Z</time>
      </trkpt>
      <trkpt lat="50.82808" lon="1.91071">
        <ele>66</ele>
        <time>2015-05-12T12:44:23.000Z</time>
      </trkpt>
      <trkpt lat="50.82808" lon="1.91072">
        <ele>65</ele>
        <time>2015-05-12T12:44:24.000Z</time>
      </trkpt>
      <trkpt lat="50.82807" lon="1.91074">
        <ele>66</ele>
        <time>2015-05-12T12:44:25.000Z</time>
      </trkpt>
      <trkpt lat="50.82807" lon="1.91076">
        <ele>66</ele>
        <time>2015-05-12T12:44:26.000Z</time>
      </trkpt>
      <trkpt lat="50.82806" lon="1.91077">
        <ele>66</ele>
        <time>2015-05-12T12:44:27.000Z</time>
      </trkpt>
      <trkpt lat="50.82806" lon="1.91079">
        <ele>66</ele>
        <time>2015-05-12T12:44:28.000Z</time>
      </trkpt>
      <trkpt lat="50.82805" lon="1.91081">
        <ele>67</ele>
        <time>2015-05-12T12:44:29.000Z</time>
      </trkpt>
      <trkpt lat="50.82805" lon="1.91083">
        <ele>67</ele>
        <time>2015-05-12T12:44:30.000Z</time>
      </trkpt>
      <trkpt lat="50.82804" lon="1.91084">
        <ele>67</ele>
        <time>2015-05-12T12:44:31.000Z</time>
      </trkpt>
      <trkpt lat="50.82804" lon="1.91086">
        <ele>67</ele>
        <time>2015-05-12T12:44:32.000Z</time>
      </trkpt>
      <trkpt lat="50.82803" lon="1.91088">
        <ele>67</ele>
        <time>2015-05-12T12:44:33.000Z</time>
      </trkpt>
      <trkpt lat="50.82803" lon="1.91089">
        <ele>67</ele>
        <time>2015-05-12T12:44:34.000Z</time>
      </trkpt>
      <trkpt lat="50.82803" lon="1.9109">
        <ele>67</ele>
        <time>2015-05-12T12:44:35.000Z</time>
      </trkpt>
      <trkpt lat="50.82802" lon="1.91091">
        <ele>66</ele>
        <time>2015-05-12T12:44:36.000Z</time>
      </trkpt>
      <trkpt lat="50.82801" lon="1.91093">
        <ele>66</ele>
        <time>2015-05-12T12:44:37.000Z</time>
      </trkpt>
      <trkpt lat="50.82801" lon="1.91094">
        <ele>67</ele>
        <time>2015-05-12T12:44:38.000Z</time>
      </trkpt>
      <trkpt lat="50.828" lon="1.91095">
        <ele>66</ele>
        <time>2015-05-12T12:44:39.000Z</time>
      </trkpt>
      <trkpt lat="50.828" lon="1.91096">
        <ele>66</ele>
        <time>2015-05-12T12:44:40.000Z</time>
      </trkpt>
      <trkpt lat="50.82799" lon="1.91098">
        <ele>66</ele>
        <time>2015-05-12T12:44:41.000Z</time>
      </trkpt>
      <trkpt lat="50.82799" lon="1.911">
        <ele>66</ele>
        <time>2015-05-12T12:44:42.000Z</time>
      </trkpt>
      <trkpt lat="50.82798" lon="1.91101">
        <ele>66</ele>
        <time>2015-05-12T12:44:43.000Z</time>
      </trkpt>
      <trkpt lat="50.82798" lon="1.91102">
        <ele>66</ele>
        <time>2015-05-12T12:44:44.000Z</time>
      </trkpt>
      <trkpt lat="50.82798" lon="1.91103">
        <ele>66</ele>
        <time>2015-05-12T12:44:45.000Z</time>
      </trkpt>
      <trkpt lat="50.82797" lon="1.91105">
        <ele>66</ele>
        <time>2015-05-12T12:44:46.000Z</time>
      </trkpt>
      <trkpt lat="50.82797" lon="1.91106">
        <ele>65</ele>
        <time>2015-05-12T12:44:47.000Z</time>
      </trkpt>
      <trkpt lat="50.82796" lon="1.91108">
        <ele>65</ele>
        <time>2015-05-12T12:44:48.000Z</time>
      </trkpt>
      <trkpt lat="50.82796" lon="1.91109">
        <ele>65</ele>
        <time>2015-05-12T12:44:49.000Z</time>
      </trkpt>
      <trkpt lat="50.82795" lon="1.91111">
        <ele>65</ele>
        <time>2015-05-12T12:44:50.000Z</time>
      </trkpt>
      <trkpt lat="50.82795" lon="1.91113">
        <ele>65</ele>
        <time>2015-05-12T12:44:51.000Z</time>
      </trkpt>
      <trkpt lat="50.82794" lon="1.91114">
        <ele>65</ele>
        <time>2015-05-12T12:44:52.000Z</time>
      </trkpt>
      <trkpt lat="50.82794" lon="1.91116">
        <ele>65</ele>
        <time>2015-05-12T12:44:53.000Z</time>
      </trkpt>
      <trkpt lat="50.82794" lon="1.91117">
        <ele>65</ele>
        <time>2015-05-12T12:44:54.000Z</time>
      </trkpt>
      <trkpt lat="50.82793" lon="1.91119">
        <ele>65</ele>
        <time>2015-05-12T12:44:55.000Z</time>
      </trkpt>
      <trkpt lat="50.82793" lon="1.9112">
        <ele>65</ele>
        <time>2015-05-12T12:44:56.000Z</time>
      </trkpt>
      <trkpt lat="50.82792" lon="1.91122">
        <ele>65</ele>
        <time>2015-05-12T12:44:57.000Z</time>
      </trkpt>
      <trkpt lat="50.82791" lon="1.91124">
        <ele>65</ele>
        <time>2015-05-12T12:44:58.000Z</time>
      </trkpt>
      <trkpt lat="50.82791" lon="1.91125">
        <ele>65</ele>
        <time>2015-05-12T12:44:59.000Z</time>
      </trkpt>
      <trkpt lat="50.8279" lon="1.91127">
        <ele>65</ele>
        <time>2015-05-12T12:45:00.000Z</time>
      </trkpt>
      <trkpt lat="50.8279" lon="1.91128">
        <ele>65</ele>
        <time>2015-05-12T12:45:01.000Z</time>
      </trkpt>
      <trkpt lat="50.82789" lon="1.9113">
        <ele>65</ele>
        <time>2015-05-12T12:45:02.000Z</time>
      </trkpt>
      <trkpt lat="50.82789" lon="1.91131">
        <ele>65</ele>
        <time>2015-05-12T12:45:03.000Z</time>
      </trkpt>
      <trkpt lat="50.82788" lon="1.91133">
        <ele>65</ele>
        <time>2015-05-12T12:45:04.000Z</time>
      </trkpt>
      <trkpt lat="50.82788" lon="1.91134">
        <ele>65</ele>
        <time>2015-05-12T12:45:05.000Z</time>
      </trkpt>
      <trkpt lat="50.82787" lon="1.91136">
        <ele>65</ele>
        <time>2015-05-12T12:45:06.000Z</time>
      </trkpt>
      <trkpt lat="50.82787" lon="1.91137">
        <ele>66</ele>
        <time>2015-05-12T12:45:07.000Z</time>
      </trkpt>
      <trkpt lat="50.82786" lon="1.91138">
        <ele>66</ele>
        <time>2015-05-12T12:45:08.000Z</time>
      </trkpt>
      <trkpt lat="50.82786" lon="1.9114">
        <ele>67</ele>
        <time>2015-05-12T12:45:09.000Z</time>
      </trkpt>
      <trkpt lat="50.82785" lon="1.91141">
        <ele>67</ele>
        <time>2015-05-12T12:45:10.000Z</time>
      </trkpt>
      <trkpt lat="50.82785" lon="1.91142">
        <ele>66</ele>
        <time>2015-05-12T12:45:11.000Z</time>
      </trkpt>
      <trkpt lat="50.82784" lon="1.91144">
        <ele>67</ele>
        <time>2015-05-12T12:45:12.000Z</time>
      </trkpt>
      <trkpt lat="50.82784" lon="1.91146">
        <ele>67</ele>
        <time>2015-05-12T12:45:13.000Z</time>
      </trkpt>
      <trkpt lat="50.82783" lon="1.91147">
        <ele>67</ele>
        <time>2015-05-12T12:45:14.000Z</time>
      </trkpt>
      <trkpt lat="50.82783" lon="1.91149">
        <ele>67</ele>
        <time>2015-05-12T12:45:15.000Z</time>
      </trkpt>
      <trkpt lat="50.82782" lon="1.9115">
        <ele>67</ele>
        <time>2015-05-12T12:45:16.000Z</time>
      </trkpt>
      <trkpt lat="50.82781" lon="1.91151">
        <ele>67</ele>
        <time>2015-05-12T12:45:17.000Z</time>
      </trkpt>
      <trkpt lat="50.82781" lon="1.91153">
        <ele>68</ele>
        <time>2015-05-12T12:45:18.000Z</time>
      </trkpt>
      <trkpt lat="50.8278" lon="1.91154">
        <ele>68</ele>
        <time>2015-05-12T12:45:19.000Z</time>
      </trkpt>
      <trkpt lat="50.8278" lon="1.91155">
        <ele>68</ele>
        <time>2015-05-12T12:45:20.000Z</time>
      </trkpt>
      <trkpt lat="50.82779" lon="1.91157">
        <ele>69</ele>
        <time>2015-05-12T12:45:21.000Z</time>
      </trkpt>
      <trkpt lat="50.82778" lon="1.91158">
        <ele>69</ele>
        <time>2015-05-12T12:45:22.000Z</time>
      </trkpt>
      <trkpt lat="50.82778" lon="1.91159">
        <ele>68</ele>
        <time>2015-05-12T12:45:23.000Z</time>
      </trkpt>
      <trkpt lat="50.82777" lon="1.91161">
        <ele>69</ele>
        <time>2015-05-12T12:45:24.000Z</time>
      </trkpt>
      <trkpt lat="50.82776" lon="1.91162">
        <ele>69</ele>
        <time>2015-05-12T12:45:25.000Z</time>
      </trkpt>
      <trkpt lat="50.82776" lon="1.91164">
        <ele>69</ele>
        <time>2015-05-12T12:45:26.000Z</time>
      </trkpt>
      <trkpt lat="50.82775" lon="1.91166">
        <ele>69</ele>
        <time>2015-05-12T12:45:27.000Z</time>
      </trkpt>
      <trkpt lat="50.82774" lon="1.91168">
        <ele>68</ele>
        <time>2015-05-12T12:45:28.000Z</time>
      </trkpt>
      <trkpt lat="50.82774" lon="1.91169">
        <ele>68</ele>
        <time>2015-05-12T12:45:29.000Z</time>
      </trkpt>
      <trkpt lat="50.82773" lon="1.9117">
        <ele>68</ele>
        <time>2015-05-12T12:45:30.000Z</time>
      </trkpt>
      <trkpt lat="50.82772" lon="1.91172">
        <ele>68</ele>
        <time>2015-05-12T12:45:31.000Z</time>
      </trkpt>
      <trkpt lat="50.82771" lon="1.91173">
        <ele>68</ele>
        <time>2015-05-12T12:45:32.000Z</time>
      </trkpt>
      <trkpt lat="50.82771" lon="1.91175">
        <ele>67</ele>
        <time>2015-05-12T12:45:33.000Z</time>
      </trkpt>
      <trkpt lat="50.8277" lon="1.91177">
        <ele>67</ele>
        <time>2015-05-12T12:45:34.000Z</time>
      </trkpt>
      <trkpt lat="50.82769" lon="1.91178">
        <ele>67</ele>
        <time>2015-05-12T12:45:35.000Z</time>
      </trkpt>
      <trkpt lat="50.82769" lon="1.9118">
        <ele>67</ele>
        <time>2015-05-12T12:45:36.000Z</time>
      </trkpt>
      <trkpt lat="50.82768" lon="1.91182">
        <ele>67</ele>
        <time>2015-05-12T12:45:37.000Z</time>
      </trkpt>
      <trkpt lat="50.82767" lon="1.91183">
        <ele>66</ele>
        <time>2015-05-12T12:45:38.000Z</time>
      </trkpt>
      <trkpt lat="50.82766" lon="1.91185">
        <ele>66</ele>
        <time>2015-05-12T12:45:39.000Z</time>
      </trkpt>
      <trkpt lat="50.82766" lon="1.91186">
        <ele>66</ele>
        <time>2015-05-12T12:45:40.000Z</time>
      </trkpt>
      <trkpt lat="50.82765" lon="1.91187">
        <ele>66</ele>
        <time>2015-05-12T12:45:41.000Z</time>
      </trkpt>
      <trkpt lat="50.82764" lon="1.91189">
        <ele>66</ele>
        <time>2015-05-12T12:45:42.000Z</time>
      </trkpt>
      <trkpt lat="50.82764" lon="1.9119">
        <ele>66</ele>
        <time>2015-05-12T12:45:43.000Z</time>
      </trkpt>
      <trkpt lat="50.82763" lon="1.91192">
        <ele>66</ele>
        <time>2015-05-12T12:45:44.000Z</time>
      </trkpt>
      <trkpt lat="50.82763" lon="1.91193">
        <ele>66</ele>
        <time>2015-05-12T12:45:45.000Z</time>
      </trkpt>
      <trkpt lat="50.82762" lon="1.91195">
        <ele>66</ele>
        <time>2015-05-12T12:45:46.000Z</time>
      </trkpt>
      <trkpt lat="50.82762" lon="1.91196">
        <ele>65</ele>
        <time>2015-05-12T12:45:47.000Z</time>
      </trkpt>
      <trkpt lat="50.82761" lon="1.91198">
        <ele>65</ele>
        <time>2015-05-12T12:45:48.000Z</time>
      </trkpt>
      <trkpt lat="50.8276" lon="1.91199">
        <ele>66</ele>
        <time>2015-05-12T12:45:49.000Z</time>
      </trkpt>
      <trkpt lat="50.8276" lon="1.91201">
        <ele>66</ele>
        <time>2015-05-12T12:45:50.000Z</time>
      </trkpt>
      <trkpt lat="50.8276" lon="1.91202">
        <ele>66</ele>
        <time>2015-05-12T12:45:51.000Z</time>
      </trkpt>
      <trkpt lat="50.82759" lon="1.91204">
        <ele>66</ele>
        <time>2015-05-12T12:45:52.000Z</time>
      </trkpt>
      <trkpt lat="50.82759" lon="1.91205">
        <ele>66</ele>
        <time>2015-05-12T12:45:53.000Z</time>
      </trkpt>
      <trkpt lat="50.82758" lon="1.91207">
        <ele>66</ele>
        <time>2015-05-12T12:45:54.000Z</time>
      </trkpt>
      <trkpt lat="50.82758" lon="1.91208">
        <ele>66</ele>
        <time>2015-05-12T12:45:55.000Z</time>
      </trkpt>
      <trkpt lat="50.82757" lon="1.9121">
        <ele>66</ele>
        <time>2015-05-12T12:45:56.000Z</time>
      </trkpt>
      <trkpt lat="50.82757" lon="1.91211">
        <ele>66</ele>
        <time>2015-05-12T12:45:57.000Z</time>
      </trkpt>
      <trkpt lat="50.82756" lon="1.91212">
        <ele>66</ele>
        <time>2015-05-12T12:45:58.000Z</time>
      </trkpt>
      <trkpt lat="50.82755" lon="1.91214">
        <ele>66</ele>
        <time>2015-05-12T12:45:59.000Z</time>
      </trkpt>
      <trkpt lat="50.82755" lon="1.91216">
        <ele>66</ele>
        <time>2015-05-12T12:46:00.000Z</time>
      </trkpt>
      <trkpt lat="50.82754" lon="1.91217">
        <ele>66</ele>
        <time>2015-05-12T12:46:01.000Z</time>
      </trkpt>
      <trkpt lat="50.82753" lon="1.91219">
        <ele>66</ele>
        <time>2015-05-12T12:46:02.000Z</time>
      </trkpt>
      <trkpt lat="50.82753" lon="1.9122">
        <ele>66</ele>
        <time>2015-05-12T12:46:03.000Z</time>
      </trkpt>
      <trkpt lat="50.82752" lon="1.91222">
        <ele>66</ele>
        <time>2015-05-12T12:46:04.000Z</time>
      </trkpt>
      <trkpt lat="50.82751" lon="1.91224">
        <ele>65</ele>
        <time>2015-05-12T12:46:05.000Z</time>
      </trkpt>
      <trkpt lat="50.8275" lon="1.91225">
        <ele>65</ele>
        <time>2015-05-12T12:46:06.000Z</time>
      </trkpt>
      <trkpt lat="50.8275" lon="1.91227">
        <ele>65</ele>
        <time>2015-05-12T12:46:07.000Z</time>
      </trkpt>
      <trkpt lat="50.82749" lon="1.91228">
        <ele>65</ele>
        <time>2015-05-12T12:46:08.000Z</time>
      </trkpt>
      <trkpt lat="50.82748" lon="1.9123">
        <ele>65</ele>
        <time>2015-05-12T12:46:09.000Z</time>
      </trkpt>
      <trkpt lat="50.82747" lon="1.91231">
        <ele>64</ele>
        <time>2015-05-12T12:46:10.000Z</time>
      </trkpt>
      <trkpt lat="50.82746" lon="1.91232">
        <ele>65</ele>
        <time>2015-05-12T12:46:11.000Z</time>
      </trkpt>
      <trkpt lat="50.82746" lon="1.91233">
        <ele>65</ele>
        <time>2015-05-12T12:46:12.000Z</time>
      </trkpt>
      <trkpt lat="50.82745" lon="1.91234">
        <ele>65</ele>
        <time>2015-05-12T12:46:13.000Z</time>
      </trkpt>
      <trkpt lat="50.82744" lon="1.91235">
        <ele>65</ele>
        <time>2015-05-12T12:46:14.000Z</time>
      </trkpt>
      <trkpt lat="50.82743" lon="1.91237">
        <ele>65</ele>
        <time>2015-05-12T12:46:15.000Z</time>
      </trkpt>
      <trkpt lat="50.82743" lon="1.91238">
        <ele>65</ele>
        <time>2015-05-12T12:46:16.000Z</time>
      </trkpt>
      <trkpt lat="50.82742" lon="1.9124">
        <ele>65</ele>
        <time>2015-05-12T12:46:17.000Z</time>
      </trkpt>
      <trkpt lat="50.82741" lon="1.91241">
        <ele>65</ele>
        <time>2015-05-12T12:46:18.000Z</time>
      </trkpt>
      <trkpt lat="50.82741" lon="1.91243">
        <ele>65</ele>
        <time>2015-05-12T12:46:19.000Z</time>
      </trkpt>
      <trkpt lat="50.8274" lon="1.91245">
        <ele>65</ele>
        <time>2015-05-12T12:46:20.000Z</time>
      </trkpt>
      <trkpt lat="50.82739" lon="1.91247">
        <ele>65</ele>
        <time>2015-05-12T12:46:21.000Z</time>
      </trkpt>
      <trkpt lat="50.82739" lon="1.91248">
        <ele>65</ele>
        <time>2015-05-12T12:46:22.000Z</time>
      </trkpt>
      <trkpt lat="50.82739" lon="1.91249">
        <ele>65</ele>
        <time>2015-05-12T12:46:23.000Z</time>
      </trkpt>
      <trkpt lat="50.82738" lon="1.91251">
        <ele>65</ele>
        <time>2015-05-12T12:46:24.000Z</time>
      </trkpt>
      <trkpt lat="50.82738" lon="1.91252">
        <ele>64</ele>
        <time>2015-05-12T12:46:25.000Z</time>
      </trkpt>
      <trkpt lat="50.82737" lon="1.91254">
        <ele>65</ele>
        <time>2015-05-12T12:46:26.000Z</time>
      </trkpt>
      <trkpt lat="50.82737" lon="1.91256">
        <ele>65</ele>
        <time>2015-05-12T12:46:27.000Z</time>
      </trkpt>
      <trkpt lat="50.82736" lon="1.91257">
        <ele>65</ele>
        <time>2015-05-12T12:46:28.000Z</time>
      </trkpt>
      <trkpt lat="50.82736" lon="1.91258">
        <ele>64</ele>
        <time>2015-05-12T12:46:29.000Z</time>
      </trkpt>
      <trkpt lat="50.82735" lon="1.9126">
        <ele>64</ele>
        <time>2015-05-12T12:46:30.000Z</time>
      </trkpt>
      <trkpt lat="50.82734" lon="1.91261">
        <ele>64</ele>
        <time>2015-05-12T12:46:31.000Z</time>
      </trkpt>
      <trkpt lat="50.82734" lon="1.91263">
        <ele>65</ele>
        <time>2015-05-12T12:46:32.000Z</time>
      </trkpt>
      <trkpt lat="50.82733" lon="1.91264">
        <ele>66</ele>
        <time>2015-05-12T12:46:33.000Z</time>
      </trkpt>
      <trkpt lat="50.82732" lon="1.91266">
        <ele>65</ele>
        <time>2015-05-12T12:46:34.000Z</time>
      </trkpt>
      <trkpt lat="50.82732" lon="1.91268">
        <ele>65</ele>
        <time>2015-05-12T12:46:35.000Z</time>
      </trkpt>
      <trkpt lat="50.82731" lon="1.91269">
        <ele>65</ele>
        <time>2015-05-12T12:46:36.000Z</time>
      </trkpt>
      <trkpt lat="50.82731" lon="1.91271">
        <ele>65</ele>
        <time>2015-05-12T12:46:37.000Z</time>
      </trkpt>
      <trkpt lat="50.8273" lon="1.91272">
        <ele>65</ele>
        <time>2015-05-12T12:46:38.000Z</time>
      </trkpt>
      <trkpt lat="50.8273" lon="1.91274">
        <ele>65</ele>
        <time>2015-05-12T12:46:39.000Z</time>
      </trkpt>
      <trkpt lat="50.82729" lon="1.91275">
        <ele>66</ele>
        <time>2015-05-12T12:46:40.000Z</time>
      </trkpt>
      <trkpt lat="50.82729" lon="1.91277">
        <ele>66</ele>
        <time>2015-05-12T12:46:41.000Z</time>
      </trkpt>
      <trkpt lat="50.82728" lon="1.91278">
        <ele>66</ele>
        <time>2015-05-12T12:46:42.000Z</time>
      </trkpt>
      <trkpt lat="50.82727" lon="1.9128">
        <ele>66</ele>
        <time>2015-05-12T12:46:43.000Z</time>
      </trkpt>
      <trkpt lat="50.82727" lon="1.91282">
        <ele>66</ele>
        <time>2015-05-12T12:46:44.000Z</time>
      </trkpt>
      <trkpt lat="50.82726" lon="1.91284">
        <ele>66</ele>
        <time>2015-05-12T12:46:45.000Z</time>
      </trkpt>
      <trkpt lat="50.82726" lon="1.91286">
        <ele>66</ele>
        <time>2015-05-12T12:46:46.000Z</time>
      </trkpt>
      <trkpt lat="50.82725" lon="1.91287">
        <ele>65</ele>
        <time>2015-05-12T12:46:47.000Z</time>
      </trkpt>
      <trkpt lat="50.82725" lon="1.91289">
        <ele>65</ele>
        <time>2015-05-12T12:46:48.000Z</time>
      </trkpt>
      <trkpt lat="50.82724" lon="1.9129">
        <ele>66</ele>
        <time>2015-05-12T12:46:49.000Z</time>
      </trkpt>
      <trkpt lat="50.82723" lon="1.91292">
        <ele>66</ele>
        <time>2015-05-12T12:46:50.000Z</time>
      </trkpt>
      <trkpt lat="50.82723" lon="1.91294">
        <ele>65</ele>
        <time>2015-05-12T12:46:51.000Z</time>
      </trkpt>
      <trkpt lat="50.82722" lon="1.91296">
        <ele>65</ele>
        <time>2015-05-12T12:46:52.000Z</time>
      </trkpt>
      <trkpt lat="50.82721" lon="1.91297">
        <ele>65</ele>
        <time>2015-05-12T12:46:53.000Z</time>
      </trkpt>
      <trkpt lat="50.82721" lon="1.91299">
        <ele>65</ele>
        <time>2015-05-12T12:46:54.000Z</time>
      </trkpt>
      <trkpt lat="50.8272" lon="1.91301">
        <ele>65</ele>
        <time>2015-05-12T12:46:55.000Z</time>
      </trkpt>
      <trkpt lat="50.8272" lon="1.91303">
        <ele>65</ele>
        <time>2015-05-12T12:46:56.000Z</time>
      </trkpt>
      <trkpt lat="50.82719" lon="1.91304">
        <ele>65</ele>
        <time>2015-05-12T12:46:57.000Z</time>
      </trkpt>
      <trkpt lat="50.82718" lon="1.91306">
        <ele>65</ele>
        <time>2015-05-12T12:46:58.000Z</time>
      </trkpt>
      <trkpt lat="50.82718" lon="1.91308">
        <ele>65</ele>
        <time>2015-05-12T12:46:59.000Z</time>
      </trkpt>
      <trkpt lat="50.82717" lon="1.91309">
        <ele>65</ele>
        <time>2015-05-12T12:47:00.000Z</time>
      </trkpt>
      <trkpt lat="50.82716" lon="1.91311">
        <ele>65</ele>
        <time>2015-05-12T12:47:01.000Z</time>
      </trkpt>
      <trkpt lat="50.82716" lon="1.91313">
        <ele>64</ele>
        <time>2015-05-12T12:47:02.000Z</time>
      </trkpt>
      <trkpt lat="50.82715" lon="1.91315">
        <ele>64</ele>
        <time>2015-05-12T12:47:03.000Z</time>
      </trkpt>
      <trkpt lat="50.82714" lon="1.91316">
        <ele>64</ele>
        <time>2015-05-12T12:47:04.000Z</time>
      </trkpt>
      <trkpt lat="50.82713" lon="1.91318">
        <ele>64</ele>
        <time>2015-05-12T12:47:05.000Z</time>
      </trkpt>
      <trkpt lat="50.82713" lon="1.91319">
        <ele>64</ele>
        <time>2015-05-12T12:47:06.000Z</time>
      </trkpt>
      <trkpt lat="50.82712" lon="1.91321">
        <ele>64</ele>
        <time>2015-05-12T12:47:07.000Z</time>
      </trkpt>
      <trkpt lat="50.82712" lon="1.91322">
        <ele>64</ele>
        <time>2015-05-12T12:47:08.000Z</time>
      </trkpt>
      <trkpt lat="50.82711" lon="1.91324">
        <ele>63</ele>
        <time>2015-05-12T12:47:09.000Z</time>
      </trkpt>
      <trkpt lat="50.8271" lon="1.91326">
        <ele>63</ele>
        <time>2015-05-12T12:47:10.000Z</time>
      </trkpt>
      <trkpt lat="50.8271" lon="1.91328">
        <ele>63</ele>
        <time>2015-05-12T12:47:11.000Z</time>
      </trkpt>
      <trkpt lat="50.82709" lon="1.91329">
        <ele>63</ele>
        <time>2015-05-12T12:47:12.000Z</time>
      </trkpt>
      <trkpt lat="50.82708" lon="1.91331">
        <ele>63</ele>
        <time>2015-05-12T12:47:13.000Z</time>
      </trkpt>
      <trkpt lat="50.82708" lon="1.91333">
        <ele>64</ele>
        <time>2015-05-12T12:47:14.000Z</time>
      </trkpt>
      <trkpt lat="50.82707" lon="1.91334">
        <ele>64</ele>
        <time>2015-05-12T12:47:15.000Z</time>
      </trkpt>
      <trkpt lat="50.82707" lon="1.91336">
        <ele>63</ele>
        <time>2015-05-12T12:47:16.000Z</time>
      </trkpt>
      <trkpt lat="50.82706" lon="1.91337">
        <ele>64</ele>
        <time>2015-05-12T12:47:17.000Z</time>
      </trkpt>
      <trkpt lat="50.82705" lon="1.91339">
        <ele>63</ele>
        <time>2015-05-12T12:47:18.000Z</time>
      </trkpt>
      <trkpt lat="50.82705" lon="1.9134">
        <ele>63</ele>
        <time>2015-05-12T12:47:19.000Z</time>
      </trkpt>
      <trkpt lat="50.82704" lon="1.91342">
        <ele>62</ele>
        <time>2015-05-12T12:47:20.000Z</time>
      </trkpt>
      <trkpt lat="50.82703" lon="1.91344">
        <ele>62</ele>
        <time>2015-05-12T12:47:21.000Z</time>
      </trkpt>
      <trkpt lat="50.82702" lon="1.91346">
        <ele>62</ele>
        <time>2015-05-12T12:47:22.000Z</time>
      </trkpt>
      <trkpt lat="50.82702" lon="1.91347">
        <ele>62</ele>
        <time>2015-05-12T12:47:23.000Z</time>
      </trkpt>
      <trkpt lat="50.82701" lon="1.91349">
        <ele>62</ele>
        <time>2015-05-12T12:47:24.000Z</time>
      </trkpt>
      <trkpt lat="50.827" lon="1.9135">
        <ele>62</ele>
        <time>2015-05-12T12:47:25.000Z</time>
      </trkpt>
      <trkpt lat="50.82699" lon="1.91352">
        <ele>61</ele>
        <time>2015-05-12T12:47:26.000Z</time>
      </trkpt>
      <trkpt lat="50.82698" lon="1.91353">
        <ele>61</ele>
        <time>2015-05-12T12:47:27.000Z</time>
      </trkpt>
      <trkpt lat="50.82698" lon="1.91355">
        <ele>61</ele>
        <time>2015-05-12T12:47:28.000Z</time>
      </trkpt>
      <trkpt lat="50.82697" lon="1.91356">
        <ele>61</ele>
        <time>2015-05-12T12:47:29.000Z</time>
      </trkpt>
      <trkpt lat="50.82696" lon="1.91358">
        <ele>61</ele>
        <time>2015-05-12T12:47:30.000Z</time>
      </trkpt>
      <trkpt lat="50.82695" lon="1.91359">
        <ele>60</ele>
        <time>2015-05-12T12:47:31.000Z</time>
      </trkpt>
      <trkpt lat="50.82694" lon="1.91361">
        <ele>60</ele>
        <time>2015-05-12T12:47:32.000Z</time>
      </trkpt>
      <trkpt lat="50.82693" lon="1.91363">
        <ele>60</ele>
        <time>2015-05-12T12:47:33.000Z</time>
      </trkpt>
      <trkpt lat="50.82692" lon="1.91364">
        <ele>60</ele>
        <time>2015-05-12T12:47:34.000Z</time>
      </trkpt>
      <trkpt lat="50.82691" lon="1.91365">
        <ele>60</ele>
        <time>2015-05-12T12:47:35.000Z</time>
      </trkpt>
      <trkpt lat="50.8269" lon="1.91367">
        <ele>60</ele>
        <time>2015-05-12T12:47:36.000Z</time>
      </trkpt>
      <trkpt lat="50.82689" lon="1.91368">
        <ele>60</ele>
        <time>2015-05-12T12:47:37.000Z</time>
      </trkpt>
      <trkpt lat="50.82688" lon="1.91369">
        <ele>60</ele>
        <time>2015-05-12T12:47:38.000Z</time>
      </trkpt>
      <trkpt lat="50.82687" lon="1.91371">
        <ele>60</ele>
        <time>2015-05-12T12:47:39.000Z</time>
      </trkpt>
      <trkpt lat="50.82686" lon="1.91372">
        <ele>60</ele>
        <time>2015-05-12T12:47:40.000Z</time>
      </trkpt>
      <trkpt lat="50.82685" lon="1.91373">
        <ele>59</ele>
        <time>2015-05-12T12:47:41.000Z</time>
      </trkpt>
      <trkpt lat="50.82684" lon="1.91374">
        <ele>60</ele>
        <time>2015-05-12T12:47:42.000Z</time>
      </trkpt>
      <trkpt lat="50.82683" lon="1.91375">
        <ele>59</ele>
        <time>2015-05-12T12:47:43.000Z</time>
      </trkpt>
      <trkpt lat="50.82682" lon="1.91376">
        <ele>60</ele>
        <time>2015-05-12T12:47:44.000Z</time>
      </trkpt>
      <trkpt lat="50.82681" lon="1.91377">
        <ele>59</ele>
        <time>2015-05-12T12:47:45.000Z</time>
      </trkpt>
      <trkpt lat="50.8268" lon="1.91378">
        <ele>59</ele>
        <time>2015-05-12T12:47:46.000Z</time>
      </trkpt>
      <trkpt lat="50.82679" lon="1.91379">
        <ele>60</ele>
        <time>2015-05-12T12:47:47.000Z</time>
      </trkpt>
      <trkpt lat="50.82678" lon="1.91381">
        <ele>60</ele>
        <time>2015-05-12T12:47:48.000Z</time>
      </trkpt>
      <trkpt lat="50.82677" lon="1.91382">
        <ele>60</ele>
        <time>2015-05-12T12:47:49.000Z</time>
      </trkpt>
      <trkpt lat="50.82675" lon="1.91382">
        <ele>60</ele>
        <time>2015-05-12T12:47:50.000Z</time>
      </trkpt>
      <trkpt lat="50.82674" lon="1.91383">
        <ele>60</ele>
        <time>2015-05-12T12:47:51.000Z</time>
      </trkpt>
      <trkpt lat="50.82673" lon="1.91384">
        <ele>60</ele>
        <time>2015-05-12T12:47:52.000Z</time>
      </trkpt>
      <trkpt lat="50.82673" lon="1.91385">
        <ele>60</ele>
        <time>2015-05-12T12:47:53.000Z</time>
      </trkpt>
      <trkpt lat="50.82672" lon="1.91386">
        <ele>60</ele>
        <time>2015-05-12T12:47:54.000Z</time>
      </trkpt>
      <trkpt lat="50.82671" lon="1.91387">
        <ele>60</ele>
        <time>2015-05-12T12:47:55.000Z</time>
      </trkpt>
      <trkpt lat="50.8267" lon="1.91388">
        <ele>59</ele>
        <time>2015-05-12T12:47:56.000Z</time>
      </trkpt>
      <trkpt lat="50.82669" lon="1.91389">
        <ele>60</ele>
        <time>2015-05-12T12:47:57.000Z</time>
      </trkpt>
      <trkpt lat="50.82668" lon="1.9139">
        <ele>59</ele>
        <time>2015-05-12T12:47:58.000Z</time>
      </trkpt>
      <trkpt lat="50.82666" lon="1.91391">
        <ele>59</ele>
        <time>2015-05-12T12:47:59.000Z</time>
      </trkpt>
      <trkpt lat="50.82665" lon="1.91392">
        <ele>59</ele>
        <time>2015-05-12T12:48:00.000Z</time>
      </trkpt>
      <trkpt lat="50.82664" lon="1.91393">
        <ele>59</ele>
        <time>2015-05-12T12:48:01.000Z</time>
      </trkpt>
      <trkpt lat="50.82663" lon="1.91394">
        <ele>59</ele>
        <time>2015-05-12T12:48:02.000Z</time>
      </trkpt>
      <trkpt lat="50.82662" lon="1.91395">
        <ele>59</ele>
        <time>2015-05-12T12:48:03.000Z</time>
      </trkpt>
      <trkpt lat="50.82662" lon="1.91396">
        <ele>60</ele>
        <time>2015-05-12T12:48:04.000Z</time>
      </trkpt>
      <trkpt lat="50.82661" lon="1.91397">
        <ele>60</ele>
        <time>2015-05-12T12:48:05.000Z</time>
      </trkpt>
      <trkpt lat="50.82659" lon="1.91399">
        <ele>60</ele>
        <time>2015-05-12T12:48:06.000Z</time>
      </trkpt>
      <trkpt lat="50.82658" lon="1.914">
        <ele>60</ele>
        <time>2015-05-12T12:48:07.000Z</time>
      </trkpt>
      <trkpt lat="50.82657" lon="1.91401">
        <ele>61</ele>
        <time>2015-05-12T12:48:08.000Z</time>
      </trkpt>
      <trkpt lat="50.82656" lon="1.91403">
        <ele>61</ele>
        <time>2015-05-12T12:48:09.000Z</time>
      </trkpt>
      <trkpt lat="50.82655" lon="1.91404">
        <ele>61</ele>
        <time>2015-05-12T12:48:10.000Z</time>
      </trkpt>
      <trkpt lat="50.82654" lon="1.91405">
        <ele>61</ele>
        <time>2015-05-12T12:48:11.000Z</time>
      </trkpt>
      <trkpt lat="50.82653" lon="1.91406">
        <ele>61</ele>
        <time>2015-05-12T12:48:12.000Z</time>
      </trkpt>
      <trkpt lat="50.82652" lon="1.91407">
        <ele>61</ele>
        <time>2015-05-12T12:48:13.000Z</time>
      </trkpt>
      <trkpt lat="50.82651" lon="1.91408">
        <ele>61</ele>
        <time>2015-05-12T12:48:14.000Z</time>
      </trkpt>
      <trkpt lat="50.8265" lon="1.91409">
        <ele>61</ele>
        <time>2015-05-12T12:48:15.000Z</time>
      </trkpt>
      <trkpt lat="50.82649" lon="1.9141">
        <ele>61</ele>
        <time>2015-05-12T12:48:16.000Z</time>
      </trkpt>
      <trkpt lat="50.82648" lon="1.91411">
        <ele>61</ele>
        <time>2015-05-12T12:48:17.000Z</time>
      </trkpt>
      <trkpt lat="50.82647" lon="1.91413">
        <ele>61</ele>
        <time>2015-05-12T12:48:18.000Z</time>
      </trkpt>
      <trkpt lat="50.82645" lon="1.91414">
        <ele>61</ele>
        <time>2015-05-12T12:48:19.000Z</time>
      </trkpt>
      <trkpt lat="50.82644" lon="1.91415">
        <ele>61</ele>
        <time>2015-05-12T12:48:20.000Z</time>
      </trkpt>
      <trkpt lat="50.82644" lon="1.91415">
        <ele>61</ele>
        <time>2015-05-12T12:48:21.000Z</time>
      </trkpt>
      <trkpt lat="50.82643" lon="1.91416">
        <ele>61</ele>
        <time>2015-05-12T12:48:22.000Z</time>
      </trkpt>
      <trkpt lat="50.82641" lon="1.91417">
        <ele>61</ele>
        <time>2015-05-12T12:48:23.000Z</time>
      </trkpt>
      <trkpt lat="50.8264" lon="1.91419">
        <ele>61</ele>
        <time>2015-05-12T12:48:24.000Z</time>
      </trkpt>
      <trkpt lat="50.82639" lon="1.9142">
        <ele>61</ele>
        <time>2015-05-12T12:48:25.000Z</time>
      </trkpt>
      <trkpt lat="50.82638" lon="1.91421">
        <ele>61</ele>
        <time>2015-05-12T12:48:26.000Z</time>
      </trkpt>
      <trkpt lat="50.82637" lon="1.91422">
        <ele>61</ele>
        <time>2015-05-12T12:48:27.000Z</time>
      </trkpt>
      <trkpt lat="50.82636" lon="1.91423">
        <ele>61</ele>
        <time>2015-05-12T12:48:28.000Z</time>
      </trkpt>
      <trkpt lat="50.82635" lon="1.91424">
        <ele>61</ele>
        <time>2015-05-12T12:48:29.000Z</time>
      </trkpt>
      <trkpt lat="50.82634" lon="1.91425">
        <ele>61</ele>
        <time>2015-05-12T12:48:30.000Z</time>
      </trkpt>
      <trkpt lat="50.82633" lon="1.91426">
        <ele>61</ele>
        <time>2015-05-12T12:48:31.000Z</time>
      </trkpt>
      <trkpt lat="50.82632" lon="1.91427">
        <ele>61</ele>
        <time>2015-05-12T12:48:32.000Z</time>
      </trkpt>
      <trkpt lat="50.82631" lon="1.91428">
        <ele>61</ele>
        <time>2015-05-12T12:48:33.000Z</time>
      </trkpt>
      <trkpt lat="50.8263" lon="1.91428">
        <ele>61</ele>
        <time>2015-05-12T12:48:34.000Z</time>
      </trkpt>
      <trkpt lat="50.82629" lon="1.91429">
        <ele>61</ele>
        <time>2015-05-12T12:48:35.000Z</time>
      </trkpt>
      <trkpt lat="50.82628" lon="1.9143">
        <ele>61</ele>
        <time>2015-05-12T12:48:36.000Z</time>
      </trkpt>
      <trkpt lat="50.82627" lon="1.91431">
        <ele>61</ele>
        <time>2015-05-12T12:48:37.000Z</time>
      </trkpt>
      <trkpt lat="50.82626" lon="1.91432">
        <ele>61</ele>
        <time>2015-05-12T12:48:38.000Z</time>
      </trkpt>
      <trkpt lat="50.82625" lon="1.91433">
        <ele>61</ele>
        <time>2015-05-12T12:48:39.000Z</time>
      </trkpt>
      <trkpt lat="50.82624" lon="1.91433">
        <ele>61</ele>
        <time>2015-05-12T12:48:40.000Z</time>
      </trkpt>
      <trkpt lat="50.82623" lon="1.91434">
        <ele>61</ele>
        <time>2015-05-12T12:48:41.000Z</time>
      </trkpt>
      <trkpt lat="50.82622" lon="1.91435">
        <ele>61</ele>
        <time>2015-05-12T12:48:42.000Z</time>
      </trkpt>
      <trkpt lat="50.82621" lon="1.91436">
        <ele>61</ele>
        <time>2015-05-12T12:48:43.000Z</time>
      </trkpt>
      <trkpt lat="50.8262" lon="1.91437">
        <ele>61</ele>
        <time>2015-05-12T12:48:44.000Z</time>
      </trkpt>
      <trkpt lat="50.82619" lon="1.91437">
        <ele>61</ele>
        <time>2015-05-12T12:48:45.000Z</time>
      </trkpt>
      <trkpt lat="50.82618" lon="1.91438">
        <ele>61</ele>
        <time>2015-05-12T12:48:46.000Z</time>
      </trkpt>
      <trkpt lat="50.82617" lon="1.91439">
        <ele>61</ele>
        <time>2015-05-12T12:48:47.000Z</time>
      </trkpt>
      <trkpt lat="50.82616" lon="1.91439">
        <ele>60</ele>
        <time>2015-05-12T12:48:48.000Z</time>
      </trkpt>
      <trkpt lat="50.82616" lon="1.9144">
        <ele>60</ele>
        <time>2015-05-12T12:48:49.000Z</time>
      </trkpt>
      <trkpt lat="50.82615" lon="1.91441">
        <ele>60</ele>
        <time>2015-05-12T12:48:50.000Z</time>
      </trkpt>
      <trkpt lat="50.82614" lon="1.91441">
        <ele>60</ele>
        <time>2015-05-12T12:48:51.000Z</time>
      </trkpt>
      <trkpt lat="50.82612" lon="1.91443">
        <ele>60</ele>
        <time>2015-05-12T12:48:52.000Z</time>
      </trkpt>
      <trkpt lat="50.82611" lon="1.91444">
        <ele>60</ele>
        <time>2015-05-12T12:48:53.000Z</time>
      </trkpt>
      <trkpt lat="50.8261" lon="1.91445">
        <ele>61</ele>
        <time>2015-05-12T12:48:54.000Z</time>
      </trkpt>
      <trkpt lat="50.82609" lon="1.91447">
        <ele>61</ele>
        <time>2015-05-12T12:48:55.000Z</time>
      </trkpt>
      <trkpt lat="50.82608" lon="1.91448">
        <ele>61</ele>
        <time>2015-05-12T12:48:56.000Z</time>
      </trkpt>
      <trkpt lat="50.82607" lon="1.91449">
        <ele>61</ele>
        <time>2015-05-12T12:48:57.000Z</time>
      </trkpt>
      <trkpt lat="50.82606" lon="1.9145">
        <ele>62</ele>
        <time>2015-05-12T12:48:58.000Z</time>
      </trkpt>
      <trkpt lat="50.82605" lon="1.91452">
        <ele>62</ele>
        <time>2015-05-12T12:48:59.000Z</time>
      </trkpt>
      <trkpt lat="50.82604" lon="1.91453">
        <ele>62</ele>
        <time>2015-05-12T12:49:00.000Z</time>
      </trkpt>
      <trkpt lat="50.82603" lon="1.91454">
        <ele>63</ele>
        <time>2015-05-12T12:49:01.000Z</time>
      </trkpt>
      <trkpt lat="50.82602" lon="1.91455">
        <ele>63</ele>
        <time>2015-05-12T12:49:02.000Z</time>
      </trkpt>
      <trkpt lat="50.82601" lon="1.91456">
        <ele>63</ele>
        <time>2015-05-12T12:49:03.000Z</time>
      </trkpt>
      <trkpt lat="50.826" lon="1.91457">
        <ele>63</ele>
        <time>2015-05-12T12:49:04.000Z</time>
      </trkpt>
      <trkpt lat="50.826" lon="1.91458">
        <ele>63</ele>
        <time>2015-05-12T12:49:05.000Z</time>
      </trkpt>
      <trkpt lat="50.82599" lon="1.91459">
        <ele>63</ele>
        <time>2015-05-12T12:49:06.000Z</time>
      </trkpt>
      <trkpt lat="50.82597" lon="1.9146">
        <ele>63</ele>
        <time>2015-05-12T12:49:07.000Z</time>
      </trkpt>
      <trkpt lat="50.82596" lon="1.91462">
        <ele>64</ele>
        <time>2015-05-12T12:49:08.000Z</time>
      </trkpt>
      <trkpt lat="50.82595" lon="1.91463">
        <ele>64</ele>
        <time>2015-05-12T12:49:09.000Z</time>
      </trkpt>
      <trkpt lat="50.82594" lon="1.91464">
        <ele>64</ele>
        <time>2015-05-12T12:49:10.000Z</time>
      </trkpt>
      <trkpt lat="50.82593" lon="1.91465">
        <ele>64</ele>
        <time>2015-05-12T12:49:11.000Z</time>
      </trkpt>
      <trkpt lat="50.82592" lon="1.91466">
        <ele>65</ele>
        <time>2015-05-12T12:49:12.000Z</time>
      </trkpt>
      <trkpt lat="50.82591" lon="1.91467">
        <ele>65</ele>
        <time>2015-05-12T12:49:13.000Z</time>
      </trkpt>
      <trkpt lat="50.8259" lon="1.91469">
        <ele>65</ele>
        <time>2015-05-12T12:49:14.000Z</time>
      </trkpt>
      <trkpt lat="50.82589" lon="1.9147">
        <ele>65</ele>
        <time>2015-05-12T12:49:15.000Z</time>
      </trkpt>
      <trkpt lat="50.82588" lon="1.91471">
        <ele>65</ele>
        <time>2015-05-12T12:49:16.000Z</time>
      </trkpt>
      <trkpt lat="50.82587" lon="1.91472">
        <ele>65</ele>
        <time>2015-05-12T12:49:17.000Z</time>
      </trkpt>
      <trkpt lat="50.82586" lon="1.91473">
        <ele>66</ele>
        <time>2015-05-12T12:49:18.000Z</time>
      </trkpt>
      <trkpt lat="50.82585" lon="1.91474">
        <ele>66</ele>
        <time>2015-05-12T12:49:19.000Z</time>
      </trkpt>
      <trkpt lat="50.82584" lon="1.91475">
        <ele>66</ele>
        <time>2015-05-12T12:49:20.000Z</time>
      </trkpt>
      <trkpt lat="50.82583" lon="1.91476">
        <ele>66</ele>
        <time>2015-05-12T12:49:21.000Z</time>
      </trkpt>
      <trkpt lat="50.82582" lon="1.91477">
        <ele>66</ele>
        <time>2015-05-12T12:49:22.000Z</time>
      </trkpt>
      <trkpt lat="50.82581" lon="1.91478">
        <ele>66</ele>
        <time>2015-05-12T12:49:23.000Z</time>
      </trkpt>
      <trkpt lat="50.8258" lon="1.91479">
        <ele>67</ele>
        <time>2015-05-12T12:49:24.000Z</time>
      </trkpt>
      <trkpt lat="50.82579" lon="1.9148">
        <ele>67</ele>
        <time>2015-05-12T12:49:25.000Z</time>
      </trkpt>
      <trkpt lat="50.82578" lon="1.9148">
        <ele>67</ele>
        <time>2015-05-12T12:49:26.000Z</time>
      </trkpt>
      <trkpt lat="50.82577" lon="1.91482">
        <ele>67</ele>
        <time>2015-05-12T12:49:27.000Z</time>
      </trkpt>
      <trkpt lat="50.82576" lon="1.91483">
        <ele>67</ele>
        <time>2015-05-12T12:49:28.000Z</time>
      </trkpt>
      <trkpt lat="50.82575" lon="1.91484">
        <ele>68</ele>
        <time>2015-05-12T12:49:29.000Z</time>
      </trkpt>
      <trkpt lat="50.82574" lon="1.91485">
        <ele>68</ele>
        <time>2015-05-12T12:49:30.000Z</time>
      </trkpt>
      <trkpt lat="50.82573" lon="1.91486">
        <ele>68</ele>
        <time>2015-05-12T12:49:31.000Z</time>
      </trkpt>
      <trkpt lat="50.82572" lon="1.91487">
        <ele>68</ele>
        <time>2015-05-12T12:49:32.000Z</time>
      </trkpt>
      <trkpt lat="50.82571" lon="1.91488">
        <ele>69</ele>
        <time>2015-05-12T12:49:33.000Z</time>
      </trkpt>
      <trkpt lat="50.8257" lon="1.91489">
        <ele>69</ele>
        <time>2015-05-12T12:49:34.000Z</time>
      </trkpt>
      <trkpt lat="50.82569" lon="1.9149">
        <ele>69</ele>
        <time>2015-05-12T12:49:35.000Z</time>
      </trkpt>
      <trkpt lat="50.82568" lon="1.91491">
        <ele>69</ele>
        <time>2015-05-12T12:49:36.000Z</time>
      </trkpt>
      <trkpt lat="50.82567" lon="1.91492">
        <ele>69</ele>
        <time>2015-05-12T12:49:37.000Z</time>
      </trkpt>
      <trkpt lat="50.82566" lon="1.91492">
        <ele>69</ele>
        <time>2015-05-12T12:49:38.000Z</time>
      </trkpt>
      <trkpt lat="50.82565" lon="1.91493">
        <ele>69</ele>
        <time>2015-05-12T12:49:39.000Z</time>
      </trkpt>
      <trkpt lat="50.82564" lon="1.91494">
        <ele>69</ele>
        <time>2015-05-12T12:49:40.000Z</time>
      </trkpt>
      <trkpt lat="50.82563" lon="1.91495">
        <ele>69</ele>
        <time>2015-05-12T12:49:41.000Z</time>
      </trkpt>
      <trkpt lat="50.82562" lon="1.91497">
        <ele>69</ele>
        <time>2015-05-12T12:49:42.000Z</time>
      </trkpt>
      <trkpt lat="50.82561" lon="1.91498">
        <ele>69</ele>
        <time>2015-05-12T12:49:43.000Z</time>
      </trkpt>
      <trkpt lat="50.8256" lon="1.91499">
        <ele>69</ele>
        <time>2015-05-12T12:49:44.000Z</time>
      </trkpt>
      <trkpt lat="50.82559" lon="1.915">
        <ele>69</ele>
        <time>2015-05-12T12:49:45.000Z</time>
      </trkpt>
      <trkpt lat="50.82558" lon="1.915">
        <ele>69</ele>
        <time>2015-05-12T12:49:46.000Z</time>
      </trkpt>
      <trkpt lat="50.82558" lon="1.91501">
        <ele>69</ele>
        <time>2015-05-12T12:49:47.000Z</time>
      </trkpt>
      <trkpt lat="50.82556" lon="1.91502">
        <ele>69</ele>
        <time>2015-05-12T12:49:48.000Z</time>
      </trkpt>
      <trkpt lat="50.82555" lon="1.91503">
        <ele>69</ele>
        <time>2015-05-12T12:49:49.000Z</time>
      </trkpt>
      <trkpt lat="50.82555" lon="1.91504">
        <ele>69</ele>
        <time>2015-05-12T12:49:50.000Z</time>
      </trkpt>
      <trkpt lat="50.82554" lon="1.91505">
        <ele>70</ele>
        <time>2015-05-12T12:49:51.000Z</time>
      </trkpt>
      <trkpt lat="50.82553" lon="1.91506">
        <ele>70</ele>
        <time>2015-05-12T12:49:52.000Z</time>
      </trkpt>
      <trkpt lat="50.82552" lon="1.91507">
        <ele>69</ele>
        <time>2015-05-12T12:49:53.000Z</time>
      </trkpt>
      <trkpt lat="50.82551" lon="1.91508">
        <ele>70</ele>
        <time>2015-05-12T12:49:54.000Z</time>
      </trkpt>
      <trkpt lat="50.82549" lon="1.9151">
        <ele>70</ele>
        <time>2015-05-12T12:49:55.000Z</time>
      </trkpt>
      <trkpt lat="50.82548" lon="1.91511">
        <ele>70</ele>
        <time>2015-05-12T12:49:56.000Z</time>
      </trkpt>
      <trkpt lat="50.82548" lon="1.91512">
        <ele>70</ele>
        <time>2015-05-12T12:49:57.000Z</time>
      </trkpt>
      <trkpt lat="50.82547" lon="1.91513">
        <ele>70</ele>
        <time>2015-05-12T12:49:58.000Z</time>
      </trkpt>
      <trkpt lat="50.82546" lon="1.91514">
        <ele>70</ele>
        <time>2015-05-12T12:49:59.000Z</time>
      </trkpt>
      <trkpt lat="50.82545" lon="1.91515">
        <ele>70</ele>
        <time>2015-05-12T12:50:00.000Z</time>
      </trkpt>
      <trkpt lat="50.82544" lon="1.91516">
        <ele>70</ele>
        <time>2015-05-12T12:50:01.000Z</time>
      </trkpt>
      <trkpt lat="50.82543" lon="1.91517">
        <ele>70</ele>
        <time>2015-05-12T12:50:02.000Z</time>
      </trkpt>
      <trkpt lat="50.82542" lon="1.91518">
        <ele>70</ele>
        <time>2015-05-12T12:50:03.000Z</time>
      </trkpt>
      <trkpt lat="50.82541" lon="1.91519">
        <ele>70</ele>
        <time>2015-05-12T12:50:04.000Z</time>
      </trkpt>
      <trkpt lat="50.8254" lon="1.91519">
        <ele>70</ele>
        <time>2015-05-12T12:50:05.000Z</time>
      </trkpt>
      <trkpt lat="50.82539" lon="1.9152">
        <ele>70</ele>
        <time>2015-05-12T12:50:06.000Z</time>
      </trkpt>
      <trkpt lat="50.82538" lon="1.91521">
        <ele>70</ele>
        <time>2015-05-12T12:50:07.000Z</time>
      </trkpt>
      <trkpt lat="50.82538" lon="1.91522">
        <ele>70</ele>
        <time>2015-05-12T12:50:08.000Z</time>
      </trkpt>
      <trkpt lat="50.82537" lon="1.91522">
        <ele>70</ele>
        <time>2015-05-12T12:50:09.000Z</time>
      </trkpt>
      <trkpt lat="50.82536" lon="1.91523">
        <ele>70</ele>
        <time>2015-05-12T12:50:10.000Z</time>
      </trkpt>
      <trkpt lat="50.82535" lon="1.91524">
        <ele>70</ele>
        <time>2015-05-12T12:50:11.000Z</time>
      </trkpt>
      <trkpt lat="50.82534" lon="1.91526">
        <ele>70</ele>
        <time>2015-05-12T12:50:12.000Z</time>
      </trkpt>
      <trkpt lat="50.82533" lon="1.91527">
        <ele>70</ele>
        <time>2015-05-12T12:50:13.000Z</time>
      </trkpt>
      <trkpt lat="50.82532" lon="1.91528">
        <ele>70</ele>
        <time>2015-05-12T12:50:14.000Z</time>
      </trkpt>
      <trkpt lat="50.82531" lon="1.91528">
        <ele>70</ele>
        <time>2015-05-12T12:50:15.000Z</time>
      </trkpt>
      <trkpt lat="50.8253" lon="1.91529">
        <ele>70</ele>
        <time>2015-05-12T12:50:16.000Z</time>
      </trkpt>
      <trkpt lat="50.8253" lon="1.9153">
        <ele>70</ele>
        <time>2015-05-12T12:50:17.000Z</time>
      </trkpt>
      <trkpt lat="50.82529" lon="1.91531">
        <ele>70</ele>
        <time>2015-05-12T12:50:18.000Z</time>
      </trkpt>
      <trkpt lat="50.82528" lon="1.91532">
        <ele>70</ele>
        <time>2015-05-12T12:50:19.000Z</time>
      </trkpt>
      <trkpt lat="50.82527" lon="1.91533">
        <ele>70</ele>
        <time>2015-05-12T12:50:20.000Z</time>
      </trkpt>
      <trkpt lat="50.82526" lon="1.91534">
        <ele>70</ele>
        <time>2015-05-12T12:50:21.000Z</time>
      </trkpt>
      <trkpt lat="50.82525" lon="1.91535">
        <ele>70</ele>
        <time>2015-05-12T12:50:22.000Z</time>
      </trkpt>
      <trkpt lat="50.82524" lon="1.91536">
        <ele>70</ele>
        <time>2015-05-12T12:50:23.000Z</time>
      </trkpt>
      <trkpt lat="50.82523" lon="1.91537">
        <ele>71</ele>
        <time>2015-05-12T12:50:24.000Z</time>
      </trkpt>
      <trkpt lat="50.82522" lon="1.91538">
        <ele>70</ele>
        <time>2015-05-12T12:50:25.000Z</time>
      </trkpt>
      <trkpt lat="50.82521" lon="1.91538">
        <ele>70</ele>
        <time>2015-05-12T12:50:26.000Z</time>
      </trkpt>
      <trkpt lat="50.8252" lon="1.91539">
        <ele>70</ele>
        <time>2015-05-12T12:50:27.000Z</time>
      </trkpt>
      <trkpt lat="50.8252" lon="1.9154">
        <ele>70</ele>
        <time>2015-05-12T12:50:28.000Z</time>
      </trkpt>
      <trkpt lat="50.82519" lon="1.91541">
        <ele>70</ele>
        <time>2015-05-12T12:50:29.000Z</time>
      </trkpt>
      <trkpt lat="50.82518" lon="1.91542">
        <ele>70</ele>
        <time>2015-05-12T12:50:30.000Z</time>
      </trkpt>
      <trkpt lat="50.82517" lon="1.91543">
        <ele>71</ele>
        <time>2015-05-12T12:50:31.000Z</time>
      </trkpt>
      <trkpt lat="50.82516" lon="1.91544">
        <ele>71</ele>
        <time>2015-05-12T12:50:32.000Z</time>
      </trkpt>
      <trkpt lat="50.82515" lon="1.91545">
        <ele>71</ele>
        <time>2015-05-12T12:50:33.000Z</time>
      </trkpt>
      <trkpt lat="50.82514" lon="1.91546">
        <ele>71</ele>
        <time>2015-05-12T12:50:34.000Z</time>
      </trkpt>
      <trkpt lat="50.82513" lon="1.91547">
        <ele>71</ele>
        <time>2015-05-12T12:50:35.000Z</time>
      </trkpt>
      <trkpt lat="50.82512" lon="1.91548">
        <ele>71</ele>
        <time>2015-05-12T12:50:36.000Z</time>
      </trkpt>
      <trkpt lat="50.82511" lon="1.91549">
        <ele>71</ele>
        <time>2015-05-12T12:50:37.000Z</time>
      </trkpt>
      <trkpt lat="50.8251" lon="1.91549">
        <ele>71</ele>
        <time>2015-05-12T12:50:38.000Z</time>
      </trkpt>
      <trkpt lat="50.82509" lon="1.9155">
        <ele>71</ele>
        <time>2015-05-12T12:50:39.000Z</time>
      </trkpt>
      <trkpt lat="50.82508" lon="1.91551">
        <ele>71</ele>
        <time>2015-05-12T12:50:40.000Z</time>
      </trkpt>
      <trkpt lat="50.82507" lon="1.91552">
        <ele>71</ele>
        <time>2015-05-12T12:50:41.000Z</time>
      </trkpt>
      <trkpt lat="50.82506" lon="1.91553">
        <ele>71</ele>
        <time>2015-05-12T12:50:42.000Z</time>
      </trkpt>
      <trkpt lat="50.82505" lon="1.91554">
        <ele>71</ele>
        <time>2015-05-12T12:50:43.000Z</time>
      </trkpt>
      <trkpt lat="50.82504" lon="1.91555">
        <ele>71</ele>
        <time>2015-05-12T12:50:44.000Z</time>
      </trkpt>
      <trkpt lat="50.82503" lon="1.91556">
        <ele>71</ele>
        <time>2015-05-12T12:50:45.000Z</time>
      </trkpt>
      <trkpt lat="50.82502" lon="1.91556">
        <ele>71</ele>
        <time>2015-05-12T12:50:46.000Z</time>
      </trkpt>
      <trkpt lat="50.82501" lon="1.91557">
        <ele>71</ele>
        <time>2015-05-12T12:50:47.000Z</time>
      </trkpt>
      <trkpt lat="50.825" lon="1.91558">
        <ele>71</ele>
        <time>2015-05-12T12:50:48.000Z</time>
      </trkpt>
      <trkpt lat="50.82499" lon="1.91559">
        <ele>71</ele>
        <time>2015-05-12T12:50:49.000Z</time>
      </trkpt>
      <trkpt lat="50.82498" lon="1.9156">
        <ele>71</ele>
        <time>2015-05-12T12:50:50.000Z</time>
      </trkpt>
      <trkpt lat="50.82497" lon="1.91561">
        <ele>71</ele>
        <time>2015-05-12T12:50:51.000Z</time>
      </trkpt>
      <trkpt lat="50.82497" lon="1.91561">
        <ele>71</ele>
        <time>2015-05-12T12:50:52.000Z</time>
      </trkpt>
      <trkpt lat="50.82496" lon="1.91562">
        <ele>71</ele>
        <time>2015-05-12T12:50:53.000Z</time>
      </trkpt>
      <trkpt lat="50.82495" lon="1.91564">
        <ele>71</ele>
        <time>2015-05-12T12:50:54.000Z</time>
      </trkpt>
      <trkpt lat="50.82494" lon="1.91565">
        <ele>71</ele>
        <time>2015-05-12T12:50:55.000Z</time>
      </trkpt>
      <trkpt lat="50.82492" lon="1.91566">
        <ele>72</ele>
        <time>2015-05-12T12:50:56.000Z</time>
      </trkpt>
      <trkpt lat="50.82491" lon="1.91567">
        <ele>72</ele>
        <time>2015-05-12T12:50:57.000Z</time>
      </trkpt>
      <trkpt lat="50.8249" lon="1.91568">
        <ele>72</ele>
        <time>2015-05-12T12:50:58.000Z</time>
      </trkpt>
      <trkpt lat="50.82489" lon="1.91569">
        <ele>72</ele>
        <time>2015-05-12T12:50:59.000Z</time>
      </trkpt>
      <trkpt lat="50.82488" lon="1.9157">
        <ele>72</ele>
        <time>2015-05-12T12:51:00.000Z</time>
      </trkpt>
      <trkpt lat="50.82487" lon="1.91571">
        <ele>72</ele>
        <time>2015-05-12T12:51:01.000Z</time>
      </trkpt>
      <trkpt lat="50.82486" lon="1.91571">
        <ele>72</ele>
        <time>2015-05-12T12:51:02.000Z</time>
      </trkpt>
      <trkpt lat="50.82485" lon="1.91572">
        <ele>72</ele>
        <time>2015-05-12T12:51:03.000Z</time>
      </trkpt>
      <trkpt lat="50.82484" lon="1.91573">
        <ele>72</ele>
        <time>2015-05-12T12:51:04.000Z</time>
      </trkpt>
      <trkpt lat="50.82484" lon="1.91574">
        <ele>72</ele>
        <time>2015-05-12T12:51:05.000Z</time>
      </trkpt>
      <trkpt lat="50.82483" lon="1.91575">
        <ele>72</ele>
        <time>2015-05-12T12:51:06.000Z</time>
      </trkpt>
      <trkpt lat="50.82482" lon="1.91576">
        <ele>72</ele>
        <time>2015-05-12T12:51:07.000Z</time>
      </trkpt>
      <trkpt lat="50.8248" lon="1.91577">
        <ele>72</ele>
        <time>2015-05-12T12:51:08.000Z</time>
      </trkpt>
      <trkpt lat="50.8248" lon="1.91578">
        <ele>72</ele>
        <time>2015-05-12T12:51:09.000Z</time>
      </trkpt>
      <trkpt lat="50.82479" lon="1.91579">
        <ele>72</ele>
        <time>2015-05-12T12:51:10.000Z</time>
      </trkpt>
      <trkpt lat="50.82478" lon="1.9158">
        <ele>72</ele>
        <time>2015-05-12T12:51:11.000Z</time>
      </trkpt>
      <trkpt lat="50.82477" lon="1.91581">
        <ele>73</ele>
        <time>2015-05-12T12:51:12.000Z</time>
      </trkpt>
      <trkpt lat="50.82476" lon="1.91582">
        <ele>72</ele>
        <time>2015-05-12T12:51:13.000Z</time>
      </trkpt>
      <trkpt lat="50.82475" lon="1.91583">
        <ele>72</ele>
        <time>2015-05-12T12:51:14.000Z</time>
      </trkpt>
      <trkpt lat="50.82474" lon="1.91584">
        <ele>72</ele>
        <time>2015-05-12T12:51:15.000Z</time>
      </trkpt>
      <trkpt lat="50.82473" lon="1.91585">
        <ele>73</ele>
        <time>2015-05-12T12:51:16.000Z</time>
      </trkpt>
      <trkpt lat="50.82472" lon="1.91586">
        <ele>72</ele>
        <time>2015-05-12T12:51:17.000Z</time>
      </trkpt>
      <trkpt lat="50.82471" lon="1.91586">
        <ele>73</ele>
        <time>2015-05-12T12:51:18.000Z</time>
      </trkpt>
      <trkpt lat="50.8247" lon="1.91587">
        <ele>73</ele>
        <time>2015-05-12T12:51:19.000Z</time>
      </trkpt>
      <trkpt lat="50.82469" lon="1.91588">
        <ele>73</ele>
        <time>2015-05-12T12:51:20.000Z</time>
      </trkpt>
      <trkpt lat="50.82468" lon="1.91589">
        <ele>73</ele>
        <time>2015-05-12T12:51:21.000Z</time>
      </trkpt>
      <trkpt lat="50.82467" lon="1.9159">
        <ele>73</ele>
        <time>2015-05-12T12:51:22.000Z</time>
      </trkpt>
      <trkpt lat="50.82466" lon="1.91591">
        <ele>73</ele>
        <time>2015-05-12T12:51:23.000Z</time>
      </trkpt>
      <trkpt lat="50.82465" lon="1.91592">
        <ele>73</ele>
        <time>2015-05-12T12:51:24.000Z</time>
      </trkpt>
      <trkpt lat="50.82464" lon="1.91593">
        <ele>73</ele>
        <time>2015-05-12T12:51:25.000Z</time>
      </trkpt>
      <trkpt lat="50.82463" lon="1.91593">
        <ele>73</ele>
        <time>2015-05-12T12:51:26.000Z</time>
      </trkpt>
      <trkpt lat="50.82463" lon="1.91594">
        <ele>73</ele>
        <time>2015-05-12T12:51:27.000Z</time>
      </trkpt>
      <trkpt lat="50.82462" lon="1.91595">
        <ele>73</ele>
        <time>2015-05-12T12:51:28.000Z</time>
      </trkpt>
      <trkpt lat="50.82461" lon="1.91596">
        <ele>73</ele>
        <time>2015-05-12T12:51:29.000Z</time>
      </trkpt>
      <trkpt lat="50.8246" lon="1.91597">
        <ele>73</ele>
        <time>2015-05-12T12:51:30.000Z</time>
      </trkpt>
      <trkpt lat="50.82459" lon="1.91598">
        <ele>73</ele>
        <time>2015-05-12T12:51:31.000Z</time>
      </trkpt>
      <trkpt lat="50.82458" lon="1.91599">
        <ele>73</ele>
        <time>2015-05-12T12:51:32.000Z</time>
      </trkpt>
      <trkpt lat="50.82457" lon="1.916">
        <ele>73</ele>
        <time>2015-05-12T12:51:33.000Z</time>
      </trkpt>
      <trkpt lat="50.82456" lon="1.91601">
        <ele>73</ele>
        <time>2015-05-12T12:51:34.000Z</time>
      </trkpt>
      <trkpt lat="50.82455" lon="1.91602">
        <ele>74</ele>
        <time>2015-05-12T12:51:35.000Z</time>
      </trkpt>
      <trkpt lat="50.82454" lon="1.91603">
        <ele>74</ele>
        <time>2015-05-12T12:51:36.000Z</time>
      </trkpt>
      <trkpt lat="50.82453" lon="1.91603">
        <ele>74</ele>
        <time>2015-05-12T12:51:37.000Z</time>
      </trkpt>
      <trkpt lat="50.82452" lon="1.91604">
        <ele>74</ele>
        <time>2015-05-12T12:51:38.000Z</time>
      </trkpt>
      <trkpt lat="50.82451" lon="1.91605">
        <ele>74</ele>
        <time>2015-05-12T12:51:39.000Z</time>
      </trkpt>
      <trkpt lat="50.8245" lon="1.91606">
        <ele>74</ele>
        <time>2015-05-12T12:51:40.000Z</time>
      </trkpt>
      <trkpt lat="50.82449" lon="1.91608">
        <ele>74</ele>
        <time>2015-05-12T12:51:41.000Z</time>
      </trkpt>
      <trkpt lat="50.82448" lon="1.91609">
        <ele>75</ele>
        <time>2015-05-12T12:51:42.000Z</time>
      </trkpt>
      <trkpt lat="50.82447" lon="1.9161">
        <ele>75</ele>
        <time>2015-05-12T12:51:43.000Z</time>
      </trkpt>
      <trkpt lat="50.82446" lon="1.91611">
        <ele>75</ele>
        <time>2015-05-12T12:51:44.000Z</time>
      </trkpt>
      <trkpt lat="50.82445" lon="1.91612">
        <ele>75</ele>
        <time>2015-05-12T12:51:45.000Z</time>
      </trkpt>
      <trkpt lat="50.82444" lon="1.91613">
        <ele>75</ele>
        <time>2015-05-12T12:51:46.000Z</time>
      </trkpt>
      <trkpt lat="50.82443" lon="1.91614">
        <ele>75</ele>
        <time>2015-05-12T12:51:47.000Z</time>
      </trkpt>
      <trkpt lat="50.82442" lon="1.91615">
        <ele>75</ele>
        <time>2015-05-12T12:51:48.000Z</time>
      </trkpt>
      <trkpt lat="50.82441" lon="1.91615">
        <ele>75</ele>
        <time>2015-05-12T12:51:49.000Z</time>
      </trkpt>
      <trkpt lat="50.8244" lon="1.91616">
        <ele>75</ele>
        <time>2015-05-12T12:51:50.000Z</time>
      </trkpt>
      <trkpt lat="50.82439" lon="1.91617">
        <ele>75</ele>
        <time>2015-05-12T12:51:51.000Z</time>
      </trkpt>
      <trkpt lat="50.82439" lon="1.91618">
        <ele>75</ele>
        <time>2015-05-12T12:51:52.000Z</time>
      </trkpt>
      <trkpt lat="50.82438" lon="1.91619">
        <ele>75</ele>
        <time>2015-05-12T12:51:53.000Z</time>
      </trkpt>
      <trkpt lat="50.82437" lon="1.91619">
        <ele>75</ele>
        <time>2015-05-12T12:51:54.000Z</time>
      </trkpt>
      <trkpt lat="50.82436" lon="1.9162">
        <ele>75</ele>
        <time>2015-05-12T12:51:55.000Z</time>
      </trkpt>
      <trkpt lat="50.82435" lon="1.91621">
        <ele>75</ele>
        <time>2015-05-12T12:51:56.000Z</time>
      </trkpt>
      <trkpt lat="50.82434" lon="1.91622">
        <ele>75</ele>
        <time>2015-05-12T12:51:57.000Z</time>
      </trkpt>
      <trkpt lat="50.82433" lon="1.91623">
        <ele>75</ele>
        <time>2015-05-12T12:51:58.000Z</time>
      </trkpt>
      <trkpt lat="50.82432" lon="1.91624">
        <ele>75</ele>
        <time>2015-05-12T12:51:59.000Z</time>
      </trkpt>
      <trkpt lat="50.82431" lon="1.91625">
        <ele>75</ele>
        <time>2015-05-12T12:52:00.000Z</time>
      </trkpt>
      <trkpt lat="50.8243" lon="1.91625">
        <ele>75</ele>
        <time>2015-05-12T12:52:01.000Z</time>
      </trkpt>
      <trkpt lat="50.82429" lon="1.91626">
        <ele>75</ele>
        <time>2015-05-12T12:52:02.000Z</time>
      </trkpt>
      <trkpt lat="50.82428" lon="1.91627">
        <ele>75</ele>
        <time>2015-05-12T12:52:03.000Z</time>
      </trkpt>
      <trkpt lat="50.82427" lon="1.91628">
        <ele>75</ele>
        <time>2015-05-12T12:52:04.000Z</time>
      </trkpt>
      <trkpt lat="50.82427" lon="1.91629">
        <ele>75</ele>
        <time>2015-05-12T12:52:05.000Z</time>
      </trkpt>
      <trkpt lat="50.82426" lon="1.9163">
        <ele>76</ele>
        <time>2015-05-12T12:52:06.000Z</time>
      </trkpt>
      <trkpt lat="50.82425" lon="1.91631">
        <ele>76</ele>
        <time>2015-05-12T12:52:07.000Z</time>
      </trkpt>
      <trkpt lat="50.82424" lon="1.91632">
        <ele>75</ele>
        <time>2015-05-12T12:52:08.000Z</time>
      </trkpt>
      <trkpt lat="50.82423" lon="1.91633">
        <ele>76</ele>
        <time>2015-05-12T12:52:09.000Z</time>
      </trkpt>
      <trkpt lat="50.82422" lon="1.91634">
        <ele>75</ele>
        <time>2015-05-12T12:52:10.000Z</time>
      </trkpt>
      <trkpt lat="50.82421" lon="1.91635">
        <ele>75</ele>
        <time>2015-05-12T12:52:11.000Z</time>
      </trkpt>
      <trkpt lat="50.8242" lon="1.91636">
        <ele>76</ele>
        <time>2015-05-12T12:52:12.000Z</time>
      </trkpt>
      <trkpt lat="50.82419" lon="1.91637">
        <ele>76</ele>
        <time>2015-05-12T12:52:13.000Z</time>
      </trkpt>
      <trkpt lat="50.82418" lon="1.91638">
        <ele>76</ele>
        <time>2015-05-12T12:52:14.000Z</time>
      </trkpt>
      <trkpt lat="50.82417" lon="1.91639">
        <ele>76</ele>
        <time>2015-05-12T12:52:15.000Z</time>
      </trkpt>
      <trkpt lat="50.82416" lon="1.9164">
        <ele>76</ele>
        <time>2015-05-12T12:52:16.000Z</time>
      </trkpt>
      <trkpt lat="50.82415" lon="1.9164">
        <ele>76</ele>
        <time>2015-05-12T12:52:17.000Z</time>
      </trkpt>
      <trkpt lat="50.82414" lon="1.91641">
        <ele>75</ele>
        <time>2015-05-12T12:52:18.000Z</time>
      </trkpt>
      <trkpt lat="50.82413" lon="1.91642">
        <ele>75</ele>
        <time>2015-05-12T12:52:19.000Z</time>
      </trkpt>
      <trkpt lat="50.82412" lon="1.91643">
        <ele>75</ele>
        <time>2015-05-12T12:52:20.000Z</time>
      </trkpt>
      <trkpt lat="50.82411" lon="1.91644">
        <ele>76</ele>
        <time>2015-05-12T12:52:21.000Z</time>
      </trkpt>
      <trkpt lat="50.8241" lon="1.91645">
        <ele>76</ele>
        <time>2015-05-12T12:52:22.000Z</time>
      </trkpt>
      <trkpt lat="50.82409" lon="1.91646">
        <ele>76</ele>
        <time>2015-05-12T12:52:23.000Z</time>
      </trkpt>
      <trkpt lat="50.82408" lon="1.91647">
        <ele>76</ele>
        <time>2015-05-12T12:52:24.000Z</time>
      </trkpt>
      <trkpt lat="50.82408" lon="1.91647">
        <ele>76</ele>
        <time>2015-05-12T12:52:25.000Z</time>
      </trkpt>
      <trkpt lat="50.82407" lon="1.91648">
        <ele>76</ele>
        <time>2015-05-12T12:52:26.000Z</time>
      </trkpt>
      <trkpt lat="50.82405" lon="1.91649">
        <ele>76</ele>
        <time>2015-05-12T12:52:27.000Z</time>
      </trkpt>
      <trkpt lat="50.82404" lon="1.9165">
        <ele>76</ele>
        <time>2015-05-12T12:52:28.000Z</time>
      </trkpt>
      <trkpt lat="50.82403" lon="1.91651">
        <ele>76</ele>
        <time>2015-05-12T12:52:29.000Z</time>
      </trkpt>
      <trkpt lat="50.82402" lon="1.91652">
        <ele>76</ele>
        <time>2015-05-12T12:52:30.000Z</time>
      </trkpt>
      <trkpt lat="50.82402" lon="1.91653">
        <ele>76</ele>
        <time>2015-05-12T12:52:31.000Z</time>
      </trkpt>
      <trkpt lat="50.82401" lon="1.91653">
        <ele>76</ele>
        <time>2015-05-12T12:52:32.000Z</time>
      </trkpt>
      <trkpt lat="50.824" lon="1.91654">
        <ele>76</ele>
        <time>2015-05-12T12:52:33.000Z</time>
      </trkpt>
      <trkpt lat="50.82399" lon="1.91655">
        <ele>76</ele>
        <time>2015-05-12T12:52:34.000Z</time>
      </trkpt>
      <trkpt lat="50.82398" lon="1.91656">
        <ele>76</ele>
        <time>2015-05-12T12:52:35.000Z</time>
      </trkpt>
      <trkpt lat="50.82397" lon="1.91657">
        <ele>76</ele>
        <time>2015-05-12T12:52:36.000Z</time>
      </trkpt>
      <trkpt lat="50.82396" lon="1.91658">
        <ele>76</ele>
        <time>2015-05-12T12:52:37.000Z</time>
      </trkpt>
      <trkpt lat="50.82395" lon="1.91659">
        <ele>76</ele>
        <time>2015-05-12T12:52:38.000Z</time>
      </trkpt>
      <trkpt lat="50.82394" lon="1.9166">
        <ele>76</ele>
        <time>2015-05-12T12:52:39.000Z</time>
      </trkpt>
      <trkpt lat="50.82393" lon="1.9166">
        <ele>76</ele>
        <time>2015-05-12T12:52:40.000Z</time>
      </trkpt>
      <trkpt lat="50.82392" lon="1.91661">
        <ele>75</ele>
        <time>2015-05-12T12:52:41.000Z</time>
      </trkpt>
      <trkpt lat="50.82391" lon="1.91662">
        <ele>76</ele>
        <time>2015-05-12T12:52:42.000Z</time>
      </trkpt>
      <trkpt lat="50.8239" lon="1.91663">
        <ele>76</ele>
        <time>2015-05-12T12:52:43.000Z</time>
      </trkpt>
      <trkpt lat="50.82389" lon="1.91664">
        <ele>76</ele>
        <time>2015-05-12T12:52:44.000Z</time>
      </trkpt>
      <trkpt lat="50.82388" lon="1.91665">
        <ele>75</ele>
        <time>2015-05-12T12:52:45.000Z</time>
      </trkpt>
      <trkpt lat="50.82387" lon="1.91665">
        <ele>75</ele>
        <time>2015-05-12T12:52:46.000Z</time>
      </trkpt>
      <trkpt lat="50.82386" lon="1.91666">
        <ele>76</ele>
        <time>2015-05-12T12:52:47.000Z</time>
      </trkpt>
      <trkpt lat="50.82385" lon="1.91667">
        <ele>76</ele>
        <time>2015-05-12T12:52:48.000Z</time>
      </trkpt>
      <trkpt lat="50.82384" lon="1.91668">
        <ele>75</ele>
        <time>2015-05-12T12:52:49.000Z</time>
      </trkpt>
      <trkpt lat="50.82383" lon="1.9167">
        <ele>76</ele>
        <time>2015-05-12T12:52:50.000Z</time>
      </trkpt>
      <trkpt lat="50.82382" lon="1.91671">
        <ele>76</ele>
        <time>2015-05-12T12:52:51.000Z</time>
      </trkpt>
      <trkpt lat="50.82381" lon="1.91672">
        <ele>76</ele>
        <time>2015-05-12T12:52:52.000Z</time>
      </trkpt>
      <trkpt lat="50.8238" lon="1.91673">
        <ele>76</ele>
        <time>2015-05-12T12:52:53.000Z</time>
      </trkpt>
      <trkpt lat="50.82379" lon="1.91674">
        <ele>76</ele>
        <time>2015-05-12T12:52:54.000Z</time>
      </trkpt>
      <trkpt lat="50.82378" lon="1.91675">
        <ele>76</ele>
        <time>2015-05-12T12:52:55.000Z</time>
      </trkpt>
      <trkpt lat="50.82377" lon="1.91676">
        <ele>76</ele>
        <time>2015-05-12T12:52:56.000Z</time>
      </trkpt>
      <trkpt lat="50.82376" lon="1.91677">
        <ele>76</ele>
        <time>2015-05-12T12:52:57.000Z</time>
      </trkpt>
      <trkpt lat="50.82375" lon="1.91678">
        <ele>76</ele>
        <time>2015-05-12T12:52:58.000Z</time>
      </trkpt>
      <trkpt lat="50.82374" lon="1.91679">
        <ele>76</ele>
        <time>2015-05-12T12:52:59.000Z</time>
      </trkpt>
      <trkpt lat="50.82373" lon="1.9168">
        <ele>75</ele>
        <time>2015-05-12T12:53:00.000Z</time>
      </trkpt>
      <trkpt lat="50.82372" lon="1.91681">
        <ele>75</ele>
        <time>2015-05-12T12:53:01.000Z</time>
      </trkpt>
      <trkpt lat="50.82371" lon="1.91682">
        <ele>75</ele>
        <time>2015-05-12T12:53:02.000Z</time>
      </trkpt>
      <trkpt lat="50.8237" lon="1.91683">
        <ele>75</ele>
        <time>2015-05-12T12:53:03.000Z</time>
      </trkpt>
      <trkpt lat="50.82369" lon="1.91684">
        <ele>75</ele>
        <time>2015-05-12T12:53:04.000Z</time>
      </trkpt>
      <trkpt lat="50.82368" lon="1.91684">
        <ele>75</ele>
        <time>2015-05-12T12:53:05.000Z</time>
      </trkpt>
      <trkpt lat="50.82367" lon="1.91685">
        <ele>75</ele>
        <time>2015-05-12T12:53:06.000Z</time>
      </trkpt>
      <trkpt lat="50.82366" lon="1.91686">
        <ele>74</ele>
        <time>2015-05-12T12:53:07.000Z</time>
      </trkpt>
      <trkpt lat="50.82365" lon="1.91687">
        <ele>74</ele>
        <time>2015-05-12T12:53:08.000Z</time>
      </trkpt>
      <trkpt lat="50.82363" lon="1.91688">
        <ele>74</ele>
        <time>2015-05-12T12:53:09.000Z</time>
      </trkpt>
      <trkpt lat="50.82362" lon="1.91689">
        <ele>74</ele>
        <time>2015-05-12T12:53:10.000Z</time>
      </trkpt>
      <trkpt lat="50.82361" lon="1.9169">
        <ele>75</ele>
        <time>2015-05-12T12:53:11.000Z</time>
      </trkpt>
      <trkpt lat="50.8236" lon="1.91691">
        <ele>74</ele>
        <time>2015-05-12T12:53:12.000Z</time>
      </trkpt>
      <trkpt lat="50.82359" lon="1.91692">
        <ele>74</ele>
        <time>2015-05-12T12:53:13.000Z</time>
      </trkpt>
      <trkpt lat="50.82358" lon="1.91693">
        <ele>74</ele>
        <time>2015-05-12T12:53:14.000Z</time>
      </trkpt>
      <trkpt lat="50.82357" lon="1.91694">
        <ele>75</ele>
        <time>2015-05-12T12:53:15.000Z</time>
      </trkpt>
      <trkpt lat="50.82356" lon="1.91695">
        <ele>75</ele>
        <time>2015-05-12T12:53:16.000Z</time>
      </trkpt>
      <trkpt lat="50.82355" lon="1.91696">
        <ele>75</ele>
        <time>2015-05-12T12:53:17.000Z</time>
      </trkpt>
      <trkpt lat="50.82354" lon="1.91698">
        <ele>75</ele>
        <time>2015-05-12T12:53:18.000Z</time>
      </trkpt>
      <trkpt lat="50.82353" lon="1.91699">
        <ele>75</ele>
        <time>2015-05-12T12:53:19.000Z</time>
      </trkpt>
      <trkpt lat="50.82352" lon="1.917">
        <ele>75</ele>
        <time>2015-05-12T12:53:20.000Z</time>
      </trkpt>
      <trkpt lat="50.82351" lon="1.91701">
        <ele>75</ele>
        <time>2015-05-12T12:53:21.000Z</time>
      </trkpt>
      <trkpt lat="50.8235" lon="1.91702">
        <ele>75</ele>
        <time>2015-05-12T12:53:22.000Z</time>
      </trkpt>
      <trkpt lat="50.82349" lon="1.91703">
        <ele>75</ele>
        <time>2015-05-12T12:53:23.000Z</time>
      </trkpt>
      <trkpt lat="50.82348" lon="1.91704">
        <ele>75</ele>
        <time>2015-05-12T12:53:24.000Z</time>
      </trkpt>
      <trkpt lat="50.82347" lon="1.91705">
        <ele>75</ele>
        <time>2015-05-12T12:53:25.000Z</time>
      </trkpt>
      <trkpt lat="50.82346" lon="1.91706">
        <ele>75</ele>
        <time>2015-05-12T12:53:26.000Z</time>
      </trkpt>
      <trkpt lat="50.82345" lon="1.91707">
        <ele>75</ele>
        <time>2015-05-12T12:53:27.000Z</time>
      </trkpt>
      <trkpt lat="50.82344" lon="1.91708">
        <ele>75</ele>
        <time>2015-05-12T12:53:28.000Z</time>
      </trkpt>
      <trkpt lat="50.82343" lon="1.91709">
        <ele>75</ele>
        <time>2015-05-12T12:53:29.000Z</time>
      </trkpt>
      <trkpt lat="50.82342" lon="1.9171">
        <ele>75</ele>
        <time>2015-05-12T12:53:30.000Z</time>
      </trkpt>
      <trkpt lat="50.82341" lon="1.91711">
        <ele>75</ele>
        <time>2015-05-12T12:53:31.000Z</time>
      </trkpt>
      <trkpt lat="50.8234" lon="1.91712">
        <ele>75</ele>
        <time>2015-05-12T12:53:32.000Z</time>
      </trkpt>
      <trkpt lat="50.82339" lon="1.91713">
        <ele>75</ele>
        <time>2015-05-12T12:53:33.000Z</time>
      </trkpt>
      <trkpt lat="50.82338" lon="1.91714">
        <ele>75</ele>
        <time>2015-05-12T12:53:34.000Z</time>
      </trkpt>
      <trkpt lat="50.82337" lon="1.91716">
        <ele>75</ele>
        <time>2015-05-12T12:53:35.000Z</time>
      </trkpt>
      <trkpt lat="50.82336" lon="1.91717">
        <ele>75</ele>
        <time>2015-05-12T12:53:36.000Z</time>
      </trkpt>
      <trkpt lat="50.82335" lon="1.91718">
        <ele>75</ele>
        <time>2015-05-12T12:53:37.000Z</time>
      </trkpt>
      <trkpt lat="50.82334" lon="1.91719">
        <ele>75</ele>
        <time>2015-05-12T12:53:38.000Z</time>
      </trkpt>
      <trkpt lat="50.82333" lon="1.9172">
        <ele>75</ele>
        <time>2015-05-12T12:53:39.000Z</time>
      </trkpt>
      <trkpt lat="50.82332" lon="1.91721">
        <ele>75</ele>
        <time>2015-05-12T12:53:40.000Z</time>
      </trkpt>
      <trkpt lat="50.82331" lon="1.91722">
        <ele>75</ele>
        <time>2015-05-12T12:53:41.000Z</time>
      </trkpt>
      <trkpt lat="50.8233" lon="1.91723">
        <ele>75</ele>
        <time>2015-05-12T12:53:42.000Z</time>
      </trkpt>
      <trkpt lat="50.82329" lon="1.91724">
        <ele>75</ele>
        <time>2015-05-12T12:53:43.000Z</time>
      </trkpt>
      <trkpt lat="50.82328" lon="1.91725">
        <ele>75</ele>
        <time>2015-05-12T12:53:44.000Z</time>
      </trkpt>
      <trkpt lat="50.82327" lon="1.91726">
        <ele>75</ele>
        <time>2015-05-12T12:53:45.000Z</time>
      </trkpt>
      <trkpt lat="50.82326" lon="1.91728">
        <ele>75</ele>
        <time>2015-05-12T12:53:46.000Z</time>
      </trkpt>
      <trkpt lat="50.82325" lon="1.91729">
        <ele>74</ele>
        <time>2015-05-12T12:53:47.000Z</time>
      </trkpt>
      <trkpt lat="50.82324" lon="1.9173">
        <ele>74</ele>
        <time>2015-05-12T12:53:48.000Z</time>
      </trkpt>
      <trkpt lat="50.82323" lon="1.91731">
        <ele>74</ele>
        <time>2015-05-12T12:53:49.000Z</time>
      </trkpt>
      <trkpt lat="50.82322" lon="1.91732">
        <ele>74</ele>
        <time>2015-05-12T12:53:50.000Z</time>
      </trkpt>
      <trkpt lat="50.82321" lon="1.91733">
        <ele>74</ele>
        <time>2015-05-12T12:53:51.000Z</time>
      </trkpt>
      <trkpt lat="50.82321" lon="1.91734">
        <ele>74</ele>
        <time>2015-05-12T12:53:52.000Z</time>
      </trkpt>
      <trkpt lat="50.8232" lon="1.91735">
        <ele>74</ele>
        <time>2015-05-12T12:53:53.000Z</time>
      </trkpt>
      <trkpt lat="50.82319" lon="1.91736">
        <ele>74</ele>
        <time>2015-05-12T12:53:54.000Z</time>
      </trkpt>
      <trkpt lat="50.82318" lon="1.91738">
        <ele>75</ele>
        <time>2015-05-12T12:53:55.000Z</time>
      </trkpt>
      <trkpt lat="50.82317" lon="1.91739">
        <ele>74</ele>
        <time>2015-05-12T12:53:56.000Z</time>
      </trkpt>
      <trkpt lat="50.82316" lon="1.9174">
        <ele>74</ele>
        <time>2015-05-12T12:53:57.000Z</time>
      </trkpt>
      <trkpt lat="50.82315" lon="1.91741">
        <ele>74</ele>
        <time>2015-05-12T12:53:58.000Z</time>
      </trkpt>
      <trkpt lat="50.82314" lon="1.91742">
        <ele>74</ele>
        <time>2015-05-12T12:53:59.000Z</time>
      </trkpt>
      <trkpt lat="50.82313" lon="1.91743">
        <ele>74</ele>
        <time>2015-05-12T12:54:00.000Z</time>
      </trkpt>
      <trkpt lat="50.82312" lon="1.91744">
        <ele>74</ele>
        <time>2015-05-12T12:54:01.000Z</time>
      </trkpt>
      <trkpt lat="50.82311" lon="1.91745">
        <ele>74</ele>
        <time>2015-05-12T12:54:02.000Z</time>
      </trkpt>
      <trkpt lat="50.8231" lon="1.91746">
        <ele>74</ele>
        <time>2015-05-12T12:54:03.000Z</time>
      </trkpt>
      <trkpt lat="50.82309" lon="1.91748">
        <ele>74</ele>
        <time>2015-05-12T12:54:04.000Z</time>
      </trkpt>
      <trkpt lat="50.82308" lon="1.91749">
        <ele>74</ele>
        <time>2015-05-12T12:54:05.000Z</time>
      </trkpt>
      <trkpt lat="50.82307" lon="1.9175">
        <ele>74</ele>
        <time>2015-05-12T12:54:06.000Z</time>
      </trkpt>
      <trkpt lat="50.82306" lon="1.91751">
        <ele>73</ele>
        <time>2015-05-12T12:54:07.000Z</time>
      </trkpt>
      <trkpt lat="50.82306" lon="1.91752">
        <ele>73</ele>
        <time>2015-05-12T12:54:08.000Z</time>
      </trkpt>
      <trkpt lat="50.82305" lon="1.91754">
        <ele>73</ele>
        <time>2015-05-12T12:54:09.000Z</time>
      </trkpt>
      <trkpt lat="50.82304" lon="1.91755">
        <ele>74</ele>
        <time>2015-05-12T12:54:10.000Z</time>
      </trkpt>
      <trkpt lat="50.82303" lon="1.91756">
        <ele>74</ele>
        <time>2015-05-12T12:54:11.000Z</time>
      </trkpt>
      <trkpt lat="50.82302" lon="1.91758">
        <ele>74</ele>
        <time>2015-05-12T12:54:12.000Z</time>
      </trkpt>
      <trkpt lat="50.82301" lon="1.91759">
        <ele>74</ele>
        <time>2015-05-12T12:54:13.000Z</time>
      </trkpt>
      <trkpt lat="50.823" lon="1.9176">
        <ele>75</ele>
        <time>2015-05-12T12:54:14.000Z</time>
      </trkpt>
      <trkpt lat="50.82299" lon="1.91761">
        <ele>75</ele>
        <time>2015-05-12T12:54:15.000Z</time>
      </trkpt>
      <trkpt lat="50.82298" lon="1.91763">
        <ele>75</ele>
        <time>2015-05-12T12:54:16.000Z</time>
      </trkpt>
      <trkpt lat="50.82297" lon="1.91764">
        <ele>75</ele>
        <time>2015-05-12T12:54:17.000Z</time>
      </trkpt>
      <trkpt lat="50.82296" lon="1.91764">
        <ele>75</ele>
        <time>2015-05-12T12:54:18.000Z</time>
      </trkpt>
      <trkpt lat="50.82295" lon="1.91765">
        <ele>75</ele>
        <time>2015-05-12T12:54:19.000Z</time>
      </trkpt>
      <trkpt lat="50.82294" lon="1.91767">
        <ele>75</ele>
        <time>2015-05-12T12:54:20.000Z</time>
      </trkpt>
      <trkpt lat="50.82293" lon="1.91768">
        <ele>75</ele>
        <time>2015-05-12T12:54:21.000Z</time>
      </trkpt>
      <trkpt lat="50.82293" lon="1.91769">
        <ele>75</ele>
        <time>2015-05-12T12:54:22.000Z</time>
      </trkpt>
      <trkpt lat="50.82292" lon="1.9177">
        <ele>75</ele>
        <time>2015-05-12T12:54:23.000Z</time>
      </trkpt>
      <trkpt lat="50.82291" lon="1.91771">
        <ele>75</ele>
        <time>2015-05-12T12:54:24.000Z</time>
      </trkpt>
      <trkpt lat="50.8229" lon="1.91773">
        <ele>75</ele>
        <time>2015-05-12T12:54:25.000Z</time>
      </trkpt>
      <trkpt lat="50.82289" lon="1.91774">
        <ele>75</ele>
        <time>2015-05-12T12:54:26.000Z</time>
      </trkpt>
      <trkpt lat="50.82288" lon="1.91775">
        <ele>75</ele>
        <time>2015-05-12T12:54:27.000Z</time>
      </trkpt>
      <trkpt lat="50.82287" lon="1.91776">
        <ele>76</ele>
        <time>2015-05-12T12:54:28.000Z</time>
      </trkpt>
      <trkpt lat="50.82286" lon="1.91777">
        <ele>76</ele>
        <time>2015-05-12T12:54:29.000Z</time>
      </trkpt>
      <trkpt lat="50.82285" lon="1.91778">
        <ele>76</ele>
        <time>2015-05-12T12:54:30.000Z</time>
      </trkpt>
      <trkpt lat="50.82284" lon="1.91779">
        <ele>75</ele>
        <time>2015-05-12T12:54:31.000Z</time>
      </trkpt>
      <trkpt lat="50.82283" lon="1.9178">
        <ele>76</ele>
        <time>2015-05-12T12:54:32.000Z</time>
      </trkpt>
      <trkpt lat="50.82282" lon="1.91781">
        <ele>76</ele>
        <time>2015-05-12T12:54:33.000Z</time>
      </trkpt>
      <trkpt lat="50.82282" lon="1.91783">
        <ele>76</ele>
        <time>2015-05-12T12:54:34.000Z</time>
      </trkpt>
      <trkpt lat="50.82281" lon="1.91784">
        <ele>76</ele>
        <time>2015-05-12T12:54:35.000Z</time>
      </trkpt>
      <trkpt lat="50.8228" lon="1.91785">
        <ele>76</ele>
        <time>2015-05-12T12:54:36.000Z</time>
      </trkpt>
      <trkpt lat="50.82278" lon="1.91786">
        <ele>76</ele>
        <time>2015-05-12T12:54:37.000Z</time>
      </trkpt>
      <trkpt lat="50.82277" lon="1.91787">
        <ele>76</ele>
        <time>2015-05-12T12:54:38.000Z</time>
      </trkpt>
      <trkpt lat="50.82276" lon="1.91789">
        <ele>76</ele>
        <time>2015-05-12T12:54:39.000Z</time>
      </trkpt>
      <trkpt lat="50.82275" lon="1.9179">
        <ele>75</ele>
        <time>2015-05-12T12:54:40.000Z</time>
      </trkpt>
      <trkpt lat="50.82275" lon="1.91791">
        <ele>75</ele>
        <time>2015-05-12T12:54:41.000Z</time>
      </trkpt>
      <trkpt lat="50.82274" lon="1.91792">
        <ele>76</ele>
        <time>2015-05-12T12:54:42.000Z</time>
      </trkpt>
      <trkpt lat="50.82273" lon="1.91793">
        <ele>76</ele>
        <time>2015-05-12T12:54:43.000Z</time>
      </trkpt>
      <trkpt lat="50.82272" lon="1.91794">
        <ele>76</ele>
        <time>2015-05-12T12:54:44.000Z</time>
      </trkpt>
      <trkpt lat="50.82271" lon="1.91795">
        <ele>76</ele>
        <time>2015-05-12T12:54:45.000Z</time>
      </trkpt>
      <trkpt lat="50.8227" lon="1.91796">
        <ele>76</ele>
        <time>2015-05-12T12:54:46.000Z</time>
      </trkpt>
      <trkpt lat="50.82269" lon="1.91797">
        <ele>76</ele>
        <time>2015-05-12T12:54:47.000Z</time>
      </trkpt>
      <trkpt lat="50.82268" lon="1.91798">
        <ele>76</ele>
        <time>2015-05-12T12:54:48.000Z</time>
      </trkpt>
      <trkpt lat="50.82268" lon="1.91799">
        <ele>76</ele>
        <time>2015-05-12T12:54:49.000Z</time>
      </trkpt>
      <trkpt lat="50.82267" lon="1.918">
        <ele>76</ele>
        <time>2015-05-12T12:54:50.000Z</time>
      </trkpt>
      <trkpt lat="50.82266" lon="1.91801">
        <ele>76</ele>
        <time>2015-05-12T12:54:51.000Z</time>
      </trkpt>
      <trkpt lat="50.82265" lon="1.91802">
        <ele>76</ele>
        <time>2015-05-12T12:54:52.000Z</time>
      </trkpt>
      <trkpt lat="50.82264" lon="1.91803">
        <ele>76</ele>
        <time>2015-05-12T12:54:53.000Z</time>
      </trkpt>
      <trkpt lat="50.82263" lon="1.91804">
        <ele>76</ele>
        <time>2015-05-12T12:54:54.000Z</time>
      </trkpt>
      <trkpt lat="50.82262" lon="1.91805">
        <ele>76</ele>
        <time>2015-05-12T12:54:55.000Z</time>
      </trkpt>
      <trkpt lat="50.82262" lon="1.91806">
        <ele>76</ele>
        <time>2015-05-12T12:54:56.000Z</time>
      </trkpt>
      <trkpt lat="50.82261" lon="1.91807">
        <ele>77</ele>
        <time>2015-05-12T12:54:57.000Z</time>
      </trkpt>
      <trkpt lat="50.8226" lon="1.91808">
        <ele>77</ele>
        <time>2015-05-12T12:54:58.000Z</time>
      </trkpt>
      <trkpt lat="50.82259" lon="1.91809">
        <ele>77</ele>
        <time>2015-05-12T12:54:59.000Z</time>
      </trkpt>
      <trkpt lat="50.82258" lon="1.9181">
        <ele>76</ele>
        <time>2015-05-12T12:55:00.000Z</time>
      </trkpt>
      <trkpt lat="50.82257" lon="1.91811">
        <ele>76</ele>
        <time>2015-05-12T12:55:01.000Z</time>
      </trkpt>
      <trkpt lat="50.82257" lon="1.91812">
        <ele>76</ele>
        <time>2015-05-12T12:55:02.000Z</time>
      </trkpt>
      <trkpt lat="50.82256" lon="1.91813">
        <ele>76</ele>
        <time>2015-05-12T12:55:03.000Z</time>
      </trkpt>
      <trkpt lat="50.82255" lon="1.91814">
        <ele>76</ele>
        <time>2015-05-12T12:55:04.000Z</time>
      </trkpt>
      <trkpt lat="50.82254" lon="1.91815">
        <ele>76</ele>
        <time>2015-05-12T12:55:05.000Z</time>
      </trkpt>
      <trkpt lat="50.82253" lon="1.91816">
        <ele>76</ele>
        <time>2015-05-12T12:55:06.000Z</time>
      </trkpt>
      <trkpt lat="50.82252" lon="1.91817">
        <ele>76</ele>
        <time>2015-05-12T12:55:07.000Z</time>
      </trkpt>
      <trkpt lat="50.82251" lon="1.91818">
        <ele>77</ele>
        <time>2015-05-12T12:55:08.000Z</time>
      </trkpt>
      <trkpt lat="50.82251" lon="1.91819">
        <ele>77</ele>
        <time>2015-05-12T12:55:09.000Z</time>
      </trkpt>
      <trkpt lat="50.8225" lon="1.9182">
        <ele>77</ele>
        <time>2015-05-12T12:55:10.000Z</time>
      </trkpt>
      <trkpt lat="50.82249" lon="1.91821">
        <ele>77</ele>
        <time>2015-05-12T12:55:11.000Z</time>
      </trkpt>
      <trkpt lat="50.82248" lon="1.91822">
        <ele>77</ele>
        <time>2015-05-12T12:55:12.000Z</time>
      </trkpt>
      <trkpt lat="50.82247" lon="1.91823">
        <ele>77</ele>
        <time>2015-05-12T12:55:13.000Z</time>
      </trkpt>
      <trkpt lat="50.82246" lon="1.91824">
        <ele>77</ele>
        <time>2015-05-12T12:55:14.000Z</time>
      </trkpt>
      <trkpt lat="50.82245" lon="1.91826">
        <ele>77</ele>
        <time>2015-05-12T12:55:15.000Z</time>
      </trkpt>
      <trkpt lat="50.82244" lon="1.91827">
        <ele>78</ele>
        <time>2015-05-12T12:55:16.000Z</time>
      </trkpt>
      <trkpt lat="50.82244" lon="1.91828">
        <ele>78</ele>
        <time>2015-05-12T12:55:17.000Z</time>
      </trkpt>
      <trkpt lat="50.82243" lon="1.91829">
        <ele>78</ele>
        <time>2015-05-12T12:55:18.000Z</time>
      </trkpt>
      <trkpt lat="50.82242" lon="1.9183">
        <ele>78</ele>
        <time>2015-05-12T12:55:19.000Z</time>
      </trkpt>
      <trkpt lat="50.82241" lon="1.91831">
        <ele>78</ele>
        <time>2015-05-12T12:55:20.000Z</time>
      </trkpt>
      <trkpt lat="50.8224" lon="1.91832">
        <ele>78</ele>
        <time>2015-05-12T12:55:21.000Z</time>
      </trkpt>
      <trkpt lat="50.82239" lon="1.91833">
        <ele>78</ele>
        <time>2015-05-12T12:55:22.000Z</time>
      </trkpt>
      <trkpt lat="50.82238" lon="1.91834">
        <ele>79</ele>
        <time>2015-05-12T12:55:23.000Z</time>
      </trkpt>
      <trkpt lat="50.82237" lon="1.91835">
        <ele>79</ele>
        <time>2015-05-12T12:55:24.000Z</time>
      </trkpt>
      <trkpt lat="50.82236" lon="1.91836">
        <ele>79</ele>
        <time>2015-05-12T12:55:25.000Z</time>
      </trkpt>
      <trkpt lat="50.82235" lon="1.91838">
        <ele>79</ele>
        <time>2015-05-12T12:55:26.000Z</time>
      </trkpt>
      <trkpt lat="50.82235" lon="1.91839">
        <ele>79</ele>
        <time>2015-05-12T12:55:27.000Z</time>
      </trkpt>
      <trkpt lat="50.82234" lon="1.9184">
        <ele>80</ele>
        <time>2015-05-12T12:55:28.000Z</time>
      </trkpt>
      <trkpt lat="50.82233" lon="1.91841">
        <ele>80</ele>
        <time>2015-05-12T12:55:29.000Z</time>
      </trkpt>
      <trkpt lat="50.82232" lon="1.91842">
        <ele>80</ele>
        <time>2015-05-12T12:55:30.000Z</time>
      </trkpt>
      <trkpt lat="50.82231" lon="1.91843">
        <ele>80</ele>
        <time>2015-05-12T12:55:31.000Z</time>
      </trkpt>
      <trkpt lat="50.8223" lon="1.91844">
        <ele>80</ele>
        <time>2015-05-12T12:55:32.000Z</time>
      </trkpt>
      <trkpt lat="50.8223" lon="1.91845">
        <ele>80</ele>
        <time>2015-05-12T12:55:33.000Z</time>
      </trkpt>
      <trkpt lat="50.82229" lon="1.91846">
        <ele>80</ele>
        <time>2015-05-12T12:55:34.000Z</time>
      </trkpt>
      <trkpt lat="50.82228" lon="1.91847">
        <ele>80</ele>
        <time>2015-05-12T12:55:35.000Z</time>
      </trkpt>
      <trkpt lat="50.82227" lon="1.91848">
        <ele>80</ele>
        <time>2015-05-12T12:55:36.000Z</time>
      </trkpt>
      <trkpt lat="50.82227" lon="1.91848">
        <ele>80</ele>
        <time>2015-05-12T12:55:37.000Z</time>
      </trkpt>
      <trkpt lat="50.82226" lon="1.91849">
        <ele>80</ele>
        <time>2015-05-12T12:55:38.000Z</time>
      </trkpt>
      <trkpt lat="50.82225" lon="1.9185">
        <ele>80</ele>
        <time>2015-05-12T12:55:39.000Z</time>
      </trkpt>
      <trkpt lat="50.82225" lon="1.91851">
        <ele>80</ele>
        <time>2015-05-12T12:55:40.000Z</time>
      </trkpt>
      <trkpt lat="50.82224" lon="1.91852">
        <ele>81</ele>
        <time>2015-05-12T12:55:41.000Z</time>
      </trkpt>
      <trkpt lat="50.82223" lon="1.91853">
        <ele>81</ele>
        <time>2015-05-12T12:55:42.000Z</time>
      </trkpt>
      <trkpt lat="50.82222" lon="1.91854">
        <ele>80</ele>
        <time>2015-05-12T12:55:43.000Z</time>
      </trkpt>
      <trkpt lat="50.82221" lon="1.91855">
        <ele>80</ele>
        <time>2015-05-12T12:55:44.000Z</time>
      </trkpt>
      <trkpt lat="50.82221" lon="1.91856">
        <ele>80</ele>
        <time>2015-05-12T12:55:45.000Z</time>
      </trkpt>
      <trkpt lat="50.8222" lon="1.91857">
        <ele>80</ele>
        <time>2015-05-12T12:55:46.000Z</time>
      </trkpt>
      <trkpt lat="50.82219" lon="1.91857">
        <ele>80</ele>
        <time>2015-05-12T12:55:47.000Z</time>
      </trkpt>
      <trkpt lat="50.82218" lon="1.91858">
        <ele>81</ele>
        <time>2015-05-12T12:55:48.000Z</time>
      </trkpt>
      <trkpt lat="50.82217" lon="1.9186">
        <ele>81</ele>
        <time>2015-05-12T12:55:49.000Z</time>
      </trkpt>
      <trkpt lat="50.82216" lon="1.91861">
        <ele>80</ele>
        <time>2015-05-12T12:55:50.000Z</time>
      </trkpt>
      <trkpt lat="50.82215" lon="1.91862">
        <ele>81</ele>
        <time>2015-05-12T12:55:51.000Z</time>
      </trkpt>
      <trkpt lat="50.82215" lon="1.91863">
        <ele>81</ele>
        <time>2015-05-12T12:55:52.000Z</time>
      </trkpt>
      <trkpt lat="50.82214" lon="1.91864">
        <ele>80</ele>
        <time>2015-05-12T12:55:53.000Z</time>
      </trkpt>
      <trkpt lat="50.82213" lon="1.91864">
        <ele>80</ele>
        <time>2015-05-12T12:55:54.000Z</time>
      </trkpt>
      <trkpt lat="50.82212" lon="1.91865">
        <ele>80</ele>
        <time>2015-05-12T12:55:55.000Z</time>
      </trkpt>
      <trkpt lat="50.82211" lon="1.91866">
        <ele>81</ele>
        <time>2015-05-12T12:55:56.000Z</time>
      </trkpt>
      <trkpt lat="50.8221" lon="1.91867">
        <ele>81</ele>
        <time>2015-05-12T12:55:57.000Z</time>
      </trkpt>
      <trkpt lat="50.82209" lon="1.91868">
        <ele>81</ele>
        <time>2015-05-12T12:55:58.000Z</time>
      </trkpt>
      <trkpt lat="50.82209" lon="1.91869">
        <ele>81</ele>
        <time>2015-05-12T12:55:59.000Z</time>
      </trkpt>
      <trkpt lat="50.82208" lon="1.9187">
        <ele>81</ele>
        <time>2015-05-12T12:56:00.000Z</time>
      </trkpt>
      <trkpt lat="50.82207" lon="1.91871">
        <ele>81</ele>
        <time>2015-05-12T12:56:01.000Z</time>
      </trkpt>
      <trkpt lat="50.82206" lon="1.91872">
        <ele>81</ele>
        <time>2015-05-12T12:56:02.000Z</time>
      </trkpt>
      <trkpt lat="50.82205" lon="1.91873">
        <ele>81</ele>
        <time>2015-05-12T12:56:03.000Z</time>
      </trkpt>
      <trkpt lat="50.82204" lon="1.91874">
        <ele>81</ele>
        <time>2015-05-12T12:56:04.000Z</time>
      </trkpt>
      <trkpt lat="50.82203" lon="1.91875">
        <ele>81</ele>
        <time>2015-05-12T12:56:05.000Z</time>
      </trkpt>
      <trkpt lat="50.82203" lon="1.91876">
        <ele>81</ele>
        <time>2015-05-12T12:56:06.000Z</time>
      </trkpt>
      <trkpt lat="50.82202" lon="1.91878">
        <ele>82</ele>
        <time>2015-05-12T12:56:07.000Z</time>
      </trkpt>
      <trkpt lat="50.82201" lon="1.91879">
        <ele>81</ele>
        <time>2015-05-12T12:56:08.000Z</time>
      </trkpt>
      <trkpt lat="50.822" lon="1.9188">
        <ele>82</ele>
        <time>2015-05-12T12:56:09.000Z</time>
      </trkpt>
      <trkpt lat="50.82199" lon="1.91881">
        <ele>82</ele>
        <time>2015-05-12T12:56:10.000Z</time>
      </trkpt>
      <trkpt lat="50.82198" lon="1.91882">
        <ele>82</ele>
        <time>2015-05-12T12:56:11.000Z</time>
      </trkpt>
      <trkpt lat="50.82197" lon="1.91882">
        <ele>82</ele>
        <time>2015-05-12T12:56:12.000Z</time>
      </trkpt>
      <trkpt lat="50.82196" lon="1.91883">
        <ele>82</ele>
        <time>2015-05-12T12:56:13.000Z</time>
      </trkpt>
      <trkpt lat="50.82195" lon="1.91884">
        <ele>82</ele>
        <time>2015-05-12T12:56:14.000Z</time>
      </trkpt>
      <trkpt lat="50.82194" lon="1.91885">
        <ele>82</ele>
        <time>2015-05-12T12:56:15.000Z</time>
      </trkpt>
      <trkpt lat="50.82194" lon="1.91886">
        <ele>82</ele>
        <time>2015-05-12T12:56:16.000Z</time>
      </trkpt>
      <trkpt lat="50.82193" lon="1.91887">
        <ele>82</ele>
        <time>2015-05-12T12:56:17.000Z</time>
      </trkpt>
      <trkpt lat="50.82192" lon="1.91888">
        <ele>82</ele>
        <time>2015-05-12T12:56:18.000Z</time>
      </trkpt>
      <trkpt lat="50.82191" lon="1.91889">
        <ele>82</ele>
        <time>2015-05-12T12:56:19.000Z</time>
      </trkpt>
      <trkpt lat="50.8219" lon="1.9189">
        <ele>82</ele>
        <time>2015-05-12T12:56:20.000Z</time>
      </trkpt>
      <trkpt lat="50.82189" lon="1.91891">
        <ele>82</ele>
        <time>2015-05-12T12:56:21.000Z</time>
      </trkpt>
      <trkpt lat="50.82188" lon="1.91893">
        <ele>82</ele>
        <time>2015-05-12T12:56:22.000Z</time>
      </trkpt>
      <trkpt lat="50.82187" lon="1.91894">
        <ele>82</ele>
        <time>2015-05-12T12:56:23.000Z</time>
      </trkpt>
      <trkpt lat="50.82187" lon="1.91895">
        <ele>82</ele>
        <time>2015-05-12T12:56:24.000Z</time>
      </trkpt>
      <trkpt lat="50.82186" lon="1.91895">
        <ele>82</ele>
        <time>2015-05-12T12:56:25.000Z</time>
      </trkpt>
      <trkpt lat="50.82185" lon="1.91896">
        <ele>82</ele>
        <time>2015-05-12T12:56:26.000Z</time>
      </trkpt>
      <trkpt lat="50.82185" lon="1.91895">
        <ele>82</ele>
        <time>2015-05-12T12:56:27.000Z</time>
      </trkpt>
      <trkpt lat="50.82184" lon="1.91895">
        <ele>82</ele>
        <time>2015-05-12T12:56:28.000Z</time>
      </trkpt>
      <trkpt lat="50.82184" lon="1.91895">
        <ele>82</ele>
        <time>2015-05-12T12:56:29.000Z</time>
      </trkpt>
      <trkpt lat="50.82183" lon="1.91895">
        <ele>82</ele>
        <time>2015-05-12T12:56:30.000Z</time>
      </trkpt>
      <trkpt lat="50.82183" lon="1.91896">
        <ele>82</ele>
        <time>2015-05-12T12:56:31.000Z</time>
      </trkpt>
      <trkpt lat="50.82182" lon="1.91897">
        <ele>82</ele>
        <time>2015-05-12T12:56:32.000Z</time>
      </trkpt>
      <trkpt lat="50.82182" lon="1.91897">
        <ele>82</ele>
        <time>2015-05-12T12:56:33.000Z</time>
      </trkpt>
      <trkpt lat="50.82181" lon="1.91898">
        <ele>82</ele>
        <time>2015-05-12T12:56:34.000Z</time>
      </trkpt>
      <trkpt lat="50.8218" lon="1.91899">
        <ele>82</ele>
        <time>2015-05-12T12:56:35.000Z</time>
      </trkpt>
      <trkpt lat="50.8218" lon="1.919">
        <ele>82</ele>
        <time>2015-05-12T12:56:36.000Z</time>
      </trkpt>
      <trkpt lat="50.82179" lon="1.919">
        <ele>83</ele>
        <time>2015-05-12T12:56:37.000Z</time>
      </trkpt>
      <trkpt lat="50.82179" lon="1.91901">
        <ele>83</ele>
        <time>2015-05-12T12:56:38.000Z</time>
      </trkpt>
      <trkpt lat="50.82178" lon="1.91901">
        <ele>82</ele>
        <time>2015-05-12T12:56:39.000Z</time>
      </trkpt>
      <trkpt lat="50.82178" lon="1.91901">
        <ele>82</ele>
        <time>2015-05-12T12:56:40.000Z</time>
      </trkpt>
      <trkpt lat="50.82178" lon="1.91901">
        <ele>82</ele>
        <time>2015-05-12T12:56:41.000Z</time>
      </trkpt>
      <trkpt lat="50.82178" lon="1.91901">
        <ele>82</ele>
        <time>2015-05-12T12:56:42.000Z</time>
      </trkpt>
      <trkpt lat="50.82178" lon="1.91901">
        <ele>82</ele>
        <time>2015-05-12T12:56:43.000Z</time>
      </trkpt>
      <trkpt lat="50.82178" lon="1.91902">
        <ele>82</ele>
        <time>2015-05-12T12:56:44.000Z</time>
      </trkpt>
      <trkpt lat="50.82178" lon="1.91902">
        <ele>82</ele>
        <time>2015-05-12T12:56:45.000Z</time>
      </trkpt>
      <trkpt lat="50.82178" lon="1.91902">
        <ele>82</ele>
        <time>2015-05-12T12:56:46.000Z</time>
      </trkpt>
      <trkpt lat="50.82178" lon="1.91902">
        <ele>82</ele>
        <time>2015-05-12T12:56:47.000Z</time>
      </trkpt>
      <trkpt lat="50.82177" lon="1.91902">
        <ele>81</ele>
        <time>2015-05-12T12:56:48.000Z</time>
      </trkpt>
      <trkpt lat="50.82177" lon="1.91903">
        <ele>81</ele>
        <time>2015-05-12T12:56:49.000Z</time>
      </trkpt>
      <trkpt lat="50.82177" lon="1.91904">
        <ele>81</ele>
        <time>2015-05-12T12:56:50.000Z</time>
      </trkpt>
      <trkpt lat="50.82176" lon="1.91905">
        <ele>82</ele>
        <time>2015-05-12T12:56:51.000Z</time>
      </trkpt>
      <trkpt lat="50.82176" lon="1.91906">
        <ele>81</ele>
        <time>2015-05-12T12:56:52.000Z</time>
      </trkpt>
      <trkpt lat="50.82175" lon="1.91907">
        <ele>81</ele>
        <time>2015-05-12T12:56:53.000Z</time>
      </trkpt>
      <trkpt lat="50.82174" lon="1.91908">
        <ele>81</ele>
        <time>2015-05-12T12:56:54.000Z</time>
      </trkpt>
      <trkpt lat="50.82173" lon="1.91909">
        <ele>82</ele>
        <time>2015-05-12T12:56:55.000Z</time>
      </trkpt>
      <trkpt lat="50.82172" lon="1.9191">
        <ele>82</ele>
        <time>2015-05-12T12:56:56.000Z</time>
      </trkpt>
      <trkpt lat="50.82171" lon="1.91911">
        <ele>82</ele>
        <time>2015-05-12T12:56:57.000Z</time>
      </trkpt>
      <trkpt lat="50.8217" lon="1.91912">
        <ele>82</ele>
        <time>2015-05-12T12:56:58.000Z</time>
      </trkpt>
      <trkpt lat="50.8217" lon="1.91913">
        <ele>82</ele>
        <time>2015-05-12T12:56:59.000Z</time>
      </trkpt>
      <trkpt lat="50.82169" lon="1.91914">
        <ele>82</ele>
        <time>2015-05-12T12:57:00.000Z</time>
      </trkpt>
      <trkpt lat="50.82168" lon="1.91916">
        <ele>82</ele>
        <time>2015-05-12T12:57:01.000Z</time>
      </trkpt>
      <trkpt lat="50.82167" lon="1.91917">
        <ele>83</ele>
        <time>2015-05-12T12:57:02.000Z</time>
      </trkpt>
      <trkpt lat="50.82166" lon="1.91918">
        <ele>82</ele>
        <time>2015-05-12T12:57:03.000Z</time>
      </trkpt>
      <trkpt lat="50.82165" lon="1.91919">
        <ele>82</ele>
        <time>2015-05-12T12:57:04.000Z</time>
      </trkpt>
      <trkpt lat="50.82165" lon="1.9192">
        <ele>83</ele>
        <time>2015-05-12T12:57:05.000Z</time>
      </trkpt>
      <trkpt lat="50.82164" lon="1.91921">
        <ele>83</ele>
        <time>2015-05-12T12:57:06.000Z</time>
      </trkpt>
      <trkpt lat="50.82164" lon="1.91922">
        <ele>83</ele>
        <time>2015-05-12T12:57:07.000Z</time>
      </trkpt>
      <trkpt lat="50.82163" lon="1.91923">
        <ele>84</ele>
        <time>2015-05-12T12:57:08.000Z</time>
      </trkpt>
      <trkpt lat="50.82162" lon="1.91924">
        <ele>84</ele>
        <time>2015-05-12T12:57:09.000Z</time>
      </trkpt>
      <trkpt lat="50.82161" lon="1.91925">
        <ele>85</ele>
        <time>2015-05-12T12:57:10.000Z</time>
      </trkpt>
      <trkpt lat="50.8216" lon="1.91926">
        <ele>85</ele>
        <time>2015-05-12T12:57:11.000Z</time>
      </trkpt>
      <trkpt lat="50.8216" lon="1.91927">
        <ele>85</ele>
        <time>2015-05-12T12:57:12.000Z</time>
      </trkpt>
      <trkpt lat="50.82159" lon="1.91928">
        <ele>85</ele>
        <time>2015-05-12T12:57:13.000Z</time>
      </trkpt>
      <trkpt lat="50.82158" lon="1.91929">
        <ele>86</ele>
        <time>2015-05-12T12:57:14.000Z</time>
      </trkpt>
      <trkpt lat="50.82157" lon="1.9193">
        <ele>86</ele>
        <time>2015-05-12T12:57:15.000Z</time>
      </trkpt>
      <trkpt lat="50.82156" lon="1.91931">
        <ele>86</ele>
        <time>2015-05-12T12:57:16.000Z</time>
      </trkpt>
      <trkpt lat="50.82156" lon="1.91932">
        <ele>86</ele>
        <time>2015-05-12T12:57:17.000Z</time>
      </trkpt>
      <trkpt lat="50.82155" lon="1.91933">
        <ele>86</ele>
        <time>2015-05-12T12:57:18.000Z</time>
      </trkpt>
      <trkpt lat="50.82154" lon="1.91934">
        <ele>86</ele>
        <time>2015-05-12T12:57:19.000Z</time>
      </trkpt>
      <trkpt lat="50.82153" lon="1.91935">
        <ele>87</ele>
        <time>2015-05-12T12:57:20.000Z</time>
      </trkpt>
      <trkpt lat="50.82153" lon="1.91936">
        <ele>87</ele>
        <time>2015-05-12T12:57:21.000Z</time>
      </trkpt>
      <trkpt lat="50.82152" lon="1.91937">
        <ele>86</ele>
        <time>2015-05-12T12:57:22.000Z</time>
      </trkpt>
      <trkpt lat="50.82151" lon="1.91938">
        <ele>86</ele>
        <time>2015-05-12T12:57:23.000Z</time>
      </trkpt>
      <trkpt lat="50.82149" lon="1.91939">
        <ele>86</ele>
        <time>2015-05-12T12:57:24.000Z</time>
      </trkpt>
      <trkpt lat="50.82148" lon="1.9194">
        <ele>86</ele>
        <time>2015-05-12T12:57:25.000Z</time>
      </trkpt>
      <trkpt lat="50.82148" lon="1.91941">
        <ele>86</ele>
        <time>2015-05-12T12:57:26.000Z</time>
      </trkpt>
      <trkpt lat="50.82147" lon="1.91942">
        <ele>87</ele>
        <time>2015-05-12T12:57:27.000Z</time>
      </trkpt>
      <trkpt lat="50.82146" lon="1.91943">
        <ele>87</ele>
        <time>2015-05-12T12:57:28.000Z</time>
      </trkpt>
      <trkpt lat="50.82145" lon="1.91943">
        <ele>87</ele>
        <time>2015-05-12T12:57:29.000Z</time>
      </trkpt>
      <trkpt lat="50.82144" lon="1.91944">
        <ele>87</ele>
        <time>2015-05-12T12:57:30.000Z</time>
      </trkpt>
      <trkpt lat="50.82144" lon="1.91945">
        <ele>87</ele>
        <time>2015-05-12T12:57:31.000Z</time>
      </trkpt>
      <trkpt lat="50.82143" lon="1.91946">
        <ele>87</ele>
        <time>2015-05-12T12:57:32.000Z</time>
      </trkpt>
      <trkpt lat="50.82143" lon="1.91947">
        <ele>88</ele>
        <time>2015-05-12T12:57:33.000Z</time>
      </trkpt>
      <trkpt lat="50.82142" lon="1.91948">
        <ele>88</ele>
        <time>2015-05-12T12:57:34.000Z</time>
      </trkpt>
      <trkpt lat="50.82141" lon="1.91949">
        <ele>88</ele>
        <time>2015-05-12T12:57:35.000Z</time>
      </trkpt>
      <trkpt lat="50.8214" lon="1.9195">
        <ele>88</ele>
        <time>2015-05-12T12:57:36.000Z</time>
      </trkpt>
      <trkpt lat="50.8214" lon="1.91951">
        <ele>89</ele>
        <time>2015-05-12T12:57:37.000Z</time>
      </trkpt>
      <trkpt lat="50.82139" lon="1.91952">
        <ele>89</ele>
        <time>2015-05-12T12:57:38.000Z</time>
      </trkpt>
      <trkpt lat="50.82139" lon="1.91953">
        <ele>90</ele>
        <time>2015-05-12T12:57:39.000Z</time>
      </trkpt>
      <trkpt lat="50.82138" lon="1.91954">
        <ele>89</ele>
        <time>2015-05-12T12:57:40.000Z</time>
      </trkpt>
      <trkpt lat="50.82137" lon="1.91954">
        <ele>90</ele>
        <time>2015-05-12T12:57:41.000Z</time>
      </trkpt>
      <trkpt lat="50.82136" lon="1.91955">
        <ele>90</ele>
        <time>2015-05-12T12:57:42.000Z</time>
      </trkpt>
      <trkpt lat="50.82136" lon="1.91956">
        <ele>90</ele>
        <time>2015-05-12T12:57:43.000Z</time>
      </trkpt>
      <trkpt lat="50.82135" lon="1.91957">
        <ele>90</ele>
        <time>2015-05-12T12:57:44.000Z</time>
      </trkpt>
      <trkpt lat="50.82135" lon="1.91958">
        <ele>90</ele>
        <time>2015-05-12T12:57:45.000Z</time>
      </trkpt>
      <trkpt lat="50.82134" lon="1.9196">
        <ele>90</ele>
        <time>2015-05-12T12:57:46.000Z</time>
      </trkpt>
      <trkpt lat="50.82134" lon="1.9196">
        <ele>91</ele>
        <time>2015-05-12T12:57:47.000Z</time>
      </trkpt>
      <trkpt lat="50.82134" lon="1.91961">
        <ele>91</ele>
        <time>2015-05-12T12:57:48.000Z</time>
      </trkpt>
      <trkpt lat="50.82133" lon="1.91962">
        <ele>91</ele>
        <time>2015-05-12T12:57:49.000Z</time>
      </trkpt>
      <trkpt lat="50.82133" lon="1.91963">
        <ele>91</ele>
        <time>2015-05-12T12:57:50.000Z</time>
      </trkpt>
      <trkpt lat="50.82133" lon="1.91963">
        <ele>91</ele>
        <time>2015-05-12T12:57:51.000Z</time>
      </trkpt>
      <trkpt lat="50.82132" lon="1.91964">
        <ele>91</ele>
        <time>2015-05-12T12:57:52.000Z</time>
      </trkpt>
      <trkpt lat="50.82131" lon="1.91965">
        <ele>91</ele>
        <time>2015-05-12T12:57:53.000Z</time>
      </trkpt>
      <trkpt lat="50.8213" lon="1.91965">
        <ele>91</ele>
        <time>2015-05-12T12:57:54.000Z</time>
      </trkpt>
      <trkpt lat="50.82129" lon="1.91965">
        <ele>91</ele>
        <time>2015-05-12T12:57:55.000Z</time>
      </trkpt>
      <trkpt lat="50.82128" lon="1.91966">
        <ele>91</ele>
        <time>2015-05-12T12:57:56.000Z</time>
      </trkpt>
      <trkpt lat="50.82128" lon="1.91967">
        <ele>91</ele>
        <time>2015-05-12T12:57:57.000Z</time>
      </trkpt>
      <trkpt lat="50.82127" lon="1.91968">
        <ele>92</ele>
        <time>2015-05-12T12:57:58.000Z</time>
      </trkpt>
      <trkpt lat="50.82126" lon="1.91968">
        <ele>92</ele>
        <time>2015-05-12T12:57:59.000Z</time>
      </trkpt>
      <trkpt lat="50.82125" lon="1.91969">
        <ele>93</ele>
        <time>2015-05-12T12:58:00.000Z</time>
      </trkpt>
      <trkpt lat="50.82124" lon="1.9197">
        <ele>93</ele>
        <time>2015-05-12T12:58:01.000Z</time>
      </trkpt>
      <trkpt lat="50.82123" lon="1.91971">
        <ele>92</ele>
        <time>2015-05-12T12:58:02.000Z</time>
      </trkpt>
      <trkpt lat="50.82123" lon="1.91972">
        <ele>92</ele>
        <time>2015-05-12T12:58:03.000Z</time>
      </trkpt>
      <trkpt lat="50.82122" lon="1.91973">
        <ele>92</ele>
        <time>2015-05-12T12:58:04.000Z</time>
      </trkpt>
      <trkpt lat="50.82121" lon="1.91974">
        <ele>93</ele>
        <time>2015-05-12T12:58:05.000Z</time>
      </trkpt>
      <trkpt lat="50.8212" lon="1.91975">
        <ele>94</ele>
        <time>2015-05-12T12:58:06.000Z</time>
      </trkpt>
      <trkpt lat="50.82119" lon="1.91976">
        <ele>94</ele>
        <time>2015-05-12T12:58:07.000Z</time>
      </trkpt>
      <trkpt lat="50.82119" lon="1.91977">
        <ele>95</ele>
        <time>2015-05-12T12:58:08.000Z</time>
      </trkpt>
      <trkpt lat="50.82118" lon="1.91978">
        <ele>95</ele>
        <time>2015-05-12T12:58:09.000Z</time>
      </trkpt>
      <trkpt lat="50.82118" lon="1.91979">
        <ele>95</ele>
        <time>2015-05-12T12:58:10.000Z</time>
      </trkpt>
      <trkpt lat="50.82117" lon="1.91981">
        <ele>96</ele>
        <time>2015-05-12T12:58:11.000Z</time>
      </trkpt>
      <trkpt lat="50.82117" lon="1.91982">
        <ele>96</ele>
        <time>2015-05-12T12:58:12.000Z</time>
      </trkpt>
      <trkpt lat="50.82116" lon="1.91983">
        <ele>97</ele>
        <time>2015-05-12T12:58:13.000Z</time>
      </trkpt>
      <trkpt lat="50.82115" lon="1.91984">
        <ele>97</ele>
        <time>2015-05-12T12:58:14.000Z</time>
      </trkpt>
      <trkpt lat="50.82114" lon="1.91985">
        <ele>97</ele>
        <time>2015-05-12T12:58:15.000Z</time>
      </trkpt>
      <trkpt lat="50.82114" lon="1.91986">
        <ele>97</ele>
        <time>2015-05-12T12:58:16.000Z</time>
      </trkpt>
      <trkpt lat="50.82113" lon="1.91987">
        <ele>98</ele>
        <time>2015-05-12T12:58:17.000Z</time>
      </trkpt>
      <trkpt lat="50.82112" lon="1.91988">
        <ele>98</ele>
        <time>2015-05-12T12:58:18.000Z</time>
      </trkpt>
      <trkpt lat="50.82111" lon="1.91989">
        <ele>98</ele>
        <time>2015-05-12T12:58:19.000Z</time>
      </trkpt>
      <trkpt lat="50.8211" lon="1.91991">
        <ele>98</ele>
        <time>2015-05-12T12:58:20.000Z</time>
      </trkpt>
      <trkpt lat="50.82109" lon="1.91992">
        <ele>98</ele>
        <time>2015-05-12T12:58:21.000Z</time>
      </trkpt>
      <trkpt lat="50.82109" lon="1.91992">
        <ele>98</ele>
        <time>2015-05-12T12:58:22.000Z</time>
      </trkpt>
      <trkpt lat="50.82108" lon="1.91993">
        <ele>98</ele>
        <time>2015-05-12T12:58:23.000Z</time>
      </trkpt>
      <trkpt lat="50.82107" lon="1.91994">
        <ele>98</ele>
        <time>2015-05-12T12:58:24.000Z</time>
      </trkpt>
      <trkpt lat="50.82106" lon="1.91995">
        <ele>98</ele>
        <time>2015-05-12T12:58:25.000Z</time>
      </trkpt>
      <trkpt lat="50.82105" lon="1.91996">
        <ele>98</ele>
        <time>2015-05-12T12:58:26.000Z</time>
      </trkpt>
      <trkpt lat="50.82104" lon="1.91997">
        <ele>98</ele>
        <time>2015-05-12T12:58:27.000Z</time>
      </trkpt>
      <trkpt lat="50.82103" lon="1.91998">
        <ele>98</ele>
        <time>2015-05-12T12:58:28.000Z</time>
      </trkpt>
      <trkpt lat="50.82102" lon="1.91999">
        <ele>98</ele>
        <time>2015-05-12T12:58:29.000Z</time>
      </trkpt>
      <trkpt lat="50.82101" lon="1.92">
        <ele>98</ele>
        <time>2015-05-12T12:58:30.000Z</time>
      </trkpt>
      <trkpt lat="50.821" lon="1.92002">
        <ele>98</ele>
        <time>2015-05-12T12:58:31.000Z</time>
      </trkpt>
      <trkpt lat="50.82099" lon="1.92003">
        <ele>98</ele>
        <time>2015-05-12T12:58:32.000Z</time>
      </trkpt>
      <trkpt lat="50.82098" lon="1.92004">
        <ele>97</ele>
        <time>2015-05-12T12:58:33.000Z</time>
      </trkpt>
      <trkpt lat="50.82097" lon="1.92006">
        <ele>97</ele>
        <time>2015-05-12T12:58:34.000Z</time>
      </trkpt>
      <trkpt lat="50.82097" lon="1.92007">
        <ele>97</ele>
        <time>2015-05-12T12:58:35.000Z</time>
      </trkpt>
      <trkpt lat="50.82096" lon="1.92008">
        <ele>97</ele>
        <time>2015-05-12T12:58:36.000Z</time>
      </trkpt>
      <trkpt lat="50.82095" lon="1.92009">
        <ele>97</ele>
        <time>2015-05-12T12:58:37.000Z</time>
      </trkpt>
      <trkpt lat="50.82094" lon="1.9201">
        <ele>97</ele>
        <time>2015-05-12T12:58:38.000Z</time>
      </trkpt>
      <trkpt lat="50.82094" lon="1.92011">
        <ele>97</ele>
        <time>2015-05-12T12:58:39.000Z</time>
      </trkpt>
      <trkpt lat="50.82093" lon="1.92012">
        <ele>97</ele>
        <time>2015-05-12T12:58:40.000Z</time>
      </trkpt>
      <trkpt lat="50.82092" lon="1.92013">
        <ele>97</ele>
        <time>2015-05-12T12:58:41.000Z</time>
      </trkpt>
      <trkpt lat="50.82091" lon="1.92014">
        <ele>97</ele>
        <time>2015-05-12T12:58:42.000Z</time>
      </trkpt>
      <trkpt lat="50.8209" lon="1.92015">
        <ele>97</ele>
        <time>2015-05-12T12:58:43.000Z</time>
      </trkpt>
      <trkpt lat="50.82089" lon="1.92016">
        <ele>96</ele>
        <time>2015-05-12T12:58:44.000Z</time>
      </trkpt>
      <trkpt lat="50.82088" lon="1.92017">
        <ele>96</ele>
        <time>2015-05-12T12:58:45.000Z</time>
      </trkpt>
      <trkpt lat="50.82088" lon="1.92018">
        <ele>97</ele>
        <time>2015-05-12T12:58:46.000Z</time>
      </trkpt>
      <trkpt lat="50.82087" lon="1.92019">
        <ele>97</ele>
        <time>2015-05-12T12:58:47.000Z</time>
      </trkpt>
      <trkpt lat="50.82086" lon="1.9202">
        <ele>97</ele>
        <time>2015-05-12T12:58:48.000Z</time>
      </trkpt>
      <trkpt lat="50.82086" lon="1.92021">
        <ele>97</ele>
        <time>2015-05-12T12:58:49.000Z</time>
      </trkpt>
      <trkpt lat="50.82086" lon="1.92021">
        <ele>98</ele>
        <time>2015-05-12T12:58:50.000Z</time>
      </trkpt>
      <trkpt lat="50.82085" lon="1.92022">
        <ele>98</ele>
        <time>2015-05-12T12:58:51.000Z</time>
      </trkpt>
      <trkpt lat="50.82084" lon="1.92022">
        <ele>97</ele>
        <time>2015-05-12T12:58:52.000Z</time>
      </trkpt>
      <trkpt lat="50.82084" lon="1.92022">
        <ele>98</ele>
        <time>2015-05-12T12:58:53.000Z</time>
      </trkpt>
      <trkpt lat="50.82084" lon="1.92022">
        <ele>98</ele>
        <time>2015-05-12T12:58:54.000Z</time>
      </trkpt>
      <trkpt lat="50.82084" lon="1.92022">
        <ele>98</ele>
        <time>2015-05-12T12:58:55.000Z</time>
      </trkpt>
      <trkpt lat="50.82084" lon="1.92022">
        <ele>99</ele>
        <time>2015-05-12T12:58:56.000Z</time>
      </trkpt>
      <trkpt lat="50.82084" lon="1.92022">
        <ele>99</ele>
        <time>2015-05-12T12:58:57.000Z</time>
      </trkpt>
      <trkpt lat="50.82084" lon="1.92023">
        <ele>99</ele>
        <time>2015-05-12T12:58:58.000Z</time>
      </trkpt>
      <trkpt lat="50.82084" lon="1.92022">
        <ele>99</ele>
        <time>2015-05-12T12:58:59.000Z</time>
      </trkpt>
      <trkpt lat="50.82084" lon="1.92022">
        <ele>99</ele>
        <time>2015-05-12T12:59:00.000Z</time>
      </trkpt>
      <trkpt lat="50.82084" lon="1.92022">
        <ele>100</ele>
        <time>2015-05-12T12:59:01.000Z</time>
      </trkpt>
      <trkpt lat="50.82084" lon="1.92022">
        <ele>100</ele>
        <time>2015-05-12T12:59:02.000Z</time>
      </trkpt>
      <trkpt lat="50.82084" lon="1.92021">
        <ele>100</ele>
        <time>2015-05-12T12:59:03.000Z</time>
      </trkpt>
      <trkpt lat="50.82084" lon="1.92021">
        <ele>100</ele>
        <time>2015-05-12T12:59:04.000Z</time>
      </trkpt>
      <trkpt lat="50.82084" lon="1.92021">
        <ele>100</ele>
        <time>2015-05-12T12:59:05.000Z</time>
      </trkpt>
      <trkpt lat="50.82084" lon="1.92021">
        <ele>100</ele>
        <time>2015-05-12T12:59:06.000Z</time>
      </trkpt>
      <trkpt lat="50.82084" lon="1.92021">
        <ele>101</ele>
        <time>2015-05-12T12:59:07.000Z</time>
      </trkpt>
      <trkpt lat="50.82084" lon="1.92021">
        <ele>101</ele>
        <time>2015-05-12T12:59:08.000Z</time>
      </trkpt>
      <trkpt lat="50.82083" lon="1.92021">
        <ele>101</ele>
        <time>2015-05-12T12:59:09.000Z</time>
      </trkpt>
      <trkpt lat="50.82083" lon="1.92021">
        <ele>101</ele>
        <time>2015-05-12T12:59:10.000Z</time>
      </trkpt>
      <trkpt lat="50.82083" lon="1.92022">
        <ele>101</ele>
        <time>2015-05-12T12:59:11.000Z</time>
      </trkpt>
      <trkpt lat="50.82083" lon="1.92022">
        <ele>101</ele>
        <time>2015-05-12T12:59:12.000Z</time>
      </trkpt>
      <trkpt lat="50.82083" lon="1.92022">
        <ele>101</ele>
        <time>2015-05-12T12:59:13.000Z</time>
      </trkpt>
      <trkpt lat="50.82083" lon="1.92022">
        <ele>101</ele>
        <time>2015-05-12T12:59:14.000Z</time>
      </trkpt>
      <trkpt lat="50.82082" lon="1.92023">
        <ele>100</ele>
        <time>2015-05-12T12:59:15.000Z</time>
      </trkpt>
      <trkpt lat="50.82082" lon="1.92024">
        <ele>100</ele>
        <time>2015-05-12T12:59:16.000Z</time>
      </trkpt>
      <trkpt lat="50.82082" lon="1.92024">
        <ele>99</ele>
        <time>2015-05-12T12:59:17.000Z</time>
      </trkpt>
      <trkpt lat="50.82082" lon="1.92025">
        <ele>99</ele>
        <time>2015-05-12T12:59:18.000Z</time>
      </trkpt>
      <trkpt lat="50.82082" lon="1.92025">
        <ele>99</ele>
        <time>2015-05-12T12:59:19.000Z</time>
      </trkpt>
      <trkpt lat="50.82082" lon="1.92025">
        <ele>99</ele>
        <time>2015-05-12T12:59:20.000Z</time>
      </trkpt>
      <trkpt lat="50.82082" lon="1.92026">
        <ele>100</ele>
        <time>2015-05-12T12:59:21.000Z</time>
      </trkpt>
      <trkpt lat="50.82082" lon="1.92026">
        <ele>99</ele>
        <time>2015-05-12T12:59:22.000Z</time>
      </trkpt>
      <trkpt lat="50.82082" lon="1.92027">
        <ele>99</ele>
        <time>2015-05-12T12:59:23.000Z</time>
      </trkpt>
      <trkpt lat="50.82082" lon="1.92027">
        <ele>100</ele>
        <time>2015-05-12T12:59:24.000Z</time>
      </trkpt>
      <trkpt lat="50.82082" lon="1.92028">
        <ele>99</ele>
        <time>2015-05-12T12:59:25.000Z</time>
      </trkpt>
      <trkpt lat="50.82082" lon="1.92028">
        <ele>99</ele>
        <time>2015-05-12T12:59:26.000Z</time>
      </trkpt>
      <trkpt lat="50.82082" lon="1.92028">
        <ele>99</ele>
        <time>2015-05-12T12:59:27.000Z</time>
      </trkpt>
      <trkpt lat="50.82082" lon="1.92028">
        <ele>99</ele>
        <time>2015-05-12T12:59:28.000Z</time>
      </trkpt>
      <trkpt lat="50.82082" lon="1.92028">
        <ele>99</ele>
        <time>2015-05-12T12:59:29.000Z</time>
      </trkpt>
      <trkpt lat="50.82082" lon="1.92028">
        <ele>99</ele>
        <time>2015-05-12T12:59:30.000Z</time>
      </trkpt>
      <trkpt lat="50.82082" lon="1.92028">
        <ele>99</ele>
        <time>2015-05-12T12:59:31.000Z</time>
      </trkpt>
      <trkpt lat="50.82082" lon="1.92028">
        <ele>99</ele>
        <time>2015-05-12T12:59:32.000Z</time>
      </trkpt>
      <trkpt lat="50.82082" lon="1.92028">
        <ele>99</ele>
        <time>2015-05-12T12:59:33.000Z</time>
      </trkpt>
      <trkpt lat="50.82082" lon="1.92028">
        <ele>98</ele>
        <time>2015-05-12T12:59:34.000Z</time>
      </trkpt>
      <trkpt lat="50.82082" lon="1.92028">
        <ele>99</ele>
        <time>2015-05-12T12:59:35.000Z</time>
      </trkpt>
      <trkpt lat="50.82081" lon="1.92028">
        <ele>99</ele>
        <time>2015-05-12T12:59:36.000Z</time>
      </trkpt>
      <trkpt lat="50.82081" lon="1.92028">
        <ele>99</ele>
        <time>2015-05-12T12:59:37.000Z</time>
      </trkpt>
      <trkpt lat="50.82081" lon="1.92028">
        <ele>99</ele>
        <time>2015-05-12T12:59:38.000Z</time>
      </trkpt>
      <trkpt lat="50.82082" lon="1.92027">
        <ele>99</ele>
        <time>2015-05-12T12:59:39.000Z</time>
      </trkpt>
      <trkpt lat="50.82082" lon="1.92027">
        <ele>99</ele>
        <time>2015-05-12T12:59:40.000Z</time>
      </trkpt>
      <trkpt lat="50.82083" lon="1.92026">
        <ele>100</ele>
        <time>2015-05-12T12:59:41.000Z</time>
      </trkpt>
      <trkpt lat="50.82083" lon="1.92026">
        <ele>100</ele>
        <time>2015-05-12T12:59:42.000Z</time>
      </trkpt>
      <trkpt lat="50.82083" lon="1.92026">
        <ele>100</ele>
        <time>2015-05-12T12:59:43.000Z</time>
      </trkpt>
      <trkpt lat="50.82083" lon="1.92026">
        <ele>100</ele>
        <time>2015-05-12T12:59:44.000Z</time>
      </trkpt>
      <trkpt lat="50.82083" lon="1.92026">
        <ele>100</ele>
        <time>2015-05-12T12:59:45.000Z</time>
      </trkpt>
      <trkpt lat="50.82083" lon="1.92026">
        <ele>100</ele>
        <time>2015-05-12T12:59:46.000Z</time>
      </trkpt>
      <trkpt lat="50.82083" lon="1.92026">
        <ele>100</ele>
        <time>2015-05-12T12:59:47.000Z</time>
      </trkpt>
      <trkpt lat="50.82083" lon="1.92026">
        <ele>100</ele>
        <time>2015-05-12T12:59:48.000Z</time>
      </trkpt>
      <trkpt lat="50.82082" lon="1.92026">
        <ele>100</ele>
        <time>2015-05-12T12:59:49.000Z</time>
      </trkpt>
      <trkpt lat="50.82082" lon="1.92026">
        <ele>100</ele>
        <time>2015-05-12T12:59:50.000Z</time>
      </trkpt>
      <trkpt lat="50.82082" lon="1.92026">
        <ele>100</ele>
        <time>2015-05-12T12:59:51.000Z</time>
      </trkpt>
      <trkpt lat="50.82082" lon="1.92026">
        <ele>100</ele>
        <time>2015-05-12T12:59:52.000Z</time>
      </trkpt>
      <trkpt lat="50.82082" lon="1.92026">
        <ele>100</ele>
        <time>2015-05-12T12:59:53.000Z</time>
      </trkpt>
      <trkpt lat="50.82082" lon="1.92026">
        <ele>100</ele>
        <time>2015-05-12T12:59:54.000Z</time>
      </trkpt>
      <trkpt lat="50.82082" lon="1.92026">
        <ele>100</ele>
        <time>2015-05-12T12:59:55.000Z</time>
      </trkpt>
      <trkpt lat="50.82082" lon="1.92026">
        <ele>100</ele>
        <time>2015-05-12T12:59:56.000Z</time>
      </trkpt>
      <trkpt lat="50.82082" lon="1.92026">
        <ele>101</ele>
        <time>2015-05-12T12:59:57.000Z</time>
      </trkpt>
      <trkpt lat="50.82082" lon="1.92026">
        <ele>101</ele>
        <time>2015-05-12T12:59:58.000Z</time>
      </trkpt>
      <trkpt lat="50.82082" lon="1.92026">
        <ele>100</ele>
        <time>2015-05-12T12:59:59.000Z</time>
      </trkpt>
      <trkpt lat="50.82082" lon="1.92026">
        <ele>100</ele>
        <time>2015-05-12T13:00:00.000Z</time>
      </trkpt>
      <trkpt lat="50.82082" lon="1.92026">
        <ele>100</ele>
        <time>2015-05-12T13:00:01.000Z</time>
      </trkpt>
      <trkpt lat="50.82082" lon="1.92026">
        <ele>100</ele>
        <time>2015-05-12T13:00:02.000Z</time>
      </trkpt>
      <trkpt lat="50.82082" lon="1.92026">
        <ele>100</ele>
        <time>2015-05-12T13:00:03.000Z</time>
      </trkpt>
      <trkpt lat="50.82082" lon="1.92027">
        <ele>100</ele>
        <time>2015-05-12T13:00:04.000Z</time>
      </trkpt>
      <trkpt lat="50.82082" lon="1.92027">
        <ele>99</ele>
        <time>2015-05-12T13:00:05.000Z</time>
      </trkpt>
      <trkpt lat="50.82082" lon="1.92027">
        <ele>99</ele>
        <time>2015-05-12T13:00:06.000Z</time>
      </trkpt>
      <trkpt lat="50.82081" lon="1.92027">
        <ele>99</ele>
        <time>2015-05-12T13:00:07.000Z</time>
      </trkpt>
      <trkpt lat="50.82081" lon="1.92027">
        <ele>99</ele>
        <time>2015-05-12T13:00:08.000Z</time>
      </trkpt>
      <trkpt lat="50.82081" lon="1.92027">
        <ele>99</ele>
        <time>2015-05-12T13:00:09.000Z</time>
      </trkpt>
      <trkpt lat="50.82081" lon="1.92027">
        <ele>99</ele>
        <time>2015-05-12T13:00:10.000Z</time>
      </trkpt>
      <trkpt lat="50.82081" lon="1.92027">
        <ele>99</ele>
        <time>2015-05-12T13:00:11.000Z</time>
      </trkpt>
      <trkpt lat="50.82081" lon="1.92027">
        <ele>99</ele>
        <time>2015-05-12T13:00:12.000Z</time>
      </trkpt>
      <trkpt lat="50.82081" lon="1.92027">
        <ele>98</ele>
        <time>2015-05-12T13:00:13.000Z</time>
      </trkpt>
      <trkpt lat="50.82081" lon="1.92027">
        <ele>98</ele>
        <time>2015-05-12T13:00:14.000Z</time>
      </trkpt>
      <trkpt lat="50.82081" lon="1.92027">
        <ele>98</ele>
        <time>2015-05-12T13:00:15.000Z</time>
      </trkpt>
      <trkpt lat="50.82081" lon="1.92027">
        <ele>98</ele>
        <time>2015-05-12T13:00:16.000Z</time>
      </trkpt>
      <trkpt lat="50.8208" lon="1.92028">
        <ele>97</ele>
        <time>2015-05-12T13:00:17.000Z</time>
      </trkpt>
      <trkpt lat="50.8208" lon="1.92028">
        <ele>97</ele>
        <time>2015-05-12T13:00:18.000Z</time>
      </trkpt>
      <trkpt lat="50.8208" lon="1.92028">
        <ele>97</ele>
        <time>2015-05-12T13:00:19.000Z</time>
      </trkpt>
      <trkpt lat="50.8208" lon="1.92028">
        <ele>97</ele>
        <time>2015-05-12T13:00:20.000Z</time>
      </trkpt>
      <trkpt lat="50.8208" lon="1.92028">
        <ele>98</ele>
        <time>2015-05-12T13:00:21.000Z</time>
      </trkpt>
      <trkpt lat="50.8208" lon="1.92028">
        <ele>98</ele>
        <time>2015-05-12T13:00:22.000Z</time>
      </trkpt>
      <trkpt lat="50.8208" lon="1.92028">
        <ele>98</ele>
        <time>2015-05-12T13:00:23.000Z</time>
      </trkpt>
      <trkpt lat="50.8208" lon="1.92028">
        <ele>98</ele>
        <time>2015-05-12T13:00:24.000Z</time>
      </trkpt>
      <trkpt lat="50.8208" lon="1.92028">
        <ele>98</ele>
        <time>2015-05-12T13:00:25.000Z</time>
      </trkpt>
      <trkpt lat="50.8208" lon="1.92028">
        <ele>98</ele>
        <time>2015-05-12T13:00:26.000Z</time>
      </trkpt>
      <trkpt lat="50.8208" lon="1.92028">
        <ele>97</ele>
        <time>2015-05-12T13:00:27.000Z</time>
      </trkpt>
      <trkpt lat="50.8208" lon="1.92028">
        <ele>97</ele>
        <time>2015-05-12T13:00:28.000Z</time>
      </trkpt>
      <trkpt lat="50.8208" lon="1.92028">
        <ele>97</ele>
        <time>2015-05-12T13:00:29.000Z</time>
      </trkpt>
      <trkpt lat="50.8208" lon="1.92028">
        <ele>97</ele>
        <time>2015-05-12T13:00:30.000Z</time>
      </trkpt>
      <trkpt lat="50.8208" lon="1.92029">
        <ele>97</ele>
        <time>2015-05-12T13:00:31.000Z</time>
      </trkpt>
      <trkpt lat="50.8208" lon="1.92029">
        <ele>97</ele>
        <time>2015-05-12T13:00:32.000Z</time>
      </trkpt>
      <trkpt lat="50.8208" lon="1.92029">
        <ele>98</ele>
        <time>2015-05-12T13:00:33.000Z</time>
      </trkpt>
      <trkpt lat="50.8208" lon="1.92029">
        <ele>98</ele>
        <time>2015-05-12T13:00:34.000Z</time>
      </trkpt>
      <trkpt lat="50.8208" lon="1.92029">
        <ele>98</ele>
        <time>2015-05-12T13:00:35.000Z</time>
      </trkpt>
      <trkpt lat="50.82081" lon="1.92029">
        <ele>98</ele>
        <time>2015-05-12T13:00:36.000Z</time>
      </trkpt>
      <trkpt lat="50.82081" lon="1.92029">
        <ele>98</ele>
        <time>2015-05-12T13:00:37.000Z</time>
      </trkpt>
      <trkpt lat="50.82081" lon="1.92029">
        <ele>98</ele>
        <time>2015-05-12T13:00:38.000Z</time>
      </trkpt>
      <trkpt lat="50.82081" lon="1.92029">
        <ele>98</ele>
        <time>2015-05-12T13:00:39.000Z</time>
      </trkpt>
      <trkpt lat="50.82081" lon="1.92029">
        <ele>98</ele>
        <time>2015-05-12T13:00:40.000Z</time>
      </trkpt>
      <trkpt lat="50.82081" lon="1.92028">
        <ele>99</ele>
        <time>2015-05-12T13:00:41.000Z</time>
      </trkpt>
      <trkpt lat="50.82082" lon="1.92028">
        <ele>99</ele>
        <time>2015-05-12T13:00:42.000Z</time>
      </trkpt>
      <trkpt lat="50.82082" lon="1.92028">
        <ele>99</ele>
        <time>2015-05-12T13:00:43.000Z</time>
      </trkpt>
      <trkpt lat="50.82082" lon="1.92028">
        <ele>100</ele>
        <time>2015-05-12T13:00:44.000Z</time>
      </trkpt>
      <trkpt lat="50.82082" lon="1.92028">
        <ele>100</ele>
        <time>2015-05-12T13:00:45.000Z</time>
      </trkpt>
      <trkpt lat="50.82082" lon="1.92028">
        <ele>100</ele>
        <time>2015-05-12T13:00:46.000Z</time>
      </trkpt>
      <trkpt lat="50.82082" lon="1.92028">
        <ele>100</ele>
        <time>2015-05-12T13:00:47.000Z</time>
      </trkpt>
      <trkpt lat="50.82083" lon="1.92028">
        <ele>100</ele>
        <time>2015-05-12T13:00:48.000Z</time>
      </trkpt>
      <trkpt lat="50.82083" lon="1.92028">
        <ele>100</ele>
        <time>2015-05-12T13:00:49.000Z</time>
      </trkpt>
      <trkpt lat="50.82083" lon="1.92028">
        <ele>101</ele>
        <time>2015-05-12T13:00:50.000Z</time>
      </trkpt>
      <trkpt lat="50.82083" lon="1.92028">
        <ele>101</ele>
        <time>2015-05-12T13:00:51.000Z</time>
      </trkpt>
      <trkpt lat="50.82083" lon="1.92028">
        <ele>101</ele>
        <time>2015-05-12T13:00:52.000Z</time>
      </trkpt>
      <trkpt lat="50.82083" lon="1.92028">
        <ele>101</ele>
        <time>2015-05-12T13:00:53.000Z</time>
      </trkpt>
      <trkpt lat="50.82083" lon="1.92028">
        <ele>101</ele>
        <time>2015-05-12T13:00:54.000Z</time>
      </trkpt>
      <trkpt lat="50.82083" lon="1.92028">
        <ele>101</ele>
        <time>2015-05-12T13:00:55.000Z</time>
      </trkpt>
      <trkpt lat="50.82083" lon="1.92028">
        <ele>101</ele>
        <time>2015-05-12T13:00:56.000Z</time>
      </trkpt>
      <trkpt lat="50.82083" lon="1.92028">
        <ele>101</ele>
        <time>2015-05-12T13:00:57.000Z</time>
      </trkpt>
      <trkpt lat="50.82083" lon="1.92028">
        <ele>101</ele>
        <time>2015-05-12T13:00:58.000Z</time>
      </trkpt>
      <trkpt lat="50.82083" lon="1.92028">
        <ele>101</ele>
        <time>2015-05-12T13:00:59.000Z</time>
      </trkpt>
      <trkpt lat="50.82083" lon="1.92028">
        <ele>101</ele>
        <time>2015-05-12T13:01:00.000Z</time>
      </trkpt>
      <trkpt lat="50.82083" lon="1.92028">
        <ele>101</ele>
        <time>2015-05-12T13:01:01.000Z</time>
      </trkpt>
      <trkpt lat="50.82083" lon="1.92028">
        <ele>101</ele>
        <time>2015-05-12T13:01:02.000Z</time>
      </trkpt>
      <trkpt lat="50.82083" lon="1.92028">
        <ele>101</ele>
        <time>2015-05-12T13:01:03.000Z</time>
      </trkpt>
      <trkpt lat="50.82083" lon="1.92028">
        <ele>102</ele>
        <time>2015-05-12T13:01:04.000Z</time>
      </trkpt>
      <trkpt lat="50.82083" lon="1.92028">
        <ele>102</ele>
        <time>2015-05-12T13:01:05.000Z</time>
      </trkpt>
      <trkpt lat="50.82083" lon="1.92029">
        <ele>102</ele>
        <time>2015-05-12T13:01:06.000Z</time>
      </trkpt>
      <trkpt lat="50.82084" lon="1.92029">
        <ele>102</ele>
        <time>2015-05-12T13:01:07.000Z</time>
      </trkpt>
      <trkpt lat="50.82084" lon="1.92028">
        <ele>102</ele>
        <time>2015-05-12T13:01:08.000Z</time>
      </trkpt>
      <trkpt lat="50.82083" lon="1.92028">
        <ele>102</ele>
        <time>2015-05-12T13:01:09.000Z</time>
      </trkpt>
      <trkpt lat="50.82083" lon="1.92028">
        <ele>102</ele>
        <time>2015-05-12T13:01:10.000Z</time>
      </trkpt>
      <trkpt lat="50.82083" lon="1.92028">
        <ele>101</ele>
        <time>2015-05-12T13:01:11.000Z</time>
      </trkpt>
      <trkpt lat="50.82083" lon="1.92028">
        <ele>101</ele>
        <time>2015-05-12T13:01:12.000Z</time>
      </trkpt>
      <trkpt lat="50.82083" lon="1.92028">
        <ele>101</ele>
        <time>2015-05-12T13:01:13.000Z</time>
      </trkpt>
      <trkpt lat="50.82083" lon="1.92027">
        <ele>101</ele>
        <time>2015-05-12T13:01:14.000Z</time>
      </trkpt>
      <trkpt lat="50.82083" lon="1.92027">
        <ele>102</ele>
        <time>2015-05-12T13:01:15.000Z</time>
      </trkpt>
      <trkpt lat="50.82083" lon="1.92027">
        <ele>102</ele>
        <time>2015-05-12T13:01:16.000Z</time>
      </trkpt>
      <trkpt lat="50.82083" lon="1.92027">
        <ele>102</ele>
        <time>2015-05-12T13:01:17.000Z</time>
      </trkpt>
      <trkpt lat="50.82083" lon="1.92027">
        <ele>101</ele>
        <time>2015-05-12T13:01:18.000Z</time>
      </trkpt>
      <trkpt lat="50.82083" lon="1.92026">
        <ele>102</ele>
        <time>2015-05-12T13:01:19.000Z</time>
      </trkpt>
      <trkpt lat="50.82083" lon="1.92026">
        <ele>101</ele>
        <time>2015-05-12T13:01:20.000Z</time>
      </trkpt>
      <trkpt lat="50.82083" lon="1.92026">
        <ele>101</ele>
        <time>2015-05-12T13:01:21.000Z</time>
      </trkpt>
      <trkpt lat="50.82083" lon="1.92026">
        <ele>101</ele>
        <time>2015-05-12T13:01:22.000Z</time>
      </trkpt>
      <trkpt lat="50.82083" lon="1.92026">
        <ele>101</ele>
        <time>2015-05-12T13:01:23.000Z</time>
      </trkpt>
      <trkpt lat="50.82083" lon="1.92027">
        <ele>100</ele>
        <time>2015-05-12T13:01:24.000Z</time>
      </trkpt>
      <trkpt lat="50.82083" lon="1.92027">
        <ele>100</ele>
        <time>2015-05-12T13:01:25.000Z</time>
      </trkpt>
      <trkpt lat="50.82083" lon="1.92027">
        <ele>100</ele>
        <time>2015-05-12T13:01:26.000Z</time>
      </trkpt>
      <trkpt lat="50.82083" lon="1.92027">
        <ele>100</ele>
        <time>2015-05-12T13:01:27.000Z</time>
      </trkpt>
      <trkpt lat="50.82083" lon="1.92027">
        <ele>100</ele>
        <time>2015-05-12T13:01:28.000Z</time>
      </trkpt>
      <trkpt lat="50.82083" lon="1.92027">
        <ele>99</ele>
        <time>2015-05-12T13:01:29.000Z</time>
      </trkpt>
      <trkpt lat="50.82083" lon="1.92027">
        <ele>99</ele>
        <time>2015-05-12T13:01:30.000Z</time>
      </trkpt>
      <trkpt lat="50.82083" lon="1.92027">
        <ele>99</ele>
        <time>2015-05-12T13:01:31.000Z</time>
      </trkpt>
      <trkpt lat="50.82083" lon="1.92027">
        <ele>99</ele>
        <time>2015-05-12T13:01:32.000Z</time>
      </trkpt>
      <trkpt lat="50.82083" lon="1.92027">
        <ele>99</ele>
        <time>2015-05-12T13:01:33.000Z</time>
      </trkpt>
      <trkpt lat="50.82083" lon="1.92027">
        <ele>99</ele>
        <time>2015-05-12T13:01:34.000Z</time>
      </trkpt>
      <trkpt lat="50.82083" lon="1.92027">
        <ele>99</ele>
        <time>2015-05-12T13:01:35.000Z</time>
      </trkpt>
      <trkpt lat="50.82083" lon="1.92027">
        <ele>99</ele>
        <time>2015-05-12T13:01:36.000Z</time>
      </trkpt>
      <trkpt lat="50.82083" lon="1.92027">
        <ele>98</ele>
        <time>2015-05-12T13:01:37.000Z</time>
      </trkpt>
      <trkpt lat="50.82083" lon="1.92027">
        <ele>99</ele>
        <time>2015-05-12T13:01:38.000Z</time>
      </trkpt>
      <trkpt lat="50.82083" lon="1.92026">
        <ele>99</ele>
        <time>2015-05-12T13:01:39.000Z</time>
      </trkpt>
      <trkpt lat="50.82083" lon="1.92026">
        <ele>99</ele>
        <time>2015-05-12T13:01:40.000Z</time>
      </trkpt>
      <trkpt lat="50.82083" lon="1.92026">
        <ele>100</ele>
        <time>2015-05-12T13:01:41.000Z</time>
      </trkpt>
      <trkpt lat="50.82083" lon="1.92026">
        <ele>100</ele>
        <time>2015-05-12T13:01:42.000Z</time>
      </trkpt>
      <trkpt lat="50.82083" lon="1.92025">
        <ele>100</ele>
        <time>2015-05-12T13:01:43.000Z</time>
      </trkpt>
      <trkpt lat="50.82083" lon="1.92025">
        <ele>100</ele>
        <time>2015-05-12T13:01:44.000Z</time>
      </trkpt>
      <trkpt lat="50.82083" lon="1.92025">
        <ele>100</ele>
        <time>2015-05-12T13:01:45.000Z</time>
      </trkpt>
      <trkpt lat="50.82083" lon="1.92025">
        <ele>100</ele>
        <time>2015-05-12T13:01:46.000Z</time>
      </trkpt>
      <trkpt lat="50.82083" lon="1.92025">
        <ele>100</ele>
        <time>2015-05-12T13:01:47.000Z</time>
      </trkpt>
      <trkpt lat="50.82083" lon="1.92025">
        <ele>100</ele>
        <time>2015-05-12T13:01:48.000Z</time>
      </trkpt>
      <trkpt lat="50.82083" lon="1.92025">
        <ele>100</ele>
        <time>2015-05-12T13:01:49.000Z</time>
      </trkpt>
      <trkpt lat="50.82083" lon="1.92025">
        <ele>100</ele>
        <time>2015-05-12T13:01:50.000Z</time>
      </trkpt>
      <trkpt lat="50.82083" lon="1.92025">
        <ele>100</ele>
        <time>2015-05-12T13:01:51.000Z</time>
      </trkpt>
      <trkpt lat="50.82083" lon="1.92025">
        <ele>100</ele>
        <time>2015-05-12T13:01:52.000Z</time>
      </trkpt>
      <trkpt lat="50.82083" lon="1.92025">
        <ele>100</ele>
        <time>2015-05-12T13:01:53.000Z</time>
      </trkpt>
      <trkpt lat="50.82083" lon="1.92025">
        <ele>100</ele>
        <time>2015-05-12T13:01:54.000Z</time>
      </trkpt>
      <trkpt lat="50.82083" lon="1.92025">
        <ele>100</ele>
        <time>2015-05-12T13:01:55.000Z</time>
      </trkpt>
      <trkpt lat="50.82083" lon="1.92026">
        <ele>100</ele>
        <time>2015-05-12T13:01:56.000Z</time>
      </trkpt>
      <trkpt lat="50.82083" lon="1.92026">
        <ele>100</ele>
        <time>2015-05-12T13:01:57.000Z</time>
      </trkpt>
      <trkpt lat="50.82083" lon="1.92027">
        <ele>100</ele>
        <time>2015-05-12T13:01:58.000Z</time>
      </trkpt>
      <trkpt lat="50.82084" lon="1.92027">
        <ele>100</ele>
        <time>2015-05-12T13:01:59.000Z</time>
      </trkpt>
      <trkpt lat="50.82084" lon="1.92027">
        <ele>100</ele>
        <time>2015-05-12T13:02:00.000Z</time>
      </trkpt>
      <trkpt lat="50.82084" lon="1.92027">
        <ele>100</ele>
        <time>2015-05-12T13:02:01.000Z</time>
      </trkpt>
      <trkpt lat="50.82084" lon="1.92027">
        <ele>100</ele>
        <time>2015-05-12T13:02:02.000Z</time>
      </trkpt>
      <trkpt lat="50.82084" lon="1.92027">
        <ele>100</ele>
        <time>2015-05-12T13:02:03.000Z</time>
      </trkpt>
      <trkpt lat="50.82084" lon="1.92027">
        <ele>101</ele>
        <time>2015-05-12T13:02:04.000Z</time>
      </trkpt>
      <trkpt lat="50.82084" lon="1.92027">
        <ele>101</ele>
        <time>2015-05-12T13:02:05.000Z</time>
      </trkpt>
      <trkpt lat="50.82085" lon="1.92027">
        <ele>101</ele>
        <time>2015-05-12T13:02:06.000Z</time>
      </trkpt>
      <trkpt lat="50.82084" lon="1.92028">
        <ele>102</ele>
        <time>2015-05-12T13:02:07.000Z</time>
      </trkpt>
      <trkpt lat="50.82084" lon="1.92029">
        <ele>103</ele>
        <time>2015-05-12T13:02:08.000Z</time>
      </trkpt>
      <trkpt lat="50.82084" lon="1.92029">
        <ele>102</ele>
        <time>2015-05-12T13:02:09.000Z</time>
      </trkpt>
      <trkpt lat="50.82083" lon="1.9203">
        <ele>103</ele>
        <time>2015-05-12T13:02:10.000Z</time>
      </trkpt>
      <trkpt lat="50.82083" lon="1.9203">
        <ele>103</ele>
        <time>2015-05-12T13:02:11.000Z</time>
      </trkpt>
      <trkpt lat="50.82083" lon="1.92031">
        <ele>103</ele>
        <time>2015-05-12T13:02:12.000Z</time>
      </trkpt>
      <trkpt lat="50.82082" lon="1.92032">
        <ele>103</ele>
        <time>2015-05-12T13:02:13.000Z</time>
      </trkpt>
      <trkpt lat="50.82082" lon="1.92033">
        <ele>103</ele>
        <time>2015-05-12T13:02:14.000Z</time>
      </trkpt>
      <trkpt lat="50.82081" lon="1.92033">
        <ele>103</ele>
        <time>2015-05-12T13:02:15.000Z</time>
      </trkpt>
      <trkpt lat="50.8208" lon="1.92034">
        <ele>103</ele>
        <time>2015-05-12T13:02:16.000Z</time>
      </trkpt>
      <trkpt lat="50.8208" lon="1.92034">
        <ele>104</ele>
        <time>2015-05-12T13:02:17.000Z</time>
      </trkpt>
      <trkpt lat="50.82079" lon="1.92035">
        <ele>104</ele>
        <time>2015-05-12T13:02:18.000Z</time>
      </trkpt>
      <trkpt lat="50.82078" lon="1.92036">
        <ele>104</ele>
        <time>2015-05-12T13:02:19.000Z</time>
      </trkpt>
      <trkpt lat="50.82077" lon="1.92036">
        <ele>103</ele>
        <time>2015-05-12T13:02:20.000Z</time>
      </trkpt>
      <trkpt lat="50.82076" lon="1.92037">
        <ele>104</ele>
        <time>2015-05-12T13:02:21.000Z</time>
      </trkpt>
      <trkpt lat="50.82076" lon="1.92038">
        <ele>104</ele>
        <time>2015-05-12T13:02:22.000Z</time>
      </trkpt>
      <trkpt lat="50.82075" lon="1.92038">
        <ele>104</ele>
        <time>2015-05-12T13:02:23.000Z</time>
      </trkpt>
      <trkpt lat="50.82075" lon="1.92039">
        <ele>105</ele>
        <time>2015-05-12T13:02:24.000Z</time>
      </trkpt>
      <trkpt lat="50.82074" lon="1.92041">
        <ele>105</ele>
        <time>2015-05-12T13:02:25.000Z</time>
      </trkpt>
      <trkpt lat="50.82073" lon="1.92042">
        <ele>105</ele>
        <time>2015-05-12T13:02:26.000Z</time>
      </trkpt>
      <trkpt lat="50.82072" lon="1.92043">
        <ele>105</ele>
        <time>2015-05-12T13:02:27.000Z</time>
      </trkpt>
      <trkpt lat="50.82071" lon="1.92044">
        <ele>105</ele>
        <time>2015-05-12T13:02:28.000Z</time>
      </trkpt>
      <trkpt lat="50.82071" lon="1.92045">
        <ele>106</ele>
        <time>2015-05-12T13:02:29.000Z</time>
      </trkpt>
      <trkpt lat="50.8207" lon="1.92045">
        <ele>106</ele>
        <time>2015-05-12T13:02:30.000Z</time>
      </trkpt>
      <trkpt lat="50.82069" lon="1.92046">
        <ele>107</ele>
        <time>2015-05-12T13:02:31.000Z</time>
      </trkpt>
      <trkpt lat="50.82068" lon="1.92047">
        <ele>107</ele>
        <time>2015-05-12T13:02:32.000Z</time>
      </trkpt>
      <trkpt lat="50.82068" lon="1.92047">
        <ele>107</ele>
        <time>2015-05-12T13:02:33.000Z</time>
      </trkpt>
      <trkpt lat="50.82067" lon="1.92048">
        <ele>107</ele>
        <time>2015-05-12T13:02:34.000Z</time>
      </trkpt>
      <trkpt lat="50.82067" lon="1.92049">
        <ele>107</ele>
        <time>2015-05-12T13:02:35.000Z</time>
      </trkpt>
      <trkpt lat="50.82066" lon="1.92049">
        <ele>107</ele>
        <time>2015-05-12T13:02:36.000Z</time>
      </trkpt>
      <trkpt lat="50.82065" lon="1.9205">
        <ele>108</ele>
        <time>2015-05-12T13:02:37.000Z</time>
      </trkpt>
      <trkpt lat="50.82065" lon="1.92051">
        <ele>108</ele>
        <time>2015-05-12T13:02:38.000Z</time>
      </trkpt>
      <trkpt lat="50.82064" lon="1.92051">
        <ele>108</ele>
        <time>2015-05-12T13:02:39.000Z</time>
      </trkpt>
      <trkpt lat="50.82064" lon="1.92052">
        <ele>108</ele>
        <time>2015-05-12T13:02:40.000Z</time>
      </trkpt>
      <trkpt lat="50.82064" lon="1.92052">
        <ele>108</ele>
        <time>2015-05-12T13:02:41.000Z</time>
      </trkpt>
      <trkpt lat="50.82064" lon="1.92052">
        <ele>108</ele>
        <time>2015-05-12T13:02:42.000Z</time>
      </trkpt>
      <trkpt lat="50.82063" lon="1.92052">
        <ele>108</ele>
        <time>2015-05-12T13:02:43.000Z</time>
      </trkpt>
      <trkpt lat="50.82063" lon="1.92052">
        <ele>107</ele>
        <time>2015-05-12T13:02:44.000Z</time>
      </trkpt>
      <trkpt lat="50.82063" lon="1.92052">
        <ele>107</ele>
        <time>2015-05-12T13:02:45.000Z</time>
      </trkpt>
      <trkpt lat="50.82062" lon="1.92052">
        <ele>107</ele>
        <time>2015-05-12T13:02:46.000Z</time>
      </trkpt>
      <trkpt lat="50.82061" lon="1.92053">
        <ele>107</ele>
        <time>2015-05-12T13:02:47.000Z</time>
      </trkpt>
      <trkpt lat="50.82061" lon="1.92054">
        <ele>107</ele>
        <time>2015-05-12T13:02:48.000Z</time>
      </trkpt>
      <trkpt lat="50.8206" lon="1.92055">
        <ele>107</ele>
        <time>2015-05-12T13:02:49.000Z</time>
      </trkpt>
      <trkpt lat="50.8206" lon="1.92056">
        <ele>106</ele>
        <time>2015-05-12T13:02:50.000Z</time>
      </trkpt>
      <trkpt lat="50.82059" lon="1.92057">
        <ele>106</ele>
        <time>2015-05-12T13:02:51.000Z</time>
      </trkpt>
      <trkpt lat="50.82058" lon="1.92058">
        <ele>106</ele>
        <time>2015-05-12T13:02:52.000Z</time>
      </trkpt>
      <trkpt lat="50.82057" lon="1.92059">
        <ele>106</ele>
        <time>2015-05-12T13:02:53.000Z</time>
      </trkpt>
      <trkpt lat="50.82055" lon="1.9206">
        <ele>105</ele>
        <time>2015-05-12T13:02:54.000Z</time>
      </trkpt>
      <trkpt lat="50.82054" lon="1.92061">
        <ele>105</ele>
        <time>2015-05-12T13:02:55.000Z</time>
      </trkpt>
      <trkpt lat="50.82053" lon="1.92062">
        <ele>104</ele>
        <time>2015-05-12T13:02:56.000Z</time>
      </trkpt>
      <trkpt lat="50.82052" lon="1.92063">
        <ele>104</ele>
        <time>2015-05-12T13:02:57.000Z</time>
      </trkpt>
      <trkpt lat="50.82051" lon="1.92064">
        <ele>104</ele>
        <time>2015-05-12T13:02:58.000Z</time>
      </trkpt>
      <trkpt lat="50.82051" lon="1.92065">
        <ele>102</ele>
        <time>2015-05-12T13:02:59.000Z</time>
      </trkpt>
      <trkpt lat="50.8205" lon="1.92066">
        <ele>101</ele>
        <time>2015-05-12T13:03:00.000Z</time>
      </trkpt>
      <trkpt lat="50.82049" lon="1.92068">
        <ele>101</ele>
        <time>2015-05-12T13:03:01.000Z</time>
      </trkpt>
      <trkpt lat="50.82048" lon="1.92069">
        <ele>101</ele>
        <time>2015-05-12T13:03:02.000Z</time>
      </trkpt>
      <trkpt lat="50.82047" lon="1.9207">
        <ele>100</ele>
        <time>2015-05-12T13:03:03.000Z</time>
      </trkpt>
      <trkpt lat="50.82046" lon="1.92071">
        <ele>100</ele>
        <time>2015-05-12T13:03:04.000Z</time>
      </trkpt>
      <trkpt lat="50.82045" lon="1.92072">
        <ele>100</ele>
        <time>2015-05-12T13:03:05.000Z</time>
      </trkpt>
      <trkpt lat="50.82044" lon="1.92073">
        <ele>100</ele>
        <time>2015-05-12T13:03:06.000Z</time>
      </trkpt>
      <trkpt lat="50.82043" lon="1.92074">
        <ele>100</ele>
        <time>2015-05-12T13:03:07.000Z</time>
      </trkpt>
      <trkpt lat="50.82042" lon="1.92075">
        <ele>99</ele>
        <time>2015-05-12T13:03:08.000Z</time>
      </trkpt>
      <trkpt lat="50.82041" lon="1.92077">
        <ele>100</ele>
        <time>2015-05-12T13:03:09.000Z</time>
      </trkpt>
      <trkpt lat="50.82041" lon="1.92077">
        <ele>98</ele>
        <time>2015-05-12T13:03:10.000Z</time>
      </trkpt>
      <trkpt lat="50.8204" lon="1.92078">
        <ele>98</ele>
        <time>2015-05-12T13:03:11.000Z</time>
      </trkpt>
      <trkpt lat="50.82039" lon="1.92079">
        <ele>98</ele>
        <time>2015-05-12T13:03:12.000Z</time>
      </trkpt>
      <trkpt lat="50.82038" lon="1.9208">
        <ele>98</ele>
        <time>2015-05-12T13:03:13.000Z</time>
      </trkpt>
      <trkpt lat="50.82038" lon="1.9208">
        <ele>97</ele>
        <time>2015-05-12T13:03:14.000Z</time>
      </trkpt>
      <trkpt lat="50.82037" lon="1.92081">
        <ele>97</ele>
        <time>2015-05-12T13:03:15.000Z</time>
      </trkpt>
      <trkpt lat="50.82036" lon="1.92082">
        <ele>97</ele>
        <time>2015-05-12T13:03:16.000Z</time>
      </trkpt>
      <trkpt lat="50.82035" lon="1.92083">
        <ele>97</ele>
        <time>2015-05-12T13:03:17.000Z</time>
      </trkpt>
      <trkpt lat="50.82034" lon="1.92084">
        <ele>96</ele>
        <time>2015-05-12T13:03:18.000Z</time>
      </trkpt>
      <trkpt lat="50.82033" lon="1.92086">
        <ele>95</ele>
        <time>2015-05-12T13:03:19.000Z</time>
      </trkpt>
      <trkpt lat="50.82032" lon="1.92087">
        <ele>95</ele>
        <time>2015-05-12T13:03:20.000Z</time>
      </trkpt>
      <trkpt lat="50.82031" lon="1.92088">
        <ele>94</ele>
        <time>2015-05-12T13:03:21.000Z</time>
      </trkpt>
      <trkpt lat="50.8203" lon="1.92089">
        <ele>94</ele>
        <time>2015-05-12T13:03:22.000Z</time>
      </trkpt>
      <trkpt lat="50.82029" lon="1.9209">
        <ele>94</ele>
        <time>2015-05-12T13:03:23.000Z</time>
      </trkpt>
      <trkpt lat="50.82029" lon="1.9209">
        <ele>95</ele>
        <time>2015-05-12T13:03:24.000Z</time>
      </trkpt>
      <trkpt lat="50.82028" lon="1.9209">
        <ele>94</ele>
        <time>2015-05-12T13:03:25.000Z</time>
      </trkpt>
      <trkpt lat="50.82028" lon="1.92091">
        <ele>95</ele>
        <time>2015-05-12T13:03:26.000Z</time>
      </trkpt>
      <trkpt lat="50.82027" lon="1.92091">
        <ele>95</ele>
        <time>2015-05-12T13:03:27.000Z</time>
      </trkpt>
      <trkpt lat="50.82027" lon="1.92092">
        <ele>94</ele>
        <time>2015-05-12T13:03:28.000Z</time>
      </trkpt>
      <trkpt lat="50.82026" lon="1.92093">
        <ele>94</ele>
        <time>2015-05-12T13:03:29.000Z</time>
      </trkpt>
      <trkpt lat="50.82025" lon="1.92094">
        <ele>95</ele>
        <time>2015-05-12T13:03:30.000Z</time>
      </trkpt>
      <trkpt lat="50.82025" lon="1.92095">
        <ele>95</ele>
        <time>2015-05-12T13:03:31.000Z</time>
      </trkpt>
      <trkpt lat="50.82024" lon="1.92096">
        <ele>95</ele>
        <time>2015-05-12T13:03:32.000Z</time>
      </trkpt>
      <trkpt lat="50.82023" lon="1.92097">
        <ele>95</ele>
        <time>2015-05-12T13:03:33.000Z</time>
      </trkpt>
      <trkpt lat="50.82022" lon="1.92098">
        <ele>95</ele>
        <time>2015-05-12T13:03:34.000Z</time>
      </trkpt>
      <trkpt lat="50.82021" lon="1.921">
        <ele>96</ele>
        <time>2015-05-12T13:03:35.000Z</time>
      </trkpt>
      <trkpt lat="50.8202" lon="1.92101">
        <ele>96</ele>
        <time>2015-05-12T13:03:36.000Z</time>
      </trkpt>
      <trkpt lat="50.82019" lon="1.92102">
        <ele>95</ele>
        <time>2015-05-12T13:03:37.000Z</time>
      </trkpt>
      <trkpt lat="50.82018" lon="1.92102">
        <ele>95</ele>
        <time>2015-05-12T13:03:38.000Z</time>
      </trkpt>
      <trkpt lat="50.82016" lon="1.92103">
        <ele>94</ele>
        <time>2015-05-12T13:03:39.000Z</time>
      </trkpt>
      <trkpt lat="50.82015" lon="1.92103">
        <ele>94</ele>
        <time>2015-05-12T13:03:40.000Z</time>
      </trkpt>
      <trkpt lat="50.82014" lon="1.92104">
        <ele>94</ele>
        <time>2015-05-12T13:03:41.000Z</time>
      </trkpt>
      <trkpt lat="50.82013" lon="1.92105">
        <ele>94</ele>
        <time>2015-05-12T13:03:42.000Z</time>
      </trkpt>
      <trkpt lat="50.82012" lon="1.92105">
        <ele>93</ele>
        <time>2015-05-12T13:03:43.000Z</time>
      </trkpt>
      <trkpt lat="50.82011" lon="1.92105">
        <ele>94</ele>
        <time>2015-05-12T13:03:44.000Z</time>
      </trkpt>
      <trkpt lat="50.82009" lon="1.92105">
        <ele>93</ele>
        <time>2015-05-12T13:03:45.000Z</time>
      </trkpt>
      <trkpt lat="50.82008" lon="1.92105">
        <ele>92</ele>
        <time>2015-05-12T13:03:46.000Z</time>
      </trkpt>
      <trkpt lat="50.82007" lon="1.92105">
        <ele>92</ele>
        <time>2015-05-12T13:03:47.000Z</time>
      </trkpt>
      <trkpt lat="50.82006" lon="1.92105">
        <ele>92</ele>
        <time>2015-05-12T13:03:48.000Z</time>
      </trkpt>
      <trkpt lat="50.82005" lon="1.92105">
        <ele>92</ele>
        <time>2015-05-12T13:03:49.000Z</time>
      </trkpt>
      <trkpt lat="50.82004" lon="1.92105">
        <ele>92</ele>
        <time>2015-05-12T13:03:50.000Z</time>
      </trkpt>
      <trkpt lat="50.82003" lon="1.92105">
        <ele>92</ele>
        <time>2015-05-12T13:03:51.000Z</time>
      </trkpt>
      <trkpt lat="50.82001" lon="1.92105">
        <ele>93</ele>
        <time>2015-05-12T13:03:52.000Z</time>
      </trkpt>
      <trkpt lat="50.82" lon="1.92105">
        <ele>93</ele>
        <time>2015-05-12T13:03:53.000Z</time>
      </trkpt>
      <trkpt lat="50.81999" lon="1.92104">
        <ele>93</ele>
        <time>2015-05-12T13:03:54.000Z</time>
      </trkpt>
      <trkpt lat="50.81998" lon="1.92104">
        <ele>93</ele>
        <time>2015-05-12T13:03:55.000Z</time>
      </trkpt>
      <trkpt lat="50.81996" lon="1.92104">
        <ele>93</ele>
        <time>2015-05-12T13:03:56.000Z</time>
      </trkpt>
      <trkpt lat="50.81995" lon="1.92104">
        <ele>94</ele>
        <time>2015-05-12T13:03:57.000Z</time>
      </trkpt>
      <trkpt lat="50.81993" lon="1.92104">
        <ele>94</ele>
        <time>2015-05-12T13:03:58.000Z</time>
      </trkpt>
      <trkpt lat="50.81992" lon="1.92104">
        <ele>94</ele>
        <time>2015-05-12T13:03:59.000Z</time>
      </trkpt>
      <trkpt lat="50.81991" lon="1.92104">
        <ele>93</ele>
        <time>2015-05-12T13:04:00.000Z</time>
      </trkpt>
      <trkpt lat="50.8199" lon="1.92103">
        <ele>93</ele>
        <time>2015-05-12T13:04:01.000Z</time>
      </trkpt>
      <trkpt lat="50.81989" lon="1.92103">
        <ele>93</ele>
        <time>2015-05-12T13:04:02.000Z</time>
      </trkpt>
      <trkpt lat="50.81988" lon="1.92102">
        <ele>93</ele>
        <time>2015-05-12T13:04:03.000Z</time>
      </trkpt>
      <trkpt lat="50.81987" lon="1.92101">
        <ele>93</ele>
        <time>2015-05-12T13:04:04.000Z</time>
      </trkpt>
      <trkpt lat="50.81985" lon="1.92101">
        <ele>93</ele>
        <time>2015-05-12T13:04:05.000Z</time>
      </trkpt>
      <trkpt lat="50.81984" lon="1.921">
        <ele>94</ele>
        <time>2015-05-12T13:04:06.000Z</time>
      </trkpt>
      <trkpt lat="50.81983" lon="1.921">
        <ele>93</ele>
        <time>2015-05-12T13:04:07.000Z</time>
      </trkpt>
      <trkpt lat="50.81981" lon="1.921">
        <ele>93</ele>
        <time>2015-05-12T13:04:08.000Z</time>
      </trkpt>
      <trkpt lat="50.8198" lon="1.92099">
        <ele>93</ele>
        <time>2015-05-12T13:04:09.000Z</time>
      </trkpt>
      <trkpt lat="50.81979" lon="1.92099">
        <ele>93</ele>
        <time>2015-05-12T13:04:10.000Z</time>
      </trkpt>
      <trkpt lat="50.81978" lon="1.92099">
        <ele>93</ele>
        <time>2015-05-12T13:04:11.000Z</time>
      </trkpt>
      <trkpt lat="50.81977" lon="1.92098">
        <ele>93</ele>
        <time>2015-05-12T13:04:12.000Z</time>
      </trkpt>
      <trkpt lat="50.81976" lon="1.92097">
        <ele>93</ele>
        <time>2015-05-12T13:04:13.000Z</time>
      </trkpt>
      <trkpt lat="50.81975" lon="1.92096">
        <ele>93</ele>
        <time>2015-05-12T13:04:14.000Z</time>
      </trkpt>
      <trkpt lat="50.81974" lon="1.92096">
        <ele>93</ele>
        <time>2015-05-12T13:04:15.000Z</time>
      </trkpt>
      <trkpt lat="50.81973" lon="1.92095">
        <ele>93</ele>
        <time>2015-05-12T13:04:16.000Z</time>
      </trkpt>
      <trkpt lat="50.81972" lon="1.92095">
        <ele>93</ele>
        <time>2015-05-12T13:04:17.000Z</time>
      </trkpt>
      <trkpt lat="50.81971" lon="1.92095">
        <ele>93</ele>
        <time>2015-05-12T13:04:18.000Z</time>
      </trkpt>
      <trkpt lat="50.81969" lon="1.92094">
        <ele>93</ele>
        <time>2015-05-12T13:04:19.000Z</time>
      </trkpt>
      <trkpt lat="50.81968" lon="1.92094">
        <ele>94</ele>
        <time>2015-05-12T13:04:20.000Z</time>
      </trkpt>
      <trkpt lat="50.81967" lon="1.92094">
        <ele>93</ele>
        <time>2015-05-12T13:04:21.000Z</time>
      </trkpt>
      <trkpt lat="50.81966" lon="1.92093">
        <ele>94</ele>
        <time>2015-05-12T13:04:22.000Z</time>
      </trkpt>
      <trkpt lat="50.81965" lon="1.92093">
        <ele>94</ele>
        <time>2015-05-12T13:04:23.000Z</time>
      </trkpt>
      <trkpt lat="50.81965" lon="1.92093">
        <ele>94</ele>
        <time>2015-05-12T13:04:24.000Z</time>
      </trkpt>
      <trkpt lat="50.81965" lon="1.92092">
        <ele>94</ele>
        <time>2015-05-12T13:04:25.000Z</time>
      </trkpt>
      <trkpt lat="50.81965" lon="1.92092">
        <ele>93</ele>
        <time>2015-05-12T13:04:26.000Z</time>
      </trkpt>
      <trkpt lat="50.81965" lon="1.92092">
        <ele>93</ele>
        <time>2015-05-12T13:04:27.000Z</time>
      </trkpt>
      <trkpt lat="50.81964" lon="1.92091">
        <ele>93</ele>
        <time>2015-05-12T13:04:28.000Z</time>
      </trkpt>
      <trkpt lat="50.81963" lon="1.92091">
        <ele>93</ele>
        <time>2015-05-12T13:04:29.000Z</time>
      </trkpt>
      <trkpt lat="50.81962" lon="1.9209">
        <ele>93</ele>
        <time>2015-05-12T13:04:30.000Z</time>
      </trkpt>
      <trkpt lat="50.81962" lon="1.9209">
        <ele>93</ele>
        <time>2015-05-12T13:04:31.000Z</time>
      </trkpt>
      <trkpt lat="50.81961" lon="1.92089">
        <ele>93</ele>
        <time>2015-05-12T13:04:32.000Z</time>
      </trkpt>
      <trkpt lat="50.81961" lon="1.92089">
        <ele>93</ele>
        <time>2015-05-12T13:04:33.000Z</time>
      </trkpt>
      <trkpt lat="50.8196" lon="1.92089">
        <ele>93</ele>
        <time>2015-05-12T13:04:34.000Z</time>
      </trkpt>
      <trkpt lat="50.8196" lon="1.92088">
        <ele>93</ele>
        <time>2015-05-12T13:04:35.000Z</time>
      </trkpt>
      <trkpt lat="50.8196" lon="1.92089">
        <ele>93</ele>
        <time>2015-05-12T13:04:36.000Z</time>
      </trkpt>
      <trkpt lat="50.8196" lon="1.92089">
        <ele>93</ele>
        <time>2015-05-12T13:04:37.000Z</time>
      </trkpt>
      <trkpt lat="50.8196" lon="1.92088">
        <ele>93</ele>
        <time>2015-05-12T13:04:38.000Z</time>
      </trkpt>
      <trkpt lat="50.8196" lon="1.92088">
        <ele>93</ele>
        <time>2015-05-12T13:04:39.000Z</time>
      </trkpt>
      <trkpt lat="50.8196" lon="1.92088">
        <ele>93</ele>
        <time>2015-05-12T13:04:40.000Z</time>
      </trkpt>
      <trkpt lat="50.8196" lon="1.92088">
        <ele>93</ele>
        <time>2015-05-12T13:04:41.000Z</time>
      </trkpt>
      <trkpt lat="50.8196" lon="1.92089">
        <ele>93</ele>
        <time>2015-05-12T13:04:42.000Z</time>
      </trkpt>
      <trkpt lat="50.81959" lon="1.92089">
        <ele>94</ele>
        <time>2015-05-12T13:04:43.000Z</time>
      </trkpt>
      <trkpt lat="50.81959" lon="1.92088">
        <ele>94</ele>
        <time>2015-05-12T13:04:44.000Z</time>
      </trkpt>
      <trkpt lat="50.81958" lon="1.92088">
        <ele>94</ele>
        <time>2015-05-12T13:04:45.000Z</time>
      </trkpt>
      <trkpt lat="50.81958" lon="1.92088">
        <ele>94</ele>
        <time>2015-05-12T13:04:46.000Z</time>
      </trkpt>
      <trkpt lat="50.81957" lon="1.92087">
        <ele>93</ele>
        <time>2015-05-12T13:04:47.000Z</time>
      </trkpt>
      <trkpt lat="50.81956" lon="1.92086">
        <ele>93</ele>
        <time>2015-05-12T13:04:48.000Z</time>
      </trkpt>
      <trkpt lat="50.81955" lon="1.92086">
        <ele>93</ele>
        <time>2015-05-12T13:04:49.000Z</time>
      </trkpt>
      <trkpt lat="50.81954" lon="1.92085">
        <ele>93</ele>
        <time>2015-05-12T13:04:50.000Z</time>
      </trkpt>
      <trkpt lat="50.81953" lon="1.92085">
        <ele>93</ele>
        <time>2015-05-12T13:04:51.000Z</time>
      </trkpt>
      <trkpt lat="50.81952" lon="1.92084">
        <ele>93</ele>
        <time>2015-05-12T13:04:52.000Z</time>
      </trkpt>
      <trkpt lat="50.81951" lon="1.92083">
        <ele>93</ele>
        <time>2015-05-12T13:04:53.000Z</time>
      </trkpt>
      <trkpt lat="50.8195" lon="1.92083">
        <ele>94</ele>
        <time>2015-05-12T13:04:54.000Z</time>
      </trkpt>
      <trkpt lat="50.81949" lon="1.92082">
        <ele>94</ele>
        <time>2015-05-12T13:04:55.000Z</time>
      </trkpt>
      <trkpt lat="50.81948" lon="1.92082">
        <ele>94</ele>
        <time>2015-05-12T13:04:56.000Z</time>
      </trkpt>
      <trkpt lat="50.81947" lon="1.92082">
        <ele>94</ele>
        <time>2015-05-12T13:04:57.000Z</time>
      </trkpt>
      <trkpt lat="50.81946" lon="1.92082">
        <ele>94</ele>
        <time>2015-05-12T13:04:58.000Z</time>
      </trkpt>
      <trkpt lat="50.81945" lon="1.92081">
        <ele>94</ele>
        <time>2015-05-12T13:04:59.000Z</time>
      </trkpt>
      <trkpt lat="50.81944" lon="1.92081">
        <ele>93</ele>
        <time>2015-05-12T13:05:00.000Z</time>
      </trkpt>
      <trkpt lat="50.81943" lon="1.9208">
        <ele>93</ele>
        <time>2015-05-12T13:05:01.000Z</time>
      </trkpt>
      <trkpt lat="50.81942" lon="1.92079">
        <ele>94</ele>
        <time>2015-05-12T13:05:02.000Z</time>
      </trkpt>
      <trkpt lat="50.81941" lon="1.92079">
        <ele>94</ele>
        <time>2015-05-12T13:05:03.000Z</time>
      </trkpt>
      <trkpt lat="50.8194" lon="1.92079">
        <ele>94</ele>
        <time>2015-05-12T13:05:04.000Z</time>
      </trkpt>
      <trkpt lat="50.8194" lon="1.92079">
        <ele>93</ele>
        <time>2015-05-12T13:05:05.000Z</time>
      </trkpt>
      <trkpt lat="50.8194" lon="1.92078">
        <ele>93</ele>
        <time>2015-05-12T13:05:06.000Z</time>
      </trkpt>
      <trkpt lat="50.8194" lon="1.92078">
        <ele>93</ele>
        <time>2015-05-12T13:05:07.000Z</time>
      </trkpt>
      <trkpt lat="50.8194" lon="1.92078">
        <ele>93</ele>
        <time>2015-05-12T13:05:08.000Z</time>
      </trkpt>
      <trkpt lat="50.8194" lon="1.92078">
        <ele>92</ele>
        <time>2015-05-12T13:05:09.000Z</time>
      </trkpt>
      <trkpt lat="50.81939" lon="1.92078">
        <ele>92</ele>
        <time>2015-05-12T13:05:10.000Z</time>
      </trkpt>
      <trkpt lat="50.81939" lon="1.92077">
        <ele>91</ele>
        <time>2015-05-12T13:05:11.000Z</time>
      </trkpt>
      <trkpt lat="50.81938" lon="1.92076">
        <ele>91</ele>
        <time>2015-05-12T13:05:12.000Z</time>
      </trkpt>
      <trkpt lat="50.81937" lon="1.92075">
        <ele>91</ele>
        <time>2015-05-12T13:05:13.000Z</time>
      </trkpt>
      <trkpt lat="50.81936" lon="1.92075">
        <ele>91</ele>
        <time>2015-05-12T13:05:14.000Z</time>
      </trkpt>
      <trkpt lat="50.81934" lon="1.92075">
        <ele>91</ele>
        <time>2015-05-12T13:05:15.000Z</time>
      </trkpt>
      <trkpt lat="50.81933" lon="1.92074">
        <ele>91</ele>
        <time>2015-05-12T13:05:16.000Z</time>
      </trkpt>
      <trkpt lat="50.81932" lon="1.92074">
        <ele>91</ele>
        <time>2015-05-12T13:05:17.000Z</time>
      </trkpt>
      <trkpt lat="50.81931" lon="1.92073">
        <ele>91</ele>
        <time>2015-05-12T13:05:18.000Z</time>
      </trkpt>
      <trkpt lat="50.8193" lon="1.92073">
        <ele>91</ele>
        <time>2015-05-12T13:05:19.000Z</time>
      </trkpt>
      <trkpt lat="50.81929" lon="1.92072">
        <ele>91</ele>
        <time>2015-05-12T13:05:20.000Z</time>
      </trkpt>
      <trkpt lat="50.81927" lon="1.92071">
        <ele>91</ele>
        <time>2015-05-12T13:05:21.000Z</time>
      </trkpt>
      <trkpt lat="50.81926" lon="1.9207">
        <ele>91</ele>
        <time>2015-05-12T13:05:22.000Z</time>
      </trkpt>
      <trkpt lat="50.81925" lon="1.92069">
        <ele>91</ele>
        <time>2015-05-12T13:05:23.000Z</time>
      </trkpt>
      <trkpt lat="50.81924" lon="1.92069">
        <ele>91</ele>
        <time>2015-05-12T13:05:24.000Z</time>
      </trkpt>
      <trkpt lat="50.81923" lon="1.92068">
        <ele>92</ele>
        <time>2015-05-12T13:05:25.000Z</time>
      </trkpt>
      <trkpt lat="50.81922" lon="1.92067">
        <ele>92</ele>
        <time>2015-05-12T13:05:26.000Z</time>
      </trkpt>
      <trkpt lat="50.8192" lon="1.92067">
        <ele>91</ele>
        <time>2015-05-12T13:05:27.000Z</time>
      </trkpt>
      <trkpt lat="50.81919" lon="1.92066">
        <ele>91</ele>
        <time>2015-05-12T13:05:28.000Z</time>
      </trkpt>
      <trkpt lat="50.81918" lon="1.92065">
        <ele>91</ele>
        <time>2015-05-12T13:05:29.000Z</time>
      </trkpt>
      <trkpt lat="50.81916" lon="1.92065">
        <ele>92</ele>
        <time>2015-05-12T13:05:30.000Z</time>
      </trkpt>
      <trkpt lat="50.81915" lon="1.92064">
        <ele>91</ele>
        <time>2015-05-12T13:05:31.000Z</time>
      </trkpt>
      <trkpt lat="50.81914" lon="1.92064">
        <ele>91</ele>
        <time>2015-05-12T13:05:32.000Z</time>
      </trkpt>
      <trkpt lat="50.81913" lon="1.92063">
        <ele>91</ele>
        <time>2015-05-12T13:05:33.000Z</time>
      </trkpt>
      <trkpt lat="50.81912" lon="1.92062">
        <ele>92</ele>
        <time>2015-05-12T13:05:34.000Z</time>
      </trkpt>
      <trkpt lat="50.8191" lon="1.92061">
        <ele>92</ele>
        <time>2015-05-12T13:05:35.000Z</time>
      </trkpt>
      <trkpt lat="50.81909" lon="1.92061">
        <ele>92</ele>
        <time>2015-05-12T13:05:36.000Z</time>
      </trkpt>
      <trkpt lat="50.81908" lon="1.9206">
        <ele>92</ele>
        <time>2015-05-12T13:05:37.000Z</time>
      </trkpt>
      <trkpt lat="50.81906" lon="1.92059">
        <ele>92</ele>
        <time>2015-05-12T13:05:38.000Z</time>
      </trkpt>
      <trkpt lat="50.81905" lon="1.92059">
        <ele>92</ele>
        <time>2015-05-12T13:05:39.000Z</time>
      </trkpt>
      <trkpt lat="50.81904" lon="1.92058">
        <ele>92</ele>
        <time>2015-05-12T13:05:40.000Z</time>
      </trkpt>
      <trkpt lat="50.81903" lon="1.92057">
        <ele>92</ele>
        <time>2015-05-12T13:05:41.000Z</time>
      </trkpt>
      <trkpt lat="50.81902" lon="1.92056">
        <ele>92</ele>
        <time>2015-05-12T13:05:42.000Z</time>
      </trkpt>
      <trkpt lat="50.81901" lon="1.92055">
        <ele>92</ele>
        <time>2015-05-12T13:05:43.000Z</time>
      </trkpt>
      <trkpt lat="50.819" lon="1.92055">
        <ele>92</ele>
        <time>2015-05-12T13:05:44.000Z</time>
      </trkpt>
      <trkpt lat="50.81899" lon="1.92054">
        <ele>92</ele>
        <time>2015-05-12T13:05:45.000Z</time>
      </trkpt>
      <trkpt lat="50.81898" lon="1.92054">
        <ele>92</ele>
        <time>2015-05-12T13:05:46.000Z</time>
      </trkpt>
      <trkpt lat="50.81897" lon="1.92053">
        <ele>92</ele>
        <time>2015-05-12T13:05:47.000Z</time>
      </trkpt>
      <trkpt lat="50.81895" lon="1.92053">
        <ele>92</ele>
        <time>2015-05-12T13:05:48.000Z</time>
      </trkpt>
      <trkpt lat="50.81894" lon="1.92052">
        <ele>92</ele>
        <time>2015-05-12T13:05:49.000Z</time>
      </trkpt>
      <trkpt lat="50.81892" lon="1.92052">
        <ele>91</ele>
        <time>2015-05-12T13:05:50.000Z</time>
      </trkpt>
      <trkpt lat="50.81892" lon="1.92051">
        <ele>91</ele>
        <time>2015-05-12T13:05:51.000Z</time>
      </trkpt>
      <trkpt lat="50.81891" lon="1.9205">
        <ele>91</ele>
        <time>2015-05-12T13:05:52.000Z</time>
      </trkpt>
      <trkpt lat="50.8189" lon="1.9205">
        <ele>91</ele>
        <time>2015-05-12T13:05:53.000Z</time>
      </trkpt>
      <trkpt lat="50.81888" lon="1.92049">
        <ele>92</ele>
        <time>2015-05-12T13:05:54.000Z</time>
      </trkpt>
      <trkpt lat="50.81887" lon="1.92049">
        <ele>92</ele>
        <time>2015-05-12T13:05:55.000Z</time>
      </trkpt>
      <trkpt lat="50.81886" lon="1.92048">
        <ele>91</ele>
        <time>2015-05-12T13:05:56.000Z</time>
      </trkpt>
      <trkpt lat="50.81885" lon="1.92047">
        <ele>91</ele>
        <time>2015-05-12T13:05:57.000Z</time>
      </trkpt>
      <trkpt lat="50.81884" lon="1.92046">
        <ele>91</ele>
        <time>2015-05-12T13:05:58.000Z</time>
      </trkpt>
      <trkpt lat="50.81883" lon="1.92046">
        <ele>91</ele>
        <time>2015-05-12T13:05:59.000Z</time>
      </trkpt>
      <trkpt lat="50.81882" lon="1.92045">
        <ele>91</ele>
        <time>2015-05-12T13:06:00.000Z</time>
      </trkpt>
      <trkpt lat="50.81881" lon="1.92044">
        <ele>91</ele>
        <time>2015-05-12T13:06:01.000Z</time>
      </trkpt>
      <trkpt lat="50.8188" lon="1.92043">
        <ele>91</ele>
        <time>2015-05-12T13:06:02.000Z</time>
      </trkpt>
      <trkpt lat="50.81879" lon="1.92042">
        <ele>91</ele>
        <time>2015-05-12T13:06:03.000Z</time>
      </trkpt>
      <trkpt lat="50.81878" lon="1.92041">
        <ele>91</ele>
        <time>2015-05-12T13:06:04.000Z</time>
      </trkpt>
      <trkpt lat="50.81877" lon="1.9204">
        <ele>91</ele>
        <time>2015-05-12T13:06:05.000Z</time>
      </trkpt>
      <trkpt lat="50.81876" lon="1.9204">
        <ele>91</ele>
        <time>2015-05-12T13:06:06.000Z</time>
      </trkpt>
      <trkpt lat="50.81875" lon="1.92039">
        <ele>91</ele>
        <time>2015-05-12T13:06:07.000Z</time>
      </trkpt>
      <trkpt lat="50.81874" lon="1.92037">
        <ele>91</ele>
        <time>2015-05-12T13:06:08.000Z</time>
      </trkpt>
      <trkpt lat="50.81874" lon="1.92036">
        <ele>91</ele>
        <time>2015-05-12T13:06:09.000Z</time>
      </trkpt>
      <trkpt lat="50.81873" lon="1.92034">
        <ele>91</ele>
        <time>2015-05-12T13:06:10.000Z</time>
      </trkpt>
      <trkpt lat="50.81872" lon="1.92033">
        <ele>91</ele>
        <time>2015-05-12T13:06:11.000Z</time>
      </trkpt>
      <trkpt lat="50.8187" lon="1.92032">
        <ele>91</ele>
        <time>2015-05-12T13:06:12.000Z</time>
      </trkpt>
      <trkpt lat="50.81869" lon="1.92031">
        <ele>90</ele>
        <time>2015-05-12T13:06:13.000Z</time>
      </trkpt>
      <trkpt lat="50.81868" lon="1.9203">
        <ele>90</ele>
        <time>2015-05-12T13:06:14.000Z</time>
      </trkpt>
      <trkpt lat="50.81867" lon="1.92029">
        <ele>90</ele>
        <time>2015-05-12T13:06:15.000Z</time>
      </trkpt>
      <trkpt lat="50.81866" lon="1.92028">
        <ele>90</ele>
        <time>2015-05-12T13:06:16.000Z</time>
      </trkpt>
      <trkpt lat="50.81865" lon="1.92026">
        <ele>91</ele>
        <time>2015-05-12T13:06:17.000Z</time>
      </trkpt>
      <trkpt lat="50.81864" lon="1.92025">
        <ele>91</ele>
        <time>2015-05-12T13:06:18.000Z</time>
      </trkpt>
      <trkpt lat="50.81863" lon="1.92024">
        <ele>91</ele>
        <time>2015-05-12T13:06:19.000Z</time>
      </trkpt>
      <trkpt lat="50.81861" lon="1.92023">
        <ele>91</ele>
        <time>2015-05-12T13:06:20.000Z</time>
      </trkpt>
      <trkpt lat="50.8186" lon="1.92021">
        <ele>92</ele>
        <time>2015-05-12T13:06:21.000Z</time>
      </trkpt>
      <trkpt lat="50.81859" lon="1.9202">
        <ele>92</ele>
        <time>2015-05-12T13:06:22.000Z</time>
      </trkpt>
      <trkpt lat="50.81858" lon="1.92019">
        <ele>92</ele>
        <time>2015-05-12T13:06:23.000Z</time>
      </trkpt>
      <trkpt lat="50.81858" lon="1.92018">
        <ele>92</ele>
        <time>2015-05-12T13:06:24.000Z</time>
      </trkpt>
      <trkpt lat="50.81857" lon="1.92016">
        <ele>93</ele>
        <time>2015-05-12T13:06:25.000Z</time>
      </trkpt>
      <trkpt lat="50.81856" lon="1.92015">
        <ele>93</ele>
        <time>2015-05-12T13:06:26.000Z</time>
      </trkpt>
      <trkpt lat="50.81855" lon="1.92014">
        <ele>93</ele>
        <time>2015-05-12T13:06:27.000Z</time>
      </trkpt>
      <trkpt lat="50.81854" lon="1.92013">
        <ele>93</ele>
        <time>2015-05-12T13:06:28.000Z</time>
      </trkpt>
      <trkpt lat="50.81854" lon="1.92012">
        <ele>94</ele>
        <time>2015-05-12T13:06:29.000Z</time>
      </trkpt>
      <trkpt lat="50.81853" lon="1.92011">
        <ele>94</ele>
        <time>2015-05-12T13:06:30.000Z</time>
      </trkpt>
      <trkpt lat="50.81852" lon="1.9201">
        <ele>94</ele>
        <time>2015-05-12T13:06:31.000Z</time>
      </trkpt>
      <trkpt lat="50.81851" lon="1.92009">
        <ele>94</ele>
        <time>2015-05-12T13:06:32.000Z</time>
      </trkpt>
      <trkpt lat="50.8185" lon="1.92008">
        <ele>94</ele>
        <time>2015-05-12T13:06:33.000Z</time>
      </trkpt>
      <trkpt lat="50.81848" lon="1.92006">
        <ele>94</ele>
        <time>2015-05-12T13:06:34.000Z</time>
      </trkpt>
      <trkpt lat="50.81847" lon="1.92005">
        <ele>94</ele>
        <time>2015-05-12T13:06:35.000Z</time>
      </trkpt>
      <trkpt lat="50.81846" lon="1.92004">
        <ele>94</ele>
        <time>2015-05-12T13:06:36.000Z</time>
      </trkpt>
      <trkpt lat="50.81845" lon="1.92002">
        <ele>94</ele>
        <time>2015-05-12T13:06:37.000Z</time>
      </trkpt>
      <trkpt lat="50.81844" lon="1.92001">
        <ele>94</ele>
        <time>2015-05-12T13:06:38.000Z</time>
      </trkpt>
      <trkpt lat="50.81843" lon="1.92">
        <ele>94</ele>
        <time>2015-05-12T13:06:39.000Z</time>
      </trkpt>
      <trkpt lat="50.81842" lon="1.91999">
        <ele>95</ele>
        <time>2015-05-12T13:06:40.000Z</time>
      </trkpt>
      <trkpt lat="50.81841" lon="1.91998">
        <ele>94</ele>
        <time>2015-05-12T13:06:41.000Z</time>
      </trkpt>
      <trkpt lat="50.81839" lon="1.91997">
        <ele>94</ele>
        <time>2015-05-12T13:06:42.000Z</time>
      </trkpt>
      <trkpt lat="50.81838" lon="1.91997">
        <ele>94</ele>
        <time>2015-05-12T13:06:43.000Z</time>
      </trkpt>
      <trkpt lat="50.81837" lon="1.91996">
        <ele>94</ele>
        <time>2015-05-12T13:06:44.000Z</time>
      </trkpt>
      <trkpt lat="50.81835" lon="1.91995">
        <ele>94</ele>
        <time>2015-05-12T13:06:45.000Z</time>
      </trkpt>
      <trkpt lat="50.81834" lon="1.91994">
        <ele>94</ele>
        <time>2015-05-12T13:06:46.000Z</time>
      </trkpt>
      <trkpt lat="50.81833" lon="1.91994">
        <ele>93</ele>
        <time>2015-05-12T13:06:47.000Z</time>
      </trkpt>
      <trkpt lat="50.81832" lon="1.91993">
        <ele>94</ele>
        <time>2015-05-12T13:06:48.000Z</time>
      </trkpt>
      <trkpt lat="50.81831" lon="1.91993">
        <ele>94</ele>
        <time>2015-05-12T13:06:49.000Z</time>
      </trkpt>
      <trkpt lat="50.8183" lon="1.91993">
        <ele>94</ele>
        <time>2015-05-12T13:06:50.000Z</time>
      </trkpt>
      <trkpt lat="50.8183" lon="1.91992">
        <ele>94</ele>
        <time>2015-05-12T13:06:51.000Z</time>
      </trkpt>
      <trkpt lat="50.8183" lon="1.91992">
        <ele>94</ele>
        <time>2015-05-12T13:06:52.000Z</time>
      </trkpt>
      <trkpt lat="50.81829" lon="1.91992">
        <ele>94</ele>
        <time>2015-05-12T13:06:53.000Z</time>
      </trkpt>
      <trkpt lat="50.81829" lon="1.91992">
        <ele>94</ele>
        <time>2015-05-12T13:06:54.000Z</time>
      </trkpt>
      <trkpt lat="50.81828" lon="1.91992">
        <ele>94</ele>
        <time>2015-05-12T13:06:55.000Z</time>
      </trkpt>
      <trkpt lat="50.81827" lon="1.91992">
        <ele>94</ele>
        <time>2015-05-12T13:06:56.000Z</time>
      </trkpt>
      <trkpt lat="50.81826" lon="1.91991">
        <ele>93</ele>
        <time>2015-05-12T13:06:57.000Z</time>
      </trkpt>
      <trkpt lat="50.81825" lon="1.91991">
        <ele>93</ele>
        <time>2015-05-12T13:06:58.000Z</time>
      </trkpt>
      <trkpt lat="50.81824" lon="1.9199">
        <ele>93</ele>
        <time>2015-05-12T13:06:59.000Z</time>
      </trkpt>
      <trkpt lat="50.81823" lon="1.9199">
        <ele>93</ele>
        <time>2015-05-12T13:07:00.000Z</time>
      </trkpt>
      <trkpt lat="50.81822" lon="1.91989">
        <ele>93</ele>
        <time>2015-05-12T13:07:01.000Z</time>
      </trkpt>
      <trkpt lat="50.81821" lon="1.91989">
        <ele>93</ele>
        <time>2015-05-12T13:07:02.000Z</time>
      </trkpt>
      <trkpt lat="50.81819" lon="1.91988">
        <ele>93</ele>
        <time>2015-05-12T13:07:03.000Z</time>
      </trkpt>
      <trkpt lat="50.81818" lon="1.91988">
        <ele>93</ele>
        <time>2015-05-12T13:07:04.000Z</time>
      </trkpt>
      <trkpt lat="50.81817" lon="1.91987">
        <ele>94</ele>
        <time>2015-05-12T13:07:05.000Z</time>
      </trkpt>
      <trkpt lat="50.81816" lon="1.91986">
        <ele>94</ele>
        <time>2015-05-12T13:07:06.000Z</time>
      </trkpt>
      <trkpt lat="50.81815" lon="1.91986">
        <ele>94</ele>
        <time>2015-05-12T13:07:07.000Z</time>
      </trkpt>
      <trkpt lat="50.81814" lon="1.91986">
        <ele>93</ele>
        <time>2015-05-12T13:07:08.000Z</time>
      </trkpt>
      <trkpt lat="50.81813" lon="1.91985">
        <ele>93</ele>
        <time>2015-05-12T13:07:09.000Z</time>
      </trkpt>
      <trkpt lat="50.81812" lon="1.91985">
        <ele>93</ele>
        <time>2015-05-12T13:07:10.000Z</time>
      </trkpt>
      <trkpt lat="50.81811" lon="1.91984">
        <ele>93</ele>
        <time>2015-05-12T13:07:11.000Z</time>
      </trkpt>
      <trkpt lat="50.8181" lon="1.91984">
        <ele>93</ele>
        <time>2015-05-12T13:07:12.000Z</time>
      </trkpt>
      <trkpt lat="50.81809" lon="1.91984">
        <ele>93</ele>
        <time>2015-05-12T13:07:13.000Z</time>
      </trkpt>
      <trkpt lat="50.81807" lon="1.91984">
        <ele>94</ele>
        <time>2015-05-12T13:07:14.000Z</time>
      </trkpt>
      <trkpt lat="50.81806" lon="1.91983">
        <ele>94</ele>
        <time>2015-05-12T13:07:15.000Z</time>
      </trkpt>
      <trkpt lat="50.81805" lon="1.91983">
        <ele>94</ele>
        <time>2015-05-12T13:07:16.000Z</time>
      </trkpt>
      <trkpt lat="50.81804" lon="1.91982">
        <ele>94</ele>
        <time>2015-05-12T13:07:17.000Z</time>
      </trkpt>
      <trkpt lat="50.81803" lon="1.91982">
        <ele>93</ele>
        <time>2015-05-12T13:07:18.000Z</time>
      </trkpt>
      <trkpt lat="50.81802" lon="1.91981">
        <ele>93</ele>
        <time>2015-05-12T13:07:19.000Z</time>
      </trkpt>
      <trkpt lat="50.81801" lon="1.9198">
        <ele>93</ele>
        <time>2015-05-12T13:07:20.000Z</time>
      </trkpt>
      <trkpt lat="50.81799" lon="1.91979">
        <ele>93</ele>
        <time>2015-05-12T13:07:21.000Z</time>
      </trkpt>
      <trkpt lat="50.81798" lon="1.91978">
        <ele>93</ele>
        <time>2015-05-12T13:07:22.000Z</time>
      </trkpt>
      <trkpt lat="50.81797" lon="1.91977">
        <ele>93</ele>
        <time>2015-05-12T13:07:23.000Z</time>
      </trkpt>
      <trkpt lat="50.81796" lon="1.91977">
        <ele>93</ele>
        <time>2015-05-12T13:07:24.000Z</time>
      </trkpt>
      <trkpt lat="50.81795" lon="1.91976">
        <ele>92</ele>
        <time>2015-05-12T13:07:25.000Z</time>
      </trkpt>
      <trkpt lat="50.81794" lon="1.91975">
        <ele>92</ele>
        <time>2015-05-12T13:07:26.000Z</time>
      </trkpt>
      <trkpt lat="50.81793" lon="1.91973">
        <ele>92</ele>
        <time>2015-05-12T13:07:27.000Z</time>
      </trkpt>
      <trkpt lat="50.81792" lon="1.91973">
        <ele>92</ele>
        <time>2015-05-12T13:07:28.000Z</time>
      </trkpt>
      <trkpt lat="50.81791" lon="1.91972">
        <ele>92</ele>
        <time>2015-05-12T13:07:29.000Z</time>
      </trkpt>
      <trkpt lat="50.8179" lon="1.91971">
        <ele>92</ele>
        <time>2015-05-12T13:07:30.000Z</time>
      </trkpt>
      <trkpt lat="50.81788" lon="1.9197">
        <ele>91</ele>
        <time>2015-05-12T13:07:31.000Z</time>
      </trkpt>
      <trkpt lat="50.81787" lon="1.91969">
        <ele>91</ele>
        <time>2015-05-12T13:07:32.000Z</time>
      </trkpt>
      <trkpt lat="50.81785" lon="1.91968">
        <ele>91</ele>
        <time>2015-05-12T13:07:33.000Z</time>
      </trkpt>
      <trkpt lat="50.81784" lon="1.91968">
        <ele>91</ele>
        <time>2015-05-12T13:07:34.000Z</time>
      </trkpt>
      <trkpt lat="50.81783" lon="1.91967">
        <ele>90</ele>
        <time>2015-05-12T13:07:35.000Z</time>
      </trkpt>
      <trkpt lat="50.81782" lon="1.91966">
        <ele>90</ele>
        <time>2015-05-12T13:07:36.000Z</time>
      </trkpt>
      <trkpt lat="50.81781" lon="1.91966">
        <ele>91</ele>
        <time>2015-05-12T13:07:37.000Z</time>
      </trkpt>
      <trkpt lat="50.8178" lon="1.91966">
        <ele>91</ele>
        <time>2015-05-12T13:07:38.000Z</time>
      </trkpt>
      <trkpt lat="50.81778" lon="1.91965">
        <ele>91</ele>
        <time>2015-05-12T13:07:39.000Z</time>
      </trkpt>
      <trkpt lat="50.81777" lon="1.91964">
        <ele>91</ele>
        <time>2015-05-12T13:07:40.000Z</time>
      </trkpt>
      <trkpt lat="50.81776" lon="1.91963">
        <ele>91</ele>
        <time>2015-05-12T13:07:41.000Z</time>
      </trkpt>
      <trkpt lat="50.81775" lon="1.91962">
        <ele>91</ele>
        <time>2015-05-12T13:07:42.000Z</time>
      </trkpt>
      <trkpt lat="50.81774" lon="1.91961">
        <ele>90</ele>
        <time>2015-05-12T13:07:43.000Z</time>
      </trkpt>
      <trkpt lat="50.81773" lon="1.9196">
        <ele>90</ele>
        <time>2015-05-12T13:07:44.000Z</time>
      </trkpt>
      <trkpt lat="50.81771" lon="1.91959">
        <ele>90</ele>
        <time>2015-05-12T13:07:45.000Z</time>
      </trkpt>
      <trkpt lat="50.8177" lon="1.91958">
        <ele>89</ele>
        <time>2015-05-12T13:07:46.000Z</time>
      </trkpt>
      <trkpt lat="50.81769" lon="1.91957">
        <ele>89</ele>
        <time>2015-05-12T13:07:47.000Z</time>
      </trkpt>
      <trkpt lat="50.81768" lon="1.91956">
        <ele>89</ele>
        <time>2015-05-12T13:07:48.000Z</time>
      </trkpt>
      <trkpt lat="50.81767" lon="1.91955">
        <ele>89</ele>
        <time>2015-05-12T13:07:49.000Z</time>
      </trkpt>
      <trkpt lat="50.81766" lon="1.91954">
        <ele>88</ele>
        <time>2015-05-12T13:07:50.000Z</time>
      </trkpt>
      <trkpt lat="50.81765" lon="1.91953">
        <ele>88</ele>
        <time>2015-05-12T13:07:51.000Z</time>
      </trkpt>
      <trkpt lat="50.81763" lon="1.91952">
        <ele>88</ele>
        <time>2015-05-12T13:07:52.000Z</time>
      </trkpt>
      <trkpt lat="50.81762" lon="1.91951">
        <ele>88</ele>
        <time>2015-05-12T13:07:53.000Z</time>
      </trkpt>
      <trkpt lat="50.81761" lon="1.91951">
        <ele>89</ele>
        <time>2015-05-12T13:07:54.000Z</time>
      </trkpt>
      <trkpt lat="50.8176" lon="1.91951">
        <ele>88</ele>
        <time>2015-05-12T13:07:55.000Z</time>
      </trkpt>
      <trkpt lat="50.81758" lon="1.9195">
        <ele>88</ele>
        <time>2015-05-12T13:07:56.000Z</time>
      </trkpt>
      <trkpt lat="50.81757" lon="1.91949">
        <ele>88</ele>
        <time>2015-05-12T13:07:57.000Z</time>
      </trkpt>
      <trkpt lat="50.81756" lon="1.91949">
        <ele>88</ele>
        <time>2015-05-12T13:07:58.000Z</time>
      </trkpt>
      <trkpt lat="50.81755" lon="1.91948">
        <ele>88</ele>
        <time>2015-05-12T13:07:59.000Z</time>
      </trkpt>
      <trkpt lat="50.81754" lon="1.91947">
        <ele>88</ele>
        <time>2015-05-12T13:08:00.000Z</time>
      </trkpt>
      <trkpt lat="50.81753" lon="1.91947">
        <ele>88</ele>
        <time>2015-05-12T13:08:01.000Z</time>
      </trkpt>
      <trkpt lat="50.81752" lon="1.91946">
        <ele>87</ele>
        <time>2015-05-12T13:08:02.000Z</time>
      </trkpt>
      <trkpt lat="50.8175" lon="1.91944">
        <ele>87</ele>
        <time>2015-05-12T13:08:03.000Z</time>
      </trkpt>
      <trkpt lat="50.81749" lon="1.91943">
        <ele>87</ele>
        <time>2015-05-12T13:08:04.000Z</time>
      </trkpt>
      <trkpt lat="50.81748" lon="1.91942">
        <ele>88</ele>
        <time>2015-05-12T13:08:05.000Z</time>
      </trkpt>
      <trkpt lat="50.81747" lon="1.91941">
        <ele>88</ele>
        <time>2015-05-12T13:08:06.000Z</time>
      </trkpt>
      <trkpt lat="50.81745" lon="1.9194">
        <ele>88</ele>
        <time>2015-05-12T13:08:07.000Z</time>
      </trkpt>
      <trkpt lat="50.81744" lon="1.9194">
        <ele>88</ele>
        <time>2015-05-12T13:08:08.000Z</time>
      </trkpt>
      <trkpt lat="50.81743" lon="1.91939">
        <ele>88</ele>
        <time>2015-05-12T13:08:09.000Z</time>
      </trkpt>
      <trkpt lat="50.81742" lon="1.91938">
        <ele>88</ele>
        <time>2015-05-12T13:08:10.000Z</time>
      </trkpt>
      <trkpt lat="50.81741" lon="1.91937">
        <ele>88</ele>
        <time>2015-05-12T13:08:11.000Z</time>
      </trkpt>
      <trkpt lat="50.8174" lon="1.91937">
        <ele>88</ele>
        <time>2015-05-12T13:08:12.000Z</time>
      </trkpt>
      <trkpt lat="50.81739" lon="1.91936">
        <ele>88</ele>
        <time>2015-05-12T13:08:13.000Z</time>
      </trkpt>
      <trkpt lat="50.81738" lon="1.91935">
        <ele>88</ele>
        <time>2015-05-12T13:08:14.000Z</time>
      </trkpt>
      <trkpt lat="50.81736" lon="1.91933">
        <ele>88</ele>
        <time>2015-05-12T13:08:15.000Z</time>
      </trkpt>
      <trkpt lat="50.81735" lon="1.91933">
        <ele>88</ele>
        <time>2015-05-12T13:08:16.000Z</time>
      </trkpt>
      <trkpt lat="50.81734" lon="1.91932">
        <ele>88</ele>
        <time>2015-05-12T13:08:17.000Z</time>
      </trkpt>
      <trkpt lat="50.81733" lon="1.91931">
        <ele>88</ele>
        <time>2015-05-12T13:08:18.000Z</time>
      </trkpt>
      <trkpt lat="50.81732" lon="1.9193">
        <ele>88</ele>
        <time>2015-05-12T13:08:19.000Z</time>
      </trkpt>
      <trkpt lat="50.81731" lon="1.91929">
        <ele>88</ele>
        <time>2015-05-12T13:08:20.000Z</time>
      </trkpt>
      <trkpt lat="50.8173" lon="1.91928">
        <ele>88</ele>
        <time>2015-05-12T13:08:21.000Z</time>
      </trkpt>
      <trkpt lat="50.81729" lon="1.91927">
        <ele>88</ele>
        <time>2015-05-12T13:08:22.000Z</time>
      </trkpt>
      <trkpt lat="50.81728" lon="1.91926">
        <ele>88</ele>
        <time>2015-05-12T13:08:23.000Z</time>
      </trkpt>
      <trkpt lat="50.81727" lon="1.91925">
        <ele>88</ele>
        <time>2015-05-12T13:08:24.000Z</time>
      </trkpt>
      <trkpt lat="50.81726" lon="1.91924">
        <ele>89</ele>
        <time>2015-05-12T13:08:25.000Z</time>
      </trkpt>
      <trkpt lat="50.81725" lon="1.91924">
        <ele>89</ele>
        <time>2015-05-12T13:08:26.000Z</time>
      </trkpt>
      <trkpt lat="50.81724" lon="1.91923">
        <ele>89</ele>
        <time>2015-05-12T13:08:27.000Z</time>
      </trkpt>
      <trkpt lat="50.81723" lon="1.91922">
        <ele>89</ele>
        <time>2015-05-12T13:08:28.000Z</time>
      </trkpt>
      <trkpt lat="50.81722" lon="1.91921">
        <ele>89</ele>
        <time>2015-05-12T13:08:29.000Z</time>
      </trkpt>
      <trkpt lat="50.81721" lon="1.9192">
        <ele>88</ele>
        <time>2015-05-12T13:08:30.000Z</time>
      </trkpt>
      <trkpt lat="50.8172" lon="1.91919">
        <ele>88</ele>
        <time>2015-05-12T13:08:31.000Z</time>
      </trkpt>
      <trkpt lat="50.81719" lon="1.91917">
        <ele>88</ele>
        <time>2015-05-12T13:08:32.000Z</time>
      </trkpt>
      <trkpt lat="50.81718" lon="1.91917">
        <ele>89</ele>
        <time>2015-05-12T13:08:33.000Z</time>
      </trkpt>
      <trkpt lat="50.81717" lon="1.91916">
        <ele>89</ele>
        <time>2015-05-12T13:08:34.000Z</time>
      </trkpt>
      <trkpt lat="50.81716" lon="1.91915">
        <ele>89</ele>
        <time>2015-05-12T13:08:35.000Z</time>
      </trkpt>
      <trkpt lat="50.81714" lon="1.91915">
        <ele>89</ele>
        <time>2015-05-12T13:08:36.000Z</time>
      </trkpt>
      <trkpt lat="50.81714" lon="1.91914">
        <ele>90</ele>
        <time>2015-05-12T13:08:37.000Z</time>
      </trkpt>
      <trkpt lat="50.81713" lon="1.91913">
        <ele>90</ele>
        <time>2015-05-12T13:08:38.000Z</time>
      </trkpt>
      <trkpt lat="50.81712" lon="1.91913">
        <ele>90</ele>
        <time>2015-05-12T13:08:39.000Z</time>
      </trkpt>
      <trkpt lat="50.81711" lon="1.91912">
        <ele>90</ele>
        <time>2015-05-12T13:08:40.000Z</time>
      </trkpt>
      <trkpt lat="50.8171" lon="1.91911">
        <ele>90</ele>
        <time>2015-05-12T13:08:41.000Z</time>
      </trkpt>
      <trkpt lat="50.81709" lon="1.9191">
        <ele>90</ele>
        <time>2015-05-12T13:08:42.000Z</time>
      </trkpt>
      <trkpt lat="50.81708" lon="1.91909">
        <ele>89</ele>
        <time>2015-05-12T13:08:43.000Z</time>
      </trkpt>
      <trkpt lat="50.81707" lon="1.91908">
        <ele>89</ele>
        <time>2015-05-12T13:08:44.000Z</time>
      </trkpt>
      <trkpt lat="50.81706" lon="1.91907">
        <ele>89</ele>
        <time>2015-05-12T13:08:45.000Z</time>
      </trkpt>
      <trkpt lat="50.81705" lon="1.91906">
        <ele>89</ele>
        <time>2015-05-12T13:08:46.000Z</time>
      </trkpt>
      <trkpt lat="50.81705" lon="1.91905">
        <ele>89</ele>
        <time>2015-05-12T13:08:47.000Z</time>
      </trkpt>
      <trkpt lat="50.81704" lon="1.91904">
        <ele>89</ele>
        <time>2015-05-12T13:08:48.000Z</time>
      </trkpt>
      <trkpt lat="50.81703" lon="1.91903">
        <ele>89</ele>
        <time>2015-05-12T13:08:49.000Z</time>
      </trkpt>
      <trkpt lat="50.81702" lon="1.91902">
        <ele>89</ele>
        <time>2015-05-12T13:08:50.000Z</time>
      </trkpt>
      <trkpt lat="50.817" lon="1.91902">
        <ele>89</ele>
        <time>2015-05-12T13:08:51.000Z</time>
      </trkpt>
      <trkpt lat="50.81699" lon="1.91901">
        <ele>89</ele>
        <time>2015-05-12T13:08:52.000Z</time>
      </trkpt>
      <trkpt lat="50.81698" lon="1.91901">
        <ele>89</ele>
        <time>2015-05-12T13:08:53.000Z</time>
      </trkpt>
      <trkpt lat="50.81697" lon="1.919">
        <ele>89</ele>
        <time>2015-05-12T13:08:54.000Z</time>
      </trkpt>
      <trkpt lat="50.81696" lon="1.919">
        <ele>89</ele>
        <time>2015-05-12T13:08:55.000Z</time>
      </trkpt>
      <trkpt lat="50.81695" lon="1.91899">
        <ele>89</ele>
        <time>2015-05-12T13:08:56.000Z</time>
      </trkpt>
      <trkpt lat="50.81694" lon="1.91898">
        <ele>88</ele>
        <time>2015-05-12T13:08:57.000Z</time>
      </trkpt>
      <trkpt lat="50.81693" lon="1.91897">
        <ele>88</ele>
        <time>2015-05-12T13:08:58.000Z</time>
      </trkpt>
      <trkpt lat="50.81692" lon="1.91896">
        <ele>88</ele>
        <time>2015-05-12T13:08:59.000Z</time>
      </trkpt>
      <trkpt lat="50.81691" lon="1.91895">
        <ele>88</ele>
        <time>2015-05-12T13:09:00.000Z</time>
      </trkpt>
      <trkpt lat="50.8169" lon="1.91894">
        <ele>88</ele>
        <time>2015-05-12T13:09:01.000Z</time>
      </trkpt>
      <trkpt lat="50.81689" lon="1.91893">
        <ele>88</ele>
        <time>2015-05-12T13:09:02.000Z</time>
      </trkpt>
      <trkpt lat="50.81688" lon="1.91892">
        <ele>88</ele>
        <time>2015-05-12T13:09:03.000Z</time>
      </trkpt>
      <trkpt lat="50.81687" lon="1.91892">
        <ele>88</ele>
        <time>2015-05-12T13:09:04.000Z</time>
      </trkpt>
      <trkpt lat="50.81687" lon="1.91891">
        <ele>88</ele>
        <time>2015-05-12T13:09:05.000Z</time>
      </trkpt>
      <trkpt lat="50.81686" lon="1.9189">
        <ele>87</ele>
        <time>2015-05-12T13:09:06.000Z</time>
      </trkpt>
      <trkpt lat="50.81685" lon="1.91889">
        <ele>88</ele>
        <time>2015-05-12T13:09:07.000Z</time>
      </trkpt>
      <trkpt lat="50.81684" lon="1.91888">
        <ele>88</ele>
        <time>2015-05-12T13:09:08.000Z</time>
      </trkpt>
      <trkpt lat="50.81683" lon="1.91887">
        <ele>88</ele>
        <time>2015-05-12T13:09:09.000Z</time>
      </trkpt>
      <trkpt lat="50.81681" lon="1.91887">
        <ele>88</ele>
        <time>2015-05-12T13:09:10.000Z</time>
      </trkpt>
      <trkpt lat="50.8168" lon="1.91886">
        <ele>88</ele>
        <time>2015-05-12T13:09:11.000Z</time>
      </trkpt>
      <trkpt lat="50.81679" lon="1.91886">
        <ele>88</ele>
        <time>2015-05-12T13:09:12.000Z</time>
      </trkpt>
      <trkpt lat="50.81678" lon="1.91885">
        <ele>88</ele>
        <time>2015-05-12T13:09:13.000Z</time>
      </trkpt>
      <trkpt lat="50.81678" lon="1.91885">
        <ele>88</ele>
        <time>2015-05-12T13:09:14.000Z</time>
      </trkpt>
      <trkpt lat="50.81677" lon="1.91884">
        <ele>88</ele>
        <time>2015-05-12T13:09:15.000Z</time>
      </trkpt>
      <trkpt lat="50.81675" lon="1.91883">
        <ele>88</ele>
        <time>2015-05-12T13:09:16.000Z</time>
      </trkpt>
      <trkpt lat="50.81674" lon="1.91882">
        <ele>88</ele>
        <time>2015-05-12T13:09:17.000Z</time>
      </trkpt>
      <trkpt lat="50.81673" lon="1.91882">
        <ele>88</ele>
        <time>2015-05-12T13:09:18.000Z</time>
      </trkpt>
      <trkpt lat="50.81672" lon="1.91881">
        <ele>88</ele>
        <time>2015-05-12T13:09:19.000Z</time>
      </trkpt>
      <trkpt lat="50.81671" lon="1.9188">
        <ele>88</ele>
        <time>2015-05-12T13:09:20.000Z</time>
      </trkpt>
      <trkpt lat="50.8167" lon="1.91879">
        <ele>88</ele>
        <time>2015-05-12T13:09:21.000Z</time>
      </trkpt>
      <trkpt lat="50.8167" lon="1.91878">
        <ele>88</ele>
        <time>2015-05-12T13:09:22.000Z</time>
      </trkpt>
      <trkpt lat="50.81669" lon="1.91878">
        <ele>88</ele>
        <time>2015-05-12T13:09:23.000Z</time>
      </trkpt>
      <trkpt lat="50.81668" lon="1.91877">
        <ele>88</ele>
        <time>2015-05-12T13:09:24.000Z</time>
      </trkpt>
      <trkpt lat="50.81667" lon="1.91876">
        <ele>88</ele>
        <time>2015-05-12T13:09:25.000Z</time>
      </trkpt>
      <trkpt lat="50.81665" lon="1.91875">
        <ele>88</ele>
        <time>2015-05-12T13:09:26.000Z</time>
      </trkpt>
      <trkpt lat="50.81664" lon="1.91874">
        <ele>89</ele>
        <time>2015-05-12T13:09:27.000Z</time>
      </trkpt>
      <trkpt lat="50.81663" lon="1.91874">
        <ele>89</ele>
        <time>2015-05-12T13:09:28.000Z</time>
      </trkpt>
      <trkpt lat="50.81662" lon="1.91873">
        <ele>89</ele>
        <time>2015-05-12T13:09:29.000Z</time>
      </trkpt>
      <trkpt lat="50.81661" lon="1.91873">
        <ele>89</ele>
        <time>2015-05-12T13:09:30.000Z</time>
      </trkpt>
      <trkpt lat="50.8166" lon="1.91871">
        <ele>89</ele>
        <time>2015-05-12T13:09:31.000Z</time>
      </trkpt>
      <trkpt lat="50.81659" lon="1.9187">
        <ele>89</ele>
        <time>2015-05-12T13:09:32.000Z</time>
      </trkpt>
      <trkpt lat="50.81658" lon="1.91869">
        <ele>89</ele>
        <time>2015-05-12T13:09:33.000Z</time>
      </trkpt>
      <trkpt lat="50.81657" lon="1.91868">
        <ele>89</ele>
        <time>2015-05-12T13:09:34.000Z</time>
      </trkpt>
      <trkpt lat="50.81657" lon="1.91867">
        <ele>88</ele>
        <time>2015-05-12T13:09:35.000Z</time>
      </trkpt>
      <trkpt lat="50.81656" lon="1.91866">
        <ele>88</ele>
        <time>2015-05-12T13:09:36.000Z</time>
      </trkpt>
      <trkpt lat="50.81655" lon="1.91865">
        <ele>88</ele>
        <time>2015-05-12T13:09:37.000Z</time>
      </trkpt>
      <trkpt lat="50.81654" lon="1.91865">
        <ele>88</ele>
        <time>2015-05-12T13:09:38.000Z</time>
      </trkpt>
      <trkpt lat="50.81653" lon="1.91864">
        <ele>88</ele>
        <time>2015-05-12T13:09:39.000Z</time>
      </trkpt>
      <trkpt lat="50.81652" lon="1.91864">
        <ele>88</ele>
        <time>2015-05-12T13:09:40.000Z</time>
      </trkpt>
      <trkpt lat="50.8165" lon="1.91864">
        <ele>88</ele>
        <time>2015-05-12T13:09:41.000Z</time>
      </trkpt>
      <trkpt lat="50.81649" lon="1.91863">
        <ele>87</ele>
        <time>2015-05-12T13:09:42.000Z</time>
      </trkpt>
      <trkpt lat="50.81648" lon="1.91863">
        <ele>87</ele>
        <time>2015-05-12T13:09:43.000Z</time>
      </trkpt>
      <trkpt lat="50.81647" lon="1.91862">
        <ele>87</ele>
        <time>2015-05-12T13:09:44.000Z</time>
      </trkpt>
      <trkpt lat="50.81646" lon="1.91862">
        <ele>87</ele>
        <time>2015-05-12T13:09:45.000Z</time>
      </trkpt>
      <trkpt lat="50.81645" lon="1.91861">
        <ele>87</ele>
        <time>2015-05-12T13:09:46.000Z</time>
      </trkpt>
      <trkpt lat="50.81644" lon="1.9186">
        <ele>86</ele>
        <time>2015-05-12T13:09:47.000Z</time>
      </trkpt>
      <trkpt lat="50.81643" lon="1.91859">
        <ele>86</ele>
        <time>2015-05-12T13:09:48.000Z</time>
      </trkpt>
      <trkpt lat="50.81642" lon="1.91859">
        <ele>86</ele>
        <time>2015-05-12T13:09:49.000Z</time>
      </trkpt>
      <trkpt lat="50.81641" lon="1.91858">
        <ele>86</ele>
        <time>2015-05-12T13:09:50.000Z</time>
      </trkpt>
      <trkpt lat="50.8164" lon="1.91858">
        <ele>86</ele>
        <time>2015-05-12T13:09:51.000Z</time>
      </trkpt>
      <trkpt lat="50.81638" lon="1.91857">
        <ele>86</ele>
        <time>2015-05-12T13:09:52.000Z</time>
      </trkpt>
      <trkpt lat="50.81637" lon="1.91856">
        <ele>86</ele>
        <time>2015-05-12T13:09:53.000Z</time>
      </trkpt>
      <trkpt lat="50.81636" lon="1.91855">
        <ele>86</ele>
        <time>2015-05-12T13:09:54.000Z</time>
      </trkpt>
      <trkpt lat="50.81635" lon="1.91855">
        <ele>86</ele>
        <time>2015-05-12T13:09:55.000Z</time>
      </trkpt>
      <trkpt lat="50.81634" lon="1.91854">
        <ele>86</ele>
        <time>2015-05-12T13:09:56.000Z</time>
      </trkpt>
      <trkpt lat="50.81632" lon="1.91854">
        <ele>86</ele>
        <time>2015-05-12T13:09:57.000Z</time>
      </trkpt>
      <trkpt lat="50.81631" lon="1.91853">
        <ele>87</ele>
        <time>2015-05-12T13:09:58.000Z</time>
      </trkpt>
      <trkpt lat="50.8163" lon="1.91853">
        <ele>86</ele>
        <time>2015-05-12T13:09:59.000Z</time>
      </trkpt>
      <trkpt lat="50.81629" lon="1.91852">
        <ele>86</ele>
        <time>2015-05-12T13:10:00.000Z</time>
      </trkpt>
      <trkpt lat="50.81628" lon="1.91852">
        <ele>86</ele>
        <time>2015-05-12T13:10:01.000Z</time>
      </trkpt>
      <trkpt lat="50.81627" lon="1.91851">
        <ele>86</ele>
        <time>2015-05-12T13:10:02.000Z</time>
      </trkpt>
      <trkpt lat="50.81626" lon="1.91851">
        <ele>86</ele>
        <time>2015-05-12T13:10:03.000Z</time>
      </trkpt>
      <trkpt lat="50.81624" lon="1.9185">
        <ele>85</ele>
        <time>2015-05-12T13:10:04.000Z</time>
      </trkpt>
      <trkpt lat="50.81623" lon="1.91849">
        <ele>85</ele>
        <time>2015-05-12T13:10:05.000Z</time>
      </trkpt>
      <trkpt lat="50.81622" lon="1.91849">
        <ele>85</ele>
        <time>2015-05-12T13:10:06.000Z</time>
      </trkpt>
      <trkpt lat="50.81621" lon="1.91848">
        <ele>85</ele>
        <time>2015-05-12T13:10:07.000Z</time>
      </trkpt>
      <trkpt lat="50.8162" lon="1.91847">
        <ele>85</ele>
        <time>2015-05-12T13:10:08.000Z</time>
      </trkpt>
      <trkpt lat="50.81619" lon="1.91846">
        <ele>85</ele>
        <time>2015-05-12T13:10:09.000Z</time>
      </trkpt>
      <trkpt lat="50.81618" lon="1.91846">
        <ele>85</ele>
        <time>2015-05-12T13:10:10.000Z</time>
      </trkpt>
      <trkpt lat="50.81617" lon="1.91845">
        <ele>84</ele>
        <time>2015-05-12T13:10:11.000Z</time>
      </trkpt>
      <trkpt lat="50.81616" lon="1.91844">
        <ele>85</ele>
        <time>2015-05-12T13:10:12.000Z</time>
      </trkpt>
      <trkpt lat="50.81615" lon="1.91843">
        <ele>84</ele>
        <time>2015-05-12T13:10:13.000Z</time>
      </trkpt>
      <trkpt lat="50.81614" lon="1.91843">
        <ele>85</ele>
        <time>2015-05-12T13:10:14.000Z</time>
      </trkpt>
      <trkpt lat="50.81613" lon="1.91842">
        <ele>85</ele>
        <time>2015-05-12T13:10:15.000Z</time>
      </trkpt>
      <trkpt lat="50.81611" lon="1.91842">
        <ele>85</ele>
        <time>2015-05-12T13:10:16.000Z</time>
      </trkpt>
      <trkpt lat="50.8161" lon="1.91842">
        <ele>85</ele>
        <time>2015-05-12T13:10:17.000Z</time>
      </trkpt>
      <trkpt lat="50.81609" lon="1.91841">
        <ele>85</ele>
        <time>2015-05-12T13:10:18.000Z</time>
      </trkpt>
      <trkpt lat="50.81608" lon="1.91841">
        <ele>85</ele>
        <time>2015-05-12T13:10:19.000Z</time>
      </trkpt>
      <trkpt lat="50.81607" lon="1.9184">
        <ele>85</ele>
        <time>2015-05-12T13:10:20.000Z</time>
      </trkpt>
      <trkpt lat="50.81606" lon="1.91839">
        <ele>85</ele>
        <time>2015-05-12T13:10:21.000Z</time>
      </trkpt>
      <trkpt lat="50.81604" lon="1.91838">
        <ele>85</ele>
        <time>2015-05-12T13:10:22.000Z</time>
      </trkpt>
      <trkpt lat="50.81603" lon="1.91838">
        <ele>84</ele>
        <time>2015-05-12T13:10:23.000Z</time>
      </trkpt>
      <trkpt lat="50.81603" lon="1.91837">
        <ele>84</ele>
        <time>2015-05-12T13:10:24.000Z</time>
      </trkpt>
      <trkpt lat="50.81602" lon="1.91836">
        <ele>84</ele>
        <time>2015-05-12T13:10:25.000Z</time>
      </trkpt>
      <trkpt lat="50.81601" lon="1.91836">
        <ele>85</ele>
        <time>2015-05-12T13:10:26.000Z</time>
      </trkpt>
      <trkpt lat="50.81599" lon="1.91835">
        <ele>86</ele>
        <time>2015-05-12T13:10:27.000Z</time>
      </trkpt>
      <trkpt lat="50.81598" lon="1.91834">
        <ele>86</ele>
        <time>2015-05-12T13:10:28.000Z</time>
      </trkpt>
      <trkpt lat="50.81597" lon="1.91834">
        <ele>86</ele>
        <time>2015-05-12T13:10:29.000Z</time>
      </trkpt>
      <trkpt lat="50.81596" lon="1.91833">
        <ele>86</ele>
        <time>2015-05-12T13:10:30.000Z</time>
      </trkpt>
      <trkpt lat="50.81595" lon="1.91833">
        <ele>86</ele>
        <time>2015-05-12T13:10:31.000Z</time>
      </trkpt>
      <trkpt lat="50.81594" lon="1.91832">
        <ele>86</ele>
        <time>2015-05-12T13:10:32.000Z</time>
      </trkpt>
      <trkpt lat="50.81593" lon="1.91832">
        <ele>86</ele>
        <time>2015-05-12T13:10:33.000Z</time>
      </trkpt>
      <trkpt lat="50.81592" lon="1.91832">
        <ele>87</ele>
        <time>2015-05-12T13:10:34.000Z</time>
      </trkpt>
      <trkpt lat="50.8159" lon="1.91831">
        <ele>87</ele>
        <time>2015-05-12T13:10:35.000Z</time>
      </trkpt>
      <trkpt lat="50.81589" lon="1.9183">
        <ele>87</ele>
        <time>2015-05-12T13:10:36.000Z</time>
      </trkpt>
      <trkpt lat="50.81588" lon="1.91829">
        <ele>86</ele>
        <time>2015-05-12T13:10:37.000Z</time>
      </trkpt>
      <trkpt lat="50.81587" lon="1.91829">
        <ele>85</ele>
        <time>2015-05-12T13:10:38.000Z</time>
      </trkpt>
      <trkpt lat="50.81586" lon="1.91828">
        <ele>85</ele>
        <time>2015-05-12T13:10:39.000Z</time>
      </trkpt>
      <trkpt lat="50.81585" lon="1.91827">
        <ele>85</ele>
        <time>2015-05-12T13:10:40.000Z</time>
      </trkpt>
      <trkpt lat="50.81584" lon="1.91827">
        <ele>85</ele>
        <time>2015-05-12T13:10:41.000Z</time>
      </trkpt>
      <trkpt lat="50.81583" lon="1.91826">
        <ele>85</ele>
        <time>2015-05-12T13:10:42.000Z</time>
      </trkpt>
      <trkpt lat="50.81581" lon="1.91826">
        <ele>86</ele>
        <time>2015-05-12T13:10:43.000Z</time>
      </trkpt>
      <trkpt lat="50.8158" lon="1.91825">
        <ele>86</ele>
        <time>2015-05-12T13:10:44.000Z</time>
      </trkpt>
      <trkpt lat="50.81579" lon="1.91824">
        <ele>85</ele>
        <time>2015-05-12T13:10:45.000Z</time>
      </trkpt>
      <trkpt lat="50.81578" lon="1.91824">
        <ele>86</ele>
        <time>2015-05-12T13:10:46.000Z</time>
      </trkpt>
      <trkpt lat="50.81577" lon="1.91822">
        <ele>85</ele>
        <time>2015-05-12T13:10:47.000Z</time>
      </trkpt>
      <trkpt lat="50.81576" lon="1.91822">
        <ele>85</ele>
        <time>2015-05-12T13:10:48.000Z</time>
      </trkpt>
      <trkpt lat="50.81575" lon="1.91821">
        <ele>85</ele>
        <time>2015-05-12T13:10:49.000Z</time>
      </trkpt>
      <trkpt lat="50.81574" lon="1.91821">
        <ele>85</ele>
        <time>2015-05-12T13:10:50.000Z</time>
      </trkpt>
      <trkpt lat="50.81573" lon="1.9182">
        <ele>86</ele>
        <time>2015-05-12T13:10:51.000Z</time>
      </trkpt>
      <trkpt lat="50.81571" lon="1.91819">
        <ele>86</ele>
        <time>2015-05-12T13:10:52.000Z</time>
      </trkpt>
      <trkpt lat="50.8157" lon="1.91818">
        <ele>86</ele>
        <time>2015-05-12T13:10:53.000Z</time>
      </trkpt>
      <trkpt lat="50.81569" lon="1.91818">
        <ele>86</ele>
        <time>2015-05-12T13:10:54.000Z</time>
      </trkpt>
      <trkpt lat="50.81568" lon="1.91817">
        <ele>85</ele>
        <time>2015-05-12T13:10:55.000Z</time>
      </trkpt>
      <trkpt lat="50.81567" lon="1.91816">
        <ele>86</ele>
        <time>2015-05-12T13:10:56.000Z</time>
      </trkpt>
      <trkpt lat="50.81566" lon="1.91816">
        <ele>86</ele>
        <time>2015-05-12T13:10:57.000Z</time>
      </trkpt>
      <trkpt lat="50.81565" lon="1.91815">
        <ele>85</ele>
        <time>2015-05-12T13:10:58.000Z</time>
      </trkpt>
      <trkpt lat="50.81564" lon="1.91814">
        <ele>85</ele>
        <time>2015-05-12T13:10:59.000Z</time>
      </trkpt>
      <trkpt lat="50.81563" lon="1.91813">
        <ele>85</ele>
        <time>2015-05-12T13:11:00.000Z</time>
      </trkpt>
      <trkpt lat="50.81562" lon="1.91812">
        <ele>84</ele>
        <time>2015-05-12T13:11:01.000Z</time>
      </trkpt>
      <trkpt lat="50.81561" lon="1.91811">
        <ele>85</ele>
        <time>2015-05-12T13:11:02.000Z</time>
      </trkpt>
      <trkpt lat="50.81559" lon="1.9181">
        <ele>85</ele>
        <time>2015-05-12T13:11:03.000Z</time>
      </trkpt>
      <trkpt lat="50.81558" lon="1.9181">
        <ele>86</ele>
        <time>2015-05-12T13:11:04.000Z</time>
      </trkpt>
      <trkpt lat="50.81557" lon="1.91809">
        <ele>86</ele>
        <time>2015-05-12T13:11:05.000Z</time>
      </trkpt>
      <trkpt lat="50.81556" lon="1.91808">
        <ele>86</ele>
        <time>2015-05-12T13:11:06.000Z</time>
      </trkpt>
      <trkpt lat="50.81555" lon="1.91807">
        <ele>86</ele>
        <time>2015-05-12T13:11:07.000Z</time>
      </trkpt>
      <trkpt lat="50.81554" lon="1.91806">
        <ele>86</ele>
        <time>2015-05-12T13:11:08.000Z</time>
      </trkpt>
      <trkpt lat="50.81553" lon="1.91805">
        <ele>86</ele>
        <time>2015-05-12T13:11:09.000Z</time>
      </trkpt>
      <trkpt lat="50.81552" lon="1.91804">
        <ele>86</ele>
        <time>2015-05-12T13:11:10.000Z</time>
      </trkpt>
      <trkpt lat="50.81551" lon="1.91803">
        <ele>86</ele>
        <time>2015-05-12T13:11:11.000Z</time>
      </trkpt>
      <trkpt lat="50.81551" lon="1.91802">
        <ele>86</ele>
        <time>2015-05-12T13:11:12.000Z</time>
      </trkpt>
      <trkpt lat="50.8155" lon="1.91801">
        <ele>86</ele>
        <time>2015-05-12T13:11:13.000Z</time>
      </trkpt>
      <trkpt lat="50.81549" lon="1.91801">
        <ele>86</ele>
        <time>2015-05-12T13:11:14.000Z</time>
      </trkpt>
      <trkpt lat="50.81548" lon="1.918">
        <ele>86</ele>
        <time>2015-05-12T13:11:15.000Z</time>
      </trkpt>
      <trkpt lat="50.81547" lon="1.91799">
        <ele>87</ele>
        <time>2015-05-12T13:11:16.000Z</time>
      </trkpt>
      <trkpt lat="50.81546" lon="1.91799">
        <ele>87</ele>
        <time>2015-05-12T13:11:17.000Z</time>
      </trkpt>
      <trkpt lat="50.81545" lon="1.91798">
        <ele>86</ele>
        <time>2015-05-12T13:11:18.000Z</time>
      </trkpt>
      <trkpt lat="50.81544" lon="1.91797">
        <ele>86</ele>
        <time>2015-05-12T13:11:19.000Z</time>
      </trkpt>
      <trkpt lat="50.81544" lon="1.91796">
        <ele>86</ele>
        <time>2015-05-12T13:11:20.000Z</time>
      </trkpt>
      <trkpt lat="50.81542" lon="1.91795">
        <ele>86</ele>
        <time>2015-05-12T13:11:21.000Z</time>
      </trkpt>
      <trkpt lat="50.81541" lon="1.91794">
        <ele>86</ele>
        <time>2015-05-12T13:11:22.000Z</time>
      </trkpt>
      <trkpt lat="50.8154" lon="1.91792">
        <ele>86</ele>
        <time>2015-05-12T13:11:23.000Z</time>
      </trkpt>
      <trkpt lat="50.81539" lon="1.91791">
        <ele>86</ele>
        <time>2015-05-12T13:11:24.000Z</time>
      </trkpt>
      <trkpt lat="50.81539" lon="1.9179">
        <ele>86</ele>
        <time>2015-05-12T13:11:25.000Z</time>
      </trkpt>
      <trkpt lat="50.81538" lon="1.91789">
        <ele>86</ele>
        <time>2015-05-12T13:11:26.000Z</time>
      </trkpt>
      <trkpt lat="50.81537" lon="1.91789">
        <ele>86</ele>
        <time>2015-05-12T13:11:27.000Z</time>
      </trkpt>
      <trkpt lat="50.81536" lon="1.91788">
        <ele>87</ele>
        <time>2015-05-12T13:11:28.000Z</time>
      </trkpt>
      <trkpt lat="50.81535" lon="1.91787">
        <ele>86</ele>
        <time>2015-05-12T13:11:29.000Z</time>
      </trkpt>
      <trkpt lat="50.81534" lon="1.91786">
        <ele>87</ele>
        <time>2015-05-12T13:11:30.000Z</time>
      </trkpt>
      <trkpt lat="50.81534" lon="1.91785">
        <ele>87</ele>
        <time>2015-05-12T13:11:31.000Z</time>
      </trkpt>
      <trkpt lat="50.81533" lon="1.91784">
        <ele>87</ele>
        <time>2015-05-12T13:11:32.000Z</time>
      </trkpt>
      <trkpt lat="50.81532" lon="1.91783">
        <ele>87</ele>
        <time>2015-05-12T13:11:33.000Z</time>
      </trkpt>
      <trkpt lat="50.81531" lon="1.91782">
        <ele>87</ele>
        <time>2015-05-12T13:11:34.000Z</time>
      </trkpt>
      <trkpt lat="50.8153" lon="1.91781">
        <ele>88</ele>
        <time>2015-05-12T13:11:35.000Z</time>
      </trkpt>
      <trkpt lat="50.81529" lon="1.91781">
        <ele>88</ele>
        <time>2015-05-12T13:11:36.000Z</time>
      </trkpt>
      <trkpt lat="50.81529" lon="1.9178">
        <ele>88</ele>
        <time>2015-05-12T13:11:37.000Z</time>
      </trkpt>
      <trkpt lat="50.81528" lon="1.9178">
        <ele>88</ele>
        <time>2015-05-12T13:11:38.000Z</time>
      </trkpt>
      <trkpt lat="50.81528" lon="1.9178">
        <ele>88</ele>
        <time>2015-05-12T13:11:39.000Z</time>
      </trkpt>
      <trkpt lat="50.81528" lon="1.91779">
        <ele>88</ele>
        <time>2015-05-12T13:11:40.000Z</time>
      </trkpt>
      <trkpt lat="50.81528" lon="1.91779">
        <ele>88</ele>
        <time>2015-05-12T13:11:41.000Z</time>
      </trkpt>
      <trkpt lat="50.81528" lon="1.91779">
        <ele>88</ele>
        <time>2015-05-12T13:11:42.000Z</time>
      </trkpt>
      <trkpt lat="50.81528" lon="1.91779">
        <ele>88</ele>
        <time>2015-05-12T13:11:43.000Z</time>
      </trkpt>
      <trkpt lat="50.81528" lon="1.91779">
        <ele>88</ele>
        <time>2015-05-12T13:11:44.000Z</time>
      </trkpt>
      <trkpt lat="50.81528" lon="1.91779">
        <ele>89</ele>
        <time>2015-05-12T13:11:45.000Z</time>
      </trkpt>
      <trkpt lat="50.81528" lon="1.91779">
        <ele>89</ele>
        <time>2015-05-12T13:11:46.000Z</time>
      </trkpt>
      <trkpt lat="50.81528" lon="1.91779">
        <ele>89</ele>
        <time>2015-05-12T13:11:47.000Z</time>
      </trkpt>
      <trkpt lat="50.81527" lon="1.91779">
        <ele>89</ele>
        <time>2015-05-12T13:11:48.000Z</time>
      </trkpt>
      <trkpt lat="50.81527" lon="1.91779">
        <ele>89</ele>
        <time>2015-05-12T13:11:49.000Z</time>
      </trkpt>
      <trkpt lat="50.81527" lon="1.91779">
        <ele>89</ele>
        <time>2015-05-12T13:11:50.000Z</time>
      </trkpt>
      <trkpt lat="50.81527" lon="1.91779">
        <ele>89</ele>
        <time>2015-05-12T13:11:51.000Z</time>
      </trkpt>
      <trkpt lat="50.81527" lon="1.91779">
        <ele>89</ele>
        <time>2015-05-12T13:11:52.000Z</time>
      </trkpt>
      <trkpt lat="50.81527" lon="1.91779">
        <ele>89</ele>
        <time>2015-05-12T13:11:53.000Z</time>
      </trkpt>
      <trkpt lat="50.81527" lon="1.91779">
        <ele>89</ele>
        <time>2015-05-12T13:11:54.000Z</time>
      </trkpt>
      <trkpt lat="50.81528" lon="1.91779">
        <ele>89</ele>
        <time>2015-05-12T13:11:55.000Z</time>
      </trkpt>
      <trkpt lat="50.81528" lon="1.91779">
        <ele>89</ele>
        <time>2015-05-12T13:11:56.000Z</time>
      </trkpt>
      <trkpt lat="50.81528" lon="1.91779">
        <ele>89</ele>
        <time>2015-05-12T13:11:57.000Z</time>
      </trkpt>
      <trkpt lat="50.81528" lon="1.91779">
        <ele>89</ele>
        <time>2015-05-12T13:11:58.000Z</time>
      </trkpt>
      <trkpt lat="50.81528" lon="1.91779">
        <ele>88</ele>
        <time>2015-05-12T13:11:59.000Z</time>
      </trkpt>
      <trkpt lat="50.81528" lon="1.91779">
        <ele>88</ele>
        <time>2015-05-12T13:12:00.000Z</time>
      </trkpt>
      <trkpt lat="50.81528" lon="1.91779">
        <ele>88</ele>
        <time>2015-05-12T13:12:01.000Z</time>
      </trkpt>
      <trkpt lat="50.81528" lon="1.91779">
        <ele>88</ele>
        <time>2015-05-12T13:12:02.000Z</time>
      </trkpt>
      <trkpt lat="50.81528" lon="1.91779">
        <ele>88</ele>
        <time>2015-05-12T13:12:03.000Z</time>
      </trkpt>
      <trkpt lat="50.81528" lon="1.91779">
        <ele>88</ele>
        <time>2015-05-12T13:12:04.000Z</time>
      </trkpt>
      <trkpt lat="50.81527" lon="1.91779">
        <ele>88</ele>
        <time>2015-05-12T13:12:05.000Z</time>
      </trkpt>
      <trkpt lat="50.81527" lon="1.91779">
        <ele>88</ele>
        <time>2015-05-12T13:12:06.000Z</time>
      </trkpt>
      <trkpt lat="50.81527" lon="1.91779">
        <ele>88</ele>
        <time>2015-05-12T13:12:07.000Z</time>
      </trkpt>
      <trkpt lat="50.81527" lon="1.91778">
        <ele>88</ele>
        <time>2015-05-12T13:12:08.000Z</time>
      </trkpt>
      <trkpt lat="50.81527" lon="1.91778">
        <ele>88</ele>
        <time>2015-05-12T13:12:09.000Z</time>
      </trkpt>
      <trkpt lat="50.81527" lon="1.91778">
        <ele>88</ele>
        <time>2015-05-12T13:12:10.000Z</time>
      </trkpt>
      <trkpt lat="50.81527" lon="1.91778">
        <ele>88</ele>
        <time>2015-05-12T13:12:11.000Z</time>
      </trkpt>
      <trkpt lat="50.81527" lon="1.91778">
        <ele>88</ele>
        <time>2015-05-12T13:12:12.000Z</time>
      </trkpt>
      <trkpt lat="50.81527" lon="1.91778">
        <ele>88</ele>
        <time>2015-05-12T13:12:13.000Z</time>
      </trkpt>
      <trkpt lat="50.81527" lon="1.91778">
        <ele>88</ele>
        <time>2015-05-12T13:12:14.000Z</time>
      </trkpt>
      <trkpt lat="50.81527" lon="1.91778">
        <ele>88</ele>
        <time>2015-05-12T13:12:15.000Z</time>
      </trkpt>
      <trkpt lat="50.81527" lon="1.91778">
        <ele>88</ele>
        <time>2015-05-12T13:12:16.000Z</time>
      </trkpt>
      <trkpt lat="50.81528" lon="1.91778">
        <ele>88</ele>
        <time>2015-05-12T13:12:17.000Z</time>
      </trkpt>
      <trkpt lat="50.81528" lon="1.91778">
        <ele>88</ele>
        <time>2015-05-12T13:12:18.000Z</time>
      </trkpt>
      <trkpt lat="50.81528" lon="1.91778">
        <ele>88</ele>
        <time>2015-05-12T13:12:19.000Z</time>
      </trkpt>
      <trkpt lat="50.81528" lon="1.91778">
        <ele>88</ele>
        <time>2015-05-12T13:12:20.000Z</time>
      </trkpt>
      <trkpt lat="50.81528" lon="1.91778">
        <ele>88</ele>
        <time>2015-05-12T13:12:21.000Z</time>
      </trkpt>
      <trkpt lat="50.81528" lon="1.91778">
        <ele>88</ele>
        <time>2015-05-12T13:12:22.000Z</time>
      </trkpt>
      <trkpt lat="50.81528" lon="1.91778">
        <ele>88</ele>
        <time>2015-05-12T13:12:23.000Z</time>
      </trkpt>
      <trkpt lat="50.81528" lon="1.91778">
        <ele>89</ele>
        <time>2015-05-12T13:12:24.000Z</time>
      </trkpt>
      <trkpt lat="50.81528" lon="1.91778">
        <ele>89</ele>
        <time>2015-05-12T13:12:25.000Z</time>
      </trkpt>
      <trkpt lat="50.81527" lon="1.91778">
        <ele>89</ele>
        <time>2015-05-12T13:12:26.000Z</time>
      </trkpt>
      <trkpt lat="50.81527" lon="1.91778">
        <ele>89</ele>
        <time>2015-05-12T13:12:27.000Z</time>
      </trkpt>
      <trkpt lat="50.81527" lon="1.91778">
        <ele>89</ele>
        <time>2015-05-12T13:12:28.000Z</time>
      </trkpt>
      <trkpt lat="50.81527" lon="1.91778">
        <ele>90</ele>
        <time>2015-05-12T13:12:29.000Z</time>
      </trkpt>
      <trkpt lat="50.81527" lon="1.91778">
        <ele>90</ele>
        <time>2015-05-12T13:12:30.000Z</time>
      </trkpt>
      <trkpt lat="50.81527" lon="1.91778">
        <ele>90</ele>
        <time>2015-05-12T13:12:31.000Z</time>
      </trkpt>
      <trkpt lat="50.81527" lon="1.91778">
        <ele>90</ele>
        <time>2015-05-12T13:12:32.000Z</time>
      </trkpt>
      <trkpt lat="50.81527" lon="1.91778">
        <ele>90</ele>
        <time>2015-05-12T13:12:33.000Z</time>
      </trkpt>
      <trkpt lat="50.81527" lon="1.91778">
        <ele>90</ele>
        <time>2015-05-12T13:12:34.000Z</time>
      </trkpt>
      <trkpt lat="50.81527" lon="1.91778">
        <ele>90</ele>
        <time>2015-05-12T13:12:35.000Z</time>
      </trkpt>
      <trkpt lat="50.81527" lon="1.91778">
        <ele>90</ele>
        <time>2015-05-12T13:12:36.000Z</time>
      </trkpt>
      <trkpt lat="50.81527" lon="1.91778">
        <ele>90</ele>
        <time>2015-05-12T13:12:37.000Z</time>
      </trkpt>
      <trkpt lat="50.81527" lon="1.91778">
        <ele>91</ele>
        <time>2015-05-12T13:12:38.000Z</time>
      </trkpt>
      <trkpt lat="50.81527" lon="1.91778">
        <ele>92</ele>
        <time>2015-05-12T13:12:39.000Z</time>
      </trkpt>
      <trkpt lat="50.81526" lon="1.91778">
        <ele>92</ele>
        <time>2015-05-12T13:12:40.000Z</time>
      </trkpt>
      <trkpt lat="50.81526" lon="1.91779">
        <ele>92</ele>
        <time>2015-05-12T13:12:41.000Z</time>
      </trkpt>
      <trkpt lat="50.81526" lon="1.91779">
        <ele>92</ele>
        <time>2015-05-12T13:12:42.000Z</time>
      </trkpt>
      <trkpt lat="50.81526" lon="1.91779">
        <ele>92</ele>
        <time>2015-05-12T13:12:43.000Z</time>
      </trkpt>
      <trkpt lat="50.81526" lon="1.91779">
        <ele>92</ele>
        <time>2015-05-12T13:12:44.000Z</time>
      </trkpt>
      <trkpt lat="50.81526" lon="1.91779">
        <ele>92</ele>
        <time>2015-05-12T13:12:45.000Z</time>
      </trkpt>
      <trkpt lat="50.81526" lon="1.91779">
        <ele>92</ele>
        <time>2015-05-12T13:12:46.000Z</time>
      </trkpt>
      <trkpt lat="50.81526" lon="1.91779">
        <ele>92</ele>
        <time>2015-05-12T13:12:47.000Z</time>
      </trkpt>
      <trkpt lat="50.81526" lon="1.91779">
        <ele>92</ele>
        <time>2015-05-12T13:12:48.000Z</time>
      </trkpt>
      <trkpt lat="50.81526" lon="1.91779">
        <ele>92</ele>
        <time>2015-05-12T13:12:49.000Z</time>
      </trkpt>
      <trkpt lat="50.81526" lon="1.91779">
        <ele>92</ele>
        <time>2015-05-12T13:12:50.000Z</time>
      </trkpt>
      <trkpt lat="50.81526" lon="1.9178">
        <ele>92</ele>
        <time>2015-05-12T13:12:51.000Z</time>
      </trkpt>
      <trkpt lat="50.81526" lon="1.9178">
        <ele>92</ele>
        <time>2015-05-12T13:12:52.000Z</time>
      </trkpt>
      <trkpt lat="50.81526" lon="1.9178">
        <ele>92</ele>
        <time>2015-05-12T13:12:53.000Z</time>
      </trkpt>
      <trkpt lat="50.81526" lon="1.9178">
        <ele>93</ele>
        <time>2015-05-12T13:12:54.000Z</time>
      </trkpt>
      <trkpt lat="50.81526" lon="1.9178">
        <ele>92</ele>
        <time>2015-05-12T13:12:55.000Z</time>
      </trkpt>
      <trkpt lat="50.81526" lon="1.9178">
        <ele>92</ele>
        <time>2015-05-12T13:12:56.000Z</time>
      </trkpt>
      <trkpt lat="50.81526" lon="1.91781">
        <ele>92</ele>
        <time>2015-05-12T13:12:57.000Z</time>
      </trkpt>
      <trkpt lat="50.81526" lon="1.91781">
        <ele>92</ele>
        <time>2015-05-12T13:12:58.000Z</time>
      </trkpt>
      <trkpt lat="50.81526" lon="1.91781">
        <ele>92</ele>
        <time>2015-05-12T13:12:59.000Z</time>
      </trkpt>
      <trkpt lat="50.81526" lon="1.91781">
        <ele>92</ele>
        <time>2015-05-12T13:13:00.000Z</time>
      </trkpt>
      <trkpt lat="50.81526" lon="1.9178">
        <ele>91</ele>
        <time>2015-05-12T13:13:01.000Z</time>
      </trkpt>
      <trkpt lat="50.81526" lon="1.9178">
        <ele>91</ele>
        <time>2015-05-12T13:13:02.000Z</time>
      </trkpt>
      <trkpt lat="50.81527" lon="1.9178">
        <ele>90</ele>
        <time>2015-05-12T13:13:03.000Z</time>
      </trkpt>
      <trkpt lat="50.81527" lon="1.91779">
        <ele>90</ele>
        <time>2015-05-12T13:13:04.000Z</time>
      </trkpt>
      <trkpt lat="50.81527" lon="1.91779">
        <ele>90</ele>
        <time>2015-05-12T13:13:05.000Z</time>
      </trkpt>
      <trkpt lat="50.81527" lon="1.91778">
        <ele>90</ele>
        <time>2015-05-12T13:13:06.000Z</time>
      </trkpt>
      <trkpt lat="50.81527" lon="1.91778">
        <ele>90</ele>
        <time>2015-05-12T13:13:07.000Z</time>
      </trkpt>
      <trkpt lat="50.81527" lon="1.91778">
        <ele>90</ele>
        <time>2015-05-12T13:13:08.000Z</time>
      </trkpt>
      <trkpt lat="50.81527" lon="1.91778">
        <ele>90</ele>
        <time>2015-05-12T13:13:09.000Z</time>
      </trkpt>
      <trkpt lat="50.81527" lon="1.91778">
        <ele>90</ele>
        <time>2015-05-12T13:13:10.000Z</time>
      </trkpt>
      <trkpt lat="50.81527" lon="1.91778">
        <ele>90</ele>
        <time>2015-05-12T13:13:11.000Z</time>
      </trkpt>
      <trkpt lat="50.81527" lon="1.91778">
        <ele>90</ele>
        <time>2015-05-12T13:13:12.000Z</time>
      </trkpt>
      <trkpt lat="50.81527" lon="1.91778">
        <ele>90</ele>
        <time>2015-05-12T13:13:13.000Z</time>
      </trkpt>
      <trkpt lat="50.81527" lon="1.91778">
        <ele>90</ele>
        <time>2015-05-12T13:13:14.000Z</time>
      </trkpt>
      <trkpt lat="50.81527" lon="1.91778">
        <ele>90</ele>
        <time>2015-05-12T13:13:15.000Z</time>
      </trkpt>
      <trkpt lat="50.81527" lon="1.91778">
        <ele>90</ele>
        <time>2015-05-12T13:13:16.000Z</time>
      </trkpt>
      <trkpt lat="50.81527" lon="1.91778">
        <ele>90</ele>
        <time>2015-05-12T13:13:17.000Z</time>
      </trkpt>
      <trkpt lat="50.81527" lon="1.91778">
        <ele>90</ele>
        <time>2015-05-12T13:13:18.000Z</time>
      </trkpt>
      <trkpt lat="50.81527" lon="1.91778">
        <ele>90</ele>
        <time>2015-05-12T13:13:19.000Z</time>
      </trkpt>
      <trkpt lat="50.81527" lon="1.91778">
        <ele>90</ele>
        <time>2015-05-12T13:13:20.000Z</time>
      </trkpt>
      <trkpt lat="50.81527" lon="1.91778">
        <ele>90</ele>
        <time>2015-05-12T13:13:21.000Z</time>
      </trkpt>
      <trkpt lat="50.81526" lon="1.91778">
        <ele>90</ele>
        <time>2015-05-12T13:13:22.000Z</time>
      </trkpt>
      <trkpt lat="50.81526" lon="1.91778">
        <ele>90</ele>
        <time>2015-05-12T13:13:23.000Z</time>
      </trkpt>
      <trkpt lat="50.81526" lon="1.91778">
        <ele>90</ele>
        <time>2015-05-12T13:13:24.000Z</time>
      </trkpt>
      <trkpt lat="50.81526" lon="1.91778">
        <ele>90</ele>
        <time>2015-05-12T13:13:25.000Z</time>
      </trkpt>
      <trkpt lat="50.81526" lon="1.91778">
        <ele>90</ele>
        <time>2015-05-12T13:13:26.000Z</time>
      </trkpt>
      <trkpt lat="50.81526" lon="1.91778">
        <ele>90</ele>
        <time>2015-05-12T13:13:27.000Z</time>
      </trkpt>
      <trkpt lat="50.81526" lon="1.91778">
        <ele>90</ele>
        <time>2015-05-12T13:13:28.000Z</time>
      </trkpt>
      <trkpt lat="50.81526" lon="1.91778">
        <ele>90</ele>
        <time>2015-05-12T13:13:29.000Z</time>
      </trkpt>
      <trkpt lat="50.81526" lon="1.91778">
        <ele>90</ele>
        <time>2015-05-12T13:13:30.000Z</time>
      </trkpt>
      <trkpt lat="50.81526" lon="1.91778">
        <ele>90</ele>
        <time>2015-05-12T13:13:31.000Z</time>
      </trkpt>
      <trkpt lat="50.81526" lon="1.91778">
        <ele>90</ele>
        <time>2015-05-12T13:13:32.000Z</time>
      </trkpt>
      <trkpt lat="50.81526" lon="1.91778">
        <ele>90</ele>
        <time>2015-05-12T13:13:33.000Z</time>
      </trkpt>
      <trkpt lat="50.81526" lon="1.91778">
        <ele>90</ele>
        <time>2015-05-12T13:13:34.000Z</time>
      </trkpt>
      <trkpt lat="50.81526" lon="1.91778">
        <ele>90</ele>
        <time>2015-05-12T13:13:35.000Z</time>
      </trkpt>
      <trkpt lat="50.81526" lon="1.91778">
        <ele>90</ele>
        <time>2015-05-12T13:13:36.000Z</time>
      </trkpt>
      <trkpt lat="50.81526" lon="1.91778">
        <ele>90</ele>
        <time>2015-05-12T13:13:37.000Z</time>
      </trkpt>
      <trkpt lat="50.81526" lon="1.91777">
        <ele>90</ele>
        <time>2015-05-12T13:13:38.000Z</time>
      </trkpt>
      <trkpt lat="50.81525" lon="1.91777">
        <ele>90</ele>
        <time>2015-05-12T13:13:39.000Z</time>
      </trkpt>
      <trkpt lat="50.81524" lon="1.91776">
        <ele>90</ele>
        <time>2015-05-12T13:13:40.000Z</time>
      </trkpt>
      <trkpt lat="50.81524" lon="1.91776">
        <ele>90</ele>
        <time>2015-05-12T13:13:41.000Z</time>
      </trkpt>
      <trkpt lat="50.81523" lon="1.91776">
        <ele>91</ele>
        <time>2015-05-12T13:13:42.000Z</time>
      </trkpt>
      <trkpt lat="50.81523" lon="1.91775">
        <ele>91</ele>
        <time>2015-05-12T13:13:43.000Z</time>
      </trkpt>
      <trkpt lat="50.81523" lon="1.91775">
        <ele>91</ele>
        <time>2015-05-12T13:13:44.000Z</time>
      </trkpt>
      <trkpt lat="50.81523" lon="1.91775">
        <ele>91</ele>
        <time>2015-05-12T13:13:45.000Z</time>
      </trkpt>
      <trkpt lat="50.81523" lon="1.91775">
        <ele>91</ele>
        <time>2015-05-12T13:13:46.000Z</time>
      </trkpt>
      <trkpt lat="50.81523" lon="1.91775">
        <ele>91</ele>
        <time>2015-05-12T13:13:47.000Z</time>
      </trkpt>
      <trkpt lat="50.81523" lon="1.91775">
        <ele>91</ele>
        <time>2015-05-12T13:13:48.000Z</time>
      </trkpt>
      <trkpt lat="50.81523" lon="1.91775">
        <ele>91</ele>
        <time>2015-05-12T13:13:49.000Z</time>
      </trkpt>
      <trkpt lat="50.81523" lon="1.91776">
        <ele>91</ele>
        <time>2015-05-12T13:13:50.000Z</time>
      </trkpt>
      <trkpt lat="50.81523" lon="1.91776">
        <ele>91</ele>
        <time>2015-05-12T13:13:51.000Z</time>
      </trkpt>
      <trkpt lat="50.81523" lon="1.91776">
        <ele>91</ele>
        <time>2015-05-12T13:13:52.000Z</time>
      </trkpt>
      <trkpt lat="50.81522" lon="1.91775">
        <ele>91</ele>
        <time>2015-05-12T13:13:53.000Z</time>
      </trkpt>
      <trkpt lat="50.81522" lon="1.91775">
        <ele>91</ele>
        <time>2015-05-12T13:13:54.000Z</time>
      </trkpt>
      <trkpt lat="50.81522" lon="1.91774">
        <ele>91</ele>
        <time>2015-05-12T13:13:55.000Z</time>
      </trkpt>
      <trkpt lat="50.81522" lon="1.91774">
        <ele>91</ele>
        <time>2015-05-12T13:13:56.000Z</time>
      </trkpt>
      <trkpt lat="50.81522" lon="1.91774">
        <ele>91</ele>
        <time>2015-05-12T13:13:57.000Z</time>
      </trkpt>
      <trkpt lat="50.81522" lon="1.91774">
        <ele>91</ele>
        <time>2015-05-12T13:13:58.000Z</time>
      </trkpt>
      <trkpt lat="50.81522" lon="1.91774">
        <ele>91</ele>
        <time>2015-05-12T13:13:59.000Z</time>
      </trkpt>
      <trkpt lat="50.81522" lon="1.91774">
        <ele>91</ele>
        <time>2015-05-12T13:14:00.000Z</time>
      </trkpt>
      <trkpt lat="50.81522" lon="1.91774">
        <ele>91</ele>
        <time>2015-05-12T13:14:01.000Z</time>
      </trkpt>
      <trkpt lat="50.81522" lon="1.91774">
        <ele>91</ele>
        <time>2015-05-12T13:14:02.000Z</time>
      </trkpt>
      <trkpt lat="50.81522" lon="1.91774">
        <ele>91</ele>
        <time>2015-05-12T13:14:03.000Z</time>
      </trkpt>
      <trkpt lat="50.81522" lon="1.91774">
        <ele>91</ele>
        <time>2015-05-12T13:14:04.000Z</time>
      </trkpt>
      <trkpt lat="50.81522" lon="1.91774">
        <ele>91</ele>
        <time>2015-05-12T13:14:05.000Z</time>
      </trkpt>
      <trkpt lat="50.81522" lon="1.91774">
        <ele>91</ele>
        <time>2015-05-12T13:14:06.000Z</time>
      </trkpt>
      <trkpt lat="50.81522" lon="1.91773">
        <ele>91</ele>
        <time>2015-05-12T13:14:07.000Z</time>
      </trkpt>
      <trkpt lat="50.81522" lon="1.91773">
        <ele>91</ele>
        <time>2015-05-12T13:14:08.000Z</time>
      </trkpt>
      <trkpt lat="50.81522" lon="1.91773">
        <ele>91</ele>
        <time>2015-05-12T13:14:09.000Z</time>
      </trkpt>
      <trkpt lat="50.81522" lon="1.91773">
        <ele>92</ele>
        <time>2015-05-12T13:14:10.000Z</time>
      </trkpt>
      <trkpt lat="50.81522" lon="1.91773">
        <ele>92</ele>
        <time>2015-05-12T13:14:11.000Z</time>
      </trkpt>
      <trkpt lat="50.81522" lon="1.91774">
        <ele>92</ele>
        <time>2015-05-12T13:14:12.000Z</time>
      </trkpt>
      <trkpt lat="50.81522" lon="1.91774">
        <ele>92</ele>
        <time>2015-05-12T13:14:13.000Z</time>
      </trkpt>
      <trkpt lat="50.81522" lon="1.91774">
        <ele>92</ele>
        <time>2015-05-12T13:14:14.000Z</time>
      </trkpt>
      <trkpt lat="50.81522" lon="1.91774">
        <ele>92</ele>
        <time>2015-05-12T13:14:15.000Z</time>
      </trkpt>
      <trkpt lat="50.81522" lon="1.91774">
        <ele>91</ele>
        <time>2015-05-12T13:14:16.000Z</time>
      </trkpt>
      <trkpt lat="50.81522" lon="1.91774">
        <ele>91</ele>
        <time>2015-05-12T13:14:17.000Z</time>
      </trkpt>
      <trkpt lat="50.81522" lon="1.91774">
        <ele>91</ele>
        <time>2015-05-12T13:14:18.000Z</time>
      </trkpt>
      <trkpt lat="50.81522" lon="1.91773">
        <ele>91</ele>
        <time>2015-05-12T13:14:19.000Z</time>
      </trkpt>
      <trkpt lat="50.81522" lon="1.91773">
        <ele>91</ele>
        <time>2015-05-12T13:14:20.000Z</time>
      </trkpt>
      <trkpt lat="50.81521" lon="1.91773">
        <ele>92</ele>
        <time>2015-05-12T13:14:21.000Z</time>
      </trkpt>
      <trkpt lat="50.81521" lon="1.91772">
        <ele>92</ele>
        <time>2015-05-12T13:14:22.000Z</time>
      </trkpt>
      <trkpt lat="50.8152" lon="1.91772">
        <ele>91</ele>
        <time>2015-05-12T13:14:23.000Z</time>
      </trkpt>
      <trkpt lat="50.8152" lon="1.91771">
        <ele>91</ele>
        <time>2015-05-12T13:14:24.000Z</time>
      </trkpt>
      <trkpt lat="50.81519" lon="1.9177">
        <ele>91</ele>
        <time>2015-05-12T13:14:25.000Z</time>
      </trkpt>
      <trkpt lat="50.81518" lon="1.91769">
        <ele>91</ele>
        <time>2015-05-12T13:14:26.000Z</time>
      </trkpt>
      <trkpt lat="50.81518" lon="1.91768">
        <ele>91</ele>
        <time>2015-05-12T13:14:27.000Z</time>
      </trkpt>
      <trkpt lat="50.81517" lon="1.91767">
        <ele>91</ele>
        <time>2015-05-12T13:14:28.000Z</time>
      </trkpt>
      <trkpt lat="50.81516" lon="1.91766">
        <ele>91</ele>
        <time>2015-05-12T13:14:29.000Z</time>
      </trkpt>
      <trkpt lat="50.81515" lon="1.91766">
        <ele>91</ele>
        <time>2015-05-12T13:14:30.000Z</time>
      </trkpt>
      <trkpt lat="50.81515" lon="1.91765">
        <ele>91</ele>
        <time>2015-05-12T13:14:31.000Z</time>
      </trkpt>
      <trkpt lat="50.81514" lon="1.91765">
        <ele>91</ele>
        <time>2015-05-12T13:14:32.000Z</time>
      </trkpt>
      <trkpt lat="50.81514" lon="1.91764">
        <ele>91</ele>
        <time>2015-05-12T13:14:33.000Z</time>
      </trkpt>
      <trkpt lat="50.81513" lon="1.91764">
        <ele>90</ele>
        <time>2015-05-12T13:14:34.000Z</time>
      </trkpt>
      <trkpt lat="50.81512" lon="1.91763">
        <ele>90</ele>
        <time>2015-05-12T13:14:35.000Z</time>
      </trkpt>
      <trkpt lat="50.81512" lon="1.91763">
        <ele>90</ele>
        <time>2015-05-12T13:14:36.000Z</time>
      </trkpt>
      <trkpt lat="50.81511" lon="1.91762">
        <ele>90</ele>
        <time>2015-05-12T13:14:37.000Z</time>
      </trkpt>
      <trkpt lat="50.8151" lon="1.91761">
        <ele>90</ele>
        <time>2015-05-12T13:14:38.000Z</time>
      </trkpt>
      <trkpt lat="50.8151" lon="1.91761">
        <ele>90</ele>
        <time>2015-05-12T13:14:39.000Z</time>
      </trkpt>
      <trkpt lat="50.81509" lon="1.9176">
        <ele>89</ele>
        <time>2015-05-12T13:14:40.000Z</time>
      </trkpt>
      <trkpt lat="50.81509" lon="1.91759">
        <ele>90</ele>
        <time>2015-05-12T13:14:41.000Z</time>
      </trkpt>
      <trkpt lat="50.81508" lon="1.91758">
        <ele>90</ele>
        <time>2015-05-12T13:14:42.000Z</time>
      </trkpt>
      <trkpt lat="50.81507" lon="1.91757">
        <ele>89</ele>
        <time>2015-05-12T13:14:43.000Z</time>
      </trkpt>
      <trkpt lat="50.81506" lon="1.91756">
        <ele>89</ele>
        <time>2015-05-12T13:14:44.000Z</time>
      </trkpt>
      <trkpt lat="50.81505" lon="1.91755">
        <ele>89</ele>
        <time>2015-05-12T13:14:45.000Z</time>
      </trkpt>
      <trkpt lat="50.81505" lon="1.91755">
        <ele>89</ele>
        <time>2015-05-12T13:14:46.000Z</time>
      </trkpt>
      <trkpt lat="50.81504" lon="1.91754">
        <ele>88</ele>
        <time>2015-05-12T13:14:47.000Z</time>
      </trkpt>
      <trkpt lat="50.81504" lon="1.91753">
        <ele>88</ele>
        <time>2015-05-12T13:14:48.000Z</time>
      </trkpt>
      <trkpt lat="50.81503" lon="1.91752">
        <ele>88</ele>
        <time>2015-05-12T13:14:49.000Z</time>
      </trkpt>
      <trkpt lat="50.81502" lon="1.91752">
        <ele>87</ele>
        <time>2015-05-12T13:14:50.000Z</time>
      </trkpt>
      <trkpt lat="50.81501" lon="1.91751">
        <ele>87</ele>
        <time>2015-05-12T13:14:51.000Z</time>
      </trkpt>
      <trkpt lat="50.81501" lon="1.9175">
        <ele>87</ele>
        <time>2015-05-12T13:14:52.000Z</time>
      </trkpt>
      <trkpt lat="50.815" lon="1.9175">
        <ele>87</ele>
        <time>2015-05-12T13:14:53.000Z</time>
      </trkpt>
      <trkpt lat="50.81499" lon="1.91749">
        <ele>87</ele>
        <time>2015-05-12T13:14:54.000Z</time>
      </trkpt>
      <trkpt lat="50.81498" lon="1.91748">
        <ele>87</ele>
        <time>2015-05-12T13:14:55.000Z</time>
      </trkpt>
      <trkpt lat="50.81497" lon="1.91747">
        <ele>87</ele>
        <time>2015-05-12T13:14:56.000Z</time>
      </trkpt>
      <trkpt lat="50.81496" lon="1.91746">
        <ele>87</ele>
        <time>2015-05-12T13:14:57.000Z</time>
      </trkpt>
      <trkpt lat="50.81495" lon="1.91745">
        <ele>87</ele>
        <time>2015-05-12T13:14:58.000Z</time>
      </trkpt>
      <trkpt lat="50.81494" lon="1.91744">
        <ele>87</ele>
        <time>2015-05-12T13:14:59.000Z</time>
      </trkpt>
      <trkpt lat="50.81493" lon="1.91743">
        <ele>87</ele>
        <time>2015-05-12T13:15:00.000Z</time>
      </trkpt>
      <trkpt lat="50.81492" lon="1.91742">
        <ele>87</ele>
        <time>2015-05-12T13:15:01.000Z</time>
      </trkpt>
      <trkpt lat="50.81491" lon="1.91742">
        <ele>87</ele>
        <time>2015-05-12T13:15:02.000Z</time>
      </trkpt>
      <trkpt lat="50.81491" lon="1.91742">
        <ele>88</ele>
        <time>2015-05-12T13:15:03.000Z</time>
      </trkpt>
      <trkpt lat="50.81491" lon="1.91741">
        <ele>88</ele>
        <time>2015-05-12T13:15:04.000Z</time>
      </trkpt>
      <trkpt lat="50.8149" lon="1.91741">
        <ele>88</ele>
        <time>2015-05-12T13:15:05.000Z</time>
      </trkpt>
      <trkpt lat="50.8149" lon="1.9174">
        <ele>89</ele>
        <time>2015-05-12T13:15:06.000Z</time>
      </trkpt>
      <trkpt lat="50.8149" lon="1.9174">
        <ele>89</ele>
        <time>2015-05-12T13:15:07.000Z</time>
      </trkpt>
      <trkpt lat="50.81489" lon="1.9174">
        <ele>89</ele>
        <time>2015-05-12T13:15:08.000Z</time>
      </trkpt>
      <trkpt lat="50.81488" lon="1.9174">
        <ele>89</ele>
        <time>2015-05-12T13:15:09.000Z</time>
      </trkpt>
      <trkpt lat="50.81487" lon="1.91739">
        <ele>89</ele>
        <time>2015-05-12T13:15:10.000Z</time>
      </trkpt>
      <trkpt lat="50.81486" lon="1.91738">
        <ele>89</ele>
        <time>2015-05-12T13:15:11.000Z</time>
      </trkpt>
      <trkpt lat="50.81485" lon="1.91738">
        <ele>89</ele>
        <time>2015-05-12T13:15:12.000Z</time>
      </trkpt>
      <trkpt lat="50.81484" lon="1.91736">
        <ele>89</ele>
        <time>2015-05-12T13:15:13.000Z</time>
      </trkpt>
      <trkpt lat="50.81483" lon="1.91735">
        <ele>88</ele>
        <time>2015-05-12T13:15:14.000Z</time>
      </trkpt>
      <trkpt lat="50.81482" lon="1.91734">
        <ele>88</ele>
        <time>2015-05-12T13:15:15.000Z</time>
      </trkpt>
      <trkpt lat="50.81481" lon="1.91733">
        <ele>88</ele>
        <time>2015-05-12T13:15:16.000Z</time>
      </trkpt>
      <trkpt lat="50.81481" lon="1.91733">
        <ele>89</ele>
        <time>2015-05-12T13:15:17.000Z</time>
      </trkpt>
      <trkpt lat="50.8148" lon="1.91732">
        <ele>89</ele>
        <time>2015-05-12T13:15:18.000Z</time>
      </trkpt>
      <trkpt lat="50.81479" lon="1.91731">
        <ele>89</ele>
        <time>2015-05-12T13:15:19.000Z</time>
      </trkpt>
      <trkpt lat="50.81479" lon="1.91731">
        <ele>89</ele>
        <time>2015-05-12T13:15:20.000Z</time>
      </trkpt>
      <trkpt lat="50.81478" lon="1.9173">
        <ele>89</ele>
        <time>2015-05-12T13:15:21.000Z</time>
      </trkpt>
      <trkpt lat="50.81478" lon="1.9173">
        <ele>89</ele>
        <time>2015-05-12T13:15:22.000Z</time>
      </trkpt>
      <trkpt lat="50.81477" lon="1.91729">
        <ele>88</ele>
        <time>2015-05-12T13:15:23.000Z</time>
      </trkpt>
      <trkpt lat="50.81477" lon="1.91728">
        <ele>89</ele>
        <time>2015-05-12T13:15:24.000Z</time>
      </trkpt>
      <trkpt lat="50.81476" lon="1.91728">
        <ele>89</ele>
        <time>2015-05-12T13:15:25.000Z</time>
      </trkpt>
      <trkpt lat="50.81476" lon="1.91727">
        <ele>89</ele>
        <time>2015-05-12T13:15:26.000Z</time>
      </trkpt>
      <trkpt lat="50.81476" lon="1.91727">
        <ele>89</ele>
        <time>2015-05-12T13:15:27.000Z</time>
      </trkpt>
      <trkpt lat="50.81476" lon="1.91727">
        <ele>89</ele>
        <time>2015-05-12T13:15:28.000Z</time>
      </trkpt>
      <trkpt lat="50.81475" lon="1.91727">
        <ele>89</ele>
        <time>2015-05-12T13:15:29.000Z</time>
      </trkpt>
      <trkpt lat="50.81475" lon="1.91726">
        <ele>89</ele>
        <time>2015-05-12T13:15:30.000Z</time>
      </trkpt>
      <trkpt lat="50.81475" lon="1.91726">
        <ele>88</ele>
        <time>2015-05-12T13:15:31.000Z</time>
      </trkpt>
      <trkpt lat="50.81475" lon="1.91725">
        <ele>88</ele>
        <time>2015-05-12T13:15:32.000Z</time>
      </trkpt>
      <trkpt lat="50.81475" lon="1.91725">
        <ele>88</ele>
        <time>2015-05-12T13:15:33.000Z</time>
      </trkpt>
      <trkpt lat="50.81476" lon="1.91724">
        <ele>89</ele>
        <time>2015-05-12T13:15:34.000Z</time>
      </trkpt>
      <trkpt lat="50.81476" lon="1.91724">
        <ele>89</ele>
        <time>2015-05-12T13:15:35.000Z</time>
      </trkpt>
      <trkpt lat="50.81476" lon="1.91725">
        <ele>89</ele>
        <time>2015-05-12T13:15:36.000Z</time>
      </trkpt>
      <trkpt lat="50.81476" lon="1.91725">
        <ele>89</ele>
        <time>2015-05-12T13:15:37.000Z</time>
      </trkpt>
      <trkpt lat="50.81477" lon="1.91726">
        <ele>89</ele>
        <time>2015-05-12T13:15:38.000Z</time>
      </trkpt>
      <trkpt lat="50.81478" lon="1.91726">
        <ele>88</ele>
        <time>2015-05-12T13:15:39.000Z</time>
      </trkpt>
      <trkpt lat="50.81479" lon="1.91727">
        <ele>89</ele>
        <time>2015-05-12T13:15:40.000Z</time>
      </trkpt>
      <trkpt lat="50.8148" lon="1.91727">
        <ele>89</ele>
        <time>2015-05-12T13:15:41.000Z</time>
      </trkpt>
      <trkpt lat="50.8148" lon="1.91728">
        <ele>89</ele>
        <time>2015-05-12T13:15:42.000Z</time>
      </trkpt>
      <trkpt lat="50.81481" lon="1.91728">
        <ele>89</ele>
        <time>2015-05-12T13:15:43.000Z</time>
      </trkpt>
      <trkpt lat="50.81482" lon="1.91728">
        <ele>89</ele>
        <time>2015-05-12T13:15:44.000Z</time>
      </trkpt>
      <trkpt lat="50.81482" lon="1.91729">
        <ele>89</ele>
        <time>2015-05-12T13:15:45.000Z</time>
      </trkpt>
      <trkpt lat="50.81483" lon="1.91729">
        <ele>88</ele>
        <time>2015-05-12T13:15:46.000Z</time>
      </trkpt>
      <trkpt lat="50.81483" lon="1.91729">
        <ele>88</ele>
        <time>2015-05-12T13:15:47.000Z</time>
      </trkpt>
      <trkpt lat="50.81483" lon="1.91729">
        <ele>88</ele>
        <time>2015-05-12T13:15:48.000Z</time>
      </trkpt>
      <trkpt lat="50.81483" lon="1.91729">
        <ele>88</ele>
        <time>2015-05-12T13:15:49.000Z</time>
      </trkpt>
      <trkpt lat="50.81484" lon="1.91728">
        <ele>87</ele>
        <time>2015-05-12T13:15:50.000Z</time>
      </trkpt>
      <trkpt lat="50.81484" lon="1.91728">
        <ele>88</ele>
        <time>2015-05-12T13:15:51.000Z</time>
      </trkpt>
      <trkpt lat="50.81484" lon="1.91728">
        <ele>88</ele>
        <time>2015-05-12T13:15:52.000Z</time>
      </trkpt>
      <trkpt lat="50.81484" lon="1.91728">
        <ele>88</ele>
        <time>2015-05-12T13:15:53.000Z</time>
      </trkpt>
      <trkpt lat="50.81484" lon="1.91728">
        <ele>88</ele>
        <time>2015-05-12T13:15:54.000Z</time>
      </trkpt>
      <trkpt lat="50.81484" lon="1.91728">
        <ele>88</ele>
        <time>2015-05-12T13:15:55.000Z</time>
      </trkpt>
      <trkpt lat="50.81484" lon="1.91728">
        <ele>88</ele>
        <time>2015-05-12T13:15:56.000Z</time>
      </trkpt>
      <trkpt lat="50.81484" lon="1.91728">
        <ele>89</ele>
        <time>2015-05-12T13:15:57.000Z</time>
      </trkpt>
      <trkpt lat="50.81484" lon="1.91728">
        <ele>89</ele>
        <time>2015-05-12T13:15:58.000Z</time>
      </trkpt>
      <trkpt lat="50.81484" lon="1.91728">
        <ele>89</ele>
        <time>2015-05-12T13:15:59.000Z</time>
      </trkpt>
      <trkpt lat="50.81484" lon="1.91728">
        <ele>89</ele>
        <time>2015-05-12T13:16:00.000Z</time>
      </trkpt>
      <trkpt lat="50.81484" lon="1.91728">
        <ele>89</ele>
        <time>2015-05-12T13:16:01.000Z</time>
      </trkpt>
      <trkpt lat="50.81484" lon="1.91728">
        <ele>89</ele>
        <time>2015-05-12T13:16:02.000Z</time>
      </trkpt>
      <trkpt lat="50.81484" lon="1.91728">
        <ele>89</ele>
        <time>2015-05-12T13:16:03.000Z</time>
      </trkpt>
      <trkpt lat="50.81484" lon="1.91728">
        <ele>89</ele>
        <time>2015-05-12T13:16:04.000Z</time>
      </trkpt>
      <trkpt lat="50.81484" lon="1.91729">
        <ele>89</ele>
        <time>2015-05-12T13:16:05.000Z</time>
      </trkpt>
      <trkpt lat="50.81484" lon="1.91729">
        <ele>89</ele>
        <time>2015-05-12T13:16:06.000Z</time>
      </trkpt>
      <trkpt lat="50.81484" lon="1.91729">
        <ele>89</ele>
        <time>2015-05-12T13:16:07.000Z</time>
      </trkpt>
      <trkpt lat="50.81484" lon="1.91729">
        <ele>88</ele>
        <time>2015-05-12T13:16:08.000Z</time>
      </trkpt>
      <trkpt lat="50.81484" lon="1.91729">
        <ele>88</ele>
        <time>2015-05-12T13:16:09.000Z</time>
      </trkpt>
      <trkpt lat="50.81484" lon="1.91729">
        <ele>89</ele>
        <time>2015-05-12T13:16:10.000Z</time>
      </trkpt>
      <trkpt lat="50.81484" lon="1.91729">
        <ele>89</ele>
        <time>2015-05-12T13:16:11.000Z</time>
      </trkpt>
      <trkpt lat="50.81484" lon="1.91729">
        <ele>89</ele>
        <time>2015-05-12T13:16:12.000Z</time>
      </trkpt>
      <trkpt lat="50.81484" lon="1.91729">
        <ele>89</ele>
        <time>2015-05-12T13:16:13.000Z</time>
      </trkpt>
      <trkpt lat="50.81484" lon="1.91729">
        <ele>89</ele>
        <time>2015-05-12T13:16:14.000Z</time>
      </trkpt>
      <trkpt lat="50.81484" lon="1.91729">
        <ele>89</ele>
        <time>2015-05-12T13:16:15.000Z</time>
      </trkpt>
      <trkpt lat="50.81484" lon="1.91729">
        <ele>89</ele>
        <time>2015-05-12T13:16:16.000Z</time>
      </trkpt>
      <trkpt lat="50.81484" lon="1.91729">
        <ele>89</ele>
        <time>2015-05-12T13:16:17.000Z</time>
      </trkpt>
      <trkpt lat="50.81484" lon="1.91729">
        <ele>89</ele>
        <time>2015-05-12T13:16:18.000Z</time>
      </trkpt>
      <trkpt lat="50.81484" lon="1.91729">
        <ele>89</ele>
        <time>2015-05-12T13:16:19.000Z</time>
      </trkpt>
      <trkpt lat="50.81484" lon="1.91729">
        <ele>89</ele>
        <time>2015-05-12T13:16:20.000Z</time>
      </trkpt>
      <trkpt lat="50.81484" lon="1.91729">
        <ele>89</ele>
        <time>2015-05-12T13:16:21.000Z</time>
      </trkpt>
      <trkpt lat="50.81484" lon="1.91728">
        <ele>89</ele>
        <time>2015-05-12T13:16:22.000Z</time>
      </trkpt>
      <trkpt lat="50.81483" lon="1.91728">
        <ele>89</ele>
        <time>2015-05-12T13:16:23.000Z</time>
      </trkpt>
      <trkpt lat="50.81483" lon="1.91727">
        <ele>89</ele>
        <time>2015-05-12T13:16:24.000Z</time>
      </trkpt>
      <trkpt lat="50.81483" lon="1.91727">
        <ele>89</ele>
        <time>2015-05-12T13:16:25.000Z</time>
      </trkpt>
      <trkpt lat="50.81483" lon="1.91727">
        <ele>90</ele>
        <time>2015-05-12T13:16:26.000Z</time>
      </trkpt>
      <trkpt lat="50.81482" lon="1.91727">
        <ele>90</ele>
        <time>2015-05-12T13:16:27.000Z</time>
      </trkpt>
      <trkpt lat="50.81482" lon="1.91726">
        <ele>90</ele>
        <time>2015-05-12T13:16:28.000Z</time>
      </trkpt>
      <trkpt lat="50.81481" lon="1.91726">
        <ele>90</ele>
        <time>2015-05-12T13:16:29.000Z</time>
      </trkpt>
      <trkpt lat="50.8148" lon="1.91726">
        <ele>90</ele>
        <time>2015-05-12T13:16:30.000Z</time>
      </trkpt>
      <trkpt lat="50.81479" lon="1.91725">
        <ele>90</ele>
        <time>2015-05-12T13:16:31.000Z</time>
      </trkpt>
      <trkpt lat="50.81478" lon="1.91724">
        <ele>90</ele>
        <time>2015-05-12T13:16:32.000Z</time>
      </trkpt>
      <trkpt lat="50.81477" lon="1.91724">
        <ele>89</ele>
        <time>2015-05-12T13:16:33.000Z</time>
      </trkpt>
      <trkpt lat="50.81476" lon="1.91723">
        <ele>89</ele>
        <time>2015-05-12T13:16:34.000Z</time>
      </trkpt>
      <trkpt lat="50.81475" lon="1.91723">
        <ele>89</ele>
        <time>2015-05-12T13:16:35.000Z</time>
      </trkpt>
      <trkpt lat="50.81474" lon="1.91722">
        <ele>89</ele>
        <time>2015-05-12T13:16:36.000Z</time>
      </trkpt>
      <trkpt lat="50.81473" lon="1.91722">
        <ele>89</ele>
        <time>2015-05-12T13:16:37.000Z</time>
      </trkpt>
      <trkpt lat="50.81472" lon="1.91721">
        <ele>89</ele>
        <time>2015-05-12T13:16:38.000Z</time>
      </trkpt>
      <trkpt lat="50.81471" lon="1.9172">
        <ele>89</ele>
        <time>2015-05-12T13:16:39.000Z</time>
      </trkpt>
      <trkpt lat="50.8147" lon="1.9172">
        <ele>89</ele>
        <time>2015-05-12T13:16:40.000Z</time>
      </trkpt>
      <trkpt lat="50.8147" lon="1.91718">
        <ele>89</ele>
        <time>2015-05-12T13:16:41.000Z</time>
      </trkpt>
      <trkpt lat="50.81469" lon="1.91718">
        <ele>89</ele>
        <time>2015-05-12T13:16:42.000Z</time>
      </trkpt>
      <trkpt lat="50.81468" lon="1.91717">
        <ele>89</ele>
        <time>2015-05-12T13:16:43.000Z</time>
      </trkpt>
      <trkpt lat="50.81467" lon="1.91716">
        <ele>89</ele>
        <time>2015-05-12T13:16:44.000Z</time>
      </trkpt>
      <trkpt lat="50.81466" lon="1.91716">
        <ele>89</ele>
        <time>2015-05-12T13:16:45.000Z</time>
      </trkpt>
      <trkpt lat="50.81465" lon="1.91715">
        <ele>90</ele>
        <time>2015-05-12T13:16:46.000Z</time>
      </trkpt>
      <trkpt lat="50.81464" lon="1.91715">
        <ele>90</ele>
        <time>2015-05-12T13:16:47.000Z</time>
      </trkpt>
      <trkpt lat="50.81463" lon="1.91714">
        <ele>89</ele>
        <time>2015-05-12T13:16:48.000Z</time>
      </trkpt>
      <trkpt lat="50.81462" lon="1.91714">
        <ele>89</ele>
        <time>2015-05-12T13:16:49.000Z</time>
      </trkpt>
      <trkpt lat="50.81462" lon="1.91714">
        <ele>89</ele>
        <time>2015-05-12T13:16:50.000Z</time>
      </trkpt>
      <trkpt lat="50.81461" lon="1.91713">
        <ele>89</ele>
        <time>2015-05-12T13:16:51.000Z</time>
      </trkpt>
      <trkpt lat="50.8146" lon="1.91713">
        <ele>90</ele>
        <time>2015-05-12T13:16:52.000Z</time>
      </trkpt>
      <trkpt lat="50.81459" lon="1.91712">
        <ele>90</ele>
        <time>2015-05-12T13:16:53.000Z</time>
      </trkpt>
      <trkpt lat="50.81459" lon="1.91711">
        <ele>90</ele>
        <time>2015-05-12T13:16:54.000Z</time>
      </trkpt>
      <trkpt lat="50.81458" lon="1.9171">
        <ele>89</ele>
        <time>2015-05-12T13:16:55.000Z</time>
      </trkpt>
      <trkpt lat="50.81458" lon="1.91708">
        <ele>89</ele>
        <time>2015-05-12T13:16:56.000Z</time>
      </trkpt>
      <trkpt lat="50.81458" lon="1.91707">
        <ele>89</ele>
        <time>2015-05-12T13:16:57.000Z</time>
      </trkpt>
      <trkpt lat="50.81457" lon="1.91707">
        <ele>89</ele>
        <time>2015-05-12T13:16:58.000Z</time>
      </trkpt>
      <trkpt lat="50.81457" lon="1.91706">
        <ele>90</ele>
        <time>2015-05-12T13:16:59.000Z</time>
      </trkpt>
      <trkpt lat="50.81457" lon="1.91706">
        <ele>90</ele>
        <time>2015-05-12T13:17:00.000Z</time>
      </trkpt>
      <trkpt lat="50.81457" lon="1.91707">
        <ele>91</ele>
        <time>2015-05-12T13:17:01.000Z</time>
      </trkpt>
      <trkpt lat="50.81457" lon="1.91707">
        <ele>91</ele>
        <time>2015-05-12T13:17:02.000Z</time>
      </trkpt>
      <trkpt lat="50.81456" lon="1.91707">
        <ele>91</ele>
        <time>2015-05-12T13:17:03.000Z</time>
      </trkpt>
      <trkpt lat="50.81456" lon="1.91707">
        <ele>91</ele>
        <time>2015-05-12T13:17:04.000Z</time>
      </trkpt>
      <trkpt lat="50.81456" lon="1.91707">
        <ele>91</ele>
        <time>2015-05-12T13:17:05.000Z</time>
      </trkpt>
      <trkpt lat="50.81455" lon="1.91707">
        <ele>91</ele>
        <time>2015-05-12T13:17:06.000Z</time>
      </trkpt>
      <trkpt lat="50.81455" lon="1.91706">
        <ele>91</ele>
        <time>2015-05-12T13:17:07.000Z</time>
      </trkpt>
      <trkpt lat="50.81454" lon="1.91706">
        <ele>92</ele>
        <time>2015-05-12T13:17:08.000Z</time>
      </trkpt>
      <trkpt lat="50.81454" lon="1.91705">
        <ele>91</ele>
        <time>2015-05-12T13:17:09.000Z</time>
      </trkpt>
      <trkpt lat="50.81454" lon="1.91705">
        <ele>92</ele>
        <time>2015-05-12T13:17:10.000Z</time>
      </trkpt>
      <trkpt lat="50.81453" lon="1.91704">
        <ele>91</ele>
        <time>2015-05-12T13:17:11.000Z</time>
      </trkpt>
      <trkpt lat="50.81453" lon="1.91703">
        <ele>91</ele>
        <time>2015-05-12T13:17:12.000Z</time>
      </trkpt>
      <trkpt lat="50.81453" lon="1.91703">
        <ele>91</ele>
        <time>2015-05-12T13:17:13.000Z</time>
      </trkpt>
      <trkpt lat="50.81452" lon="1.91702">
        <ele>91</ele>
        <time>2015-05-12T13:17:14.000Z</time>
      </trkpt>
      <trkpt lat="50.81452" lon="1.91702">
        <ele>91</ele>
        <time>2015-05-12T13:17:15.000Z</time>
      </trkpt>
      <trkpt lat="50.81451" lon="1.91701">
        <ele>91</ele>
        <time>2015-05-12T13:17:16.000Z</time>
      </trkpt>
      <trkpt lat="50.81451" lon="1.91701">
        <ele>91</ele>
        <time>2015-05-12T13:17:17.000Z</time>
      </trkpt>
      <trkpt lat="50.81451" lon="1.917">
        <ele>91</ele>
        <time>2015-05-12T13:17:18.000Z</time>
      </trkpt>
      <trkpt lat="50.8145" lon="1.917">
        <ele>91</ele>
        <time>2015-05-12T13:17:19.000Z</time>
      </trkpt>
      <trkpt lat="50.8145" lon="1.91699">
        <ele>91</ele>
        <time>2015-05-12T13:17:20.000Z</time>
      </trkpt>
      <trkpt lat="50.81449" lon="1.91698">
        <ele>91</ele>
        <time>2015-05-12T13:17:21.000Z</time>
      </trkpt>
      <trkpt lat="50.81449" lon="1.91698">
        <ele>90</ele>
        <time>2015-05-12T13:17:22.000Z</time>
      </trkpt>
      <trkpt lat="50.81449" lon="1.91697">
        <ele>90</ele>
        <time>2015-05-12T13:17:23.000Z</time>
      </trkpt>
      <trkpt lat="50.81448" lon="1.91696">
        <ele>90</ele>
        <time>2015-05-12T13:17:24.000Z</time>
      </trkpt>
      <trkpt lat="50.81447" lon="1.91695">
        <ele>90</ele>
        <time>2015-05-12T13:17:25.000Z</time>
      </trkpt>
      <trkpt lat="50.81447" lon="1.91694">
        <ele>90</ele>
        <time>2015-05-12T13:17:26.000Z</time>
      </trkpt>
      <trkpt lat="50.81446" lon="1.91693">
        <ele>90</ele>
        <time>2015-05-12T13:17:27.000Z</time>
      </trkpt>
      <trkpt lat="50.81445" lon="1.91692">
        <ele>89</ele>
        <time>2015-05-12T13:17:28.000Z</time>
      </trkpt>
      <trkpt lat="50.81444" lon="1.91691">
        <ele>89</ele>
        <time>2015-05-12T13:17:29.000Z</time>
      </trkpt>
      <trkpt lat="50.81443" lon="1.9169">
        <ele>89</ele>
        <time>2015-05-12T13:17:30.000Z</time>
      </trkpt>
      <trkpt lat="50.81442" lon="1.9169">
        <ele>89</ele>
        <time>2015-05-12T13:17:31.000Z</time>
      </trkpt>
      <trkpt lat="50.81442" lon="1.91689">
        <ele>90</ele>
        <time>2015-05-12T13:17:32.000Z</time>
      </trkpt>
      <trkpt lat="50.81441" lon="1.91688">
        <ele>89</ele>
        <time>2015-05-12T13:17:33.000Z</time>
      </trkpt>
      <trkpt lat="50.8144" lon="1.91688">
        <ele>89</ele>
        <time>2015-05-12T13:17:34.000Z</time>
      </trkpt>
      <trkpt lat="50.81439" lon="1.91687">
        <ele>89</ele>
        <time>2015-05-12T13:17:35.000Z</time>
      </trkpt>
      <trkpt lat="50.81438" lon="1.91686">
        <ele>89</ele>
        <time>2015-05-12T13:17:36.000Z</time>
      </trkpt>
      <trkpt lat="50.81437" lon="1.91686">
        <ele>89</ele>
        <time>2015-05-12T13:17:37.000Z</time>
      </trkpt>
      <trkpt lat="50.81436" lon="1.91685">
        <ele>89</ele>
        <time>2015-05-12T13:17:38.000Z</time>
      </trkpt>
      <trkpt lat="50.81435" lon="1.91684">
        <ele>89</ele>
        <time>2015-05-12T13:17:39.000Z</time>
      </trkpt>
      <trkpt lat="50.81434" lon="1.91683">
        <ele>89</ele>
        <time>2015-05-12T13:17:40.000Z</time>
      </trkpt>
      <trkpt lat="50.81433" lon="1.91682">
        <ele>89</ele>
        <time>2015-05-12T13:17:41.000Z</time>
      </trkpt>
      <trkpt lat="50.81432" lon="1.91681">
        <ele>89</ele>
        <time>2015-05-12T13:17:42.000Z</time>
      </trkpt>
      <trkpt lat="50.81431" lon="1.9168">
        <ele>89</ele>
        <time>2015-05-12T13:17:43.000Z</time>
      </trkpt>
      <trkpt lat="50.8143" lon="1.91679">
        <ele>89</ele>
        <time>2015-05-12T13:17:44.000Z</time>
      </trkpt>
      <trkpt lat="50.81429" lon="1.91678">
        <ele>88</ele>
        <time>2015-05-12T13:17:45.000Z</time>
      </trkpt>
      <trkpt lat="50.81429" lon="1.91677">
        <ele>88</ele>
        <time>2015-05-12T13:17:46.000Z</time>
      </trkpt>
      <trkpt lat="50.81428" lon="1.91676">
        <ele>89</ele>
        <time>2015-05-12T13:17:47.000Z</time>
      </trkpt>
      <trkpt lat="50.81427" lon="1.91675">
        <ele>89</ele>
        <time>2015-05-12T13:17:48.000Z</time>
      </trkpt>
      <trkpt lat="50.81426" lon="1.91674">
        <ele>89</ele>
        <time>2015-05-12T13:17:49.000Z</time>
      </trkpt>
      <trkpt lat="50.81425" lon="1.91674">
        <ele>89</ele>
        <time>2015-05-12T13:17:50.000Z</time>
      </trkpt>
      <trkpt lat="50.81424" lon="1.91673">
        <ele>89</ele>
        <time>2015-05-12T13:17:51.000Z</time>
      </trkpt>
      <trkpt lat="50.81423" lon="1.91672">
        <ele>89</ele>
        <time>2015-05-12T13:17:52.000Z</time>
      </trkpt>
      <trkpt lat="50.81422" lon="1.91672">
        <ele>89</ele>
        <time>2015-05-12T13:17:53.000Z</time>
      </trkpt>
      <trkpt lat="50.81421" lon="1.91671">
        <ele>89</ele>
        <time>2015-05-12T13:17:54.000Z</time>
      </trkpt>
      <trkpt lat="50.81421" lon="1.9167">
        <ele>89</ele>
        <time>2015-05-12T13:17:55.000Z</time>
      </trkpt>
      <trkpt lat="50.8142" lon="1.9167">
        <ele>90</ele>
        <time>2015-05-12T13:17:56.000Z</time>
      </trkpt>
      <trkpt lat="50.81419" lon="1.91669">
        <ele>90</ele>
        <time>2015-05-12T13:17:57.000Z</time>
      </trkpt>
      <trkpt lat="50.81419" lon="1.91669">
        <ele>90</ele>
        <time>2015-05-12T13:17:58.000Z</time>
      </trkpt>
      <trkpt lat="50.81418" lon="1.91669">
        <ele>90</ele>
        <time>2015-05-12T13:17:59.000Z</time>
      </trkpt>
      <trkpt lat="50.81417" lon="1.91668">
        <ele>90</ele>
        <time>2015-05-12T13:18:00.000Z</time>
      </trkpt>
      <trkpt lat="50.81416" lon="1.91668">
        <ele>90</ele>
        <time>2015-05-12T13:18:01.000Z</time>
      </trkpt>
      <trkpt lat="50.81415" lon="1.91668">
        <ele>90</ele>
        <time>2015-05-12T13:18:02.000Z</time>
      </trkpt>
      <trkpt lat="50.81414" lon="1.91668">
        <ele>90</ele>
        <time>2015-05-12T13:18:03.000Z</time>
      </trkpt>
      <trkpt lat="50.81413" lon="1.91667">
        <ele>90</ele>
        <time>2015-05-12T13:18:04.000Z</time>
      </trkpt>
      <trkpt lat="50.81411" lon="1.91667">
        <ele>90</ele>
        <time>2015-05-12T13:18:05.000Z</time>
      </trkpt>
      <trkpt lat="50.8141" lon="1.91666">
        <ele>90</ele>
        <time>2015-05-12T13:18:06.000Z</time>
      </trkpt>
      <trkpt lat="50.81409" lon="1.91666">
        <ele>90</ele>
        <time>2015-05-12T13:18:07.000Z</time>
      </trkpt>
      <trkpt lat="50.81407" lon="1.91665">
        <ele>91</ele>
        <time>2015-05-12T13:18:08.000Z</time>
      </trkpt>
      <trkpt lat="50.81406" lon="1.91664">
        <ele>91</ele>
        <time>2015-05-12T13:18:09.000Z</time>
      </trkpt>
      <trkpt lat="50.81404" lon="1.91664">
        <ele>91</ele>
        <time>2015-05-12T13:18:10.000Z</time>
      </trkpt>
      <trkpt lat="50.81402" lon="1.91664">
        <ele>91</ele>
        <time>2015-05-12T13:18:11.000Z</time>
      </trkpt>
      <trkpt lat="50.81401" lon="1.91663">
        <ele>91</ele>
        <time>2015-05-12T13:18:12.000Z</time>
      </trkpt>
      <trkpt lat="50.81399" lon="1.91663">
        <ele>91</ele>
        <time>2015-05-12T13:18:13.000Z</time>
      </trkpt>
      <trkpt lat="50.81398" lon="1.91663">
        <ele>91</ele>
        <time>2015-05-12T13:18:14.000Z</time>
      </trkpt>
      <trkpt lat="50.81397" lon="1.91662">
        <ele>91</ele>
        <time>2015-05-12T13:18:15.000Z</time>
      </trkpt>
      <trkpt lat="50.81397" lon="1.91662">
        <ele>91</ele>
        <time>2015-05-12T13:18:16.000Z</time>
      </trkpt>
      <trkpt lat="50.81396" lon="1.91661">
        <ele>91</ele>
        <time>2015-05-12T13:18:17.000Z</time>
      </trkpt>
      <trkpt lat="50.81395" lon="1.91661">
        <ele>91</ele>
        <time>2015-05-12T13:18:18.000Z</time>
      </trkpt>
      <trkpt lat="50.81395" lon="1.91661">
        <ele>91</ele>
        <time>2015-05-12T13:18:19.000Z</time>
      </trkpt>
      <trkpt lat="50.81394" lon="1.91661">
        <ele>91</ele>
        <time>2015-05-12T13:18:20.000Z</time>
      </trkpt>
      <trkpt lat="50.81393" lon="1.9166">
        <ele>91</ele>
        <time>2015-05-12T13:18:21.000Z</time>
      </trkpt>
      <trkpt lat="50.81393" lon="1.9166">
        <ele>91</ele>
        <time>2015-05-12T13:18:22.000Z</time>
      </trkpt>
      <trkpt lat="50.81393" lon="1.9166">
        <ele>91</ele>
        <time>2015-05-12T13:18:23.000Z</time>
      </trkpt>
      <trkpt lat="50.81392" lon="1.9166">
        <ele>91</ele>
        <time>2015-05-12T13:18:24.000Z</time>
      </trkpt>
      <trkpt lat="50.81392" lon="1.9166">
        <ele>91</ele>
        <time>2015-05-12T13:18:25.000Z</time>
      </trkpt>
      <trkpt lat="50.81391" lon="1.91659">
        <ele>91</ele>
        <time>2015-05-12T13:18:26.000Z</time>
      </trkpt>
      <trkpt lat="50.81389" lon="1.91659">
        <ele>92</ele>
        <time>2015-05-12T13:18:27.000Z</time>
      </trkpt>
      <trkpt lat="50.81388" lon="1.91659">
        <ele>92</ele>
        <time>2015-05-12T13:18:28.000Z</time>
      </trkpt>
      <trkpt lat="50.81386" lon="1.91658">
        <ele>92</ele>
        <time>2015-05-12T13:18:29.000Z</time>
      </trkpt>
      <trkpt lat="50.81385" lon="1.91658">
        <ele>92</ele>
        <time>2015-05-12T13:18:30.000Z</time>
      </trkpt>
      <trkpt lat="50.81384" lon="1.91658">
        <ele>92</ele>
        <time>2015-05-12T13:18:31.000Z</time>
      </trkpt>
      <trkpt lat="50.81383" lon="1.91657">
        <ele>93</ele>
        <time>2015-05-12T13:18:32.000Z</time>
      </trkpt>
      <trkpt lat="50.81382" lon="1.91657">
        <ele>92</ele>
        <time>2015-05-12T13:18:33.000Z</time>
      </trkpt>
      <trkpt lat="50.8138" lon="1.91656">
        <ele>92</ele>
        <time>2015-05-12T13:18:34.000Z</time>
      </trkpt>
      <trkpt lat="50.81379" lon="1.91655">
        <ele>92</ele>
        <time>2015-05-12T13:18:35.000Z</time>
      </trkpt>
      <trkpt lat="50.81378" lon="1.91655">
        <ele>92</ele>
        <time>2015-05-12T13:18:36.000Z</time>
      </trkpt>
      <trkpt lat="50.81377" lon="1.91654">
        <ele>92</ele>
        <time>2015-05-12T13:18:37.000Z</time>
      </trkpt>
      <trkpt lat="50.81375" lon="1.91654">
        <ele>92</ele>
        <time>2015-05-12T13:18:38.000Z</time>
      </trkpt>
      <trkpt lat="50.81374" lon="1.91654">
        <ele>92</ele>
        <time>2015-05-12T13:18:39.000Z</time>
      </trkpt>
      <trkpt lat="50.81373" lon="1.91653">
        <ele>92</ele>
        <time>2015-05-12T13:18:40.000Z</time>
      </trkpt>
      <trkpt lat="50.81372" lon="1.91653">
        <ele>92</ele>
        <time>2015-05-12T13:18:41.000Z</time>
      </trkpt>
      <trkpt lat="50.8137" lon="1.91652">
        <ele>92</ele>
        <time>2015-05-12T13:18:42.000Z</time>
      </trkpt>
      <trkpt lat="50.81369" lon="1.91651">
        <ele>93</ele>
        <time>2015-05-12T13:18:43.000Z</time>
      </trkpt>
      <trkpt lat="50.81368" lon="1.91651">
        <ele>93</ele>
        <time>2015-05-12T13:18:44.000Z</time>
      </trkpt>
      <trkpt lat="50.81366" lon="1.91651">
        <ele>93</ele>
        <time>2015-05-12T13:18:45.000Z</time>
      </trkpt>
      <trkpt lat="50.81365" lon="1.91651">
        <ele>93</ele>
        <time>2015-05-12T13:18:46.000Z</time>
      </trkpt>
      <trkpt lat="50.81364" lon="1.9165">
        <ele>93</ele>
        <time>2015-05-12T13:18:47.000Z</time>
      </trkpt>
      <trkpt lat="50.81363" lon="1.9165">
        <ele>93</ele>
        <time>2015-05-12T13:18:48.000Z</time>
      </trkpt>
      <trkpt lat="50.81363" lon="1.91649">
        <ele>93</ele>
        <time>2015-05-12T13:18:49.000Z</time>
      </trkpt>
      <trkpt lat="50.81362" lon="1.91649">
        <ele>93</ele>
        <time>2015-05-12T13:18:50.000Z</time>
      </trkpt>
      <trkpt lat="50.81361" lon="1.91648">
        <ele>93</ele>
        <time>2015-05-12T13:18:51.000Z</time>
      </trkpt>
      <trkpt lat="50.8136" lon="1.91647">
        <ele>93</ele>
        <time>2015-05-12T13:18:52.000Z</time>
      </trkpt>
      <trkpt lat="50.81359" lon="1.91647">
        <ele>93</ele>
        <time>2015-05-12T13:18:53.000Z</time>
      </trkpt>
      <trkpt lat="50.81358" lon="1.91647">
        <ele>93</ele>
        <time>2015-05-12T13:18:54.000Z</time>
      </trkpt>
      <trkpt lat="50.81357" lon="1.91646">
        <ele>93</ele>
        <time>2015-05-12T13:18:55.000Z</time>
      </trkpt>
      <trkpt lat="50.81356" lon="1.91646">
        <ele>93</ele>
        <time>2015-05-12T13:18:56.000Z</time>
      </trkpt>
      <trkpt lat="50.81355" lon="1.91645">
        <ele>92</ele>
        <time>2015-05-12T13:18:57.000Z</time>
      </trkpt>
      <trkpt lat="50.81354" lon="1.91645">
        <ele>92</ele>
        <time>2015-05-12T13:18:58.000Z</time>
      </trkpt>
      <trkpt lat="50.81353" lon="1.91644">
        <ele>92</ele>
        <time>2015-05-12T13:18:59.000Z</time>
      </trkpt>
      <trkpt lat="50.81352" lon="1.91643">
        <ele>92</ele>
        <time>2015-05-12T13:19:00.000Z</time>
      </trkpt>
      <trkpt lat="50.81352" lon="1.91643">
        <ele>92</ele>
        <time>2015-05-12T13:19:01.000Z</time>
      </trkpt>
      <trkpt lat="50.81351" lon="1.91642">
        <ele>92</ele>
        <time>2015-05-12T13:19:02.000Z</time>
      </trkpt>
      <trkpt lat="50.8135" lon="1.91642">
        <ele>92</ele>
        <time>2015-05-12T13:19:03.000Z</time>
      </trkpt>
      <trkpt lat="50.81349" lon="1.91641">
        <ele>92</ele>
        <time>2015-05-12T13:19:04.000Z</time>
      </trkpt>
      <trkpt lat="50.81348" lon="1.91641">
        <ele>92</ele>
        <time>2015-05-12T13:19:05.000Z</time>
      </trkpt>
      <trkpt lat="50.81347" lon="1.9164">
        <ele>92</ele>
        <time>2015-05-12T13:19:06.000Z</time>
      </trkpt>
      <trkpt lat="50.81346" lon="1.91639">
        <ele>92</ele>
        <time>2015-05-12T13:19:07.000Z</time>
      </trkpt>
      <trkpt lat="50.81345" lon="1.91639">
        <ele>92</ele>
        <time>2015-05-12T13:19:08.000Z</time>
      </trkpt>
      <trkpt lat="50.81344" lon="1.91639">
        <ele>92</ele>
        <time>2015-05-12T13:19:09.000Z</time>
      </trkpt>
      <trkpt lat="50.81343" lon="1.91638">
        <ele>92</ele>
        <time>2015-05-12T13:19:10.000Z</time>
      </trkpt>
      <trkpt lat="50.81342" lon="1.91638">
        <ele>92</ele>
        <time>2015-05-12T13:19:11.000Z</time>
      </trkpt>
      <trkpt lat="50.81341" lon="1.91638">
        <ele>92</ele>
        <time>2015-05-12T13:19:12.000Z</time>
      </trkpt>
      <trkpt lat="50.81339" lon="1.91637">
        <ele>92</ele>
        <time>2015-05-12T13:19:13.000Z</time>
      </trkpt>
      <trkpt lat="50.81338" lon="1.91637">
        <ele>92</ele>
        <time>2015-05-12T13:19:14.000Z</time>
      </trkpt>
      <trkpt lat="50.81337" lon="1.91636">
        <ele>92</ele>
        <time>2015-05-12T13:19:15.000Z</time>
      </trkpt>
      <trkpt lat="50.81336" lon="1.91636">
        <ele>92</ele>
        <time>2015-05-12T13:19:16.000Z</time>
      </trkpt>
      <trkpt lat="50.81335" lon="1.91635">
        <ele>92</ele>
        <time>2015-05-12T13:19:17.000Z</time>
      </trkpt>
      <trkpt lat="50.81334" lon="1.91635">
        <ele>92</ele>
        <time>2015-05-12T13:19:18.000Z</time>
      </trkpt>
      <trkpt lat="50.81332" lon="1.91635">
        <ele>92</ele>
        <time>2015-05-12T13:19:19.000Z</time>
      </trkpt>
      <trkpt lat="50.81331" lon="1.91634">
        <ele>92</ele>
        <time>2015-05-12T13:19:20.000Z</time>
      </trkpt>
      <trkpt lat="50.8133" lon="1.91634">
        <ele>92</ele>
        <time>2015-05-12T13:19:21.000Z</time>
      </trkpt>
      <trkpt lat="50.81329" lon="1.91633">
        <ele>92</ele>
        <time>2015-05-12T13:19:22.000Z</time>
      </trkpt>
      <trkpt lat="50.81327" lon="1.91632">
        <ele>92</ele>
        <time>2015-05-12T13:19:23.000Z</time>
      </trkpt>
      <trkpt lat="50.81326" lon="1.91632">
        <ele>92</ele>
        <time>2015-05-12T13:19:24.000Z</time>
      </trkpt>
      <trkpt lat="50.81325" lon="1.91631">
        <ele>92</ele>
        <time>2015-05-12T13:19:25.000Z</time>
      </trkpt>
      <trkpt lat="50.81325" lon="1.9163">
        <ele>92</ele>
        <time>2015-05-12T13:19:26.000Z</time>
      </trkpt>
      <trkpt lat="50.81324" lon="1.91629">
        <ele>92</ele>
        <time>2015-05-12T13:19:27.000Z</time>
      </trkpt>
      <trkpt lat="50.81322" lon="1.91629">
        <ele>92</ele>
        <time>2015-05-12T13:19:28.000Z</time>
      </trkpt>
      <trkpt lat="50.81321" lon="1.91628">
        <ele>92</ele>
        <time>2015-05-12T13:19:29.000Z</time>
      </trkpt>
      <trkpt lat="50.8132" lon="1.91628">
        <ele>92</ele>
        <time>2015-05-12T13:19:30.000Z</time>
      </trkpt>
      <trkpt lat="50.81319" lon="1.91627">
        <ele>92</ele>
        <time>2015-05-12T13:19:31.000Z</time>
      </trkpt>
      <trkpt lat="50.81318" lon="1.91627">
        <ele>92</ele>
        <time>2015-05-12T13:19:32.000Z</time>
      </trkpt>
      <trkpt lat="50.81317" lon="1.91626">
        <ele>92</ele>
        <time>2015-05-12T13:19:33.000Z</time>
      </trkpt>
      <trkpt lat="50.81316" lon="1.91625">
        <ele>92</ele>
        <time>2015-05-12T13:19:34.000Z</time>
      </trkpt>
      <trkpt lat="50.81316" lon="1.91624">
        <ele>91</ele>
        <time>2015-05-12T13:19:35.000Z</time>
      </trkpt>
      <trkpt lat="50.81315" lon="1.91623">
        <ele>91</ele>
        <time>2015-05-12T13:19:36.000Z</time>
      </trkpt>
      <trkpt lat="50.81315" lon="1.91621">
        <ele>91</ele>
        <time>2015-05-12T13:19:37.000Z</time>
      </trkpt>
      <trkpt lat="50.81314" lon="1.9162">
        <ele>91</ele>
        <time>2015-05-12T13:19:38.000Z</time>
      </trkpt>
      <trkpt lat="50.81313" lon="1.9162">
        <ele>91</ele>
        <time>2015-05-12T13:19:39.000Z</time>
      </trkpt>
      <trkpt lat="50.81313" lon="1.91619">
        <ele>92</ele>
        <time>2015-05-12T13:19:40.000Z</time>
      </trkpt>
      <trkpt lat="50.81313" lon="1.91619">
        <ele>92</ele>
        <time>2015-05-12T13:19:41.000Z</time>
      </trkpt>
      <trkpt lat="50.81312" lon="1.91618">
        <ele>92</ele>
        <time>2015-05-12T13:19:42.000Z</time>
      </trkpt>
      <trkpt lat="50.81311" lon="1.91618">
        <ele>92</ele>
        <time>2015-05-12T13:19:43.000Z</time>
      </trkpt>
      <trkpt lat="50.8131" lon="1.91617">
        <ele>92</ele>
        <time>2015-05-12T13:19:44.000Z</time>
      </trkpt>
      <trkpt lat="50.81309" lon="1.91616">
        <ele>93</ele>
        <time>2015-05-12T13:19:45.000Z</time>
      </trkpt>
      <trkpt lat="50.81309" lon="1.91615">
        <ele>92</ele>
        <time>2015-05-12T13:19:46.000Z</time>
      </trkpt>
      <trkpt lat="50.81308" lon="1.91615">
        <ele>93</ele>
        <time>2015-05-12T13:19:47.000Z</time>
      </trkpt>
      <trkpt lat="50.81307" lon="1.91614">
        <ele>93</ele>
        <time>2015-05-12T13:19:48.000Z</time>
      </trkpt>
      <trkpt lat="50.81306" lon="1.91614">
        <ele>93</ele>
        <time>2015-05-12T13:19:49.000Z</time>
      </trkpt>
      <trkpt lat="50.81305" lon="1.91613">
        <ele>93</ele>
        <time>2015-05-12T13:19:50.000Z</time>
      </trkpt>
      <trkpt lat="50.81304" lon="1.91612">
        <ele>92</ele>
        <time>2015-05-12T13:19:51.000Z</time>
      </trkpt>
      <trkpt lat="50.81303" lon="1.91612">
        <ele>92</ele>
        <time>2015-05-12T13:19:52.000Z</time>
      </trkpt>
      <trkpt lat="50.81303" lon="1.91611">
        <ele>92</ele>
        <time>2015-05-12T13:19:53.000Z</time>
      </trkpt>
      <trkpt lat="50.81302" lon="1.9161">
        <ele>92</ele>
        <time>2015-05-12T13:19:54.000Z</time>
      </trkpt>
      <trkpt lat="50.81301" lon="1.9161">
        <ele>92</ele>
        <time>2015-05-12T13:19:55.000Z</time>
      </trkpt>
      <trkpt lat="50.813" lon="1.91609">
        <ele>92</ele>
        <time>2015-05-12T13:19:56.000Z</time>
      </trkpt>
      <trkpt lat="50.81299" lon="1.91609">
        <ele>92</ele>
        <time>2015-05-12T13:19:57.000Z</time>
      </trkpt>
      <trkpt lat="50.81298" lon="1.91608">
        <ele>92</ele>
        <time>2015-05-12T13:19:58.000Z</time>
      </trkpt>
      <trkpt lat="50.81297" lon="1.91607">
        <ele>91</ele>
        <time>2015-05-12T13:19:59.000Z</time>
      </trkpt>
      <trkpt lat="50.81296" lon="1.91605">
        <ele>91</ele>
        <time>2015-05-12T13:20:00.000Z</time>
      </trkpt>
      <trkpt lat="50.81295" lon="1.91604">
        <ele>91</ele>
        <time>2015-05-12T13:20:01.000Z</time>
      </trkpt>
      <trkpt lat="50.81294" lon="1.91603">
        <ele>91</ele>
        <time>2015-05-12T13:20:02.000Z</time>
      </trkpt>
      <trkpt lat="50.81293" lon="1.91602">
        <ele>91</ele>
        <time>2015-05-12T13:20:03.000Z</time>
      </trkpt>
      <trkpt lat="50.81293" lon="1.91601">
        <ele>91</ele>
        <time>2015-05-12T13:20:04.000Z</time>
      </trkpt>
      <trkpt lat="50.81292" lon="1.916">
        <ele>90</ele>
        <time>2015-05-12T13:20:05.000Z</time>
      </trkpt>
      <trkpt lat="50.81291" lon="1.91599">
        <ele>90</ele>
        <time>2015-05-12T13:20:06.000Z</time>
      </trkpt>
      <trkpt lat="50.8129" lon="1.91599">
        <ele>90</ele>
        <time>2015-05-12T13:20:07.000Z</time>
      </trkpt>
      <trkpt lat="50.81289" lon="1.91598">
        <ele>90</ele>
        <time>2015-05-12T13:20:08.000Z</time>
      </trkpt>
      <trkpt lat="50.81288" lon="1.91597">
        <ele>90</ele>
        <time>2015-05-12T13:20:09.000Z</time>
      </trkpt>
      <trkpt lat="50.81287" lon="1.91596">
        <ele>90</ele>
        <time>2015-05-12T13:20:10.000Z</time>
      </trkpt>
      <trkpt lat="50.81286" lon="1.91595">
        <ele>90</ele>
        <time>2015-05-12T13:20:11.000Z</time>
      </trkpt>
      <trkpt lat="50.81285" lon="1.91594">
        <ele>90</ele>
        <time>2015-05-12T13:20:12.000Z</time>
      </trkpt>
      <trkpt lat="50.81284" lon="1.91594">
        <ele>90</ele>
        <time>2015-05-12T13:20:13.000Z</time>
      </trkpt>
      <trkpt lat="50.81284" lon="1.91593">
        <ele>90</ele>
        <time>2015-05-12T13:20:14.000Z</time>
      </trkpt>
      <trkpt lat="50.81283" lon="1.91592">
        <ele>90</ele>
        <time>2015-05-12T13:20:15.000Z</time>
      </trkpt>
      <trkpt lat="50.81282" lon="1.91591">
        <ele>90</ele>
        <time>2015-05-12T13:20:16.000Z</time>
      </trkpt>
      <trkpt lat="50.81281" lon="1.9159">
        <ele>90</ele>
        <time>2015-05-12T13:20:17.000Z</time>
      </trkpt>
      <trkpt lat="50.8128" lon="1.91588">
        <ele>90</ele>
        <time>2015-05-12T13:20:18.000Z</time>
      </trkpt>
      <trkpt lat="50.8128" lon="1.91587">
        <ele>90</ele>
        <time>2015-05-12T13:20:19.000Z</time>
      </trkpt>
      <trkpt lat="50.81279" lon="1.91586">
        <ele>90</ele>
        <time>2015-05-12T13:20:20.000Z</time>
      </trkpt>
      <trkpt lat="50.81278" lon="1.91586">
        <ele>90</ele>
        <time>2015-05-12T13:20:21.000Z</time>
      </trkpt>
      <trkpt lat="50.81277" lon="1.91585">
        <ele>90</ele>
        <time>2015-05-12T13:20:22.000Z</time>
      </trkpt>
      <trkpt lat="50.81276" lon="1.91584">
        <ele>89</ele>
        <time>2015-05-12T13:20:23.000Z</time>
      </trkpt>
      <trkpt lat="50.81276" lon="1.91583">
        <ele>89</ele>
        <time>2015-05-12T13:20:24.000Z</time>
      </trkpt>
      <trkpt lat="50.81275" lon="1.91582">
        <ele>89</ele>
        <time>2015-05-12T13:20:25.000Z</time>
      </trkpt>
      <trkpt lat="50.81274" lon="1.91582">
        <ele>89</ele>
        <time>2015-05-12T13:20:26.000Z</time>
      </trkpt>
      <trkpt lat="50.81273" lon="1.91581">
        <ele>89</ele>
        <time>2015-05-12T13:20:27.000Z</time>
      </trkpt>
      <trkpt lat="50.81272" lon="1.9158">
        <ele>88</ele>
        <time>2015-05-12T13:20:28.000Z</time>
      </trkpt>
      <trkpt lat="50.81272" lon="1.91579">
        <ele>87</ele>
        <time>2015-05-12T13:20:29.000Z</time>
      </trkpt>
      <trkpt lat="50.81271" lon="1.91579">
        <ele>87</ele>
        <time>2015-05-12T13:20:30.000Z</time>
      </trkpt>
      <trkpt lat="50.8127" lon="1.91578">
        <ele>87</ele>
        <time>2015-05-12T13:20:31.000Z</time>
      </trkpt>
      <trkpt lat="50.81269" lon="1.91577">
        <ele>87</ele>
        <time>2015-05-12T13:20:32.000Z</time>
      </trkpt>
      <trkpt lat="50.81268" lon="1.91577">
        <ele>87</ele>
        <time>2015-05-12T13:20:33.000Z</time>
      </trkpt>
      <trkpt lat="50.81267" lon="1.91576">
        <ele>87</ele>
        <time>2015-05-12T13:20:34.000Z</time>
      </trkpt>
      <trkpt lat="50.81266" lon="1.91576">
        <ele>87</ele>
        <time>2015-05-12T13:20:35.000Z</time>
      </trkpt>
      <trkpt lat="50.81265" lon="1.91575">
        <ele>87</ele>
        <time>2015-05-12T13:20:36.000Z</time>
      </trkpt>
      <trkpt lat="50.81264" lon="1.91574">
        <ele>87</ele>
        <time>2015-05-12T13:20:37.000Z</time>
      </trkpt>
      <trkpt lat="50.81263" lon="1.91573">
        <ele>87</ele>
        <time>2015-05-12T13:20:38.000Z</time>
      </trkpt>
      <trkpt lat="50.81262" lon="1.91573">
        <ele>87</ele>
        <time>2015-05-12T13:20:39.000Z</time>
      </trkpt>
      <trkpt lat="50.81261" lon="1.91572">
        <ele>87</ele>
        <time>2015-05-12T13:20:40.000Z</time>
      </trkpt>
      <trkpt lat="50.8126" lon="1.91571">
        <ele>87</ele>
        <time>2015-05-12T13:20:41.000Z</time>
      </trkpt>
      <trkpt lat="50.81259" lon="1.9157">
        <ele>87</ele>
        <time>2015-05-12T13:20:42.000Z</time>
      </trkpt>
      <trkpt lat="50.81258" lon="1.9157">
        <ele>87</ele>
        <time>2015-05-12T13:20:43.000Z</time>
      </trkpt>
      <trkpt lat="50.81257" lon="1.91569">
        <ele>87</ele>
        <time>2015-05-12T13:20:44.000Z</time>
      </trkpt>
      <trkpt lat="50.81256" lon="1.91568">
        <ele>87</ele>
        <time>2015-05-12T13:20:45.000Z</time>
      </trkpt>
      <trkpt lat="50.81256" lon="1.91567">
        <ele>87</ele>
        <time>2015-05-12T13:20:46.000Z</time>
      </trkpt>
      <trkpt lat="50.81255" lon="1.91566">
        <ele>87</ele>
        <time>2015-05-12T13:20:47.000Z</time>
      </trkpt>
      <trkpt lat="50.81254" lon="1.91565">
        <ele>87</ele>
        <time>2015-05-12T13:20:48.000Z</time>
      </trkpt>
      <trkpt lat="50.81253" lon="1.91564">
        <ele>87</ele>
        <time>2015-05-12T13:20:49.000Z</time>
      </trkpt>
      <trkpt lat="50.81252" lon="1.91563">
        <ele>87</ele>
        <time>2015-05-12T13:20:50.000Z</time>
      </trkpt>
      <trkpt lat="50.81251" lon="1.91563">
        <ele>87</ele>
        <time>2015-05-12T13:20:51.000Z</time>
      </trkpt>
      <trkpt lat="50.81251" lon="1.91562">
        <ele>87</ele>
        <time>2015-05-12T13:20:52.000Z</time>
      </trkpt>
      <trkpt lat="50.8125" lon="1.91561">
        <ele>87</ele>
        <time>2015-05-12T13:20:53.000Z</time>
      </trkpt>
      <trkpt lat="50.81249" lon="1.91561">
        <ele>87</ele>
        <time>2015-05-12T13:20:54.000Z</time>
      </trkpt>
      <trkpt lat="50.81248" lon="1.9156">
        <ele>87</ele>
        <time>2015-05-12T13:20:55.000Z</time>
      </trkpt>
      <trkpt lat="50.81247" lon="1.91559">
        <ele>87</ele>
        <time>2015-05-12T13:20:56.000Z</time>
      </trkpt>
      <trkpt lat="50.81246" lon="1.91558">
        <ele>87</ele>
        <time>2015-05-12T13:20:57.000Z</time>
      </trkpt>
      <trkpt lat="50.81246" lon="1.91558">
        <ele>87</ele>
        <time>2015-05-12T13:20:58.000Z</time>
      </trkpt>
      <trkpt lat="50.81244" lon="1.91557">
        <ele>87</ele>
        <time>2015-05-12T13:20:59.000Z</time>
      </trkpt>
      <trkpt lat="50.81243" lon="1.91557">
        <ele>87</ele>
        <time>2015-05-12T13:21:00.000Z</time>
      </trkpt>
      <trkpt lat="50.81242" lon="1.91556">
        <ele>88</ele>
        <time>2015-05-12T13:21:01.000Z</time>
      </trkpt>
      <trkpt lat="50.81241" lon="1.91554">
        <ele>88</ele>
        <time>2015-05-12T13:21:02.000Z</time>
      </trkpt>
      <trkpt lat="50.8124" lon="1.91553">
        <ele>88</ele>
        <time>2015-05-12T13:21:03.000Z</time>
      </trkpt>
      <trkpt lat="50.81238" lon="1.91551">
        <ele>88</ele>
        <time>2015-05-12T13:21:04.000Z</time>
      </trkpt>
      <trkpt lat="50.81237" lon="1.9155">
        <ele>88</ele>
        <time>2015-05-12T13:21:05.000Z</time>
      </trkpt>
      <trkpt lat="50.81236" lon="1.91549">
        <ele>89</ele>
        <time>2015-05-12T13:21:06.000Z</time>
      </trkpt>
      <trkpt lat="50.81235" lon="1.91548">
        <ele>89</ele>
        <time>2015-05-12T13:21:07.000Z</time>
      </trkpt>
      <trkpt lat="50.81234" lon="1.91547">
        <ele>89</ele>
        <time>2015-05-12T13:21:08.000Z</time>
      </trkpt>
      <trkpt lat="50.81233" lon="1.91546">
        <ele>89</ele>
        <time>2015-05-12T13:21:09.000Z</time>
      </trkpt>
      <trkpt lat="50.81232" lon="1.91545">
        <ele>89</ele>
        <time>2015-05-12T13:21:10.000Z</time>
      </trkpt>
      <trkpt lat="50.81231" lon="1.91544">
        <ele>89</ele>
        <time>2015-05-12T13:21:11.000Z</time>
      </trkpt>
      <trkpt lat="50.8123" lon="1.91544">
        <ele>89</ele>
        <time>2015-05-12T13:21:12.000Z</time>
      </trkpt>
      <trkpt lat="50.81229" lon="1.91543">
        <ele>90</ele>
        <time>2015-05-12T13:21:13.000Z</time>
      </trkpt>
      <trkpt lat="50.81228" lon="1.91542">
        <ele>90</ele>
        <time>2015-05-12T13:21:14.000Z</time>
      </trkpt>
      <trkpt lat="50.81227" lon="1.91541">
        <ele>90</ele>
        <time>2015-05-12T13:21:15.000Z</time>
      </trkpt>
      <trkpt lat="50.81226" lon="1.9154">
        <ele>90</ele>
        <time>2015-05-12T13:21:16.000Z</time>
      </trkpt>
      <trkpt lat="50.81225" lon="1.91539">
        <ele>90</ele>
        <time>2015-05-12T13:21:17.000Z</time>
      </trkpt>
      <trkpt lat="50.81224" lon="1.91539">
        <ele>90</ele>
        <time>2015-05-12T13:21:18.000Z</time>
      </trkpt>
      <trkpt lat="50.81223" lon="1.91538">
        <ele>90</ele>
        <time>2015-05-12T13:21:19.000Z</time>
      </trkpt>
      <trkpt lat="50.81222" lon="1.91537">
        <ele>90</ele>
        <time>2015-05-12T13:21:20.000Z</time>
      </trkpt>
      <trkpt lat="50.81221" lon="1.91536">
        <ele>90</ele>
        <time>2015-05-12T13:21:21.000Z</time>
      </trkpt>
      <trkpt lat="50.8122" lon="1.91535">
        <ele>90</ele>
        <time>2015-05-12T13:21:22.000Z</time>
      </trkpt>
      <trkpt lat="50.81219" lon="1.91534">
        <ele>89</ele>
        <time>2015-05-12T13:21:23.000Z</time>
      </trkpt>
      <trkpt lat="50.81218" lon="1.91533">
        <ele>89</ele>
        <time>2015-05-12T13:21:24.000Z</time>
      </trkpt>
      <trkpt lat="50.81217" lon="1.91532">
        <ele>89</ele>
        <time>2015-05-12T13:21:25.000Z</time>
      </trkpt>
      <trkpt lat="50.81216" lon="1.91531">
        <ele>89</ele>
        <time>2015-05-12T13:21:26.000Z</time>
      </trkpt>
      <trkpt lat="50.81215" lon="1.9153">
        <ele>90</ele>
        <time>2015-05-12T13:21:27.000Z</time>
      </trkpt>
      <trkpt lat="50.81215" lon="1.91529">
        <ele>89</ele>
        <time>2015-05-12T13:21:28.000Z</time>
      </trkpt>
      <trkpt lat="50.81214" lon="1.91528">
        <ele>89</ele>
        <time>2015-05-12T13:21:29.000Z</time>
      </trkpt>
      <trkpt lat="50.81213" lon="1.91527">
        <ele>90</ele>
        <time>2015-05-12T13:21:30.000Z</time>
      </trkpt>
      <trkpt lat="50.81212" lon="1.91526">
        <ele>90</ele>
        <time>2015-05-12T13:21:31.000Z</time>
      </trkpt>
      <trkpt lat="50.81211" lon="1.91525">
        <ele>90</ele>
        <time>2015-05-12T13:21:32.000Z</time>
      </trkpt>
      <trkpt lat="50.81211" lon="1.91524">
        <ele>90</ele>
        <time>2015-05-12T13:21:33.000Z</time>
      </trkpt>
      <trkpt lat="50.8121" lon="1.91523">
        <ele>89</ele>
        <time>2015-05-12T13:21:34.000Z</time>
      </trkpt>
      <trkpt lat="50.81209" lon="1.91522">
        <ele>89</ele>
        <time>2015-05-12T13:21:35.000Z</time>
      </trkpt>
      <trkpt lat="50.81208" lon="1.91521">
        <ele>90</ele>
        <time>2015-05-12T13:21:36.000Z</time>
      </trkpt>
      <trkpt lat="50.81207" lon="1.9152">
        <ele>90</ele>
        <time>2015-05-12T13:21:37.000Z</time>
      </trkpt>
      <trkpt lat="50.81206" lon="1.91519">
        <ele>90</ele>
        <time>2015-05-12T13:21:38.000Z</time>
      </trkpt>
      <trkpt lat="50.81206" lon="1.91518">
        <ele>90</ele>
        <time>2015-05-12T13:21:39.000Z</time>
      </trkpt>
      <trkpt lat="50.81205" lon="1.91517">
        <ele>90</ele>
        <time>2015-05-12T13:21:40.000Z</time>
      </trkpt>
      <trkpt lat="50.81204" lon="1.91517">
        <ele>90</ele>
        <time>2015-05-12T13:21:41.000Z</time>
      </trkpt>
      <trkpt lat="50.81204" lon="1.91516">
        <ele>90</ele>
        <time>2015-05-12T13:21:42.000Z</time>
      </trkpt>
      <trkpt lat="50.81204" lon="1.91516">
        <ele>90</ele>
        <time>2015-05-12T13:21:43.000Z</time>
      </trkpt>
      <trkpt lat="50.81204" lon="1.91516">
        <ele>90</ele>
        <time>2015-05-12T13:21:44.000Z</time>
      </trkpt>
      <trkpt lat="50.81204" lon="1.91516">
        <ele>90</ele>
        <time>2015-05-12T13:21:45.000Z</time>
      </trkpt>
      <trkpt lat="50.81204" lon="1.91516">
        <ele>90</ele>
        <time>2015-05-12T13:21:46.000Z</time>
      </trkpt>
      <trkpt lat="50.81204" lon="1.91516">
        <ele>90</ele>
        <time>2015-05-12T13:21:47.000Z</time>
      </trkpt>
      <trkpt lat="50.81204" lon="1.91516">
        <ele>90</ele>
        <time>2015-05-12T13:21:48.000Z</time>
      </trkpt>
      <trkpt lat="50.81204" lon="1.91516">
        <ele>90</ele>
        <time>2015-05-12T13:21:49.000Z</time>
      </trkpt>
      <trkpt lat="50.81204" lon="1.91516">
        <ele>90</ele>
        <time>2015-05-12T13:21:50.000Z</time>
      </trkpt>
      <trkpt lat="50.81204" lon="1.91516">
        <ele>90</ele>
        <time>2015-05-12T13:21:51.000Z</time>
      </trkpt>
      <trkpt lat="50.81204" lon="1.91517">
        <ele>90</ele>
        <time>2015-05-12T13:21:52.000Z</time>
      </trkpt>
      <trkpt lat="50.81204" lon="1.91517">
        <ele>90</ele>
        <time>2015-05-12T13:21:53.000Z</time>
      </trkpt>
      <trkpt lat="50.81204" lon="1.91517">
        <ele>90</ele>
        <time>2015-05-12T13:21:54.000Z</time>
      </trkpt>
      <trkpt lat="50.81204" lon="1.91517">
        <ele>90</ele>
        <time>2015-05-12T13:21:55.000Z</time>
      </trkpt>
      <trkpt lat="50.81203" lon="1.91517">
        <ele>90</ele>
        <time>2015-05-12T13:21:56.000Z</time>
      </trkpt>
      <trkpt lat="50.81203" lon="1.91517">
        <ele>90</ele>
        <time>2015-05-12T13:21:57.000Z</time>
      </trkpt>
      <trkpt lat="50.81203" lon="1.91517">
        <ele>90</ele>
        <time>2015-05-12T13:21:58.000Z</time>
      </trkpt>
      <trkpt lat="50.81203" lon="1.91517">
        <ele>90</ele>
        <time>2015-05-12T13:21:59.000Z</time>
      </trkpt>
      <trkpt lat="50.81203" lon="1.91516">
        <ele>90</ele>
        <time>2015-05-12T13:22:00.000Z</time>
      </trkpt>
      <trkpt lat="50.81203" lon="1.91516">
        <ele>90</ele>
        <time>2015-05-12T13:22:01.000Z</time>
      </trkpt>
      <trkpt lat="50.81203" lon="1.91516">
        <ele>90</ele>
        <time>2015-05-12T13:22:02.000Z</time>
      </trkpt>
      <trkpt lat="50.81203" lon="1.91516">
        <ele>90</ele>
        <time>2015-05-12T13:22:03.000Z</time>
      </trkpt>
      <trkpt lat="50.81203" lon="1.91516">
        <ele>90</ele>
        <time>2015-05-12T13:22:04.000Z</time>
      </trkpt>
      <trkpt lat="50.81203" lon="1.91516">
        <ele>90</ele>
        <time>2015-05-12T13:22:05.000Z</time>
      </trkpt>
      <trkpt lat="50.81203" lon="1.91516">
        <ele>90</ele>
        <time>2015-05-12T13:22:06.000Z</time>
      </trkpt>
      <trkpt lat="50.81203" lon="1.91516">
        <ele>90</ele>
        <time>2015-05-12T13:22:07.000Z</time>
      </trkpt>
      <trkpt lat="50.81203" lon="1.91516">
        <ele>90</ele>
        <time>2015-05-12T13:22:08.000Z</time>
      </trkpt>
      <trkpt lat="50.81203" lon="1.91516">
        <ele>90</ele>
        <time>2015-05-12T13:22:09.000Z</time>
      </trkpt>
      <trkpt lat="50.81202" lon="1.91516">
        <ele>90</ele>
        <time>2015-05-12T13:22:10.000Z</time>
      </trkpt>
      <trkpt lat="50.81202" lon="1.91516">
        <ele>90</ele>
        <time>2015-05-12T13:22:11.000Z</time>
      </trkpt>
      <trkpt lat="50.81202" lon="1.91516">
        <ele>90</ele>
        <time>2015-05-12T13:22:12.000Z</time>
      </trkpt>
      <trkpt lat="50.81202" lon="1.91516">
        <ele>90</ele>
        <time>2015-05-12T13:22:13.000Z</time>
      </trkpt>
      <trkpt lat="50.81202" lon="1.91516">
        <ele>90</ele>
        <time>2015-05-12T13:22:14.000Z</time>
      </trkpt>
      <trkpt lat="50.81202" lon="1.91516">
        <ele>91</ele>
        <time>2015-05-12T13:22:15.000Z</time>
      </trkpt>
      <trkpt lat="50.81202" lon="1.91516">
        <ele>91</ele>
        <time>2015-05-12T13:22:16.000Z</time>
      </trkpt>
      <trkpt lat="50.81202" lon="1.91516">
        <ele>91</ele>
        <time>2015-05-12T13:22:17.000Z</time>
      </trkpt>
      <trkpt lat="50.81202" lon="1.91516">
        <ele>91</ele>
        <time>2015-05-12T13:22:18.000Z</time>
      </trkpt>
      <trkpt lat="50.81202" lon="1.91516">
        <ele>91</ele>
        <time>2015-05-12T13:22:19.000Z</time>
      </trkpt>
      <trkpt lat="50.81202" lon="1.91516">
        <ele>90</ele>
        <time>2015-05-12T13:22:20.000Z</time>
      </trkpt>
      <trkpt lat="50.81202" lon="1.91516">
        <ele>90</ele>
        <time>2015-05-12T13:22:21.000Z</time>
      </trkpt>
      <trkpt lat="50.81202" lon="1.91516">
        <ele>90</ele>
        <time>2015-05-12T13:22:22.000Z</time>
      </trkpt>
      <trkpt lat="50.81202" lon="1.91516">
        <ele>90</ele>
        <time>2015-05-12T13:22:23.000Z</time>
      </trkpt>
      <trkpt lat="50.81202" lon="1.91516">
        <ele>90</ele>
        <time>2015-05-12T13:22:24.000Z</time>
      </trkpt>
      <trkpt lat="50.81202" lon="1.91516">
        <ele>90</ele>
        <time>2015-05-12T13:22:25.000Z</time>
      </trkpt>
      <trkpt lat="50.81202" lon="1.91516">
        <ele>90</ele>
        <time>2015-05-12T13:22:26.000Z</time>
      </trkpt>
      <trkpt lat="50.81202" lon="1.91516">
        <ele>91</ele>
        <time>2015-05-12T13:22:27.000Z</time>
      </trkpt>
      <trkpt lat="50.81202" lon="1.91516">
        <ele>91</ele>
        <time>2015-05-12T13:22:28.000Z</time>
      </trkpt>
      <trkpt lat="50.81202" lon="1.91517">
        <ele>91</ele>
        <time>2015-05-12T13:22:29.000Z</time>
      </trkpt>
      <trkpt lat="50.81202" lon="1.91517">
        <ele>91</ele>
        <time>2015-05-12T13:22:30.000Z</time>
      </trkpt>
      <trkpt lat="50.81202" lon="1.91517">
        <ele>91</ele>
        <time>2015-05-12T13:22:31.000Z</time>
      </trkpt>
      <trkpt lat="50.81202" lon="1.91517">
        <ele>91</ele>
        <time>2015-05-12T13:22:32.000Z</time>
      </trkpt>
      <trkpt lat="50.81202" lon="1.91517">
        <ele>90</ele>
        <time>2015-05-12T13:22:33.000Z</time>
      </trkpt>
      <trkpt lat="50.81202" lon="1.91516">
        <ele>90</ele>
        <time>2015-05-12T13:22:34.000Z</time>
      </trkpt>
      <trkpt lat="50.81202" lon="1.91516">
        <ele>90</ele>
        <time>2015-05-12T13:22:35.000Z</time>
      </trkpt>
      <trkpt lat="50.81202" lon="1.91516">
        <ele>90</ele>
        <time>2015-05-12T13:22:36.000Z</time>
      </trkpt>
      <trkpt lat="50.81202" lon="1.91516">
        <ele>90</ele>
        <time>2015-05-12T13:22:37.000Z</time>
      </trkpt>
      <trkpt lat="50.81202" lon="1.91516">
        <ele>90</ele>
        <time>2015-05-12T13:22:38.000Z</time>
      </trkpt>
      <trkpt lat="50.81202" lon="1.91516">
        <ele>90</ele>
        <time>2015-05-12T13:22:39.000Z</time>
      </trkpt>
      <trkpt lat="50.81202" lon="1.91516">
        <ele>90</ele>
        <time>2015-05-12T13:22:40.000Z</time>
      </trkpt>
      <trkpt lat="50.81202" lon="1.91517">
        <ele>90</ele>
        <time>2015-05-12T13:22:41.000Z</time>
      </trkpt>
      <trkpt lat="50.81202" lon="1.91517">
        <ele>90</ele>
        <time>2015-05-12T13:22:42.000Z</time>
      </trkpt>
      <trkpt lat="50.81202" lon="1.91516">
        <ele>90</ele>
        <time>2015-05-12T13:22:43.000Z</time>
      </trkpt>
      <trkpt lat="50.81202" lon="1.91516">
        <ele>90</ele>
        <time>2015-05-12T13:22:44.000Z</time>
      </trkpt>
      <trkpt lat="50.81202" lon="1.91516">
        <ele>90</ele>
        <time>2015-05-12T13:22:45.000Z</time>
      </trkpt>
      <trkpt lat="50.81202" lon="1.91516">
        <ele>90</ele>
        <time>2015-05-12T13:22:46.000Z</time>
      </trkpt>
      <trkpt lat="50.81202" lon="1.91516">
        <ele>90</ele>
        <time>2015-05-12T13:22:47.000Z</time>
      </trkpt>
      <trkpt lat="50.81202" lon="1.91516">
        <ele>90</ele>
        <time>2015-05-12T13:22:48.000Z</time>
      </trkpt>
      <trkpt lat="50.81201" lon="1.91515">
        <ele>90</ele>
        <time>2015-05-12T13:22:49.000Z</time>
      </trkpt>
      <trkpt lat="50.812" lon="1.91515">
        <ele>91</ele>
        <time>2015-05-12T13:22:50.000Z</time>
      </trkpt>
      <trkpt lat="50.812" lon="1.91514">
        <ele>91</ele>
        <time>2015-05-12T13:22:51.000Z</time>
      </trkpt>
      <trkpt lat="50.81199" lon="1.91513">
        <ele>90</ele>
        <time>2015-05-12T13:22:52.000Z</time>
      </trkpt>
      <trkpt lat="50.81198" lon="1.91513">
        <ele>90</ele>
        <time>2015-05-12T13:22:53.000Z</time>
      </trkpt>
      <trkpt lat="50.81197" lon="1.91512">
        <ele>90</ele>
        <time>2015-05-12T13:22:54.000Z</time>
      </trkpt>
      <trkpt lat="50.81197" lon="1.91511">
        <ele>90</ele>
        <time>2015-05-12T13:22:55.000Z</time>
      </trkpt>
      <trkpt lat="50.81196" lon="1.91511">
        <ele>91</ele>
        <time>2015-05-12T13:22:56.000Z</time>
      </trkpt>
      <trkpt lat="50.81195" lon="1.9151">
        <ele>91</ele>
        <time>2015-05-12T13:22:57.000Z</time>
      </trkpt>
      <trkpt lat="50.81195" lon="1.9151">
        <ele>91</ele>
        <time>2015-05-12T13:22:58.000Z</time>
      </trkpt>
      <trkpt lat="50.81194" lon="1.91509">
        <ele>90</ele>
        <time>2015-05-12T13:22:59.000Z</time>
      </trkpt>
      <trkpt lat="50.81193" lon="1.91508">
        <ele>90</ele>
        <time>2015-05-12T13:23:00.000Z</time>
      </trkpt>
      <trkpt lat="50.81192" lon="1.91507">
        <ele>90</ele>
        <time>2015-05-12T13:23:01.000Z</time>
      </trkpt>
      <trkpt lat="50.81191" lon="1.91507">
        <ele>90</ele>
        <time>2015-05-12T13:23:02.000Z</time>
      </trkpt>
      <trkpt lat="50.8119" lon="1.91506">
        <ele>90</ele>
        <time>2015-05-12T13:23:03.000Z</time>
      </trkpt>
      <trkpt lat="50.8119" lon="1.91505">
        <ele>90</ele>
        <time>2015-05-12T13:23:04.000Z</time>
      </trkpt>
      <trkpt lat="50.81189" lon="1.91505">
        <ele>90</ele>
        <time>2015-05-12T13:23:05.000Z</time>
      </trkpt>
      <trkpt lat="50.81188" lon="1.91504">
        <ele>90</ele>
        <time>2015-05-12T13:23:06.000Z</time>
      </trkpt>
      <trkpt lat="50.81188" lon="1.91504">
        <ele>90</ele>
        <time>2015-05-12T13:23:07.000Z</time>
      </trkpt>
      <trkpt lat="50.81188" lon="1.91503">
        <ele>90</ele>
        <time>2015-05-12T13:23:08.000Z</time>
      </trkpt>
      <trkpt lat="50.81188" lon="1.91503">
        <ele>90</ele>
        <time>2015-05-12T13:23:09.000Z</time>
      </trkpt>
      <trkpt lat="50.81188" lon="1.91503">
        <ele>90</ele>
        <time>2015-05-12T13:23:10.000Z</time>
      </trkpt>
      <trkpt lat="50.81188" lon="1.91504">
        <ele>90</ele>
        <time>2015-05-12T13:23:11.000Z</time>
      </trkpt>
      <trkpt lat="50.81188" lon="1.91504">
        <ele>90</ele>
        <time>2015-05-12T13:23:12.000Z</time>
      </trkpt>
      <trkpt lat="50.81188" lon="1.91503">
        <ele>90</ele>
        <time>2015-05-12T13:23:13.000Z</time>
      </trkpt>
      <trkpt lat="50.81188" lon="1.91503">
        <ele>90</ele>
        <time>2015-05-12T13:23:14.000Z</time>
      </trkpt>
      <trkpt lat="50.81188" lon="1.91503">
        <ele>90</ele>
        <time>2015-05-12T13:23:15.000Z</time>
      </trkpt>
      <trkpt lat="50.81188" lon="1.91503">
        <ele>90</ele>
        <time>2015-05-12T13:23:16.000Z</time>
      </trkpt>
      <trkpt lat="50.81188" lon="1.91503">
        <ele>90</ele>
        <time>2015-05-12T13:23:17.000Z</time>
      </trkpt>
      <trkpt lat="50.81188" lon="1.91503">
        <ele>91</ele>
        <time>2015-05-12T13:23:18.000Z</time>
      </trkpt>
      <trkpt lat="50.81188" lon="1.91503">
        <ele>91</ele>
        <time>2015-05-12T13:23:19.000Z</time>
      </trkpt>
      <trkpt lat="50.81188" lon="1.91503">
        <ele>91</ele>
        <time>2015-05-12T13:23:20.000Z</time>
      </trkpt>
      <trkpt lat="50.81188" lon="1.91503">
        <ele>91</ele>
        <time>2015-05-12T13:23:21.000Z</time>
      </trkpt>
      <trkpt lat="50.81188" lon="1.91503">
        <ele>91</ele>
        <time>2015-05-12T13:23:22.000Z</time>
      </trkpt>
      <trkpt lat="50.81188" lon="1.91503">
        <ele>91</ele>
        <time>2015-05-12T13:23:23.000Z</time>
      </trkpt>
      <trkpt lat="50.81188" lon="1.91503">
        <ele>91</ele>
        <time>2015-05-12T13:23:24.000Z</time>
      </trkpt>
      <trkpt lat="50.81188" lon="1.91503">
        <ele>91</ele>
        <time>2015-05-12T13:23:25.000Z</time>
      </trkpt>
      <trkpt lat="50.81188" lon="1.91503">
        <ele>91</ele>
        <time>2015-05-12T13:23:26.000Z</time>
      </trkpt>
      <trkpt lat="50.81188" lon="1.91503">
        <ele>91</ele>
        <time>2015-05-12T13:23:27.000Z</time>
      </trkpt>
      <trkpt lat="50.81188" lon="1.91503">
        <ele>91</ele>
        <time>2015-05-12T13:23:28.000Z</time>
      </trkpt>
      <trkpt lat="50.81188" lon="1.91503">
        <ele>91</ele>
        <time>2015-05-12T13:23:29.000Z</time>
      </trkpt>
      <trkpt lat="50.81188" lon="1.91503">
        <ele>91</ele>
        <time>2015-05-12T13:23:30.000Z</time>
      </trkpt>
      <trkpt lat="50.81187" lon="1.91503">
        <ele>91</ele>
        <time>2015-05-12T13:23:31.000Z</time>
      </trkpt>
      <trkpt lat="50.81187" lon="1.91503">
        <ele>91</ele>
        <time>2015-05-12T13:23:32.000Z</time>
      </trkpt>
      <trkpt lat="50.81187" lon="1.91502">
        <ele>91</ele>
        <time>2015-05-12T13:23:33.000Z</time>
      </trkpt>
      <trkpt lat="50.81187" lon="1.91502">
        <ele>91</ele>
        <time>2015-05-12T13:23:34.000Z</time>
      </trkpt>
      <trkpt lat="50.81187" lon="1.91502">
        <ele>90</ele>
        <time>2015-05-12T13:23:35.000Z</time>
      </trkpt>
      <trkpt lat="50.81187" lon="1.91502">
        <ele>90</ele>
        <time>2015-05-12T13:23:36.000Z</time>
      </trkpt>
      <trkpt lat="50.81187" lon="1.91502">
        <ele>90</ele>
        <time>2015-05-12T13:23:37.000Z</time>
      </trkpt>
      <trkpt lat="50.81187" lon="1.91502">
        <ele>90</ele>
        <time>2015-05-12T13:23:38.000Z</time>
      </trkpt>
      <trkpt lat="50.81187" lon="1.91502">
        <ele>90</ele>
        <time>2015-05-12T13:23:39.000Z</time>
      </trkpt>
      <trkpt lat="50.81187" lon="1.91502">
        <ele>90</ele>
        <time>2015-05-12T13:23:40.000Z</time>
      </trkpt>
      <trkpt lat="50.81187" lon="1.91502">
        <ele>90</ele>
        <time>2015-05-12T13:23:41.000Z</time>
      </trkpt>
      <trkpt lat="50.81187" lon="1.91502">
        <ele>90</ele>
        <time>2015-05-12T13:23:42.000Z</time>
      </trkpt>
      <trkpt lat="50.81187" lon="1.91502">
        <ele>90</ele>
        <time>2015-05-12T13:23:43.000Z</time>
      </trkpt>
      <trkpt lat="50.81187" lon="1.91502">
        <ele>90</ele>
        <time>2015-05-12T13:23:44.000Z</time>
      </trkpt>
      <trkpt lat="50.81187" lon="1.91502">
        <ele>90</ele>
        <time>2015-05-12T13:23:45.000Z</time>
      </trkpt>
      <trkpt lat="50.81187" lon="1.91502">
        <ele>90</ele>
        <time>2015-05-12T13:23:46.000Z</time>
      </trkpt>
      <trkpt lat="50.81187" lon="1.91502">
        <ele>90</ele>
        <time>2015-05-12T13:23:47.000Z</time>
      </trkpt>
      <trkpt lat="50.81187" lon="1.91502">
        <ele>90</ele>
        <time>2015-05-12T13:23:48.000Z</time>
      </trkpt>
      <trkpt lat="50.81187" lon="1.91502">
        <ele>90</ele>
        <time>2015-05-12T13:23:49.000Z</time>
      </trkpt>
      <trkpt lat="50.81187" lon="1.91502">
        <ele>90</ele>
        <time>2015-05-12T13:23:50.000Z</time>
      </trkpt>
      <trkpt lat="50.81187" lon="1.91501">
        <ele>90</ele>
        <time>2015-05-12T13:23:51.000Z</time>
      </trkpt>
      <trkpt lat="50.81186" lon="1.915">
        <ele>90</ele>
        <time>2015-05-12T13:23:52.000Z</time>
      </trkpt>
      <trkpt lat="50.81186" lon="1.915">
        <ele>90</ele>
        <time>2015-05-12T13:23:53.000Z</time>
      </trkpt>
      <trkpt lat="50.81186" lon="1.91499">
        <ele>90</ele>
        <time>2015-05-12T13:23:54.000Z</time>
      </trkpt>
      <trkpt lat="50.81185" lon="1.91499">
        <ele>90</ele>
        <time>2015-05-12T13:23:55.000Z</time>
      </trkpt>
      <trkpt lat="50.81184" lon="1.91498">
        <ele>89</ele>
        <time>2015-05-12T13:23:56.000Z</time>
      </trkpt>
      <trkpt lat="50.81184" lon="1.91497">
        <ele>89</ele>
        <time>2015-05-12T13:23:57.000Z</time>
      </trkpt>
      <trkpt lat="50.81183" lon="1.91497">
        <ele>89</ele>
        <time>2015-05-12T13:23:58.000Z</time>
      </trkpt>
      <trkpt lat="50.81182" lon="1.91496">
        <ele>90</ele>
        <time>2015-05-12T13:23:59.000Z</time>
      </trkpt>
      <trkpt lat="50.81181" lon="1.91495">
        <ele>90</ele>
        <time>2015-05-12T13:24:00.000Z</time>
      </trkpt>
      <trkpt lat="50.8118" lon="1.91494">
        <ele>90</ele>
        <time>2015-05-12T13:24:01.000Z</time>
      </trkpt>
      <trkpt lat="50.81179" lon="1.91493">
        <ele>90</ele>
        <time>2015-05-12T13:24:02.000Z</time>
      </trkpt>
      <trkpt lat="50.81178" lon="1.91492">
        <ele>90</ele>
        <time>2015-05-12T13:24:03.000Z</time>
      </trkpt>
      <trkpt lat="50.81177" lon="1.91492">
        <ele>90</ele>
        <time>2015-05-12T13:24:04.000Z</time>
      </trkpt>
      <trkpt lat="50.81176" lon="1.91491">
        <ele>90</ele>
        <time>2015-05-12T13:24:05.000Z</time>
      </trkpt>
      <trkpt lat="50.81175" lon="1.9149">
        <ele>90</ele>
        <time>2015-05-12T13:24:06.000Z</time>
      </trkpt>
      <trkpt lat="50.81174" lon="1.91489">
        <ele>90</ele>
        <time>2015-05-12T13:24:07.000Z</time>
      </trkpt>
      <trkpt lat="50.81174" lon="1.91488">
        <ele>89</ele>
        <time>2015-05-12T13:24:08.000Z</time>
      </trkpt>
      <trkpt lat="50.81173" lon="1.91488">
        <ele>90</ele>
        <time>2015-05-12T13:24:09.000Z</time>
      </trkpt>
      <trkpt lat="50.81173" lon="1.91487">
        <ele>89</ele>
        <time>2015-05-12T13:24:10.000Z</time>
      </trkpt>
      <trkpt lat="50.81172" lon="1.91487">
        <ele>89</ele>
        <time>2015-05-12T13:24:11.000Z</time>
      </trkpt>
      <trkpt lat="50.81172" lon="1.91487">
        <ele>90</ele>
        <time>2015-05-12T13:24:12.000Z</time>
      </trkpt>
      <trkpt lat="50.81172" lon="1.91487">
        <ele>90</ele>
        <time>2015-05-12T13:24:13.000Z</time>
      </trkpt>
      <trkpt lat="50.81172" lon="1.91487">
        <ele>90</ele>
        <time>2015-05-12T13:24:14.000Z</time>
      </trkpt>
      <trkpt lat="50.81171" lon="1.91487">
        <ele>90</ele>
        <time>2015-05-12T13:24:15.000Z</time>
      </trkpt>
      <trkpt lat="50.81171" lon="1.91487">
        <ele>90</ele>
        <time>2015-05-12T13:24:16.000Z</time>
      </trkpt>
      <trkpt lat="50.81171" lon="1.91487">
        <ele>90</ele>
        <time>2015-05-12T13:24:17.000Z</time>
      </trkpt>
      <trkpt lat="50.81171" lon="1.91487">
        <ele>90</ele>
        <time>2015-05-12T13:24:18.000Z</time>
      </trkpt>
      <trkpt lat="50.81171" lon="1.91487">
        <ele>90</ele>
        <time>2015-05-12T13:24:19.000Z</time>
      </trkpt>
      <trkpt lat="50.81171" lon="1.91486">
        <ele>90</ele>
        <time>2015-05-12T13:24:20.000Z</time>
      </trkpt>
      <trkpt lat="50.8117" lon="1.91486">
        <ele>89</ele>
        <time>2015-05-12T13:24:21.000Z</time>
      </trkpt>
      <trkpt lat="50.81169" lon="1.91485">
        <ele>89</ele>
        <time>2015-05-12T13:24:22.000Z</time>
      </trkpt>
      <trkpt lat="50.81168" lon="1.91484">
        <ele>89</ele>
        <time>2015-05-12T13:24:23.000Z</time>
      </trkpt>
      <trkpt lat="50.81167" lon="1.91483">
        <ele>89</ele>
        <time>2015-05-12T13:24:24.000Z</time>
      </trkpt>
      <trkpt lat="50.81166" lon="1.91482">
        <ele>89</ele>
        <time>2015-05-12T13:24:25.000Z</time>
      </trkpt>
      <trkpt lat="50.81165" lon="1.91481">
        <ele>89</ele>
        <time>2015-05-12T13:24:26.000Z</time>
      </trkpt>
      <trkpt lat="50.81164" lon="1.91481">
        <ele>89</ele>
        <time>2015-05-12T13:24:27.000Z</time>
      </trkpt>
      <trkpt lat="50.81163" lon="1.9148">
        <ele>89</ele>
        <time>2015-05-12T13:24:28.000Z</time>
      </trkpt>
      <trkpt lat="50.81162" lon="1.91479">
        <ele>89</ele>
        <time>2015-05-12T13:24:29.000Z</time>
      </trkpt>
      <trkpt lat="50.81161" lon="1.91478">
        <ele>89</ele>
        <time>2015-05-12T13:24:30.000Z</time>
      </trkpt>
      <trkpt lat="50.81161" lon="1.91478">
        <ele>89</ele>
        <time>2015-05-12T13:24:31.000Z</time>
      </trkpt>
      <trkpt lat="50.81161" lon="1.91478">
        <ele>89</ele>
        <time>2015-05-12T13:24:32.000Z</time>
      </trkpt>
      <trkpt lat="50.8116" lon="1.91477">
        <ele>89</ele>
        <time>2015-05-12T13:24:33.000Z</time>
      </trkpt>
      <trkpt lat="50.8116" lon="1.91477">
        <ele>89</ele>
        <time>2015-05-12T13:24:34.000Z</time>
      </trkpt>
      <trkpt lat="50.81159" lon="1.91477">
        <ele>89</ele>
        <time>2015-05-12T13:24:35.000Z</time>
      </trkpt>
      <trkpt lat="50.81158" lon="1.91476">
        <ele>89</ele>
        <time>2015-05-12T13:24:36.000Z</time>
      </trkpt>
      <trkpt lat="50.81157" lon="1.91475">
        <ele>89</ele>
        <time>2015-05-12T13:24:37.000Z</time>
      </trkpt>
      <trkpt lat="50.81156" lon="1.91474">
        <ele>89</ele>
        <time>2015-05-12T13:24:38.000Z</time>
      </trkpt>
      <trkpt lat="50.81155" lon="1.91474">
        <ele>89</ele>
        <time>2015-05-12T13:24:39.000Z</time>
      </trkpt>
      <trkpt lat="50.81154" lon="1.91473">
        <ele>89</ele>
        <time>2015-05-12T13:24:40.000Z</time>
      </trkpt>
      <trkpt lat="50.81153" lon="1.91471">
        <ele>89</ele>
        <time>2015-05-12T13:24:41.000Z</time>
      </trkpt>
      <trkpt lat="50.81152" lon="1.9147">
        <ele>89</ele>
        <time>2015-05-12T13:24:42.000Z</time>
      </trkpt>
      <trkpt lat="50.81151" lon="1.91469">
        <ele>88</ele>
        <time>2015-05-12T13:24:43.000Z</time>
      </trkpt>
      <trkpt lat="50.8115" lon="1.91468">
        <ele>88</ele>
        <time>2015-05-12T13:24:44.000Z</time>
      </trkpt>
      <trkpt lat="50.81149" lon="1.91467">
        <ele>88</ele>
        <time>2015-05-12T13:24:45.000Z</time>
      </trkpt>
      <trkpt lat="50.81148" lon="1.91466">
        <ele>88</ele>
        <time>2015-05-12T13:24:46.000Z</time>
      </trkpt>
      <trkpt lat="50.81147" lon="1.91465">
        <ele>88</ele>
        <time>2015-05-12T13:24:47.000Z</time>
      </trkpt>
      <trkpt lat="50.81146" lon="1.91464">
        <ele>88</ele>
        <time>2015-05-12T13:24:48.000Z</time>
      </trkpt>
      <trkpt lat="50.81145" lon="1.91463">
        <ele>88</ele>
        <time>2015-05-12T13:24:49.000Z</time>
      </trkpt>
      <trkpt lat="50.81144" lon="1.91462">
        <ele>88</ele>
        <time>2015-05-12T13:24:50.000Z</time>
      </trkpt>
      <trkpt lat="50.81142" lon="1.91461">
        <ele>88</ele>
        <time>2015-05-12T13:24:51.000Z</time>
      </trkpt>
      <trkpt lat="50.81141" lon="1.9146">
        <ele>88</ele>
        <time>2015-05-12T13:24:52.000Z</time>
      </trkpt>
      <trkpt lat="50.8114" lon="1.91459">
        <ele>88</ele>
        <time>2015-05-12T13:24:53.000Z</time>
      </trkpt>
      <trkpt lat="50.81139" lon="1.91458">
        <ele>88</ele>
        <time>2015-05-12T13:24:54.000Z</time>
      </trkpt>
      <trkpt lat="50.81138" lon="1.91457">
        <ele>88</ele>
        <time>2015-05-12T13:24:55.000Z</time>
      </trkpt>
      <trkpt lat="50.81137" lon="1.91456">
        <ele>88</ele>
        <time>2015-05-12T13:24:56.000Z</time>
      </trkpt>
      <trkpt lat="50.81136" lon="1.91455">
        <ele>88</ele>
        <time>2015-05-12T13:24:57.000Z</time>
      </trkpt>
      <trkpt lat="50.81135" lon="1.91454">
        <ele>88</ele>
        <time>2015-05-12T13:24:58.000Z</time>
      </trkpt>
      <trkpt lat="50.81134" lon="1.91453">
        <ele>88</ele>
        <time>2015-05-12T13:24:59.000Z</time>
      </trkpt>
      <trkpt lat="50.81133" lon="1.91453">
        <ele>88</ele>
        <time>2015-05-12T13:25:00.000Z</time>
      </trkpt>
      <trkpt lat="50.81131" lon="1.91452">
        <ele>88</ele>
        <time>2015-05-12T13:25:01.000Z</time>
      </trkpt>
      <trkpt lat="50.8113" lon="1.91451">
        <ele>88</ele>
        <time>2015-05-12T13:25:02.000Z</time>
      </trkpt>
      <trkpt lat="50.81129" lon="1.9145">
        <ele>88</ele>
        <time>2015-05-12T13:25:03.000Z</time>
      </trkpt>
      <trkpt lat="50.81128" lon="1.91449">
        <ele>88</ele>
        <time>2015-05-12T13:25:04.000Z</time>
      </trkpt>
      <trkpt lat="50.81127" lon="1.91448">
        <ele>88</ele>
        <time>2015-05-12T13:25:05.000Z</time>
      </trkpt>
      <trkpt lat="50.81126" lon="1.91447">
        <ele>89</ele>
        <time>2015-05-12T13:25:06.000Z</time>
      </trkpt>
      <trkpt lat="50.81125" lon="1.91446">
        <ele>89</ele>
        <time>2015-05-12T13:25:07.000Z</time>
      </trkpt>
      <trkpt lat="50.81124" lon="1.91445">
        <ele>89</ele>
        <time>2015-05-12T13:25:08.000Z</time>
      </trkpt>
      <trkpt lat="50.81123" lon="1.91444">
        <ele>89</ele>
        <time>2015-05-12T13:25:09.000Z</time>
      </trkpt>
      <trkpt lat="50.81122" lon="1.91443">
        <ele>89</ele>
        <time>2015-05-12T13:25:10.000Z</time>
      </trkpt>
      <trkpt lat="50.81121" lon="1.91442">
        <ele>88</ele>
        <time>2015-05-12T13:25:11.000Z</time>
      </trkpt>
      <trkpt lat="50.8112" lon="1.91441">
        <ele>88</ele>
        <time>2015-05-12T13:25:12.000Z</time>
      </trkpt>
      <trkpt lat="50.81119" lon="1.91439">
        <ele>88</ele>
        <time>2015-05-12T13:25:13.000Z</time>
      </trkpt>
      <trkpt lat="50.81118" lon="1.91439">
        <ele>88</ele>
        <time>2015-05-12T13:25:14.000Z</time>
      </trkpt>
      <trkpt lat="50.81117" lon="1.91438">
        <ele>88</ele>
        <time>2015-05-12T13:25:15.000Z</time>
      </trkpt>
      <trkpt lat="50.81116" lon="1.91437">
        <ele>89</ele>
        <time>2015-05-12T13:25:16.000Z</time>
      </trkpt>
      <trkpt lat="50.81116" lon="1.91436">
        <ele>89</ele>
        <time>2015-05-12T13:25:17.000Z</time>
      </trkpt>
      <trkpt lat="50.81115" lon="1.91436">
        <ele>89</ele>
        <time>2015-05-12T13:25:18.000Z</time>
      </trkpt>
      <trkpt lat="50.81114" lon="1.91435">
        <ele>89</ele>
        <time>2015-05-12T13:25:19.000Z</time>
      </trkpt>
      <trkpt lat="50.81113" lon="1.91435">
        <ele>89</ele>
        <time>2015-05-12T13:25:20.000Z</time>
      </trkpt>
      <trkpt lat="50.81112" lon="1.91434">
        <ele>89</ele>
        <time>2015-05-12T13:25:21.000Z</time>
      </trkpt>
      <trkpt lat="50.81111" lon="1.91433">
        <ele>89</ele>
        <time>2015-05-12T13:25:22.000Z</time>
      </trkpt>
      <trkpt lat="50.8111" lon="1.91432">
        <ele>89</ele>
        <time>2015-05-12T13:25:23.000Z</time>
      </trkpt>
      <trkpt lat="50.81109" lon="1.91431">
        <ele>89</ele>
        <time>2015-05-12T13:25:24.000Z</time>
      </trkpt>
      <trkpt lat="50.81108" lon="1.9143">
        <ele>88</ele>
        <time>2015-05-12T13:25:25.000Z</time>
      </trkpt>
      <trkpt lat="50.81107" lon="1.9143">
        <ele>88</ele>
        <time>2015-05-12T13:25:26.000Z</time>
      </trkpt>
      <trkpt lat="50.81106" lon="1.91429">
        <ele>89</ele>
        <time>2015-05-12T13:25:27.000Z</time>
      </trkpt>
      <trkpt lat="50.81105" lon="1.91428">
        <ele>89</ele>
        <time>2015-05-12T13:25:28.000Z</time>
      </trkpt>
      <trkpt lat="50.81104" lon="1.91427">
        <ele>89</ele>
        <time>2015-05-12T13:25:29.000Z</time>
      </trkpt>
      <trkpt lat="50.81103" lon="1.91426">
        <ele>88</ele>
        <time>2015-05-12T13:25:30.000Z</time>
      </trkpt>
      <trkpt lat="50.81102" lon="1.91425">
        <ele>88</ele>
        <time>2015-05-12T13:25:31.000Z</time>
      </trkpt>
      <trkpt lat="50.81101" lon="1.91424">
        <ele>88</ele>
        <time>2015-05-12T13:25:32.000Z</time>
      </trkpt>
      <trkpt lat="50.811" lon="1.91423">
        <ele>88</ele>
        <time>2015-05-12T13:25:33.000Z</time>
      </trkpt>
      <trkpt lat="50.81099" lon="1.91422">
        <ele>88</ele>
        <time>2015-05-12T13:25:34.000Z</time>
      </trkpt>
      <trkpt lat="50.81098" lon="1.91421">
        <ele>88</ele>
        <time>2015-05-12T13:25:35.000Z</time>
      </trkpt>
      <trkpt lat="50.81097" lon="1.9142">
        <ele>88</ele>
        <time>2015-05-12T13:25:36.000Z</time>
      </trkpt>
      <trkpt lat="50.81097" lon="1.9142">
        <ele>88</ele>
        <time>2015-05-12T13:25:37.000Z</time>
      </trkpt>
      <trkpt lat="50.81096" lon="1.91419">
        <ele>88</ele>
        <time>2015-05-12T13:25:38.000Z</time>
      </trkpt>
      <trkpt lat="50.81095" lon="1.91418">
        <ele>88</ele>
        <time>2015-05-12T13:25:39.000Z</time>
      </trkpt>
      <trkpt lat="50.81094" lon="1.91417">
        <ele>88</ele>
        <time>2015-05-12T13:25:40.000Z</time>
      </trkpt>
      <trkpt lat="50.81094" lon="1.91416">
        <ele>88</ele>
        <time>2015-05-12T13:25:41.000Z</time>
      </trkpt>
      <trkpt lat="50.81093" lon="1.91416">
        <ele>88</ele>
        <time>2015-05-12T13:25:42.000Z</time>
      </trkpt>
      <trkpt lat="50.81092" lon="1.91415">
        <ele>88</ele>
        <time>2015-05-12T13:25:43.000Z</time>
      </trkpt>
      <trkpt lat="50.81091" lon="1.91414">
        <ele>89</ele>
        <time>2015-05-12T13:25:44.000Z</time>
      </trkpt>
      <trkpt lat="50.8109" lon="1.91414">
        <ele>89</ele>
        <time>2015-05-12T13:25:45.000Z</time>
      </trkpt>
      <trkpt lat="50.81089" lon="1.91413">
        <ele>89</ele>
        <time>2015-05-12T13:25:46.000Z</time>
      </trkpt>
      <trkpt lat="50.81089" lon="1.91412">
        <ele>89</ele>
        <time>2015-05-12T13:25:47.000Z</time>
      </trkpt>
      <trkpt lat="50.81088" lon="1.91411">
        <ele>88</ele>
        <time>2015-05-12T13:25:48.000Z</time>
      </trkpt>
      <trkpt lat="50.81087" lon="1.91411">
        <ele>88</ele>
        <time>2015-05-12T13:25:49.000Z</time>
      </trkpt>
      <trkpt lat="50.81086" lon="1.9141">
        <ele>89</ele>
        <time>2015-05-12T13:25:50.000Z</time>
      </trkpt>
      <trkpt lat="50.81085" lon="1.91409">
        <ele>88</ele>
        <time>2015-05-12T13:25:51.000Z</time>
      </trkpt>
      <trkpt lat="50.81084" lon="1.91408">
        <ele>88</ele>
        <time>2015-05-12T13:25:52.000Z</time>
      </trkpt>
      <trkpt lat="50.81083" lon="1.91407">
        <ele>88</ele>
        <time>2015-05-12T13:25:53.000Z</time>
      </trkpt>
      <trkpt lat="50.81082" lon="1.91406">
        <ele>88</ele>
        <time>2015-05-12T13:25:54.000Z</time>
      </trkpt>
      <trkpt lat="50.81081" lon="1.91405">
        <ele>88</ele>
        <time>2015-05-12T13:25:55.000Z</time>
      </trkpt>
      <trkpt lat="50.81081" lon="1.91405">
        <ele>88</ele>
        <time>2015-05-12T13:25:56.000Z</time>
      </trkpt>
      <trkpt lat="50.8108" lon="1.91404">
        <ele>88</ele>
        <time>2015-05-12T13:25:57.000Z</time>
      </trkpt>
      <trkpt lat="50.81079" lon="1.91403">
        <ele>88</ele>
        <time>2015-05-12T13:25:58.000Z</time>
      </trkpt>
      <trkpt lat="50.81078" lon="1.91402">
        <ele>88</ele>
        <time>2015-05-12T13:25:59.000Z</time>
      </trkpt>
      <trkpt lat="50.81078" lon="1.91401">
        <ele>88</ele>
        <time>2015-05-12T13:26:00.000Z</time>
      </trkpt>
      <trkpt lat="50.81077" lon="1.91399">
        <ele>87</ele>
        <time>2015-05-12T13:26:01.000Z</time>
      </trkpt>
      <trkpt lat="50.81076" lon="1.91398">
        <ele>87</ele>
        <time>2015-05-12T13:26:02.000Z</time>
      </trkpt>
      <trkpt lat="50.81075" lon="1.91397">
        <ele>87</ele>
        <time>2015-05-12T13:26:03.000Z</time>
      </trkpt>
      <trkpt lat="50.81074" lon="1.91397">
        <ele>87</ele>
        <time>2015-05-12T13:26:04.000Z</time>
      </trkpt>
      <trkpt lat="50.81074" lon="1.91396">
        <ele>87</ele>
        <time>2015-05-12T13:26:05.000Z</time>
      </trkpt>
      <trkpt lat="50.81072" lon="1.91395">
        <ele>87</ele>
        <time>2015-05-12T13:26:06.000Z</time>
      </trkpt>
      <trkpt lat="50.81071" lon="1.91394">
        <ele>87</ele>
        <time>2015-05-12T13:26:07.000Z</time>
      </trkpt>
      <trkpt lat="50.8107" lon="1.91393">
        <ele>87</ele>
        <time>2015-05-12T13:26:08.000Z</time>
      </trkpt>
      <trkpt lat="50.81069" lon="1.91392">
        <ele>87</ele>
        <time>2015-05-12T13:26:09.000Z</time>
      </trkpt>
      <trkpt lat="50.81069" lon="1.91391">
        <ele>88</ele>
        <time>2015-05-12T13:26:10.000Z</time>
      </trkpt>
      <trkpt lat="50.81069" lon="1.9139">
        <ele>89</ele>
        <time>2015-05-12T13:26:11.000Z</time>
      </trkpt>
      <trkpt lat="50.81068" lon="1.91389">
        <ele>89</ele>
        <time>2015-05-12T13:26:12.000Z</time>
      </trkpt>
      <trkpt lat="50.81066" lon="1.91388">
        <ele>89</ele>
        <time>2015-05-12T13:26:13.000Z</time>
      </trkpt>
      <trkpt lat="50.81065" lon="1.91387">
        <ele>89</ele>
        <time>2015-05-12T13:26:14.000Z</time>
      </trkpt>
      <trkpt lat="50.81064" lon="1.91386">
        <ele>89</ele>
        <time>2015-05-12T13:26:15.000Z</time>
      </trkpt>
      <trkpt lat="50.81062" lon="1.91385">
        <ele>88</ele>
        <time>2015-05-12T13:26:16.000Z</time>
      </trkpt>
      <trkpt lat="50.81061" lon="1.91385">
        <ele>89</ele>
        <time>2015-05-12T13:26:17.000Z</time>
      </trkpt>
      <trkpt lat="50.8106" lon="1.91384">
        <ele>88</ele>
        <time>2015-05-12T13:26:18.000Z</time>
      </trkpt>
      <trkpt lat="50.81058" lon="1.91384">
        <ele>88</ele>
        <time>2015-05-12T13:26:19.000Z</time>
      </trkpt>
      <trkpt lat="50.81057" lon="1.91383">
        <ele>88</ele>
        <time>2015-05-12T13:26:20.000Z</time>
      </trkpt>
      <trkpt lat="50.81056" lon="1.91383">
        <ele>89</ele>
        <time>2015-05-12T13:26:21.000Z</time>
      </trkpt>
      <trkpt lat="50.81055" lon="1.91382">
        <ele>89</ele>
        <time>2015-05-12T13:26:22.000Z</time>
      </trkpt>
      <trkpt lat="50.81054" lon="1.91382">
        <ele>89</ele>
        <time>2015-05-12T13:26:23.000Z</time>
      </trkpt>
      <trkpt lat="50.81053" lon="1.91382">
        <ele>89</ele>
        <time>2015-05-12T13:26:24.000Z</time>
      </trkpt>
      <trkpt lat="50.81052" lon="1.91381">
        <ele>90</ele>
        <time>2015-05-12T13:26:25.000Z</time>
      </trkpt>
      <trkpt lat="50.81051" lon="1.91381">
        <ele>90</ele>
        <time>2015-05-12T13:26:26.000Z</time>
      </trkpt>
      <trkpt lat="50.8105" lon="1.9138">
        <ele>90</ele>
        <time>2015-05-12T13:26:27.000Z</time>
      </trkpt>
      <trkpt lat="50.81048" lon="1.9138">
        <ele>90</ele>
        <time>2015-05-12T13:26:28.000Z</time>
      </trkpt>
      <trkpt lat="50.81047" lon="1.91379">
        <ele>91</ele>
        <time>2015-05-12T13:26:29.000Z</time>
      </trkpt>
      <trkpt lat="50.81047" lon="1.91378">
        <ele>91</ele>
        <time>2015-05-12T13:26:30.000Z</time>
      </trkpt>
      <trkpt lat="50.81046" lon="1.91378">
        <ele>90</ele>
        <time>2015-05-12T13:26:31.000Z</time>
      </trkpt>
      <trkpt lat="50.81046" lon="1.91377">
        <ele>90</ele>
        <time>2015-05-12T13:26:32.000Z</time>
      </trkpt>
      <trkpt lat="50.81045" lon="1.91376">
        <ele>90</ele>
        <time>2015-05-12T13:26:33.000Z</time>
      </trkpt>
      <trkpt lat="50.81045" lon="1.91375">
        <ele>90</ele>
        <time>2015-05-12T13:26:34.000Z</time>
      </trkpt>
      <trkpt lat="50.81045" lon="1.91375">
        <ele>90</ele>
        <time>2015-05-12T13:26:35.000Z</time>
      </trkpt>
      <trkpt lat="50.81045" lon="1.91374">
        <ele>90</ele>
        <time>2015-05-12T13:26:36.000Z</time>
      </trkpt>
      <trkpt lat="50.81045" lon="1.91373">
        <ele>90</ele>
        <time>2015-05-12T13:26:37.000Z</time>
      </trkpt>
      <trkpt lat="50.81045" lon="1.91373">
        <ele>90</ele>
        <time>2015-05-12T13:26:38.000Z</time>
      </trkpt>
      <trkpt lat="50.81044" lon="1.91373">
        <ele>90</ele>
        <time>2015-05-12T13:26:39.000Z</time>
      </trkpt>
      <trkpt lat="50.81044" lon="1.91373">
        <ele>90</ele>
        <time>2015-05-12T13:26:40.000Z</time>
      </trkpt>
      <trkpt lat="50.81044" lon="1.91373">
        <ele>90</ele>
        <time>2015-05-12T13:26:41.000Z</time>
      </trkpt>
      <trkpt lat="50.81044" lon="1.91373">
        <ele>90</ele>
        <time>2015-05-12T13:26:42.000Z</time>
      </trkpt>
      <trkpt lat="50.81044" lon="1.91373">
        <ele>90</ele>
        <time>2015-05-12T13:26:43.000Z</time>
      </trkpt>
      <trkpt lat="50.81044" lon="1.91373">
        <ele>90</ele>
        <time>2015-05-12T13:26:44.000Z</time>
      </trkpt>
      <trkpt lat="50.81044" lon="1.91373">
        <ele>90</ele>
        <time>2015-05-12T13:26:45.000Z</time>
      </trkpt>
      <trkpt lat="50.81044" lon="1.91372">
        <ele>89</ele>
        <time>2015-05-12T13:26:46.000Z</time>
      </trkpt>
      <trkpt lat="50.81044" lon="1.91372">
        <ele>89</ele>
        <time>2015-05-12T13:26:47.000Z</time>
      </trkpt>
      <trkpt lat="50.81044" lon="1.91373">
        <ele>89</ele>
        <time>2015-05-12T13:26:48.000Z</time>
      </trkpt>
      <trkpt lat="50.81044" lon="1.91373">
        <ele>89</ele>
        <time>2015-05-12T13:26:49.000Z</time>
      </trkpt>
      <trkpt lat="50.81044" lon="1.91373">
        <ele>89</ele>
        <time>2015-05-12T13:26:50.000Z</time>
      </trkpt>
      <trkpt lat="50.81044" lon="1.91373">
        <ele>89</ele>
        <time>2015-05-12T13:26:51.000Z</time>
      </trkpt>
      <trkpt lat="50.81044" lon="1.91373">
        <ele>89</ele>
        <time>2015-05-12T13:26:52.000Z</time>
      </trkpt>
      <trkpt lat="50.81043" lon="1.91373">
        <ele>89</ele>
        <time>2015-05-12T13:26:53.000Z</time>
      </trkpt>
      <trkpt lat="50.81043" lon="1.91373">
        <ele>89</ele>
        <time>2015-05-12T13:26:54.000Z</time>
      </trkpt>
      <trkpt lat="50.81043" lon="1.91372">
        <ele>89</ele>
        <time>2015-05-12T13:26:55.000Z</time>
      </trkpt>
      <trkpt lat="50.81042" lon="1.91372">
        <ele>89</ele>
        <time>2015-05-12T13:26:56.000Z</time>
      </trkpt>
      <trkpt lat="50.81042" lon="1.91372">
        <ele>89</ele>
        <time>2015-05-12T13:26:57.000Z</time>
      </trkpt>
      <trkpt lat="50.81042" lon="1.91372">
        <ele>89</ele>
        <time>2015-05-12T13:26:58.000Z</time>
      </trkpt>
      <trkpt lat="50.81042" lon="1.91371">
        <ele>89</ele>
        <time>2015-05-12T13:26:59.000Z</time>
      </trkpt>
      <trkpt lat="50.81042" lon="1.91371">
        <ele>89</ele>
        <time>2015-05-12T13:27:00.000Z</time>
      </trkpt>
      <trkpt lat="50.81042" lon="1.91371">
        <ele>89</ele>
        <time>2015-05-12T13:27:01.000Z</time>
      </trkpt>
      <trkpt lat="50.81042" lon="1.91371">
        <ele>89</ele>
        <time>2015-05-12T13:27:02.000Z</time>
      </trkpt>
      <trkpt lat="50.81042" lon="1.9137">
        <ele>88</ele>
        <time>2015-05-12T13:27:03.000Z</time>
      </trkpt>
      <trkpt lat="50.81042" lon="1.9137">
        <ele>88</ele>
        <time>2015-05-12T13:27:04.000Z</time>
      </trkpt>
      <trkpt lat="50.81042" lon="1.9137">
        <ele>88</ele>
        <time>2015-05-12T13:27:05.000Z</time>
      </trkpt>
      <trkpt lat="50.81042" lon="1.9137">
        <ele>89</ele>
        <time>2015-05-12T13:27:06.000Z</time>
      </trkpt>
      <trkpt lat="50.81042" lon="1.9137">
        <ele>89</ele>
        <time>2015-05-12T13:27:07.000Z</time>
      </trkpt>
      <trkpt lat="50.81042" lon="1.9137">
        <ele>89</ele>
        <time>2015-05-12T13:27:08.000Z</time>
      </trkpt>
      <trkpt lat="50.81042" lon="1.91371">
        <ele>89</ele>
        <time>2015-05-12T13:27:09.000Z</time>
      </trkpt>
      <trkpt lat="50.81042" lon="1.91371">
        <ele>89</ele>
        <time>2015-05-12T13:27:10.000Z</time>
      </trkpt>
      <trkpt lat="50.81043" lon="1.91371">
        <ele>90</ele>
        <time>2015-05-12T13:27:11.000Z</time>
      </trkpt>
      <trkpt lat="50.81043" lon="1.91371">
        <ele>91</ele>
        <time>2015-05-12T13:27:12.000Z</time>
      </trkpt>
      <trkpt lat="50.81043" lon="1.91372">
        <ele>91</ele>
        <time>2015-05-12T13:27:13.000Z</time>
      </trkpt>
      <trkpt lat="50.81044" lon="1.91372">
        <ele>92</ele>
        <time>2015-05-12T13:27:14.000Z</time>
      </trkpt>
      <trkpt lat="50.81044" lon="1.91372">
        <ele>92</ele>
        <time>2015-05-12T13:27:15.000Z</time>
      </trkpt>
      <trkpt lat="50.81044" lon="1.91373">
        <ele>92</ele>
        <time>2015-05-12T13:27:16.000Z</time>
      </trkpt>
      <trkpt lat="50.81044" lon="1.91373">
        <ele>92</ele>
        <time>2015-05-12T13:27:17.000Z</time>
      </trkpt>
      <trkpt lat="50.81044" lon="1.91373">
        <ele>92</ele>
        <time>2015-05-12T13:27:18.000Z</time>
      </trkpt>
      <trkpt lat="50.81044" lon="1.91373">
        <ele>90</ele>
        <time>2015-05-12T13:27:19.000Z</time>
      </trkpt>
      <trkpt lat="50.81044" lon="1.91372">
        <ele>89</ele>
        <time>2015-05-12T13:27:20.000Z</time>
      </trkpt>
      <trkpt lat="50.81044" lon="1.9137">
        <ele>88</ele>
        <time>2015-05-12T13:27:21.000Z</time>
      </trkpt>
      <trkpt lat="50.81044" lon="1.91369">
        <ele>88</ele>
        <time>2015-05-12T13:27:22.000Z</time>
      </trkpt>
      <trkpt lat="50.81044" lon="1.91368">
        <ele>88</ele>
        <time>2015-05-12T13:27:23.000Z</time>
      </trkpt>
      <trkpt lat="50.81044" lon="1.91367">
        <ele>87</ele>
        <time>2015-05-12T13:27:24.000Z</time>
      </trkpt>
      <trkpt lat="50.81045" lon="1.91367">
        <ele>87</ele>
        <time>2015-05-12T13:27:25.000Z</time>
      </trkpt>
      <trkpt lat="50.81046" lon="1.91367">
        <ele>88</ele>
        <time>2015-05-12T13:27:26.000Z</time>
      </trkpt>
      <trkpt lat="50.81046" lon="1.91367">
        <ele>87</ele>
        <time>2015-05-12T13:27:27.000Z</time>
      </trkpt>
      <trkpt lat="50.81046" lon="1.91368">
        <ele>87</ele>
        <time>2015-05-12T13:27:28.000Z</time>
      </trkpt>
      <trkpt lat="50.81046" lon="1.91368">
        <ele>88</ele>
        <time>2015-05-12T13:27:29.000Z</time>
      </trkpt>
      <trkpt lat="50.81046" lon="1.91368">
        <ele>88</ele>
        <time>2015-05-12T13:27:30.000Z</time>
      </trkpt>
      <trkpt lat="50.81046" lon="1.91368">
        <ele>88</ele>
        <time>2015-05-12T13:27:31.000Z</time>
      </trkpt>
      <trkpt lat="50.81046" lon="1.91368">
        <ele>89</ele>
        <time>2015-05-12T13:27:32.000Z</time>
      </trkpt>
      <trkpt lat="50.81046" lon="1.91368">
        <ele>89</ele>
        <time>2015-05-12T13:27:33.000Z</time>
      </trkpt>
      <trkpt lat="50.81046" lon="1.91368">
        <ele>89</ele>
        <time>2015-05-12T13:27:34.000Z</time>
      </trkpt>
      <trkpt lat="50.81045" lon="1.91368">
        <ele>89</ele>
        <time>2015-05-12T13:27:35.000Z</time>
      </trkpt>
      <trkpt lat="50.81045" lon="1.91368">
        <ele>89</ele>
        <time>2015-05-12T13:27:36.000Z</time>
      </trkpt>
      <trkpt lat="50.81045" lon="1.91369">
        <ele>89</ele>
        <time>2015-05-12T13:27:37.000Z</time>
      </trkpt>
      <trkpt lat="50.81045" lon="1.91369">
        <ele>89</ele>
        <time>2015-05-12T13:27:38.000Z</time>
      </trkpt>
      <trkpt lat="50.81045" lon="1.91369">
        <ele>88</ele>
        <time>2015-05-12T13:27:39.000Z</time>
      </trkpt>
      <trkpt lat="50.81045" lon="1.91369">
        <ele>88</ele>
        <time>2015-05-12T13:27:40.000Z</time>
      </trkpt>
      <trkpt lat="50.81044" lon="1.91368">
        <ele>87</ele>
        <time>2015-05-12T13:27:41.000Z</time>
      </trkpt>
      <trkpt lat="50.81044" lon="1.91368">
        <ele>88</ele>
        <time>2015-05-12T13:27:42.000Z</time>
      </trkpt>
      <trkpt lat="50.81044" lon="1.91367">
        <ele>88</ele>
        <time>2015-05-12T13:27:43.000Z</time>
      </trkpt>
      <trkpt lat="50.81044" lon="1.91367">
        <ele>88</ele>
        <time>2015-05-12T13:27:44.000Z</time>
      </trkpt>
      <trkpt lat="50.81044" lon="1.91367">
        <ele>88</ele>
        <time>2015-05-12T13:27:45.000Z</time>
      </trkpt>
      <trkpt lat="50.81044" lon="1.91367">
        <ele>88</ele>
        <time>2015-05-12T13:27:46.000Z</time>
      </trkpt>
      <trkpt lat="50.81044" lon="1.91367">
        <ele>87</ele>
        <time>2015-05-12T13:27:47.000Z</time>
      </trkpt>
      <trkpt lat="50.81043" lon="1.91367">
        <ele>88</ele>
        <time>2015-05-12T13:27:48.000Z</time>
      </trkpt>
      <trkpt lat="50.81043" lon="1.91367">
        <ele>88</ele>
        <time>2015-05-12T13:27:49.000Z</time>
      </trkpt>
      <trkpt lat="50.81043" lon="1.91367">
        <ele>88</ele>
        <time>2015-05-12T13:27:50.000Z</time>
      </trkpt>
      <trkpt lat="50.81043" lon="1.91367">
        <ele>88</ele>
        <time>2015-05-12T13:27:51.000Z</time>
      </trkpt>
      <trkpt lat="50.81043" lon="1.91367">
        <ele>87</ele>
        <time>2015-05-12T13:27:52.000Z</time>
      </trkpt>
      <trkpt lat="50.81043" lon="1.91367">
        <ele>87</ele>
        <time>2015-05-12T13:27:53.000Z</time>
      </trkpt>
      <trkpt lat="50.81042" lon="1.91367">
        <ele>87</ele>
        <time>2015-05-12T13:27:54.000Z</time>
      </trkpt>
      <trkpt lat="50.81042" lon="1.91367">
        <ele>87</ele>
        <time>2015-05-12T13:27:55.000Z</time>
      </trkpt>
      <trkpt lat="50.81042" lon="1.91367">
        <ele>87</ele>
        <time>2015-05-12T13:27:56.000Z</time>
      </trkpt>
      <trkpt lat="50.81042" lon="1.91366">
        <ele>87</ele>
        <time>2015-05-12T13:27:57.000Z</time>
      </trkpt>
      <trkpt lat="50.81042" lon="1.91366">
        <ele>87</ele>
        <time>2015-05-12T13:27:58.000Z</time>
      </trkpt>
      <trkpt lat="50.81042" lon="1.91366">
        <ele>87</ele>
        <time>2015-05-12T13:27:59.000Z</time>
      </trkpt>
      <trkpt lat="50.81042" lon="1.91366">
        <ele>88</ele>
        <time>2015-05-12T13:28:00.000Z</time>
      </trkpt>
      <trkpt lat="50.81043" lon="1.91366">
        <ele>88</ele>
        <time>2015-05-12T13:28:01.000Z</time>
      </trkpt>
      <trkpt lat="50.81043" lon="1.91366">
        <ele>88</ele>
        <time>2015-05-12T13:28:02.000Z</time>
      </trkpt>
      <trkpt lat="50.81043" lon="1.91366">
        <ele>88</ele>
        <time>2015-05-12T13:28:03.000Z</time>
      </trkpt>
      <trkpt lat="50.81043" lon="1.91366">
        <ele>88</ele>
        <time>2015-05-12T13:28:04.000Z</time>
      </trkpt>
      <trkpt lat="50.81043" lon="1.91366">
        <ele>89</ele>
        <time>2015-05-12T13:28:05.000Z</time>
      </trkpt>
      <trkpt lat="50.81043" lon="1.91366">
        <ele>89</ele>
        <time>2015-05-12T13:28:06.000Z</time>
      </trkpt>
      <trkpt lat="50.81043" lon="1.91366">
        <ele>89</ele>
        <time>2015-05-12T13:28:07.000Z</time>
      </trkpt>
      <trkpt lat="50.81043" lon="1.91366">
        <ele>89</ele>
        <time>2015-05-12T13:28:08.000Z</time>
      </trkpt>
      <trkpt lat="50.81043" lon="1.91366">
        <ele>89</ele>
        <time>2015-05-12T13:28:09.000Z</time>
      </trkpt>
      <trkpt lat="50.81043" lon="1.91366">
        <ele>89</ele>
        <time>2015-05-12T13:28:10.000Z</time>
      </trkpt>
      <trkpt lat="50.81042" lon="1.91366">
        <ele>89</ele>
        <time>2015-05-12T13:28:11.000Z</time>
      </trkpt>
      <trkpt lat="50.81042" lon="1.91366">
        <ele>90</ele>
        <time>2015-05-12T13:28:12.000Z</time>
      </trkpt>
      <trkpt lat="50.81042" lon="1.91366">
        <ele>90</ele>
        <time>2015-05-12T13:28:13.000Z</time>
      </trkpt>
      <trkpt lat="50.81042" lon="1.91366">
        <ele>90</ele>
        <time>2015-05-12T13:28:14.000Z</time>
      </trkpt>
      <trkpt lat="50.81042" lon="1.91366">
        <ele>90</ele>
        <time>2015-05-12T13:28:15.000Z</time>
      </trkpt>
      <trkpt lat="50.81042" lon="1.91366">
        <ele>90</ele>
        <time>2015-05-12T13:28:16.000Z</time>
      </trkpt>
      <trkpt lat="50.81042" lon="1.91365">
        <ele>90</ele>
        <time>2015-05-12T13:28:17.000Z</time>
      </trkpt>
      <trkpt lat="50.81042" lon="1.91365">
        <ele>90</ele>
        <time>2015-05-12T13:28:18.000Z</time>
      </trkpt>
      <trkpt lat="50.81042" lon="1.91365">
        <ele>90</ele>
        <time>2015-05-12T13:28:19.000Z</time>
      </trkpt>
      <trkpt lat="50.81042" lon="1.91365">
        <ele>90</ele>
        <time>2015-05-12T13:28:20.000Z</time>
      </trkpt>
      <trkpt lat="50.81042" lon="1.91365">
        <ele>90</ele>
        <time>2015-05-12T13:28:21.000Z</time>
      </trkpt>
      <trkpt lat="50.81042" lon="1.91365">
        <ele>89</ele>
        <time>2015-05-12T13:28:22.000Z</time>
      </trkpt>
      <trkpt lat="50.81042" lon="1.91365">
        <ele>89</ele>
        <time>2015-05-12T13:28:23.000Z</time>
      </trkpt>
      <trkpt lat="50.81041" lon="1.91365">
        <ele>89</ele>
        <time>2015-05-12T13:28:24.000Z</time>
      </trkpt>
      <trkpt lat="50.81041" lon="1.91365">
        <ele>89</ele>
        <time>2015-05-12T13:28:25.000Z</time>
      </trkpt>
      <trkpt lat="50.81042" lon="1.91365">
        <ele>90</ele>
        <time>2015-05-12T13:28:26.000Z</time>
      </trkpt>
      <trkpt lat="50.81042" lon="1.91365">
        <ele>90</ele>
        <time>2015-05-12T13:28:27.000Z</time>
      </trkpt>
      <trkpt lat="50.81043" lon="1.91365">
        <ele>90</ele>
        <time>2015-05-12T13:28:28.000Z</time>
      </trkpt>
      <trkpt lat="50.81043" lon="1.91365">
        <ele>90</ele>
        <time>2015-05-12T13:28:29.000Z</time>
      </trkpt>
      <trkpt lat="50.81043" lon="1.91366">
        <ele>90</ele>
        <time>2015-05-12T13:28:30.000Z</time>
      </trkpt>
      <trkpt lat="50.81044" lon="1.91366">
        <ele>90</ele>
        <time>2015-05-12T13:28:31.000Z</time>
      </trkpt>
      <trkpt lat="50.81044" lon="1.91366">
        <ele>90</ele>
        <time>2015-05-12T13:28:32.000Z</time>
      </trkpt>
      <trkpt lat="50.81044" lon="1.91366">
        <ele>90</ele>
        <time>2015-05-12T13:28:33.000Z</time>
      </trkpt>
      <trkpt lat="50.81044" lon="1.91366">
        <ele>90</ele>
        <time>2015-05-12T13:28:34.000Z</time>
      </trkpt>
      <trkpt lat="50.81045" lon="1.91366">
        <ele>90</ele>
        <time>2015-05-12T13:28:35.000Z</time>
      </trkpt>
      <trkpt lat="50.81045" lon="1.91367">
        <ele>90</ele>
        <time>2015-05-12T13:28:36.000Z</time>
      </trkpt>
      <trkpt lat="50.81045" lon="1.91367">
        <ele>90</ele>
        <time>2015-05-12T13:28:37.000Z</time>
      </trkpt>
      <trkpt lat="50.81045" lon="1.91366">
        <ele>90</ele>
        <time>2015-05-12T13:28:38.000Z</time>
      </trkpt>
      <trkpt lat="50.81045" lon="1.91366">
        <ele>90</ele>
        <time>2015-05-12T13:28:39.000Z</time>
      </trkpt>
      <trkpt lat="50.81045" lon="1.91366">
        <ele>90</ele>
        <time>2015-05-12T13:28:40.000Z</time>
      </trkpt>
      <trkpt lat="50.81045" lon="1.91366">
        <ele>90</ele>
        <time>2015-05-12T13:28:41.000Z</time>
      </trkpt>
      <trkpt lat="50.81045" lon="1.91366">
        <ele>90</ele>
        <time>2015-05-12T13:28:42.000Z</time>
      </trkpt>
      <trkpt lat="50.81045" lon="1.91366">
        <ele>90</ele>
        <time>2015-05-12T13:28:43.000Z</time>
      </trkpt>
      <trkpt lat="50.81044" lon="1.91366">
        <ele>90</ele>
        <time>2015-05-12T13:28:44.000Z</time>
      </trkpt>
      <trkpt lat="50.81044" lon="1.91365">
        <ele>90</ele>
        <time>2015-05-12T13:28:45.000Z</time>
      </trkpt>
      <trkpt lat="50.81044" lon="1.91365">
        <ele>90</ele>
        <time>2015-05-12T13:28:46.000Z</time>
      </trkpt>
      <trkpt lat="50.81044" lon="1.91366">
        <ele>89</ele>
        <time>2015-05-12T13:28:47.000Z</time>
      </trkpt>
      <trkpt lat="50.81044" lon="1.91366">
        <ele>89</ele>
        <time>2015-05-12T13:28:48.000Z</time>
      </trkpt>
      <trkpt lat="50.81044" lon="1.91366">
        <ele>89</ele>
        <time>2015-05-12T13:28:49.000Z</time>
      </trkpt>
      <trkpt lat="50.81044" lon="1.91366">
        <ele>89</ele>
        <time>2015-05-12T13:28:50.000Z</time>
      </trkpt>
      <trkpt lat="50.81044" lon="1.91366">
        <ele>89</ele>
        <time>2015-05-12T13:28:51.000Z</time>
      </trkpt>
      <trkpt lat="50.81043" lon="1.91366">
        <ele>89</ele>
        <time>2015-05-12T13:28:52.000Z</time>
      </trkpt>
      <trkpt lat="50.81043" lon="1.91366">
        <ele>89</ele>
        <time>2015-05-12T13:28:53.000Z</time>
      </trkpt>
      <trkpt lat="50.81043" lon="1.91366">
        <ele>89</ele>
        <time>2015-05-12T13:28:54.000Z</time>
      </trkpt>
      <trkpt lat="50.81043" lon="1.91366">
        <ele>88</ele>
        <time>2015-05-12T13:28:55.000Z</time>
      </trkpt>
      <trkpt lat="50.81043" lon="1.91365">
        <ele>88</ele>
        <time>2015-05-12T13:28:56.000Z</time>
      </trkpt>
      <trkpt lat="50.81042" lon="1.91365">
        <ele>87</ele>
        <time>2015-05-12T13:28:57.000Z</time>
      </trkpt>
      <trkpt lat="50.81042" lon="1.91365">
        <ele>87</ele>
        <time>2015-05-12T13:28:58.000Z</time>
      </trkpt>
      <trkpt lat="50.81042" lon="1.91365">
        <ele>88</ele>
        <time>2015-05-12T13:28:59.000Z</time>
      </trkpt>
      <trkpt lat="50.81042" lon="1.91364">
        <ele>87</ele>
        <time>2015-05-12T13:29:00.000Z</time>
      </trkpt>
      <trkpt lat="50.81042" lon="1.91365">
        <ele>88</ele>
        <time>2015-05-12T13:29:01.000Z</time>
      </trkpt>
      <trkpt lat="50.81042" lon="1.91365">
        <ele>88</ele>
        <time>2015-05-12T13:29:02.000Z</time>
      </trkpt>
      <trkpt lat="50.81042" lon="1.91364">
        <ele>88</ele>
        <time>2015-05-12T13:29:03.000Z</time>
      </trkpt>
      <trkpt lat="50.81042" lon="1.91364">
        <ele>87</ele>
        <time>2015-05-12T13:29:04.000Z</time>
      </trkpt>
      <trkpt lat="50.81042" lon="1.91364">
        <ele>87</ele>
        <time>2015-05-12T13:29:05.000Z</time>
      </trkpt>
      <trkpt lat="50.81041" lon="1.91364">
        <ele>87</ele>
        <time>2015-05-12T13:29:06.000Z</time>
      </trkpt>
      <trkpt lat="50.81041" lon="1.91363">
        <ele>86</ele>
        <time>2015-05-12T13:29:07.000Z</time>
      </trkpt>
      <trkpt lat="50.81041" lon="1.91363">
        <ele>86</ele>
        <time>2015-05-12T13:29:08.000Z</time>
      </trkpt>
      <trkpt lat="50.81041" lon="1.91363">
        <ele>86</ele>
        <time>2015-05-12T13:29:09.000Z</time>
      </trkpt>
      <trkpt lat="50.81041" lon="1.91363">
        <ele>86</ele>
        <time>2015-05-12T13:29:10.000Z</time>
      </trkpt>
      <trkpt lat="50.81041" lon="1.91364">
        <ele>86</ele>
        <time>2015-05-12T13:29:11.000Z</time>
      </trkpt>
      <trkpt lat="50.81041" lon="1.91364">
        <ele>86</ele>
        <time>2015-05-12T13:29:12.000Z</time>
      </trkpt>
      <trkpt lat="50.81041" lon="1.91363">
        <ele>86</ele>
        <time>2015-05-12T13:29:13.000Z</time>
      </trkpt>
      <trkpt lat="50.81041" lon="1.91363">
        <ele>86</ele>
        <time>2015-05-12T13:29:14.000Z</time>
      </trkpt>
      <trkpt lat="50.81041" lon="1.91363">
        <ele>86</ele>
        <time>2015-05-12T13:29:15.000Z</time>
      </trkpt>
      <trkpt lat="50.81041" lon="1.91363">
        <ele>86</ele>
        <time>2015-05-12T13:29:16.000Z</time>
      </trkpt>
      <trkpt lat="50.81041" lon="1.91363">
        <ele>86</ele>
        <time>2015-05-12T13:29:17.000Z</time>
      </trkpt>
      <trkpt lat="50.81041" lon="1.91363">
        <ele>86</ele>
        <time>2015-05-12T13:29:18.000Z</time>
      </trkpt>
      <trkpt lat="50.81041" lon="1.91363">
        <ele>86</ele>
        <time>2015-05-12T13:29:19.000Z</time>
      </trkpt>
      <trkpt lat="50.8104" lon="1.91363">
        <ele>86</ele>
        <time>2015-05-12T13:29:20.000Z</time>
      </trkpt>
      <trkpt lat="50.8104" lon="1.91363">
        <ele>86</ele>
        <time>2015-05-12T13:29:21.000Z</time>
      </trkpt>
      <trkpt lat="50.8104" lon="1.91362">
        <ele>85</ele>
        <time>2015-05-12T13:29:22.000Z</time>
      </trkpt>
      <trkpt lat="50.8104" lon="1.91362">
        <ele>85</ele>
        <time>2015-05-12T13:29:23.000Z</time>
      </trkpt>
      <trkpt lat="50.8104" lon="1.91362">
        <ele>85</ele>
        <time>2015-05-12T13:29:24.000Z</time>
      </trkpt>
      <trkpt lat="50.81039" lon="1.91362">
        <ele>84</ele>
        <time>2015-05-12T13:29:25.000Z</time>
      </trkpt>
      <trkpt lat="50.81039" lon="1.91362">
        <ele>84</ele>
        <time>2015-05-12T13:29:26.000Z</time>
      </trkpt>
      <trkpt lat="50.81039" lon="1.91362">
        <ele>84</ele>
        <time>2015-05-12T13:29:27.000Z</time>
      </trkpt>
      <trkpt lat="50.81039" lon="1.91362">
        <ele>84</ele>
        <time>2015-05-12T13:29:28.000Z</time>
      </trkpt>
      <trkpt lat="50.81039" lon="1.91361">
        <ele>83</ele>
        <time>2015-05-12T13:29:29.000Z</time>
      </trkpt>
      <trkpt lat="50.81039" lon="1.91361">
        <ele>83</ele>
        <time>2015-05-12T13:29:30.000Z</time>
      </trkpt>
      <trkpt lat="50.81038" lon="1.91361">
        <ele>83</ele>
        <time>2015-05-12T13:29:31.000Z</time>
      </trkpt>
      <trkpt lat="50.81038" lon="1.91361">
        <ele>83</ele>
        <time>2015-05-12T13:29:32.000Z</time>
      </trkpt>
      <trkpt lat="50.81038" lon="1.91361">
        <ele>83</ele>
        <time>2015-05-12T13:29:33.000Z</time>
      </trkpt>
      <trkpt lat="50.81038" lon="1.91361">
        <ele>83</ele>
        <time>2015-05-12T13:29:34.000Z</time>
      </trkpt>
      <trkpt lat="50.81038" lon="1.91361">
        <ele>83</ele>
        <time>2015-05-12T13:29:35.000Z</time>
      </trkpt>
      <trkpt lat="50.81038" lon="1.91361">
        <ele>83</ele>
        <time>2015-05-12T13:29:36.000Z</time>
      </trkpt>
      <trkpt lat="50.81038" lon="1.91362">
        <ele>83</ele>
        <time>2015-05-12T13:29:37.000Z</time>
      </trkpt>
      <trkpt lat="50.81038" lon="1.91362">
        <ele>83</ele>
        <time>2015-05-12T13:29:38.000Z</time>
      </trkpt>
      <trkpt lat="50.81038" lon="1.91362">
        <ele>84</ele>
        <time>2015-05-12T13:29:39.000Z</time>
      </trkpt>
      <trkpt lat="50.81038" lon="1.91362">
        <ele>84</ele>
        <time>2015-05-12T13:29:40.000Z</time>
      </trkpt>
      <trkpt lat="50.81038" lon="1.91362">
        <ele>83</ele>
        <time>2015-05-12T13:29:41.000Z</time>
      </trkpt>
      <trkpt lat="50.81038" lon="1.91362">
        <ele>83</ele>
        <time>2015-05-12T13:29:42.000Z</time>
      </trkpt>
      <trkpt lat="50.81038" lon="1.91362">
        <ele>83</ele>
        <time>2015-05-12T13:29:43.000Z</time>
      </trkpt>
      <trkpt lat="50.81037" lon="1.91362">
        <ele>83</ele>
        <time>2015-05-12T13:29:44.000Z</time>
      </trkpt>
      <trkpt lat="50.81037" lon="1.91362">
        <ele>83</ele>
        <time>2015-05-12T13:29:45.000Z</time>
      </trkpt>
      <trkpt lat="50.81037" lon="1.91362">
        <ele>83</ele>
        <time>2015-05-12T13:29:46.000Z</time>
      </trkpt>
      <trkpt lat="50.81036" lon="1.91362">
        <ele>83</ele>
        <time>2015-05-12T13:29:47.000Z</time>
      </trkpt>
      <trkpt lat="50.81036" lon="1.91362">
        <ele>83</ele>
        <time>2015-05-12T13:29:48.000Z</time>
      </trkpt>
      <trkpt lat="50.81036" lon="1.91362">
        <ele>83</ele>
        <time>2015-05-12T13:29:49.000Z</time>
      </trkpt>
      <trkpt lat="50.81036" lon="1.91362">
        <ele>83</ele>
        <time>2015-05-12T13:29:50.000Z</time>
      </trkpt>
      <trkpt lat="50.81036" lon="1.91362">
        <ele>83</ele>
        <time>2015-05-12T13:29:51.000Z</time>
      </trkpt>
      <trkpt lat="50.81036" lon="1.91362">
        <ele>83</ele>
        <time>2015-05-12T13:29:52.000Z</time>
      </trkpt>
      <trkpt lat="50.81036" lon="1.91362">
        <ele>82</ele>
        <time>2015-05-12T13:29:53.000Z</time>
      </trkpt>
      <trkpt lat="50.81036" lon="1.91362">
        <ele>82</ele>
        <time>2015-05-12T13:29:54.000Z</time>
      </trkpt>
      <trkpt lat="50.81036" lon="1.91363">
        <ele>82</ele>
        <time>2015-05-12T13:29:55.000Z</time>
      </trkpt>
      <trkpt lat="50.81035" lon="1.91363">
        <ele>82</ele>
        <time>2015-05-12T13:29:56.000Z</time>
      </trkpt>
      <trkpt lat="50.81035" lon="1.91364">
        <ele>82</ele>
        <time>2015-05-12T13:29:57.000Z</time>
      </trkpt>
      <trkpt lat="50.81035" lon="1.91364">
        <ele>82</ele>
        <time>2015-05-12T13:29:58.000Z</time>
      </trkpt>
      <trkpt lat="50.81035" lon="1.91365">
        <ele>82</ele>
        <time>2015-05-12T13:29:59.000Z</time>
      </trkpt>
      <trkpt lat="50.81035" lon="1.91365">
        <ele>82</ele>
        <time>2015-05-12T13:30:00.000Z</time>
      </trkpt>
      <trkpt lat="50.81035" lon="1.91366">
        <ele>82</ele>
        <time>2015-05-12T13:30:01.000Z</time>
      </trkpt>
      <trkpt lat="50.81035" lon="1.91366">
        <ele>82</ele>
        <time>2015-05-12T13:30:02.000Z</time>
      </trkpt>
      <trkpt lat="50.81036" lon="1.91366">
        <ele>83</ele>
        <time>2015-05-12T13:30:03.000Z</time>
      </trkpt>
      <trkpt lat="50.81036" lon="1.91367">
        <ele>84</ele>
        <time>2015-05-12T13:30:04.000Z</time>
      </trkpt>
      <trkpt lat="50.81035" lon="1.91367">
        <ele>84</ele>
        <time>2015-05-12T13:30:05.000Z</time>
      </trkpt>
      <trkpt lat="50.81036" lon="1.91367">
        <ele>84</ele>
        <time>2015-05-12T13:30:06.000Z</time>
      </trkpt>
      <trkpt lat="50.81035" lon="1.91367">
        <ele>84</ele>
        <time>2015-05-12T13:30:07.000Z</time>
      </trkpt>
      <trkpt lat="50.81035" lon="1.91366">
        <ele>84</ele>
        <time>2015-05-12T13:30:08.000Z</time>
      </trkpt>
      <trkpt lat="50.81035" lon="1.91366">
        <ele>85</ele>
        <time>2015-05-12T13:30:09.000Z</time>
      </trkpt>
      <trkpt lat="50.81035" lon="1.91366">
        <ele>85</ele>
        <time>2015-05-12T13:30:10.000Z</time>
      </trkpt>
      <trkpt lat="50.81035" lon="1.91366">
        <ele>85</ele>
        <time>2015-05-12T13:30:11.000Z</time>
      </trkpt>
      <trkpt lat="50.81035" lon="1.91366">
        <ele>85</ele>
        <time>2015-05-12T13:30:12.000Z</time>
      </trkpt>
      <trkpt lat="50.81035" lon="1.91366">
        <ele>84</ele>
        <time>2015-05-12T13:30:13.000Z</time>
      </trkpt>
      <trkpt lat="50.81035" lon="1.91366">
        <ele>85</ele>
        <time>2015-05-12T13:30:14.000Z</time>
      </trkpt>
      <trkpt lat="50.81035" lon="1.91366">
        <ele>85</ele>
        <time>2015-05-12T13:30:15.000Z</time>
      </trkpt>
      <trkpt lat="50.81035" lon="1.91366">
        <ele>85</ele>
        <time>2015-05-12T13:30:16.000Z</time>
      </trkpt>
      <trkpt lat="50.81035" lon="1.91365">
        <ele>85</ele>
        <time>2015-05-12T13:30:17.000Z</time>
      </trkpt>
      <trkpt lat="50.81035" lon="1.91365">
        <ele>85</ele>
        <time>2015-05-12T13:30:18.000Z</time>
      </trkpt>
      <trkpt lat="50.81035" lon="1.91365">
        <ele>85</ele>
        <time>2015-05-12T13:30:19.000Z</time>
      </trkpt>
      <trkpt lat="50.81035" lon="1.91365">
        <ele>85</ele>
        <time>2015-05-12T13:30:20.000Z</time>
      </trkpt>
      <trkpt lat="50.81035" lon="1.91365">
        <ele>85</ele>
        <time>2015-05-12T13:30:21.000Z</time>
      </trkpt>
      <trkpt lat="50.81035" lon="1.91365">
        <ele>85</ele>
        <time>2015-05-12T13:30:22.000Z</time>
      </trkpt>
      <trkpt lat="50.81034" lon="1.91364">
        <ele>86</ele>
        <time>2015-05-12T13:30:23.000Z</time>
      </trkpt>
      <trkpt lat="50.81034" lon="1.91363">
        <ele>86</ele>
        <time>2015-05-12T13:30:24.000Z</time>
      </trkpt>
      <trkpt lat="50.81034" lon="1.91363">
        <ele>87</ele>
        <time>2015-05-12T13:30:25.000Z</time>
      </trkpt>
      <trkpt lat="50.81034" lon="1.91362">
        <ele>87</ele>
        <time>2015-05-12T13:30:26.000Z</time>
      </trkpt>
      <trkpt lat="50.81034" lon="1.91362">
        <ele>87</ele>
        <time>2015-05-12T13:30:27.000Z</time>
      </trkpt>
      <trkpt lat="50.81034" lon="1.91362">
        <ele>86</ele>
        <time>2015-05-12T13:30:28.000Z</time>
      </trkpt>
      <trkpt lat="50.81034" lon="1.91362">
        <ele>86</ele>
        <time>2015-05-12T13:30:29.000Z</time>
      </trkpt>
      <trkpt lat="50.81034" lon="1.91362">
        <ele>87</ele>
        <time>2015-05-12T13:30:30.000Z</time>
      </trkpt>
      <trkpt lat="50.81034" lon="1.91362">
        <ele>87</ele>
        <time>2015-05-12T13:30:31.000Z</time>
      </trkpt>
      <trkpt lat="50.81034" lon="1.91362">
        <ele>87</ele>
        <time>2015-05-12T13:30:32.000Z</time>
      </trkpt>
      <trkpt lat="50.81034" lon="1.91362">
        <ele>87</ele>
        <time>2015-05-12T13:30:33.000Z</time>
      </trkpt>
      <trkpt lat="50.81034" lon="1.91362">
        <ele>87</ele>
        <time>2015-05-12T13:30:34.000Z</time>
      </trkpt>
      <trkpt lat="50.81034" lon="1.91361">
        <ele>87</ele>
        <time>2015-05-12T13:30:35.000Z</time>
      </trkpt>
      <trkpt lat="50.81034" lon="1.91361">
        <ele>88</ele>
        <time>2015-05-12T13:30:36.000Z</time>
      </trkpt>
      <trkpt lat="50.81034" lon="1.91361">
        <ele>88</ele>
        <time>2015-05-12T13:30:37.000Z</time>
      </trkpt>
      <trkpt lat="50.81034" lon="1.9136">
        <ele>88</ele>
        <time>2015-05-12T13:30:38.000Z</time>
      </trkpt>
      <trkpt lat="50.81033" lon="1.9136">
        <ele>88</ele>
        <time>2015-05-12T13:30:39.000Z</time>
      </trkpt>
      <trkpt lat="50.81033" lon="1.9136">
        <ele>88</ele>
        <time>2015-05-12T13:30:40.000Z</time>
      </trkpt>
      <trkpt lat="50.81033" lon="1.91359">
        <ele>89</ele>
        <time>2015-05-12T13:30:41.000Z</time>
      </trkpt>
      <trkpt lat="50.81032" lon="1.91358">
        <ele>89</ele>
        <time>2015-05-12T13:30:42.000Z</time>
      </trkpt>
      <trkpt lat="50.81032" lon="1.91358">
        <ele>89</ele>
        <time>2015-05-12T13:30:43.000Z</time>
      </trkpt>
      <trkpt lat="50.81032" lon="1.91357">
        <ele>90</ele>
        <time>2015-05-12T13:30:44.000Z</time>
      </trkpt>
      <trkpt lat="50.81031" lon="1.91356">
        <ele>89</ele>
        <time>2015-05-12T13:30:45.000Z</time>
      </trkpt>
      <trkpt lat="50.81031" lon="1.91355">
        <ele>89</ele>
        <time>2015-05-12T13:30:46.000Z</time>
      </trkpt>
      <trkpt lat="50.8103" lon="1.91354">
        <ele>89</ele>
        <time>2015-05-12T13:30:47.000Z</time>
      </trkpt>
      <trkpt lat="50.81029" lon="1.91354">
        <ele>90</ele>
        <time>2015-05-12T13:30:48.000Z</time>
      </trkpt>
      <trkpt lat="50.81029" lon="1.91353">
        <ele>90</ele>
        <time>2015-05-12T13:30:49.000Z</time>
      </trkpt>
      <trkpt lat="50.81028" lon="1.91352">
        <ele>90</ele>
        <time>2015-05-12T13:30:50.000Z</time>
      </trkpt>
      <trkpt lat="50.81027" lon="1.91351">
        <ele>90</ele>
        <time>2015-05-12T13:30:51.000Z</time>
      </trkpt>
      <trkpt lat="50.81027" lon="1.9135">
        <ele>90</ele>
        <time>2015-05-12T13:30:52.000Z</time>
      </trkpt>
      <trkpt lat="50.81026" lon="1.91349">
        <ele>90</ele>
        <time>2015-05-12T13:30:53.000Z</time>
      </trkpt>
      <trkpt lat="50.81025" lon="1.91348">
        <ele>89</ele>
        <time>2015-05-12T13:30:54.000Z</time>
      </trkpt>
      <trkpt lat="50.81025" lon="1.91348">
        <ele>90</ele>
        <time>2015-05-12T13:30:55.000Z</time>
      </trkpt>
      <trkpt lat="50.81024" lon="1.91346">
        <ele>90</ele>
        <time>2015-05-12T13:30:56.000Z</time>
      </trkpt>
      <trkpt lat="50.81024" lon="1.91345">
        <ele>90</ele>
        <time>2015-05-12T13:30:57.000Z</time>
      </trkpt>
      <trkpt lat="50.81023" lon="1.91343">
        <ele>89</ele>
        <time>2015-05-12T13:30:58.000Z</time>
      </trkpt>
      <trkpt lat="50.81022" lon="1.91342">
        <ele>89</ele>
        <time>2015-05-12T13:30:59.000Z</time>
      </trkpt>
      <trkpt lat="50.81022" lon="1.91341">
        <ele>89</ele>
        <time>2015-05-12T13:31:00.000Z</time>
      </trkpt>
      <trkpt lat="50.81021" lon="1.9134">
        <ele>88</ele>
        <time>2015-05-12T13:31:01.000Z</time>
      </trkpt>
      <trkpt lat="50.8102" lon="1.91339">
        <ele>88</ele>
        <time>2015-05-12T13:31:02.000Z</time>
      </trkpt>
      <trkpt lat="50.8102" lon="1.91338">
        <ele>87</ele>
        <time>2015-05-12T13:31:03.000Z</time>
      </trkpt>
      <trkpt lat="50.81019" lon="1.91336">
        <ele>87</ele>
        <time>2015-05-12T13:31:04.000Z</time>
      </trkpt>
      <trkpt lat="50.81018" lon="1.91336">
        <ele>87</ele>
        <time>2015-05-12T13:31:05.000Z</time>
      </trkpt>
      <trkpt lat="50.81017" lon="1.91334">
        <ele>86</ele>
        <time>2015-05-12T13:31:06.000Z</time>
      </trkpt>
      <trkpt lat="50.81016" lon="1.91333">
        <ele>84</ele>
        <time>2015-05-12T13:31:07.000Z</time>
      </trkpt>
      <trkpt lat="50.81015" lon="1.91332">
        <ele>84</ele>
        <time>2015-05-12T13:31:08.000Z</time>
      </trkpt>
      <trkpt lat="50.81014" lon="1.91331">
        <ele>85</ele>
        <time>2015-05-12T13:31:09.000Z</time>
      </trkpt>
      <trkpt lat="50.81014" lon="1.91331">
        <ele>85</ele>
        <time>2015-05-12T13:31:10.000Z</time>
      </trkpt>
      <trkpt lat="50.81013" lon="1.9133">
        <ele>85</ele>
        <time>2015-05-12T13:31:11.000Z</time>
      </trkpt>
      <trkpt lat="50.81013" lon="1.91328">
        <ele>85</ele>
        <time>2015-05-12T13:31:12.000Z</time>
      </trkpt>
      <trkpt lat="50.81013" lon="1.91327">
        <ele>85</ele>
        <time>2015-05-12T13:31:13.000Z</time>
      </trkpt>
      <trkpt lat="50.81012" lon="1.91326">
        <ele>86</ele>
        <time>2015-05-12T13:31:14.000Z</time>
      </trkpt>
      <trkpt lat="50.81011" lon="1.91325">
        <ele>85</ele>
        <time>2015-05-12T13:31:15.000Z</time>
      </trkpt>
      <trkpt lat="50.81011" lon="1.91324">
        <ele>85</ele>
        <time>2015-05-12T13:31:16.000Z</time>
      </trkpt>
      <trkpt lat="50.8101" lon="1.91324">
        <ele>86</ele>
        <time>2015-05-12T13:31:17.000Z</time>
      </trkpt>
      <trkpt lat="50.8101" lon="1.91323">
        <ele>85</ele>
        <time>2015-05-12T13:31:18.000Z</time>
      </trkpt>
      <trkpt lat="50.8101" lon="1.91322">
        <ele>86</ele>
        <time>2015-05-12T13:31:19.000Z</time>
      </trkpt>
      <trkpt lat="50.8101" lon="1.91321">
        <ele>86</ele>
        <time>2015-05-12T13:31:20.000Z</time>
      </trkpt>
      <trkpt lat="50.8101" lon="1.9132">
        <ele>86</ele>
        <time>2015-05-12T13:31:21.000Z</time>
      </trkpt>
      <trkpt lat="50.81009" lon="1.91319">
        <ele>85</ele>
        <time>2015-05-12T13:31:22.000Z</time>
      </trkpt>
      <trkpt lat="50.81009" lon="1.91318">
        <ele>85</ele>
        <time>2015-05-12T13:31:23.000Z</time>
      </trkpt>
      <trkpt lat="50.81008" lon="1.91317">
        <ele>84</ele>
        <time>2015-05-12T13:31:24.000Z</time>
      </trkpt>
      <trkpt lat="50.81007" lon="1.91316">
        <ele>84</ele>
        <time>2015-05-12T13:31:25.000Z</time>
      </trkpt>
      <trkpt lat="50.81007" lon="1.91314">
        <ele>84</ele>
        <time>2015-05-12T13:31:26.000Z</time>
      </trkpt>
      <trkpt lat="50.81006" lon="1.91313">
        <ele>83</ele>
        <time>2015-05-12T13:31:27.000Z</time>
      </trkpt>
      <trkpt lat="50.81005" lon="1.91312">
        <ele>83</ele>
        <time>2015-05-12T13:31:28.000Z</time>
      </trkpt>
      <trkpt lat="50.81005" lon="1.91311">
        <ele>83</ele>
        <time>2015-05-12T13:31:29.000Z</time>
      </trkpt>
      <trkpt lat="50.81004" lon="1.91311">
        <ele>83</ele>
        <time>2015-05-12T13:31:30.000Z</time>
      </trkpt>
      <trkpt lat="50.81004" lon="1.9131">
        <ele>83</ele>
        <time>2015-05-12T13:31:31.000Z</time>
      </trkpt>
      <trkpt lat="50.81003" lon="1.91309">
        <ele>83</ele>
        <time>2015-05-12T13:31:32.000Z</time>
      </trkpt>
      <trkpt lat="50.81003" lon="1.91308">
        <ele>83</ele>
        <time>2015-05-12T13:31:33.000Z</time>
      </trkpt>
      <trkpt lat="50.81002" lon="1.91307">
        <ele>83</ele>
        <time>2015-05-12T13:31:34.000Z</time>
      </trkpt>
      <trkpt lat="50.81001" lon="1.91306">
        <ele>82</ele>
        <time>2015-05-12T13:31:35.000Z</time>
      </trkpt>
      <trkpt lat="50.81" lon="1.91304">
        <ele>82</ele>
        <time>2015-05-12T13:31:36.000Z</time>
      </trkpt>
      <trkpt lat="50.80999" lon="1.91303">
        <ele>81</ele>
        <time>2015-05-12T13:31:37.000Z</time>
      </trkpt>
      <trkpt lat="50.80999" lon="1.91302">
        <ele>81</ele>
        <time>2015-05-12T13:31:38.000Z</time>
      </trkpt>
      <trkpt lat="50.80998" lon="1.91301">
        <ele>81</ele>
        <time>2015-05-12T13:31:39.000Z</time>
      </trkpt>
      <trkpt lat="50.80997" lon="1.91299">
        <ele>81</ele>
        <time>2015-05-12T13:31:40.000Z</time>
      </trkpt>
      <trkpt lat="50.80997" lon="1.91298">
        <ele>82</ele>
        <time>2015-05-12T13:31:41.000Z</time>
      </trkpt>
      <trkpt lat="50.80997" lon="1.91297">
        <ele>82</ele>
        <time>2015-05-12T13:31:42.000Z</time>
      </trkpt>
      <trkpt lat="50.80997" lon="1.91296">
        <ele>83</ele>
        <time>2015-05-12T13:31:43.000Z</time>
      </trkpt>
      <trkpt lat="50.80996" lon="1.91295">
        <ele>82</ele>
        <time>2015-05-12T13:31:44.000Z</time>
      </trkpt>
      <trkpt lat="50.80996" lon="1.91294">
        <ele>83</ele>
        <time>2015-05-12T13:31:45.000Z</time>
      </trkpt>
      <trkpt lat="50.80995" lon="1.91293">
        <ele>83</ele>
        <time>2015-05-12T13:31:46.000Z</time>
      </trkpt>
      <trkpt lat="50.80994" lon="1.91292">
        <ele>82</ele>
        <time>2015-05-12T13:31:47.000Z</time>
      </trkpt>
      <trkpt lat="50.80994" lon="1.9129">
        <ele>83</ele>
        <time>2015-05-12T13:31:48.000Z</time>
      </trkpt>
      <trkpt lat="50.80993" lon="1.91289">
        <ele>83</ele>
        <time>2015-05-12T13:31:49.000Z</time>
      </trkpt>
      <trkpt lat="50.80992" lon="1.91287">
        <ele>83</ele>
        <time>2015-05-12T13:31:50.000Z</time>
      </trkpt>
      <trkpt lat="50.80992" lon="1.91286">
        <ele>83</ele>
        <time>2015-05-12T13:31:51.000Z</time>
      </trkpt>
      <trkpt lat="50.80991" lon="1.91285">
        <ele>83</ele>
        <time>2015-05-12T13:31:52.000Z</time>
      </trkpt>
      <trkpt lat="50.8099" lon="1.91283">
        <ele>82</ele>
        <time>2015-05-12T13:31:53.000Z</time>
      </trkpt>
      <trkpt lat="50.80989" lon="1.91282">
        <ele>81</ele>
        <time>2015-05-12T13:31:54.000Z</time>
      </trkpt>
      <trkpt lat="50.80988" lon="1.9128">
        <ele>81</ele>
        <time>2015-05-12T13:31:55.000Z</time>
      </trkpt>
      <trkpt lat="50.80987" lon="1.91279">
        <ele>82</ele>
        <time>2015-05-12T13:31:56.000Z</time>
      </trkpt>
      <trkpt lat="50.80986" lon="1.91277">
        <ele>82</ele>
        <time>2015-05-12T13:31:57.000Z</time>
      </trkpt>
      <trkpt lat="50.80986" lon="1.91276">
        <ele>83</ele>
        <time>2015-05-12T13:31:58.000Z</time>
      </trkpt>
      <trkpt lat="50.80985" lon="1.91274">
        <ele>83</ele>
        <time>2015-05-12T13:31:59.000Z</time>
      </trkpt>
      <trkpt lat="50.80984" lon="1.91273">
        <ele>82</ele>
        <time>2015-05-12T13:32:00.000Z</time>
      </trkpt>
      <trkpt lat="50.80984" lon="1.91271">
        <ele>82</ele>
        <time>2015-05-12T13:32:01.000Z</time>
      </trkpt>
      <trkpt lat="50.80984" lon="1.91269">
        <ele>82</ele>
        <time>2015-05-12T13:32:02.000Z</time>
      </trkpt>
      <trkpt lat="50.80983" lon="1.91268">
        <ele>82</ele>
        <time>2015-05-12T13:32:03.000Z</time>
      </trkpt>
      <trkpt lat="50.80983" lon="1.91267">
        <ele>83</ele>
        <time>2015-05-12T13:32:04.000Z</time>
      </trkpt>
      <trkpt lat="50.80983" lon="1.91265">
        <ele>82</ele>
        <time>2015-05-12T13:32:05.000Z</time>
      </trkpt>
      <trkpt lat="50.80983" lon="1.91264">
        <ele>82</ele>
        <time>2015-05-12T13:32:06.000Z</time>
      </trkpt>
      <trkpt lat="50.80982" lon="1.91263">
        <ele>82</ele>
        <time>2015-05-12T13:32:07.000Z</time>
      </trkpt>
      <trkpt lat="50.80981" lon="1.91262">
        <ele>82</ele>
        <time>2015-05-12T13:32:08.000Z</time>
      </trkpt>
      <trkpt lat="50.8098" lon="1.91261">
        <ele>81</ele>
        <time>2015-05-12T13:32:09.000Z</time>
      </trkpt>
      <trkpt lat="50.8098" lon="1.9126">
        <ele>82</ele>
        <time>2015-05-12T13:32:10.000Z</time>
      </trkpt>
      <trkpt lat="50.80979" lon="1.91258">
        <ele>81</ele>
        <time>2015-05-12T13:32:11.000Z</time>
      </trkpt>
      <trkpt lat="50.80978" lon="1.91257">
        <ele>80</ele>
        <time>2015-05-12T13:32:12.000Z</time>
      </trkpt>
      <trkpt lat="50.80977" lon="1.91255">
        <ele>80</ele>
        <time>2015-05-12T13:32:13.000Z</time>
      </trkpt>
      <trkpt lat="50.80976" lon="1.91254">
        <ele>80</ele>
        <time>2015-05-12T13:32:14.000Z</time>
      </trkpt>
      <trkpt lat="50.80975" lon="1.91253">
        <ele>80</ele>
        <time>2015-05-12T13:32:15.000Z</time>
      </trkpt>
      <trkpt lat="50.80974" lon="1.91251">
        <ele>80</ele>
        <time>2015-05-12T13:32:16.000Z</time>
      </trkpt>
      <trkpt lat="50.80973" lon="1.91249">
        <ele>79</ele>
        <time>2015-05-12T13:32:17.000Z</time>
      </trkpt>
      <trkpt lat="50.80972" lon="1.91248">
        <ele>79</ele>
        <time>2015-05-12T13:32:18.000Z</time>
      </trkpt>
      <trkpt lat="50.80971" lon="1.91246">
        <ele>79</ele>
        <time>2015-05-12T13:32:19.000Z</time>
      </trkpt>
      <trkpt lat="50.8097" lon="1.91244">
        <ele>79</ele>
        <time>2015-05-12T13:32:20.000Z</time>
      </trkpt>
      <trkpt lat="50.8097" lon="1.91243">
        <ele>79</ele>
        <time>2015-05-12T13:32:21.000Z</time>
      </trkpt>
      <trkpt lat="50.80969" lon="1.91242">
        <ele>79</ele>
        <time>2015-05-12T13:32:22.000Z</time>
      </trkpt>
      <trkpt lat="50.80968" lon="1.9124">
        <ele>78</ele>
        <time>2015-05-12T13:32:23.000Z</time>
      </trkpt>
      <trkpt lat="50.80967" lon="1.91239">
        <ele>78</ele>
        <time>2015-05-12T13:32:24.000Z</time>
      </trkpt>
      <trkpt lat="50.80966" lon="1.91237">
        <ele>78</ele>
        <time>2015-05-12T13:32:25.000Z</time>
      </trkpt>
      <trkpt lat="50.80966" lon="1.91236">
        <ele>78</ele>
        <time>2015-05-12T13:32:26.000Z</time>
      </trkpt>
      <trkpt lat="50.80965" lon="1.91234">
        <ele>77</ele>
        <time>2015-05-12T13:32:27.000Z</time>
      </trkpt>
      <trkpt lat="50.80965" lon="1.91233">
        <ele>77</ele>
        <time>2015-05-12T13:32:28.000Z</time>
      </trkpt>
      <trkpt lat="50.80964" lon="1.91231">
        <ele>76</ele>
        <time>2015-05-12T13:32:29.000Z</time>
      </trkpt>
      <trkpt lat="50.80963" lon="1.9123">
        <ele>76</ele>
        <time>2015-05-12T13:32:30.000Z</time>
      </trkpt>
      <trkpt lat="50.80962" lon="1.91228">
        <ele>76</ele>
        <time>2015-05-12T13:32:31.000Z</time>
      </trkpt>
      <trkpt lat="50.80962" lon="1.91226">
        <ele>76</ele>
        <time>2015-05-12T13:32:32.000Z</time>
      </trkpt>
      <trkpt lat="50.80961" lon="1.91225">
        <ele>76</ele>
        <time>2015-05-12T13:32:33.000Z</time>
      </trkpt>
      <trkpt lat="50.80961" lon="1.91223">
        <ele>76</ele>
        <time>2015-05-12T13:32:34.000Z</time>
      </trkpt>
      <trkpt lat="50.8096" lon="1.91222">
        <ele>76</ele>
        <time>2015-05-12T13:32:35.000Z</time>
      </trkpt>
      <trkpt lat="50.8096" lon="1.91221">
        <ele>76</ele>
        <time>2015-05-12T13:32:36.000Z</time>
      </trkpt>
      <trkpt lat="50.8096" lon="1.9122">
        <ele>76</ele>
        <time>2015-05-12T13:32:37.000Z</time>
      </trkpt>
      <trkpt lat="50.80959" lon="1.91219">
        <ele>76</ele>
        <time>2015-05-12T13:32:38.000Z</time>
      </trkpt>
      <trkpt lat="50.80958" lon="1.91218">
        <ele>76</ele>
        <time>2015-05-12T13:32:39.000Z</time>
      </trkpt>
      <trkpt lat="50.80958" lon="1.91217">
        <ele>76</ele>
        <time>2015-05-12T13:32:40.000Z</time>
      </trkpt>
      <trkpt lat="50.80957" lon="1.91216">
        <ele>75</ele>
        <time>2015-05-12T13:32:41.000Z</time>
      </trkpt>
      <trkpt lat="50.80957" lon="1.91215">
        <ele>76</ele>
        <time>2015-05-12T13:32:42.000Z</time>
      </trkpt>
      <trkpt lat="50.80956" lon="1.91214">
        <ele>76</ele>
        <time>2015-05-12T13:32:43.000Z</time>
      </trkpt>
      <trkpt lat="50.80956" lon="1.91213">
        <ele>75</ele>
        <time>2015-05-12T13:32:44.000Z</time>
      </trkpt>
      <trkpt lat="50.80956" lon="1.91211">
        <ele>76</ele>
        <time>2015-05-12T13:32:45.000Z</time>
      </trkpt>
      <trkpt lat="50.80955" lon="1.9121">
        <ele>76</ele>
        <time>2015-05-12T13:32:46.000Z</time>
      </trkpt>
      <trkpt lat="50.80955" lon="1.91209">
        <ele>76</ele>
        <time>2015-05-12T13:32:47.000Z</time>
      </trkpt>
      <trkpt lat="50.80954" lon="1.91207">
        <ele>76</ele>
        <time>2015-05-12T13:32:48.000Z</time>
      </trkpt>
      <trkpt lat="50.80953" lon="1.91206">
        <ele>76</ele>
        <time>2015-05-12T13:32:49.000Z</time>
      </trkpt>
      <trkpt lat="50.80953" lon="1.91204">
        <ele>76</ele>
        <time>2015-05-12T13:32:50.000Z</time>
      </trkpt>
      <trkpt lat="50.80952" lon="1.91203">
        <ele>77</ele>
        <time>2015-05-12T13:32:51.000Z</time>
      </trkpt>
      <trkpt lat="50.80952" lon="1.91201">
        <ele>77</ele>
        <time>2015-05-12T13:32:52.000Z</time>
      </trkpt>
      <trkpt lat="50.80952" lon="1.91199">
        <ele>77</ele>
        <time>2015-05-12T13:32:53.000Z</time>
      </trkpt>
      <trkpt lat="50.80951" lon="1.91197">
        <ele>77</ele>
        <time>2015-05-12T13:32:54.000Z</time>
      </trkpt>
      <trkpt lat="50.80951" lon="1.91196">
        <ele>77</ele>
        <time>2015-05-12T13:32:55.000Z</time>
      </trkpt>
      <trkpt lat="50.80951" lon="1.91195">
        <ele>78</ele>
        <time>2015-05-12T13:32:56.000Z</time>
      </trkpt>
      <trkpt lat="50.80951" lon="1.91194">
        <ele>78</ele>
        <time>2015-05-12T13:32:57.000Z</time>
      </trkpt>
      <trkpt lat="50.8095" lon="1.91193">
        <ele>79</ele>
        <time>2015-05-12T13:32:58.000Z</time>
      </trkpt>
      <trkpt lat="50.8095" lon="1.91192">
        <ele>79</ele>
        <time>2015-05-12T13:32:59.000Z</time>
      </trkpt>
      <trkpt lat="50.8095" lon="1.9119">
        <ele>78</ele>
        <time>2015-05-12T13:33:00.000Z</time>
      </trkpt>
      <trkpt lat="50.80949" lon="1.91189">
        <ele>78</ele>
        <time>2015-05-12T13:33:01.000Z</time>
      </trkpt>
      <trkpt lat="50.80949" lon="1.91187">
        <ele>79</ele>
        <time>2015-05-12T13:33:02.000Z</time>
      </trkpt>
      <trkpt lat="50.80949" lon="1.91186">
        <ele>79</ele>
        <time>2015-05-12T13:33:03.000Z</time>
      </trkpt>
      <trkpt lat="50.80949" lon="1.91184">
        <ele>79</ele>
        <time>2015-05-12T13:33:04.000Z</time>
      </trkpt>
      <trkpt lat="50.80948" lon="1.91182">
        <ele>79</ele>
        <time>2015-05-12T13:33:05.000Z</time>
      </trkpt>
      <trkpt lat="50.80948" lon="1.91181">
        <ele>79</ele>
        <time>2015-05-12T13:33:06.000Z</time>
      </trkpt>
      <trkpt lat="50.80947" lon="1.91179">
        <ele>79</ele>
        <time>2015-05-12T13:33:07.000Z</time>
      </trkpt>
      <trkpt lat="50.80947" lon="1.91177">
        <ele>79</ele>
        <time>2015-05-12T13:33:08.000Z</time>
      </trkpt>
      <trkpt lat="50.80947" lon="1.91176">
        <ele>79</ele>
        <time>2015-05-12T13:33:09.000Z</time>
      </trkpt>
      <trkpt lat="50.80946" lon="1.91174">
        <ele>79</ele>
        <time>2015-05-12T13:33:10.000Z</time>
      </trkpt>
      <trkpt lat="50.80946" lon="1.91172">
        <ele>79</ele>
        <time>2015-05-12T13:33:11.000Z</time>
      </trkpt>
      <trkpt lat="50.80945" lon="1.91171">
        <ele>79</ele>
        <time>2015-05-12T13:33:12.000Z</time>
      </trkpt>
      <trkpt lat="50.80944" lon="1.91169">
        <ele>78</ele>
        <time>2015-05-12T13:33:13.000Z</time>
      </trkpt>
      <trkpt lat="50.80943" lon="1.91167">
        <ele>77</ele>
        <time>2015-05-12T13:33:14.000Z</time>
      </trkpt>
      <trkpt lat="50.80942" lon="1.91165">
        <ele>77</ele>
        <time>2015-05-12T13:33:15.000Z</time>
      </trkpt>
      <trkpt lat="50.80942" lon="1.91163">
        <ele>77</ele>
        <time>2015-05-12T13:33:16.000Z</time>
      </trkpt>
      <trkpt lat="50.80941" lon="1.91161">
        <ele>76</ele>
        <time>2015-05-12T13:33:17.000Z</time>
      </trkpt>
      <trkpt lat="50.80941" lon="1.91159">
        <ele>76</ele>
        <time>2015-05-12T13:33:18.000Z</time>
      </trkpt>
      <trkpt lat="50.8094" lon="1.91157">
        <ele>76</ele>
        <time>2015-05-12T13:33:19.000Z</time>
      </trkpt>
      <trkpt lat="50.80939" lon="1.91155">
        <ele>76</ele>
        <time>2015-05-12T13:33:20.000Z</time>
      </trkpt>
      <trkpt lat="50.80939" lon="1.91153">
        <ele>75</ele>
        <time>2015-05-12T13:33:21.000Z</time>
      </trkpt>
      <trkpt lat="50.80938" lon="1.91151">
        <ele>77</ele>
        <time>2015-05-12T13:33:22.000Z</time>
      </trkpt>
      <trkpt lat="50.80937" lon="1.9115">
        <ele>78</ele>
        <time>2015-05-12T13:33:23.000Z</time>
      </trkpt>
      <trkpt lat="50.80936" lon="1.91148">
        <ele>78</ele>
        <time>2015-05-12T13:33:24.000Z</time>
      </trkpt>
      <trkpt lat="50.80936" lon="1.91146">
        <ele>78</ele>
        <time>2015-05-12T13:33:25.000Z</time>
      </trkpt>
      <trkpt lat="50.80935" lon="1.91145">
        <ele>79</ele>
        <time>2015-05-12T13:33:26.000Z</time>
      </trkpt>
      <trkpt lat="50.80935" lon="1.91143">
        <ele>80</ele>
        <time>2015-05-12T13:33:27.000Z</time>
      </trkpt>
      <trkpt lat="50.80934" lon="1.91141">
        <ele>81</ele>
        <time>2015-05-12T13:33:28.000Z</time>
      </trkpt>
      <trkpt lat="50.80934" lon="1.91139">
        <ele>80</ele>
        <time>2015-05-12T13:33:29.000Z</time>
      </trkpt>
      <trkpt lat="50.80933" lon="1.91137">
        <ele>80</ele>
        <time>2015-05-12T13:33:30.000Z</time>
      </trkpt>
      <trkpt lat="50.80933" lon="1.91136">
        <ele>81</ele>
        <time>2015-05-12T13:33:31.000Z</time>
      </trkpt>
      <trkpt lat="50.80932" lon="1.91134">
        <ele>81</ele>
        <time>2015-05-12T13:33:32.000Z</time>
      </trkpt>
      <trkpt lat="50.80932" lon="1.91133">
        <ele>81</ele>
        <time>2015-05-12T13:33:33.000Z</time>
      </trkpt>
      <trkpt lat="50.80931" lon="1.91131">
        <ele>81</ele>
        <time>2015-05-12T13:33:34.000Z</time>
      </trkpt>
      <trkpt lat="50.80931" lon="1.9113">
        <ele>81</ele>
        <time>2015-05-12T13:33:35.000Z</time>
      </trkpt>
      <trkpt lat="50.8093" lon="1.91128">
        <ele>80</ele>
        <time>2015-05-12T13:33:36.000Z</time>
      </trkpt>
      <trkpt lat="50.8093" lon="1.91126">
        <ele>80</ele>
        <time>2015-05-12T13:33:37.000Z</time>
      </trkpt>
      <trkpt lat="50.80929" lon="1.91125">
        <ele>80</ele>
        <time>2015-05-12T13:33:38.000Z</time>
      </trkpt>
      <trkpt lat="50.80929" lon="1.91124">
        <ele>80</ele>
        <time>2015-05-12T13:33:39.000Z</time>
      </trkpt>
      <trkpt lat="50.80929" lon="1.91123">
        <ele>81</ele>
        <time>2015-05-12T13:33:40.000Z</time>
      </trkpt>
      <trkpt lat="50.80928" lon="1.91121">
        <ele>81</ele>
        <time>2015-05-12T13:33:41.000Z</time>
      </trkpt>
      <trkpt lat="50.80928" lon="1.91119">
        <ele>81</ele>
        <time>2015-05-12T13:33:42.000Z</time>
      </trkpt>
      <trkpt lat="50.80927" lon="1.91117">
        <ele>81</ele>
        <time>2015-05-12T13:33:43.000Z</time>
      </trkpt>
      <trkpt lat="50.80927" lon="1.91116">
        <ele>81</ele>
        <time>2015-05-12T13:33:44.000Z</time>
      </trkpt>
      <trkpt lat="50.80927" lon="1.91114">
        <ele>81</ele>
        <time>2015-05-12T13:33:45.000Z</time>
      </trkpt>
      <trkpt lat="50.80927" lon="1.91112">
        <ele>80</ele>
        <time>2015-05-12T13:33:46.000Z</time>
      </trkpt>
      <trkpt lat="50.80926" lon="1.91111">
        <ele>81</ele>
        <time>2015-05-12T13:33:47.000Z</time>
      </trkpt>
      <trkpt lat="50.80926" lon="1.91109">
        <ele>81</ele>
        <time>2015-05-12T13:33:48.000Z</time>
      </trkpt>
      <trkpt lat="50.80925" lon="1.91107">
        <ele>81</ele>
        <time>2015-05-12T13:33:49.000Z</time>
      </trkpt>
      <trkpt lat="50.80925" lon="1.91106">
        <ele>81</ele>
        <time>2015-05-12T13:33:50.000Z</time>
      </trkpt>
      <trkpt lat="50.80924" lon="1.91105">
        <ele>81</ele>
        <time>2015-05-12T13:33:51.000Z</time>
      </trkpt>
      <trkpt lat="50.80923" lon="1.91103">
        <ele>81</ele>
        <time>2015-05-12T13:33:52.000Z</time>
      </trkpt>
      <trkpt lat="50.80923" lon="1.91102">
        <ele>81</ele>
        <time>2015-05-12T13:33:53.000Z</time>
      </trkpt>
      <trkpt lat="50.80922" lon="1.911">
        <ele>82</ele>
        <time>2015-05-12T13:33:54.000Z</time>
      </trkpt>
      <trkpt lat="50.80922" lon="1.91099">
        <ele>81</ele>
        <time>2015-05-12T13:33:55.000Z</time>
      </trkpt>
      <trkpt lat="50.80922" lon="1.91097">
        <ele>82</ele>
        <time>2015-05-12T13:33:56.000Z</time>
      </trkpt>
      <trkpt lat="50.80921" lon="1.91096">
        <ele>81</ele>
        <time>2015-05-12T13:33:57.000Z</time>
      </trkpt>
      <trkpt lat="50.80921" lon="1.91094">
        <ele>81</ele>
        <time>2015-05-12T13:33:58.000Z</time>
      </trkpt>
      <trkpt lat="50.80921" lon="1.91093">
        <ele>81</ele>
        <time>2015-05-12T13:33:59.000Z</time>
      </trkpt>
      <trkpt lat="50.8092" lon="1.91092">
        <ele>81</ele>
        <time>2015-05-12T13:34:00.000Z</time>
      </trkpt>
      <trkpt lat="50.8092" lon="1.91091">
        <ele>81</ele>
        <time>2015-05-12T13:34:01.000Z</time>
      </trkpt>
      <trkpt lat="50.8092" lon="1.91089">
        <ele>81</ele>
        <time>2015-05-12T13:34:02.000Z</time>
      </trkpt>
      <trkpt lat="50.80919" lon="1.91088">
        <ele>81</ele>
        <time>2015-05-12T13:34:03.000Z</time>
      </trkpt>
      <trkpt lat="50.80919" lon="1.91086">
        <ele>81</ele>
        <time>2015-05-12T13:34:04.000Z</time>
      </trkpt>
      <trkpt lat="50.80918" lon="1.91085">
        <ele>82</ele>
        <time>2015-05-12T13:34:05.000Z</time>
      </trkpt>
      <trkpt lat="50.80918" lon="1.91084">
        <ele>82</ele>
        <time>2015-05-12T13:34:06.000Z</time>
      </trkpt>
      <trkpt lat="50.80917" lon="1.91082">
        <ele>83</ele>
        <time>2015-05-12T13:34:07.000Z</time>
      </trkpt>
      <trkpt lat="50.80917" lon="1.91081">
        <ele>84</ele>
        <time>2015-05-12T13:34:08.000Z</time>
      </trkpt>
      <trkpt lat="50.80916" lon="1.9108">
        <ele>84</ele>
        <time>2015-05-12T13:34:09.000Z</time>
      </trkpt>
      <trkpt lat="50.80916" lon="1.91079">
        <ele>85</ele>
        <time>2015-05-12T13:34:10.000Z</time>
      </trkpt>
      <trkpt lat="50.80915" lon="1.91078">
        <ele>85</ele>
        <time>2015-05-12T13:34:11.000Z</time>
      </trkpt>
      <trkpt lat="50.80915" lon="1.91077">
        <ele>86</ele>
        <time>2015-05-12T13:34:12.000Z</time>
      </trkpt>
      <trkpt lat="50.80914" lon="1.91076">
        <ele>86</ele>
        <time>2015-05-12T13:34:13.000Z</time>
      </trkpt>
      <trkpt lat="50.80913" lon="1.91074">
        <ele>86</ele>
        <time>2015-05-12T13:34:14.000Z</time>
      </trkpt>
      <trkpt lat="50.80913" lon="1.91073">
        <ele>87</ele>
        <time>2015-05-12T13:34:15.000Z</time>
      </trkpt>
      <trkpt lat="50.80912" lon="1.91072">
        <ele>87</ele>
        <time>2015-05-12T13:34:16.000Z</time>
      </trkpt>
      <trkpt lat="50.80912" lon="1.9107">
        <ele>88</ele>
        <time>2015-05-12T13:34:17.000Z</time>
      </trkpt>
      <trkpt lat="50.80911" lon="1.91069">
        <ele>88</ele>
        <time>2015-05-12T13:34:18.000Z</time>
      </trkpt>
      <trkpt lat="50.8091" lon="1.91067">
        <ele>88</ele>
        <time>2015-05-12T13:34:19.000Z</time>
      </trkpt>
      <trkpt lat="50.80909" lon="1.91066">
        <ele>86</ele>
        <time>2015-05-12T13:34:20.000Z</time>
      </trkpt>
      <trkpt lat="50.80908" lon="1.91063">
        <ele>86</ele>
        <time>2015-05-12T13:34:21.000Z</time>
      </trkpt>
      <trkpt lat="50.80907" lon="1.91062">
        <ele>86</ele>
        <time>2015-05-12T13:34:22.000Z</time>
      </trkpt>
      <trkpt lat="50.80906" lon="1.9106">
        <ele>86</ele>
        <time>2015-05-12T13:34:23.000Z</time>
      </trkpt>
      <trkpt lat="50.80905" lon="1.91058">
        <ele>86</ele>
        <time>2015-05-12T13:34:24.000Z</time>
      </trkpt>
      <trkpt lat="50.80904" lon="1.91057">
        <ele>86</ele>
        <time>2015-05-12T13:34:25.000Z</time>
      </trkpt>
      <trkpt lat="50.80903" lon="1.91055">
        <ele>86</ele>
        <time>2015-05-12T13:34:26.000Z</time>
      </trkpt>
      <trkpt lat="50.80902" lon="1.91053">
        <ele>85</ele>
        <time>2015-05-12T13:34:27.000Z</time>
      </trkpt>
      <trkpt lat="50.809" lon="1.91052">
        <ele>85</ele>
        <time>2015-05-12T13:34:28.000Z</time>
      </trkpt>
      <trkpt lat="50.80899" lon="1.9105">
        <ele>85</ele>
        <time>2015-05-12T13:34:29.000Z</time>
      </trkpt>
      <trkpt lat="50.80897" lon="1.91048">
        <ele>85</ele>
        <time>2015-05-12T13:34:30.000Z</time>
      </trkpt>
      <trkpt lat="50.80897" lon="1.91047">
        <ele>86</ele>
        <time>2015-05-12T13:34:31.000Z</time>
      </trkpt>
      <trkpt lat="50.80896" lon="1.91045">
        <ele>85</ele>
        <time>2015-05-12T13:34:32.000Z</time>
      </trkpt>
      <trkpt lat="50.80895" lon="1.91043">
        <ele>85</ele>
        <time>2015-05-12T13:34:33.000Z</time>
      </trkpt>
      <trkpt lat="50.80895" lon="1.91041">
        <ele>85</ele>
        <time>2015-05-12T13:34:34.000Z</time>
      </trkpt>
      <trkpt lat="50.80894" lon="1.91039">
        <ele>85</ele>
        <time>2015-05-12T13:34:35.000Z</time>
      </trkpt>
      <trkpt lat="50.80894" lon="1.91037">
        <ele>85</ele>
        <time>2015-05-12T13:34:36.000Z</time>
      </trkpt>
      <trkpt lat="50.80893" lon="1.91036">
        <ele>85</ele>
        <time>2015-05-12T13:34:37.000Z</time>
      </trkpt>
      <trkpt lat="50.80892" lon="1.91034">
        <ele>84</ele>
        <time>2015-05-12T13:34:38.000Z</time>
      </trkpt>
      <trkpt lat="50.80892" lon="1.91032">
        <ele>84</ele>
        <time>2015-05-12T13:34:39.000Z</time>
      </trkpt>
      <trkpt lat="50.80891" lon="1.91031">
        <ele>84</ele>
        <time>2015-05-12T13:34:40.000Z</time>
      </trkpt>
      <trkpt lat="50.8089" lon="1.91029">
        <ele>84</ele>
        <time>2015-05-12T13:34:41.000Z</time>
      </trkpt>
      <trkpt lat="50.8089" lon="1.91027">
        <ele>85</ele>
        <time>2015-05-12T13:34:42.000Z</time>
      </trkpt>
      <trkpt lat="50.80889" lon="1.91025">
        <ele>86</ele>
        <time>2015-05-12T13:34:43.000Z</time>
      </trkpt>
      <trkpt lat="50.80888" lon="1.91024">
        <ele>87</ele>
        <time>2015-05-12T13:34:44.000Z</time>
      </trkpt>
      <trkpt lat="50.80887" lon="1.91022">
        <ele>87</ele>
        <time>2015-05-12T13:34:45.000Z</time>
      </trkpt>
      <trkpt lat="50.80887" lon="1.9102">
        <ele>87</ele>
        <time>2015-05-12T13:34:46.000Z</time>
      </trkpt>
      <trkpt lat="50.80886" lon="1.91018">
        <ele>87</ele>
        <time>2015-05-12T13:34:47.000Z</time>
      </trkpt>
      <trkpt lat="50.80886" lon="1.91016">
        <ele>87</ele>
        <time>2015-05-12T13:34:48.000Z</time>
      </trkpt>
      <trkpt lat="50.80885" lon="1.91014">
        <ele>87</ele>
        <time>2015-05-12T13:34:49.000Z</time>
      </trkpt>
      <trkpt lat="50.80884" lon="1.91012">
        <ele>86</ele>
        <time>2015-05-12T13:34:50.000Z</time>
      </trkpt>
      <trkpt lat="50.80883" lon="1.9101">
        <ele>87</ele>
        <time>2015-05-12T13:34:51.000Z</time>
      </trkpt>
      <trkpt lat="50.80883" lon="1.91008">
        <ele>87</ele>
        <time>2015-05-12T13:34:52.000Z</time>
      </trkpt>
      <trkpt lat="50.80882" lon="1.91007">
        <ele>87</ele>
        <time>2015-05-12T13:34:53.000Z</time>
      </trkpt>
      <trkpt lat="50.80882" lon="1.91005">
        <ele>86</ele>
        <time>2015-05-12T13:34:54.000Z</time>
      </trkpt>
      <trkpt lat="50.80882" lon="1.91004">
        <ele>86</ele>
        <time>2015-05-12T13:34:55.000Z</time>
      </trkpt>
      <trkpt lat="50.80881" lon="1.91002">
        <ele>86</ele>
        <time>2015-05-12T13:34:56.000Z</time>
      </trkpt>
      <trkpt lat="50.80881" lon="1.91001">
        <ele>87</ele>
        <time>2015-05-12T13:34:57.000Z</time>
      </trkpt>
      <trkpt lat="50.80881" lon="1.90999">
        <ele>87</ele>
        <time>2015-05-12T13:34:58.000Z</time>
      </trkpt>
      <trkpt lat="50.8088" lon="1.90998">
        <ele>87</ele>
        <time>2015-05-12T13:34:59.000Z</time>
      </trkpt>
      <trkpt lat="50.8088" lon="1.90996">
        <ele>87</ele>
        <time>2015-05-12T13:35:00.000Z</time>
      </trkpt>
      <trkpt lat="50.8088" lon="1.90994">
        <ele>87</ele>
        <time>2015-05-12T13:35:01.000Z</time>
      </trkpt>
      <trkpt lat="50.80879" lon="1.90993">
        <ele>87</ele>
        <time>2015-05-12T13:35:02.000Z</time>
      </trkpt>
      <trkpt lat="50.80879" lon="1.90991">
        <ele>87</ele>
        <time>2015-05-12T13:35:03.000Z</time>
      </trkpt>
      <trkpt lat="50.80878" lon="1.9099">
        <ele>87</ele>
        <time>2015-05-12T13:35:04.000Z</time>
      </trkpt>
      <trkpt lat="50.80877" lon="1.90988">
        <ele>87</ele>
        <time>2015-05-12T13:35:05.000Z</time>
      </trkpt>
      <trkpt lat="50.80877" lon="1.90987">
        <ele>87</ele>
        <time>2015-05-12T13:35:06.000Z</time>
      </trkpt>
      <trkpt lat="50.80876" lon="1.90985">
        <ele>87</ele>
        <time>2015-05-12T13:35:07.000Z</time>
      </trkpt>
      <trkpt lat="50.80875" lon="1.90984">
        <ele>86</ele>
        <time>2015-05-12T13:35:08.000Z</time>
      </trkpt>
      <trkpt lat="50.80874" lon="1.90982">
        <ele>86</ele>
        <time>2015-05-12T13:35:09.000Z</time>
      </trkpt>
      <trkpt lat="50.80874" lon="1.9098">
        <ele>86</ele>
        <time>2015-05-12T13:35:10.000Z</time>
      </trkpt>
      <trkpt lat="50.80873" lon="1.90977">
        <ele>85</ele>
        <time>2015-05-12T13:35:11.000Z</time>
      </trkpt>
      <trkpt lat="50.80873" lon="1.90975">
        <ele>85</ele>
        <time>2015-05-12T13:35:12.000Z</time>
      </trkpt>
      <trkpt lat="50.80873" lon="1.90974">
        <ele>84</ele>
        <time>2015-05-12T13:35:13.000Z</time>
      </trkpt>
      <trkpt lat="50.80873" lon="1.90972">
        <ele>84</ele>
        <time>2015-05-12T13:35:14.000Z</time>
      </trkpt>
      <trkpt lat="50.80872" lon="1.9097">
        <ele>84</ele>
        <time>2015-05-12T13:35:15.000Z</time>
      </trkpt>
      <trkpt lat="50.80872" lon="1.90968">
        <ele>85</ele>
        <time>2015-05-12T13:35:16.000Z</time>
      </trkpt>
      <trkpt lat="50.80872" lon="1.90966">
        <ele>85</ele>
        <time>2015-05-12T13:35:17.000Z</time>
      </trkpt>
      <trkpt lat="50.80871" lon="1.90964">
        <ele>84</ele>
        <time>2015-05-12T13:35:18.000Z</time>
      </trkpt>
      <trkpt lat="50.80871" lon="1.90962">
        <ele>85</ele>
        <time>2015-05-12T13:35:19.000Z</time>
      </trkpt>
      <trkpt lat="50.80871" lon="1.90961">
        <ele>85</ele>
        <time>2015-05-12T13:35:20.000Z</time>
      </trkpt>
      <trkpt lat="50.8087" lon="1.90959">
        <ele>86</ele>
        <time>2015-05-12T13:35:21.000Z</time>
      </trkpt>
      <trkpt lat="50.8087" lon="1.90958">
        <ele>86</ele>
        <time>2015-05-12T13:35:22.000Z</time>
      </trkpt>
      <trkpt lat="50.8087" lon="1.90956">
        <ele>86</ele>
        <time>2015-05-12T13:35:23.000Z</time>
      </trkpt>
      <trkpt lat="50.8087" lon="1.90954">
        <ele>87</ele>
        <time>2015-05-12T13:35:24.000Z</time>
      </trkpt>
      <trkpt lat="50.8087" lon="1.90953">
        <ele>87</ele>
        <time>2015-05-12T13:35:25.000Z</time>
      </trkpt>
      <trkpt lat="50.80869" lon="1.90951">
        <ele>87</ele>
        <time>2015-05-12T13:35:26.000Z</time>
      </trkpt>
      <trkpt lat="50.80869" lon="1.90949">
        <ele>87</ele>
        <time>2015-05-12T13:35:27.000Z</time>
      </trkpt>
      <trkpt lat="50.80869" lon="1.90948">
        <ele>88</ele>
        <time>2015-05-12T13:35:28.000Z</time>
      </trkpt>
      <trkpt lat="50.80869" lon="1.90946">
        <ele>88</ele>
        <time>2015-05-12T13:35:29.000Z</time>
      </trkpt>
      <trkpt lat="50.80869" lon="1.90944">
        <ele>88</ele>
        <time>2015-05-12T13:35:30.000Z</time>
      </trkpt>
      <trkpt lat="50.80868" lon="1.90943">
        <ele>88</ele>
        <time>2015-05-12T13:35:31.000Z</time>
      </trkpt>
      <trkpt lat="50.80868" lon="1.90941">
        <ele>88</ele>
        <time>2015-05-12T13:35:32.000Z</time>
      </trkpt>
      <trkpt lat="50.80867" lon="1.9094">
        <ele>88</ele>
        <time>2015-05-12T13:35:33.000Z</time>
      </trkpt>
      <trkpt lat="50.80867" lon="1.90938">
        <ele>88</ele>
        <time>2015-05-12T13:35:34.000Z</time>
      </trkpt>
      <trkpt lat="50.80867" lon="1.90937">
        <ele>88</ele>
        <time>2015-05-12T13:35:35.000Z</time>
      </trkpt>
      <trkpt lat="50.80866" lon="1.90935">
        <ele>88</ele>
        <time>2015-05-12T13:35:36.000Z</time>
      </trkpt>
      <trkpt lat="50.80866" lon="1.90933">
        <ele>88</ele>
        <time>2015-05-12T13:35:37.000Z</time>
      </trkpt>
      <trkpt lat="50.80866" lon="1.90931">
        <ele>88</ele>
        <time>2015-05-12T13:35:38.000Z</time>
      </trkpt>
      <trkpt lat="50.80865" lon="1.9093">
        <ele>88</ele>
        <time>2015-05-12T13:35:39.000Z</time>
      </trkpt>
      <trkpt lat="50.80865" lon="1.90929">
        <ele>88</ele>
        <time>2015-05-12T13:35:40.000Z</time>
      </trkpt>
      <trkpt lat="50.80865" lon="1.90927">
        <ele>88</ele>
        <time>2015-05-12T13:35:41.000Z</time>
      </trkpt>
      <trkpt lat="50.80865" lon="1.90926">
        <ele>88</ele>
        <time>2015-05-12T13:35:42.000Z</time>
      </trkpt>
      <trkpt lat="50.80865" lon="1.90924">
        <ele>88</ele>
        <time>2015-05-12T13:35:43.000Z</time>
      </trkpt>
      <trkpt lat="50.80864" lon="1.90923">
        <ele>88</ele>
        <time>2015-05-12T13:35:44.000Z</time>
      </trkpt>
      <trkpt lat="50.80864" lon="1.90921">
        <ele>88</ele>
        <time>2015-05-12T13:35:45.000Z</time>
      </trkpt>
      <trkpt lat="50.80863" lon="1.9092">
        <ele>88</ele>
        <time>2015-05-12T13:35:46.000Z</time>
      </trkpt>
      <trkpt lat="50.80863" lon="1.90919">
        <ele>89</ele>
        <time>2015-05-12T13:35:47.000Z</time>
      </trkpt>
      <trkpt lat="50.80863" lon="1.90917">
        <ele>89</ele>
        <time>2015-05-12T13:35:48.000Z</time>
      </trkpt>
      <trkpt lat="50.80862" lon="1.90916">
        <ele>88</ele>
        <time>2015-05-12T13:35:49.000Z</time>
      </trkpt>
      <trkpt lat="50.8086" lon="1.90914">
        <ele>88</ele>
        <time>2015-05-12T13:35:50.000Z</time>
      </trkpt>
      <trkpt lat="50.80859" lon="1.90912">
        <ele>88</ele>
        <time>2015-05-12T13:35:51.000Z</time>
      </trkpt>
      <trkpt lat="50.80859" lon="1.9091">
        <ele>88</ele>
        <time>2015-05-12T13:35:52.000Z</time>
      </trkpt>
      <trkpt lat="50.80858" lon="1.90909">
        <ele>87</ele>
        <time>2015-05-12T13:35:53.000Z</time>
      </trkpt>
      <trkpt lat="50.80857" lon="1.90907">
        <ele>88</ele>
        <time>2015-05-12T13:35:54.000Z</time>
      </trkpt>
      <trkpt lat="50.80857" lon="1.90905">
        <ele>87</ele>
        <time>2015-05-12T13:35:55.000Z</time>
      </trkpt>
      <trkpt lat="50.80856" lon="1.90904">
        <ele>88</ele>
        <time>2015-05-12T13:35:56.000Z</time>
      </trkpt>
      <trkpt lat="50.80855" lon="1.90902">
        <ele>87</ele>
        <time>2015-05-12T13:35:57.000Z</time>
      </trkpt>
      <trkpt lat="50.80855" lon="1.909">
        <ele>87</ele>
        <time>2015-05-12T13:35:58.000Z</time>
      </trkpt>
      <trkpt lat="50.80855" lon="1.90899">
        <ele>87</ele>
        <time>2015-05-12T13:35:59.000Z</time>
      </trkpt>
      <trkpt lat="50.80854" lon="1.90897">
        <ele>88</ele>
        <time>2015-05-12T13:36:00.000Z</time>
      </trkpt>
      <trkpt lat="50.80854" lon="1.90895">
        <ele>88</ele>
        <time>2015-05-12T13:36:01.000Z</time>
      </trkpt>
      <trkpt lat="50.80854" lon="1.90894">
        <ele>88</ele>
        <time>2015-05-12T13:36:02.000Z</time>
      </trkpt>
      <trkpt lat="50.80854" lon="1.90892">
        <ele>88</ele>
        <time>2015-05-12T13:36:03.000Z</time>
      </trkpt>
      <trkpt lat="50.80854" lon="1.90891">
        <ele>88</ele>
        <time>2015-05-12T13:36:04.000Z</time>
      </trkpt>
      <trkpt lat="50.80853" lon="1.90889">
        <ele>88</ele>
        <time>2015-05-12T13:36:05.000Z</time>
      </trkpt>
      <trkpt lat="50.80853" lon="1.90888">
        <ele>88</ele>
        <time>2015-05-12T13:36:06.000Z</time>
      </trkpt>
      <trkpt lat="50.80852" lon="1.90886">
        <ele>88</ele>
        <time>2015-05-12T13:36:07.000Z</time>
      </trkpt>
      <trkpt lat="50.80852" lon="1.90885">
        <ele>88</ele>
        <time>2015-05-12T13:36:08.000Z</time>
      </trkpt>
      <trkpt lat="50.80852" lon="1.90883">
        <ele>87</ele>
        <time>2015-05-12T13:36:09.000Z</time>
      </trkpt>
      <trkpt lat="50.80851" lon="1.90881">
        <ele>87</ele>
        <time>2015-05-12T13:36:10.000Z</time>
      </trkpt>
      <trkpt lat="50.8085" lon="1.90879">
        <ele>87</ele>
        <time>2015-05-12T13:36:11.000Z</time>
      </trkpt>
      <trkpt lat="50.8085" lon="1.90877">
        <ele>86</ele>
        <time>2015-05-12T13:36:12.000Z</time>
      </trkpt>
      <trkpt lat="50.80849" lon="1.90876">
        <ele>87</ele>
        <time>2015-05-12T13:36:13.000Z</time>
      </trkpt>
      <trkpt lat="50.80848" lon="1.90874">
        <ele>87</ele>
        <time>2015-05-12T13:36:14.000Z</time>
      </trkpt>
      <trkpt lat="50.80848" lon="1.90873">
        <ele>86</ele>
        <time>2015-05-12T13:36:15.000Z</time>
      </trkpt>
      <trkpt lat="50.80847" lon="1.90871">
        <ele>87</ele>
        <time>2015-05-12T13:36:16.000Z</time>
      </trkpt>
      <trkpt lat="50.80847" lon="1.9087">
        <ele>87</ele>
        <time>2015-05-12T13:36:17.000Z</time>
      </trkpt>
      <trkpt lat="50.80846" lon="1.90868">
        <ele>87</ele>
        <time>2015-05-12T13:36:18.000Z</time>
      </trkpt>
      <trkpt lat="50.80846" lon="1.90866">
        <ele>88</ele>
        <time>2015-05-12T13:36:19.000Z</time>
      </trkpt>
      <trkpt lat="50.80845" lon="1.90864">
        <ele>88</ele>
        <time>2015-05-12T13:36:20.000Z</time>
      </trkpt>
      <trkpt lat="50.80845" lon="1.90863">
        <ele>88</ele>
        <time>2015-05-12T13:36:21.000Z</time>
      </trkpt>
      <trkpt lat="50.80844" lon="1.90861">
        <ele>88</ele>
        <time>2015-05-12T13:36:22.000Z</time>
      </trkpt>
      <trkpt lat="50.80844" lon="1.9086">
        <ele>88</ele>
        <time>2015-05-12T13:36:23.000Z</time>
      </trkpt>
      <trkpt lat="50.80843" lon="1.90859">
        <ele>89</ele>
        <time>2015-05-12T13:36:24.000Z</time>
      </trkpt>
      <trkpt lat="50.80843" lon="1.90857">
        <ele>89</ele>
        <time>2015-05-12T13:36:25.000Z</time>
      </trkpt>
      <trkpt lat="50.80842" lon="1.90856">
        <ele>88</ele>
        <time>2015-05-12T13:36:26.000Z</time>
      </trkpt>
      <trkpt lat="50.80842" lon="1.90854">
        <ele>89</ele>
        <time>2015-05-12T13:36:27.000Z</time>
      </trkpt>
      <trkpt lat="50.80841" lon="1.90852">
        <ele>89</ele>
        <time>2015-05-12T13:36:28.000Z</time>
      </trkpt>
      <trkpt lat="50.80841" lon="1.90851">
        <ele>89</ele>
        <time>2015-05-12T13:36:29.000Z</time>
      </trkpt>
      <trkpt lat="50.8084" lon="1.90849">
        <ele>89</ele>
        <time>2015-05-12T13:36:30.000Z</time>
      </trkpt>
      <trkpt lat="50.8084" lon="1.90847">
        <ele>90</ele>
        <time>2015-05-12T13:36:31.000Z</time>
      </trkpt>
      <trkpt lat="50.80839" lon="1.90846">
        <ele>90</ele>
        <time>2015-05-12T13:36:32.000Z</time>
      </trkpt>
      <trkpt lat="50.80838" lon="1.90844">
        <ele>89</ele>
        <time>2015-05-12T13:36:33.000Z</time>
      </trkpt>
      <trkpt lat="50.80838" lon="1.90842">
        <ele>90</ele>
        <time>2015-05-12T13:36:34.000Z</time>
      </trkpt>
      <trkpt lat="50.80837" lon="1.9084">
        <ele>91</ele>
        <time>2015-05-12T13:36:35.000Z</time>
      </trkpt>
      <trkpt lat="50.80837" lon="1.90839">
        <ele>91</ele>
        <time>2015-05-12T13:36:36.000Z</time>
      </trkpt>
      <trkpt lat="50.80836" lon="1.90837">
        <ele>92</ele>
        <time>2015-05-12T13:36:37.000Z</time>
      </trkpt>
      <trkpt lat="50.80836" lon="1.90836">
        <ele>92</ele>
        <time>2015-05-12T13:36:38.000Z</time>
      </trkpt>
      <trkpt lat="50.80836" lon="1.90834">
        <ele>92</ele>
        <time>2015-05-12T13:36:39.000Z</time>
      </trkpt>
      <trkpt lat="50.80835" lon="1.90832">
        <ele>92</ele>
        <time>2015-05-12T13:36:40.000Z</time>
      </trkpt>
      <trkpt lat="50.80834" lon="1.90831">
        <ele>92</ele>
        <time>2015-05-12T13:36:41.000Z</time>
      </trkpt>
      <trkpt lat="50.80834" lon="1.90829">
        <ele>92</ele>
        <time>2015-05-12T13:36:42.000Z</time>
      </trkpt>
      <trkpt lat="50.80833" lon="1.90828">
        <ele>92</ele>
        <time>2015-05-12T13:36:43.000Z</time>
      </trkpt>
      <trkpt lat="50.80833" lon="1.90826">
        <ele>92</ele>
        <time>2015-05-12T13:36:44.000Z</time>
      </trkpt>
      <trkpt lat="50.80832" lon="1.90825">
        <ele>92</ele>
        <time>2015-05-12T13:36:45.000Z</time>
      </trkpt>
      <trkpt lat="50.80832" lon="1.90823">
        <ele>93</ele>
        <time>2015-05-12T13:36:46.000Z</time>
      </trkpt>
      <trkpt lat="50.80831" lon="1.90821">
        <ele>92</ele>
        <time>2015-05-12T13:36:47.000Z</time>
      </trkpt>
      <trkpt lat="50.80831" lon="1.9082">
        <ele>93</ele>
        <time>2015-05-12T13:36:48.000Z</time>
      </trkpt>
      <trkpt lat="50.8083" lon="1.90818">
        <ele>92</ele>
        <time>2015-05-12T13:36:49.000Z</time>
      </trkpt>
      <trkpt lat="50.80829" lon="1.90817">
        <ele>93</ele>
        <time>2015-05-12T13:36:50.000Z</time>
      </trkpt>
      <trkpt lat="50.80829" lon="1.90816">
        <ele>93</ele>
        <time>2015-05-12T13:36:51.000Z</time>
      </trkpt>
      <trkpt lat="50.80828" lon="1.90814">
        <ele>92</ele>
        <time>2015-05-12T13:36:52.000Z</time>
      </trkpt>
      <trkpt lat="50.80828" lon="1.90812">
        <ele>92</ele>
        <time>2015-05-12T13:36:53.000Z</time>
      </trkpt>
      <trkpt lat="50.80827" lon="1.9081">
        <ele>92</ele>
        <time>2015-05-12T13:36:54.000Z</time>
      </trkpt>
      <trkpt lat="50.80826" lon="1.90808">
        <ele>92</ele>
        <time>2015-05-12T13:36:55.000Z</time>
      </trkpt>
      <trkpt lat="50.80825" lon="1.90807">
        <ele>92</ele>
        <time>2015-05-12T13:36:56.000Z</time>
      </trkpt>
      <trkpt lat="50.80825" lon="1.90805">
        <ele>91</ele>
        <time>2015-05-12T13:36:57.000Z</time>
      </trkpt>
      <trkpt lat="50.80824" lon="1.90804">
        <ele>91</ele>
        <time>2015-05-12T13:36:58.000Z</time>
      </trkpt>
      <trkpt lat="50.80823" lon="1.90802">
        <ele>92</ele>
        <time>2015-05-12T13:36:59.000Z</time>
      </trkpt>
      <trkpt lat="50.80822" lon="1.90801">
        <ele>91</ele>
        <time>2015-05-12T13:37:00.000Z</time>
      </trkpt>
      <trkpt lat="50.80822" lon="1.908">
        <ele>91</ele>
        <time>2015-05-12T13:37:01.000Z</time>
      </trkpt>
      <trkpt lat="50.80821" lon="1.90798">
        <ele>91</ele>
        <time>2015-05-12T13:37:02.000Z</time>
      </trkpt>
      <trkpt lat="50.80821" lon="1.90797">
        <ele>91</ele>
        <time>2015-05-12T13:37:03.000Z</time>
      </trkpt>
      <trkpt lat="50.80821" lon="1.90796">
        <ele>92</ele>
        <time>2015-05-12T13:37:04.000Z</time>
      </trkpt>
      <trkpt lat="50.8082" lon="1.90794">
        <ele>91</ele>
        <time>2015-05-12T13:37:05.000Z</time>
      </trkpt>
      <trkpt lat="50.8082" lon="1.90793">
        <ele>91</ele>
        <time>2015-05-12T13:37:06.000Z</time>
      </trkpt>
      <trkpt lat="50.80819" lon="1.90791">
        <ele>91</ele>
        <time>2015-05-12T13:37:07.000Z</time>
      </trkpt>
      <trkpt lat="50.80819" lon="1.90789">
        <ele>90</ele>
        <time>2015-05-12T13:37:08.000Z</time>
      </trkpt>
      <trkpt lat="50.80818" lon="1.90787">
        <ele>90</ele>
        <time>2015-05-12T13:37:09.000Z</time>
      </trkpt>
      <trkpt lat="50.80817" lon="1.90785">
        <ele>89</ele>
        <time>2015-05-12T13:37:10.000Z</time>
      </trkpt>
      <trkpt lat="50.80817" lon="1.90784">
        <ele>90</ele>
        <time>2015-05-12T13:37:11.000Z</time>
      </trkpt>
      <trkpt lat="50.80816" lon="1.90782">
        <ele>90</ele>
        <time>2015-05-12T13:37:12.000Z</time>
      </trkpt>
      <trkpt lat="50.80816" lon="1.90781">
        <ele>90</ele>
        <time>2015-05-12T13:37:13.000Z</time>
      </trkpt>
      <trkpt lat="50.80815" lon="1.90779">
        <ele>89</ele>
        <time>2015-05-12T13:37:14.000Z</time>
      </trkpt>
      <trkpt lat="50.80815" lon="1.90777">
        <ele>89</ele>
        <time>2015-05-12T13:37:15.000Z</time>
      </trkpt>
      <trkpt lat="50.80814" lon="1.90776">
        <ele>89</ele>
        <time>2015-05-12T13:37:16.000Z</time>
      </trkpt>
      <trkpt lat="50.80814" lon="1.90775">
        <ele>89</ele>
        <time>2015-05-12T13:37:17.000Z</time>
      </trkpt>
      <trkpt lat="50.80813" lon="1.90773">
        <ele>88</ele>
        <time>2015-05-12T13:37:18.000Z</time>
      </trkpt>
      <trkpt lat="50.80813" lon="1.90772">
        <ele>88</ele>
        <time>2015-05-12T13:37:19.000Z</time>
      </trkpt>
      <trkpt lat="50.80812" lon="1.90771">
        <ele>87</ele>
        <time>2015-05-12T13:37:20.000Z</time>
      </trkpt>
      <trkpt lat="50.80812" lon="1.90769">
        <ele>88</ele>
        <time>2015-05-12T13:37:21.000Z</time>
      </trkpt>
      <trkpt lat="50.80811" lon="1.90768">
        <ele>88</ele>
        <time>2015-05-12T13:37:22.000Z</time>
      </trkpt>
      <trkpt lat="50.80811" lon="1.90767">
        <ele>89</ele>
        <time>2015-05-12T13:37:23.000Z</time>
      </trkpt>
      <trkpt lat="50.8081" lon="1.90766">
        <ele>90</ele>
        <time>2015-05-12T13:37:24.000Z</time>
      </trkpt>
      <trkpt lat="50.8081" lon="1.90764">
        <ele>90</ele>
        <time>2015-05-12T13:37:25.000Z</time>
      </trkpt>
      <trkpt lat="50.80809" lon="1.90762">
        <ele>91</ele>
        <time>2015-05-12T13:37:26.000Z</time>
      </trkpt>
      <trkpt lat="50.80809" lon="1.9076">
        <ele>90</ele>
        <time>2015-05-12T13:37:27.000Z</time>
      </trkpt>
      <trkpt lat="50.80809" lon="1.90759">
        <ele>90</ele>
        <time>2015-05-12T13:37:28.000Z</time>
      </trkpt>
      <trkpt lat="50.80809" lon="1.90758">
        <ele>91</ele>
        <time>2015-05-12T13:37:29.000Z</time>
      </trkpt>
      <trkpt lat="50.80808" lon="1.90756">
        <ele>91</ele>
        <time>2015-05-12T13:37:30.000Z</time>
      </trkpt>
      <trkpt lat="50.80808" lon="1.90755">
        <ele>91</ele>
        <time>2015-05-12T13:37:31.000Z</time>
      </trkpt>
      <trkpt lat="50.80807" lon="1.90754">
        <ele>90</ele>
        <time>2015-05-12T13:37:32.000Z</time>
      </trkpt>
      <trkpt lat="50.80807" lon="1.90752">
        <ele>90</ele>
        <time>2015-05-12T13:37:33.000Z</time>
      </trkpt>
      <trkpt lat="50.80806" lon="1.90751">
        <ele>91</ele>
        <time>2015-05-12T13:37:34.000Z</time>
      </trkpt>
      <trkpt lat="50.80805" lon="1.9075">
        <ele>92</ele>
        <time>2015-05-12T13:37:35.000Z</time>
      </trkpt>
      <trkpt lat="50.80805" lon="1.90748">
        <ele>93</ele>
        <time>2015-05-12T13:37:36.000Z</time>
      </trkpt>
      <trkpt lat="50.80804" lon="1.90746">
        <ele>92</ele>
        <time>2015-05-12T13:37:37.000Z</time>
      </trkpt>
      <trkpt lat="50.80803" lon="1.90745">
        <ele>93</ele>
        <time>2015-05-12T13:37:38.000Z</time>
      </trkpt>
      <trkpt lat="50.80803" lon="1.90744">
        <ele>93</ele>
        <time>2015-05-12T13:37:39.000Z</time>
      </trkpt>
      <trkpt lat="50.80802" lon="1.90743">
        <ele>93</ele>
        <time>2015-05-12T13:37:40.000Z</time>
      </trkpt>
      <trkpt lat="50.80801" lon="1.90741">
        <ele>93</ele>
        <time>2015-05-12T13:37:41.000Z</time>
      </trkpt>
      <trkpt lat="50.808" lon="1.9074">
        <ele>92</ele>
        <time>2015-05-12T13:37:42.000Z</time>
      </trkpt>
      <trkpt lat="50.808" lon="1.90739">
        <ele>92</ele>
        <time>2015-05-12T13:37:43.000Z</time>
      </trkpt>
      <trkpt lat="50.80799" lon="1.90737">
        <ele>91</ele>
        <time>2015-05-12T13:37:44.000Z</time>
      </trkpt>
      <trkpt lat="50.80798" lon="1.90736">
        <ele>91</ele>
        <time>2015-05-12T13:37:45.000Z</time>
      </trkpt>
      <trkpt lat="50.80798" lon="1.90735">
        <ele>91</ele>
        <time>2015-05-12T13:37:46.000Z</time>
      </trkpt>
      <trkpt lat="50.80797" lon="1.90733">
        <ele>91</ele>
        <time>2015-05-12T13:37:47.000Z</time>
      </trkpt>
      <trkpt lat="50.80797" lon="1.90732">
        <ele>91</ele>
        <time>2015-05-12T13:37:48.000Z</time>
      </trkpt>
      <trkpt lat="50.80796" lon="1.90731">
        <ele>91</ele>
        <time>2015-05-12T13:37:49.000Z</time>
      </trkpt>
      <trkpt lat="50.80796" lon="1.90729">
        <ele>91</ele>
        <time>2015-05-12T13:37:50.000Z</time>
      </trkpt>
      <trkpt lat="50.80795" lon="1.90728">
        <ele>92</ele>
        <time>2015-05-12T13:37:51.000Z</time>
      </trkpt>
      <trkpt lat="50.80795" lon="1.90727">
        <ele>93</ele>
        <time>2015-05-12T13:37:52.000Z</time>
      </trkpt>
      <trkpt lat="50.80794" lon="1.90726">
        <ele>93</ele>
        <time>2015-05-12T13:37:53.000Z</time>
      </trkpt>
      <trkpt lat="50.80793" lon="1.90724">
        <ele>94</ele>
        <time>2015-05-12T13:37:54.000Z</time>
      </trkpt>
      <trkpt lat="50.80793" lon="1.90723">
        <ele>95</ele>
        <time>2015-05-12T13:37:55.000Z</time>
      </trkpt>
      <trkpt lat="50.80793" lon="1.90721">
        <ele>96</ele>
        <time>2015-05-12T13:37:56.000Z</time>
      </trkpt>
      <trkpt lat="50.80793" lon="1.9072">
        <ele>96</ele>
        <time>2015-05-12T13:37:57.000Z</time>
      </trkpt>
      <trkpt lat="50.80793" lon="1.90719">
        <ele>96</ele>
        <time>2015-05-12T13:37:58.000Z</time>
      </trkpt>
      <trkpt lat="50.80792" lon="1.90718">
        <ele>95</ele>
        <time>2015-05-12T13:37:59.000Z</time>
      </trkpt>
      <trkpt lat="50.80792" lon="1.90717">
        <ele>96</ele>
        <time>2015-05-12T13:38:00.000Z</time>
      </trkpt>
      <trkpt lat="50.80792" lon="1.90715">
        <ele>96</ele>
        <time>2015-05-12T13:38:01.000Z</time>
      </trkpt>
      <trkpt lat="50.80792" lon="1.90715">
        <ele>96</ele>
        <time>2015-05-12T13:38:02.000Z</time>
      </trkpt>
      <trkpt lat="50.80792" lon="1.90714">
        <ele>96</ele>
        <time>2015-05-12T13:38:03.000Z</time>
      </trkpt>
      <trkpt lat="50.80792" lon="1.90714">
        <ele>96</ele>
        <time>2015-05-12T13:38:04.000Z</time>
      </trkpt>
      <trkpt lat="50.80791" lon="1.90714">
        <ele>97</ele>
        <time>2015-05-12T13:38:05.000Z</time>
      </trkpt>
      <trkpt lat="50.80791" lon="1.90713">
        <ele>98</ele>
        <time>2015-05-12T13:38:06.000Z</time>
      </trkpt>
      <trkpt lat="50.80791" lon="1.90712">
        <ele>98</ele>
        <time>2015-05-12T13:38:07.000Z</time>
      </trkpt>
      <trkpt lat="50.80791" lon="1.90711">
        <ele>97</ele>
        <time>2015-05-12T13:38:08.000Z</time>
      </trkpt>
      <trkpt lat="50.8079" lon="1.90709">
        <ele>97</ele>
        <time>2015-05-12T13:38:09.000Z</time>
      </trkpt>
      <trkpt lat="50.8079" lon="1.90708">
        <ele>97</ele>
        <time>2015-05-12T13:38:10.000Z</time>
      </trkpt>
      <trkpt lat="50.80789" lon="1.90706">
        <ele>97</ele>
        <time>2015-05-12T13:38:11.000Z</time>
      </trkpt>
      <trkpt lat="50.80789" lon="1.90705">
        <ele>96</ele>
        <time>2015-05-12T13:38:12.000Z</time>
      </trkpt>
      <trkpt lat="50.80788" lon="1.90703">
        <ele>96</ele>
        <time>2015-05-12T13:38:13.000Z</time>
      </trkpt>
      <trkpt lat="50.80787" lon="1.90701">
        <ele>96</ele>
        <time>2015-05-12T13:38:14.000Z</time>
      </trkpt>
      <trkpt lat="50.80787" lon="1.907">
        <ele>95</ele>
        <time>2015-05-12T13:38:15.000Z</time>
      </trkpt>
      <trkpt lat="50.80786" lon="1.90698">
        <ele>95</ele>
        <time>2015-05-12T13:38:16.000Z</time>
      </trkpt>
      <trkpt lat="50.80786" lon="1.90697">
        <ele>95</ele>
        <time>2015-05-12T13:38:17.000Z</time>
      </trkpt>
      <trkpt lat="50.80786" lon="1.90695">
        <ele>95</ele>
        <time>2015-05-12T13:38:18.000Z</time>
      </trkpt>
      <trkpt lat="50.80785" lon="1.90694">
        <ele>95</ele>
        <time>2015-05-12T13:38:19.000Z</time>
      </trkpt>
      <trkpt lat="50.80785" lon="1.90692">
        <ele>95</ele>
        <time>2015-05-12T13:38:20.000Z</time>
      </trkpt>
      <trkpt lat="50.80785" lon="1.90691">
        <ele>95</ele>
        <time>2015-05-12T13:38:21.000Z</time>
      </trkpt>
      <trkpt lat="50.80784" lon="1.90689">
        <ele>95</ele>
        <time>2015-05-12T13:38:22.000Z</time>
      </trkpt>
      <trkpt lat="50.80784" lon="1.90688">
        <ele>96</ele>
        <time>2015-05-12T13:38:23.000Z</time>
      </trkpt>
      <trkpt lat="50.80784" lon="1.90687">
        <ele>95</ele>
        <time>2015-05-12T13:38:24.000Z</time>
      </trkpt>
      <trkpt lat="50.80783" lon="1.90685">
        <ele>95</ele>
        <time>2015-05-12T13:38:25.000Z</time>
      </trkpt>
      <trkpt lat="50.80782" lon="1.90683">
        <ele>96</ele>
        <time>2015-05-12T13:38:26.000Z</time>
      </trkpt>
      <trkpt lat="50.80781" lon="1.90681">
        <ele>96</ele>
        <time>2015-05-12T13:38:27.000Z</time>
      </trkpt>
      <trkpt lat="50.8078" lon="1.90679">
        <ele>95</ele>
        <time>2015-05-12T13:38:28.000Z</time>
      </trkpt>
      <trkpt lat="50.80779" lon="1.90677">
        <ele>95</ele>
        <time>2015-05-12T13:38:29.000Z</time>
      </trkpt>
      <trkpt lat="50.80778" lon="1.90676">
        <ele>95</ele>
        <time>2015-05-12T13:38:30.000Z</time>
      </trkpt>
      <trkpt lat="50.80778" lon="1.90675">
        <ele>95</ele>
        <time>2015-05-12T13:38:31.000Z</time>
      </trkpt>
      <trkpt lat="50.80777" lon="1.90673">
        <ele>95</ele>
        <time>2015-05-12T13:38:32.000Z</time>
      </trkpt>
      <trkpt lat="50.80777" lon="1.90671">
        <ele>95</ele>
        <time>2015-05-12T13:38:33.000Z</time>
      </trkpt>
      <trkpt lat="50.80776" lon="1.90669">
        <ele>95</ele>
        <time>2015-05-12T13:38:34.000Z</time>
      </trkpt>
      <trkpt lat="50.80775" lon="1.90668">
        <ele>95</ele>
        <time>2015-05-12T13:38:35.000Z</time>
      </trkpt>
      <trkpt lat="50.80774" lon="1.90667">
        <ele>95</ele>
        <time>2015-05-12T13:38:36.000Z</time>
      </trkpt>
      <trkpt lat="50.80774" lon="1.90665">
        <ele>95</ele>
        <time>2015-05-12T13:38:37.000Z</time>
      </trkpt>
      <trkpt lat="50.80773" lon="1.90663">
        <ele>95</ele>
        <time>2015-05-12T13:38:38.000Z</time>
      </trkpt>
      <trkpt lat="50.80773" lon="1.90662">
        <ele>95</ele>
        <time>2015-05-12T13:38:39.000Z</time>
      </trkpt>
      <trkpt lat="50.80772" lon="1.9066">
        <ele>95</ele>
        <time>2015-05-12T13:38:40.000Z</time>
      </trkpt>
      <trkpt lat="50.80772" lon="1.90659">
        <ele>95</ele>
        <time>2015-05-12T13:38:41.000Z</time>
      </trkpt>
      <trkpt lat="50.80771" lon="1.90658">
        <ele>96</ele>
        <time>2015-05-12T13:38:42.000Z</time>
      </trkpt>
      <trkpt lat="50.8077" lon="1.90656">
        <ele>95</ele>
        <time>2015-05-12T13:38:43.000Z</time>
      </trkpt>
      <trkpt lat="50.8077" lon="1.90655">
        <ele>95</ele>
        <time>2015-05-12T13:38:44.000Z</time>
      </trkpt>
      <trkpt lat="50.80769" lon="1.90653">
        <ele>95</ele>
        <time>2015-05-12T13:38:45.000Z</time>
      </trkpt>
      <trkpt lat="50.80769" lon="1.90651">
        <ele>95</ele>
        <time>2015-05-12T13:38:46.000Z</time>
      </trkpt>
      <trkpt lat="50.80768" lon="1.9065">
        <ele>96</ele>
        <time>2015-05-12T13:38:47.000Z</time>
      </trkpt>
      <trkpt lat="50.80768" lon="1.90648">
        <ele>96</ele>
        <time>2015-05-12T13:38:48.000Z</time>
      </trkpt>
      <trkpt lat="50.80767" lon="1.90647">
        <ele>96</ele>
        <time>2015-05-12T13:38:49.000Z</time>
      </trkpt>
      <trkpt lat="50.80766" lon="1.90645">
        <ele>96</ele>
        <time>2015-05-12T13:38:50.000Z</time>
      </trkpt>
      <trkpt lat="50.80765" lon="1.90644">
        <ele>96</ele>
        <time>2015-05-12T13:38:51.000Z</time>
      </trkpt>
      <trkpt lat="50.80765" lon="1.90642">
        <ele>96</ele>
        <time>2015-05-12T13:38:52.000Z</time>
      </trkpt>
      <trkpt lat="50.80764" lon="1.90641">
        <ele>97</ele>
        <time>2015-05-12T13:38:53.000Z</time>
      </trkpt>
      <trkpt lat="50.80763" lon="1.90639">
        <ele>97</ele>
        <time>2015-05-12T13:38:54.000Z</time>
      </trkpt>
      <trkpt lat="50.80763" lon="1.90638">
        <ele>97</ele>
        <time>2015-05-12T13:38:55.000Z</time>
      </trkpt>
      <trkpt lat="50.80763" lon="1.90636">
        <ele>98</ele>
        <time>2015-05-12T13:38:56.000Z</time>
      </trkpt>
      <trkpt lat="50.80762" lon="1.90635">
        <ele>97</ele>
        <time>2015-05-12T13:38:57.000Z</time>
      </trkpt>
      <trkpt lat="50.80761" lon="1.90633">
        <ele>98</ele>
        <time>2015-05-12T13:38:58.000Z</time>
      </trkpt>
      <trkpt lat="50.8076" lon="1.90632">
        <ele>98</ele>
        <time>2015-05-12T13:38:59.000Z</time>
      </trkpt>
      <trkpt lat="50.8076" lon="1.9063">
        <ele>99</ele>
        <time>2015-05-12T13:39:00.000Z</time>
      </trkpt>
      <trkpt lat="50.80759" lon="1.90629">
        <ele>99</ele>
        <time>2015-05-12T13:39:01.000Z</time>
      </trkpt>
      <trkpt lat="50.80759" lon="1.90627">
        <ele>99</ele>
        <time>2015-05-12T13:39:02.000Z</time>
      </trkpt>
      <trkpt lat="50.80758" lon="1.90626">
        <ele>99</ele>
        <time>2015-05-12T13:39:03.000Z</time>
      </trkpt>
      <trkpt lat="50.80757" lon="1.90625">
        <ele>99</ele>
        <time>2015-05-12T13:39:04.000Z</time>
      </trkpt>
      <trkpt lat="50.80757" lon="1.90623">
        <ele>100</ele>
        <time>2015-05-12T13:39:05.000Z</time>
      </trkpt>
      <trkpt lat="50.80756" lon="1.90622">
        <ele>100</ele>
        <time>2015-05-12T13:39:06.000Z</time>
      </trkpt>
      <trkpt lat="50.80756" lon="1.9062">
        <ele>100</ele>
        <time>2015-05-12T13:39:07.000Z</time>
      </trkpt>
      <trkpt lat="50.80755" lon="1.90619">
        <ele>101</ele>
        <time>2015-05-12T13:39:08.000Z</time>
      </trkpt>
      <trkpt lat="50.80755" lon="1.90618">
        <ele>101</ele>
        <time>2015-05-12T13:39:09.000Z</time>
      </trkpt>
      <trkpt lat="50.80754" lon="1.90617">
        <ele>101</ele>
        <time>2015-05-12T13:39:10.000Z</time>
      </trkpt>
      <trkpt lat="50.80754" lon="1.90615">
        <ele>101</ele>
        <time>2015-05-12T13:39:11.000Z</time>
      </trkpt>
      <trkpt lat="50.80753" lon="1.90614">
        <ele>101</ele>
        <time>2015-05-12T13:39:12.000Z</time>
      </trkpt>
      <trkpt lat="50.80753" lon="1.90613">
        <ele>102</ele>
        <time>2015-05-12T13:39:13.000Z</time>
      </trkpt>
      <trkpt lat="50.80753" lon="1.90611">
        <ele>101</ele>
        <time>2015-05-12T13:39:14.000Z</time>
      </trkpt>
      <trkpt lat="50.80752" lon="1.9061">
        <ele>103</ele>
        <time>2015-05-12T13:39:15.000Z</time>
      </trkpt>
      <trkpt lat="50.80752" lon="1.90608">
        <ele>102</ele>
        <time>2015-05-12T13:39:16.000Z</time>
      </trkpt>
      <trkpt lat="50.80751" lon="1.90606">
        <ele>102</ele>
        <time>2015-05-12T13:39:17.000Z</time>
      </trkpt>
      <trkpt lat="50.80751" lon="1.90605">
        <ele>103</ele>
        <time>2015-05-12T13:39:18.000Z</time>
      </trkpt>
      <trkpt lat="50.8075" lon="1.90603">
        <ele>103</ele>
        <time>2015-05-12T13:39:19.000Z</time>
      </trkpt>
      <trkpt lat="50.8075" lon="1.90602">
        <ele>104</ele>
        <time>2015-05-12T13:39:20.000Z</time>
      </trkpt>
      <trkpt lat="50.8075" lon="1.90601">
        <ele>105</ele>
        <time>2015-05-12T13:39:21.000Z</time>
      </trkpt>
      <trkpt lat="50.8075" lon="1.90599">
        <ele>106</ele>
        <time>2015-05-12T13:39:22.000Z</time>
      </trkpt>
      <trkpt lat="50.80749" lon="1.90597">
        <ele>106</ele>
        <time>2015-05-12T13:39:23.000Z</time>
      </trkpt>
      <trkpt lat="50.80748" lon="1.90596">
        <ele>106</ele>
        <time>2015-05-12T13:39:24.000Z</time>
      </trkpt>
      <trkpt lat="50.80748" lon="1.90594">
        <ele>106</ele>
        <time>2015-05-12T13:39:25.000Z</time>
      </trkpt>
      <trkpt lat="50.80748" lon="1.90593">
        <ele>106</ele>
        <time>2015-05-12T13:39:26.000Z</time>
      </trkpt>
      <trkpt lat="50.80747" lon="1.90592">
        <ele>106</ele>
        <time>2015-05-12T13:39:27.000Z</time>
      </trkpt>
      <trkpt lat="50.80747" lon="1.90591">
        <ele>107</ele>
        <time>2015-05-12T13:39:28.000Z</time>
      </trkpt>
      <trkpt lat="50.80747" lon="1.9059">
        <ele>107</ele>
        <time>2015-05-12T13:39:29.000Z</time>
      </trkpt>
      <trkpt lat="50.80747" lon="1.90589">
        <ele>108</ele>
        <time>2015-05-12T13:39:30.000Z</time>
      </trkpt>
      <trkpt lat="50.80746" lon="1.90587">
        <ele>108</ele>
        <time>2015-05-12T13:39:31.000Z</time>
      </trkpt>
      <trkpt lat="50.80746" lon="1.90586">
        <ele>109</ele>
        <time>2015-05-12T13:39:32.000Z</time>
      </trkpt>
      <trkpt lat="50.80746" lon="1.90585">
        <ele>109</ele>
        <time>2015-05-12T13:39:33.000Z</time>
      </trkpt>
      <trkpt lat="50.80745" lon="1.90583">
        <ele>109</ele>
        <time>2015-05-12T13:39:34.000Z</time>
      </trkpt>
      <trkpt lat="50.80745" lon="1.90582">
        <ele>109</ele>
        <time>2015-05-12T13:39:35.000Z</time>
      </trkpt>
      <trkpt lat="50.80745" lon="1.90581">
        <ele>110</ele>
        <time>2015-05-12T13:39:36.000Z</time>
      </trkpt>
      <trkpt lat="50.80745" lon="1.9058">
        <ele>110</ele>
        <time>2015-05-12T13:39:37.000Z</time>
      </trkpt>
      <trkpt lat="50.80745" lon="1.90578">
        <ele>110</ele>
        <time>2015-05-12T13:39:38.000Z</time>
      </trkpt>
      <trkpt lat="50.80745" lon="1.90577">
        <ele>110</ele>
        <time>2015-05-12T13:39:39.000Z</time>
      </trkpt>
      <trkpt lat="50.80745" lon="1.90576">
        <ele>111</ele>
        <time>2015-05-12T13:39:40.000Z</time>
      </trkpt>
      <trkpt lat="50.80744" lon="1.90575">
        <ele>112</ele>
        <time>2015-05-12T13:39:41.000Z</time>
      </trkpt>
      <trkpt lat="50.80744" lon="1.90574">
        <ele>112</ele>
        <time>2015-05-12T13:39:42.000Z</time>
      </trkpt>
      <trkpt lat="50.80744" lon="1.90573">
        <ele>112</ele>
        <time>2015-05-12T13:39:43.000Z</time>
      </trkpt>
      <trkpt lat="50.80744" lon="1.90572">
        <ele>113</ele>
        <time>2015-05-12T13:39:44.000Z</time>
      </trkpt>
      <trkpt lat="50.80744" lon="1.90571">
        <ele>113</ele>
        <time>2015-05-12T13:39:45.000Z</time>
      </trkpt>
      <trkpt lat="50.80743" lon="1.9057">
        <ele>113</ele>
        <time>2015-05-12T13:39:46.000Z</time>
      </trkpt>
      <trkpt lat="50.80743" lon="1.90569">
        <ele>113</ele>
        <time>2015-05-12T13:39:47.000Z</time>
      </trkpt>
      <trkpt lat="50.80742" lon="1.90568">
        <ele>113</ele>
        <time>2015-05-12T13:39:48.000Z</time>
      </trkpt>
      <trkpt lat="50.80741" lon="1.90566">
        <ele>112</ele>
        <time>2015-05-12T13:39:49.000Z</time>
      </trkpt>
      <trkpt lat="50.8074" lon="1.90565">
        <ele>111</ele>
        <time>2015-05-12T13:39:50.000Z</time>
      </trkpt>
      <trkpt lat="50.80738" lon="1.90563">
        <ele>111</ele>
        <time>2015-05-12T13:39:51.000Z</time>
      </trkpt>
      <trkpt lat="50.80738" lon="1.90562">
        <ele>111</ele>
        <time>2015-05-12T13:39:52.000Z</time>
      </trkpt>
      <trkpt lat="50.80737" lon="1.90561">
        <ele>111</ele>
        <time>2015-05-12T13:39:53.000Z</time>
      </trkpt>
      <trkpt lat="50.80737" lon="1.90559">
        <ele>111</ele>
        <time>2015-05-12T13:39:54.000Z</time>
      </trkpt>
      <trkpt lat="50.80736" lon="1.90558">
        <ele>111</ele>
        <time>2015-05-12T13:39:55.000Z</time>
      </trkpt>
      <trkpt lat="50.80735" lon="1.90557">
        <ele>111</ele>
        <time>2015-05-12T13:39:56.000Z</time>
      </trkpt>
      <trkpt lat="50.80734" lon="1.90556">
        <ele>110</ele>
        <time>2015-05-12T13:39:57.000Z</time>
      </trkpt>
      <trkpt lat="50.80734" lon="1.90554">
        <ele>110</ele>
        <time>2015-05-12T13:39:58.000Z</time>
      </trkpt>
      <trkpt lat="50.80733" lon="1.90553">
        <ele>110</ele>
        <time>2015-05-12T13:39:59.000Z</time>
      </trkpt>
      <trkpt lat="50.80732" lon="1.90552">
        <ele>111</ele>
        <time>2015-05-12T13:40:00.000Z</time>
      </trkpt>
      <trkpt lat="50.80732" lon="1.9055">
        <ele>111</ele>
        <time>2015-05-12T13:40:01.000Z</time>
      </trkpt>
      <trkpt lat="50.80732" lon="1.90549">
        <ele>112</ele>
        <time>2015-05-12T13:40:02.000Z</time>
      </trkpt>
      <trkpt lat="50.80731" lon="1.90547">
        <ele>112</ele>
        <time>2015-05-12T13:40:03.000Z</time>
      </trkpt>
      <trkpt lat="50.8073" lon="1.90546">
        <ele>113</ele>
        <time>2015-05-12T13:40:04.000Z</time>
      </trkpt>
      <trkpt lat="50.8073" lon="1.90544">
        <ele>113</ele>
        <time>2015-05-12T13:40:05.000Z</time>
      </trkpt>
      <trkpt lat="50.80729" lon="1.90543">
        <ele>113</ele>
        <time>2015-05-12T13:40:06.000Z</time>
      </trkpt>
      <trkpt lat="50.80729" lon="1.90542">
        <ele>113</ele>
        <time>2015-05-12T13:40:07.000Z</time>
      </trkpt>
      <trkpt lat="50.80728" lon="1.90541">
        <ele>112</ele>
        <time>2015-05-12T13:40:08.000Z</time>
      </trkpt>
      <trkpt lat="50.80727" lon="1.90539">
        <ele>112</ele>
        <time>2015-05-12T13:40:09.000Z</time>
      </trkpt>
      <trkpt lat="50.80726" lon="1.90538">
        <ele>111</ele>
        <time>2015-05-12T13:40:10.000Z</time>
      </trkpt>
      <trkpt lat="50.80725" lon="1.90536">
        <ele>111</ele>
        <time>2015-05-12T13:40:11.000Z</time>
      </trkpt>
      <trkpt lat="50.80725" lon="1.90534">
        <ele>111</ele>
        <time>2015-05-12T13:40:12.000Z</time>
      </trkpt>
      <trkpt lat="50.80724" lon="1.90533">
        <ele>110</ele>
        <time>2015-05-12T13:40:13.000Z</time>
      </trkpt>
      <trkpt lat="50.80723" lon="1.90532">
        <ele>109</ele>
        <time>2015-05-12T13:40:14.000Z</time>
      </trkpt>
      <trkpt lat="50.80722" lon="1.9053">
        <ele>108</ele>
        <time>2015-05-12T13:40:15.000Z</time>
      </trkpt>
      <trkpt lat="50.80722" lon="1.90529">
        <ele>108</ele>
        <time>2015-05-12T13:40:16.000Z</time>
      </trkpt>
      <trkpt lat="50.80721" lon="1.90527">
        <ele>108</ele>
        <time>2015-05-12T13:40:17.000Z</time>
      </trkpt>
      <trkpt lat="50.8072" lon="1.90526">
        <ele>109</ele>
        <time>2015-05-12T13:40:18.000Z</time>
      </trkpt>
      <trkpt lat="50.8072" lon="1.90524">
        <ele>109</ele>
        <time>2015-05-12T13:40:19.000Z</time>
      </trkpt>
      <trkpt lat="50.8072" lon="1.90523">
        <ele>110</ele>
        <time>2015-05-12T13:40:20.000Z</time>
      </trkpt>
      <trkpt lat="50.8072" lon="1.90521">
        <ele>110</ele>
        <time>2015-05-12T13:40:21.000Z</time>
      </trkpt>
      <trkpt lat="50.8072" lon="1.9052">
        <ele>111</ele>
        <time>2015-05-12T13:40:22.000Z</time>
      </trkpt>
      <trkpt lat="50.80719" lon="1.90518">
        <ele>110</ele>
        <time>2015-05-12T13:40:23.000Z</time>
      </trkpt>
      <trkpt lat="50.80719" lon="1.90516">
        <ele>110</ele>
        <time>2015-05-12T13:40:24.000Z</time>
      </trkpt>
      <trkpt lat="50.80719" lon="1.90515">
        <ele>110</ele>
        <time>2015-05-12T13:40:25.000Z</time>
      </trkpt>
      <trkpt lat="50.80718" lon="1.90513">
        <ele>110</ele>
        <time>2015-05-12T13:40:26.000Z</time>
      </trkpt>
      <trkpt lat="50.80718" lon="1.90511">
        <ele>109</ele>
        <time>2015-05-12T13:40:27.000Z</time>
      </trkpt>
      <trkpt lat="50.80717" lon="1.9051">
        <ele>108</ele>
        <time>2015-05-12T13:40:28.000Z</time>
      </trkpt>
      <trkpt lat="50.80715" lon="1.90508">
        <ele>108</ele>
        <time>2015-05-12T13:40:29.000Z</time>
      </trkpt>
      <trkpt lat="50.80714" lon="1.90507">
        <ele>108</ele>
        <time>2015-05-12T13:40:30.000Z</time>
      </trkpt>
      <trkpt lat="50.80713" lon="1.90505">
        <ele>108</ele>
        <time>2015-05-12T13:40:31.000Z</time>
      </trkpt>
      <trkpt lat="50.80711" lon="1.90503">
        <ele>108</ele>
        <time>2015-05-12T13:40:32.000Z</time>
      </trkpt>
      <trkpt lat="50.8071" lon="1.90502">
        <ele>108</ele>
        <time>2015-05-12T13:40:33.000Z</time>
      </trkpt>
      <trkpt lat="50.80709" lon="1.905">
        <ele>109</ele>
        <time>2015-05-12T13:40:34.000Z</time>
      </trkpt>
      <trkpt lat="50.80708" lon="1.90499">
        <ele>110</ele>
        <time>2015-05-12T13:40:35.000Z</time>
      </trkpt>
      <trkpt lat="50.80708" lon="1.90497">
        <ele>110</ele>
        <time>2015-05-12T13:40:36.000Z</time>
      </trkpt>
      <trkpt lat="50.80708" lon="1.90496">
        <ele>110</ele>
        <time>2015-05-12T13:40:37.000Z</time>
      </trkpt>
      <trkpt lat="50.80707" lon="1.90494">
        <ele>110</ele>
        <time>2015-05-12T13:40:38.000Z</time>
      </trkpt>
      <trkpt lat="50.80706" lon="1.90493">
        <ele>110</ele>
        <time>2015-05-12T13:40:39.000Z</time>
      </trkpt>
      <trkpt lat="50.80705" lon="1.90491">
        <ele>110</ele>
        <time>2015-05-12T13:40:40.000Z</time>
      </trkpt>
      <trkpt lat="50.80704" lon="1.9049">
        <ele>110</ele>
        <time>2015-05-12T13:40:41.000Z</time>
      </trkpt>
      <trkpt lat="50.80704" lon="1.90489">
        <ele>109</ele>
        <time>2015-05-12T13:40:42.000Z</time>
      </trkpt>
      <trkpt lat="50.80703" lon="1.90487">
        <ele>109</ele>
        <time>2015-05-12T13:40:43.000Z</time>
      </trkpt>
      <trkpt lat="50.80703" lon="1.90486">
        <ele>109</ele>
        <time>2015-05-12T13:40:44.000Z</time>
      </trkpt>
      <trkpt lat="50.80702" lon="1.90484">
        <ele>109</ele>
        <time>2015-05-12T13:40:45.000Z</time>
      </trkpt>
      <trkpt lat="50.80702" lon="1.90483">
        <ele>109</ele>
        <time>2015-05-12T13:40:46.000Z</time>
      </trkpt>
      <trkpt lat="50.80702" lon="1.90482">
        <ele>108</ele>
        <time>2015-05-12T13:40:47.000Z</time>
      </trkpt>
      <trkpt lat="50.80701" lon="1.90481">
        <ele>108</ele>
        <time>2015-05-12T13:40:48.000Z</time>
      </trkpt>
      <trkpt lat="50.807" lon="1.90479">
        <ele>108</ele>
        <time>2015-05-12T13:40:49.000Z</time>
      </trkpt>
      <trkpt lat="50.807" lon="1.90478">
        <ele>108</ele>
        <time>2015-05-12T13:40:50.000Z</time>
      </trkpt>
      <trkpt lat="50.80699" lon="1.90477">
        <ele>108</ele>
        <time>2015-05-12T13:40:51.000Z</time>
      </trkpt>
      <trkpt lat="50.80698" lon="1.90475">
        <ele>108</ele>
        <time>2015-05-12T13:40:52.000Z</time>
      </trkpt>
      <trkpt lat="50.80698" lon="1.90474">
        <ele>108</ele>
        <time>2015-05-12T13:40:53.000Z</time>
      </trkpt>
      <trkpt lat="50.80697" lon="1.90472">
        <ele>108</ele>
        <time>2015-05-12T13:40:54.000Z</time>
      </trkpt>
      <trkpt lat="50.80697" lon="1.90471">
        <ele>108</ele>
        <time>2015-05-12T13:40:55.000Z</time>
      </trkpt>
      <trkpt lat="50.80697" lon="1.90469">
        <ele>109</ele>
        <time>2015-05-12T13:40:56.000Z</time>
      </trkpt>
      <trkpt lat="50.80696" lon="1.90467">
        <ele>108</ele>
        <time>2015-05-12T13:40:57.000Z</time>
      </trkpt>
      <trkpt lat="50.80696" lon="1.90465">
        <ele>108</ele>
        <time>2015-05-12T13:40:58.000Z</time>
      </trkpt>
      <trkpt lat="50.80696" lon="1.90464">
        <ele>108</ele>
        <time>2015-05-12T13:40:59.000Z</time>
      </trkpt>
      <trkpt lat="50.80695" lon="1.90463">
        <ele>109</ele>
        <time>2015-05-12T13:41:00.000Z</time>
      </trkpt>
      <trkpt lat="50.80694" lon="1.90461">
        <ele>108</ele>
        <time>2015-05-12T13:41:01.000Z</time>
      </trkpt>
      <trkpt lat="50.80693" lon="1.90459">
        <ele>108</ele>
        <time>2015-05-12T13:41:02.000Z</time>
      </trkpt>
      <trkpt lat="50.80692" lon="1.90457">
        <ele>109</ele>
        <time>2015-05-12T13:41:03.000Z</time>
      </trkpt>
      <trkpt lat="50.80692" lon="1.90456">
        <ele>109</ele>
        <time>2015-05-12T13:41:04.000Z</time>
      </trkpt>
      <trkpt lat="50.80691" lon="1.90455">
        <ele>109</ele>
        <time>2015-05-12T13:41:05.000Z</time>
      </trkpt>
      <trkpt lat="50.80691" lon="1.90453">
        <ele>109</ele>
        <time>2015-05-12T13:41:06.000Z</time>
      </trkpt>
      <trkpt lat="50.8069" lon="1.90452">
        <ele>108</ele>
        <time>2015-05-12T13:41:07.000Z</time>
      </trkpt>
      <trkpt lat="50.80689" lon="1.9045">
        <ele>109</ele>
        <time>2015-05-12T13:41:08.000Z</time>
      </trkpt>
      <trkpt lat="50.80688" lon="1.90449">
        <ele>109</ele>
        <time>2015-05-12T13:41:09.000Z</time>
      </trkpt>
      <trkpt lat="50.80688" lon="1.90448">
        <ele>109</ele>
        <time>2015-05-12T13:41:10.000Z</time>
      </trkpt>
      <trkpt lat="50.80687" lon="1.90446">
        <ele>110</ele>
        <time>2015-05-12T13:41:11.000Z</time>
      </trkpt>
      <trkpt lat="50.80687" lon="1.90445">
        <ele>110</ele>
        <time>2015-05-12T13:41:12.000Z</time>
      </trkpt>
      <trkpt lat="50.80686" lon="1.90444">
        <ele>110</ele>
        <time>2015-05-12T13:41:13.000Z</time>
      </trkpt>
      <trkpt lat="50.80685" lon="1.90442">
        <ele>109</ele>
        <time>2015-05-12T13:41:14.000Z</time>
      </trkpt>
      <trkpt lat="50.80684" lon="1.9044">
        <ele>109</ele>
        <time>2015-05-12T13:41:15.000Z</time>
      </trkpt>
      <trkpt lat="50.80683" lon="1.90438">
        <ele>109</ele>
        <time>2015-05-12T13:41:16.000Z</time>
      </trkpt>
      <trkpt lat="50.80683" lon="1.90436">
        <ele>108</ele>
        <time>2015-05-12T13:41:17.000Z</time>
      </trkpt>
      <trkpt lat="50.80682" lon="1.90435">
        <ele>109</ele>
        <time>2015-05-12T13:41:18.000Z</time>
      </trkpt>
      <trkpt lat="50.80681" lon="1.90433">
        <ele>109</ele>
        <time>2015-05-12T13:41:19.000Z</time>
      </trkpt>
      <trkpt lat="50.80681" lon="1.90432">
        <ele>109</ele>
        <time>2015-05-12T13:41:20.000Z</time>
      </trkpt>
      <trkpt lat="50.8068" lon="1.9043">
        <ele>109</ele>
        <time>2015-05-12T13:41:21.000Z</time>
      </trkpt>
      <trkpt lat="50.80679" lon="1.90429">
        <ele>109</ele>
        <time>2015-05-12T13:41:22.000Z</time>
      </trkpt>
      <trkpt lat="50.80679" lon="1.90427">
        <ele>109</ele>
        <time>2015-05-12T13:41:23.000Z</time>
      </trkpt>
      <trkpt lat="50.80678" lon="1.90426">
        <ele>109</ele>
        <time>2015-05-12T13:41:24.000Z</time>
      </trkpt>
      <trkpt lat="50.80677" lon="1.90424">
        <ele>108</ele>
        <time>2015-05-12T13:41:25.000Z</time>
      </trkpt>
      <trkpt lat="50.80676" lon="1.90423">
        <ele>108</ele>
        <time>2015-05-12T13:41:26.000Z</time>
      </trkpt>
      <trkpt lat="50.80676" lon="1.90421">
        <ele>110</ele>
        <time>2015-05-12T13:41:27.000Z</time>
      </trkpt>
      <trkpt lat="50.80675" lon="1.9042">
        <ele>110</ele>
        <time>2015-05-12T13:41:28.000Z</time>
      </trkpt>
      <trkpt lat="50.80674" lon="1.90419">
        <ele>110</ele>
        <time>2015-05-12T13:41:29.000Z</time>
      </trkpt>
      <trkpt lat="50.80674" lon="1.90417">
        <ele>111</ele>
        <time>2015-05-12T13:41:30.000Z</time>
      </trkpt>
      <trkpt lat="50.80673" lon="1.90416">
        <ele>111</ele>
        <time>2015-05-12T13:41:31.000Z</time>
      </trkpt>
      <trkpt lat="50.80673" lon="1.90415">
        <ele>111</ele>
        <time>2015-05-12T13:41:32.000Z</time>
      </trkpt>
      <trkpt lat="50.80672" lon="1.90414">
        <ele>111</ele>
        <time>2015-05-12T13:41:33.000Z</time>
      </trkpt>
      <trkpt lat="50.80672" lon="1.90413">
        <ele>111</ele>
        <time>2015-05-12T13:41:34.000Z</time>
      </trkpt>
      <trkpt lat="50.80671" lon="1.90412">
        <ele>112</ele>
        <time>2015-05-12T13:41:35.000Z</time>
      </trkpt>
      <trkpt lat="50.80671" lon="1.90411">
        <ele>112</ele>
        <time>2015-05-12T13:41:36.000Z</time>
      </trkpt>
      <trkpt lat="50.8067" lon="1.9041">
        <ele>113</ele>
        <time>2015-05-12T13:41:37.000Z</time>
      </trkpt>
      <trkpt lat="50.8067" lon="1.90409">
        <ele>113</ele>
        <time>2015-05-12T13:41:38.000Z</time>
      </trkpt>
      <trkpt lat="50.8067" lon="1.90408">
        <ele>114</ele>
        <time>2015-05-12T13:41:39.000Z</time>
      </trkpt>
      <trkpt lat="50.80669" lon="1.90407">
        <ele>114</ele>
        <time>2015-05-12T13:41:40.000Z</time>
      </trkpt>
      <trkpt lat="50.80669" lon="1.90407">
        <ele>114</ele>
        <time>2015-05-12T13:41:41.000Z</time>
      </trkpt>
      <trkpt lat="50.80668" lon="1.90406">
        <ele>114</ele>
        <time>2015-05-12T13:41:42.000Z</time>
      </trkpt>
      <trkpt lat="50.80668" lon="1.90405">
        <ele>114</ele>
        <time>2015-05-12T13:41:43.000Z</time>
      </trkpt>
      <trkpt lat="50.80667" lon="1.90404">
        <ele>114</ele>
        <time>2015-05-12T13:41:44.000Z</time>
      </trkpt>
      <trkpt lat="50.80666" lon="1.90403">
        <ele>114</ele>
        <time>2015-05-12T13:41:45.000Z</time>
      </trkpt>
      <trkpt lat="50.80666" lon="1.90402">
        <ele>114</ele>
        <time>2015-05-12T13:41:46.000Z</time>
      </trkpt>
      <trkpt lat="50.80665" lon="1.90401">
        <ele>114</ele>
        <time>2015-05-12T13:41:47.000Z</time>
      </trkpt>
      <trkpt lat="50.80665" lon="1.904">
        <ele>114</ele>
        <time>2015-05-12T13:41:48.000Z</time>
      </trkpt>
      <trkpt lat="50.80664" lon="1.90398">
        <ele>113</ele>
        <time>2015-05-12T13:41:49.000Z</time>
      </trkpt>
      <trkpt lat="50.80664" lon="1.90397">
        <ele>113</ele>
        <time>2015-05-12T13:41:50.000Z</time>
      </trkpt>
      <trkpt lat="50.80663" lon="1.90396">
        <ele>113</ele>
        <time>2015-05-12T13:41:51.000Z</time>
      </trkpt>
      <trkpt lat="50.80662" lon="1.90394">
        <ele>113</ele>
        <time>2015-05-12T13:41:52.000Z</time>
      </trkpt>
      <trkpt lat="50.80662" lon="1.90393">
        <ele>113</ele>
        <time>2015-05-12T13:41:53.000Z</time>
      </trkpt>
      <trkpt lat="50.80661" lon="1.90391">
        <ele>113</ele>
        <time>2015-05-12T13:41:54.000Z</time>
      </trkpt>
      <trkpt lat="50.8066" lon="1.9039">
        <ele>113</ele>
        <time>2015-05-12T13:41:55.000Z</time>
      </trkpt>
      <trkpt lat="50.8066" lon="1.90389">
        <ele>113</ele>
        <time>2015-05-12T13:41:56.000Z</time>
      </trkpt>
      <trkpt lat="50.80659" lon="1.90387">
        <ele>113</ele>
        <time>2015-05-12T13:41:57.000Z</time>
      </trkpt>
      <trkpt lat="50.80659" lon="1.90386">
        <ele>113</ele>
        <time>2015-05-12T13:41:58.000Z</time>
      </trkpt>
      <trkpt lat="50.80658" lon="1.90385">
        <ele>113</ele>
        <time>2015-05-12T13:41:59.000Z</time>
      </trkpt>
      <trkpt lat="50.80657" lon="1.90384">
        <ele>113</ele>
        <time>2015-05-12T13:42:00.000Z</time>
      </trkpt>
      <trkpt lat="50.80656" lon="1.90382">
        <ele>113</ele>
        <time>2015-05-12T13:42:01.000Z</time>
      </trkpt>
      <trkpt lat="50.80656" lon="1.9038">
        <ele>113</ele>
        <time>2015-05-12T13:42:02.000Z</time>
      </trkpt>
      <trkpt lat="50.80655" lon="1.90379">
        <ele>113</ele>
        <time>2015-05-12T13:42:03.000Z</time>
      </trkpt>
      <trkpt lat="50.80654" lon="1.90378">
        <ele>113</ele>
        <time>2015-05-12T13:42:04.000Z</time>
      </trkpt>
      <trkpt lat="50.80653" lon="1.90376">
        <ele>113</ele>
        <time>2015-05-12T13:42:05.000Z</time>
      </trkpt>
      <trkpt lat="50.80652" lon="1.90374">
        <ele>113</ele>
        <time>2015-05-12T13:42:06.000Z</time>
      </trkpt>
      <trkpt lat="50.80651" lon="1.90372">
        <ele>113</ele>
        <time>2015-05-12T13:42:07.000Z</time>
      </trkpt>
      <trkpt lat="50.80651" lon="1.90371">
        <ele>113</ele>
        <time>2015-05-12T13:42:08.000Z</time>
      </trkpt>
      <trkpt lat="50.8065" lon="1.90369">
        <ele>113</ele>
        <time>2015-05-12T13:42:09.000Z</time>
      </trkpt>
      <trkpt lat="50.80649" lon="1.90368">
        <ele>113</ele>
        <time>2015-05-12T13:42:10.000Z</time>
      </trkpt>
      <trkpt lat="50.80649" lon="1.90367">
        <ele>113</ele>
        <time>2015-05-12T13:42:11.000Z</time>
      </trkpt>
      <trkpt lat="50.80648" lon="1.90365">
        <ele>113</ele>
        <time>2015-05-12T13:42:12.000Z</time>
      </trkpt>
      <trkpt lat="50.80647" lon="1.90364">
        <ele>113</ele>
        <time>2015-05-12T13:42:13.000Z</time>
      </trkpt>
      <trkpt lat="50.80647" lon="1.90363">
        <ele>113</ele>
        <time>2015-05-12T13:42:14.000Z</time>
      </trkpt>
      <trkpt lat="50.80646" lon="1.90362">
        <ele>113</ele>
        <time>2015-05-12T13:42:15.000Z</time>
      </trkpt>
      <trkpt lat="50.80645" lon="1.90361">
        <ele>113</ele>
        <time>2015-05-12T13:42:16.000Z</time>
      </trkpt>
      <trkpt lat="50.80644" lon="1.90359">
        <ele>113</ele>
        <time>2015-05-12T13:42:17.000Z</time>
      </trkpt>
      <trkpt lat="50.80643" lon="1.90358">
        <ele>113</ele>
        <time>2015-05-12T13:42:18.000Z</time>
      </trkpt>
      <trkpt lat="50.80642" lon="1.90357">
        <ele>113</ele>
        <time>2015-05-12T13:42:19.000Z</time>
      </trkpt>
      <trkpt lat="50.80641" lon="1.90356">
        <ele>113</ele>
        <time>2015-05-12T13:42:20.000Z</time>
      </trkpt>
      <trkpt lat="50.8064" lon="1.90355">
        <ele>113</ele>
        <time>2015-05-12T13:42:21.000Z</time>
      </trkpt>
      <trkpt lat="50.8064" lon="1.90354">
        <ele>112</ele>
        <time>2015-05-12T13:42:22.000Z</time>
      </trkpt>
      <trkpt lat="50.80639" lon="1.90352">
        <ele>112</ele>
        <time>2015-05-12T13:42:23.000Z</time>
      </trkpt>
      <trkpt lat="50.80638" lon="1.90351">
        <ele>112</ele>
        <time>2015-05-12T13:42:24.000Z</time>
      </trkpt>
      <trkpt lat="50.80637" lon="1.9035">
        <ele>113</ele>
        <time>2015-05-12T13:42:25.000Z</time>
      </trkpt>
      <trkpt lat="50.80636" lon="1.90349">
        <ele>113</ele>
        <time>2015-05-12T13:42:26.000Z</time>
      </trkpt>
      <trkpt lat="50.80635" lon="1.90347">
        <ele>113</ele>
        <time>2015-05-12T13:42:27.000Z</time>
      </trkpt>
      <trkpt lat="50.80635" lon="1.90346">
        <ele>113</ele>
        <time>2015-05-12T13:42:28.000Z</time>
      </trkpt>
      <trkpt lat="50.80634" lon="1.90344">
        <ele>113</ele>
        <time>2015-05-12T13:42:29.000Z</time>
      </trkpt>
      <trkpt lat="50.80633" lon="1.90343">
        <ele>112</ele>
        <time>2015-05-12T13:42:30.000Z</time>
      </trkpt>
      <trkpt lat="50.80633" lon="1.90341">
        <ele>112</ele>
        <time>2015-05-12T13:42:31.000Z</time>
      </trkpt>
      <trkpt lat="50.80632" lon="1.9034">
        <ele>112</ele>
        <time>2015-05-12T13:42:32.000Z</time>
      </trkpt>
      <trkpt lat="50.80631" lon="1.90338">
        <ele>112</ele>
        <time>2015-05-12T13:42:33.000Z</time>
      </trkpt>
      <trkpt lat="50.80631" lon="1.90337">
        <ele>113</ele>
        <time>2015-05-12T13:42:34.000Z</time>
      </trkpt>
      <trkpt lat="50.8063" lon="1.90336">
        <ele>113</ele>
        <time>2015-05-12T13:42:35.000Z</time>
      </trkpt>
      <trkpt lat="50.80629" lon="1.90335">
        <ele>113</ele>
        <time>2015-05-12T13:42:36.000Z</time>
      </trkpt>
      <trkpt lat="50.80628" lon="1.90334">
        <ele>114</ele>
        <time>2015-05-12T13:42:37.000Z</time>
      </trkpt>
      <trkpt lat="50.80628" lon="1.90333">
        <ele>114</ele>
        <time>2015-05-12T13:42:38.000Z</time>
      </trkpt>
      <trkpt lat="50.80627" lon="1.90332">
        <ele>114</ele>
        <time>2015-05-12T13:42:39.000Z</time>
      </trkpt>
      <trkpt lat="50.80626" lon="1.90331">
        <ele>114</ele>
        <time>2015-05-12T13:42:40.000Z</time>
      </trkpt>
      <trkpt lat="50.80626" lon="1.9033">
        <ele>115</ele>
        <time>2015-05-12T13:42:41.000Z</time>
      </trkpt>
      <trkpt lat="50.80625" lon="1.9033">
        <ele>115</ele>
        <time>2015-05-12T13:42:42.000Z</time>
      </trkpt>
      <trkpt lat="50.80625" lon="1.90329">
        <ele>115</ele>
        <time>2015-05-12T13:42:43.000Z</time>
      </trkpt>
      <trkpt lat="50.80624" lon="1.90328">
        <ele>115</ele>
        <time>2015-05-12T13:42:44.000Z</time>
      </trkpt>
      <trkpt lat="50.80624" lon="1.90327">
        <ele>116</ele>
        <time>2015-05-12T13:42:45.000Z</time>
      </trkpt>
      <trkpt lat="50.80623" lon="1.90327">
        <ele>116</ele>
        <time>2015-05-12T13:42:46.000Z</time>
      </trkpt>
      <trkpt lat="50.80623" lon="1.90326">
        <ele>115</ele>
        <time>2015-05-12T13:42:47.000Z</time>
      </trkpt>
      <trkpt lat="50.80622" lon="1.90325">
        <ele>116</ele>
        <time>2015-05-12T13:42:48.000Z</time>
      </trkpt>
      <trkpt lat="50.80622" lon="1.90323">
        <ele>116</ele>
        <time>2015-05-12T13:42:49.000Z</time>
      </trkpt>
      <trkpt lat="50.80621" lon="1.90322">
        <ele>116</ele>
        <time>2015-05-12T13:42:50.000Z</time>
      </trkpt>
      <trkpt lat="50.8062" lon="1.90321">
        <ele>116</ele>
        <time>2015-05-12T13:42:51.000Z</time>
      </trkpt>
      <trkpt lat="50.8062" lon="1.90319">
        <ele>116</ele>
        <time>2015-05-12T13:42:52.000Z</time>
      </trkpt>
      <trkpt lat="50.80619" lon="1.90318">
        <ele>117</ele>
        <time>2015-05-12T13:42:53.000Z</time>
      </trkpt>
      <trkpt lat="50.80619" lon="1.90317">
        <ele>117</ele>
        <time>2015-05-12T13:42:54.000Z</time>
      </trkpt>
      <trkpt lat="50.80619" lon="1.90316">
        <ele>117</ele>
        <time>2015-05-12T13:42:55.000Z</time>
      </trkpt>
      <trkpt lat="50.80618" lon="1.90315">
        <ele>117</ele>
        <time>2015-05-12T13:42:56.000Z</time>
      </trkpt>
      <trkpt lat="50.80618" lon="1.90314">
        <ele>117</ele>
        <time>2015-05-12T13:42:57.000Z</time>
      </trkpt>
      <trkpt lat="50.80617" lon="1.90313">
        <ele>117</ele>
        <time>2015-05-12T13:42:58.000Z</time>
      </trkpt>
      <trkpt lat="50.80617" lon="1.90311">
        <ele>116</ele>
        <time>2015-05-12T13:42:59.000Z</time>
      </trkpt>
      <trkpt lat="50.80616" lon="1.9031">
        <ele>117</ele>
        <time>2015-05-12T13:43:00.000Z</time>
      </trkpt>
      <trkpt lat="50.80616" lon="1.90308">
        <ele>117</ele>
        <time>2015-05-12T13:43:01.000Z</time>
      </trkpt>
      <trkpt lat="50.80615" lon="1.90307">
        <ele>117</ele>
        <time>2015-05-12T13:43:02.000Z</time>
      </trkpt>
      <trkpt lat="50.80615" lon="1.90306">
        <ele>118</ele>
        <time>2015-05-12T13:43:03.000Z</time>
      </trkpt>
      <trkpt lat="50.80615" lon="1.90305">
        <ele>118</ele>
        <time>2015-05-12T13:43:04.000Z</time>
      </trkpt>
      <trkpt lat="50.80615" lon="1.90304">
        <ele>118</ele>
        <time>2015-05-12T13:43:05.000Z</time>
      </trkpt>
      <trkpt lat="50.80614" lon="1.90303">
        <ele>118</ele>
        <time>2015-05-12T13:43:06.000Z</time>
      </trkpt>
      <trkpt lat="50.80614" lon="1.90301">
        <ele>118</ele>
        <time>2015-05-12T13:43:07.000Z</time>
      </trkpt>
      <trkpt lat="50.80614" lon="1.903">
        <ele>118</ele>
        <time>2015-05-12T13:43:08.000Z</time>
      </trkpt>
      <trkpt lat="50.80614" lon="1.90299">
        <ele>119</ele>
        <time>2015-05-12T13:43:09.000Z</time>
      </trkpt>
      <trkpt lat="50.80613" lon="1.90298">
        <ele>120</ele>
        <time>2015-05-12T13:43:10.000Z</time>
      </trkpt>
      <trkpt lat="50.80613" lon="1.90297">
        <ele>120</ele>
        <time>2015-05-12T13:43:11.000Z</time>
      </trkpt>
      <trkpt lat="50.80613" lon="1.90296">
        <ele>121</ele>
        <time>2015-05-12T13:43:12.000Z</time>
      </trkpt>
      <trkpt lat="50.80612" lon="1.90295">
        <ele>122</ele>
        <time>2015-05-12T13:43:13.000Z</time>
      </trkpt>
      <trkpt lat="50.80611" lon="1.90294">
        <ele>122</ele>
        <time>2015-05-12T13:43:14.000Z</time>
      </trkpt>
      <trkpt lat="50.80611" lon="1.90294">
        <ele>123</ele>
        <time>2015-05-12T13:43:15.000Z</time>
      </trkpt>
      <trkpt lat="50.8061" lon="1.90293">
        <ele>123</ele>
        <time>2015-05-12T13:43:16.000Z</time>
      </trkpt>
      <trkpt lat="50.8061" lon="1.90292">
        <ele>123</ele>
        <time>2015-05-12T13:43:17.000Z</time>
      </trkpt>
      <trkpt lat="50.80609" lon="1.90291">
        <ele>123</ele>
        <time>2015-05-12T13:43:18.000Z</time>
      </trkpt>
      <trkpt lat="50.80609" lon="1.90291">
        <ele>123</ele>
        <time>2015-05-12T13:43:19.000Z</time>
      </trkpt>
      <trkpt lat="50.80609" lon="1.9029">
        <ele>124</ele>
        <time>2015-05-12T13:43:20.000Z</time>
      </trkpt>
      <trkpt lat="50.80608" lon="1.90289">
        <ele>124</ele>
        <time>2015-05-12T13:43:21.000Z</time>
      </trkpt>
      <trkpt lat="50.80608" lon="1.90288">
        <ele>125</ele>
        <time>2015-05-12T13:43:22.000Z</time>
      </trkpt>
      <trkpt lat="50.80607" lon="1.90286">
        <ele>125</ele>
        <time>2015-05-12T13:43:23.000Z</time>
      </trkpt>
      <trkpt lat="50.80606" lon="1.90285">
        <ele>124</ele>
        <time>2015-05-12T13:43:24.000Z</time>
      </trkpt>
      <trkpt lat="50.80605" lon="1.90283">
        <ele>124</ele>
        <time>2015-05-12T13:43:25.000Z</time>
      </trkpt>
      <trkpt lat="50.80604" lon="1.90281">
        <ele>124</ele>
        <time>2015-05-12T13:43:26.000Z</time>
      </trkpt>
      <trkpt lat="50.80603" lon="1.90279">
        <ele>124</ele>
        <time>2015-05-12T13:43:27.000Z</time>
      </trkpt>
      <trkpt lat="50.80602" lon="1.90277">
        <ele>124</ele>
        <time>2015-05-12T13:43:28.000Z</time>
      </trkpt>
      <trkpt lat="50.80602" lon="1.90276">
        <ele>124</ele>
        <time>2015-05-12T13:43:29.000Z</time>
      </trkpt>
      <trkpt lat="50.80601" lon="1.90274">
        <ele>124</ele>
        <time>2015-05-12T13:43:30.000Z</time>
      </trkpt>
      <trkpt lat="50.806" lon="1.90273">
        <ele>124</ele>
        <time>2015-05-12T13:43:31.000Z</time>
      </trkpt>
      <trkpt lat="50.806" lon="1.90272">
        <ele>124</ele>
        <time>2015-05-12T13:43:32.000Z</time>
      </trkpt>
      <trkpt lat="50.80599" lon="1.90271">
        <ele>125</ele>
        <time>2015-05-12T13:43:33.000Z</time>
      </trkpt>
      <trkpt lat="50.80598" lon="1.90269">
        <ele>125</ele>
        <time>2015-05-12T13:43:34.000Z</time>
      </trkpt>
      <trkpt lat="50.80598" lon="1.90268">
        <ele>125</ele>
        <time>2015-05-12T13:43:35.000Z</time>
      </trkpt>
      <trkpt lat="50.80597" lon="1.90266">
        <ele>125</ele>
        <time>2015-05-12T13:43:36.000Z</time>
      </trkpt>
      <trkpt lat="50.80596" lon="1.90265">
        <ele>124</ele>
        <time>2015-05-12T13:43:37.000Z</time>
      </trkpt>
      <trkpt lat="50.80596" lon="1.90263">
        <ele>124</ele>
        <time>2015-05-12T13:43:38.000Z</time>
      </trkpt>
      <trkpt lat="50.80596" lon="1.90262">
        <ele>125</ele>
        <time>2015-05-12T13:43:39.000Z</time>
      </trkpt>
      <trkpt lat="50.80595" lon="1.9026">
        <ele>124</ele>
        <time>2015-05-12T13:43:40.000Z</time>
      </trkpt>
      <trkpt lat="50.80595" lon="1.90259">
        <ele>125</ele>
        <time>2015-05-12T13:43:41.000Z</time>
      </trkpt>
      <trkpt lat="50.80594" lon="1.90257">
        <ele>126</ele>
        <time>2015-05-12T13:43:42.000Z</time>
      </trkpt>
      <trkpt lat="50.80593" lon="1.90256">
        <ele>126</ele>
        <time>2015-05-12T13:43:43.000Z</time>
      </trkpt>
      <trkpt lat="50.80592" lon="1.90255">
        <ele>126</ele>
        <time>2015-05-12T13:43:44.000Z</time>
      </trkpt>
      <trkpt lat="50.80592" lon="1.90253">
        <ele>126</ele>
        <time>2015-05-12T13:43:45.000Z</time>
      </trkpt>
      <trkpt lat="50.80591" lon="1.90252">
        <ele>125</ele>
        <time>2015-05-12T13:43:46.000Z</time>
      </trkpt>
      <trkpt lat="50.80591" lon="1.90251">
        <ele>124</ele>
        <time>2015-05-12T13:43:47.000Z</time>
      </trkpt>
      <trkpt lat="50.8059" lon="1.9025">
        <ele>123</ele>
        <time>2015-05-12T13:43:48.000Z</time>
      </trkpt>
      <trkpt lat="50.8059" lon="1.90249">
        <ele>123</ele>
        <time>2015-05-12T13:43:49.000Z</time>
      </trkpt>
      <trkpt lat="50.80589" lon="1.90248">
        <ele>122</ele>
        <time>2015-05-12T13:43:50.000Z</time>
      </trkpt>
      <trkpt lat="50.80588" lon="1.90246">
        <ele>122</ele>
        <time>2015-05-12T13:43:51.000Z</time>
      </trkpt>
      <trkpt lat="50.80587" lon="1.90245">
        <ele>121</ele>
        <time>2015-05-12T13:43:52.000Z</time>
      </trkpt>
      <trkpt lat="50.80587" lon="1.90243">
        <ele>121</ele>
        <time>2015-05-12T13:43:53.000Z</time>
      </trkpt>
      <trkpt lat="50.80586" lon="1.90242">
        <ele>122</ele>
        <time>2015-05-12T13:43:54.000Z</time>
      </trkpt>
      <trkpt lat="50.80586" lon="1.9024">
        <ele>122</ele>
        <time>2015-05-12T13:43:55.000Z</time>
      </trkpt>
      <trkpt lat="50.80585" lon="1.90238">
        <ele>123</ele>
        <time>2015-05-12T13:43:56.000Z</time>
      </trkpt>
      <trkpt lat="50.80585" lon="1.90237">
        <ele>124</ele>
        <time>2015-05-12T13:43:57.000Z</time>
      </trkpt>
      <trkpt lat="50.80584" lon="1.90235">
        <ele>123</ele>
        <time>2015-05-12T13:43:58.000Z</time>
      </trkpt>
      <trkpt lat="50.80583" lon="1.90234">
        <ele>124</ele>
        <time>2015-05-12T13:43:59.000Z</time>
      </trkpt>
      <trkpt lat="50.80583" lon="1.90233">
        <ele>124</ele>
        <time>2015-05-12T13:44:00.000Z</time>
      </trkpt>
      <trkpt lat="50.80582" lon="1.90231">
        <ele>124</ele>
        <time>2015-05-12T13:44:01.000Z</time>
      </trkpt>
      <trkpt lat="50.80581" lon="1.90229">
        <ele>124</ele>
        <time>2015-05-12T13:44:02.000Z</time>
      </trkpt>
      <trkpt lat="50.80581" lon="1.90228">
        <ele>125</ele>
        <time>2015-05-12T13:44:03.000Z</time>
      </trkpt>
      <trkpt lat="50.8058" lon="1.90227">
        <ele>125</ele>
        <time>2015-05-12T13:44:04.000Z</time>
      </trkpt>
      <trkpt lat="50.8058" lon="1.90225">
        <ele>127</ele>
        <time>2015-05-12T13:44:05.000Z</time>
      </trkpt>
      <trkpt lat="50.80579" lon="1.90224">
        <ele>126</ele>
        <time>2015-05-12T13:44:06.000Z</time>
      </trkpt>
      <trkpt lat="50.80578" lon="1.90222">
        <ele>126</ele>
        <time>2015-05-12T13:44:07.000Z</time>
      </trkpt>
      <trkpt lat="50.80577" lon="1.9022">
        <ele>125</ele>
        <time>2015-05-12T13:44:08.000Z</time>
      </trkpt>
      <trkpt lat="50.80576" lon="1.90219">
        <ele>125</ele>
        <time>2015-05-12T13:44:09.000Z</time>
      </trkpt>
      <trkpt lat="50.80575" lon="1.90218">
        <ele>125</ele>
        <time>2015-05-12T13:44:10.000Z</time>
      </trkpt>
      <trkpt lat="50.80575" lon="1.90216">
        <ele>125</ele>
        <time>2015-05-12T13:44:11.000Z</time>
      </trkpt>
      <trkpt lat="50.80574" lon="1.90215">
        <ele>125</ele>
        <time>2015-05-12T13:44:12.000Z</time>
      </trkpt>
      <trkpt lat="50.80574" lon="1.90213">
        <ele>125</ele>
        <time>2015-05-12T13:44:13.000Z</time>
      </trkpt>
      <trkpt lat="50.80572" lon="1.90212">
        <ele>124</ele>
        <time>2015-05-12T13:44:14.000Z</time>
      </trkpt>
      <trkpt lat="50.80571" lon="1.9021">
        <ele>125</ele>
        <time>2015-05-12T13:44:15.000Z</time>
      </trkpt>
      <trkpt lat="50.80571" lon="1.90209">
        <ele>125</ele>
        <time>2015-05-12T13:44:16.000Z</time>
      </trkpt>
      <trkpt lat="50.8057" lon="1.90207">
        <ele>124</ele>
        <time>2015-05-12T13:44:17.000Z</time>
      </trkpt>
      <trkpt lat="50.8057" lon="1.90206">
        <ele>125</ele>
        <time>2015-05-12T13:44:18.000Z</time>
      </trkpt>
      <trkpt lat="50.8057" lon="1.90204">
        <ele>125</ele>
        <time>2015-05-12T13:44:19.000Z</time>
      </trkpt>
      <trkpt lat="50.80569" lon="1.90203">
        <ele>126</ele>
        <time>2015-05-12T13:44:20.000Z</time>
      </trkpt>
      <trkpt lat="50.80569" lon="1.90202">
        <ele>126</ele>
        <time>2015-05-12T13:44:21.000Z</time>
      </trkpt>
      <trkpt lat="50.80569" lon="1.902">
        <ele>127</ele>
        <time>2015-05-12T13:44:22.000Z</time>
      </trkpt>
      <trkpt lat="50.80568" lon="1.90199">
        <ele>127</ele>
        <time>2015-05-12T13:44:23.000Z</time>
      </trkpt>
      <trkpt lat="50.80568" lon="1.90198">
        <ele>128</ele>
        <time>2015-05-12T13:44:24.000Z</time>
      </trkpt>
      <trkpt lat="50.80568" lon="1.90197">
        <ele>128</ele>
        <time>2015-05-12T13:44:25.000Z</time>
      </trkpt>
      <trkpt lat="50.80567" lon="1.90196">
        <ele>128</ele>
        <time>2015-05-12T13:44:26.000Z</time>
      </trkpt>
      <trkpt lat="50.80567" lon="1.90194">
        <ele>129</ele>
        <time>2015-05-12T13:44:27.000Z</time>
      </trkpt>
      <trkpt lat="50.80566" lon="1.90193">
        <ele>129</ele>
        <time>2015-05-12T13:44:28.000Z</time>
      </trkpt>
      <trkpt lat="50.80566" lon="1.90191">
        <ele>129</ele>
        <time>2015-05-12T13:44:29.000Z</time>
      </trkpt>
      <trkpt lat="50.80565" lon="1.9019">
        <ele>129</ele>
        <time>2015-05-12T13:44:30.000Z</time>
      </trkpt>
      <trkpt lat="50.80564" lon="1.90188">
        <ele>130</ele>
        <time>2015-05-12T13:44:31.000Z</time>
      </trkpt>
      <trkpt lat="50.80564" lon="1.90187">
        <ele>130</ele>
        <time>2015-05-12T13:44:32.000Z</time>
      </trkpt>
      <trkpt lat="50.80564" lon="1.90185">
        <ele>132</ele>
        <time>2015-05-12T13:44:33.000Z</time>
      </trkpt>
      <trkpt lat="50.80563" lon="1.90184">
        <ele>131</ele>
        <time>2015-05-12T13:44:34.000Z</time>
      </trkpt>
      <trkpt lat="50.80563" lon="1.90183">
        <ele>132</ele>
        <time>2015-05-12T13:44:35.000Z</time>
      </trkpt>
      <trkpt lat="50.80562" lon="1.90181">
        <ele>131</ele>
        <time>2015-05-12T13:44:36.000Z</time>
      </trkpt>
      <trkpt lat="50.80561" lon="1.90179">
        <ele>131</ele>
        <time>2015-05-12T13:44:37.000Z</time>
      </trkpt>
      <trkpt lat="50.80561" lon="1.90177">
        <ele>131</ele>
        <time>2015-05-12T13:44:38.000Z</time>
      </trkpt>
      <trkpt lat="50.8056" lon="1.90176">
        <ele>131</ele>
        <time>2015-05-12T13:44:39.000Z</time>
      </trkpt>
      <trkpt lat="50.8056" lon="1.90174">
        <ele>131</ele>
        <time>2015-05-12T13:44:40.000Z</time>
      </trkpt>
      <trkpt lat="50.8056" lon="1.90173">
        <ele>132</ele>
        <time>2015-05-12T13:44:41.000Z</time>
      </trkpt>
      <trkpt lat="50.8056" lon="1.90171">
        <ele>132</ele>
        <time>2015-05-12T13:44:42.000Z</time>
      </trkpt>
      <trkpt lat="50.8056" lon="1.90169">
        <ele>132</ele>
        <time>2015-05-12T13:44:43.000Z</time>
      </trkpt>
      <trkpt lat="50.80559" lon="1.90168">
        <ele>132</ele>
        <time>2015-05-12T13:44:44.000Z</time>
      </trkpt>
      <trkpt lat="50.80558" lon="1.90167">
        <ele>131</ele>
        <time>2015-05-12T13:44:45.000Z</time>
      </trkpt>
      <trkpt lat="50.80557" lon="1.90166">
        <ele>130</ele>
        <time>2015-05-12T13:44:46.000Z</time>
      </trkpt>
      <trkpt lat="50.80555" lon="1.90164">
        <ele>130</ele>
        <time>2015-05-12T13:44:47.000Z</time>
      </trkpt>
      <trkpt lat="50.80555" lon="1.90163">
        <ele>129</ele>
        <time>2015-05-12T13:44:48.000Z</time>
      </trkpt>
      <trkpt lat="50.80554" lon="1.90162">
        <ele>131</ele>
        <time>2015-05-12T13:44:49.000Z</time>
      </trkpt>
      <trkpt lat="50.80554" lon="1.9016">
        <ele>130</ele>
        <time>2015-05-12T13:44:50.000Z</time>
      </trkpt>
      <trkpt lat="50.80553" lon="1.90159">
        <ele>129</ele>
        <time>2015-05-12T13:44:51.000Z</time>
      </trkpt>
      <trkpt lat="50.80553" lon="1.90158">
        <ele>130</ele>
        <time>2015-05-12T13:44:52.000Z</time>
      </trkpt>
      <trkpt lat="50.80554" lon="1.90156">
        <ele>129</ele>
        <time>2015-05-12T13:44:53.000Z</time>
      </trkpt>
      <trkpt lat="50.80554" lon="1.90155">
        <ele>128</ele>
        <time>2015-05-12T13:44:54.000Z</time>
      </trkpt>
      <trkpt lat="50.80554" lon="1.90153">
        <ele>128</ele>
        <time>2015-05-12T13:44:55.000Z</time>
      </trkpt>
      <trkpt lat="50.80553" lon="1.90152">
        <ele>127</ele>
        <time>2015-05-12T13:44:56.000Z</time>
      </trkpt>
      <trkpt lat="50.80553" lon="1.90151">
        <ele>126</ele>
        <time>2015-05-12T13:44:57.000Z</time>
      </trkpt>
      <trkpt lat="50.80553" lon="1.9015">
        <ele>126</ele>
        <time>2015-05-12T13:44:58.000Z</time>
      </trkpt>
      <trkpt lat="50.80552" lon="1.90148">
        <ele>125</ele>
        <time>2015-05-12T13:44:59.000Z</time>
      </trkpt>
      <trkpt lat="50.80551" lon="1.90146">
        <ele>125</ele>
        <time>2015-05-12T13:45:00.000Z</time>
      </trkpt>
      <trkpt lat="50.8055" lon="1.90145">
        <ele>124</ele>
        <time>2015-05-12T13:45:01.000Z</time>
      </trkpt>
      <trkpt lat="50.80549" lon="1.90143">
        <ele>124</ele>
        <time>2015-05-12T13:45:02.000Z</time>
      </trkpt>
      <trkpt lat="50.80548" lon="1.90141">
        <ele>124</ele>
        <time>2015-05-12T13:45:03.000Z</time>
      </trkpt>
      <trkpt lat="50.80547" lon="1.9014">
        <ele>124</ele>
        <time>2015-05-12T13:45:04.000Z</time>
      </trkpt>
      <trkpt lat="50.80547" lon="1.90138">
        <ele>124</ele>
        <time>2015-05-12T13:45:05.000Z</time>
      </trkpt>
      <trkpt lat="50.80546" lon="1.90137">
        <ele>124</ele>
        <time>2015-05-12T13:45:06.000Z</time>
      </trkpt>
      <trkpt lat="50.80546" lon="1.90136">
        <ele>124</ele>
        <time>2015-05-12T13:45:07.000Z</time>
      </trkpt>
      <trkpt lat="50.80545" lon="1.90135">
        <ele>124</ele>
        <time>2015-05-12T13:45:08.000Z</time>
      </trkpt>
      <trkpt lat="50.80545" lon="1.90134">
        <ele>123</ele>
        <time>2015-05-12T13:45:09.000Z</time>
      </trkpt>
      <trkpt lat="50.80545" lon="1.90132">
        <ele>123</ele>
        <time>2015-05-12T13:45:10.000Z</time>
      </trkpt>
      <trkpt lat="50.80544" lon="1.90131">
        <ele>123</ele>
        <time>2015-05-12T13:45:11.000Z</time>
      </trkpt>
      <trkpt lat="50.80543" lon="1.90129">
        <ele>124</ele>
        <time>2015-05-12T13:45:12.000Z</time>
      </trkpt>
      <trkpt lat="50.80542" lon="1.90127">
        <ele>124</ele>
        <time>2015-05-12T13:45:13.000Z</time>
      </trkpt>
      <trkpt lat="50.80542" lon="1.90125">
        <ele>125</ele>
        <time>2015-05-12T13:45:14.000Z</time>
      </trkpt>
      <trkpt lat="50.80541" lon="1.90123">
        <ele>125</ele>
        <time>2015-05-12T13:45:15.000Z</time>
      </trkpt>
      <trkpt lat="50.8054" lon="1.90122">
        <ele>125</ele>
        <time>2015-05-12T13:45:16.000Z</time>
      </trkpt>
      <trkpt lat="50.80539" lon="1.90121">
        <ele>125</ele>
        <time>2015-05-12T13:45:17.000Z</time>
      </trkpt>
      <trkpt lat="50.80538" lon="1.90119">
        <ele>124</ele>
        <time>2015-05-12T13:45:18.000Z</time>
      </trkpt>
      <trkpt lat="50.80538" lon="1.90117">
        <ele>124</ele>
        <time>2015-05-12T13:45:19.000Z</time>
      </trkpt>
      <trkpt lat="50.80537" lon="1.90116">
        <ele>124</ele>
        <time>2015-05-12T13:45:20.000Z</time>
      </trkpt>
      <trkpt lat="50.80537" lon="1.90115">
        <ele>124</ele>
        <time>2015-05-12T13:45:21.000Z</time>
      </trkpt>
      <trkpt lat="50.80536" lon="1.90113">
        <ele>123</ele>
        <time>2015-05-12T13:45:22.000Z</time>
      </trkpt>
      <trkpt lat="50.80535" lon="1.90111">
        <ele>123</ele>
        <time>2015-05-12T13:45:23.000Z</time>
      </trkpt>
      <trkpt lat="50.80534" lon="1.90109">
        <ele>122</ele>
        <time>2015-05-12T13:45:24.000Z</time>
      </trkpt>
      <trkpt lat="50.80533" lon="1.90108">
        <ele>121</ele>
        <time>2015-05-12T13:45:25.000Z</time>
      </trkpt>
      <trkpt lat="50.80533" lon="1.90106">
        <ele>121</ele>
        <time>2015-05-12T13:45:26.000Z</time>
      </trkpt>
      <trkpt lat="50.80532" lon="1.90104">
        <ele>121</ele>
        <time>2015-05-12T13:45:27.000Z</time>
      </trkpt>
      <trkpt lat="50.80532" lon="1.90103">
        <ele>121</ele>
        <time>2015-05-12T13:45:28.000Z</time>
      </trkpt>
      <trkpt lat="50.80532" lon="1.90101">
        <ele>120</ele>
        <time>2015-05-12T13:45:29.000Z</time>
      </trkpt>
      <trkpt lat="50.80532" lon="1.901">
        <ele>120</ele>
        <time>2015-05-12T13:45:30.000Z</time>
      </trkpt>
      <trkpt lat="50.80532" lon="1.90099">
        <ele>119</ele>
        <time>2015-05-12T13:45:31.000Z</time>
      </trkpt>
      <trkpt lat="50.80532" lon="1.90097">
        <ele>119</ele>
        <time>2015-05-12T13:45:32.000Z</time>
      </trkpt>
      <trkpt lat="50.80531" lon="1.90096">
        <ele>120</ele>
        <time>2015-05-12T13:45:33.000Z</time>
      </trkpt>
      <trkpt lat="50.80531" lon="1.90095">
        <ele>119</ele>
        <time>2015-05-12T13:45:34.000Z</time>
      </trkpt>
      <trkpt lat="50.80531" lon="1.90094">
        <ele>120</ele>
        <time>2015-05-12T13:45:35.000Z</time>
      </trkpt>
      <trkpt lat="50.8053" lon="1.90092">
        <ele>120</ele>
        <time>2015-05-12T13:45:36.000Z</time>
      </trkpt>
      <trkpt lat="50.8053" lon="1.90091">
        <ele>121</ele>
        <time>2015-05-12T13:45:37.000Z</time>
      </trkpt>
      <trkpt lat="50.8053" lon="1.9009">
        <ele>122</ele>
        <time>2015-05-12T13:45:38.000Z</time>
      </trkpt>
      <trkpt lat="50.8053" lon="1.90088">
        <ele>122</ele>
        <time>2015-05-12T13:45:39.000Z</time>
      </trkpt>
      <trkpt lat="50.80529" lon="1.90087">
        <ele>122</ele>
        <time>2015-05-12T13:45:40.000Z</time>
      </trkpt>
      <trkpt lat="50.80529" lon="1.90085">
        <ele>123</ele>
        <time>2015-05-12T13:45:41.000Z</time>
      </trkpt>
      <trkpt lat="50.80528" lon="1.90083">
        <ele>124</ele>
        <time>2015-05-12T13:45:42.000Z</time>
      </trkpt>
      <trkpt lat="50.80527" lon="1.90081">
        <ele>124</ele>
        <time>2015-05-12T13:45:43.000Z</time>
      </trkpt>
      <trkpt lat="50.80527" lon="1.9008">
        <ele>124</ele>
        <time>2015-05-12T13:45:44.000Z</time>
      </trkpt>
      <trkpt lat="50.80527" lon="1.90078">
        <ele>124</ele>
        <time>2015-05-12T13:45:45.000Z</time>
      </trkpt>
      <trkpt lat="50.80526" lon="1.90076">
        <ele>124</ele>
        <time>2015-05-12T13:45:46.000Z</time>
      </trkpt>
      <trkpt lat="50.80525" lon="1.90074">
        <ele>123</ele>
        <time>2015-05-12T13:45:47.000Z</time>
      </trkpt>
      <trkpt lat="50.80523" lon="1.90072">
        <ele>124</ele>
        <time>2015-05-12T13:45:48.000Z</time>
      </trkpt>
      <trkpt lat="50.80522" lon="1.9007">
        <ele>124</ele>
        <time>2015-05-12T13:45:49.000Z</time>
      </trkpt>
      <trkpt lat="50.80522" lon="1.90069">
        <ele>123</ele>
        <time>2015-05-12T13:45:50.000Z</time>
      </trkpt>
      <trkpt lat="50.80521" lon="1.90067">
        <ele>123</ele>
        <time>2015-05-12T13:45:51.000Z</time>
      </trkpt>
      <trkpt lat="50.8052" lon="1.90065">
        <ele>123</ele>
        <time>2015-05-12T13:45:52.000Z</time>
      </trkpt>
      <trkpt lat="50.8052" lon="1.90063">
        <ele>122</ele>
        <time>2015-05-12T13:45:53.000Z</time>
      </trkpt>
      <trkpt lat="50.8052" lon="1.90061">
        <ele>122</ele>
        <time>2015-05-12T13:45:54.000Z</time>
      </trkpt>
      <trkpt lat="50.80519" lon="1.9006">
        <ele>123</ele>
        <time>2015-05-12T13:45:55.000Z</time>
      </trkpt>
      <trkpt lat="50.80519" lon="1.90058">
        <ele>122</ele>
        <time>2015-05-12T13:45:56.000Z</time>
      </trkpt>
      <trkpt lat="50.80518" lon="1.90057">
        <ele>122</ele>
        <time>2015-05-12T13:45:57.000Z</time>
      </trkpt>
      <trkpt lat="50.80517" lon="1.90055">
        <ele>121</ele>
        <time>2015-05-12T13:45:58.000Z</time>
      </trkpt>
      <trkpt lat="50.80517" lon="1.90053">
        <ele>121</ele>
        <time>2015-05-12T13:45:59.000Z</time>
      </trkpt>
      <trkpt lat="50.80516" lon="1.90051">
        <ele>122</ele>
        <time>2015-05-12T13:46:00.000Z</time>
      </trkpt>
      <trkpt lat="50.80516" lon="1.9005">
        <ele>122</ele>
        <time>2015-05-12T13:46:01.000Z</time>
      </trkpt>
      <trkpt lat="50.80515" lon="1.90048">
        <ele>121</ele>
        <time>2015-05-12T13:46:02.000Z</time>
      </trkpt>
      <trkpt lat="50.80514" lon="1.90047">
        <ele>121</ele>
        <time>2015-05-12T13:46:03.000Z</time>
      </trkpt>
      <trkpt lat="50.80514" lon="1.90045">
        <ele>120</ele>
        <time>2015-05-12T13:46:04.000Z</time>
      </trkpt>
      <trkpt lat="50.80513" lon="1.90044">
        <ele>121</ele>
        <time>2015-05-12T13:46:05.000Z</time>
      </trkpt>
      <trkpt lat="50.80512" lon="1.90043">
        <ele>121</ele>
        <time>2015-05-12T13:46:06.000Z</time>
      </trkpt>
      <trkpt lat="50.80512" lon="1.90042">
        <ele>121</ele>
        <time>2015-05-12T13:46:07.000Z</time>
      </trkpt>
      <trkpt lat="50.80511" lon="1.90041">
        <ele>121</ele>
        <time>2015-05-12T13:46:08.000Z</time>
      </trkpt>
      <trkpt lat="50.80511" lon="1.9004">
        <ele>122</ele>
        <time>2015-05-12T13:46:09.000Z</time>
      </trkpt>
      <trkpt lat="50.80511" lon="1.90039">
        <ele>122</ele>
        <time>2015-05-12T13:46:10.000Z</time>
      </trkpt>
      <trkpt lat="50.8051" lon="1.90038">
        <ele>122</ele>
        <time>2015-05-12T13:46:11.000Z</time>
      </trkpt>
      <trkpt lat="50.8051" lon="1.90036">
        <ele>122</ele>
        <time>2015-05-12T13:46:12.000Z</time>
      </trkpt>
      <trkpt lat="50.80509" lon="1.90034">
        <ele>123</ele>
        <time>2015-05-12T13:46:13.000Z</time>
      </trkpt>
      <trkpt lat="50.80508" lon="1.90033">
        <ele>124</ele>
        <time>2015-05-12T13:46:14.000Z</time>
      </trkpt>
      <trkpt lat="50.80507" lon="1.90031">
        <ele>125</ele>
        <time>2015-05-12T13:46:15.000Z</time>
      </trkpt>
      <trkpt lat="50.80507" lon="1.9003">
        <ele>125</ele>
        <time>2015-05-12T13:46:16.000Z</time>
      </trkpt>
      <trkpt lat="50.80506" lon="1.90029">
        <ele>124</ele>
        <time>2015-05-12T13:46:17.000Z</time>
      </trkpt>
      <trkpt lat="50.80505" lon="1.90027">
        <ele>125</ele>
        <time>2015-05-12T13:46:18.000Z</time>
      </trkpt>
      <trkpt lat="50.80505" lon="1.90026">
        <ele>124</ele>
        <time>2015-05-12T13:46:19.000Z</time>
      </trkpt>
      <trkpt lat="50.80505" lon="1.90024">
        <ele>124</ele>
        <time>2015-05-12T13:46:20.000Z</time>
      </trkpt>
      <trkpt lat="50.80505" lon="1.90023">
        <ele>124</ele>
        <time>2015-05-12T13:46:21.000Z</time>
      </trkpt>
      <trkpt lat="50.80505" lon="1.90021">
        <ele>123</ele>
        <time>2015-05-12T13:46:22.000Z</time>
      </trkpt>
      <trkpt lat="50.80504" lon="1.90019">
        <ele>123</ele>
        <time>2015-05-12T13:46:23.000Z</time>
      </trkpt>
      <trkpt lat="50.80503" lon="1.90017">
        <ele>123</ele>
        <time>2015-05-12T13:46:24.000Z</time>
      </trkpt>
      <trkpt lat="50.80503" lon="1.90015">
        <ele>123</ele>
        <time>2015-05-12T13:46:25.000Z</time>
      </trkpt>
      <trkpt lat="50.80503" lon="1.90014">
        <ele>122</ele>
        <time>2015-05-12T13:46:26.000Z</time>
      </trkpt>
      <trkpt lat="50.80503" lon="1.90012">
        <ele>122</ele>
        <time>2015-05-12T13:46:27.000Z</time>
      </trkpt>
      <trkpt lat="50.80503" lon="1.9001">
        <ele>122</ele>
        <time>2015-05-12T13:46:28.000Z</time>
      </trkpt>
      <trkpt lat="50.80503" lon="1.90009">
        <ele>123</ele>
        <time>2015-05-12T13:46:29.000Z</time>
      </trkpt>
      <trkpt lat="50.80503" lon="1.90008">
        <ele>123</ele>
        <time>2015-05-12T13:46:30.000Z</time>
      </trkpt>
      <trkpt lat="50.80503" lon="1.90007">
        <ele>122</ele>
        <time>2015-05-12T13:46:31.000Z</time>
      </trkpt>
      <trkpt lat="50.80503" lon="1.90005">
        <ele>122</ele>
        <time>2015-05-12T13:46:32.000Z</time>
      </trkpt>
      <trkpt lat="50.80502" lon="1.90004">
        <ele>123</ele>
        <time>2015-05-12T13:46:33.000Z</time>
      </trkpt>
      <trkpt lat="50.80502" lon="1.90003">
        <ele>122</ele>
        <time>2015-05-12T13:46:34.000Z</time>
      </trkpt>
      <trkpt lat="50.80502" lon="1.90001">
        <ele>123</ele>
        <time>2015-05-12T13:46:35.000Z</time>
      </trkpt>
      <trkpt lat="50.80501" lon="1.9">
        <ele>122</ele>
        <time>2015-05-12T13:46:36.000Z</time>
      </trkpt>
      <trkpt lat="50.805" lon="1.89999">
        <ele>123</ele>
        <time>2015-05-12T13:46:37.000Z</time>
      </trkpt>
      <trkpt lat="50.805" lon="1.89998">
        <ele>122</ele>
        <time>2015-05-12T13:46:38.000Z</time>
      </trkpt>
      <trkpt lat="50.80499" lon="1.89996">
        <ele>123</ele>
        <time>2015-05-12T13:46:39.000Z</time>
      </trkpt>
      <trkpt lat="50.80499" lon="1.89995">
        <ele>122</ele>
        <time>2015-05-12T13:46:40.000Z</time>
      </trkpt>
      <trkpt lat="50.80498" lon="1.89994">
        <ele>122</ele>
        <time>2015-05-12T13:46:41.000Z</time>
      </trkpt>
      <trkpt lat="50.80498" lon="1.89992">
        <ele>122</ele>
        <time>2015-05-12T13:46:42.000Z</time>
      </trkpt>
      <trkpt lat="50.80497" lon="1.89991">
        <ele>122</ele>
        <time>2015-05-12T13:46:43.000Z</time>
      </trkpt>
      <trkpt lat="50.80497" lon="1.8999">
        <ele>121</ele>
        <time>2015-05-12T13:46:44.000Z</time>
      </trkpt>
      <trkpt lat="50.80497" lon="1.89989">
        <ele>121</ele>
        <time>2015-05-12T13:46:45.000Z</time>
      </trkpt>
      <trkpt lat="50.80496" lon="1.89988">
        <ele>121</ele>
        <time>2015-05-12T13:46:46.000Z</time>
      </trkpt>
      <trkpt lat="50.80496" lon="1.89987">
        <ele>122</ele>
        <time>2015-05-12T13:46:47.000Z</time>
      </trkpt>
      <trkpt lat="50.80496" lon="1.89986">
        <ele>121</ele>
        <time>2015-05-12T13:46:48.000Z</time>
      </trkpt>
      <trkpt lat="50.80496" lon="1.89985">
        <ele>121</ele>
        <time>2015-05-12T13:46:49.000Z</time>
      </trkpt>
      <trkpt lat="50.80495" lon="1.89984">
        <ele>122</ele>
        <time>2015-05-12T13:46:50.000Z</time>
      </trkpt>
      <trkpt lat="50.80495" lon="1.89983">
        <ele>121</ele>
        <time>2015-05-12T13:46:51.000Z</time>
      </trkpt>
      <trkpt lat="50.80494" lon="1.89982">
        <ele>122</ele>
        <time>2015-05-12T13:46:52.000Z</time>
      </trkpt>
      <trkpt lat="50.80494" lon="1.89981">
        <ele>122</ele>
        <time>2015-05-12T13:46:53.000Z</time>
      </trkpt>
      <trkpt lat="50.80493" lon="1.8998">
        <ele>122</ele>
        <time>2015-05-12T13:46:54.000Z</time>
      </trkpt>
      <trkpt lat="50.80493" lon="1.89978">
        <ele>122</ele>
        <time>2015-05-12T13:46:55.000Z</time>
      </trkpt>
      <trkpt lat="50.80492" lon="1.89978">
        <ele>123</ele>
        <time>2015-05-12T13:46:56.000Z</time>
      </trkpt>
      <trkpt lat="50.80492" lon="1.89977">
        <ele>123</ele>
        <time>2015-05-12T13:46:57.000Z</time>
      </trkpt>
      <trkpt lat="50.80492" lon="1.89976">
        <ele>123</ele>
        <time>2015-05-12T13:46:58.000Z</time>
      </trkpt>
      <trkpt lat="50.80491" lon="1.89974">
        <ele>123</ele>
        <time>2015-05-12T13:46:59.000Z</time>
      </trkpt>
      <trkpt lat="50.80491" lon="1.89973">
        <ele>123</ele>
        <time>2015-05-12T13:47:00.000Z</time>
      </trkpt>
      <trkpt lat="50.80491" lon="1.89972">
        <ele>123</ele>
        <time>2015-05-12T13:47:01.000Z</time>
      </trkpt>
      <trkpt lat="50.8049" lon="1.89971">
        <ele>122</ele>
        <time>2015-05-12T13:47:02.000Z</time>
      </trkpt>
      <trkpt lat="50.80489" lon="1.8997">
        <ele>123</ele>
        <time>2015-05-12T13:47:03.000Z</time>
      </trkpt>
      <trkpt lat="50.80489" lon="1.89969">
        <ele>123</ele>
        <time>2015-05-12T13:47:04.000Z</time>
      </trkpt>
      <trkpt lat="50.80488" lon="1.89968">
        <ele>124</ele>
        <time>2015-05-12T13:47:05.000Z</time>
      </trkpt>
      <trkpt lat="50.80488" lon="1.89967">
        <ele>124</ele>
        <time>2015-05-12T13:47:06.000Z</time>
      </trkpt>
      <trkpt lat="50.80487" lon="1.89966">
        <ele>124</ele>
        <time>2015-05-12T13:47:07.000Z</time>
      </trkpt>
      <trkpt lat="50.80486" lon="1.89964">
        <ele>124</ele>
        <time>2015-05-12T13:47:08.000Z</time>
      </trkpt>
      <trkpt lat="50.80485" lon="1.89963">
        <ele>124</ele>
        <time>2015-05-12T13:47:09.000Z</time>
      </trkpt>
      <trkpt lat="50.80485" lon="1.89961">
        <ele>125</ele>
        <time>2015-05-12T13:47:10.000Z</time>
      </trkpt>
      <trkpt lat="50.80484" lon="1.8996">
        <ele>125</ele>
        <time>2015-05-12T13:47:11.000Z</time>
      </trkpt>
      <trkpt lat="50.80483" lon="1.89959">
        <ele>126</ele>
        <time>2015-05-12T13:47:12.000Z</time>
      </trkpt>
      <trkpt lat="50.80482" lon="1.89957">
        <ele>126</ele>
        <time>2015-05-12T13:47:13.000Z</time>
      </trkpt>
      <trkpt lat="50.80481" lon="1.89956">
        <ele>126</ele>
        <time>2015-05-12T13:47:14.000Z</time>
      </trkpt>
      <trkpt lat="50.80481" lon="1.89954">
        <ele>126</ele>
        <time>2015-05-12T13:47:15.000Z</time>
      </trkpt>
      <trkpt lat="50.8048" lon="1.89953">
        <ele>126</ele>
        <time>2015-05-12T13:47:16.000Z</time>
      </trkpt>
      <trkpt lat="50.8048" lon="1.89952">
        <ele>126</ele>
        <time>2015-05-12T13:47:17.000Z</time>
      </trkpt>
      <trkpt lat="50.80479" lon="1.8995">
        <ele>125</ele>
        <time>2015-05-12T13:47:18.000Z</time>
      </trkpt>
      <trkpt lat="50.80478" lon="1.89948">
        <ele>125</ele>
        <time>2015-05-12T13:47:19.000Z</time>
      </trkpt>
      <trkpt lat="50.80477" lon="1.89946">
        <ele>125</ele>
        <time>2015-05-12T13:47:20.000Z</time>
      </trkpt>
      <trkpt lat="50.80477" lon="1.89945">
        <ele>125</ele>
        <time>2015-05-12T13:47:21.000Z</time>
      </trkpt>
      <trkpt lat="50.80477" lon="1.89944">
        <ele>125</ele>
        <time>2015-05-12T13:47:22.000Z</time>
      </trkpt>
      <trkpt lat="50.80476" lon="1.89943">
        <ele>125</ele>
        <time>2015-05-12T13:47:23.000Z</time>
      </trkpt>
      <trkpt lat="50.80476" lon="1.89942">
        <ele>126</ele>
        <time>2015-05-12T13:47:24.000Z</time>
      </trkpt>
      <trkpt lat="50.80475" lon="1.89941">
        <ele>125</ele>
        <time>2015-05-12T13:47:25.000Z</time>
      </trkpt>
      <trkpt lat="50.80474" lon="1.89939">
        <ele>126</ele>
        <time>2015-05-12T13:47:26.000Z</time>
      </trkpt>
      <trkpt lat="50.80474" lon="1.89938">
        <ele>126</ele>
        <time>2015-05-12T13:47:27.000Z</time>
      </trkpt>
      <trkpt lat="50.80473" lon="1.89937">
        <ele>126</ele>
        <time>2015-05-12T13:47:28.000Z</time>
      </trkpt>
      <trkpt lat="50.80472" lon="1.89936">
        <ele>127</ele>
        <time>2015-05-12T13:47:29.000Z</time>
      </trkpt>
      <trkpt lat="50.80471" lon="1.89935">
        <ele>128</ele>
        <time>2015-05-12T13:47:30.000Z</time>
      </trkpt>
      <trkpt lat="50.8047" lon="1.89934">
        <ele>128</ele>
        <time>2015-05-12T13:47:31.000Z</time>
      </trkpt>
      <trkpt lat="50.80469" lon="1.89932">
        <ele>128</ele>
        <time>2015-05-12T13:47:32.000Z</time>
      </trkpt>
      <trkpt lat="50.80468" lon="1.89931">
        <ele>128</ele>
        <time>2015-05-12T13:47:33.000Z</time>
      </trkpt>
      <trkpt lat="50.80468" lon="1.8993">
        <ele>128</ele>
        <time>2015-05-12T13:47:34.000Z</time>
      </trkpt>
      <trkpt lat="50.80467" lon="1.89928">
        <ele>127</ele>
        <time>2015-05-12T13:47:35.000Z</time>
      </trkpt>
      <trkpt lat="50.80467" lon="1.89927">
        <ele>127</ele>
        <time>2015-05-12T13:47:36.000Z</time>
      </trkpt>
      <trkpt lat="50.80466" lon="1.89926">
        <ele>127</ele>
        <time>2015-05-12T13:47:37.000Z</time>
      </trkpt>
      <trkpt lat="50.80466" lon="1.89924">
        <ele>127</ele>
        <time>2015-05-12T13:47:38.000Z</time>
      </trkpt>
      <trkpt lat="50.80466" lon="1.89923">
        <ele>127</ele>
        <time>2015-05-12T13:47:39.000Z</time>
      </trkpt>
      <trkpt lat="50.80466" lon="1.89922">
        <ele>127</ele>
        <time>2015-05-12T13:47:40.000Z</time>
      </trkpt>
      <trkpt lat="50.80466" lon="1.89921">
        <ele>127</ele>
        <time>2015-05-12T13:47:41.000Z</time>
      </trkpt>
      <trkpt lat="50.80465" lon="1.8992">
        <ele>127</ele>
        <time>2015-05-12T13:47:42.000Z</time>
      </trkpt>
      <trkpt lat="50.80465" lon="1.89918">
        <ele>127</ele>
        <time>2015-05-12T13:47:43.000Z</time>
      </trkpt>
      <trkpt lat="50.80464" lon="1.89917">
        <ele>128</ele>
        <time>2015-05-12T13:47:44.000Z</time>
      </trkpt>
      <trkpt lat="50.80464" lon="1.89916">
        <ele>128</ele>
        <time>2015-05-12T13:47:45.000Z</time>
      </trkpt>
      <trkpt lat="50.80463" lon="1.89915">
        <ele>128</ele>
        <time>2015-05-12T13:47:46.000Z</time>
      </trkpt>
      <trkpt lat="50.80462" lon="1.89914">
        <ele>128</ele>
        <time>2015-05-12T13:47:47.000Z</time>
      </trkpt>
      <trkpt lat="50.80461" lon="1.89912">
        <ele>128</ele>
        <time>2015-05-12T13:47:48.000Z</time>
      </trkpt>
      <trkpt lat="50.80461" lon="1.89911">
        <ele>129</ele>
        <time>2015-05-12T13:47:49.000Z</time>
      </trkpt>
      <trkpt lat="50.80461" lon="1.8991">
        <ele>130</ele>
        <time>2015-05-12T13:47:50.000Z</time>
      </trkpt>
      <trkpt lat="50.8046" lon="1.89909">
        <ele>130</ele>
        <time>2015-05-12T13:47:51.000Z</time>
      </trkpt>
      <trkpt lat="50.8046" lon="1.89908">
        <ele>130</ele>
        <time>2015-05-12T13:47:52.000Z</time>
      </trkpt>
      <trkpt lat="50.80459" lon="1.89906">
        <ele>130</ele>
        <time>2015-05-12T13:47:53.000Z</time>
      </trkpt>
      <trkpt lat="50.80459" lon="1.89905">
        <ele>130</ele>
        <time>2015-05-12T13:47:54.000Z</time>
      </trkpt>
      <trkpt lat="50.80458" lon="1.89904">
        <ele>130</ele>
        <time>2015-05-12T13:47:55.000Z</time>
      </trkpt>
      <trkpt lat="50.80457" lon="1.89902">
        <ele>130</ele>
        <time>2015-05-12T13:47:56.000Z</time>
      </trkpt>
      <trkpt lat="50.80457" lon="1.89901">
        <ele>131</ele>
        <time>2015-05-12T13:47:57.000Z</time>
      </trkpt>
      <trkpt lat="50.80456" lon="1.899">
        <ele>130</ele>
        <time>2015-05-12T13:47:58.000Z</time>
      </trkpt>
      <trkpt lat="50.80455" lon="1.89898">
        <ele>130</ele>
        <time>2015-05-12T13:47:59.000Z</time>
      </trkpt>
      <trkpt lat="50.80455" lon="1.89897">
        <ele>129</ele>
        <time>2015-05-12T13:48:00.000Z</time>
      </trkpt>
      <trkpt lat="50.80454" lon="1.89896">
        <ele>129</ele>
        <time>2015-05-12T13:48:01.000Z</time>
      </trkpt>
      <trkpt lat="50.80454" lon="1.89895">
        <ele>129</ele>
        <time>2015-05-12T13:48:02.000Z</time>
      </trkpt>
      <trkpt lat="50.80454" lon="1.89894">
        <ele>129</ele>
        <time>2015-05-12T13:48:03.000Z</time>
      </trkpt>
      <trkpt lat="50.80454" lon="1.89893">
        <ele>128</ele>
        <time>2015-05-12T13:48:04.000Z</time>
      </trkpt>
      <trkpt lat="50.80453" lon="1.89891">
        <ele>127</ele>
        <time>2015-05-12T13:48:05.000Z</time>
      </trkpt>
      <trkpt lat="50.80453" lon="1.8989">
        <ele>127</ele>
        <time>2015-05-12T13:48:06.000Z</time>
      </trkpt>
      <trkpt lat="50.80452" lon="1.89888">
        <ele>127</ele>
        <time>2015-05-12T13:48:07.000Z</time>
      </trkpt>
      <trkpt lat="50.80452" lon="1.89887">
        <ele>127</ele>
        <time>2015-05-12T13:48:08.000Z</time>
      </trkpt>
      <trkpt lat="50.80451" lon="1.89885">
        <ele>127</ele>
        <time>2015-05-12T13:48:09.000Z</time>
      </trkpt>
      <trkpt lat="50.8045" lon="1.89884">
        <ele>126</ele>
        <time>2015-05-12T13:48:10.000Z</time>
      </trkpt>
      <trkpt lat="50.8045" lon="1.89883">
        <ele>126</ele>
        <time>2015-05-12T13:48:11.000Z</time>
      </trkpt>
      <trkpt lat="50.80449" lon="1.89882">
        <ele>126</ele>
        <time>2015-05-12T13:48:12.000Z</time>
      </trkpt>
      <trkpt lat="50.80449" lon="1.89881">
        <ele>127</ele>
        <time>2015-05-12T13:48:13.000Z</time>
      </trkpt>
      <trkpt lat="50.80448" lon="1.8988">
        <ele>127</ele>
        <time>2015-05-12T13:48:14.000Z</time>
      </trkpt>
      <trkpt lat="50.80447" lon="1.89879">
        <ele>127</ele>
        <time>2015-05-12T13:48:15.000Z</time>
      </trkpt>
      <trkpt lat="50.80447" lon="1.89878">
        <ele>127</ele>
        <time>2015-05-12T13:48:16.000Z</time>
      </trkpt>
      <trkpt lat="50.80446" lon="1.89877">
        <ele>127</ele>
        <time>2015-05-12T13:48:17.000Z</time>
      </trkpt>
      <trkpt lat="50.80445" lon="1.89876">
        <ele>128</ele>
        <time>2015-05-12T13:48:18.000Z</time>
      </trkpt>
      <trkpt lat="50.80444" lon="1.89874">
        <ele>129</ele>
        <time>2015-05-12T13:48:19.000Z</time>
      </trkpt>
      <trkpt lat="50.80443" lon="1.89873">
        <ele>129</ele>
        <time>2015-05-12T13:48:20.000Z</time>
      </trkpt>
      <trkpt lat="50.80442" lon="1.89872">
        <ele>130</ele>
        <time>2015-05-12T13:48:21.000Z</time>
      </trkpt>
      <trkpt lat="50.80441" lon="1.8987">
        <ele>131</ele>
        <time>2015-05-12T13:48:22.000Z</time>
      </trkpt>
      <trkpt lat="50.80441" lon="1.89869">
        <ele>131</ele>
        <time>2015-05-12T13:48:23.000Z</time>
      </trkpt>
      <trkpt lat="50.8044" lon="1.89868">
        <ele>132</ele>
        <time>2015-05-12T13:48:24.000Z</time>
      </trkpt>
      <trkpt lat="50.80439" lon="1.89867">
        <ele>132</ele>
        <time>2015-05-12T13:48:25.000Z</time>
      </trkpt>
      <trkpt lat="50.80438" lon="1.89866">
        <ele>134</ele>
        <time>2015-05-12T13:48:26.000Z</time>
      </trkpt>
      <trkpt lat="50.80437" lon="1.89864">
        <ele>134</ele>
        <time>2015-05-12T13:48:27.000Z</time>
      </trkpt>
      <trkpt lat="50.80436" lon="1.89863">
        <ele>133</ele>
        <time>2015-05-12T13:48:28.000Z</time>
      </trkpt>
      <trkpt lat="50.80436" lon="1.89862">
        <ele>134</ele>
        <time>2015-05-12T13:48:29.000Z</time>
      </trkpt>
      <trkpt lat="50.80435" lon="1.89861">
        <ele>134</ele>
        <time>2015-05-12T13:48:30.000Z</time>
      </trkpt>
      <trkpt lat="50.80435" lon="1.8986">
        <ele>134</ele>
        <time>2015-05-12T13:48:31.000Z</time>
      </trkpt>
      <trkpt lat="50.80434" lon="1.89858">
        <ele>134</ele>
        <time>2015-05-12T13:48:32.000Z</time>
      </trkpt>
      <trkpt lat="50.80434" lon="1.89857">
        <ele>134</ele>
        <time>2015-05-12T13:48:33.000Z</time>
      </trkpt>
      <trkpt lat="50.80433" lon="1.89856">
        <ele>134</ele>
        <time>2015-05-12T13:48:34.000Z</time>
      </trkpt>
      <trkpt lat="50.80433" lon="1.89855">
        <ele>134</ele>
        <time>2015-05-12T13:48:35.000Z</time>
      </trkpt>
      <trkpt lat="50.80432" lon="1.89854">
        <ele>134</ele>
        <time>2015-05-12T13:48:36.000Z</time>
      </trkpt>
      <trkpt lat="50.80432" lon="1.89853">
        <ele>135</ele>
        <time>2015-05-12T13:48:37.000Z</time>
      </trkpt>
      <trkpt lat="50.80431" lon="1.89852">
        <ele>135</ele>
        <time>2015-05-12T13:48:38.000Z</time>
      </trkpt>
      <trkpt lat="50.80431" lon="1.89851">
        <ele>136</ele>
        <time>2015-05-12T13:48:39.000Z</time>
      </trkpt>
      <trkpt lat="50.8043" lon="1.89849">
        <ele>136</ele>
        <time>2015-05-12T13:48:40.000Z</time>
      </trkpt>
      <trkpt lat="50.8043" lon="1.89848">
        <ele>135</ele>
        <time>2015-05-12T13:48:41.000Z</time>
      </trkpt>
      <trkpt lat="50.80429" lon="1.89846">
        <ele>135</ele>
        <time>2015-05-12T13:48:42.000Z</time>
      </trkpt>
      <trkpt lat="50.80429" lon="1.89845">
        <ele>136</ele>
        <time>2015-05-12T13:48:43.000Z</time>
      </trkpt>
      <trkpt lat="50.80429" lon="1.89844">
        <ele>135</ele>
        <time>2015-05-12T13:48:44.000Z</time>
      </trkpt>
      <trkpt lat="50.80429" lon="1.89843">
        <ele>135</ele>
        <time>2015-05-12T13:48:45.000Z</time>
      </trkpt>
      <trkpt lat="50.80429" lon="1.89842">
        <ele>135</ele>
        <time>2015-05-12T13:48:46.000Z</time>
      </trkpt>
      <trkpt lat="50.80428" lon="1.8984">
        <ele>135</ele>
        <time>2015-05-12T13:48:47.000Z</time>
      </trkpt>
      <trkpt lat="50.80428" lon="1.89839">
        <ele>134</ele>
        <time>2015-05-12T13:48:48.000Z</time>
      </trkpt>
      <trkpt lat="50.80427" lon="1.89837">
        <ele>134</ele>
        <time>2015-05-12T13:48:49.000Z</time>
      </trkpt>
      <trkpt lat="50.80427" lon="1.89836">
        <ele>133</ele>
        <time>2015-05-12T13:48:50.000Z</time>
      </trkpt>
      <trkpt lat="50.80426" lon="1.89835">
        <ele>133</ele>
        <time>2015-05-12T13:48:51.000Z</time>
      </trkpt>
      <trkpt lat="50.80426" lon="1.89834">
        <ele>133</ele>
        <time>2015-05-12T13:48:52.000Z</time>
      </trkpt>
      <trkpt lat="50.80425" lon="1.89833">
        <ele>133</ele>
        <time>2015-05-12T13:48:53.000Z</time>
      </trkpt>
      <trkpt lat="50.80424" lon="1.89831">
        <ele>132</ele>
        <time>2015-05-12T13:48:54.000Z</time>
      </trkpt>
      <trkpt lat="50.80424" lon="1.8983">
        <ele>132</ele>
        <time>2015-05-12T13:48:55.000Z</time>
      </trkpt>
      <trkpt lat="50.80423" lon="1.89829">
        <ele>133</ele>
        <time>2015-05-12T13:48:56.000Z</time>
      </trkpt>
      <trkpt lat="50.80422" lon="1.89827">
        <ele>133</ele>
        <time>2015-05-12T13:48:57.000Z</time>
      </trkpt>
      <trkpt lat="50.80422" lon="1.89826">
        <ele>133</ele>
        <time>2015-05-12T13:48:58.000Z</time>
      </trkpt>
      <trkpt lat="50.80421" lon="1.89825">
        <ele>132</ele>
        <time>2015-05-12T13:48:59.000Z</time>
      </trkpt>
      <trkpt lat="50.80421" lon="1.89824">
        <ele>132</ele>
        <time>2015-05-12T13:49:00.000Z</time>
      </trkpt>
      <trkpt lat="50.8042" lon="1.89822">
        <ele>133</ele>
        <time>2015-05-12T13:49:01.000Z</time>
      </trkpt>
      <trkpt lat="50.80419" lon="1.89821">
        <ele>133</ele>
        <time>2015-05-12T13:49:02.000Z</time>
      </trkpt>
      <trkpt lat="50.80419" lon="1.8982">
        <ele>133</ele>
        <time>2015-05-12T13:49:03.000Z</time>
      </trkpt>
      <trkpt lat="50.80418" lon="1.89819">
        <ele>133</ele>
        <time>2015-05-12T13:49:04.000Z</time>
      </trkpt>
      <trkpt lat="50.80418" lon="1.89817">
        <ele>133</ele>
        <time>2015-05-12T13:49:05.000Z</time>
      </trkpt>
      <trkpt lat="50.80417" lon="1.89816">
        <ele>134</ele>
        <time>2015-05-12T13:49:06.000Z</time>
      </trkpt>
      <trkpt lat="50.80416" lon="1.89815">
        <ele>133</ele>
        <time>2015-05-12T13:49:07.000Z</time>
      </trkpt>
      <trkpt lat="50.80416" lon="1.89813">
        <ele>133</ele>
        <time>2015-05-12T13:49:08.000Z</time>
      </trkpt>
      <trkpt lat="50.80415" lon="1.89812">
        <ele>134</ele>
        <time>2015-05-12T13:49:09.000Z</time>
      </trkpt>
      <trkpt lat="50.80414" lon="1.89811">
        <ele>133</ele>
        <time>2015-05-12T13:49:10.000Z</time>
      </trkpt>
      <trkpt lat="50.80414" lon="1.8981">
        <ele>133</ele>
        <time>2015-05-12T13:49:11.000Z</time>
      </trkpt>
      <trkpt lat="50.80413" lon="1.89809">
        <ele>133</ele>
        <time>2015-05-12T13:49:12.000Z</time>
      </trkpt>
      <trkpt lat="50.80413" lon="1.89808">
        <ele>133</ele>
        <time>2015-05-12T13:49:13.000Z</time>
      </trkpt>
      <trkpt lat="50.80413" lon="1.89807">
        <ele>133</ele>
        <time>2015-05-12T13:49:14.000Z</time>
      </trkpt>
      <trkpt lat="50.80413" lon="1.89806">
        <ele>134</ele>
        <time>2015-05-12T13:49:15.000Z</time>
      </trkpt>
      <trkpt lat="50.80413" lon="1.89806">
        <ele>134</ele>
        <time>2015-05-12T13:49:16.000Z</time>
      </trkpt>
      <trkpt lat="50.80413" lon="1.89805">
        <ele>135</ele>
        <time>2015-05-12T13:49:17.000Z</time>
      </trkpt>
      <trkpt lat="50.80413" lon="1.89805">
        <ele>134</ele>
        <time>2015-05-12T13:49:18.000Z</time>
      </trkpt>
      <trkpt lat="50.80413" lon="1.89804">
        <ele>135</ele>
        <time>2015-05-12T13:49:19.000Z</time>
      </trkpt>
      <trkpt lat="50.80413" lon="1.89803">
        <ele>135</ele>
        <time>2015-05-12T13:49:20.000Z</time>
      </trkpt>
      <trkpt lat="50.80413" lon="1.89803">
        <ele>135</ele>
        <time>2015-05-12T13:49:21.000Z</time>
      </trkpt>
      <trkpt lat="50.80413" lon="1.89802">
        <ele>134</ele>
        <time>2015-05-12T13:49:22.000Z</time>
      </trkpt>
      <trkpt lat="50.80413" lon="1.89802">
        <ele>134</ele>
        <time>2015-05-12T13:49:23.000Z</time>
      </trkpt>
      <trkpt lat="50.80413" lon="1.89801">
        <ele>135</ele>
        <time>2015-05-12T13:49:24.000Z</time>
      </trkpt>
      <trkpt lat="50.80412" lon="1.898">
        <ele>137</ele>
        <time>2015-05-12T13:49:25.000Z</time>
      </trkpt>
      <trkpt lat="50.80412" lon="1.89799">
        <ele>137</ele>
        <time>2015-05-12T13:49:26.000Z</time>
      </trkpt>
      <trkpt lat="50.80411" lon="1.89798">
        <ele>137</ele>
        <time>2015-05-12T13:49:27.000Z</time>
      </trkpt>
      <trkpt lat="50.80411" lon="1.89797">
        <ele>136</ele>
        <time>2015-05-12T13:49:28.000Z</time>
      </trkpt>
      <trkpt lat="50.8041" lon="1.89796">
        <ele>136</ele>
        <time>2015-05-12T13:49:29.000Z</time>
      </trkpt>
      <trkpt lat="50.8041" lon="1.89795">
        <ele>136</ele>
        <time>2015-05-12T13:49:30.000Z</time>
      </trkpt>
      <trkpt lat="50.80409" lon="1.89794">
        <ele>135</ele>
        <time>2015-05-12T13:49:31.000Z</time>
      </trkpt>
      <trkpt lat="50.80409" lon="1.89794">
        <ele>135</ele>
        <time>2015-05-12T13:49:32.000Z</time>
      </trkpt>
      <trkpt lat="50.80409" lon="1.89793">
        <ele>135</ele>
        <time>2015-05-12T13:49:33.000Z</time>
      </trkpt>
      <trkpt lat="50.80409" lon="1.89793">
        <ele>135</ele>
        <time>2015-05-12T13:49:34.000Z</time>
      </trkpt>
      <trkpt lat="50.80409" lon="1.89793">
        <ele>135</ele>
        <time>2015-05-12T13:49:35.000Z</time>
      </trkpt>
      <trkpt lat="50.80409" lon="1.89793">
        <ele>135</ele>
        <time>2015-05-12T13:49:36.000Z</time>
      </trkpt>
      <trkpt lat="50.80409" lon="1.89793">
        <ele>135</ele>
        <time>2015-05-12T13:49:37.000Z</time>
      </trkpt>
      <trkpt lat="50.80408" lon="1.89793">
        <ele>135</ele>
        <time>2015-05-12T13:49:38.000Z</time>
      </trkpt>
      <trkpt lat="50.80408" lon="1.89793">
        <ele>136</ele>
        <time>2015-05-12T13:49:39.000Z</time>
      </trkpt>
      <trkpt lat="50.80408" lon="1.89793">
        <ele>136</ele>
        <time>2015-05-12T13:49:40.000Z</time>
      </trkpt>
      <trkpt lat="50.80408" lon="1.89793">
        <ele>135</ele>
        <time>2015-05-12T13:49:41.000Z</time>
      </trkpt>
      <trkpt lat="50.80408" lon="1.89793">
        <ele>136</ele>
        <time>2015-05-12T13:49:42.000Z</time>
      </trkpt>
      <trkpt lat="50.80408" lon="1.89793">
        <ele>136</ele>
        <time>2015-05-12T13:49:43.000Z</time>
      </trkpt>
      <trkpt lat="50.80408" lon="1.89793">
        <ele>136</ele>
        <time>2015-05-12T13:49:44.000Z</time>
      </trkpt>
      <trkpt lat="50.80408" lon="1.89793">
        <ele>135</ele>
        <time>2015-05-12T13:49:45.000Z</time>
      </trkpt>
      <trkpt lat="50.80408" lon="1.89793">
        <ele>136</ele>
        <time>2015-05-12T13:49:46.000Z</time>
      </trkpt>
      <trkpt lat="50.80408" lon="1.89793">
        <ele>135</ele>
        <time>2015-05-12T13:49:47.000Z</time>
      </trkpt>
      <trkpt lat="50.80408" lon="1.89792">
        <ele>135</ele>
        <time>2015-05-12T13:49:48.000Z</time>
      </trkpt>
      <trkpt lat="50.80408" lon="1.89793">
        <ele>136</ele>
        <time>2015-05-12T13:49:49.000Z</time>
      </trkpt>
      <trkpt lat="50.80408" lon="1.89793">
        <ele>136</ele>
        <time>2015-05-12T13:49:50.000Z</time>
      </trkpt>
      <trkpt lat="50.80408" lon="1.89792">
        <ele>136</ele>
        <time>2015-05-12T13:49:51.000Z</time>
      </trkpt>
      <trkpt lat="50.80407" lon="1.89792">
        <ele>135</ele>
        <time>2015-05-12T13:49:52.000Z</time>
      </trkpt>
      <trkpt lat="50.80407" lon="1.89792">
        <ele>136</ele>
        <time>2015-05-12T13:49:53.000Z</time>
      </trkpt>
      <trkpt lat="50.80407" lon="1.89792">
        <ele>135</ele>
        <time>2015-05-12T13:49:54.000Z</time>
      </trkpt>
      <trkpt lat="50.80407" lon="1.89792">
        <ele>135</ele>
        <time>2015-05-12T13:49:55.000Z</time>
      </trkpt>
      <trkpt lat="50.80406" lon="1.89792">
        <ele>136</ele>
        <time>2015-05-12T13:49:56.000Z</time>
      </trkpt>
      <trkpt lat="50.80406" lon="1.89792">
        <ele>136</ele>
        <time>2015-05-12T13:49:57.000Z</time>
      </trkpt>
      <trkpt lat="50.80406" lon="1.89791">
        <ele>136</ele>
        <time>2015-05-12T13:49:58.000Z</time>
      </trkpt>
      <trkpt lat="50.80406" lon="1.89791">
        <ele>136</ele>
        <time>2015-05-12T13:49:59.000Z</time>
      </trkpt>
      <trkpt lat="50.80406" lon="1.89791">
        <ele>137</ele>
        <time>2015-05-12T13:50:00.000Z</time>
      </trkpt>
      <trkpt lat="50.80405" lon="1.89791">
        <ele>137</ele>
        <time>2015-05-12T13:50:01.000Z</time>
      </trkpt>
      <trkpt lat="50.80405" lon="1.89791">
        <ele>137</ele>
        <time>2015-05-12T13:50:02.000Z</time>
      </trkpt>
      <trkpt lat="50.80405" lon="1.89791">
        <ele>138</ele>
        <time>2015-05-12T13:50:03.000Z</time>
      </trkpt>
      <trkpt lat="50.80405" lon="1.89791">
        <ele>137</ele>
        <time>2015-05-12T13:50:04.000Z</time>
      </trkpt>
      <trkpt lat="50.80405" lon="1.89791">
        <ele>139</ele>
        <time>2015-05-12T13:50:05.000Z</time>
      </trkpt>
      <trkpt lat="50.80405" lon="1.89791">
        <ele>138</ele>
        <time>2015-05-12T13:50:06.000Z</time>
      </trkpt>
      <trkpt lat="50.80405" lon="1.89792">
        <ele>138</ele>
        <time>2015-05-12T13:50:07.000Z</time>
      </trkpt>
      <trkpt lat="50.80405" lon="1.89791">
        <ele>139</ele>
        <time>2015-05-12T13:50:08.000Z</time>
      </trkpt>
      <trkpt lat="50.80406" lon="1.89791">
        <ele>138</ele>
        <time>2015-05-12T13:50:09.000Z</time>
      </trkpt>
      <trkpt lat="50.80405" lon="1.89791">
        <ele>138</ele>
        <time>2015-05-12T13:50:10.000Z</time>
      </trkpt>
      <trkpt lat="50.80405" lon="1.89792">
        <ele>138</ele>
        <time>2015-05-12T13:50:11.000Z</time>
      </trkpt>
      <trkpt lat="50.80405" lon="1.89792">
        <ele>138</ele>
        <time>2015-05-12T13:50:12.000Z</time>
      </trkpt>
      <trkpt lat="50.80404" lon="1.89792">
        <ele>138</ele>
        <time>2015-05-12T13:50:13.000Z</time>
      </trkpt>
      <trkpt lat="50.80404" lon="1.89791">
        <ele>137</ele>
        <time>2015-05-12T13:50:14.000Z</time>
      </trkpt>
      <trkpt lat="50.80404" lon="1.89791">
        <ele>137</ele>
        <time>2015-05-12T13:50:15.000Z</time>
      </trkpt>
      <trkpt lat="50.80404" lon="1.89791">
        <ele>137</ele>
        <time>2015-05-12T13:50:16.000Z</time>
      </trkpt>
      <trkpt lat="50.80404" lon="1.8979">
        <ele>136</ele>
        <time>2015-05-12T13:50:17.000Z</time>
      </trkpt>
      <trkpt lat="50.80403" lon="1.8979">
        <ele>136</ele>
        <time>2015-05-12T13:50:18.000Z</time>
      </trkpt>
      <trkpt lat="50.80403" lon="1.89789">
        <ele>135</ele>
        <time>2015-05-12T13:50:19.000Z</time>
      </trkpt>
      <trkpt lat="50.80403" lon="1.89789">
        <ele>135</ele>
        <time>2015-05-12T13:50:20.000Z</time>
      </trkpt>
      <trkpt lat="50.80403" lon="1.89788">
        <ele>135</ele>
        <time>2015-05-12T13:50:21.000Z</time>
      </trkpt>
      <trkpt lat="50.80403" lon="1.89788">
        <ele>136</ele>
        <time>2015-05-12T13:50:22.000Z</time>
      </trkpt>
      <trkpt lat="50.80403" lon="1.89788">
        <ele>136</ele>
        <time>2015-05-12T13:50:23.000Z</time>
      </trkpt>
      <trkpt lat="50.80403" lon="1.89787">
        <ele>136</ele>
        <time>2015-05-12T13:50:24.000Z</time>
      </trkpt>
      <trkpt lat="50.80403" lon="1.89787">
        <ele>135</ele>
        <time>2015-05-12T13:50:25.000Z</time>
      </trkpt>
      <trkpt lat="50.80403" lon="1.89786">
        <ele>135</ele>
        <time>2015-05-12T13:50:26.000Z</time>
      </trkpt>
      <trkpt lat="50.80403" lon="1.89785">
        <ele>135</ele>
        <time>2015-05-12T13:50:27.000Z</time>
      </trkpt>
      <trkpt lat="50.80403" lon="1.89784">
        <ele>135</ele>
        <time>2015-05-12T13:50:28.000Z</time>
      </trkpt>
      <trkpt lat="50.80403" lon="1.89783">
        <ele>135</ele>
        <time>2015-05-12T13:50:29.000Z</time>
      </trkpt>
      <trkpt lat="50.80403" lon="1.89782">
        <ele>135</ele>
        <time>2015-05-12T13:50:30.000Z</time>
      </trkpt>
      <trkpt lat="50.80403" lon="1.89781">
        <ele>135</ele>
        <time>2015-05-12T13:50:31.000Z</time>
      </trkpt>
      <trkpt lat="50.80402" lon="1.8978">
        <ele>135</ele>
        <time>2015-05-12T13:50:32.000Z</time>
      </trkpt>
      <trkpt lat="50.80402" lon="1.89779">
        <ele>135</ele>
        <time>2015-05-12T13:50:33.000Z</time>
      </trkpt>
      <trkpt lat="50.80401" lon="1.89778">
        <ele>135</ele>
        <time>2015-05-12T13:50:34.000Z</time>
      </trkpt>
      <trkpt lat="50.80401" lon="1.89778">
        <ele>134</ele>
        <time>2015-05-12T13:50:35.000Z</time>
      </trkpt>
      <trkpt lat="50.804" lon="1.89777">
        <ele>135</ele>
        <time>2015-05-12T13:50:36.000Z</time>
      </trkpt>
      <trkpt lat="50.804" lon="1.89776">
        <ele>135</ele>
        <time>2015-05-12T13:50:37.000Z</time>
      </trkpt>
      <trkpt lat="50.804" lon="1.89776">
        <ele>135</ele>
        <time>2015-05-12T13:50:38.000Z</time>
      </trkpt>
      <trkpt lat="50.80399" lon="1.89775">
        <ele>135</ele>
        <time>2015-05-12T13:50:39.000Z</time>
      </trkpt>
      <trkpt lat="50.80399" lon="1.89774">
        <ele>135</ele>
        <time>2015-05-12T13:50:40.000Z</time>
      </trkpt>
      <trkpt lat="50.80399" lon="1.89772">
        <ele>135</ele>
        <time>2015-05-12T13:50:41.000Z</time>
      </trkpt>
      <trkpt lat="50.80398" lon="1.8977">
        <ele>135</ele>
        <time>2015-05-12T13:50:42.000Z</time>
      </trkpt>
      <trkpt lat="50.80398" lon="1.89769">
        <ele>134</ele>
        <time>2015-05-12T13:50:43.000Z</time>
      </trkpt>
      <trkpt lat="50.80397" lon="1.89767">
        <ele>134</ele>
        <time>2015-05-12T13:50:44.000Z</time>
      </trkpt>
      <trkpt lat="50.80397" lon="1.89766">
        <ele>134</ele>
        <time>2015-05-12T13:50:45.000Z</time>
      </trkpt>
      <trkpt lat="50.80396" lon="1.89765">
        <ele>135</ele>
        <time>2015-05-12T13:50:46.000Z</time>
      </trkpt>
      <trkpt lat="50.80395" lon="1.89764">
        <ele>135</ele>
        <time>2015-05-12T13:50:47.000Z</time>
      </trkpt>
      <trkpt lat="50.80395" lon="1.89762">
        <ele>135</ele>
        <time>2015-05-12T13:50:48.000Z</time>
      </trkpt>
      <trkpt lat="50.80394" lon="1.89761">
        <ele>135</ele>
        <time>2015-05-12T13:50:49.000Z</time>
      </trkpt>
      <trkpt lat="50.80394" lon="1.89759">
        <ele>135</ele>
        <time>2015-05-12T13:50:50.000Z</time>
      </trkpt>
      <trkpt lat="50.80393" lon="1.89758">
        <ele>135</ele>
        <time>2015-05-12T13:50:51.000Z</time>
      </trkpt>
      <trkpt lat="50.80393" lon="1.89757">
        <ele>136</ele>
        <time>2015-05-12T13:50:52.000Z</time>
      </trkpt>
      <trkpt lat="50.80393" lon="1.89756">
        <ele>136</ele>
        <time>2015-05-12T13:50:53.000Z</time>
      </trkpt>
      <trkpt lat="50.80393" lon="1.89754">
        <ele>137</ele>
        <time>2015-05-12T13:50:54.000Z</time>
      </trkpt>
      <trkpt lat="50.80392" lon="1.89753">
        <ele>137</ele>
        <time>2015-05-12T13:50:55.000Z</time>
      </trkpt>
      <trkpt lat="50.80392" lon="1.89752">
        <ele>138</ele>
        <time>2015-05-12T13:50:56.000Z</time>
      </trkpt>
      <trkpt lat="50.80392" lon="1.89752">
        <ele>138</ele>
        <time>2015-05-12T13:50:57.000Z</time>
      </trkpt>
      <trkpt lat="50.80392" lon="1.89751">
        <ele>139</ele>
        <time>2015-05-12T13:50:58.000Z</time>
      </trkpt>
      <trkpt lat="50.80392" lon="1.8975">
        <ele>140</ele>
        <time>2015-05-12T13:50:59.000Z</time>
      </trkpt>
      <trkpt lat="50.80391" lon="1.8975">
        <ele>140</ele>
        <time>2015-05-12T13:51:00.000Z</time>
      </trkpt>
      <trkpt lat="50.80391" lon="1.8975">
        <ele>142</ele>
        <time>2015-05-12T13:51:01.000Z</time>
      </trkpt>
      <trkpt lat="50.80391" lon="1.89749">
        <ele>142</ele>
        <time>2015-05-12T13:51:02.000Z</time>
      </trkpt>
      <trkpt lat="50.8039" lon="1.89749">
        <ele>142</ele>
        <time>2015-05-12T13:51:03.000Z</time>
      </trkpt>
      <trkpt lat="50.8039" lon="1.89749">
        <ele>142</ele>
        <time>2015-05-12T13:51:04.000Z</time>
      </trkpt>
      <trkpt lat="50.8039" lon="1.89749">
        <ele>142</ele>
        <time>2015-05-12T13:51:05.000Z</time>
      </trkpt>
      <trkpt lat="50.8039" lon="1.89749">
        <ele>142</ele>
        <time>2015-05-12T13:51:06.000Z</time>
      </trkpt>
      <trkpt lat="50.8039" lon="1.89749">
        <ele>141</ele>
        <time>2015-05-12T13:51:07.000Z</time>
      </trkpt>
      <trkpt lat="50.8039" lon="1.89749">
        <ele>142</ele>
        <time>2015-05-12T13:51:08.000Z</time>
      </trkpt>
      <trkpt lat="50.80389" lon="1.89748">
        <ele>142</ele>
        <time>2015-05-12T13:51:09.000Z</time>
      </trkpt>
      <trkpt lat="50.80389" lon="1.89747">
        <ele>142</ele>
        <time>2015-05-12T13:51:10.000Z</time>
      </trkpt>
      <trkpt lat="50.80389" lon="1.89747">
        <ele>142</ele>
        <time>2015-05-12T13:51:11.000Z</time>
      </trkpt>
      <trkpt lat="50.80389" lon="1.89746">
        <ele>143</ele>
        <time>2015-05-12T13:51:12.000Z</time>
      </trkpt>
      <trkpt lat="50.80389" lon="1.89745">
        <ele>143</ele>
        <time>2015-05-12T13:51:13.000Z</time>
      </trkpt>
      <trkpt lat="50.80388" lon="1.89745">
        <ele>143</ele>
        <time>2015-05-12T13:51:14.000Z</time>
      </trkpt>
      <trkpt lat="50.80388" lon="1.89744">
        <ele>143</ele>
        <time>2015-05-12T13:51:15.000Z</time>
      </trkpt>
      <trkpt lat="50.80388" lon="1.89744">
        <ele>143</ele>
        <time>2015-05-12T13:51:16.000Z</time>
      </trkpt>
      <trkpt lat="50.80388" lon="1.89743">
        <ele>144</ele>
        <time>2015-05-12T13:51:17.000Z</time>
      </trkpt>
      <trkpt lat="50.80387" lon="1.89743">
        <ele>145</ele>
        <time>2015-05-12T13:51:18.000Z</time>
      </trkpt>
      <trkpt lat="50.80387" lon="1.89742">
        <ele>145</ele>
        <time>2015-05-12T13:51:19.000Z</time>
      </trkpt>
      <trkpt lat="50.80386" lon="1.89742">
        <ele>146</ele>
        <time>2015-05-12T13:51:20.000Z</time>
      </trkpt>
      <trkpt lat="50.80386" lon="1.89742">
        <ele>145</ele>
        <time>2015-05-12T13:51:21.000Z</time>
      </trkpt>
      <trkpt lat="50.80386" lon="1.89742">
        <ele>146</ele>
        <time>2015-05-12T13:51:22.000Z</time>
      </trkpt>
      <trkpt lat="50.80387" lon="1.89742">
        <ele>146</ele>
        <time>2015-05-12T13:51:23.000Z</time>
      </trkpt>
      <trkpt lat="50.80387" lon="1.89742">
        <ele>146</ele>
        <time>2015-05-12T13:51:24.000Z</time>
      </trkpt>
      <trkpt lat="50.80387" lon="1.89742">
        <ele>146</ele>
        <time>2015-05-12T13:51:25.000Z</time>
      </trkpt>
      <trkpt lat="50.80387" lon="1.89742">
        <ele>146</ele>
        <time>2015-05-12T13:51:26.000Z</time>
      </trkpt>
      <trkpt lat="50.80387" lon="1.89741">
        <ele>146</ele>
        <time>2015-05-12T13:51:27.000Z</time>
      </trkpt>
      <trkpt lat="50.80387" lon="1.89741">
        <ele>146</ele>
        <time>2015-05-12T13:51:28.000Z</time>
      </trkpt>
      <trkpt lat="50.80387" lon="1.89741">
        <ele>146</ele>
        <time>2015-05-12T13:51:29.000Z</time>
      </trkpt>
      <trkpt lat="50.80387" lon="1.89741">
        <ele>146</ele>
        <time>2015-05-12T13:51:30.000Z</time>
      </trkpt>
      <trkpt lat="50.80387" lon="1.8974">
        <ele>145</ele>
        <time>2015-05-12T13:51:31.000Z</time>
      </trkpt>
      <trkpt lat="50.80387" lon="1.89739">
        <ele>145</ele>
        <time>2015-05-12T13:51:32.000Z</time>
      </trkpt>
      <trkpt lat="50.80387" lon="1.89738">
        <ele>145</ele>
        <time>2015-05-12T13:51:33.000Z</time>
      </trkpt>
      <trkpt lat="50.80387" lon="1.89737">
        <ele>144</ele>
        <time>2015-05-12T13:51:34.000Z</time>
      </trkpt>
      <trkpt lat="50.80387" lon="1.89736">
        <ele>143</ele>
        <time>2015-05-12T13:51:35.000Z</time>
      </trkpt>
      <trkpt lat="50.80388" lon="1.89734">
        <ele>143</ele>
        <time>2015-05-12T13:51:36.000Z</time>
      </trkpt>
      <trkpt lat="50.80388" lon="1.89733">
        <ele>143</ele>
        <time>2015-05-12T13:51:37.000Z</time>
      </trkpt>
      <trkpt lat="50.80388" lon="1.89733">
        <ele>142</ele>
        <time>2015-05-12T13:51:38.000Z</time>
      </trkpt>
      <trkpt lat="50.80388" lon="1.89732">
        <ele>143</ele>
        <time>2015-05-12T13:51:39.000Z</time>
      </trkpt>
      <trkpt lat="50.80387" lon="1.89731">
        <ele>143</ele>
        <time>2015-05-12T13:51:40.000Z</time>
      </trkpt>
      <trkpt lat="50.80387" lon="1.8973">
        <ele>143</ele>
        <time>2015-05-12T13:51:41.000Z</time>
      </trkpt>
      <trkpt lat="50.80387" lon="1.89729">
        <ele>143</ele>
        <time>2015-05-12T13:51:42.000Z</time>
      </trkpt>
      <trkpt lat="50.80387" lon="1.89728">
        <ele>143</ele>
        <time>2015-05-12T13:51:43.000Z</time>
      </trkpt>
      <trkpt lat="50.80387" lon="1.89727">
        <ele>144</ele>
        <time>2015-05-12T13:51:44.000Z</time>
      </trkpt>
      <trkpt lat="50.80387" lon="1.89727">
        <ele>144</ele>
        <time>2015-05-12T13:51:45.000Z</time>
      </trkpt>
      <trkpt lat="50.80387" lon="1.89726">
        <ele>144</ele>
        <time>2015-05-12T13:51:46.000Z</time>
      </trkpt>
      <trkpt lat="50.80386" lon="1.89726">
        <ele>145</ele>
        <time>2015-05-12T13:51:47.000Z</time>
      </trkpt>
      <trkpt lat="50.80386" lon="1.89725">
        <ele>145</ele>
        <time>2015-05-12T13:51:48.000Z</time>
      </trkpt>
      <trkpt lat="50.80386" lon="1.89725">
        <ele>145</ele>
        <time>2015-05-12T13:51:49.000Z</time>
      </trkpt>
      <trkpt lat="50.80386" lon="1.89724">
        <ele>145</ele>
        <time>2015-05-12T13:51:50.000Z</time>
      </trkpt>
      <trkpt lat="50.80386" lon="1.89724">
        <ele>145</ele>
        <time>2015-05-12T13:51:51.000Z</time>
      </trkpt>
      <trkpt lat="50.80386" lon="1.89724">
        <ele>146</ele>
        <time>2015-05-12T13:51:52.000Z</time>
      </trkpt>
      <trkpt lat="50.80386" lon="1.89725">
        <ele>146</ele>
        <time>2015-05-12T13:51:53.000Z</time>
      </trkpt>
      <trkpt lat="50.80386" lon="1.89725">
        <ele>146</ele>
        <time>2015-05-12T13:51:54.000Z</time>
      </trkpt>
      <trkpt lat="50.80385" lon="1.89725">
        <ele>146</ele>
        <time>2015-05-12T13:51:55.000Z</time>
      </trkpt>
      <trkpt lat="50.80385" lon="1.89725">
        <ele>146</ele>
        <time>2015-05-12T13:51:56.000Z</time>
      </trkpt>
      <trkpt lat="50.80385" lon="1.89724">
        <ele>147</ele>
        <time>2015-05-12T13:51:57.000Z</time>
      </trkpt>
      <trkpt lat="50.80386" lon="1.89724">
        <ele>147</ele>
        <time>2015-05-12T13:51:58.000Z</time>
      </trkpt>
      <trkpt lat="50.80386" lon="1.89723">
        <ele>146</ele>
        <time>2015-05-12T13:51:59.000Z</time>
      </trkpt>
      <trkpt lat="50.80386" lon="1.89723">
        <ele>146</ele>
        <time>2015-05-12T13:52:00.000Z</time>
      </trkpt>
      <trkpt lat="50.80385" lon="1.89722">
        <ele>147</ele>
        <time>2015-05-12T13:52:01.000Z</time>
      </trkpt>
      <trkpt lat="50.80385" lon="1.89722">
        <ele>147</ele>
        <time>2015-05-12T13:52:02.000Z</time>
      </trkpt>
      <trkpt lat="50.80385" lon="1.89722">
        <ele>147</ele>
        <time>2015-05-12T13:52:03.000Z</time>
      </trkpt>
      <trkpt lat="50.80385" lon="1.89722">
        <ele>146</ele>
        <time>2015-05-12T13:52:04.000Z</time>
      </trkpt>
      <trkpt lat="50.80385" lon="1.89721">
        <ele>146</ele>
        <time>2015-05-12T13:52:05.000Z</time>
      </trkpt>
      <trkpt lat="50.80385" lon="1.89721">
        <ele>147</ele>
        <time>2015-05-12T13:52:06.000Z</time>
      </trkpt>
      <trkpt lat="50.80385" lon="1.89721">
        <ele>147</ele>
        <time>2015-05-12T13:52:07.000Z</time>
      </trkpt>
      <trkpt lat="50.80385" lon="1.8972">
        <ele>147</ele>
        <time>2015-05-12T13:52:08.000Z</time>
      </trkpt>
      <trkpt lat="50.80385" lon="1.8972">
        <ele>146</ele>
        <time>2015-05-12T13:52:09.000Z</time>
      </trkpt>
      <trkpt lat="50.80385" lon="1.8972">
        <ele>146</ele>
        <time>2015-05-12T13:52:10.000Z</time>
      </trkpt>
      <trkpt lat="50.80385" lon="1.89719">
        <ele>146</ele>
        <time>2015-05-12T13:52:11.000Z</time>
      </trkpt>
      <trkpt lat="50.80385" lon="1.89719">
        <ele>146</ele>
        <time>2015-05-12T13:52:12.000Z</time>
      </trkpt>
      <trkpt lat="50.80384" lon="1.89718">
        <ele>147</ele>
        <time>2015-05-12T13:52:13.000Z</time>
      </trkpt>
      <trkpt lat="50.80384" lon="1.89717">
        <ele>146</ele>
        <time>2015-05-12T13:52:14.000Z</time>
      </trkpt>
      <trkpt lat="50.80384" lon="1.89716">
        <ele>146</ele>
        <time>2015-05-12T13:52:15.000Z</time>
      </trkpt>
      <trkpt lat="50.80383" lon="1.89715">
        <ele>146</ele>
        <time>2015-05-12T13:52:16.000Z</time>
      </trkpt>
      <trkpt lat="50.80384" lon="1.89714">
        <ele>146</ele>
        <time>2015-05-12T13:52:17.000Z</time>
      </trkpt>
      <trkpt lat="50.80384" lon="1.89713">
        <ele>146</ele>
        <time>2015-05-12T13:52:18.000Z</time>
      </trkpt>
      <trkpt lat="50.80384" lon="1.89711">
        <ele>146</ele>
        <time>2015-05-12T13:52:19.000Z</time>
      </trkpt>
      <trkpt lat="50.80384" lon="1.8971">
        <ele>146</ele>
        <time>2015-05-12T13:52:20.000Z</time>
      </trkpt>
      <trkpt lat="50.80383" lon="1.89708">
        <ele>146</ele>
        <time>2015-05-12T13:52:21.000Z</time>
      </trkpt>
      <trkpt lat="50.80383" lon="1.89706">
        <ele>146</ele>
        <time>2015-05-12T13:52:22.000Z</time>
      </trkpt>
      <trkpt lat="50.80382" lon="1.89704">
        <ele>146</ele>
        <time>2015-05-12T13:52:23.000Z</time>
      </trkpt>
      <trkpt lat="50.80381" lon="1.89702">
        <ele>146</ele>
        <time>2015-05-12T13:52:24.000Z</time>
      </trkpt>
      <trkpt lat="50.80381" lon="1.897">
        <ele>146</ele>
        <time>2015-05-12T13:52:25.000Z</time>
      </trkpt>
      <trkpt lat="50.80381" lon="1.89699">
        <ele>146</ele>
        <time>2015-05-12T13:52:26.000Z</time>
      </trkpt>
      <trkpt lat="50.80381" lon="1.89697">
        <ele>146</ele>
        <time>2015-05-12T13:52:27.000Z</time>
      </trkpt>
      <trkpt lat="50.80381" lon="1.89696">
        <ele>147</ele>
        <time>2015-05-12T13:52:28.000Z</time>
      </trkpt>
      <trkpt lat="50.8038" lon="1.89695">
        <ele>147</ele>
        <time>2015-05-12T13:52:29.000Z</time>
      </trkpt>
      <trkpt lat="50.8038" lon="1.89694">
        <ele>146</ele>
        <time>2015-05-12T13:52:30.000Z</time>
      </trkpt>
      <trkpt lat="50.80379" lon="1.89692">
        <ele>145</ele>
        <time>2015-05-12T13:52:31.000Z</time>
      </trkpt>
      <trkpt lat="50.80379" lon="1.89691">
        <ele>146</ele>
        <time>2015-05-12T13:52:32.000Z</time>
      </trkpt>
      <trkpt lat="50.80378" lon="1.8969">
        <ele>146</ele>
        <time>2015-05-12T13:52:33.000Z</time>
      </trkpt>
      <trkpt lat="50.80377" lon="1.89689">
        <ele>146</ele>
        <time>2015-05-12T13:52:34.000Z</time>
      </trkpt>
      <trkpt lat="50.80377" lon="1.89688">
        <ele>146</ele>
        <time>2015-05-12T13:52:35.000Z</time>
      </trkpt>
      <trkpt lat="50.80376" lon="1.89687">
        <ele>145</ele>
        <time>2015-05-12T13:52:36.000Z</time>
      </trkpt>
      <trkpt lat="50.80375" lon="1.89686">
        <ele>145</ele>
        <time>2015-05-12T13:52:37.000Z</time>
      </trkpt>
      <trkpt lat="50.80375" lon="1.89684">
        <ele>145</ele>
        <time>2015-05-12T13:52:38.000Z</time>
      </trkpt>
      <trkpt lat="50.80374" lon="1.89683">
        <ele>145</ele>
        <time>2015-05-12T13:52:39.000Z</time>
      </trkpt>
      <trkpt lat="50.80374" lon="1.89682">
        <ele>144</ele>
        <time>2015-05-12T13:52:40.000Z</time>
      </trkpt>
      <trkpt lat="50.80374" lon="1.89681">
        <ele>144</ele>
        <time>2015-05-12T13:52:41.000Z</time>
      </trkpt>
      <trkpt lat="50.80373" lon="1.8968">
        <ele>144</ele>
        <time>2015-05-12T13:52:42.000Z</time>
      </trkpt>
      <trkpt lat="50.80373" lon="1.89679">
        <ele>144</ele>
        <time>2015-05-12T13:52:43.000Z</time>
      </trkpt>
      <trkpt lat="50.80372" lon="1.89678">
        <ele>144</ele>
        <time>2015-05-12T13:52:44.000Z</time>
      </trkpt>
      <trkpt lat="50.80371" lon="1.89676">
        <ele>143</ele>
        <time>2015-05-12T13:52:45.000Z</time>
      </trkpt>
      <trkpt lat="50.80371" lon="1.89675">
        <ele>143</ele>
        <time>2015-05-12T13:52:46.000Z</time>
      </trkpt>
      <trkpt lat="50.8037" lon="1.89673">
        <ele>143</ele>
        <time>2015-05-12T13:52:47.000Z</time>
      </trkpt>
      <trkpt lat="50.80369" lon="1.89672">
        <ele>143</ele>
        <time>2015-05-12T13:52:48.000Z</time>
      </trkpt>
      <trkpt lat="50.80368" lon="1.8967">
        <ele>143</ele>
        <time>2015-05-12T13:52:49.000Z</time>
      </trkpt>
      <trkpt lat="50.80367" lon="1.89669">
        <ele>144</ele>
        <time>2015-05-12T13:52:50.000Z</time>
      </trkpt>
      <trkpt lat="50.80367" lon="1.89669">
        <ele>144</ele>
        <time>2015-05-12T13:52:51.000Z</time>
      </trkpt>
      <trkpt lat="50.80366" lon="1.89668">
        <ele>144</ele>
        <time>2015-05-12T13:52:52.000Z</time>
      </trkpt>
      <trkpt lat="50.80366" lon="1.89667">
        <ele>144</ele>
        <time>2015-05-12T13:52:53.000Z</time>
      </trkpt>
      <trkpt lat="50.80365" lon="1.89666">
        <ele>144</ele>
        <time>2015-05-12T13:52:54.000Z</time>
      </trkpt>
      <trkpt lat="50.80365" lon="1.89665">
        <ele>143</ele>
        <time>2015-05-12T13:52:55.000Z</time>
      </trkpt>
      <trkpt lat="50.80365" lon="1.89664">
        <ele>144</ele>
        <time>2015-05-12T13:52:56.000Z</time>
      </trkpt>
      <trkpt lat="50.80365" lon="1.89662">
        <ele>143</ele>
        <time>2015-05-12T13:52:57.000Z</time>
      </trkpt>
      <trkpt lat="50.80364" lon="1.89661">
        <ele>144</ele>
        <time>2015-05-12T13:52:58.000Z</time>
      </trkpt>
      <trkpt lat="50.80364" lon="1.8966">
        <ele>144</ele>
        <time>2015-05-12T13:52:59.000Z</time>
      </trkpt>
      <trkpt lat="50.80364" lon="1.89659">
        <ele>145</ele>
        <time>2015-05-12T13:53:00.000Z</time>
      </trkpt>
      <trkpt lat="50.80363" lon="1.89657">
        <ele>145</ele>
        <time>2015-05-12T13:53:01.000Z</time>
      </trkpt>
      <trkpt lat="50.80363" lon="1.89656">
        <ele>144</ele>
        <time>2015-05-12T13:53:02.000Z</time>
      </trkpt>
      <trkpt lat="50.80364" lon="1.89654">
        <ele>144</ele>
        <time>2015-05-12T13:53:03.000Z</time>
      </trkpt>
      <trkpt lat="50.80364" lon="1.89653">
        <ele>144</ele>
        <time>2015-05-12T13:53:04.000Z</time>
      </trkpt>
      <trkpt lat="50.80364" lon="1.89652">
        <ele>144</ele>
        <time>2015-05-12T13:53:05.000Z</time>
      </trkpt>
      <trkpt lat="50.80364" lon="1.89652">
        <ele>144</ele>
        <time>2015-05-12T13:53:06.000Z</time>
      </trkpt>
      <trkpt lat="50.80364" lon="1.89651">
        <ele>144</ele>
        <time>2015-05-12T13:53:07.000Z</time>
      </trkpt>
      <trkpt lat="50.80364" lon="1.8965">
        <ele>144</ele>
        <time>2015-05-12T13:53:08.000Z</time>
      </trkpt>
      <trkpt lat="50.80364" lon="1.89648">
        <ele>145</ele>
        <time>2015-05-12T13:53:09.000Z</time>
      </trkpt>
      <trkpt lat="50.80363" lon="1.89647">
        <ele>145</ele>
        <time>2015-05-12T13:53:10.000Z</time>
      </trkpt>
      <trkpt lat="50.80363" lon="1.89646">
        <ele>145</ele>
        <time>2015-05-12T13:53:11.000Z</time>
      </trkpt>
      <trkpt lat="50.80363" lon="1.89645">
        <ele>145</ele>
        <time>2015-05-12T13:53:12.000Z</time>
      </trkpt>
      <trkpt lat="50.80362" lon="1.89644">
        <ele>146</ele>
        <time>2015-05-12T13:53:13.000Z</time>
      </trkpt>
      <trkpt lat="50.80362" lon="1.89642">
        <ele>145</ele>
        <time>2015-05-12T13:53:14.000Z</time>
      </trkpt>
      <trkpt lat="50.80361" lon="1.89641">
        <ele>145</ele>
        <time>2015-05-12T13:53:15.000Z</time>
      </trkpt>
      <trkpt lat="50.80361" lon="1.8964">
        <ele>145</ele>
        <time>2015-05-12T13:53:16.000Z</time>
      </trkpt>
      <trkpt lat="50.80361" lon="1.89639">
        <ele>144</ele>
        <time>2015-05-12T13:53:17.000Z</time>
      </trkpt>
      <trkpt lat="50.80361" lon="1.89637">
        <ele>144</ele>
        <time>2015-05-12T13:53:18.000Z</time>
      </trkpt>
      <trkpt lat="50.80361" lon="1.89636">
        <ele>145</ele>
        <time>2015-05-12T13:53:19.000Z</time>
      </trkpt>
      <trkpt lat="50.8036" lon="1.89635">
        <ele>144</ele>
        <time>2015-05-12T13:53:20.000Z</time>
      </trkpt>
      <trkpt lat="50.8036" lon="1.89633">
        <ele>143</ele>
        <time>2015-05-12T13:53:21.000Z</time>
      </trkpt>
      <trkpt lat="50.80359" lon="1.89631">
        <ele>144</ele>
        <time>2015-05-12T13:53:22.000Z</time>
      </trkpt>
      <trkpt lat="50.80358" lon="1.89629">
        <ele>144</ele>
        <time>2015-05-12T13:53:23.000Z</time>
      </trkpt>
      <trkpt lat="50.80357" lon="1.89628">
        <ele>144</ele>
        <time>2015-05-12T13:53:24.000Z</time>
      </trkpt>
      <trkpt lat="50.80357" lon="1.89626">
        <ele>143</ele>
        <time>2015-05-12T13:53:25.000Z</time>
      </trkpt>
      <trkpt lat="50.80356" lon="1.89625">
        <ele>143</ele>
        <time>2015-05-12T13:53:26.000Z</time>
      </trkpt>
      <trkpt lat="50.80355" lon="1.89623">
        <ele>143</ele>
        <time>2015-05-12T13:53:27.000Z</time>
      </trkpt>
      <trkpt lat="50.80355" lon="1.89621">
        <ele>142</ele>
        <time>2015-05-12T13:53:28.000Z</time>
      </trkpt>
      <trkpt lat="50.80354" lon="1.89619">
        <ele>142</ele>
        <time>2015-05-12T13:53:29.000Z</time>
      </trkpt>
      <trkpt lat="50.80354" lon="1.89618">
        <ele>143</ele>
        <time>2015-05-12T13:53:30.000Z</time>
      </trkpt>
      <trkpt lat="50.80354" lon="1.89617">
        <ele>142</ele>
        <time>2015-05-12T13:53:31.000Z</time>
      </trkpt>
      <trkpt lat="50.80353" lon="1.89615">
        <ele>142</ele>
        <time>2015-05-12T13:53:32.000Z</time>
      </trkpt>
      <trkpt lat="50.80353" lon="1.89614">
        <ele>141</ele>
        <time>2015-05-12T13:53:33.000Z</time>
      </trkpt>
      <trkpt lat="50.80353" lon="1.89612">
        <ele>141</ele>
        <time>2015-05-12T13:53:34.000Z</time>
      </trkpt>
      <trkpt lat="50.80353" lon="1.89611">
        <ele>141</ele>
        <time>2015-05-12T13:53:35.000Z</time>
      </trkpt>
      <trkpt lat="50.80353" lon="1.89609">
        <ele>139</ele>
        <time>2015-05-12T13:53:36.000Z</time>
      </trkpt>
      <trkpt lat="50.80353" lon="1.89608">
        <ele>139</ele>
        <time>2015-05-12T13:53:37.000Z</time>
      </trkpt>
      <trkpt lat="50.80352" lon="1.89606">
        <ele>139</ele>
        <time>2015-05-12T13:53:38.000Z</time>
      </trkpt>
      <trkpt lat="50.80352" lon="1.89605">
        <ele>139</ele>
        <time>2015-05-12T13:53:39.000Z</time>
      </trkpt>
      <trkpt lat="50.80352" lon="1.89603">
        <ele>140</ele>
        <time>2015-05-12T13:53:40.000Z</time>
      </trkpt>
      <trkpt lat="50.80352" lon="1.89602">
        <ele>140</ele>
        <time>2015-05-12T13:53:41.000Z</time>
      </trkpt>
      <trkpt lat="50.80352" lon="1.89601">
        <ele>140</ele>
        <time>2015-05-12T13:53:42.000Z</time>
      </trkpt>
      <trkpt lat="50.80351" lon="1.896">
        <ele>140</ele>
        <time>2015-05-12T13:53:43.000Z</time>
      </trkpt>
      <trkpt lat="50.80351" lon="1.89599">
        <ele>141</ele>
        <time>2015-05-12T13:53:44.000Z</time>
      </trkpt>
      <trkpt lat="50.8035" lon="1.89598">
        <ele>141</ele>
        <time>2015-05-12T13:53:45.000Z</time>
      </trkpt>
      <trkpt lat="50.8035" lon="1.89597">
        <ele>141</ele>
        <time>2015-05-12T13:53:46.000Z</time>
      </trkpt>
      <trkpt lat="50.8035" lon="1.89596">
        <ele>141</ele>
        <time>2015-05-12T13:53:47.000Z</time>
      </trkpt>
      <trkpt lat="50.8035" lon="1.89595">
        <ele>140</ele>
        <time>2015-05-12T13:53:48.000Z</time>
      </trkpt>
      <trkpt lat="50.80349" lon="1.89593">
        <ele>140</ele>
        <time>2015-05-12T13:53:49.000Z</time>
      </trkpt>
      <trkpt lat="50.80349" lon="1.89592">
        <ele>141</ele>
        <time>2015-05-12T13:53:50.000Z</time>
      </trkpt>
      <trkpt lat="50.80348" lon="1.8959">
        <ele>141</ele>
        <time>2015-05-12T13:53:51.000Z</time>
      </trkpt>
      <trkpt lat="50.80347" lon="1.89589">
        <ele>142</ele>
        <time>2015-05-12T13:53:52.000Z</time>
      </trkpt>
      <trkpt lat="50.80347" lon="1.89587">
        <ele>141</ele>
        <time>2015-05-12T13:53:53.000Z</time>
      </trkpt>
      <trkpt lat="50.80347" lon="1.89585">
        <ele>140</ele>
        <time>2015-05-12T13:53:54.000Z</time>
      </trkpt>
      <trkpt lat="50.80346" lon="1.89584">
        <ele>141</ele>
        <time>2015-05-12T13:53:55.000Z</time>
      </trkpt>
      <trkpt lat="50.80346" lon="1.89582">
        <ele>141</ele>
        <time>2015-05-12T13:53:56.000Z</time>
      </trkpt>
      <trkpt lat="50.80346" lon="1.8958">
        <ele>141</ele>
        <time>2015-05-12T13:53:57.000Z</time>
      </trkpt>
      <trkpt lat="50.80345" lon="1.89578">
        <ele>140</ele>
        <time>2015-05-12T13:53:58.000Z</time>
      </trkpt>
      <trkpt lat="50.80344" lon="1.89576">
        <ele>141</ele>
        <time>2015-05-12T13:53:59.000Z</time>
      </trkpt>
      <trkpt lat="50.80344" lon="1.89575">
        <ele>141</ele>
        <time>2015-05-12T13:54:00.000Z</time>
      </trkpt>
      <trkpt lat="50.80343" lon="1.89573">
        <ele>142</ele>
        <time>2015-05-12T13:54:01.000Z</time>
      </trkpt>
      <trkpt lat="50.80342" lon="1.89571">
        <ele>142</ele>
        <time>2015-05-12T13:54:02.000Z</time>
      </trkpt>
      <trkpt lat="50.80342" lon="1.89569">
        <ele>142</ele>
        <time>2015-05-12T13:54:03.000Z</time>
      </trkpt>
      <trkpt lat="50.80342" lon="1.89568">
        <ele>142</ele>
        <time>2015-05-12T13:54:04.000Z</time>
      </trkpt>
      <trkpt lat="50.80342" lon="1.89566">
        <ele>142</ele>
        <time>2015-05-12T13:54:05.000Z</time>
      </trkpt>
      <trkpt lat="50.80341" lon="1.89564">
        <ele>143</ele>
        <time>2015-05-12T13:54:06.000Z</time>
      </trkpt>
      <trkpt lat="50.8034" lon="1.89563">
        <ele>143</ele>
        <time>2015-05-12T13:54:07.000Z</time>
      </trkpt>
      <trkpt lat="50.8034" lon="1.89562">
        <ele>144</ele>
        <time>2015-05-12T13:54:08.000Z</time>
      </trkpt>
      <trkpt lat="50.8034" lon="1.8956">
        <ele>144</ele>
        <time>2015-05-12T13:54:09.000Z</time>
      </trkpt>
      <trkpt lat="50.80339" lon="1.89559">
        <ele>144</ele>
        <time>2015-05-12T13:54:10.000Z</time>
      </trkpt>
      <trkpt lat="50.80339" lon="1.89558">
        <ele>144</ele>
        <time>2015-05-12T13:54:11.000Z</time>
      </trkpt>
      <trkpt lat="50.80339" lon="1.89556">
        <ele>144</ele>
        <time>2015-05-12T13:54:12.000Z</time>
      </trkpt>
      <trkpt lat="50.8034" lon="1.89555">
        <ele>144</ele>
        <time>2015-05-12T13:54:13.000Z</time>
      </trkpt>
      <trkpt lat="50.8034" lon="1.89553">
        <ele>144</ele>
        <time>2015-05-12T13:54:14.000Z</time>
      </trkpt>
      <trkpt lat="50.8034" lon="1.89552">
        <ele>145</ele>
        <time>2015-05-12T13:54:15.000Z</time>
      </trkpt>
      <trkpt lat="50.8034" lon="1.89551">
        <ele>145</ele>
        <time>2015-05-12T13:54:16.000Z</time>
      </trkpt>
      <trkpt lat="50.8034" lon="1.89549">
        <ele>144</ele>
        <time>2015-05-12T13:54:17.000Z</time>
      </trkpt>
      <trkpt lat="50.80339" lon="1.89548">
        <ele>145</ele>
        <time>2015-05-12T13:54:18.000Z</time>
      </trkpt>
      <trkpt lat="50.80339" lon="1.89547">
        <ele>144</ele>
        <time>2015-05-12T13:54:19.000Z</time>
      </trkpt>
      <trkpt lat="50.80339" lon="1.89546">
        <ele>144</ele>
        <time>2015-05-12T13:54:20.000Z</time>
      </trkpt>
      <trkpt lat="50.80339" lon="1.89544">
        <ele>145</ele>
        <time>2015-05-12T13:54:21.000Z</time>
      </trkpt>
      <trkpt lat="50.80339" lon="1.89543">
        <ele>144</ele>
        <time>2015-05-12T13:54:22.000Z</time>
      </trkpt>
      <trkpt lat="50.80339" lon="1.89542">
        <ele>144</ele>
        <time>2015-05-12T13:54:23.000Z</time>
      </trkpt>
      <trkpt lat="50.80338" lon="1.89541">
        <ele>144</ele>
        <time>2015-05-12T13:54:24.000Z</time>
      </trkpt>
      <trkpt lat="50.80338" lon="1.8954">
        <ele>143</ele>
        <time>2015-05-12T13:54:25.000Z</time>
      </trkpt>
      <trkpt lat="50.80337" lon="1.89539">
        <ele>144</ele>
        <time>2015-05-12T13:54:26.000Z</time>
      </trkpt>
      <trkpt lat="50.80337" lon="1.89537">
        <ele>144</ele>
        <time>2015-05-12T13:54:27.000Z</time>
      </trkpt>
      <trkpt lat="50.80336" lon="1.89536">
        <ele>145</ele>
        <time>2015-05-12T13:54:28.000Z</time>
      </trkpt>
      <trkpt lat="50.80335" lon="1.89534">
        <ele>145</ele>
        <time>2015-05-12T13:54:29.000Z</time>
      </trkpt>
      <trkpt lat="50.80335" lon="1.89533">
        <ele>145</ele>
        <time>2015-05-12T13:54:30.000Z</time>
      </trkpt>
      <trkpt lat="50.80336" lon="1.89531">
        <ele>146</ele>
        <time>2015-05-12T13:54:31.000Z</time>
      </trkpt>
      <trkpt lat="50.80336" lon="1.8953">
        <ele>145</ele>
        <time>2015-05-12T13:54:32.000Z</time>
      </trkpt>
      <trkpt lat="50.80336" lon="1.89529">
        <ele>145</ele>
        <time>2015-05-12T13:54:33.000Z</time>
      </trkpt>
      <trkpt lat="50.80336" lon="1.89527">
        <ele>145</ele>
        <time>2015-05-12T13:54:34.000Z</time>
      </trkpt>
      <trkpt lat="50.80335" lon="1.89526">
        <ele>145</ele>
        <time>2015-05-12T13:54:35.000Z</time>
      </trkpt>
      <trkpt lat="50.80335" lon="1.89526">
        <ele>146</ele>
        <time>2015-05-12T13:54:36.000Z</time>
      </trkpt>
      <trkpt lat="50.80335" lon="1.89525">
        <ele>146</ele>
        <time>2015-05-12T13:54:37.000Z</time>
      </trkpt>
      <trkpt lat="50.80335" lon="1.89524">
        <ele>146</ele>
        <time>2015-05-12T13:54:38.000Z</time>
      </trkpt>
      <trkpt lat="50.80335" lon="1.89523">
        <ele>147</ele>
        <time>2015-05-12T13:54:39.000Z</time>
      </trkpt>
      <trkpt lat="50.80335" lon="1.89523">
        <ele>147</ele>
        <time>2015-05-12T13:54:40.000Z</time>
      </trkpt>
      <trkpt lat="50.80335" lon="1.89521">
        <ele>147</ele>
        <time>2015-05-12T13:54:41.000Z</time>
      </trkpt>
      <trkpt lat="50.80335" lon="1.8952">
        <ele>146</ele>
        <time>2015-05-12T13:54:42.000Z</time>
      </trkpt>
      <trkpt lat="50.80334" lon="1.89519">
        <ele>147</ele>
        <time>2015-05-12T13:54:43.000Z</time>
      </trkpt>
      <trkpt lat="50.80334" lon="1.89517">
        <ele>146</ele>
        <time>2015-05-12T13:54:44.000Z</time>
      </trkpt>
      <trkpt lat="50.80334" lon="1.89516">
        <ele>146</ele>
        <time>2015-05-12T13:54:45.000Z</time>
      </trkpt>
      <trkpt lat="50.80333" lon="1.89515">
        <ele>146</ele>
        <time>2015-05-12T13:54:46.000Z</time>
      </trkpt>
      <trkpt lat="50.80333" lon="1.89514">
        <ele>146</ele>
        <time>2015-05-12T13:54:47.000Z</time>
      </trkpt>
      <trkpt lat="50.80333" lon="1.89513">
        <ele>147</ele>
        <time>2015-05-12T13:54:48.000Z</time>
      </trkpt>
      <trkpt lat="50.80333" lon="1.89512">
        <ele>147</ele>
        <time>2015-05-12T13:54:49.000Z</time>
      </trkpt>
      <trkpt lat="50.80332" lon="1.89511">
        <ele>147</ele>
        <time>2015-05-12T13:54:50.000Z</time>
      </trkpt>
      <trkpt lat="50.80332" lon="1.8951">
        <ele>147</ele>
        <time>2015-05-12T13:54:51.000Z</time>
      </trkpt>
      <trkpt lat="50.80331" lon="1.89509">
        <ele>147</ele>
        <time>2015-05-12T13:54:52.000Z</time>
      </trkpt>
      <trkpt lat="50.80331" lon="1.89508">
        <ele>147</ele>
        <time>2015-05-12T13:54:53.000Z</time>
      </trkpt>
      <trkpt lat="50.8033" lon="1.89507">
        <ele>147</ele>
        <time>2015-05-12T13:54:54.000Z</time>
      </trkpt>
      <trkpt lat="50.8033" lon="1.89506">
        <ele>148</ele>
        <time>2015-05-12T13:54:55.000Z</time>
      </trkpt>
      <trkpt lat="50.8033" lon="1.89505">
        <ele>148</ele>
        <time>2015-05-12T13:54:56.000Z</time>
      </trkpt>
      <trkpt lat="50.80329" lon="1.89504">
        <ele>149</ele>
        <time>2015-05-12T13:54:57.000Z</time>
      </trkpt>
      <trkpt lat="50.80329" lon="1.89503">
        <ele>149</ele>
        <time>2015-05-12T13:54:58.000Z</time>
      </trkpt>
      <trkpt lat="50.80329" lon="1.89501">
        <ele>150</ele>
        <time>2015-05-12T13:54:59.000Z</time>
      </trkpt>
      <trkpt lat="50.80328" lon="1.895">
        <ele>150</ele>
        <time>2015-05-12T13:55:00.000Z</time>
      </trkpt>
      <trkpt lat="50.80328" lon="1.89499">
        <ele>150</ele>
        <time>2015-05-12T13:55:01.000Z</time>
      </trkpt>
      <trkpt lat="50.80328" lon="1.89498">
        <ele>150</ele>
        <time>2015-05-12T13:55:02.000Z</time>
      </trkpt>
      <trkpt lat="50.80328" lon="1.89497">
        <ele>150</ele>
        <time>2015-05-12T13:55:03.000Z</time>
      </trkpt>
      <trkpt lat="50.80328" lon="1.89496">
        <ele>151</ele>
        <time>2015-05-12T13:55:04.000Z</time>
      </trkpt>
      <trkpt lat="50.80328" lon="1.89495">
        <ele>151</ele>
        <time>2015-05-12T13:55:05.000Z</time>
      </trkpt>
      <trkpt lat="50.80328" lon="1.89494">
        <ele>151</ele>
        <time>2015-05-12T13:55:06.000Z</time>
      </trkpt>
      <trkpt lat="50.80328" lon="1.89492">
        <ele>152</ele>
        <time>2015-05-12T13:55:07.000Z</time>
      </trkpt>
      <trkpt lat="50.80328" lon="1.89491">
        <ele>152</ele>
        <time>2015-05-12T13:55:08.000Z</time>
      </trkpt>
      <trkpt lat="50.80328" lon="1.8949">
        <ele>152</ele>
        <time>2015-05-12T13:55:09.000Z</time>
      </trkpt>
      <trkpt lat="50.80328" lon="1.89488">
        <ele>152</ele>
        <time>2015-05-12T13:55:10.000Z</time>
      </trkpt>
      <trkpt lat="50.80327" lon="1.89487">
        <ele>153</ele>
        <time>2015-05-12T13:55:11.000Z</time>
      </trkpt>
      <trkpt lat="50.80326" lon="1.89485">
        <ele>153</ele>
        <time>2015-05-12T13:55:12.000Z</time>
      </trkpt>
      <trkpt lat="50.80326" lon="1.89484">
        <ele>153</ele>
        <time>2015-05-12T13:55:13.000Z</time>
      </trkpt>
      <trkpt lat="50.80325" lon="1.89482">
        <ele>153</ele>
        <time>2015-05-12T13:55:14.000Z</time>
      </trkpt>
      <trkpt lat="50.80325" lon="1.89481">
        <ele>153</ele>
        <time>2015-05-12T13:55:15.000Z</time>
      </trkpt>
      <trkpt lat="50.80324" lon="1.8948">
        <ele>154</ele>
        <time>2015-05-12T13:55:16.000Z</time>
      </trkpt>
      <trkpt lat="50.80324" lon="1.8948">
        <ele>154</ele>
        <time>2015-05-12T13:55:17.000Z</time>
      </trkpt>
      <trkpt lat="50.80324" lon="1.89479">
        <ele>154</ele>
        <time>2015-05-12T13:55:18.000Z</time>
      </trkpt>
      <trkpt lat="50.80323" lon="1.89478">
        <ele>155</ele>
        <time>2015-05-12T13:55:19.000Z</time>
      </trkpt>
      <trkpt lat="50.80323" lon="1.89476">
        <ele>154</ele>
        <time>2015-05-12T13:55:20.000Z</time>
      </trkpt>
      <trkpt lat="50.80322" lon="1.89475">
        <ele>154</ele>
        <time>2015-05-12T13:55:21.000Z</time>
      </trkpt>
      <trkpt lat="50.80321" lon="1.89474">
        <ele>154</ele>
        <time>2015-05-12T13:55:22.000Z</time>
      </trkpt>
      <trkpt lat="50.8032" lon="1.89473">
        <ele>154</ele>
        <time>2015-05-12T13:55:23.000Z</time>
      </trkpt>
      <trkpt lat="50.80319" lon="1.89471">
        <ele>155</ele>
        <time>2015-05-12T13:55:24.000Z</time>
      </trkpt>
      <trkpt lat="50.80318" lon="1.8947">
        <ele>155</ele>
        <time>2015-05-12T13:55:25.000Z</time>
      </trkpt>
      <trkpt lat="50.80317" lon="1.89468">
        <ele>156</ele>
        <time>2015-05-12T13:55:26.000Z</time>
      </trkpt>
      <trkpt lat="50.80317" lon="1.89466">
        <ele>156</ele>
        <time>2015-05-12T13:55:27.000Z</time>
      </trkpt>
      <trkpt lat="50.80316" lon="1.89464">
        <ele>156</ele>
        <time>2015-05-12T13:55:28.000Z</time>
      </trkpt>
      <trkpt lat="50.80315" lon="1.89462">
        <ele>156</ele>
        <time>2015-05-12T13:55:29.000Z</time>
      </trkpt>
      <trkpt lat="50.80315" lon="1.89461">
        <ele>155</ele>
        <time>2015-05-12T13:55:30.000Z</time>
      </trkpt>
      <trkpt lat="50.80314" lon="1.89459">
        <ele>155</ele>
        <time>2015-05-12T13:55:31.000Z</time>
      </trkpt>
      <trkpt lat="50.80314" lon="1.89458">
        <ele>155</ele>
        <time>2015-05-12T13:55:32.000Z</time>
      </trkpt>
      <trkpt lat="50.80314" lon="1.89457">
        <ele>154</ele>
        <time>2015-05-12T13:55:33.000Z</time>
      </trkpt>
      <trkpt lat="50.80314" lon="1.89455">
        <ele>154</ele>
        <time>2015-05-12T13:55:34.000Z</time>
      </trkpt>
      <trkpt lat="50.80313" lon="1.89454">
        <ele>154</ele>
        <time>2015-05-12T13:55:35.000Z</time>
      </trkpt>
      <trkpt lat="50.80313" lon="1.89452">
        <ele>154</ele>
        <time>2015-05-12T13:55:36.000Z</time>
      </trkpt>
      <trkpt lat="50.80313" lon="1.89451">
        <ele>154</ele>
        <time>2015-05-12T13:55:37.000Z</time>
      </trkpt>
      <trkpt lat="50.80312" lon="1.8945">
        <ele>154</ele>
        <time>2015-05-12T13:55:38.000Z</time>
      </trkpt>
      <trkpt lat="50.80312" lon="1.89449">
        <ele>155</ele>
        <time>2015-05-12T13:55:39.000Z</time>
      </trkpt>
      <trkpt lat="50.80312" lon="1.89448">
        <ele>155</ele>
        <time>2015-05-12T13:55:40.000Z</time>
      </trkpt>
      <trkpt lat="50.80312" lon="1.89446">
        <ele>155</ele>
        <time>2015-05-12T13:55:41.000Z</time>
      </trkpt>
      <trkpt lat="50.80311" lon="1.89445">
        <ele>156</ele>
        <time>2015-05-12T13:55:42.000Z</time>
      </trkpt>
      <trkpt lat="50.80311" lon="1.89443">
        <ele>155</ele>
        <time>2015-05-12T13:55:43.000Z</time>
      </trkpt>
      <trkpt lat="50.80311" lon="1.89442">
        <ele>155</ele>
        <time>2015-05-12T13:55:44.000Z</time>
      </trkpt>
      <trkpt lat="50.8031" lon="1.89441">
        <ele>155</ele>
        <time>2015-05-12T13:55:45.000Z</time>
      </trkpt>
      <trkpt lat="50.8031" lon="1.89439">
        <ele>155</ele>
        <time>2015-05-12T13:55:46.000Z</time>
      </trkpt>
      <trkpt lat="50.80309" lon="1.89437">
        <ele>155</ele>
        <time>2015-05-12T13:55:47.000Z</time>
      </trkpt>
      <trkpt lat="50.80308" lon="1.89435">
        <ele>155</ele>
        <time>2015-05-12T13:55:48.000Z</time>
      </trkpt>
      <trkpt lat="50.80308" lon="1.89434">
        <ele>154</ele>
        <time>2015-05-12T13:55:49.000Z</time>
      </trkpt>
      <trkpt lat="50.80307" lon="1.89432">
        <ele>155</ele>
        <time>2015-05-12T13:55:50.000Z</time>
      </trkpt>
      <trkpt lat="50.80307" lon="1.89431">
        <ele>155</ele>
        <time>2015-05-12T13:55:51.000Z</time>
      </trkpt>
      <trkpt lat="50.80307" lon="1.8943">
        <ele>155</ele>
        <time>2015-05-12T13:55:52.000Z</time>
      </trkpt>
      <trkpt lat="50.80306" lon="1.89428">
        <ele>155</ele>
        <time>2015-05-12T13:55:53.000Z</time>
      </trkpt>
      <trkpt lat="50.80306" lon="1.89427">
        <ele>155</ele>
        <time>2015-05-12T13:55:54.000Z</time>
      </trkpt>
      <trkpt lat="50.80306" lon="1.89426">
        <ele>155</ele>
        <time>2015-05-12T13:55:55.000Z</time>
      </trkpt>
      <trkpt lat="50.80305" lon="1.89424">
        <ele>155</ele>
        <time>2015-05-12T13:55:56.000Z</time>
      </trkpt>
      <trkpt lat="50.80305" lon="1.89423">
        <ele>155</ele>
        <time>2015-05-12T13:55:57.000Z</time>
      </trkpt>
      <trkpt lat="50.80305" lon="1.89421">
        <ele>155</ele>
        <time>2015-05-12T13:55:58.000Z</time>
      </trkpt>
      <trkpt lat="50.80305" lon="1.8942">
        <ele>155</ele>
        <time>2015-05-12T13:55:59.000Z</time>
      </trkpt>
      <trkpt lat="50.80304" lon="1.89419">
        <ele>155</ele>
        <time>2015-05-12T13:56:00.000Z</time>
      </trkpt>
      <trkpt lat="50.80304" lon="1.89417">
        <ele>156</ele>
        <time>2015-05-12T13:56:01.000Z</time>
      </trkpt>
      <trkpt lat="50.80303" lon="1.89415">
        <ele>155</ele>
        <time>2015-05-12T13:56:02.000Z</time>
      </trkpt>
      <trkpt lat="50.80303" lon="1.89414">
        <ele>155</ele>
        <time>2015-05-12T13:56:03.000Z</time>
      </trkpt>
      <trkpt lat="50.80302" lon="1.89412">
        <ele>153</ele>
        <time>2015-05-12T13:56:04.000Z</time>
      </trkpt>
      <trkpt lat="50.80302" lon="1.8941">
        <ele>152</ele>
        <time>2015-05-12T13:56:05.000Z</time>
      </trkpt>
      <trkpt lat="50.80302" lon="1.89408">
        <ele>153</ele>
        <time>2015-05-12T13:56:06.000Z</time>
      </trkpt>
      <trkpt lat="50.80302" lon="1.89406">
        <ele>153</ele>
        <time>2015-05-12T13:56:07.000Z</time>
      </trkpt>
      <trkpt lat="50.80301" lon="1.89404">
        <ele>152</ele>
        <time>2015-05-12T13:56:08.000Z</time>
      </trkpt>
      <trkpt lat="50.80301" lon="1.89403">
        <ele>151</ele>
        <time>2015-05-12T13:56:09.000Z</time>
      </trkpt>
      <trkpt lat="50.80301" lon="1.89401">
        <ele>151</ele>
        <time>2015-05-12T13:56:10.000Z</time>
      </trkpt>
      <trkpt lat="50.803" lon="1.894">
        <ele>151</ele>
        <time>2015-05-12T13:56:11.000Z</time>
      </trkpt>
      <trkpt lat="50.80299" lon="1.89398">
        <ele>151</ele>
        <time>2015-05-12T13:56:12.000Z</time>
      </trkpt>
      <trkpt lat="50.80299" lon="1.89397">
        <ele>151</ele>
        <time>2015-05-12T13:56:13.000Z</time>
      </trkpt>
      <trkpt lat="50.80298" lon="1.89395">
        <ele>150</ele>
        <time>2015-05-12T13:56:14.000Z</time>
      </trkpt>
      <trkpt lat="50.80297" lon="1.89393">
        <ele>150</ele>
        <time>2015-05-12T13:56:15.000Z</time>
      </trkpt>
      <trkpt lat="50.80297" lon="1.89392">
        <ele>149</ele>
        <time>2015-05-12T13:56:16.000Z</time>
      </trkpt>
      <trkpt lat="50.80296" lon="1.8939">
        <ele>149</ele>
        <time>2015-05-12T13:56:17.000Z</time>
      </trkpt>
      <trkpt lat="50.80295" lon="1.89388">
        <ele>149</ele>
        <time>2015-05-12T13:56:18.000Z</time>
      </trkpt>
      <trkpt lat="50.80295" lon="1.89386">
        <ele>149</ele>
        <time>2015-05-12T13:56:19.000Z</time>
      </trkpt>
      <trkpt lat="50.80294" lon="1.89384">
        <ele>150</ele>
        <time>2015-05-12T13:56:20.000Z</time>
      </trkpt>
      <trkpt lat="50.80294" lon="1.89383">
        <ele>150</ele>
        <time>2015-05-12T13:56:21.000Z</time>
      </trkpt>
      <trkpt lat="50.80293" lon="1.89382">
        <ele>150</ele>
        <time>2015-05-12T13:56:22.000Z</time>
      </trkpt>
      <trkpt lat="50.80293" lon="1.8938">
        <ele>150</ele>
        <time>2015-05-12T13:56:23.000Z</time>
      </trkpt>
      <trkpt lat="50.80292" lon="1.89378">
        <ele>150</ele>
        <time>2015-05-12T13:56:24.000Z</time>
      </trkpt>
      <trkpt lat="50.80292" lon="1.89376">
        <ele>150</ele>
        <time>2015-05-12T13:56:25.000Z</time>
      </trkpt>
      <trkpt lat="50.80291" lon="1.89375">
        <ele>150</ele>
        <time>2015-05-12T13:56:26.000Z</time>
      </trkpt>
      <trkpt lat="50.80291" lon="1.89373">
        <ele>150</ele>
        <time>2015-05-12T13:56:27.000Z</time>
      </trkpt>
      <trkpt lat="50.8029" lon="1.89371">
        <ele>150</ele>
        <time>2015-05-12T13:56:28.000Z</time>
      </trkpt>
      <trkpt lat="50.8029" lon="1.89369">
        <ele>149</ele>
        <time>2015-05-12T13:56:29.000Z</time>
      </trkpt>
      <trkpt lat="50.80289" lon="1.89368">
        <ele>148</ele>
        <time>2015-05-12T13:56:30.000Z</time>
      </trkpt>
      <trkpt lat="50.80288" lon="1.89366">
        <ele>148</ele>
        <time>2015-05-12T13:56:31.000Z</time>
      </trkpt>
      <trkpt lat="50.80287" lon="1.89364">
        <ele>148</ele>
        <time>2015-05-12T13:56:32.000Z</time>
      </trkpt>
      <trkpt lat="50.80286" lon="1.89363">
        <ele>148</ele>
        <time>2015-05-12T13:56:33.000Z</time>
      </trkpt>
      <trkpt lat="50.80285" lon="1.89361">
        <ele>147</ele>
        <time>2015-05-12T13:56:34.000Z</time>
      </trkpt>
      <trkpt lat="50.80284" lon="1.89359">
        <ele>147</ele>
        <time>2015-05-12T13:56:35.000Z</time>
      </trkpt>
      <trkpt lat="50.80284" lon="1.89358">
        <ele>147</ele>
        <time>2015-05-12T13:56:36.000Z</time>
      </trkpt>
      <trkpt lat="50.80283" lon="1.89356">
        <ele>147</ele>
        <time>2015-05-12T13:56:37.000Z</time>
      </trkpt>
      <trkpt lat="50.80282" lon="1.89355">
        <ele>147</ele>
        <time>2015-05-12T13:56:38.000Z</time>
      </trkpt>
      <trkpt lat="50.80281" lon="1.89354">
        <ele>146</ele>
        <time>2015-05-12T13:56:39.000Z</time>
      </trkpt>
      <trkpt lat="50.8028" lon="1.89352">
        <ele>146</ele>
        <time>2015-05-12T13:56:40.000Z</time>
      </trkpt>
      <trkpt lat="50.80279" lon="1.89351">
        <ele>146</ele>
        <time>2015-05-12T13:56:41.000Z</time>
      </trkpt>
      <trkpt lat="50.80278" lon="1.89349">
        <ele>146</ele>
        <time>2015-05-12T13:56:42.000Z</time>
      </trkpt>
      <trkpt lat="50.80277" lon="1.89348">
        <ele>147</ele>
        <time>2015-05-12T13:56:43.000Z</time>
      </trkpt>
      <trkpt lat="50.80277" lon="1.89347">
        <ele>148</ele>
        <time>2015-05-12T13:56:44.000Z</time>
      </trkpt>
      <trkpt lat="50.80276" lon="1.89346">
        <ele>149</ele>
        <time>2015-05-12T13:56:45.000Z</time>
      </trkpt>
      <trkpt lat="50.80275" lon="1.89344">
        <ele>149</ele>
        <time>2015-05-12T13:56:46.000Z</time>
      </trkpt>
      <trkpt lat="50.80274" lon="1.89343">
        <ele>150</ele>
        <time>2015-05-12T13:56:47.000Z</time>
      </trkpt>
      <trkpt lat="50.80274" lon="1.89342">
        <ele>150</ele>
        <time>2015-05-12T13:56:48.000Z</time>
      </trkpt>
      <trkpt lat="50.80273" lon="1.89341">
        <ele>150</ele>
        <time>2015-05-12T13:56:49.000Z</time>
      </trkpt>
      <trkpt lat="50.80272" lon="1.89339">
        <ele>150</ele>
        <time>2015-05-12T13:56:50.000Z</time>
      </trkpt>
      <trkpt lat="50.80271" lon="1.89338">
        <ele>150</ele>
        <time>2015-05-12T13:56:51.000Z</time>
      </trkpt>
      <trkpt lat="50.80271" lon="1.89337">
        <ele>150</ele>
        <time>2015-05-12T13:56:52.000Z</time>
      </trkpt>
      <trkpt lat="50.8027" lon="1.89335">
        <ele>150</ele>
        <time>2015-05-12T13:56:53.000Z</time>
      </trkpt>
      <trkpt lat="50.80269" lon="1.89334">
        <ele>151</ele>
        <time>2015-05-12T13:56:54.000Z</time>
      </trkpt>
      <trkpt lat="50.80268" lon="1.89332">
        <ele>151</ele>
        <time>2015-05-12T13:56:55.000Z</time>
      </trkpt>
      <trkpt lat="50.80268" lon="1.8933">
        <ele>151</ele>
        <time>2015-05-12T13:56:56.000Z</time>
      </trkpt>
      <trkpt lat="50.80267" lon="1.89329">
        <ele>152</ele>
        <time>2015-05-12T13:56:57.000Z</time>
      </trkpt>
      <trkpt lat="50.80267" lon="1.89327">
        <ele>151</ele>
        <time>2015-05-12T13:56:58.000Z</time>
      </trkpt>
      <trkpt lat="50.80267" lon="1.89325">
        <ele>151</ele>
        <time>2015-05-12T13:56:59.000Z</time>
      </trkpt>
      <trkpt lat="50.80267" lon="1.89324">
        <ele>151</ele>
        <time>2015-05-12T13:57:00.000Z</time>
      </trkpt>
      <trkpt lat="50.80266" lon="1.89322">
        <ele>151</ele>
        <time>2015-05-12T13:57:01.000Z</time>
      </trkpt>
      <trkpt lat="50.80265" lon="1.89321">
        <ele>151</ele>
        <time>2015-05-12T13:57:02.000Z</time>
      </trkpt>
      <trkpt lat="50.80265" lon="1.89319">
        <ele>152</ele>
        <time>2015-05-12T13:57:03.000Z</time>
      </trkpt>
      <trkpt lat="50.80264" lon="1.89318">
        <ele>152</ele>
        <time>2015-05-12T13:57:04.000Z</time>
      </trkpt>
      <trkpt lat="50.80264" lon="1.89316">
        <ele>151</ele>
        <time>2015-05-12T13:57:05.000Z</time>
      </trkpt>
      <trkpt lat="50.80264" lon="1.89315">
        <ele>152</ele>
        <time>2015-05-12T13:57:06.000Z</time>
      </trkpt>
      <trkpt lat="50.80264" lon="1.89313">
        <ele>152</ele>
        <time>2015-05-12T13:57:07.000Z</time>
      </trkpt>
      <trkpt lat="50.80264" lon="1.89312">
        <ele>153</ele>
        <time>2015-05-12T13:57:08.000Z</time>
      </trkpt>
      <trkpt lat="50.80263" lon="1.8931">
        <ele>153</ele>
        <time>2015-05-12T13:57:09.000Z</time>
      </trkpt>
      <trkpt lat="50.80263" lon="1.89309">
        <ele>153</ele>
        <time>2015-05-12T13:57:10.000Z</time>
      </trkpt>
      <trkpt lat="50.80263" lon="1.89307">
        <ele>153</ele>
        <time>2015-05-12T13:57:11.000Z</time>
      </trkpt>
      <trkpt lat="50.80262" lon="1.89305">
        <ele>154</ele>
        <time>2015-05-12T13:57:12.000Z</time>
      </trkpt>
      <trkpt lat="50.80262" lon="1.89304">
        <ele>155</ele>
        <time>2015-05-12T13:57:13.000Z</time>
      </trkpt>
      <trkpt lat="50.80261" lon="1.89303">
        <ele>155</ele>
        <time>2015-05-12T13:57:14.000Z</time>
      </trkpt>
      <trkpt lat="50.80261" lon="1.89301">
        <ele>155</ele>
        <time>2015-05-12T13:57:15.000Z</time>
      </trkpt>
      <trkpt lat="50.8026" lon="1.893">
        <ele>154</ele>
        <time>2015-05-12T13:57:16.000Z</time>
      </trkpt>
      <trkpt lat="50.80259" lon="1.89298">
        <ele>154</ele>
        <time>2015-05-12T13:57:17.000Z</time>
      </trkpt>
      <trkpt lat="50.80259" lon="1.89296">
        <ele>154</ele>
        <time>2015-05-12T13:57:18.000Z</time>
      </trkpt>
      <trkpt lat="50.80258" lon="1.89294">
        <ele>154</ele>
        <time>2015-05-12T13:57:19.000Z</time>
      </trkpt>
      <trkpt lat="50.80258" lon="1.89292">
        <ele>154</ele>
        <time>2015-05-12T13:57:20.000Z</time>
      </trkpt>
      <trkpt lat="50.80257" lon="1.8929">
        <ele>154</ele>
        <time>2015-05-12T13:57:21.000Z</time>
      </trkpt>
      <trkpt lat="50.80257" lon="1.89289">
        <ele>154</ele>
        <time>2015-05-12T13:57:22.000Z</time>
      </trkpt>
      <trkpt lat="50.80256" lon="1.89288">
        <ele>153</ele>
        <time>2015-05-12T13:57:23.000Z</time>
      </trkpt>
      <trkpt lat="50.80256" lon="1.89286">
        <ele>153</ele>
        <time>2015-05-12T13:57:24.000Z</time>
      </trkpt>
      <trkpt lat="50.80256" lon="1.89285">
        <ele>152</ele>
        <time>2015-05-12T13:57:25.000Z</time>
      </trkpt>
      <trkpt lat="50.80255" lon="1.89283">
        <ele>152</ele>
        <time>2015-05-12T13:57:26.000Z</time>
      </trkpt>
      <trkpt lat="50.80255" lon="1.89281">
        <ele>152</ele>
        <time>2015-05-12T13:57:27.000Z</time>
      </trkpt>
      <trkpt lat="50.80254" lon="1.8928">
        <ele>151</ele>
        <time>2015-05-12T13:57:28.000Z</time>
      </trkpt>
      <trkpt lat="50.80254" lon="1.89278">
        <ele>151</ele>
        <time>2015-05-12T13:57:29.000Z</time>
      </trkpt>
      <trkpt lat="50.80253" lon="1.89277">
        <ele>151</ele>
        <time>2015-05-12T13:57:30.000Z</time>
      </trkpt>
      <trkpt lat="50.80252" lon="1.89275">
        <ele>151</ele>
        <time>2015-05-12T13:57:31.000Z</time>
      </trkpt>
      <trkpt lat="50.80251" lon="1.89273">
        <ele>152</ele>
        <time>2015-05-12T13:57:32.000Z</time>
      </trkpt>
      <trkpt lat="50.80251" lon="1.89271">
        <ele>153</ele>
        <time>2015-05-12T13:57:33.000Z</time>
      </trkpt>
      <trkpt lat="50.80251" lon="1.8927">
        <ele>153</ele>
        <time>2015-05-12T13:57:34.000Z</time>
      </trkpt>
      <trkpt lat="50.80251" lon="1.89269">
        <ele>153</ele>
        <time>2015-05-12T13:57:35.000Z</time>
      </trkpt>
      <trkpt lat="50.80251" lon="1.89268">
        <ele>154</ele>
        <time>2015-05-12T13:57:36.000Z</time>
      </trkpt>
      <trkpt lat="50.80251" lon="1.89267">
        <ele>153</ele>
        <time>2015-05-12T13:57:37.000Z</time>
      </trkpt>
      <trkpt lat="50.80251" lon="1.89266">
        <ele>153</ele>
        <time>2015-05-12T13:57:38.000Z</time>
      </trkpt>
      <trkpt lat="50.80251" lon="1.89265">
        <ele>154</ele>
        <time>2015-05-12T13:57:39.000Z</time>
      </trkpt>
      <trkpt lat="50.8025" lon="1.89263">
        <ele>154</ele>
        <time>2015-05-12T13:57:40.000Z</time>
      </trkpt>
      <trkpt lat="50.8025" lon="1.89262">
        <ele>154</ele>
        <time>2015-05-12T13:57:41.000Z</time>
      </trkpt>
      <trkpt lat="50.80249" lon="1.89261">
        <ele>154</ele>
        <time>2015-05-12T13:57:42.000Z</time>
      </trkpt>
      <trkpt lat="50.80249" lon="1.8926">
        <ele>155</ele>
        <time>2015-05-12T13:57:43.000Z</time>
      </trkpt>
      <trkpt lat="50.80249" lon="1.89259">
        <ele>155</ele>
        <time>2015-05-12T13:57:44.000Z</time>
      </trkpt>
      <trkpt lat="50.80248" lon="1.89257">
        <ele>156</ele>
        <time>2015-05-12T13:57:45.000Z</time>
      </trkpt>
      <trkpt lat="50.80248" lon="1.89256">
        <ele>156</ele>
        <time>2015-05-12T13:57:46.000Z</time>
      </trkpt>
      <trkpt lat="50.80247" lon="1.89255">
        <ele>157</ele>
        <time>2015-05-12T13:57:47.000Z</time>
      </trkpt>
      <trkpt lat="50.80247" lon="1.89253">
        <ele>157</ele>
        <time>2015-05-12T13:57:48.000Z</time>
      </trkpt>
      <trkpt lat="50.80246" lon="1.89251">
        <ele>158</ele>
        <time>2015-05-12T13:57:49.000Z</time>
      </trkpt>
      <trkpt lat="50.80245" lon="1.8925">
        <ele>158</ele>
        <time>2015-05-12T13:57:50.000Z</time>
      </trkpt>
      <trkpt lat="50.80244" lon="1.89249">
        <ele>159</ele>
        <time>2015-05-12T13:57:51.000Z</time>
      </trkpt>
      <trkpt lat="50.80243" lon="1.89248">
        <ele>160</ele>
        <time>2015-05-12T13:57:52.000Z</time>
      </trkpt>
      <trkpt lat="50.80242" lon="1.89246">
        <ele>160</ele>
        <time>2015-05-12T13:57:53.000Z</time>
      </trkpt>
      <trkpt lat="50.80242" lon="1.89244">
        <ele>160</ele>
        <time>2015-05-12T13:57:54.000Z</time>
      </trkpt>
      <trkpt lat="50.80241" lon="1.89243">
        <ele>160</ele>
        <time>2015-05-12T13:57:55.000Z</time>
      </trkpt>
      <trkpt lat="50.80241" lon="1.89241">
        <ele>160</ele>
        <time>2015-05-12T13:57:56.000Z</time>
      </trkpt>
      <trkpt lat="50.80241" lon="1.8924">
        <ele>160</ele>
        <time>2015-05-12T13:57:57.000Z</time>
      </trkpt>
      <trkpt lat="50.8024" lon="1.89238">
        <ele>161</ele>
        <time>2015-05-12T13:57:58.000Z</time>
      </trkpt>
      <trkpt lat="50.80239" lon="1.89236">
        <ele>161</ele>
        <time>2015-05-12T13:57:59.000Z</time>
      </trkpt>
      <trkpt lat="50.80239" lon="1.89234">
        <ele>161</ele>
        <time>2015-05-12T13:58:00.000Z</time>
      </trkpt>
      <trkpt lat="50.80238" lon="1.89232">
        <ele>161</ele>
        <time>2015-05-12T13:58:01.000Z</time>
      </trkpt>
      <trkpt lat="50.80238" lon="1.89231">
        <ele>161</ele>
        <time>2015-05-12T13:58:02.000Z</time>
      </trkpt>
      <trkpt lat="50.80238" lon="1.89229">
        <ele>161</ele>
        <time>2015-05-12T13:58:03.000Z</time>
      </trkpt>
      <trkpt lat="50.80237" lon="1.89228">
        <ele>161</ele>
        <time>2015-05-12T13:58:04.000Z</time>
      </trkpt>
      <trkpt lat="50.80236" lon="1.89226">
        <ele>161</ele>
        <time>2015-05-12T13:58:05.000Z</time>
      </trkpt>
      <trkpt lat="50.80236" lon="1.89225">
        <ele>161</ele>
        <time>2015-05-12T13:58:06.000Z</time>
      </trkpt>
      <trkpt lat="50.80236" lon="1.89224">
        <ele>161</ele>
        <time>2015-05-12T13:58:07.000Z</time>
      </trkpt>
      <trkpt lat="50.80235" lon="1.89223">
        <ele>161</ele>
        <time>2015-05-12T13:58:08.000Z</time>
      </trkpt>
      <trkpt lat="50.80235" lon="1.89223">
        <ele>161</ele>
        <time>2015-05-12T13:58:09.000Z</time>
      </trkpt>
      <trkpt lat="50.80234" lon="1.89221">
        <ele>160</ele>
        <time>2015-05-12T13:58:10.000Z</time>
      </trkpt>
      <trkpt lat="50.80234" lon="1.89219">
        <ele>160</ele>
        <time>2015-05-12T13:58:11.000Z</time>
      </trkpt>
      <trkpt lat="50.80233" lon="1.89217">
        <ele>160</ele>
        <time>2015-05-12T13:58:12.000Z</time>
      </trkpt>
      <trkpt lat="50.80232" lon="1.89216">
        <ele>160</ele>
        <time>2015-05-12T13:58:13.000Z</time>
      </trkpt>
      <trkpt lat="50.80232" lon="1.89214">
        <ele>160</ele>
        <time>2015-05-12T13:58:14.000Z</time>
      </trkpt>
      <trkpt lat="50.80231" lon="1.89213">
        <ele>160</ele>
        <time>2015-05-12T13:58:15.000Z</time>
      </trkpt>
      <trkpt lat="50.8023" lon="1.89211">
        <ele>160</ele>
        <time>2015-05-12T13:58:16.000Z</time>
      </trkpt>
      <trkpt lat="50.80229" lon="1.89208">
        <ele>160</ele>
        <time>2015-05-12T13:58:17.000Z</time>
      </trkpt>
      <trkpt lat="50.80227" lon="1.89206">
        <ele>161</ele>
        <time>2015-05-12T13:58:18.000Z</time>
      </trkpt>
      <trkpt lat="50.80226" lon="1.89204">
        <ele>160</ele>
        <time>2015-05-12T13:58:19.000Z</time>
      </trkpt>
      <trkpt lat="50.80224" lon="1.89202">
        <ele>161</ele>
        <time>2015-05-12T13:58:20.000Z</time>
      </trkpt>
      <trkpt lat="50.80223" lon="1.892">
        <ele>162</ele>
        <time>2015-05-12T13:58:21.000Z</time>
      </trkpt>
      <trkpt lat="50.80223" lon="1.89198">
        <ele>161</ele>
        <time>2015-05-12T13:58:22.000Z</time>
      </trkpt>
      <trkpt lat="50.80222" lon="1.89196">
        <ele>161</ele>
        <time>2015-05-12T13:58:23.000Z</time>
      </trkpt>
      <trkpt lat="50.80222" lon="1.89195">
        <ele>162</ele>
        <time>2015-05-12T13:58:24.000Z</time>
      </trkpt>
      <trkpt lat="50.80221" lon="1.89193">
        <ele>162</ele>
        <time>2015-05-12T13:58:25.000Z</time>
      </trkpt>
      <trkpt lat="50.80221" lon="1.89191">
        <ele>162</ele>
        <time>2015-05-12T13:58:26.000Z</time>
      </trkpt>
      <trkpt lat="50.8022" lon="1.89189">
        <ele>162</ele>
        <time>2015-05-12T13:58:27.000Z</time>
      </trkpt>
      <trkpt lat="50.80219" lon="1.89187">
        <ele>162</ele>
        <time>2015-05-12T13:58:28.000Z</time>
      </trkpt>
      <trkpt lat="50.80218" lon="1.89186">
        <ele>162</ele>
        <time>2015-05-12T13:58:29.000Z</time>
      </trkpt>
      <trkpt lat="50.80218" lon="1.89184">
        <ele>162</ele>
        <time>2015-05-12T13:58:30.000Z</time>
      </trkpt>
      <trkpt lat="50.80217" lon="1.89183">
        <ele>162</ele>
        <time>2015-05-12T13:58:31.000Z</time>
      </trkpt>
      <trkpt lat="50.80216" lon="1.89181">
        <ele>161</ele>
        <time>2015-05-12T13:58:32.000Z</time>
      </trkpt>
      <trkpt lat="50.80216" lon="1.8918">
        <ele>160</ele>
        <time>2015-05-12T13:58:33.000Z</time>
      </trkpt>
      <trkpt lat="50.80216" lon="1.89178">
        <ele>159</ele>
        <time>2015-05-12T13:58:34.000Z</time>
      </trkpt>
      <trkpt lat="50.80215" lon="1.89177">
        <ele>159</ele>
        <time>2015-05-12T13:58:35.000Z</time>
      </trkpt>
      <trkpt lat="50.80215" lon="1.89176">
        <ele>160</ele>
        <time>2015-05-12T13:58:36.000Z</time>
      </trkpt>
      <trkpt lat="50.80214" lon="1.89175">
        <ele>160</ele>
        <time>2015-05-12T13:58:37.000Z</time>
      </trkpt>
      <trkpt lat="50.80213" lon="1.89173">
        <ele>161</ele>
        <time>2015-05-12T13:58:38.000Z</time>
      </trkpt>
      <trkpt lat="50.80212" lon="1.89172">
        <ele>161</ele>
        <time>2015-05-12T13:58:39.000Z</time>
      </trkpt>
      <trkpt lat="50.80211" lon="1.8917">
        <ele>162</ele>
        <time>2015-05-12T13:58:40.000Z</time>
      </trkpt>
      <trkpt lat="50.80211" lon="1.89168">
        <ele>162</ele>
        <time>2015-05-12T13:58:41.000Z</time>
      </trkpt>
      <trkpt lat="50.8021" lon="1.89166">
        <ele>162</ele>
        <time>2015-05-12T13:58:42.000Z</time>
      </trkpt>
      <trkpt lat="50.80209" lon="1.89165">
        <ele>162</ele>
        <time>2015-05-12T13:58:43.000Z</time>
      </trkpt>
      <trkpt lat="50.80208" lon="1.89164">
        <ele>162</ele>
        <time>2015-05-12T13:58:44.000Z</time>
      </trkpt>
      <trkpt lat="50.80208" lon="1.89163">
        <ele>163</ele>
        <time>2015-05-12T13:58:45.000Z</time>
      </trkpt>
      <trkpt lat="50.80207" lon="1.89161">
        <ele>163</ele>
        <time>2015-05-12T13:58:46.000Z</time>
      </trkpt>
      <trkpt lat="50.80207" lon="1.89159">
        <ele>163</ele>
        <time>2015-05-12T13:58:47.000Z</time>
      </trkpt>
      <trkpt lat="50.80206" lon="1.89157">
        <ele>163</ele>
        <time>2015-05-12T13:58:48.000Z</time>
      </trkpt>
      <trkpt lat="50.80205" lon="1.89156">
        <ele>164</ele>
        <time>2015-05-12T13:58:49.000Z</time>
      </trkpt>
      <trkpt lat="50.80205" lon="1.89153">
        <ele>164</ele>
        <time>2015-05-12T13:58:50.000Z</time>
      </trkpt>
      <trkpt lat="50.80204" lon="1.89151">
        <ele>165</ele>
        <time>2015-05-12T13:58:51.000Z</time>
      </trkpt>
      <trkpt lat="50.80203" lon="1.89149">
        <ele>166</ele>
        <time>2015-05-12T13:58:52.000Z</time>
      </trkpt>
      <trkpt lat="50.80202" lon="1.89146">
        <ele>166</ele>
        <time>2015-05-12T13:58:53.000Z</time>
      </trkpt>
      <trkpt lat="50.80202" lon="1.89145">
        <ele>165</ele>
        <time>2015-05-12T13:58:54.000Z</time>
      </trkpt>
      <trkpt lat="50.80202" lon="1.89144">
        <ele>164</ele>
        <time>2015-05-12T13:58:55.000Z</time>
      </trkpt>
      <trkpt lat="50.80201" lon="1.89142">
        <ele>165</ele>
        <time>2015-05-12T13:58:56.000Z</time>
      </trkpt>
      <trkpt lat="50.80201" lon="1.8914">
        <ele>163</ele>
        <time>2015-05-12T13:58:57.000Z</time>
      </trkpt>
      <trkpt lat="50.802" lon="1.89137">
        <ele>163</ele>
        <time>2015-05-12T13:58:58.000Z</time>
      </trkpt>
      <trkpt lat="50.802" lon="1.89135">
        <ele>163</ele>
        <time>2015-05-12T13:58:59.000Z</time>
      </trkpt>
      <trkpt lat="50.80201" lon="1.89133">
        <ele>163</ele>
        <time>2015-05-12T13:59:00.000Z</time>
      </trkpt>
      <trkpt lat="50.802" lon="1.89131">
        <ele>164</ele>
        <time>2015-05-12T13:59:01.000Z</time>
      </trkpt>
      <trkpt lat="50.802" lon="1.89129">
        <ele>164</ele>
        <time>2015-05-12T13:59:02.000Z</time>
      </trkpt>
      <trkpt lat="50.80199" lon="1.89127">
        <ele>164</ele>
        <time>2015-05-12T13:59:03.000Z</time>
      </trkpt>
      <trkpt lat="50.80199" lon="1.89126">
        <ele>164</ele>
        <time>2015-05-12T13:59:04.000Z</time>
      </trkpt>
      <trkpt lat="50.80198" lon="1.89124">
        <ele>163</ele>
        <time>2015-05-12T13:59:05.000Z</time>
      </trkpt>
      <trkpt lat="50.80198" lon="1.89123">
        <ele>163</ele>
        <time>2015-05-12T13:59:06.000Z</time>
      </trkpt>
      <trkpt lat="50.80197" lon="1.89122">
        <ele>163</ele>
        <time>2015-05-12T13:59:07.000Z</time>
      </trkpt>
      <trkpt lat="50.80197" lon="1.8912">
        <ele>164</ele>
        <time>2015-05-12T13:59:08.000Z</time>
      </trkpt>
      <trkpt lat="50.80197" lon="1.89119">
        <ele>164</ele>
        <time>2015-05-12T13:59:09.000Z</time>
      </trkpt>
      <trkpt lat="50.80197" lon="1.89117">
        <ele>165</ele>
        <time>2015-05-12T13:59:10.000Z</time>
      </trkpt>
      <trkpt lat="50.80196" lon="1.89116">
        <ele>165</ele>
        <time>2015-05-12T13:59:11.000Z</time>
      </trkpt>
      <trkpt lat="50.80196" lon="1.89115">
        <ele>165</ele>
        <time>2015-05-12T13:59:12.000Z</time>
      </trkpt>
      <trkpt lat="50.80195" lon="1.89114">
        <ele>165</ele>
        <time>2015-05-12T13:59:13.000Z</time>
      </trkpt>
      <trkpt lat="50.80195" lon="1.89112">
        <ele>164</ele>
        <time>2015-05-12T13:59:14.000Z</time>
      </trkpt>
      <trkpt lat="50.80195" lon="1.89111">
        <ele>163</ele>
        <time>2015-05-12T13:59:15.000Z</time>
      </trkpt>
      <trkpt lat="50.80195" lon="1.89109">
        <ele>164</ele>
        <time>2015-05-12T13:59:16.000Z</time>
      </trkpt>
      <trkpt lat="50.80195" lon="1.89108">
        <ele>164</ele>
        <time>2015-05-12T13:59:17.000Z</time>
      </trkpt>
      <trkpt lat="50.80194" lon="1.89106">
        <ele>165</ele>
        <time>2015-05-12T13:59:18.000Z</time>
      </trkpt>
      <trkpt lat="50.80193" lon="1.89105">
        <ele>164</ele>
        <time>2015-05-12T13:59:19.000Z</time>
      </trkpt>
      <trkpt lat="50.80193" lon="1.89103">
        <ele>164</ele>
        <time>2015-05-12T13:59:20.000Z</time>
      </trkpt>
      <trkpt lat="50.80193" lon="1.89101">
        <ele>164</ele>
        <time>2015-05-12T13:59:21.000Z</time>
      </trkpt>
      <trkpt lat="50.80192" lon="1.891">
        <ele>165</ele>
        <time>2015-05-12T13:59:22.000Z</time>
      </trkpt>
      <trkpt lat="50.80192" lon="1.89098">
        <ele>165</ele>
        <time>2015-05-12T13:59:23.000Z</time>
      </trkpt>
      <trkpt lat="50.80191" lon="1.89096">
        <ele>165</ele>
        <time>2015-05-12T13:59:24.000Z</time>
      </trkpt>
      <trkpt lat="50.8019" lon="1.89094">
        <ele>165</ele>
        <time>2015-05-12T13:59:25.000Z</time>
      </trkpt>
      <trkpt lat="50.80189" lon="1.89093">
        <ele>166</ele>
        <time>2015-05-12T13:59:26.000Z</time>
      </trkpt>
      <trkpt lat="50.80188" lon="1.89091">
        <ele>167</ele>
        <time>2015-05-12T13:59:27.000Z</time>
      </trkpt>
      <trkpt lat="50.80187" lon="1.89089">
        <ele>168</ele>
        <time>2015-05-12T13:59:28.000Z</time>
      </trkpt>
      <trkpt lat="50.80186" lon="1.89088">
        <ele>169</ele>
        <time>2015-05-12T13:59:29.000Z</time>
      </trkpt>
      <trkpt lat="50.80185" lon="1.89086">
        <ele>169</ele>
        <time>2015-05-12T13:59:30.000Z</time>
      </trkpt>
      <trkpt lat="50.80184" lon="1.89085">
        <ele>169</ele>
        <time>2015-05-12T13:59:31.000Z</time>
      </trkpt>
      <trkpt lat="50.80183" lon="1.89083">
        <ele>168</ele>
        <time>2015-05-12T13:59:32.000Z</time>
      </trkpt>
      <trkpt lat="50.80183" lon="1.89081">
        <ele>167</ele>
        <time>2015-05-12T13:59:33.000Z</time>
      </trkpt>
      <trkpt lat="50.80182" lon="1.89079">
        <ele>167</ele>
        <time>2015-05-12T13:59:34.000Z</time>
      </trkpt>
      <trkpt lat="50.80182" lon="1.89077">
        <ele>166</ele>
        <time>2015-05-12T13:59:35.000Z</time>
      </trkpt>
      <trkpt lat="50.80181" lon="1.89076">
        <ele>166</ele>
        <time>2015-05-12T13:59:36.000Z</time>
      </trkpt>
      <trkpt lat="50.80181" lon="1.89074">
        <ele>166</ele>
        <time>2015-05-12T13:59:37.000Z</time>
      </trkpt>
      <trkpt lat="50.8018" lon="1.89073">
        <ele>166</ele>
        <time>2015-05-12T13:59:38.000Z</time>
      </trkpt>
      <trkpt lat="50.80179" lon="1.89071">
        <ele>167</ele>
        <time>2015-05-12T13:59:39.000Z</time>
      </trkpt>
      <trkpt lat="50.80179" lon="1.89069">
        <ele>167</ele>
        <time>2015-05-12T13:59:40.000Z</time>
      </trkpt>
      <trkpt lat="50.80179" lon="1.89066">
        <ele>166</ele>
        <time>2015-05-12T13:59:41.000Z</time>
      </trkpt>
      <trkpt lat="50.80178" lon="1.89064">
        <ele>166</ele>
        <time>2015-05-12T13:59:42.000Z</time>
      </trkpt>
      <trkpt lat="50.80178" lon="1.89061">
        <ele>166</ele>
        <time>2015-05-12T13:59:43.000Z</time>
      </trkpt>
      <trkpt lat="50.80177" lon="1.89059">
        <ele>166</ele>
        <time>2015-05-12T13:59:44.000Z</time>
      </trkpt>
      <trkpt lat="50.80177" lon="1.89057">
        <ele>166</ele>
        <time>2015-05-12T13:59:45.000Z</time>
      </trkpt>
      <trkpt lat="50.80176" lon="1.89056">
        <ele>166</ele>
        <time>2015-05-12T13:59:46.000Z</time>
      </trkpt>
      <trkpt lat="50.80175" lon="1.89054">
        <ele>166</ele>
        <time>2015-05-12T13:59:47.000Z</time>
      </trkpt>
      <trkpt lat="50.80175" lon="1.89052">
        <ele>165</ele>
        <time>2015-05-12T13:59:48.000Z</time>
      </trkpt>
      <trkpt lat="50.80175" lon="1.8905">
        <ele>165</ele>
        <time>2015-05-12T13:59:49.000Z</time>
      </trkpt>
      <trkpt lat="50.80174" lon="1.89048">
        <ele>165</ele>
        <time>2015-05-12T13:59:50.000Z</time>
      </trkpt>
      <trkpt lat="50.80174" lon="1.89046">
        <ele>165</ele>
        <time>2015-05-12T13:59:51.000Z</time>
      </trkpt>
      <trkpt lat="50.80174" lon="1.89044">
        <ele>166</ele>
        <time>2015-05-12T13:59:52.000Z</time>
      </trkpt>
      <trkpt lat="50.80174" lon="1.89042">
        <ele>166</ele>
        <time>2015-05-12T13:59:53.000Z</time>
      </trkpt>
      <trkpt lat="50.80174" lon="1.8904">
        <ele>165</ele>
        <time>2015-05-12T13:59:54.000Z</time>
      </trkpt>
      <trkpt lat="50.80174" lon="1.89038">
        <ele>165</ele>
        <time>2015-05-12T13:59:55.000Z</time>
      </trkpt>
      <trkpt lat="50.80174" lon="1.89036">
        <ele>166</ele>
        <time>2015-05-12T13:59:56.000Z</time>
      </trkpt>
      <trkpt lat="50.80174" lon="1.89034">
        <ele>166</ele>
        <time>2015-05-12T13:59:57.000Z</time>
      </trkpt>
      <trkpt lat="50.80174" lon="1.89033">
        <ele>166</ele>
        <time>2015-05-12T13:59:58.000Z</time>
      </trkpt>
      <trkpt lat="50.80174" lon="1.89031">
        <ele>166</ele>
        <time>2015-05-12T13:59:59.000Z</time>
      </trkpt>
      <trkpt lat="50.80173" lon="1.89029">
        <ele>166</ele>
        <time>2015-05-12T14:00:00.000Z</time>
      </trkpt>
      <trkpt lat="50.80173" lon="1.89027">
        <ele>166</ele>
        <time>2015-05-12T14:00:01.000Z</time>
      </trkpt>
      <trkpt lat="50.80172" lon="1.89026">
        <ele>166</ele>
        <time>2015-05-12T14:00:02.000Z</time>
      </trkpt>
      <trkpt lat="50.80172" lon="1.89024">
        <ele>166</ele>
        <time>2015-05-12T14:00:03.000Z</time>
      </trkpt>
      <trkpt lat="50.80172" lon="1.89022">
        <ele>165</ele>
        <time>2015-05-12T14:00:04.000Z</time>
      </trkpt>
      <trkpt lat="50.80172" lon="1.8902">
        <ele>165</ele>
        <time>2015-05-12T14:00:05.000Z</time>
      </trkpt>
      <trkpt lat="50.80172" lon="1.89018">
        <ele>165</ele>
        <time>2015-05-12T14:00:06.000Z</time>
      </trkpt>
      <trkpt lat="50.80172" lon="1.89016">
        <ele>164</ele>
        <time>2015-05-12T14:00:07.000Z</time>
      </trkpt>
      <trkpt lat="50.80171" lon="1.89014">
        <ele>164</ele>
        <time>2015-05-12T14:00:08.000Z</time>
      </trkpt>
      <trkpt lat="50.80171" lon="1.89012">
        <ele>164</ele>
        <time>2015-05-12T14:00:09.000Z</time>
      </trkpt>
      <trkpt lat="50.80171" lon="1.89011">
        <ele>164</ele>
        <time>2015-05-12T14:00:10.000Z</time>
      </trkpt>
      <trkpt lat="50.8017" lon="1.89009">
        <ele>166</ele>
        <time>2015-05-12T14:00:11.000Z</time>
      </trkpt>
      <trkpt lat="50.80169" lon="1.89008">
        <ele>166</ele>
        <time>2015-05-12T14:00:12.000Z</time>
      </trkpt>
      <trkpt lat="50.80168" lon="1.89006">
        <ele>167</ele>
        <time>2015-05-12T14:00:13.000Z</time>
      </trkpt>
      <trkpt lat="50.80167" lon="1.89005">
        <ele>167</ele>
        <time>2015-05-12T14:00:14.000Z</time>
      </trkpt>
      <trkpt lat="50.80167" lon="1.89003">
        <ele>167</ele>
        <time>2015-05-12T14:00:15.000Z</time>
      </trkpt>
      <trkpt lat="50.80167" lon="1.89002">
        <ele>167</ele>
        <time>2015-05-12T14:00:16.000Z</time>
      </trkpt>
      <trkpt lat="50.80167" lon="1.89">
        <ele>167</ele>
        <time>2015-05-12T14:00:17.000Z</time>
      </trkpt>
      <trkpt lat="50.80166" lon="1.88998">
        <ele>167</ele>
        <time>2015-05-12T14:00:18.000Z</time>
      </trkpt>
      <trkpt lat="50.80166" lon="1.88996">
        <ele>168</ele>
        <time>2015-05-12T14:00:19.000Z</time>
      </trkpt>
      <trkpt lat="50.80166" lon="1.88995">
        <ele>168</ele>
        <time>2015-05-12T14:00:20.000Z</time>
      </trkpt>
      <trkpt lat="50.80166" lon="1.88993">
        <ele>168</ele>
        <time>2015-05-12T14:00:21.000Z</time>
      </trkpt>
      <trkpt lat="50.80165" lon="1.88991">
        <ele>169</ele>
        <time>2015-05-12T14:00:22.000Z</time>
      </trkpt>
      <trkpt lat="50.80164" lon="1.88989">
        <ele>169</ele>
        <time>2015-05-12T14:00:23.000Z</time>
      </trkpt>
      <trkpt lat="50.80164" lon="1.88986">
        <ele>167</ele>
        <time>2015-05-12T14:00:24.000Z</time>
      </trkpt>
      <trkpt lat="50.80163" lon="1.88983">
        <ele>166</ele>
        <time>2015-05-12T14:00:25.000Z</time>
      </trkpt>
      <trkpt lat="50.80162" lon="1.88981">
        <ele>166</ele>
        <time>2015-05-12T14:00:26.000Z</time>
      </trkpt>
      <trkpt lat="50.80161" lon="1.88979">
        <ele>167</ele>
        <time>2015-05-12T14:00:27.000Z</time>
      </trkpt>
      <trkpt lat="50.80161" lon="1.88977">
        <ele>168</ele>
        <time>2015-05-12T14:00:28.000Z</time>
      </trkpt>
      <trkpt lat="50.8016" lon="1.88975">
        <ele>168</ele>
        <time>2015-05-12T14:00:29.000Z</time>
      </trkpt>
      <trkpt lat="50.8016" lon="1.88973">
        <ele>168</ele>
        <time>2015-05-12T14:00:30.000Z</time>
      </trkpt>
      <trkpt lat="50.80159" lon="1.88971">
        <ele>168</ele>
        <time>2015-05-12T14:00:31.000Z</time>
      </trkpt>
      <trkpt lat="50.80159" lon="1.88969">
        <ele>169</ele>
        <time>2015-05-12T14:00:32.000Z</time>
      </trkpt>
      <trkpt lat="50.80159" lon="1.88967">
        <ele>168</ele>
        <time>2015-05-12T14:00:33.000Z</time>
      </trkpt>
      <trkpt lat="50.80158" lon="1.88966">
        <ele>168</ele>
        <time>2015-05-12T14:00:34.000Z</time>
      </trkpt>
      <trkpt lat="50.80158" lon="1.88964">
        <ele>168</ele>
        <time>2015-05-12T14:00:35.000Z</time>
      </trkpt>
      <trkpt lat="50.80158" lon="1.88962">
        <ele>167</ele>
        <time>2015-05-12T14:00:36.000Z</time>
      </trkpt>
      <trkpt lat="50.80158" lon="1.8896">
        <ele>167</ele>
        <time>2015-05-12T14:00:37.000Z</time>
      </trkpt>
      <trkpt lat="50.80157" lon="1.88958">
        <ele>168</ele>
        <time>2015-05-12T14:00:38.000Z</time>
      </trkpt>
      <trkpt lat="50.80157" lon="1.88957">
        <ele>168</ele>
        <time>2015-05-12T14:00:39.000Z</time>
      </trkpt>
      <trkpt lat="50.80157" lon="1.88955">
        <ele>168</ele>
        <time>2015-05-12T14:00:40.000Z</time>
      </trkpt>
      <trkpt lat="50.80157" lon="1.88953">
        <ele>169</ele>
        <time>2015-05-12T14:00:41.000Z</time>
      </trkpt>
      <trkpt lat="50.80157" lon="1.88951">
        <ele>169</ele>
        <time>2015-05-12T14:00:42.000Z</time>
      </trkpt>
      <trkpt lat="50.80156" lon="1.8895">
        <ele>170</ele>
        <time>2015-05-12T14:00:43.000Z</time>
      </trkpt>
      <trkpt lat="50.80156" lon="1.88948">
        <ele>171</ele>
        <time>2015-05-12T14:00:44.000Z</time>
      </trkpt>
      <trkpt lat="50.80155" lon="1.88946">
        <ele>171</ele>
        <time>2015-05-12T14:00:45.000Z</time>
      </trkpt>
      <trkpt lat="50.80155" lon="1.88944">
        <ele>172</ele>
        <time>2015-05-12T14:00:46.000Z</time>
      </trkpt>
      <trkpt lat="50.80155" lon="1.88942">
        <ele>171</ele>
        <time>2015-05-12T14:00:47.000Z</time>
      </trkpt>
      <trkpt lat="50.80155" lon="1.88941">
        <ele>172</ele>
        <time>2015-05-12T14:00:48.000Z</time>
      </trkpt>
      <trkpt lat="50.80155" lon="1.8894">
        <ele>173</ele>
        <time>2015-05-12T14:00:49.000Z</time>
      </trkpt>
      <trkpt lat="50.80155" lon="1.88939">
        <ele>174</ele>
        <time>2015-05-12T14:00:50.000Z</time>
      </trkpt>
      <trkpt lat="50.80155" lon="1.88938">
        <ele>174</ele>
        <time>2015-05-12T14:00:51.000Z</time>
      </trkpt>
      <trkpt lat="50.80155" lon="1.88937">
        <ele>173</ele>
        <time>2015-05-12T14:00:52.000Z</time>
      </trkpt>
      <trkpt lat="50.80154" lon="1.88937">
        <ele>171</ele>
        <time>2015-05-12T14:00:53.000Z</time>
      </trkpt>
      <trkpt lat="50.80154" lon="1.88936">
        <ele>171</ele>
        <time>2015-05-12T14:00:54.000Z</time>
      </trkpt>
      <trkpt lat="50.80154" lon="1.88936">
        <ele>172</ele>
        <time>2015-05-12T14:00:55.000Z</time>
      </trkpt>
      <trkpt lat="50.80154" lon="1.88936">
        <ele>172</ele>
        <time>2015-05-12T14:00:56.000Z</time>
      </trkpt>
      <trkpt lat="50.80154" lon="1.88935">
        <ele>172</ele>
        <time>2015-05-12T14:00:57.000Z</time>
      </trkpt>
      <trkpt lat="50.80154" lon="1.88935">
        <ele>173</ele>
        <time>2015-05-12T14:00:58.000Z</time>
      </trkpt>
      <trkpt lat="50.80154" lon="1.88935">
        <ele>174</ele>
        <time>2015-05-12T14:00:59.000Z</time>
      </trkpt>
      <trkpt lat="50.80155" lon="1.88935">
        <ele>175</ele>
        <time>2015-05-12T14:01:00.000Z</time>
      </trkpt>
      <trkpt lat="50.80155" lon="1.88935">
        <ele>175</ele>
        <time>2015-05-12T14:01:01.000Z</time>
      </trkpt>
      <trkpt lat="50.80155" lon="1.88934">
        <ele>176</ele>
        <time>2015-05-12T14:01:02.000Z</time>
      </trkpt>
      <trkpt lat="50.80155" lon="1.88934">
        <ele>176</ele>
        <time>2015-05-12T14:01:03.000Z</time>
      </trkpt>
      <trkpt lat="50.80156" lon="1.88933">
        <ele>176</ele>
        <time>2015-05-12T14:01:04.000Z</time>
      </trkpt>
      <trkpt lat="50.80156" lon="1.88933">
        <ele>177</ele>
        <time>2015-05-12T14:01:05.000Z</time>
      </trkpt>
      <trkpt lat="50.80156" lon="1.88933">
        <ele>177</ele>
        <time>2015-05-12T14:01:06.000Z</time>
      </trkpt>
      <trkpt lat="50.80156" lon="1.88932">
        <ele>177</ele>
        <time>2015-05-12T14:01:07.000Z</time>
      </trkpt>
      <trkpt lat="50.80156" lon="1.88932">
        <ele>177</ele>
        <time>2015-05-12T14:01:08.000Z</time>
      </trkpt>
      <trkpt lat="50.80156" lon="1.88931">
        <ele>176</ele>
        <time>2015-05-12T14:01:09.000Z</time>
      </trkpt>
      <trkpt lat="50.80156" lon="1.88931">
        <ele>177</ele>
        <time>2015-05-12T14:01:10.000Z</time>
      </trkpt>
      <trkpt lat="50.80156" lon="1.88931">
        <ele>177</ele>
        <time>2015-05-12T14:01:11.000Z</time>
      </trkpt>
      <trkpt lat="50.80156" lon="1.88931">
        <ele>178</ele>
        <time>2015-05-12T14:01:12.000Z</time>
      </trkpt>
      <trkpt lat="50.80156" lon="1.8893">
        <ele>177</ele>
        <time>2015-05-12T14:01:13.000Z</time>
      </trkpt>
      <trkpt lat="50.80156" lon="1.88929">
        <ele>177</ele>
        <time>2015-05-12T14:01:14.000Z</time>
      </trkpt>
      <trkpt lat="50.80157" lon="1.88928">
        <ele>177</ele>
        <time>2015-05-12T14:01:15.000Z</time>
      </trkpt>
      <trkpt lat="50.80157" lon="1.88927">
        <ele>177</ele>
        <time>2015-05-12T14:01:16.000Z</time>
      </trkpt>
      <trkpt lat="50.80157" lon="1.88926">
        <ele>177</ele>
        <time>2015-05-12T14:01:17.000Z</time>
      </trkpt>
      <trkpt lat="50.80158" lon="1.88926">
        <ele>178</ele>
        <time>2015-05-12T14:01:18.000Z</time>
      </trkpt>
      <trkpt lat="50.80158" lon="1.88925">
        <ele>178</ele>
        <time>2015-05-12T14:01:19.000Z</time>
      </trkpt>
      <trkpt lat="50.80159" lon="1.88925">
        <ele>178</ele>
        <time>2015-05-12T14:01:20.000Z</time>
      </trkpt>
      <trkpt lat="50.80159" lon="1.88925">
        <ele>177</ele>
        <time>2015-05-12T14:01:21.000Z</time>
      </trkpt>
      <trkpt lat="50.8016" lon="1.88925">
        <ele>178</ele>
        <time>2015-05-12T14:01:22.000Z</time>
      </trkpt>
      <trkpt lat="50.8016" lon="1.88925">
        <ele>178</ele>
        <time>2015-05-12T14:01:23.000Z</time>
      </trkpt>
      <trkpt lat="50.8016" lon="1.88925">
        <ele>178</ele>
        <time>2015-05-12T14:01:24.000Z</time>
      </trkpt>
      <trkpt lat="50.80161" lon="1.88925">
        <ele>179</ele>
        <time>2015-05-12T14:01:25.000Z</time>
      </trkpt>
      <trkpt lat="50.80161" lon="1.88925">
        <ele>179</ele>
        <time>2015-05-12T14:01:26.000Z</time>
      </trkpt>
      <trkpt lat="50.80162" lon="1.88925">
        <ele>180</ele>
        <time>2015-05-12T14:01:27.000Z</time>
      </trkpt>
      <trkpt lat="50.80162" lon="1.88925">
        <ele>180</ele>
        <time>2015-05-12T14:01:28.000Z</time>
      </trkpt>
      <trkpt lat="50.80163" lon="1.88925">
        <ele>180</ele>
        <time>2015-05-12T14:01:29.000Z</time>
      </trkpt>
      <trkpt lat="50.80163" lon="1.88925">
        <ele>181</ele>
        <time>2015-05-12T14:01:30.000Z</time>
      </trkpt>
      <trkpt lat="50.80163" lon="1.88925">
        <ele>181</ele>
        <time>2015-05-12T14:01:31.000Z</time>
      </trkpt>
      <trkpt lat="50.80163" lon="1.88925">
        <ele>182</ele>
        <time>2015-05-12T14:01:32.000Z</time>
      </trkpt>
      <trkpt lat="50.80163" lon="1.88924">
        <ele>182</ele>
        <time>2015-05-12T14:01:33.000Z</time>
      </trkpt>
      <trkpt lat="50.80163" lon="1.88924">
        <ele>182</ele>
        <time>2015-05-12T14:01:34.000Z</time>
      </trkpt>
      <trkpt lat="50.80163" lon="1.88924">
        <ele>182</ele>
        <time>2015-05-12T14:01:35.000Z</time>
      </trkpt>
      <trkpt lat="50.80163" lon="1.88924">
        <ele>182</ele>
        <time>2015-05-12T14:01:36.000Z</time>
      </trkpt>
      <trkpt lat="50.80162" lon="1.88924">
        <ele>182</ele>
        <time>2015-05-12T14:01:37.000Z</time>
      </trkpt>
      <trkpt lat="50.80162" lon="1.88924">
        <ele>183</ele>
        <time>2015-05-12T14:01:38.000Z</time>
      </trkpt>
      <trkpt lat="50.80162" lon="1.88924">
        <ele>183</ele>
        <time>2015-05-12T14:01:39.000Z</time>
      </trkpt>
      <trkpt lat="50.80162" lon="1.88924">
        <ele>183</ele>
        <time>2015-05-12T14:01:40.000Z</time>
      </trkpt>
      <trkpt lat="50.80163" lon="1.88923">
        <ele>183</ele>
        <time>2015-05-12T14:01:41.000Z</time>
      </trkpt>
      <trkpt lat="50.80163" lon="1.88923">
        <ele>184</ele>
        <time>2015-05-12T14:01:42.000Z</time>
      </trkpt>
      <trkpt lat="50.80163" lon="1.88923">
        <ele>184</ele>
        <time>2015-05-12T14:01:43.000Z</time>
      </trkpt>
      <trkpt lat="50.80162" lon="1.88922">
        <ele>184</ele>
        <time>2015-05-12T14:01:44.000Z</time>
      </trkpt>
      <trkpt lat="50.80162" lon="1.88922">
        <ele>185</ele>
        <time>2015-05-12T14:01:45.000Z</time>
      </trkpt>
      <trkpt lat="50.80162" lon="1.88922">
        <ele>185</ele>
        <time>2015-05-12T14:01:46.000Z</time>
      </trkpt>
      <trkpt lat="50.80162" lon="1.88922">
        <ele>185</ele>
        <time>2015-05-12T14:01:47.000Z</time>
      </trkpt>
      <trkpt lat="50.80163" lon="1.88921">
        <ele>185</ele>
        <time>2015-05-12T14:01:48.000Z</time>
      </trkpt>
      <trkpt lat="50.80163" lon="1.88921">
        <ele>185</ele>
        <time>2015-05-12T14:01:49.000Z</time>
      </trkpt>
      <trkpt lat="50.80163" lon="1.88921">
        <ele>185</ele>
        <time>2015-05-12T14:01:50.000Z</time>
      </trkpt>
      <trkpt lat="50.80164" lon="1.88921">
        <ele>186</ele>
        <time>2015-05-12T14:01:51.000Z</time>
      </trkpt>
      <trkpt lat="50.80164" lon="1.88921">
        <ele>186</ele>
        <time>2015-05-12T14:01:52.000Z</time>
      </trkpt>
      <trkpt lat="50.80165" lon="1.88922">
        <ele>186</ele>
        <time>2015-05-12T14:01:53.000Z</time>
      </trkpt>
      <trkpt lat="50.80165" lon="1.88922">
        <ele>186</ele>
        <time>2015-05-12T14:01:54.000Z</time>
      </trkpt>
      <trkpt lat="50.80165" lon="1.88922">
        <ele>186</ele>
        <time>2015-05-12T14:01:55.000Z</time>
      </trkpt>
      <trkpt lat="50.80165" lon="1.88922">
        <ele>186</ele>
        <time>2015-05-12T14:01:56.000Z</time>
      </trkpt>
      <trkpt lat="50.80165" lon="1.88922">
        <ele>186</ele>
        <time>2015-05-12T14:01:57.000Z</time>
      </trkpt>
      <trkpt lat="50.80165" lon="1.88922">
        <ele>186</ele>
        <time>2015-05-12T14:01:58.000Z</time>
      </trkpt>
      <trkpt lat="50.80165" lon="1.88922">
        <ele>186</ele>
        <time>2015-05-12T14:01:59.000Z</time>
      </trkpt>
      <trkpt lat="50.80165" lon="1.88921">
        <ele>186</ele>
        <time>2015-05-12T14:02:00.000Z</time>
      </trkpt>
      <trkpt lat="50.80165" lon="1.88921">
        <ele>187</ele>
        <time>2015-05-12T14:02:01.000Z</time>
      </trkpt>
      <trkpt lat="50.80165" lon="1.88921">
        <ele>186</ele>
        <time>2015-05-12T14:02:02.000Z</time>
      </trkpt>
      <trkpt lat="50.80165" lon="1.88921">
        <ele>186</ele>
        <time>2015-05-12T14:02:03.000Z</time>
      </trkpt>
      <trkpt lat="50.80165" lon="1.88921">
        <ele>186</ele>
        <time>2015-05-12T14:02:04.000Z</time>
      </trkpt>
      <trkpt lat="50.80165" lon="1.88921">
        <ele>186</ele>
        <time>2015-05-12T14:02:05.000Z</time>
      </trkpt>
      <trkpt lat="50.80165" lon="1.88922">
        <ele>185</ele>
        <time>2015-05-12T14:02:06.000Z</time>
      </trkpt>
      <trkpt lat="50.80164" lon="1.88922">
        <ele>185</ele>
        <time>2015-05-12T14:02:07.000Z</time>
      </trkpt>
      <trkpt lat="50.80164" lon="1.88922">
        <ele>185</ele>
        <time>2015-05-12T14:02:08.000Z</time>
      </trkpt>
      <trkpt lat="50.80164" lon="1.88922">
        <ele>185</ele>
        <time>2015-05-12T14:02:09.000Z</time>
      </trkpt>
      <trkpt lat="50.80164" lon="1.88922">
        <ele>185</ele>
        <time>2015-05-12T14:02:10.000Z</time>
      </trkpt>
      <trkpt lat="50.80164" lon="1.88922">
        <ele>186</ele>
        <time>2015-05-12T14:02:11.000Z</time>
      </trkpt>
      <trkpt lat="50.80163" lon="1.88922">
        <ele>186</ele>
        <time>2015-05-12T14:02:12.000Z</time>
      </trkpt>
      <trkpt lat="50.80163" lon="1.88922">
        <ele>186</ele>
        <time>2015-05-12T14:02:13.000Z</time>
      </trkpt>
      <trkpt lat="50.80163" lon="1.88922">
        <ele>186</ele>
        <time>2015-05-12T14:02:14.000Z</time>
      </trkpt>
      <trkpt lat="50.80163" lon="1.88922">
        <ele>186</ele>
        <time>2015-05-12T14:02:15.000Z</time>
      </trkpt>
      <trkpt lat="50.80163" lon="1.88922">
        <ele>186</ele>
        <time>2015-05-12T14:02:16.000Z</time>
      </trkpt>
      <trkpt lat="50.80163" lon="1.88923">
        <ele>186</ele>
        <time>2015-05-12T14:02:17.000Z</time>
      </trkpt>
      <trkpt lat="50.80163" lon="1.88923">
        <ele>185</ele>
        <time>2015-05-12T14:02:18.000Z</time>
      </trkpt>
      <trkpt lat="50.80163" lon="1.88923">
        <ele>185</ele>
        <time>2015-05-12T14:02:19.000Z</time>
      </trkpt>
      <trkpt lat="50.80163" lon="1.88923">
        <ele>184</ele>
        <time>2015-05-12T14:02:20.000Z</time>
      </trkpt>
      <trkpt lat="50.80162" lon="1.88923">
        <ele>185</ele>
        <time>2015-05-12T14:02:21.000Z</time>
      </trkpt>
      <trkpt lat="50.80162" lon="1.88924">
        <ele>184</ele>
        <time>2015-05-12T14:02:22.000Z</time>
      </trkpt>
      <trkpt lat="50.8016" lon="1.88924">
        <ele>184</ele>
        <time>2015-05-12T14:02:23.000Z</time>
      </trkpt>
      <trkpt lat="50.80159" lon="1.88925">
        <ele>184</ele>
        <time>2015-05-12T14:02:24.000Z</time>
      </trkpt>
      <trkpt lat="50.80158" lon="1.88925">
        <ele>184</ele>
        <time>2015-05-12T14:02:25.000Z</time>
      </trkpt>
      <trkpt lat="50.80158" lon="1.88925">
        <ele>183</ele>
        <time>2015-05-12T14:02:26.000Z</time>
      </trkpt>
      <trkpt lat="50.80157" lon="1.88925">
        <ele>183</ele>
        <time>2015-05-12T14:02:27.000Z</time>
      </trkpt>
      <trkpt lat="50.80157" lon="1.88926">
        <ele>183</ele>
        <time>2015-05-12T14:02:28.000Z</time>
      </trkpt>
      <trkpt lat="50.80156" lon="1.88926">
        <ele>183</ele>
        <time>2015-05-12T14:02:29.000Z</time>
      </trkpt>
      <trkpt lat="50.80156" lon="1.88925">
        <ele>183</ele>
        <time>2015-05-12T14:02:30.000Z</time>
      </trkpt>
      <trkpt lat="50.80155" lon="1.88925">
        <ele>183</ele>
        <time>2015-05-12T14:02:31.000Z</time>
      </trkpt>
      <trkpt lat="50.80155" lon="1.88925">
        <ele>183</ele>
        <time>2015-05-12T14:02:32.000Z</time>
      </trkpt>
      <trkpt lat="50.80155" lon="1.88925">
        <ele>182</ele>
        <time>2015-05-12T14:02:33.000Z</time>
      </trkpt>
      <trkpt lat="50.80155" lon="1.88925">
        <ele>182</ele>
        <time>2015-05-12T14:02:34.000Z</time>
      </trkpt>
      <trkpt lat="50.80155" lon="1.88924">
        <ele>182</ele>
        <time>2015-05-12T14:02:35.000Z</time>
      </trkpt>
      <trkpt lat="50.80155" lon="1.88924">
        <ele>182</ele>
        <time>2015-05-12T14:02:36.000Z</time>
      </trkpt>
      <trkpt lat="50.80155" lon="1.88924">
        <ele>182</ele>
        <time>2015-05-12T14:02:37.000Z</time>
      </trkpt>
      <trkpt lat="50.80156" lon="1.88924">
        <ele>182</ele>
        <time>2015-05-12T14:02:38.000Z</time>
      </trkpt>
      <trkpt lat="50.80156" lon="1.88924">
        <ele>183</ele>
        <time>2015-05-12T14:02:39.000Z</time>
      </trkpt>
      <trkpt lat="50.80156" lon="1.88924">
        <ele>183</ele>
        <time>2015-05-12T14:02:40.000Z</time>
      </trkpt>
      <trkpt lat="50.80156" lon="1.88923">
        <ele>183</ele>
        <time>2015-05-12T14:02:41.000Z</time>
      </trkpt>
      <trkpt lat="50.80156" lon="1.88923">
        <ele>183</ele>
        <time>2015-05-12T14:02:42.000Z</time>
      </trkpt>
      <trkpt lat="50.80156" lon="1.88923">
        <ele>183</ele>
        <time>2015-05-12T14:02:43.000Z</time>
      </trkpt>
      <trkpt lat="50.80156" lon="1.88923">
        <ele>183</ele>
        <time>2015-05-12T14:02:44.000Z</time>
      </trkpt>
      <trkpt lat="50.80157" lon="1.88923">
        <ele>183</ele>
        <time>2015-05-12T14:02:45.000Z</time>
      </trkpt>
      <trkpt lat="50.80157" lon="1.88923">
        <ele>183</ele>
        <time>2015-05-12T14:02:46.000Z</time>
      </trkpt>
      <trkpt lat="50.80157" lon="1.88923">
        <ele>183</ele>
        <time>2015-05-12T14:02:47.000Z</time>
      </trkpt>
      <trkpt lat="50.80157" lon="1.88923">
        <ele>183</ele>
        <time>2015-05-12T14:02:48.000Z</time>
      </trkpt>
      <trkpt lat="50.80158" lon="1.88923">
        <ele>183</ele>
        <time>2015-05-12T14:02:49.000Z</time>
      </trkpt>
      <trkpt lat="50.80158" lon="1.88923">
        <ele>183</ele>
        <time>2015-05-12T14:02:50.000Z</time>
      </trkpt>
      <trkpt lat="50.80158" lon="1.88923">
        <ele>183</ele>
        <time>2015-05-12T14:02:51.000Z</time>
      </trkpt>
      <trkpt lat="50.80158" lon="1.88923">
        <ele>183</ele>
        <time>2015-05-12T14:02:52.000Z</time>
      </trkpt>
      <trkpt lat="50.80158" lon="1.88923">
        <ele>183</ele>
        <time>2015-05-12T14:02:53.000Z</time>
      </trkpt>
      <trkpt lat="50.80158" lon="1.88923">
        <ele>183</ele>
        <time>2015-05-12T14:02:54.000Z</time>
      </trkpt>
      <trkpt lat="50.80158" lon="1.88923">
        <ele>182</ele>
        <time>2015-05-12T14:02:55.000Z</time>
      </trkpt>
      <trkpt lat="50.80158" lon="1.88924">
        <ele>183</ele>
        <time>2015-05-12T14:02:56.000Z</time>
      </trkpt>
      <trkpt lat="50.80158" lon="1.88925">
        <ele>183</ele>
        <time>2015-05-12T14:02:57.000Z</time>
      </trkpt>
      <trkpt lat="50.80157" lon="1.88925">
        <ele>183</ele>
        <time>2015-05-12T14:02:58.000Z</time>
      </trkpt>
      <trkpt lat="50.80157" lon="1.88925">
        <ele>183</ele>
        <time>2015-05-12T14:02:59.000Z</time>
      </trkpt>
      <trkpt lat="50.80157" lon="1.88925">
        <ele>183</ele>
        <time>2015-05-12T14:03:00.000Z</time>
      </trkpt>
      <trkpt lat="50.80157" lon="1.88925">
        <ele>183</ele>
        <time>2015-05-12T14:03:01.000Z</time>
      </trkpt>
      <trkpt lat="50.80157" lon="1.88925">
        <ele>183</ele>
        <time>2015-05-12T14:03:02.000Z</time>
      </trkpt>
      <trkpt lat="50.80157" lon="1.88925">
        <ele>183</ele>
        <time>2015-05-12T14:03:03.000Z</time>
      </trkpt>
      <trkpt lat="50.80157" lon="1.88926">
        <ele>182</ele>
        <time>2015-05-12T14:03:04.000Z</time>
      </trkpt>
      <trkpt lat="50.80157" lon="1.88926">
        <ele>182</ele>
        <time>2015-05-12T14:03:05.000Z</time>
      </trkpt>
      <trkpt lat="50.80157" lon="1.88926">
        <ele>182</ele>
        <time>2015-05-12T14:03:06.000Z</time>
      </trkpt>
      <trkpt lat="50.80156" lon="1.88926">
        <ele>183</ele>
        <time>2015-05-12T14:03:07.000Z</time>
      </trkpt>
      <trkpt lat="50.80156" lon="1.88926">
        <ele>182</ele>
        <time>2015-05-12T14:03:08.000Z</time>
      </trkpt>
      <trkpt lat="50.80156" lon="1.88926">
        <ele>182</ele>
        <time>2015-05-12T14:03:09.000Z</time>
      </trkpt>
      <trkpt lat="50.80156" lon="1.88926">
        <ele>182</ele>
        <time>2015-05-12T14:03:10.000Z</time>
      </trkpt>
      <trkpt lat="50.80156" lon="1.88926">
        <ele>182</ele>
        <time>2015-05-12T14:03:11.000Z</time>
      </trkpt>
      <trkpt lat="50.80156" lon="1.88925">
        <ele>182</ele>
        <time>2015-05-12T14:03:12.000Z</time>
      </trkpt>
      <trkpt lat="50.80157" lon="1.88925">
        <ele>182</ele>
        <time>2015-05-12T14:03:13.000Z</time>
      </trkpt>
      <trkpt lat="50.80157" lon="1.88925">
        <ele>182</ele>
        <time>2015-05-12T14:03:14.000Z</time>
      </trkpt>
      <trkpt lat="50.80157" lon="1.88926">
        <ele>183</ele>
        <time>2015-05-12T14:03:15.000Z</time>
      </trkpt>
      <trkpt lat="50.80157" lon="1.88926">
        <ele>183</ele>
        <time>2015-05-12T14:03:16.000Z</time>
      </trkpt>
      <trkpt lat="50.80157" lon="1.88926">
        <ele>183</ele>
        <time>2015-05-12T14:03:17.000Z</time>
      </trkpt>
      <trkpt lat="50.80157" lon="1.88926">
        <ele>184</ele>
        <time>2015-05-12T14:03:18.000Z</time>
      </trkpt>
      <trkpt lat="50.80157" lon="1.88926">
        <ele>184</ele>
        <time>2015-05-12T14:03:19.000Z</time>
      </trkpt>
      <trkpt lat="50.80157" lon="1.88926">
        <ele>184</ele>
        <time>2015-05-12T14:03:20.000Z</time>
      </trkpt>
      <trkpt lat="50.80157" lon="1.88926">
        <ele>185</ele>
        <time>2015-05-12T14:03:21.000Z</time>
      </trkpt>
      <trkpt lat="50.80157" lon="1.88926">
        <ele>184</ele>
        <time>2015-05-12T14:03:22.000Z</time>
      </trkpt>
      <trkpt lat="50.80157" lon="1.88926">
        <ele>184</ele>
        <time>2015-05-12T14:03:23.000Z</time>
      </trkpt>
      <trkpt lat="50.80157" lon="1.88927">
        <ele>185</ele>
        <time>2015-05-12T14:03:24.000Z</time>
      </trkpt>
      <trkpt lat="50.80156" lon="1.88927">
        <ele>185</ele>
        <time>2015-05-12T14:03:25.000Z</time>
      </trkpt>
      <trkpt lat="50.80157" lon="1.88927">
        <ele>186</ele>
        <time>2015-05-12T14:03:26.000Z</time>
      </trkpt>
      <trkpt lat="50.80157" lon="1.88928">
        <ele>186</ele>
        <time>2015-05-12T14:03:27.000Z</time>
      </trkpt>
      <trkpt lat="50.80157" lon="1.88928">
        <ele>186</ele>
        <time>2015-05-12T14:03:28.000Z</time>
      </trkpt>
      <trkpt lat="50.80156" lon="1.88928">
        <ele>187</ele>
        <time>2015-05-12T14:03:29.000Z</time>
      </trkpt>
      <trkpt lat="50.80156" lon="1.88928">
        <ele>186</ele>
        <time>2015-05-12T14:03:30.000Z</time>
      </trkpt>
      <trkpt lat="50.80156" lon="1.88928">
        <ele>186</ele>
        <time>2015-05-12T14:03:31.000Z</time>
      </trkpt>
      <trkpt lat="50.80156" lon="1.88928">
        <ele>186</ele>
        <time>2015-05-12T14:03:32.000Z</time>
      </trkpt>
      <trkpt lat="50.80156" lon="1.88928">
        <ele>186</ele>
        <time>2015-05-12T14:03:33.000Z</time>
      </trkpt>
      <trkpt lat="50.80155" lon="1.88928">
        <ele>185</ele>
        <time>2015-05-12T14:03:34.000Z</time>
      </trkpt>
      <trkpt lat="50.80155" lon="1.88928">
        <ele>185</ele>
        <time>2015-05-12T14:03:35.000Z</time>
      </trkpt>
      <trkpt lat="50.80155" lon="1.88927">
        <ele>184</ele>
        <time>2015-05-12T14:03:36.000Z</time>
      </trkpt>
      <trkpt lat="50.80155" lon="1.88927">
        <ele>184</ele>
        <time>2015-05-12T14:03:37.000Z</time>
      </trkpt>
      <trkpt lat="50.80154" lon="1.88926">
        <ele>184</ele>
        <time>2015-05-12T14:03:38.000Z</time>
      </trkpt>
      <trkpt lat="50.80154" lon="1.88926">
        <ele>184</ele>
        <time>2015-05-12T14:03:39.000Z</time>
      </trkpt>
      <trkpt lat="50.80154" lon="1.88926">
        <ele>184</ele>
        <time>2015-05-12T14:03:40.000Z</time>
      </trkpt>
      <trkpt lat="50.80153" lon="1.88926">
        <ele>184</ele>
        <time>2015-05-12T14:03:41.000Z</time>
      </trkpt>
      <trkpt lat="50.80153" lon="1.88926">
        <ele>184</ele>
        <time>2015-05-12T14:03:42.000Z</time>
      </trkpt>
      <trkpt lat="50.80153" lon="1.88926">
        <ele>184</ele>
        <time>2015-05-12T14:03:43.000Z</time>
      </trkpt>
      <trkpt lat="50.80153" lon="1.88926">
        <ele>184</ele>
        <time>2015-05-12T14:03:44.000Z</time>
      </trkpt>
      <trkpt lat="50.80153" lon="1.88927">
        <ele>184</ele>
        <time>2015-05-12T14:03:45.000Z</time>
      </trkpt>
      <trkpt lat="50.80153" lon="1.88927">
        <ele>183</ele>
        <time>2015-05-12T14:03:46.000Z</time>
      </trkpt>
      <trkpt lat="50.80153" lon="1.88927">
        <ele>183</ele>
        <time>2015-05-12T14:03:47.000Z</time>
      </trkpt>
      <trkpt lat="50.80153" lon="1.88927">
        <ele>184</ele>
        <time>2015-05-12T14:03:48.000Z</time>
      </trkpt>
      <trkpt lat="50.80153" lon="1.88927">
        <ele>184</ele>
        <time>2015-05-12T14:03:49.000Z</time>
      </trkpt>
      <trkpt lat="50.80153" lon="1.88928">
        <ele>185</ele>
        <time>2015-05-12T14:03:50.000Z</time>
      </trkpt>
      <trkpt lat="50.80153" lon="1.88928">
        <ele>184</ele>
        <time>2015-05-12T14:03:51.000Z</time>
      </trkpt>
      <trkpt lat="50.80153" lon="1.88928">
        <ele>185</ele>
        <time>2015-05-12T14:03:52.000Z</time>
      </trkpt>
      <trkpt lat="50.80153" lon="1.88929">
        <ele>186</ele>
        <time>2015-05-12T14:03:53.000Z</time>
      </trkpt>
      <trkpt lat="50.80153" lon="1.88929">
        <ele>186</ele>
        <time>2015-05-12T14:03:54.000Z</time>
      </trkpt>
      <trkpt lat="50.80153" lon="1.88929">
        <ele>186</ele>
        <time>2015-05-12T14:03:55.000Z</time>
      </trkpt>
      <trkpt lat="50.80153" lon="1.88929">
        <ele>185</ele>
        <time>2015-05-12T14:03:56.000Z</time>
      </trkpt>
      <trkpt lat="50.80154" lon="1.8893">
        <ele>186</ele>
        <time>2015-05-12T14:03:57.000Z</time>
      </trkpt>
      <trkpt lat="50.80154" lon="1.8893">
        <ele>186</ele>
        <time>2015-05-12T14:03:58.000Z</time>
      </trkpt>
      <trkpt lat="50.80154" lon="1.8893">
        <ele>186</ele>
        <time>2015-05-12T14:03:59.000Z</time>
      </trkpt>
      <trkpt lat="50.80154" lon="1.8893">
        <ele>186</ele>
        <time>2015-05-12T14:04:00.000Z</time>
      </trkpt>
      <trkpt lat="50.80154" lon="1.88931">
        <ele>187</ele>
        <time>2015-05-12T14:04:01.000Z</time>
      </trkpt>
      <trkpt lat="50.80154" lon="1.88931">
        <ele>186</ele>
        <time>2015-05-12T14:04:02.000Z</time>
      </trkpt>
      <trkpt lat="50.80155" lon="1.88931">
        <ele>186</ele>
        <time>2015-05-12T14:04:03.000Z</time>
      </trkpt>
      <trkpt lat="50.80155" lon="1.88931">
        <ele>186</ele>
        <time>2015-05-12T14:04:04.000Z</time>
      </trkpt>
      <trkpt lat="50.80155" lon="1.88931">
        <ele>186</ele>
        <time>2015-05-12T14:04:05.000Z</time>
      </trkpt>
      <trkpt lat="50.80155" lon="1.88932">
        <ele>186</ele>
        <time>2015-05-12T14:04:06.000Z</time>
      </trkpt>
      <trkpt lat="50.80155" lon="1.88931">
        <ele>185</ele>
        <time>2015-05-12T14:04:07.000Z</time>
      </trkpt>
      <trkpt lat="50.80155" lon="1.88931">
        <ele>185</ele>
        <time>2015-05-12T14:04:08.000Z</time>
      </trkpt>
      <trkpt lat="50.80155" lon="1.88931">
        <ele>185</ele>
        <time>2015-05-12T14:04:09.000Z</time>
      </trkpt>
      <trkpt lat="50.80156" lon="1.88931">
        <ele>184</ele>
        <time>2015-05-12T14:04:10.000Z</time>
      </trkpt>
      <trkpt lat="50.80156" lon="1.88931">
        <ele>184</ele>
        <time>2015-05-12T14:04:11.000Z</time>
      </trkpt>
      <trkpt lat="50.80156" lon="1.88931">
        <ele>184</ele>
        <time>2015-05-12T14:04:12.000Z</time>
      </trkpt>
      <trkpt lat="50.80156" lon="1.88931">
        <ele>184</ele>
        <time>2015-05-12T14:04:13.000Z</time>
      </trkpt>
      <trkpt lat="50.80156" lon="1.88931">
        <ele>184</ele>
        <time>2015-05-12T14:04:14.000Z</time>
      </trkpt>
      <trkpt lat="50.80156" lon="1.88931">
        <ele>184</ele>
        <time>2015-05-12T14:04:15.000Z</time>
      </trkpt>
      <trkpt lat="50.80156" lon="1.88931">
        <ele>184</ele>
        <time>2015-05-12T14:04:16.000Z</time>
      </trkpt>
      <trkpt lat="50.80156" lon="1.88931">
        <ele>184</ele>
        <time>2015-05-12T14:04:17.000Z</time>
      </trkpt>
      <trkpt lat="50.80156" lon="1.8893">
        <ele>184</ele>
        <time>2015-05-12T14:04:18.000Z</time>
      </trkpt>
      <trkpt lat="50.80156" lon="1.8893">
        <ele>185</ele>
        <time>2015-05-12T14:04:19.000Z</time>
      </trkpt>
      <trkpt lat="50.80156" lon="1.8893">
        <ele>185</ele>
        <time>2015-05-12T14:04:20.000Z</time>
      </trkpt>
      <trkpt lat="50.80156" lon="1.8893">
        <ele>185</ele>
        <time>2015-05-12T14:04:21.000Z</time>
      </trkpt>
      <trkpt lat="50.80156" lon="1.8893">
        <ele>185</ele>
        <time>2015-05-12T14:04:22.000Z</time>
      </trkpt>
      <trkpt lat="50.80156" lon="1.8893">
        <ele>184</ele>
        <time>2015-05-12T14:04:23.000Z</time>
      </trkpt>
      <trkpt lat="50.80157" lon="1.88929">
        <ele>185</ele>
        <time>2015-05-12T14:04:24.000Z</time>
      </trkpt>
      <trkpt lat="50.80157" lon="1.88929">
        <ele>184</ele>
        <time>2015-05-12T14:04:25.000Z</time>
      </trkpt>
      <trkpt lat="50.80157" lon="1.88929">
        <ele>184</ele>
        <time>2015-05-12T14:04:26.000Z</time>
      </trkpt>
      <trkpt lat="50.80157" lon="1.88929">
        <ele>185</ele>
        <time>2015-05-12T14:04:27.000Z</time>
      </trkpt>
      <trkpt lat="50.80157" lon="1.88929">
        <ele>185</ele>
        <time>2015-05-12T14:04:28.000Z</time>
      </trkpt>
      <trkpt lat="50.80157" lon="1.88928">
        <ele>185</ele>
        <time>2015-05-12T14:04:29.000Z</time>
      </trkpt>
      <trkpt lat="50.80157" lon="1.88928">
        <ele>185</ele>
        <time>2015-05-12T14:04:30.000Z</time>
      </trkpt>
      <trkpt lat="50.80157" lon="1.88928">
        <ele>185</ele>
        <time>2015-05-12T14:04:31.000Z</time>
      </trkpt>
      <trkpt lat="50.80157" lon="1.88927">
        <ele>185</ele>
        <time>2015-05-12T14:04:32.000Z</time>
      </trkpt>
      <trkpt lat="50.80158" lon="1.88927">
        <ele>185</ele>
        <time>2015-05-12T14:04:33.000Z</time>
      </trkpt>
      <trkpt lat="50.80158" lon="1.88927">
        <ele>185</ele>
        <time>2015-05-12T14:04:34.000Z</time>
      </trkpt>
      <trkpt lat="50.80158" lon="1.88927">
        <ele>185</ele>
        <time>2015-05-12T14:04:35.000Z</time>
      </trkpt>
      <trkpt lat="50.80158" lon="1.88927">
        <ele>185</ele>
        <time>2015-05-12T14:04:36.000Z</time>
      </trkpt>
      <trkpt lat="50.80158" lon="1.88927">
        <ele>185</ele>
        <time>2015-05-12T14:04:37.000Z</time>
      </trkpt>
      <trkpt lat="50.80158" lon="1.88927">
        <ele>185</ele>
        <time>2015-05-12T14:04:38.000Z</time>
      </trkpt>
      <trkpt lat="50.80158" lon="1.88927">
        <ele>184</ele>
        <time>2015-05-12T14:04:39.000Z</time>
      </trkpt>
      <trkpt lat="50.80159" lon="1.88927">
        <ele>185</ele>
        <time>2015-05-12T14:04:40.000Z</time>
      </trkpt>
      <trkpt lat="50.80159" lon="1.88927">
        <ele>184</ele>
        <time>2015-05-12T14:04:41.000Z</time>
      </trkpt>
      <trkpt lat="50.80159" lon="1.88927">
        <ele>184</ele>
        <time>2015-05-12T14:04:42.000Z</time>
      </trkpt>
      <trkpt lat="50.8016" lon="1.88927">
        <ele>185</ele>
        <time>2015-05-12T14:04:43.000Z</time>
      </trkpt>
      <trkpt lat="50.8016" lon="1.88927">
        <ele>185</ele>
        <time>2015-05-12T14:04:44.000Z</time>
      </trkpt>
      <trkpt lat="50.8016" lon="1.88927">
        <ele>185</ele>
        <time>2015-05-12T14:04:45.000Z</time>
      </trkpt>
      <trkpt lat="50.80161" lon="1.88927">
        <ele>186</ele>
        <time>2015-05-12T14:04:46.000Z</time>
      </trkpt>
      <trkpt lat="50.80161" lon="1.88927">
        <ele>186</ele>
        <time>2015-05-12T14:04:47.000Z</time>
      </trkpt>
      <trkpt lat="50.80162" lon="1.88928">
        <ele>186</ele>
        <time>2015-05-12T14:04:48.000Z</time>
      </trkpt>
      <trkpt lat="50.80162" lon="1.88928">
        <ele>186</ele>
        <time>2015-05-12T14:04:49.000Z</time>
      </trkpt>
      <trkpt lat="50.80163" lon="1.88928">
        <ele>186</ele>
        <time>2015-05-12T14:04:50.000Z</time>
      </trkpt>
      <trkpt lat="50.80163" lon="1.88929">
        <ele>186</ele>
        <time>2015-05-12T14:04:51.000Z</time>
      </trkpt>
      <trkpt lat="50.80163" lon="1.8893">
        <ele>186</ele>
        <time>2015-05-12T14:04:52.000Z</time>
      </trkpt>
      <trkpt lat="50.80163" lon="1.8893">
        <ele>186</ele>
        <time>2015-05-12T14:04:53.000Z</time>
      </trkpt>
      <trkpt lat="50.80164" lon="1.88931">
        <ele>186</ele>
        <time>2015-05-12T14:04:54.000Z</time>
      </trkpt>
      <trkpt lat="50.80164" lon="1.88931">
        <ele>186</ele>
        <time>2015-05-12T14:04:55.000Z</time>
      </trkpt>
      <trkpt lat="50.80165" lon="1.88931">
        <ele>185</ele>
        <time>2015-05-12T14:04:56.000Z</time>
      </trkpt>
      <trkpt lat="50.80166" lon="1.88931">
        <ele>185</ele>
        <time>2015-05-12T14:04:57.000Z</time>
      </trkpt>
      <trkpt lat="50.80166" lon="1.88932">
        <ele>185</ele>
        <time>2015-05-12T14:04:58.000Z</time>
      </trkpt>
      <trkpt lat="50.80167" lon="1.88932">
        <ele>185</ele>
        <time>2015-05-12T14:04:59.000Z</time>
      </trkpt>
      <trkpt lat="50.80168" lon="1.88933">
        <ele>185</ele>
        <time>2015-05-12T14:05:00.000Z</time>
      </trkpt>
      <trkpt lat="50.80168" lon="1.88933">
        <ele>186</ele>
        <time>2015-05-12T14:05:01.000Z</time>
      </trkpt>
      <trkpt lat="50.80169" lon="1.88934">
        <ele>186</ele>
        <time>2015-05-12T14:05:02.000Z</time>
      </trkpt>
      <trkpt lat="50.8017" lon="1.88935">
        <ele>186</ele>
        <time>2015-05-12T14:05:03.000Z</time>
      </trkpt>
      <trkpt lat="50.80171" lon="1.88936">
        <ele>185</ele>
        <time>2015-05-12T14:05:04.000Z</time>
      </trkpt>
      <trkpt lat="50.80171" lon="1.88937">
        <ele>185</ele>
        <time>2015-05-12T14:05:05.000Z</time>
      </trkpt>
      <trkpt lat="50.80172" lon="1.88938">
        <ele>186</ele>
        <time>2015-05-12T14:05:06.000Z</time>
      </trkpt>
      <trkpt lat="50.80172" lon="1.88939">
        <ele>186</ele>
        <time>2015-05-12T14:05:07.000Z</time>
      </trkpt>
      <trkpt lat="50.80173" lon="1.88939">
        <ele>186</ele>
        <time>2015-05-12T14:05:08.000Z</time>
      </trkpt>
      <trkpt lat="50.80174" lon="1.8894">
        <ele>186</ele>
        <time>2015-05-12T14:05:09.000Z</time>
      </trkpt>
      <trkpt lat="50.80175" lon="1.8894">
        <ele>186</ele>
        <time>2015-05-12T14:05:10.000Z</time>
      </trkpt>
      <trkpt lat="50.80175" lon="1.88941">
        <ele>186</ele>
        <time>2015-05-12T14:05:11.000Z</time>
      </trkpt>
      <trkpt lat="50.80176" lon="1.88942">
        <ele>187</ele>
        <time>2015-05-12T14:05:12.000Z</time>
      </trkpt>
      <trkpt lat="50.80176" lon="1.88942">
        <ele>187</ele>
        <time>2015-05-12T14:05:13.000Z</time>
      </trkpt>
      <trkpt lat="50.80177" lon="1.88942">
        <ele>188</ele>
        <time>2015-05-12T14:05:14.000Z</time>
      </trkpt>
      <trkpt lat="50.80178" lon="1.88943">
        <ele>188</ele>
        <time>2015-05-12T14:05:15.000Z</time>
      </trkpt>
      <trkpt lat="50.80178" lon="1.88944">
        <ele>188</ele>
        <time>2015-05-12T14:05:16.000Z</time>
      </trkpt>
      <trkpt lat="50.80179" lon="1.88944">
        <ele>189</ele>
        <time>2015-05-12T14:05:17.000Z</time>
      </trkpt>
      <trkpt lat="50.8018" lon="1.88945">
        <ele>188</ele>
        <time>2015-05-12T14:05:18.000Z</time>
      </trkpt>
      <trkpt lat="50.8018" lon="1.88945">
        <ele>188</ele>
        <time>2015-05-12T14:05:19.000Z</time>
      </trkpt>
      <trkpt lat="50.80181" lon="1.88946">
        <ele>189</ele>
        <time>2015-05-12T14:05:20.000Z</time>
      </trkpt>
      <trkpt lat="50.80182" lon="1.88947">
        <ele>188</ele>
        <time>2015-05-12T14:05:21.000Z</time>
      </trkpt>
      <trkpt lat="50.80183" lon="1.88948">
        <ele>188</ele>
        <time>2015-05-12T14:05:22.000Z</time>
      </trkpt>
      <trkpt lat="50.80184" lon="1.88948">
        <ele>188</ele>
        <time>2015-05-12T14:05:23.000Z</time>
      </trkpt>
      <trkpt lat="50.80184" lon="1.88949">
        <ele>188</ele>
        <time>2015-05-12T14:05:24.000Z</time>
      </trkpt>
      <trkpt lat="50.80185" lon="1.88949">
        <ele>188</ele>
        <time>2015-05-12T14:05:25.000Z</time>
      </trkpt>
      <trkpt lat="50.80185" lon="1.8895">
        <ele>188</ele>
        <time>2015-05-12T14:05:26.000Z</time>
      </trkpt>
      <trkpt lat="50.80185" lon="1.8895">
        <ele>188</ele>
        <time>2015-05-12T14:05:27.000Z</time>
      </trkpt>
      <trkpt lat="50.80185" lon="1.8895">
        <ele>188</ele>
        <time>2015-05-12T14:05:28.000Z</time>
      </trkpt>
      <trkpt lat="50.80186" lon="1.88951">
        <ele>188</ele>
        <time>2015-05-12T14:05:29.000Z</time>
      </trkpt>
      <trkpt lat="50.80186" lon="1.88951">
        <ele>188</ele>
        <time>2015-05-12T14:05:30.000Z</time>
      </trkpt>
      <trkpt lat="50.80186" lon="1.88952">
        <ele>189</ele>
        <time>2015-05-12T14:05:31.000Z</time>
      </trkpt>
      <trkpt lat="50.80187" lon="1.88953">
        <ele>189</ele>
        <time>2015-05-12T14:05:32.000Z</time>
      </trkpt>
      <trkpt lat="50.80188" lon="1.88954">
        <ele>189</ele>
        <time>2015-05-12T14:05:33.000Z</time>
      </trkpt>
      <trkpt lat="50.80189" lon="1.88955">
        <ele>190</ele>
        <time>2015-05-12T14:05:34.000Z</time>
      </trkpt>
      <trkpt lat="50.8019" lon="1.88955">
        <ele>189</ele>
        <time>2015-05-12T14:05:35.000Z</time>
      </trkpt>
      <trkpt lat="50.8019" lon="1.88955">
        <ele>189</ele>
        <time>2015-05-12T14:05:36.000Z</time>
      </trkpt>
      <trkpt lat="50.80191" lon="1.88955">
        <ele>188</ele>
        <time>2015-05-12T14:05:37.000Z</time>
      </trkpt>
      <trkpt lat="50.80192" lon="1.88956">
        <ele>189</ele>
        <time>2015-05-12T14:05:38.000Z</time>
      </trkpt>
      <trkpt lat="50.80192" lon="1.88957">
        <ele>188</ele>
        <time>2015-05-12T14:05:39.000Z</time>
      </trkpt>
      <trkpt lat="50.80193" lon="1.88958">
        <ele>188</ele>
        <time>2015-05-12T14:05:40.000Z</time>
      </trkpt>
      <trkpt lat="50.80194" lon="1.88958">
        <ele>187</ele>
        <time>2015-05-12T14:05:41.000Z</time>
      </trkpt>
      <trkpt lat="50.80195" lon="1.88959">
        <ele>188</ele>
        <time>2015-05-12T14:05:42.000Z</time>
      </trkpt>
      <trkpt lat="50.80195" lon="1.8896">
        <ele>188</ele>
        <time>2015-05-12T14:05:43.000Z</time>
      </trkpt>
      <trkpt lat="50.80196" lon="1.88961">
        <ele>188</ele>
        <time>2015-05-12T14:05:44.000Z</time>
      </trkpt>
      <trkpt lat="50.80197" lon="1.88962">
        <ele>187</ele>
        <time>2015-05-12T14:05:45.000Z</time>
      </trkpt>
      <trkpt lat="50.80198" lon="1.88963">
        <ele>188</ele>
        <time>2015-05-12T14:05:46.000Z</time>
      </trkpt>
      <trkpt lat="50.80198" lon="1.88964">
        <ele>189</ele>
        <time>2015-05-12T14:05:47.000Z</time>
      </trkpt>
      <trkpt lat="50.80199" lon="1.88965">
        <ele>188</ele>
        <time>2015-05-12T14:05:48.000Z</time>
      </trkpt>
      <trkpt lat="50.80199" lon="1.88966">
        <ele>188</ele>
        <time>2015-05-12T14:05:49.000Z</time>
      </trkpt>
      <trkpt lat="50.802" lon="1.88967">
        <ele>187</ele>
        <time>2015-05-12T14:05:50.000Z</time>
      </trkpt>
      <trkpt lat="50.802" lon="1.88968">
        <ele>187</ele>
        <time>2015-05-12T14:05:51.000Z</time>
      </trkpt>
      <trkpt lat="50.80201" lon="1.88968">
        <ele>187</ele>
        <time>2015-05-12T14:05:52.000Z</time>
      </trkpt>
      <trkpt lat="50.80201" lon="1.88969">
        <ele>186</ele>
        <time>2015-05-12T14:05:53.000Z</time>
      </trkpt>
      <trkpt lat="50.80203" lon="1.8897">
        <ele>185</ele>
        <time>2015-05-12T14:05:54.000Z</time>
      </trkpt>
      <trkpt lat="50.80204" lon="1.88971">
        <ele>184</ele>
        <time>2015-05-12T14:05:55.000Z</time>
      </trkpt>
      <trkpt lat="50.80206" lon="1.88972">
        <ele>182</ele>
        <time>2015-05-12T14:05:56.000Z</time>
      </trkpt>
      <trkpt lat="50.80208" lon="1.88973">
        <ele>181</ele>
        <time>2015-05-12T14:05:57.000Z</time>
      </trkpt>
      <trkpt lat="50.80209" lon="1.88973">
        <ele>180</ele>
        <time>2015-05-12T14:05:58.000Z</time>
      </trkpt>
      <trkpt lat="50.8021" lon="1.88974">
        <ele>179</ele>
        <time>2015-05-12T14:05:59.000Z</time>
      </trkpt>
      <trkpt lat="50.80211" lon="1.88975">
        <ele>179</ele>
        <time>2015-05-12T14:06:00.000Z</time>
      </trkpt>
      <trkpt lat="50.80212" lon="1.88976">
        <ele>179</ele>
        <time>2015-05-12T14:06:01.000Z</time>
      </trkpt>
      <trkpt lat="50.80213" lon="1.88977">
        <ele>179</ele>
        <time>2015-05-12T14:06:02.000Z</time>
      </trkpt>
      <trkpt lat="50.80214" lon="1.88978">
        <ele>178</ele>
        <time>2015-05-12T14:06:03.000Z</time>
      </trkpt>
      <trkpt lat="50.80215" lon="1.88979">
        <ele>177</ele>
        <time>2015-05-12T14:06:04.000Z</time>
      </trkpt>
      <trkpt lat="50.80216" lon="1.88979">
        <ele>178</ele>
        <time>2015-05-12T14:06:05.000Z</time>
      </trkpt>
      <trkpt lat="50.80216" lon="1.8898">
        <ele>178</ele>
        <time>2015-05-12T14:06:06.000Z</time>
      </trkpt>
      <trkpt lat="50.80217" lon="1.88981">
        <ele>178</ele>
        <time>2015-05-12T14:06:07.000Z</time>
      </trkpt>
      <trkpt lat="50.80218" lon="1.88981">
        <ele>179</ele>
        <time>2015-05-12T14:06:08.000Z</time>
      </trkpt>
      <trkpt lat="50.80219" lon="1.88982">
        <ele>178</ele>
        <time>2015-05-12T14:06:09.000Z</time>
      </trkpt>
      <trkpt lat="50.8022" lon="1.88982">
        <ele>178</ele>
        <time>2015-05-12T14:06:10.000Z</time>
      </trkpt>
      <trkpt lat="50.80221" lon="1.88983">
        <ele>179</ele>
        <time>2015-05-12T14:06:11.000Z</time>
      </trkpt>
      <trkpt lat="50.80222" lon="1.88984">
        <ele>179</ele>
        <time>2015-05-12T14:06:12.000Z</time>
      </trkpt>
      <trkpt lat="50.80222" lon="1.88985">
        <ele>179</ele>
        <time>2015-05-12T14:06:13.000Z</time>
      </trkpt>
      <trkpt lat="50.80223" lon="1.88986">
        <ele>179</ele>
        <time>2015-05-12T14:06:14.000Z</time>
      </trkpt>
      <trkpt lat="50.80224" lon="1.88986">
        <ele>178</ele>
        <time>2015-05-12T14:06:15.000Z</time>
      </trkpt>
      <trkpt lat="50.80226" lon="1.88987">
        <ele>178</ele>
        <time>2015-05-12T14:06:16.000Z</time>
      </trkpt>
      <trkpt lat="50.80227" lon="1.88989">
        <ele>178</ele>
        <time>2015-05-12T14:06:17.000Z</time>
      </trkpt>
      <trkpt lat="50.80228" lon="1.8899">
        <ele>178</ele>
        <time>2015-05-12T14:06:18.000Z</time>
      </trkpt>
      <trkpt lat="50.80229" lon="1.88991">
        <ele>178</ele>
        <time>2015-05-12T14:06:19.000Z</time>
      </trkpt>
      <trkpt lat="50.8023" lon="1.88991">
        <ele>178</ele>
        <time>2015-05-12T14:06:20.000Z</time>
      </trkpt>
      <trkpt lat="50.80231" lon="1.88992">
        <ele>177</ele>
        <time>2015-05-12T14:06:21.000Z</time>
      </trkpt>
      <trkpt lat="50.80231" lon="1.88993">
        <ele>177</ele>
        <time>2015-05-12T14:06:22.000Z</time>
      </trkpt>
      <trkpt lat="50.80231" lon="1.88993">
        <ele>176</ele>
        <time>2015-05-12T14:06:23.000Z</time>
      </trkpt>
      <trkpt lat="50.80231" lon="1.88994">
        <ele>175</ele>
        <time>2015-05-12T14:06:24.000Z</time>
      </trkpt>
      <trkpt lat="50.80231" lon="1.88994">
        <ele>176</ele>
        <time>2015-05-12T14:06:25.000Z</time>
      </trkpt>
      <trkpt lat="50.80231" lon="1.88995">
        <ele>176</ele>
        <time>2015-05-12T14:06:26.000Z</time>
      </trkpt>
      <trkpt lat="50.80231" lon="1.88995">
        <ele>175</ele>
        <time>2015-05-12T14:06:27.000Z</time>
      </trkpt>
      <trkpt lat="50.80231" lon="1.88995">
        <ele>175</ele>
        <time>2015-05-12T14:06:28.000Z</time>
      </trkpt>
      <trkpt lat="50.80232" lon="1.88995">
        <ele>175</ele>
        <time>2015-05-12T14:06:29.000Z</time>
      </trkpt>
      <trkpt lat="50.80232" lon="1.88996">
        <ele>175</ele>
        <time>2015-05-12T14:06:30.000Z</time>
      </trkpt>
      <trkpt lat="50.80233" lon="1.88996">
        <ele>175</ele>
        <time>2015-05-12T14:06:31.000Z</time>
      </trkpt>
      <trkpt lat="50.80233" lon="1.88997">
        <ele>175</ele>
        <time>2015-05-12T14:06:32.000Z</time>
      </trkpt>
      <trkpt lat="50.80234" lon="1.88998">
        <ele>175</ele>
        <time>2015-05-12T14:06:33.000Z</time>
      </trkpt>
      <trkpt lat="50.80234" lon="1.88999">
        <ele>175</ele>
        <time>2015-05-12T14:06:34.000Z</time>
      </trkpt>
      <trkpt lat="50.80235" lon="1.89">
        <ele>176</ele>
        <time>2015-05-12T14:06:35.000Z</time>
      </trkpt>
      <trkpt lat="50.80236" lon="1.89001">
        <ele>177</ele>
        <time>2015-05-12T14:06:36.000Z</time>
      </trkpt>
      <trkpt lat="50.80236" lon="1.89002">
        <ele>176</ele>
        <time>2015-05-12T14:06:37.000Z</time>
      </trkpt>
      <trkpt lat="50.80237" lon="1.89003">
        <ele>177</ele>
        <time>2015-05-12T14:06:38.000Z</time>
      </trkpt>
      <trkpt lat="50.80237" lon="1.89004">
        <ele>178</ele>
        <time>2015-05-12T14:06:39.000Z</time>
      </trkpt>
      <trkpt lat="50.80238" lon="1.89005">
        <ele>178</ele>
        <time>2015-05-12T14:06:40.000Z</time>
      </trkpt>
      <trkpt lat="50.80239" lon="1.89006">
        <ele>178</ele>
        <time>2015-05-12T14:06:41.000Z</time>
      </trkpt>
      <trkpt lat="50.8024" lon="1.89008">
        <ele>178</ele>
        <time>2015-05-12T14:06:42.000Z</time>
      </trkpt>
      <trkpt lat="50.80241" lon="1.89009">
        <ele>178</ele>
        <time>2015-05-12T14:06:43.000Z</time>
      </trkpt>
      <trkpt lat="50.80242" lon="1.89011">
        <ele>178</ele>
        <time>2015-05-12T14:06:44.000Z</time>
      </trkpt>
      <trkpt lat="50.80243" lon="1.89012">
        <ele>178</ele>
        <time>2015-05-12T14:06:45.000Z</time>
      </trkpt>
      <trkpt lat="50.80244" lon="1.89014">
        <ele>179</ele>
        <time>2015-05-12T14:06:46.000Z</time>
      </trkpt>
      <trkpt lat="50.80245" lon="1.89016">
        <ele>178</ele>
        <time>2015-05-12T14:06:47.000Z</time>
      </trkpt>
      <trkpt lat="50.80246" lon="1.89018">
        <ele>179</ele>
        <time>2015-05-12T14:06:48.000Z</time>
      </trkpt>
      <trkpt lat="50.80247" lon="1.89019">
        <ele>179</ele>
        <time>2015-05-12T14:06:49.000Z</time>
      </trkpt>
      <trkpt lat="50.80247" lon="1.89021">
        <ele>179</ele>
        <time>2015-05-12T14:06:50.000Z</time>
      </trkpt>
      <trkpt lat="50.80248" lon="1.89022">
        <ele>179</ele>
        <time>2015-05-12T14:06:51.000Z</time>
      </trkpt>
      <trkpt lat="50.80249" lon="1.89023">
        <ele>179</ele>
        <time>2015-05-12T14:06:52.000Z</time>
      </trkpt>
      <trkpt lat="50.8025" lon="1.89024">
        <ele>179</ele>
        <time>2015-05-12T14:06:53.000Z</time>
      </trkpt>
      <trkpt lat="50.80251" lon="1.89025">
        <ele>179</ele>
        <time>2015-05-12T14:06:54.000Z</time>
      </trkpt>
      <trkpt lat="50.80251" lon="1.89026">
        <ele>179</ele>
        <time>2015-05-12T14:06:55.000Z</time>
      </trkpt>
      <trkpt lat="50.80251" lon="1.89027">
        <ele>179</ele>
        <time>2015-05-12T14:06:56.000Z</time>
      </trkpt>
      <trkpt lat="50.80252" lon="1.89028">
        <ele>179</ele>
        <time>2015-05-12T14:06:57.000Z</time>
      </trkpt>
      <trkpt lat="50.80252" lon="1.89029">
        <ele>180</ele>
        <time>2015-05-12T14:06:58.000Z</time>
      </trkpt>
      <trkpt lat="50.80253" lon="1.89031">
        <ele>180</ele>
        <time>2015-05-12T14:06:59.000Z</time>
      </trkpt>
      <trkpt lat="50.80254" lon="1.89032">
        <ele>180</ele>
        <time>2015-05-12T14:07:00.000Z</time>
      </trkpt>
      <trkpt lat="50.80254" lon="1.89033">
        <ele>180</ele>
        <time>2015-05-12T14:07:01.000Z</time>
      </trkpt>
      <trkpt lat="50.80254" lon="1.89035">
        <ele>180</ele>
        <time>2015-05-12T14:07:02.000Z</time>
      </trkpt>
      <trkpt lat="50.80255" lon="1.89036">
        <ele>180</ele>
        <time>2015-05-12T14:07:03.000Z</time>
      </trkpt>
      <trkpt lat="50.80255" lon="1.89037">
        <ele>180</ele>
        <time>2015-05-12T14:07:04.000Z</time>
      </trkpt>
      <trkpt lat="50.80255" lon="1.89038">
        <ele>180</ele>
        <time>2015-05-12T14:07:05.000Z</time>
      </trkpt>
      <trkpt lat="50.80256" lon="1.89039">
        <ele>179</ele>
        <time>2015-05-12T14:07:06.000Z</time>
      </trkpt>
      <trkpt lat="50.80256" lon="1.8904">
        <ele>179</ele>
        <time>2015-05-12T14:07:07.000Z</time>
      </trkpt>
      <trkpt lat="50.80256" lon="1.89041">
        <ele>179</ele>
        <time>2015-05-12T14:07:08.000Z</time>
      </trkpt>
      <trkpt lat="50.80257" lon="1.89042">
        <ele>179</ele>
        <time>2015-05-12T14:07:09.000Z</time>
      </trkpt>
      <trkpt lat="50.80257" lon="1.89043">
        <ele>180</ele>
        <time>2015-05-12T14:07:10.000Z</time>
      </trkpt>
      <trkpt lat="50.80257" lon="1.89044">
        <ele>180</ele>
        <time>2015-05-12T14:07:11.000Z</time>
      </trkpt>
      <trkpt lat="50.80257" lon="1.89045">
        <ele>180</ele>
        <time>2015-05-12T14:07:12.000Z</time>
      </trkpt>
      <trkpt lat="50.80258" lon="1.89046">
        <ele>180</ele>
        <time>2015-05-12T14:07:13.000Z</time>
      </trkpt>
      <trkpt lat="50.80258" lon="1.89047">
        <ele>180</ele>
        <time>2015-05-12T14:07:14.000Z</time>
      </trkpt>
      <trkpt lat="50.80259" lon="1.89048">
        <ele>179</ele>
        <time>2015-05-12T14:07:15.000Z</time>
      </trkpt>
      <trkpt lat="50.80259" lon="1.89049">
        <ele>180</ele>
        <time>2015-05-12T14:07:16.000Z</time>
      </trkpt>
      <trkpt lat="50.80259" lon="1.89051">
        <ele>180</ele>
        <time>2015-05-12T14:07:17.000Z</time>
      </trkpt>
      <trkpt lat="50.8026" lon="1.89052">
        <ele>180</ele>
        <time>2015-05-12T14:07:18.000Z</time>
      </trkpt>
      <trkpt lat="50.8026" lon="1.89052">
        <ele>180</ele>
        <time>2015-05-12T14:07:19.000Z</time>
      </trkpt>
      <trkpt lat="50.80261" lon="1.89053">
        <ele>181</ele>
        <time>2015-05-12T14:07:20.000Z</time>
      </trkpt>
      <trkpt lat="50.80262" lon="1.89054">
        <ele>181</ele>
        <time>2015-05-12T14:07:21.000Z</time>
      </trkpt>
      <trkpt lat="50.80262" lon="1.89056">
        <ele>181</ele>
        <time>2015-05-12T14:07:22.000Z</time>
      </trkpt>
      <trkpt lat="50.80263" lon="1.89057">
        <ele>181</ele>
        <time>2015-05-12T14:07:23.000Z</time>
      </trkpt>
      <trkpt lat="50.80264" lon="1.89059">
        <ele>181</ele>
        <time>2015-05-12T14:07:24.000Z</time>
      </trkpt>
      <trkpt lat="50.80264" lon="1.8906">
        <ele>180</ele>
        <time>2015-05-12T14:07:25.000Z</time>
      </trkpt>
      <trkpt lat="50.80265" lon="1.8906">
        <ele>180</ele>
        <time>2015-05-12T14:07:26.000Z</time>
      </trkpt>
      <trkpt lat="50.80266" lon="1.89062">
        <ele>180</ele>
        <time>2015-05-12T14:07:27.000Z</time>
      </trkpt>
      <trkpt lat="50.80267" lon="1.89063">
        <ele>180</ele>
        <time>2015-05-12T14:07:28.000Z</time>
      </trkpt>
      <trkpt lat="50.80268" lon="1.89065">
        <ele>180</ele>
        <time>2015-05-12T14:07:29.000Z</time>
      </trkpt>
      <trkpt lat="50.80269" lon="1.89066">
        <ele>180</ele>
        <time>2015-05-12T14:07:30.000Z</time>
      </trkpt>
      <trkpt lat="50.8027" lon="1.89068">
        <ele>179</ele>
        <time>2015-05-12T14:07:31.000Z</time>
      </trkpt>
      <trkpt lat="50.80271" lon="1.89069">
        <ele>178</ele>
        <time>2015-05-12T14:07:32.000Z</time>
      </trkpt>
      <trkpt lat="50.80273" lon="1.89071">
        <ele>177</ele>
        <time>2015-05-12T14:07:33.000Z</time>
      </trkpt>
      <trkpt lat="50.80274" lon="1.89073">
        <ele>177</ele>
        <time>2015-05-12T14:07:34.000Z</time>
      </trkpt>
      <trkpt lat="50.80274" lon="1.89075">
        <ele>177</ele>
        <time>2015-05-12T14:07:35.000Z</time>
      </trkpt>
      <trkpt lat="50.80275" lon="1.89076">
        <ele>177</ele>
        <time>2015-05-12T14:07:36.000Z</time>
      </trkpt>
      <trkpt lat="50.80275" lon="1.89078">
        <ele>176</ele>
        <time>2015-05-12T14:07:37.000Z</time>
      </trkpt>
      <trkpt lat="50.80276" lon="1.89079">
        <ele>175</ele>
        <time>2015-05-12T14:07:38.000Z</time>
      </trkpt>
      <trkpt lat="50.80276" lon="1.89081">
        <ele>176</ele>
        <time>2015-05-12T14:07:39.000Z</time>
      </trkpt>
      <trkpt lat="50.80277" lon="1.89083">
        <ele>176</ele>
        <time>2015-05-12T14:07:40.000Z</time>
      </trkpt>
      <trkpt lat="50.80278" lon="1.89084">
        <ele>176</ele>
        <time>2015-05-12T14:07:41.000Z</time>
      </trkpt>
      <trkpt lat="50.80279" lon="1.89086">
        <ele>176</ele>
        <time>2015-05-12T14:07:42.000Z</time>
      </trkpt>
      <trkpt lat="50.80279" lon="1.89087">
        <ele>175</ele>
        <time>2015-05-12T14:07:43.000Z</time>
      </trkpt>
      <trkpt lat="50.8028" lon="1.89088">
        <ele>175</ele>
        <time>2015-05-12T14:07:44.000Z</time>
      </trkpt>
      <trkpt lat="50.80281" lon="1.8909">
        <ele>176</ele>
        <time>2015-05-12T14:07:45.000Z</time>
      </trkpt>
      <trkpt lat="50.80282" lon="1.89091">
        <ele>176</ele>
        <time>2015-05-12T14:07:46.000Z</time>
      </trkpt>
      <trkpt lat="50.80282" lon="1.89092">
        <ele>176</ele>
        <time>2015-05-12T14:07:47.000Z</time>
      </trkpt>
      <trkpt lat="50.80283" lon="1.89094">
        <ele>176</ele>
        <time>2015-05-12T14:07:48.000Z</time>
      </trkpt>
      <trkpt lat="50.80283" lon="1.89095">
        <ele>176</ele>
        <time>2015-05-12T14:07:49.000Z</time>
      </trkpt>
      <trkpt lat="50.80283" lon="1.89097">
        <ele>177</ele>
        <time>2015-05-12T14:07:50.000Z</time>
      </trkpt>
      <trkpt lat="50.80284" lon="1.89098">
        <ele>177</ele>
        <time>2015-05-12T14:07:51.000Z</time>
      </trkpt>
      <trkpt lat="50.80284" lon="1.89099">
        <ele>177</ele>
        <time>2015-05-12T14:07:52.000Z</time>
      </trkpt>
      <trkpt lat="50.80284" lon="1.89101">
        <ele>178</ele>
        <time>2015-05-12T14:07:53.000Z</time>
      </trkpt>
      <trkpt lat="50.80285" lon="1.89102">
        <ele>178</ele>
        <time>2015-05-12T14:07:54.000Z</time>
      </trkpt>
      <trkpt lat="50.80285" lon="1.89104">
        <ele>178</ele>
        <time>2015-05-12T14:07:55.000Z</time>
      </trkpt>
      <trkpt lat="50.80285" lon="1.89105">
        <ele>179</ele>
        <time>2015-05-12T14:07:56.000Z</time>
      </trkpt>
      <trkpt lat="50.80285" lon="1.89106">
        <ele>178</ele>
        <time>2015-05-12T14:07:57.000Z</time>
      </trkpt>
      <trkpt lat="50.80286" lon="1.89108">
        <ele>179</ele>
        <time>2015-05-12T14:07:58.000Z</time>
      </trkpt>
      <trkpt lat="50.80286" lon="1.89109">
        <ele>179</ele>
        <time>2015-05-12T14:07:59.000Z</time>
      </trkpt>
      <trkpt lat="50.80286" lon="1.8911">
        <ele>179</ele>
        <time>2015-05-12T14:08:00.000Z</time>
      </trkpt>
      <trkpt lat="50.80286" lon="1.89111">
        <ele>179</ele>
        <time>2015-05-12T14:08:01.000Z</time>
      </trkpt>
      <trkpt lat="50.80287" lon="1.89113">
        <ele>179</ele>
        <time>2015-05-12T14:08:02.000Z</time>
      </trkpt>
      <trkpt lat="50.80287" lon="1.89114">
        <ele>179</ele>
        <time>2015-05-12T14:08:03.000Z</time>
      </trkpt>
      <trkpt lat="50.80287" lon="1.89115">
        <ele>179</ele>
        <time>2015-05-12T14:08:04.000Z</time>
      </trkpt>
      <trkpt lat="50.80287" lon="1.89116">
        <ele>180</ele>
        <time>2015-05-12T14:08:05.000Z</time>
      </trkpt>
      <trkpt lat="50.80287" lon="1.89117">
        <ele>180</ele>
        <time>2015-05-12T14:08:06.000Z</time>
      </trkpt>
      <trkpt lat="50.80288" lon="1.89118">
        <ele>181</ele>
        <time>2015-05-12T14:08:07.000Z</time>
      </trkpt>
      <trkpt lat="50.80288" lon="1.8912">
        <ele>182</ele>
        <time>2015-05-12T14:08:08.000Z</time>
      </trkpt>
      <trkpt lat="50.80289" lon="1.89122">
        <ele>182</ele>
        <time>2015-05-12T14:08:09.000Z</time>
      </trkpt>
      <trkpt lat="50.80289" lon="1.89124">
        <ele>183</ele>
        <time>2015-05-12T14:08:10.000Z</time>
      </trkpt>
      <trkpt lat="50.80289" lon="1.89125">
        <ele>184</ele>
        <time>2015-05-12T14:08:11.000Z</time>
      </trkpt>
      <trkpt lat="50.80289" lon="1.89127">
        <ele>184</ele>
        <time>2015-05-12T14:08:12.000Z</time>
      </trkpt>
      <trkpt lat="50.8029" lon="1.89128">
        <ele>184</ele>
        <time>2015-05-12T14:08:13.000Z</time>
      </trkpt>
      <trkpt lat="50.8029" lon="1.8913">
        <ele>185</ele>
        <time>2015-05-12T14:08:14.000Z</time>
      </trkpt>
      <trkpt lat="50.80291" lon="1.89131">
        <ele>185</ele>
        <time>2015-05-12T14:08:15.000Z</time>
      </trkpt>
      <trkpt lat="50.80292" lon="1.89132">
        <ele>185</ele>
        <time>2015-05-12T14:08:16.000Z</time>
      </trkpt>
      <trkpt lat="50.80292" lon="1.89133">
        <ele>185</ele>
        <time>2015-05-12T14:08:17.000Z</time>
      </trkpt>
      <trkpt lat="50.80293" lon="1.89134">
        <ele>184</ele>
        <time>2015-05-12T14:08:18.000Z</time>
      </trkpt>
      <trkpt lat="50.80294" lon="1.89135">
        <ele>184</ele>
        <time>2015-05-12T14:08:19.000Z</time>
      </trkpt>
      <trkpt lat="50.80295" lon="1.89137">
        <ele>184</ele>
        <time>2015-05-12T14:08:20.000Z</time>
      </trkpt>
      <trkpt lat="50.80295" lon="1.89139">
        <ele>184</ele>
        <time>2015-05-12T14:08:21.000Z</time>
      </trkpt>
      <trkpt lat="50.80295" lon="1.89141">
        <ele>184</ele>
        <time>2015-05-12T14:08:22.000Z</time>
      </trkpt>
      <trkpt lat="50.80295" lon="1.89143">
        <ele>183</ele>
        <time>2015-05-12T14:08:23.000Z</time>
      </trkpt>
      <trkpt lat="50.80296" lon="1.89145">
        <ele>183</ele>
        <time>2015-05-12T14:08:24.000Z</time>
      </trkpt>
      <trkpt lat="50.80296" lon="1.89146">
        <ele>183</ele>
        <time>2015-05-12T14:08:25.000Z</time>
      </trkpt>
      <trkpt lat="50.80297" lon="1.89147">
        <ele>181</ele>
        <time>2015-05-12T14:08:26.000Z</time>
      </trkpt>
      <trkpt lat="50.80297" lon="1.89149">
        <ele>182</ele>
        <time>2015-05-12T14:08:27.000Z</time>
      </trkpt>
      <trkpt lat="50.80298" lon="1.8915">
        <ele>181</ele>
        <time>2015-05-12T14:08:28.000Z</time>
      </trkpt>
      <trkpt lat="50.80298" lon="1.89152">
        <ele>181</ele>
        <time>2015-05-12T14:08:29.000Z</time>
      </trkpt>
      <trkpt lat="50.80299" lon="1.89153">
        <ele>181</ele>
        <time>2015-05-12T14:08:30.000Z</time>
      </trkpt>
      <trkpt lat="50.80299" lon="1.89155">
        <ele>181</ele>
        <time>2015-05-12T14:08:31.000Z</time>
      </trkpt>
      <trkpt lat="50.803" lon="1.89156">
        <ele>181</ele>
        <time>2015-05-12T14:08:32.000Z</time>
      </trkpt>
      <trkpt lat="50.803" lon="1.89157">
        <ele>181</ele>
        <time>2015-05-12T14:08:33.000Z</time>
      </trkpt>
      <trkpt lat="50.803" lon="1.89159">
        <ele>182</ele>
        <time>2015-05-12T14:08:34.000Z</time>
      </trkpt>
      <trkpt lat="50.80301" lon="1.8916">
        <ele>182</ele>
        <time>2015-05-12T14:08:35.000Z</time>
      </trkpt>
      <trkpt lat="50.80301" lon="1.89162">
        <ele>183</ele>
        <time>2015-05-12T14:08:36.000Z</time>
      </trkpt>
      <trkpt lat="50.80302" lon="1.89163">
        <ele>183</ele>
        <time>2015-05-12T14:08:37.000Z</time>
      </trkpt>
      <trkpt lat="50.80303" lon="1.89165">
        <ele>183</ele>
        <time>2015-05-12T14:08:38.000Z</time>
      </trkpt>
      <trkpt lat="50.80304" lon="1.89166">
        <ele>184</ele>
        <time>2015-05-12T14:08:39.000Z</time>
      </trkpt>
      <trkpt lat="50.80305" lon="1.89168">
        <ele>183</ele>
        <time>2015-05-12T14:08:40.000Z</time>
      </trkpt>
      <trkpt lat="50.80306" lon="1.8917">
        <ele>183</ele>
        <time>2015-05-12T14:08:41.000Z</time>
      </trkpt>
      <trkpt lat="50.80307" lon="1.89172">
        <ele>182</ele>
        <time>2015-05-12T14:08:42.000Z</time>
      </trkpt>
      <trkpt lat="50.80307" lon="1.89173">
        <ele>182</ele>
        <time>2015-05-12T14:08:43.000Z</time>
      </trkpt>
      <trkpt lat="50.80308" lon="1.89174">
        <ele>182</ele>
        <time>2015-05-12T14:08:44.000Z</time>
      </trkpt>
      <trkpt lat="50.80309" lon="1.89176">
        <ele>181</ele>
        <time>2015-05-12T14:08:45.000Z</time>
      </trkpt>
      <trkpt lat="50.80309" lon="1.89177">
        <ele>181</ele>
        <time>2015-05-12T14:08:46.000Z</time>
      </trkpt>
      <trkpt lat="50.8031" lon="1.89179">
        <ele>181</ele>
        <time>2015-05-12T14:08:47.000Z</time>
      </trkpt>
      <trkpt lat="50.8031" lon="1.89181">
        <ele>180</ele>
        <time>2015-05-12T14:08:48.000Z</time>
      </trkpt>
      <trkpt lat="50.80311" lon="1.89182">
        <ele>180</ele>
        <time>2015-05-12T14:08:49.000Z</time>
      </trkpt>
      <trkpt lat="50.80311" lon="1.89184">
        <ele>180</ele>
        <time>2015-05-12T14:08:50.000Z</time>
      </trkpt>
      <trkpt lat="50.80312" lon="1.89185">
        <ele>180</ele>
        <time>2015-05-12T14:08:51.000Z</time>
      </trkpt>
      <trkpt lat="50.80312" lon="1.89187">
        <ele>180</ele>
        <time>2015-05-12T14:08:52.000Z</time>
      </trkpt>
      <trkpt lat="50.80313" lon="1.89188">
        <ele>179</ele>
        <time>2015-05-12T14:08:53.000Z</time>
      </trkpt>
      <trkpt lat="50.80314" lon="1.8919">
        <ele>180</ele>
        <time>2015-05-12T14:08:54.000Z</time>
      </trkpt>
      <trkpt lat="50.80315" lon="1.89192">
        <ele>180</ele>
        <time>2015-05-12T14:08:55.000Z</time>
      </trkpt>
      <trkpt lat="50.80315" lon="1.89193">
        <ele>181</ele>
        <time>2015-05-12T14:08:56.000Z</time>
      </trkpt>
      <trkpt lat="50.80316" lon="1.89195">
        <ele>181</ele>
        <time>2015-05-12T14:08:57.000Z</time>
      </trkpt>
      <trkpt lat="50.80316" lon="1.89196">
        <ele>181</ele>
        <time>2015-05-12T14:08:58.000Z</time>
      </trkpt>
      <trkpt lat="50.80317" lon="1.89198">
        <ele>181</ele>
        <time>2015-05-12T14:08:59.000Z</time>
      </trkpt>
      <trkpt lat="50.80318" lon="1.89199">
        <ele>181</ele>
        <time>2015-05-12T14:09:00.000Z</time>
      </trkpt>
      <trkpt lat="50.80318" lon="1.89201">
        <ele>180</ele>
        <time>2015-05-12T14:09:01.000Z</time>
      </trkpt>
      <trkpt lat="50.80319" lon="1.89202">
        <ele>180</ele>
        <time>2015-05-12T14:09:02.000Z</time>
      </trkpt>
      <trkpt lat="50.8032" lon="1.89204">
        <ele>180</ele>
        <time>2015-05-12T14:09:03.000Z</time>
      </trkpt>
      <trkpt lat="50.80321" lon="1.89206">
        <ele>181</ele>
        <time>2015-05-12T14:09:04.000Z</time>
      </trkpt>
      <trkpt lat="50.80321" lon="1.89208">
        <ele>181</ele>
        <time>2015-05-12T14:09:05.000Z</time>
      </trkpt>
      <trkpt lat="50.80322" lon="1.89209">
        <ele>182</ele>
        <time>2015-05-12T14:09:06.000Z</time>
      </trkpt>
      <trkpt lat="50.80323" lon="1.89211">
        <ele>182</ele>
        <time>2015-05-12T14:09:07.000Z</time>
      </trkpt>
      <trkpt lat="50.80324" lon="1.89213">
        <ele>182</ele>
        <time>2015-05-12T14:09:08.000Z</time>
      </trkpt>
      <trkpt lat="50.80325" lon="1.89214">
        <ele>182</ele>
        <time>2015-05-12T14:09:09.000Z</time>
      </trkpt>
      <trkpt lat="50.80326" lon="1.89216">
        <ele>182</ele>
        <time>2015-05-12T14:09:10.000Z</time>
      </trkpt>
      <trkpt lat="50.80327" lon="1.89218">
        <ele>182</ele>
        <time>2015-05-12T14:09:11.000Z</time>
      </trkpt>
      <trkpt lat="50.80327" lon="1.8922">
        <ele>182</ele>
        <time>2015-05-12T14:09:12.000Z</time>
      </trkpt>
      <trkpt lat="50.80328" lon="1.89222">
        <ele>182</ele>
        <time>2015-05-12T14:09:13.000Z</time>
      </trkpt>
      <trkpt lat="50.80329" lon="1.89223">
        <ele>181</ele>
        <time>2015-05-12T14:09:14.000Z</time>
      </trkpt>
      <trkpt lat="50.80329" lon="1.89225">
        <ele>181</ele>
        <time>2015-05-12T14:09:15.000Z</time>
      </trkpt>
      <trkpt lat="50.8033" lon="1.89227">
        <ele>181</ele>
        <time>2015-05-12T14:09:16.000Z</time>
      </trkpt>
      <trkpt lat="50.8033" lon="1.89228">
        <ele>180</ele>
        <time>2015-05-12T14:09:17.000Z</time>
      </trkpt>
      <trkpt lat="50.8033" lon="1.8923">
        <ele>180</ele>
        <time>2015-05-12T14:09:18.000Z</time>
      </trkpt>
      <trkpt lat="50.80331" lon="1.89232">
        <ele>179</ele>
        <time>2015-05-12T14:09:19.000Z</time>
      </trkpt>
      <trkpt lat="50.80331" lon="1.89234">
        <ele>179</ele>
        <time>2015-05-12T14:09:20.000Z</time>
      </trkpt>
      <trkpt lat="50.80332" lon="1.89235">
        <ele>179</ele>
        <time>2015-05-12T14:09:21.000Z</time>
      </trkpt>
      <trkpt lat="50.80332" lon="1.89237">
        <ele>179</ele>
        <time>2015-05-12T14:09:22.000Z</time>
      </trkpt>
      <trkpt lat="50.80332" lon="1.89238">
        <ele>179</ele>
        <time>2015-05-12T14:09:23.000Z</time>
      </trkpt>
      <trkpt lat="50.80332" lon="1.8924">
        <ele>179</ele>
        <time>2015-05-12T14:09:24.000Z</time>
      </trkpt>
      <trkpt lat="50.80332" lon="1.89241">
        <ele>180</ele>
        <time>2015-05-12T14:09:25.000Z</time>
      </trkpt>
      <trkpt lat="50.80333" lon="1.89243">
        <ele>180</ele>
        <time>2015-05-12T14:09:26.000Z</time>
      </trkpt>
      <trkpt lat="50.80333" lon="1.89244">
        <ele>181</ele>
        <time>2015-05-12T14:09:27.000Z</time>
      </trkpt>
      <trkpt lat="50.80334" lon="1.89245">
        <ele>181</ele>
        <time>2015-05-12T14:09:28.000Z</time>
      </trkpt>
      <trkpt lat="50.80334" lon="1.89246">
        <ele>181</ele>
        <time>2015-05-12T14:09:29.000Z</time>
      </trkpt>
      <trkpt lat="50.80334" lon="1.89246">
        <ele>181</ele>
        <time>2015-05-12T14:09:30.000Z</time>
      </trkpt>
      <trkpt lat="50.80334" lon="1.89247">
        <ele>181</ele>
        <time>2015-05-12T14:09:31.000Z</time>
      </trkpt>
      <trkpt lat="50.80334" lon="1.89247">
        <ele>181</ele>
        <time>2015-05-12T14:09:32.000Z</time>
      </trkpt>
      <trkpt lat="50.80334" lon="1.89247">
        <ele>180</ele>
        <time>2015-05-12T14:09:33.000Z</time>
      </trkpt>
      <trkpt lat="50.80335" lon="1.89248">
        <ele>179</ele>
        <time>2015-05-12T14:09:34.000Z</time>
      </trkpt>
      <trkpt lat="50.80336" lon="1.89249">
        <ele>178</ele>
        <time>2015-05-12T14:09:35.000Z</time>
      </trkpt>
      <trkpt lat="50.80337" lon="1.89251">
        <ele>178</ele>
        <time>2015-05-12T14:09:36.000Z</time>
      </trkpt>
      <trkpt lat="50.80338" lon="1.89252">
        <ele>176</ele>
        <time>2015-05-12T14:09:37.000Z</time>
      </trkpt>
      <trkpt lat="50.80339" lon="1.89254">
        <ele>176</ele>
        <time>2015-05-12T14:09:38.000Z</time>
      </trkpt>
      <trkpt lat="50.8034" lon="1.89256">
        <ele>175</ele>
        <time>2015-05-12T14:09:39.000Z</time>
      </trkpt>
      <trkpt lat="50.80341" lon="1.89258">
        <ele>175</ele>
        <time>2015-05-12T14:09:40.000Z</time>
      </trkpt>
      <trkpt lat="50.80342" lon="1.8926">
        <ele>175</ele>
        <time>2015-05-12T14:09:41.000Z</time>
      </trkpt>
      <trkpt lat="50.80343" lon="1.89261">
        <ele>174</ele>
        <time>2015-05-12T14:09:42.000Z</time>
      </trkpt>
      <trkpt lat="50.80344" lon="1.89263">
        <ele>173</ele>
        <time>2015-05-12T14:09:43.000Z</time>
      </trkpt>
      <trkpt lat="50.80345" lon="1.89264">
        <ele>172</ele>
        <time>2015-05-12T14:09:44.000Z</time>
      </trkpt>
      <trkpt lat="50.80346" lon="1.89266">
        <ele>171</ele>
        <time>2015-05-12T14:09:45.000Z</time>
      </trkpt>
      <trkpt lat="50.80347" lon="1.89267">
        <ele>170</ele>
        <time>2015-05-12T14:09:46.000Z</time>
      </trkpt>
      <trkpt lat="50.80348" lon="1.89269">
        <ele>168</ele>
        <time>2015-05-12T14:09:47.000Z</time>
      </trkpt>
      <trkpt lat="50.8035" lon="1.89271">
        <ele>168</ele>
        <time>2015-05-12T14:09:48.000Z</time>
      </trkpt>
      <trkpt lat="50.80351" lon="1.89272">
        <ele>167</ele>
        <time>2015-05-12T14:09:49.000Z</time>
      </trkpt>
      <trkpt lat="50.80352" lon="1.89273">
        <ele>168</ele>
        <time>2015-05-12T14:09:50.000Z</time>
      </trkpt>
      <trkpt lat="50.80352" lon="1.89275">
        <ele>167</ele>
        <time>2015-05-12T14:09:51.000Z</time>
      </trkpt>
      <trkpt lat="50.80353" lon="1.89276">
        <ele>166</ele>
        <time>2015-05-12T14:09:52.000Z</time>
      </trkpt>
      <trkpt lat="50.80355" lon="1.89277">
        <ele>166</ele>
        <time>2015-05-12T14:09:53.000Z</time>
      </trkpt>
      <trkpt lat="50.80356" lon="1.89279">
        <ele>165</ele>
        <time>2015-05-12T14:09:54.000Z</time>
      </trkpt>
      <trkpt lat="50.80357" lon="1.8928">
        <ele>165</ele>
        <time>2015-05-12T14:09:55.000Z</time>
      </trkpt>
      <trkpt lat="50.80357" lon="1.89281">
        <ele>165</ele>
        <time>2015-05-12T14:09:56.000Z</time>
      </trkpt>
      <trkpt lat="50.80358" lon="1.89283">
        <ele>165</ele>
        <time>2015-05-12T14:09:57.000Z</time>
      </trkpt>
      <trkpt lat="50.80358" lon="1.89284">
        <ele>164</ele>
        <time>2015-05-12T14:09:58.000Z</time>
      </trkpt>
      <trkpt lat="50.80358" lon="1.89286">
        <ele>164</ele>
        <time>2015-05-12T14:09:59.000Z</time>
      </trkpt>
      <trkpt lat="50.80359" lon="1.89288">
        <ele>164</ele>
        <time>2015-05-12T14:10:00.000Z</time>
      </trkpt>
      <trkpt lat="50.80359" lon="1.89289">
        <ele>164</ele>
        <time>2015-05-12T14:10:01.000Z</time>
      </trkpt>
      <trkpt lat="50.8036" lon="1.8929">
        <ele>164</ele>
        <time>2015-05-12T14:10:02.000Z</time>
      </trkpt>
      <trkpt lat="50.80361" lon="1.89291">
        <ele>164</ele>
        <time>2015-05-12T14:10:03.000Z</time>
      </trkpt>
      <trkpt lat="50.80362" lon="1.89293">
        <ele>165</ele>
        <time>2015-05-12T14:10:04.000Z</time>
      </trkpt>
      <trkpt lat="50.80362" lon="1.89294">
        <ele>166</ele>
        <time>2015-05-12T14:10:05.000Z</time>
      </trkpt>
      <trkpt lat="50.80363" lon="1.89295">
        <ele>167</ele>
        <time>2015-05-12T14:10:06.000Z</time>
      </trkpt>
      <trkpt lat="50.80364" lon="1.89296">
        <ele>168</ele>
        <time>2015-05-12T14:10:07.000Z</time>
      </trkpt>
      <trkpt lat="50.80365" lon="1.89298">
        <ele>169</ele>
        <time>2015-05-12T14:10:08.000Z</time>
      </trkpt>
      <trkpt lat="50.80366" lon="1.89299">
        <ele>170</ele>
        <time>2015-05-12T14:10:09.000Z</time>
      </trkpt>
      <trkpt lat="50.80367" lon="1.89301">
        <ele>171</ele>
        <time>2015-05-12T14:10:10.000Z</time>
      </trkpt>
      <trkpt lat="50.80367" lon="1.89302">
        <ele>171</ele>
        <time>2015-05-12T14:10:11.000Z</time>
      </trkpt>
      <trkpt lat="50.80368" lon="1.89303">
        <ele>172</ele>
        <time>2015-05-12T14:10:12.000Z</time>
      </trkpt>
      <trkpt lat="50.80369" lon="1.89304">
        <ele>173</ele>
        <time>2015-05-12T14:10:13.000Z</time>
      </trkpt>
      <trkpt lat="50.80369" lon="1.89305">
        <ele>173</ele>
        <time>2015-05-12T14:10:14.000Z</time>
      </trkpt>
      <trkpt lat="50.8037" lon="1.89306">
        <ele>174</ele>
        <time>2015-05-12T14:10:15.000Z</time>
      </trkpt>
      <trkpt lat="50.8037" lon="1.89307">
        <ele>173</ele>
        <time>2015-05-12T14:10:16.000Z</time>
      </trkpt>
      <trkpt lat="50.80371" lon="1.89308">
        <ele>173</ele>
        <time>2015-05-12T14:10:17.000Z</time>
      </trkpt>
      <trkpt lat="50.80372" lon="1.89309">
        <ele>173</ele>
        <time>2015-05-12T14:10:18.000Z</time>
      </trkpt>
      <trkpt lat="50.80373" lon="1.89309">
        <ele>174</ele>
        <time>2015-05-12T14:10:19.000Z</time>
      </trkpt>
      <trkpt lat="50.80374" lon="1.8931">
        <ele>172</ele>
        <time>2015-05-12T14:10:20.000Z</time>
      </trkpt>
      <trkpt lat="50.80375" lon="1.89311">
        <ele>172</ele>
        <time>2015-05-12T14:10:21.000Z</time>
      </trkpt>
      <trkpt lat="50.80376" lon="1.89311">
        <ele>172</ele>
        <time>2015-05-12T14:10:22.000Z</time>
      </trkpt>
      <trkpt lat="50.80377" lon="1.89312">
        <ele>172</ele>
        <time>2015-05-12T14:10:23.000Z</time>
      </trkpt>
      <trkpt lat="50.80378" lon="1.89313">
        <ele>173</ele>
        <time>2015-05-12T14:10:24.000Z</time>
      </trkpt>
      <trkpt lat="50.80378" lon="1.89314">
        <ele>173</ele>
        <time>2015-05-12T14:10:25.000Z</time>
      </trkpt>
      <trkpt lat="50.80379" lon="1.89316">
        <ele>174</ele>
        <time>2015-05-12T14:10:26.000Z</time>
      </trkpt>
      <trkpt lat="50.8038" lon="1.89317">
        <ele>174</ele>
        <time>2015-05-12T14:10:27.000Z</time>
      </trkpt>
      <trkpt lat="50.80381" lon="1.89318">
        <ele>176</ele>
        <time>2015-05-12T14:10:28.000Z</time>
      </trkpt>
      <trkpt lat="50.80381" lon="1.89319">
        <ele>177</ele>
        <time>2015-05-12T14:10:29.000Z</time>
      </trkpt>
      <trkpt lat="50.80381" lon="1.8932">
        <ele>177</ele>
        <time>2015-05-12T14:10:30.000Z</time>
      </trkpt>
      <trkpt lat="50.80382" lon="1.89321">
        <ele>177</ele>
        <time>2015-05-12T14:10:31.000Z</time>
      </trkpt>
      <trkpt lat="50.80382" lon="1.89322">
        <ele>177</ele>
        <time>2015-05-12T14:10:32.000Z</time>
      </trkpt>
      <trkpt lat="50.80383" lon="1.89323">
        <ele>177</ele>
        <time>2015-05-12T14:10:33.000Z</time>
      </trkpt>
      <trkpt lat="50.80384" lon="1.89324">
        <ele>177</ele>
        <time>2015-05-12T14:10:34.000Z</time>
      </trkpt>
      <trkpt lat="50.80385" lon="1.89324">
        <ele>177</ele>
        <time>2015-05-12T14:10:35.000Z</time>
      </trkpt>
      <trkpt lat="50.80386" lon="1.89325">
        <ele>177</ele>
        <time>2015-05-12T14:10:36.000Z</time>
      </trkpt>
      <trkpt lat="50.80387" lon="1.89326">
        <ele>177</ele>
        <time>2015-05-12T14:10:37.000Z</time>
      </trkpt>
      <trkpt lat="50.80388" lon="1.89327">
        <ele>177</ele>
        <time>2015-05-12T14:10:38.000Z</time>
      </trkpt>
      <trkpt lat="50.80389" lon="1.89327">
        <ele>177</ele>
        <time>2015-05-12T14:10:39.000Z</time>
      </trkpt>
      <trkpt lat="50.80391" lon="1.89328">
        <ele>177</ele>
        <time>2015-05-12T14:10:40.000Z</time>
      </trkpt>
      <trkpt lat="50.80392" lon="1.89329">
        <ele>176</ele>
        <time>2015-05-12T14:10:41.000Z</time>
      </trkpt>
      <trkpt lat="50.80394" lon="1.8933">
        <ele>176</ele>
        <time>2015-05-12T14:10:42.000Z</time>
      </trkpt>
      <trkpt lat="50.80395" lon="1.89332">
        <ele>175</ele>
        <time>2015-05-12T14:10:43.000Z</time>
      </trkpt>
      <trkpt lat="50.80396" lon="1.89333">
        <ele>175</ele>
        <time>2015-05-12T14:10:44.000Z</time>
      </trkpt>
      <trkpt lat="50.80397" lon="1.89334">
        <ele>176</ele>
        <time>2015-05-12T14:10:45.000Z</time>
      </trkpt>
      <trkpt lat="50.80398" lon="1.89335">
        <ele>176</ele>
        <time>2015-05-12T14:10:46.000Z</time>
      </trkpt>
      <trkpt lat="50.80398" lon="1.89336">
        <ele>176</ele>
        <time>2015-05-12T14:10:47.000Z</time>
      </trkpt>
      <trkpt lat="50.80399" lon="1.89337">
        <ele>176</ele>
        <time>2015-05-12T14:10:48.000Z</time>
      </trkpt>
      <trkpt lat="50.804" lon="1.89339">
        <ele>175</ele>
        <time>2015-05-12T14:10:49.000Z</time>
      </trkpt>
      <trkpt lat="50.80401" lon="1.8934">
        <ele>176</ele>
        <time>2015-05-12T14:10:50.000Z</time>
      </trkpt>
      <trkpt lat="50.80402" lon="1.89342">
        <ele>176</ele>
        <time>2015-05-12T14:10:51.000Z</time>
      </trkpt>
      <trkpt lat="50.80404" lon="1.89343">
        <ele>176</ele>
        <time>2015-05-12T14:10:52.000Z</time>
      </trkpt>
      <trkpt lat="50.80404" lon="1.89344">
        <ele>177</ele>
        <time>2015-05-12T14:10:53.000Z</time>
      </trkpt>
      <trkpt lat="50.80405" lon="1.89345">
        <ele>176</ele>
        <time>2015-05-12T14:10:54.000Z</time>
      </trkpt>
      <trkpt lat="50.80406" lon="1.89346">
        <ele>177</ele>
        <time>2015-05-12T14:10:55.000Z</time>
      </trkpt>
      <trkpt lat="50.80407" lon="1.89348">
        <ele>177</ele>
        <time>2015-05-12T14:10:56.000Z</time>
      </trkpt>
      <trkpt lat="50.80408" lon="1.89349">
        <ele>176</ele>
        <time>2015-05-12T14:10:57.000Z</time>
      </trkpt>
      <trkpt lat="50.80409" lon="1.8935">
        <ele>176</ele>
        <time>2015-05-12T14:10:58.000Z</time>
      </trkpt>
      <trkpt lat="50.80409" lon="1.89351">
        <ele>177</ele>
        <time>2015-05-12T14:10:59.000Z</time>
      </trkpt>
      <trkpt lat="50.8041" lon="1.89352">
        <ele>177</ele>
        <time>2015-05-12T14:11:00.000Z</time>
      </trkpt>
      <trkpt lat="50.80411" lon="1.89353">
        <ele>176</ele>
        <time>2015-05-12T14:11:01.000Z</time>
      </trkpt>
      <trkpt lat="50.80412" lon="1.89354">
        <ele>177</ele>
        <time>2015-05-12T14:11:02.000Z</time>
      </trkpt>
      <trkpt lat="50.80412" lon="1.89355">
        <ele>176</ele>
        <time>2015-05-12T14:11:03.000Z</time>
      </trkpt>
      <trkpt lat="50.80413" lon="1.89356">
        <ele>176</ele>
        <time>2015-05-12T14:11:04.000Z</time>
      </trkpt>
      <trkpt lat="50.80414" lon="1.89357">
        <ele>176</ele>
        <time>2015-05-12T14:11:05.000Z</time>
      </trkpt>
      <trkpt lat="50.80415" lon="1.89358">
        <ele>176</ele>
        <time>2015-05-12T14:11:06.000Z</time>
      </trkpt>
      <trkpt lat="50.80415" lon="1.89358">
        <ele>176</ele>
        <time>2015-05-12T14:11:07.000Z</time>
      </trkpt>
      <trkpt lat="50.80416" lon="1.89359">
        <ele>177</ele>
        <time>2015-05-12T14:11:08.000Z</time>
      </trkpt>
      <trkpt lat="50.80417" lon="1.89359">
        <ele>177</ele>
        <time>2015-05-12T14:11:09.000Z</time>
      </trkpt>
      <trkpt lat="50.80418" lon="1.8936">
        <ele>176</ele>
        <time>2015-05-12T14:11:10.000Z</time>
      </trkpt>
      <trkpt lat="50.80419" lon="1.89361">
        <ele>176</ele>
        <time>2015-05-12T14:11:11.000Z</time>
      </trkpt>
      <trkpt lat="50.80421" lon="1.89363">
        <ele>174</ele>
        <time>2015-05-12T14:11:12.000Z</time>
      </trkpt>
      <trkpt lat="50.80422" lon="1.89364">
        <ele>174</ele>
        <time>2015-05-12T14:11:13.000Z</time>
      </trkpt>
      <trkpt lat="50.80424" lon="1.89365">
        <ele>175</ele>
        <time>2015-05-12T14:11:14.000Z</time>
      </trkpt>
      <trkpt lat="50.80425" lon="1.89366">
        <ele>175</ele>
        <time>2015-05-12T14:11:15.000Z</time>
      </trkpt>
      <trkpt lat="50.80425" lon="1.89367">
        <ele>175</ele>
        <time>2015-05-12T14:11:16.000Z</time>
      </trkpt>
      <trkpt lat="50.80426" lon="1.89368">
        <ele>175</ele>
        <time>2015-05-12T14:11:17.000Z</time>
      </trkpt>
      <trkpt lat="50.80427" lon="1.89369">
        <ele>175</ele>
        <time>2015-05-12T14:11:18.000Z</time>
      </trkpt>
      <trkpt lat="50.80428" lon="1.89371">
        <ele>173</ele>
        <time>2015-05-12T14:11:19.000Z</time>
      </trkpt>
      <trkpt lat="50.80429" lon="1.89373">
        <ele>173</ele>
        <time>2015-05-12T14:11:20.000Z</time>
      </trkpt>
      <trkpt lat="50.80431" lon="1.89375">
        <ele>173</ele>
        <time>2015-05-12T14:11:21.000Z</time>
      </trkpt>
      <trkpt lat="50.80432" lon="1.89376">
        <ele>172</ele>
        <time>2015-05-12T14:11:22.000Z</time>
      </trkpt>
      <trkpt lat="50.80432" lon="1.89377">
        <ele>172</ele>
        <time>2015-05-12T14:11:23.000Z</time>
      </trkpt>
      <trkpt lat="50.80434" lon="1.89379">
        <ele>172</ele>
        <time>2015-05-12T14:11:24.000Z</time>
      </trkpt>
      <trkpt lat="50.80435" lon="1.8938">
        <ele>173</ele>
        <time>2015-05-12T14:11:25.000Z</time>
      </trkpt>
      <trkpt lat="50.80436" lon="1.89382">
        <ele>173</ele>
        <time>2015-05-12T14:11:26.000Z</time>
      </trkpt>
      <trkpt lat="50.80437" lon="1.89383">
        <ele>173</ele>
        <time>2015-05-12T14:11:27.000Z</time>
      </trkpt>
      <trkpt lat="50.80438" lon="1.89384">
        <ele>174</ele>
        <time>2015-05-12T14:11:28.000Z</time>
      </trkpt>
      <trkpt lat="50.80439" lon="1.89385">
        <ele>175</ele>
        <time>2015-05-12T14:11:29.000Z</time>
      </trkpt>
      <trkpt lat="50.8044" lon="1.89386">
        <ele>175</ele>
        <time>2015-05-12T14:11:30.000Z</time>
      </trkpt>
      <trkpt lat="50.80441" lon="1.89387">
        <ele>175</ele>
        <time>2015-05-12T14:11:31.000Z</time>
      </trkpt>
      <trkpt lat="50.80442" lon="1.89387">
        <ele>175</ele>
        <time>2015-05-12T14:11:32.000Z</time>
      </trkpt>
      <trkpt lat="50.80442" lon="1.89388">
        <ele>175</ele>
        <time>2015-05-12T14:11:33.000Z</time>
      </trkpt>
      <trkpt lat="50.80443" lon="1.89389">
        <ele>175</ele>
        <time>2015-05-12T14:11:34.000Z</time>
      </trkpt>
      <trkpt lat="50.80444" lon="1.89389">
        <ele>176</ele>
        <time>2015-05-12T14:11:35.000Z</time>
      </trkpt>
      <trkpt lat="50.80445" lon="1.8939">
        <ele>176</ele>
        <time>2015-05-12T14:11:36.000Z</time>
      </trkpt>
      <trkpt lat="50.80446" lon="1.8939">
        <ele>177</ele>
        <time>2015-05-12T14:11:37.000Z</time>
      </trkpt>
      <trkpt lat="50.80446" lon="1.89391">
        <ele>177</ele>
        <time>2015-05-12T14:11:38.000Z</time>
      </trkpt>
      <trkpt lat="50.80447" lon="1.89393">
        <ele>176</ele>
        <time>2015-05-12T14:11:39.000Z</time>
      </trkpt>
      <trkpt lat="50.80448" lon="1.89394">
        <ele>177</ele>
        <time>2015-05-12T14:11:40.000Z</time>
      </trkpt>
      <trkpt lat="50.80449" lon="1.89395">
        <ele>176</ele>
        <time>2015-05-12T14:11:41.000Z</time>
      </trkpt>
      <trkpt lat="50.80449" lon="1.89395">
        <ele>176</ele>
        <time>2015-05-12T14:11:42.000Z</time>
      </trkpt>
      <trkpt lat="50.8045" lon="1.89396">
        <ele>176</ele>
        <time>2015-05-12T14:11:43.000Z</time>
      </trkpt>
      <trkpt lat="50.8045" lon="1.89398">
        <ele>175</ele>
        <time>2015-05-12T14:11:44.000Z</time>
      </trkpt>
      <trkpt lat="50.80451" lon="1.89399">
        <ele>174</ele>
        <time>2015-05-12T14:11:45.000Z</time>
      </trkpt>
      <trkpt lat="50.80452" lon="1.894">
        <ele>175</ele>
        <time>2015-05-12T14:11:46.000Z</time>
      </trkpt>
      <trkpt lat="50.80453" lon="1.894">
        <ele>175</ele>
        <time>2015-05-12T14:11:47.000Z</time>
      </trkpt>
      <trkpt lat="50.80453" lon="1.89401">
        <ele>175</ele>
        <time>2015-05-12T14:11:48.000Z</time>
      </trkpt>
      <trkpt lat="50.80454" lon="1.89401">
        <ele>177</ele>
        <time>2015-05-12T14:11:49.000Z</time>
      </trkpt>
      <trkpt lat="50.80455" lon="1.89402">
        <ele>177</ele>
        <time>2015-05-12T14:11:50.000Z</time>
      </trkpt>
      <trkpt lat="50.80456" lon="1.89402">
        <ele>177</ele>
        <time>2015-05-12T14:11:51.000Z</time>
      </trkpt>
      <trkpt lat="50.80457" lon="1.89402">
        <ele>177</ele>
        <time>2015-05-12T14:11:52.000Z</time>
      </trkpt>
      <trkpt lat="50.80458" lon="1.89402">
        <ele>178</ele>
        <time>2015-05-12T14:11:53.000Z</time>
      </trkpt>
      <trkpt lat="50.80459" lon="1.89402">
        <ele>178</ele>
        <time>2015-05-12T14:11:54.000Z</time>
      </trkpt>
      <trkpt lat="50.8046" lon="1.89402">
        <ele>178</ele>
        <time>2015-05-12T14:11:55.000Z</time>
      </trkpt>
      <trkpt lat="50.80461" lon="1.89402">
        <ele>179</ele>
        <time>2015-05-12T14:11:56.000Z</time>
      </trkpt>
      <trkpt lat="50.80463" lon="1.89402">
        <ele>179</ele>
        <time>2015-05-12T14:11:57.000Z</time>
      </trkpt>
      <trkpt lat="50.80464" lon="1.89402">
        <ele>180</ele>
        <time>2015-05-12T14:11:58.000Z</time>
      </trkpt>
      <trkpt lat="50.80465" lon="1.89402">
        <ele>180</ele>
        <time>2015-05-12T14:11:59.000Z</time>
      </trkpt>
      <trkpt lat="50.80466" lon="1.89402">
        <ele>181</ele>
        <time>2015-05-12T14:12:00.000Z</time>
      </trkpt>
      <trkpt lat="50.80466" lon="1.89401">
        <ele>181</ele>
        <time>2015-05-12T14:12:01.000Z</time>
      </trkpt>
      <trkpt lat="50.80467" lon="1.89401">
        <ele>181</ele>
        <time>2015-05-12T14:12:02.000Z</time>
      </trkpt>
      <trkpt lat="50.80468" lon="1.89401">
        <ele>182</ele>
        <time>2015-05-12T14:12:03.000Z</time>
      </trkpt>
      <trkpt lat="50.80468" lon="1.89402">
        <ele>182</ele>
        <time>2015-05-12T14:12:04.000Z</time>
      </trkpt>
      <trkpt lat="50.80469" lon="1.89402">
        <ele>182</ele>
        <time>2015-05-12T14:12:05.000Z</time>
      </trkpt>
      <trkpt lat="50.8047" lon="1.89402">
        <ele>182</ele>
        <time>2015-05-12T14:12:06.000Z</time>
      </trkpt>
      <trkpt lat="50.80471" lon="1.89402">
        <ele>182</ele>
        <time>2015-05-12T14:12:07.000Z</time>
      </trkpt>
      <trkpt lat="50.80472" lon="1.89402">
        <ele>182</ele>
        <time>2015-05-12T14:12:08.000Z</time>
      </trkpt>
      <trkpt lat="50.80472" lon="1.89402">
        <ele>182</ele>
        <time>2015-05-12T14:12:09.000Z</time>
      </trkpt>
      <trkpt lat="50.80473" lon="1.89401">
        <ele>183</ele>
        <time>2015-05-12T14:12:10.000Z</time>
      </trkpt>
      <trkpt lat="50.80474" lon="1.89401">
        <ele>183</ele>
        <time>2015-05-12T14:12:11.000Z</time>
      </trkpt>
      <trkpt lat="50.80474" lon="1.89401">
        <ele>183</ele>
        <time>2015-05-12T14:12:12.000Z</time>
      </trkpt>
      <trkpt lat="50.80475" lon="1.894">
        <ele>183</ele>
        <time>2015-05-12T14:12:13.000Z</time>
      </trkpt>
      <trkpt lat="50.80476" lon="1.894">
        <ele>183</ele>
        <time>2015-05-12T14:12:14.000Z</time>
      </trkpt>
      <trkpt lat="50.80477" lon="1.894">
        <ele>184</ele>
        <time>2015-05-12T14:12:15.000Z</time>
      </trkpt>
      <trkpt lat="50.80478" lon="1.894">
        <ele>184</ele>
        <time>2015-05-12T14:12:16.000Z</time>
      </trkpt>
      <trkpt lat="50.80479" lon="1.894">
        <ele>184</ele>
        <time>2015-05-12T14:12:17.000Z</time>
      </trkpt>
      <trkpt lat="50.80479" lon="1.89399">
        <ele>184</ele>
        <time>2015-05-12T14:12:18.000Z</time>
      </trkpt>
      <trkpt lat="50.8048" lon="1.89399">
        <ele>184</ele>
        <time>2015-05-12T14:12:19.000Z</time>
      </trkpt>
      <trkpt lat="50.80481" lon="1.89399">
        <ele>185</ele>
        <time>2015-05-12T14:12:20.000Z</time>
      </trkpt>
      <trkpt lat="50.80482" lon="1.89399">
        <ele>184</ele>
        <time>2015-05-12T14:12:21.000Z</time>
      </trkpt>
      <trkpt lat="50.80484" lon="1.89398">
        <ele>184</ele>
        <time>2015-05-12T14:12:22.000Z</time>
      </trkpt>
      <trkpt lat="50.80485" lon="1.89398">
        <ele>184</ele>
        <time>2015-05-12T14:12:23.000Z</time>
      </trkpt>
      <trkpt lat="50.80486" lon="1.89397">
        <ele>184</ele>
        <time>2015-05-12T14:12:24.000Z</time>
      </trkpt>
      <trkpt lat="50.80487" lon="1.89397">
        <ele>184</ele>
        <time>2015-05-12T14:12:25.000Z</time>
      </trkpt>
      <trkpt lat="50.80488" lon="1.89397">
        <ele>184</ele>
        <time>2015-05-12T14:12:26.000Z</time>
      </trkpt>
      <trkpt lat="50.80489" lon="1.89397">
        <ele>184</ele>
        <time>2015-05-12T14:12:27.000Z</time>
      </trkpt>
      <trkpt lat="50.8049" lon="1.89396">
        <ele>184</ele>
        <time>2015-05-12T14:12:28.000Z</time>
      </trkpt>
      <trkpt lat="50.80492" lon="1.89396">
        <ele>184</ele>
        <time>2015-05-12T14:12:29.000Z</time>
      </trkpt>
      <trkpt lat="50.80493" lon="1.89396">
        <ele>184</ele>
        <time>2015-05-12T14:12:30.000Z</time>
      </trkpt>
      <trkpt lat="50.80495" lon="1.89396">
        <ele>184</ele>
        <time>2015-05-12T14:12:31.000Z</time>
      </trkpt>
      <trkpt lat="50.80496" lon="1.89396">
        <ele>184</ele>
        <time>2015-05-12T14:12:32.000Z</time>
      </trkpt>
      <trkpt lat="50.80498" lon="1.89396">
        <ele>184</ele>
        <time>2015-05-12T14:12:33.000Z</time>
      </trkpt>
      <trkpt lat="50.80499" lon="1.89396">
        <ele>184</ele>
        <time>2015-05-12T14:12:34.000Z</time>
      </trkpt>
      <trkpt lat="50.805" lon="1.89396">
        <ele>183</ele>
        <time>2015-05-12T14:12:35.000Z</time>
      </trkpt>
      <trkpt lat="50.80501" lon="1.89396">
        <ele>183</ele>
        <time>2015-05-12T14:12:36.000Z</time>
      </trkpt>
      <trkpt lat="50.80502" lon="1.89396">
        <ele>183</ele>
        <time>2015-05-12T14:12:37.000Z</time>
      </trkpt>
      <trkpt lat="50.80504" lon="1.89396">
        <ele>183</ele>
        <time>2015-05-12T14:12:38.000Z</time>
      </trkpt>
      <trkpt lat="50.80505" lon="1.89396">
        <ele>182</ele>
        <time>2015-05-12T14:12:39.000Z</time>
      </trkpt>
      <trkpt lat="50.80507" lon="1.89395">
        <ele>182</ele>
        <time>2015-05-12T14:12:40.000Z</time>
      </trkpt>
      <trkpt lat="50.80508" lon="1.89395">
        <ele>181</ele>
        <time>2015-05-12T14:12:41.000Z</time>
      </trkpt>
      <trkpt lat="50.80509" lon="1.89394">
        <ele>182</ele>
        <time>2015-05-12T14:12:42.000Z</time>
      </trkpt>
      <trkpt lat="50.8051" lon="1.89394">
        <ele>182</ele>
        <time>2015-05-12T14:12:43.000Z</time>
      </trkpt>
      <trkpt lat="50.80512" lon="1.89393">
        <ele>182</ele>
        <time>2015-05-12T14:12:44.000Z</time>
      </trkpt>
      <trkpt lat="50.80513" lon="1.89393">
        <ele>181</ele>
        <time>2015-05-12T14:12:45.000Z</time>
      </trkpt>
      <trkpt lat="50.80515" lon="1.89393">
        <ele>182</ele>
        <time>2015-05-12T14:12:46.000Z</time>
      </trkpt>
      <trkpt lat="50.80516" lon="1.89392">
        <ele>183</ele>
        <time>2015-05-12T14:12:47.000Z</time>
      </trkpt>
      <trkpt lat="50.80517" lon="1.89392">
        <ele>183</ele>
        <time>2015-05-12T14:12:48.000Z</time>
      </trkpt>
      <trkpt lat="50.80519" lon="1.89392">
        <ele>183</ele>
        <time>2015-05-12T14:12:49.000Z</time>
      </trkpt>
      <trkpt lat="50.8052" lon="1.89391">
        <ele>184</ele>
        <time>2015-05-12T14:12:50.000Z</time>
      </trkpt>
      <trkpt lat="50.80521" lon="1.89392">
        <ele>184</ele>
        <time>2015-05-12T14:12:51.000Z</time>
      </trkpt>
      <trkpt lat="50.80523" lon="1.89391">
        <ele>184</ele>
        <time>2015-05-12T14:12:52.000Z</time>
      </trkpt>
      <trkpt lat="50.80524" lon="1.89391">
        <ele>184</ele>
        <time>2015-05-12T14:12:53.000Z</time>
      </trkpt>
      <trkpt lat="50.80525" lon="1.89391">
        <ele>185</ele>
        <time>2015-05-12T14:12:54.000Z</time>
      </trkpt>
      <trkpt lat="50.80527" lon="1.89392">
        <ele>185</ele>
        <time>2015-05-12T14:12:55.000Z</time>
      </trkpt>
      <trkpt lat="50.80529" lon="1.89393">
        <ele>185</ele>
        <time>2015-05-12T14:12:56.000Z</time>
      </trkpt>
      <trkpt lat="50.8053" lon="1.89393">
        <ele>184</ele>
        <time>2015-05-12T14:12:57.000Z</time>
      </trkpt>
      <trkpt lat="50.80532" lon="1.89394">
        <ele>184</ele>
        <time>2015-05-12T14:12:58.000Z</time>
      </trkpt>
      <trkpt lat="50.80533" lon="1.89394">
        <ele>184</ele>
        <time>2015-05-12T14:12:59.000Z</time>
      </trkpt>
      <trkpt lat="50.80534" lon="1.89394">
        <ele>184</ele>
        <time>2015-05-12T14:13:00.000Z</time>
      </trkpt>
      <trkpt lat="50.80535" lon="1.89394">
        <ele>184</ele>
        <time>2015-05-12T14:13:01.000Z</time>
      </trkpt>
      <trkpt lat="50.80537" lon="1.89394">
        <ele>184</ele>
        <time>2015-05-12T14:13:02.000Z</time>
      </trkpt>
      <trkpt lat="50.80538" lon="1.89395">
        <ele>184</ele>
        <time>2015-05-12T14:13:03.000Z</time>
      </trkpt>
      <trkpt lat="50.80539" lon="1.89395">
        <ele>185</ele>
        <time>2015-05-12T14:13:04.000Z</time>
      </trkpt>
      <trkpt lat="50.80541" lon="1.89396">
        <ele>185</ele>
        <time>2015-05-12T14:13:05.000Z</time>
      </trkpt>
      <trkpt lat="50.80542" lon="1.89396">
        <ele>185</ele>
        <time>2015-05-12T14:13:06.000Z</time>
      </trkpt>
      <trkpt lat="50.80544" lon="1.89397">
        <ele>186</ele>
        <time>2015-05-12T14:13:07.000Z</time>
      </trkpt>
      <trkpt lat="50.80545" lon="1.89397">
        <ele>186</ele>
        <time>2015-05-12T14:13:08.000Z</time>
      </trkpt>
      <trkpt lat="50.80547" lon="1.89398">
        <ele>185</ele>
        <time>2015-05-12T14:13:09.000Z</time>
      </trkpt>
      <trkpt lat="50.80548" lon="1.89399">
        <ele>184</ele>
        <time>2015-05-12T14:13:10.000Z</time>
      </trkpt>
      <trkpt lat="50.8055" lon="1.89399">
        <ele>185</ele>
        <time>2015-05-12T14:13:11.000Z</time>
      </trkpt>
      <trkpt lat="50.80551" lon="1.89399">
        <ele>186</ele>
        <time>2015-05-12T14:13:12.000Z</time>
      </trkpt>
      <trkpt lat="50.80553" lon="1.894">
        <ele>186</ele>
        <time>2015-05-12T14:13:13.000Z</time>
      </trkpt>
      <trkpt lat="50.80554" lon="1.894">
        <ele>186</ele>
        <time>2015-05-12T14:13:14.000Z</time>
      </trkpt>
      <trkpt lat="50.80555" lon="1.89401">
        <ele>185</ele>
        <time>2015-05-12T14:13:15.000Z</time>
      </trkpt>
      <trkpt lat="50.80556" lon="1.89401">
        <ele>186</ele>
        <time>2015-05-12T14:13:16.000Z</time>
      </trkpt>
      <trkpt lat="50.80557" lon="1.89402">
        <ele>186</ele>
        <time>2015-05-12T14:13:17.000Z</time>
      </trkpt>
      <trkpt lat="50.80559" lon="1.89402">
        <ele>186</ele>
        <time>2015-05-12T14:13:18.000Z</time>
      </trkpt>
      <trkpt lat="50.80559" lon="1.89402">
        <ele>187</ele>
        <time>2015-05-12T14:13:19.000Z</time>
      </trkpt>
      <trkpt lat="50.8056" lon="1.89402">
        <ele>186</ele>
        <time>2015-05-12T14:13:20.000Z</time>
      </trkpt>
      <trkpt lat="50.80561" lon="1.89403">
        <ele>187</ele>
        <time>2015-05-12T14:13:21.000Z</time>
      </trkpt>
      <trkpt lat="50.80562" lon="1.89403">
        <ele>186</ele>
        <time>2015-05-12T14:13:22.000Z</time>
      </trkpt>
      <trkpt lat="50.80564" lon="1.89403">
        <ele>186</ele>
        <time>2015-05-12T14:13:23.000Z</time>
      </trkpt>
      <trkpt lat="50.80565" lon="1.89404">
        <ele>187</ele>
        <time>2015-05-12T14:13:24.000Z</time>
      </trkpt>
      <trkpt lat="50.80566" lon="1.89404">
        <ele>187</ele>
        <time>2015-05-12T14:13:25.000Z</time>
      </trkpt>
      <trkpt lat="50.80567" lon="1.89404">
        <ele>187</ele>
        <time>2015-05-12T14:13:26.000Z</time>
      </trkpt>
      <trkpt lat="50.80568" lon="1.89404">
        <ele>188</ele>
        <time>2015-05-12T14:13:27.000Z</time>
      </trkpt>
      <trkpt lat="50.80569" lon="1.89404">
        <ele>187</ele>
        <time>2015-05-12T14:13:28.000Z</time>
      </trkpt>
      <trkpt lat="50.8057" lon="1.89404">
        <ele>187</ele>
        <time>2015-05-12T14:13:29.000Z</time>
      </trkpt>
      <trkpt lat="50.80571" lon="1.89404">
        <ele>188</ele>
        <time>2015-05-12T14:13:30.000Z</time>
      </trkpt>
      <trkpt lat="50.80572" lon="1.89404">
        <ele>187</ele>
        <time>2015-05-12T14:13:31.000Z</time>
      </trkpt>
      <trkpt lat="50.80574" lon="1.89405">
        <ele>186</ele>
        <time>2015-05-12T14:13:32.000Z</time>
      </trkpt>
      <trkpt lat="50.80575" lon="1.89405">
        <ele>186</ele>
        <time>2015-05-12T14:13:33.000Z</time>
      </trkpt>
      <trkpt lat="50.80576" lon="1.89406">
        <ele>187</ele>
        <time>2015-05-12T14:13:34.000Z</time>
      </trkpt>
      <trkpt lat="50.80577" lon="1.89406">
        <ele>187</ele>
        <time>2015-05-12T14:13:35.000Z</time>
      </trkpt>
      <trkpt lat="50.80577" lon="1.89406">
        <ele>186</ele>
        <time>2015-05-12T14:13:36.000Z</time>
      </trkpt>
      <trkpt lat="50.80578" lon="1.89405">
        <ele>186</ele>
        <time>2015-05-12T14:13:37.000Z</time>
      </trkpt>
      <trkpt lat="50.80579" lon="1.89405">
        <ele>186</ele>
        <time>2015-05-12T14:13:38.000Z</time>
      </trkpt>
      <trkpt lat="50.80581" lon="1.89404">
        <ele>187</ele>
        <time>2015-05-12T14:13:39.000Z</time>
      </trkpt>
      <trkpt lat="50.80582" lon="1.89404">
        <ele>187</ele>
        <time>2015-05-12T14:13:40.000Z</time>
      </trkpt>
      <trkpt lat="50.80583" lon="1.89403">
        <ele>187</ele>
        <time>2015-05-12T14:13:41.000Z</time>
      </trkpt>
      <trkpt lat="50.80585" lon="1.89402">
        <ele>186</ele>
        <time>2015-05-12T14:13:42.000Z</time>
      </trkpt>
      <trkpt lat="50.80586" lon="1.89402">
        <ele>187</ele>
        <time>2015-05-12T14:13:43.000Z</time>
      </trkpt>
      <trkpt lat="50.80586" lon="1.89401">
        <ele>187</ele>
        <time>2015-05-12T14:13:44.000Z</time>
      </trkpt>
      <trkpt lat="50.80587" lon="1.89401">
        <ele>187</ele>
        <time>2015-05-12T14:13:45.000Z</time>
      </trkpt>
      <trkpt lat="50.80588" lon="1.894">
        <ele>187</ele>
        <time>2015-05-12T14:13:46.000Z</time>
      </trkpt>
      <trkpt lat="50.80589" lon="1.894">
        <ele>186</ele>
        <time>2015-05-12T14:13:47.000Z</time>
      </trkpt>
      <trkpt lat="50.8059" lon="1.894">
        <ele>186</ele>
        <time>2015-05-12T14:13:48.000Z</time>
      </trkpt>
      <trkpt lat="50.80592" lon="1.894">
        <ele>185</ele>
        <time>2015-05-12T14:13:49.000Z</time>
      </trkpt>
      <trkpt lat="50.80594" lon="1.89399">
        <ele>184</ele>
        <time>2015-05-12T14:13:50.000Z</time>
      </trkpt>
      <trkpt lat="50.80596" lon="1.89399">
        <ele>184</ele>
        <time>2015-05-12T14:13:51.000Z</time>
      </trkpt>
      <trkpt lat="50.80598" lon="1.89398">
        <ele>184</ele>
        <time>2015-05-12T14:13:52.000Z</time>
      </trkpt>
      <trkpt lat="50.80599" lon="1.89397">
        <ele>183</ele>
        <time>2015-05-12T14:13:53.000Z</time>
      </trkpt>
      <trkpt lat="50.80601" lon="1.89397">
        <ele>182</ele>
        <time>2015-05-12T14:13:54.000Z</time>
      </trkpt>
      <trkpt lat="50.80602" lon="1.89396">
        <ele>181</ele>
        <time>2015-05-12T14:13:55.000Z</time>
      </trkpt>
      <trkpt lat="50.80603" lon="1.89396">
        <ele>181</ele>
        <time>2015-05-12T14:13:56.000Z</time>
      </trkpt>
      <trkpt lat="50.80604" lon="1.89395">
        <ele>180</ele>
        <time>2015-05-12T14:13:57.000Z</time>
      </trkpt>
      <trkpt lat="50.80606" lon="1.89395">
        <ele>180</ele>
        <time>2015-05-12T14:13:58.000Z</time>
      </trkpt>
      <trkpt lat="50.80607" lon="1.89395">
        <ele>180</ele>
        <time>2015-05-12T14:13:59.000Z</time>
      </trkpt>
      <trkpt lat="50.80608" lon="1.89394">
        <ele>179</ele>
        <time>2015-05-12T14:14:00.000Z</time>
      </trkpt>
      <trkpt lat="50.80609" lon="1.89393">
        <ele>178</ele>
        <time>2015-05-12T14:14:01.000Z</time>
      </trkpt>
      <trkpt lat="50.80611" lon="1.89393">
        <ele>177</ele>
        <time>2015-05-12T14:14:02.000Z</time>
      </trkpt>
      <trkpt lat="50.80612" lon="1.89393">
        <ele>176</ele>
        <time>2015-05-12T14:14:03.000Z</time>
      </trkpt>
      <trkpt lat="50.80613" lon="1.89392">
        <ele>175</ele>
        <time>2015-05-12T14:14:04.000Z</time>
      </trkpt>
      <trkpt lat="50.80614" lon="1.89392">
        <ele>175</ele>
        <time>2015-05-12T14:14:05.000Z</time>
      </trkpt>
      <trkpt lat="50.80615" lon="1.89392">
        <ele>174</ele>
        <time>2015-05-12T14:14:06.000Z</time>
      </trkpt>
      <trkpt lat="50.80616" lon="1.89391">
        <ele>173</ele>
        <time>2015-05-12T14:14:07.000Z</time>
      </trkpt>
      <trkpt lat="50.80617" lon="1.89392">
        <ele>172</ele>
        <time>2015-05-12T14:14:08.000Z</time>
      </trkpt>
      <trkpt lat="50.80618" lon="1.89392">
        <ele>171</ele>
        <time>2015-05-12T14:14:09.000Z</time>
      </trkpt>
      <trkpt lat="50.80619" lon="1.89393">
        <ele>171</ele>
        <time>2015-05-12T14:14:10.000Z</time>
      </trkpt>
      <trkpt lat="50.80619" lon="1.89393">
        <ele>170</ele>
        <time>2015-05-12T14:14:11.000Z</time>
      </trkpt>
      <trkpt lat="50.8062" lon="1.89393">
        <ele>170</ele>
        <time>2015-05-12T14:14:12.000Z</time>
      </trkpt>
      <trkpt lat="50.8062" lon="1.89394">
        <ele>170</ele>
        <time>2015-05-12T14:14:13.000Z</time>
      </trkpt>
      <trkpt lat="50.80621" lon="1.89394">
        <ele>170</ele>
        <time>2015-05-12T14:14:14.000Z</time>
      </trkpt>
      <trkpt lat="50.80621" lon="1.89394">
        <ele>170</ele>
        <time>2015-05-12T14:14:15.000Z</time>
      </trkpt>
      <trkpt lat="50.80621" lon="1.89394">
        <ele>170</ele>
        <time>2015-05-12T14:14:16.000Z</time>
      </trkpt>
      <trkpt lat="50.80622" lon="1.89394">
        <ele>170</ele>
        <time>2015-05-12T14:14:17.000Z</time>
      </trkpt>
      <trkpt lat="50.80622" lon="1.89394">
        <ele>170</ele>
        <time>2015-05-12T14:14:18.000Z</time>
      </trkpt>
      <trkpt lat="50.80622" lon="1.89394">
        <ele>170</ele>
        <time>2015-05-12T14:14:19.000Z</time>
      </trkpt>
      <trkpt lat="50.80623" lon="1.89394">
        <ele>170</ele>
        <time>2015-05-12T14:14:20.000Z</time>
      </trkpt>
      <trkpt lat="50.80623" lon="1.89394">
        <ele>170</ele>
        <time>2015-05-12T14:14:21.000Z</time>
      </trkpt>
      <trkpt lat="50.80623" lon="1.89394">
        <ele>171</ele>
        <time>2015-05-12T14:14:22.000Z</time>
      </trkpt>
      <trkpt lat="50.80623" lon="1.89394">
        <ele>170</ele>
        <time>2015-05-12T14:14:23.000Z</time>
      </trkpt>
      <trkpt lat="50.80624" lon="1.89394">
        <ele>170</ele>
        <time>2015-05-12T14:14:24.000Z</time>
      </trkpt>
      <trkpt lat="50.80624" lon="1.89394">
        <ele>170</ele>
        <time>2015-05-12T14:14:25.000Z</time>
      </trkpt>
      <trkpt lat="50.80624" lon="1.89394">
        <ele>171</ele>
        <time>2015-05-12T14:14:26.000Z</time>
      </trkpt>
      <trkpt lat="50.80624" lon="1.89394">
        <ele>171</ele>
        <time>2015-05-12T14:14:27.000Z</time>
      </trkpt>
      <trkpt lat="50.80624" lon="1.89394">
        <ele>171</ele>
        <time>2015-05-12T14:14:28.000Z</time>
      </trkpt>
      <trkpt lat="50.80624" lon="1.89393">
        <ele>171</ele>
        <time>2015-05-12T14:14:29.000Z</time>
      </trkpt>
      <trkpt lat="50.80624" lon="1.89393">
        <ele>171</ele>
        <time>2015-05-12T14:14:30.000Z</time>
      </trkpt>
      <trkpt lat="50.80624" lon="1.89393">
        <ele>170</ele>
        <time>2015-05-12T14:14:31.000Z</time>
      </trkpt>
      <trkpt lat="50.80624" lon="1.89393">
        <ele>170</ele>
        <time>2015-05-12T14:14:32.000Z</time>
      </trkpt>
      <trkpt lat="50.80624" lon="1.89393">
        <ele>170</ele>
        <time>2015-05-12T14:14:33.000Z</time>
      </trkpt>
      <trkpt lat="50.80625" lon="1.89393">
        <ele>170</ele>
        <time>2015-05-12T14:14:34.000Z</time>
      </trkpt>
      <trkpt lat="50.80625" lon="1.89393">
        <ele>170</ele>
        <time>2015-05-12T14:14:35.000Z</time>
      </trkpt>
      <trkpt lat="50.80625" lon="1.89393">
        <ele>170</ele>
        <time>2015-05-12T14:14:36.000Z</time>
      </trkpt>
      <trkpt lat="50.80625" lon="1.89392">
        <ele>170</ele>
        <time>2015-05-12T14:14:37.000Z</time>
      </trkpt>
      <trkpt lat="50.80626" lon="1.89392">
        <ele>170</ele>
        <time>2015-05-12T14:14:38.000Z</time>
      </trkpt>
      <trkpt lat="50.80626" lon="1.89392">
        <ele>171</ele>
        <time>2015-05-12T14:14:39.000Z</time>
      </trkpt>
      <trkpt lat="50.80626" lon="1.89393">
        <ele>171</ele>
        <time>2015-05-12T14:14:40.000Z</time>
      </trkpt>
      <trkpt lat="50.80626" lon="1.89393">
        <ele>170</ele>
        <time>2015-05-12T14:14:41.000Z</time>
      </trkpt>
      <trkpt lat="50.80627" lon="1.89393">
        <ele>170</ele>
        <time>2015-05-12T14:14:42.000Z</time>
      </trkpt>
      <trkpt lat="50.80627" lon="1.89393">
        <ele>170</ele>
        <time>2015-05-12T14:14:43.000Z</time>
      </trkpt>
      <trkpt lat="50.80627" lon="1.89393">
        <ele>170</ele>
        <time>2015-05-12T14:14:44.000Z</time>
      </trkpt>
      <trkpt lat="50.80627" lon="1.89393">
        <ele>170</ele>
        <time>2015-05-12T14:14:45.000Z</time>
      </trkpt>
      <trkpt lat="50.80627" lon="1.89393">
        <ele>169</ele>
        <time>2015-05-12T14:14:46.000Z</time>
      </trkpt>
      <trkpt lat="50.80627" lon="1.89393">
        <ele>169</ele>
        <time>2015-05-12T14:14:47.000Z</time>
      </trkpt>
      <trkpt lat="50.80626" lon="1.89393">
        <ele>169</ele>
        <time>2015-05-12T14:14:48.000Z</time>
      </trkpt>
      <trkpt lat="50.80626" lon="1.89392">
        <ele>170</ele>
        <time>2015-05-12T14:14:49.000Z</time>
      </trkpt>
      <trkpt lat="50.80626" lon="1.89392">
        <ele>169</ele>
        <time>2015-05-12T14:14:50.000Z</time>
      </trkpt>
      <trkpt lat="50.80626" lon="1.89392">
        <ele>168</ele>
        <time>2015-05-12T14:14:51.000Z</time>
      </trkpt>
      <trkpt lat="50.80626" lon="1.89392">
        <ele>168</ele>
        <time>2015-05-12T14:14:52.000Z</time>
      </trkpt>
      <trkpt lat="50.80625" lon="1.89393">
        <ele>168</ele>
        <time>2015-05-12T14:14:53.000Z</time>
      </trkpt>
      <trkpt lat="50.80625" lon="1.89393">
        <ele>168</ele>
        <time>2015-05-12T14:14:54.000Z</time>
      </trkpt>
      <trkpt lat="50.80625" lon="1.89393">
        <ele>168</ele>
        <time>2015-05-12T14:14:55.000Z</time>
      </trkpt>
      <trkpt lat="50.80625" lon="1.89392">
        <ele>167</ele>
        <time>2015-05-12T14:14:56.000Z</time>
      </trkpt>
      <trkpt lat="50.80625" lon="1.89392">
        <ele>167</ele>
        <time>2015-05-12T14:14:57.000Z</time>
      </trkpt>
      <trkpt lat="50.80625" lon="1.89393">
        <ele>167</ele>
        <time>2015-05-12T14:14:58.000Z</time>
      </trkpt>
      <trkpt lat="50.80625" lon="1.89393">
        <ele>167</ele>
        <time>2015-05-12T14:14:59.000Z</time>
      </trkpt>
      <trkpt lat="50.80625" lon="1.89393">
        <ele>166</ele>
        <time>2015-05-12T14:15:00.000Z</time>
      </trkpt>
      <trkpt lat="50.80624" lon="1.89393">
        <ele>166</ele>
        <time>2015-05-12T14:15:01.000Z</time>
      </trkpt>
      <trkpt lat="50.80624" lon="1.89392">
        <ele>166</ele>
        <time>2015-05-12T14:15:02.000Z</time>
      </trkpt>
      <trkpt lat="50.80625" lon="1.89392">
        <ele>166</ele>
        <time>2015-05-12T14:15:03.000Z</time>
      </trkpt>
      <trkpt lat="50.80625" lon="1.89391">
        <ele>166</ele>
        <time>2015-05-12T14:15:04.000Z</time>
      </trkpt>
      <trkpt lat="50.80625" lon="1.8939">
        <ele>166</ele>
        <time>2015-05-12T14:15:05.000Z</time>
      </trkpt>
      <trkpt lat="50.80625" lon="1.8939">
        <ele>167</ele>
        <time>2015-05-12T14:15:06.000Z</time>
      </trkpt>
      <trkpt lat="50.80625" lon="1.89389">
        <ele>167</ele>
        <time>2015-05-12T14:15:07.000Z</time>
      </trkpt>
      <trkpt lat="50.80626" lon="1.89388">
        <ele>167</ele>
        <time>2015-05-12T14:15:08.000Z</time>
      </trkpt>
      <trkpt lat="50.80626" lon="1.89387">
        <ele>168</ele>
        <time>2015-05-12T14:15:09.000Z</time>
      </trkpt>
      <trkpt lat="50.80626" lon="1.89385">
        <ele>168</ele>
        <time>2015-05-12T14:15:10.000Z</time>
      </trkpt>
      <trkpt lat="50.80627" lon="1.89384">
        <ele>168</ele>
        <time>2015-05-12T14:15:11.000Z</time>
      </trkpt>
      <trkpt lat="50.80627" lon="1.89384">
        <ele>168</ele>
        <time>2015-05-12T14:15:12.000Z</time>
      </trkpt>
      <trkpt lat="50.80627" lon="1.89384">
        <ele>169</ele>
        <time>2015-05-12T14:15:13.000Z</time>
      </trkpt>
      <trkpt lat="50.80627" lon="1.89383">
        <ele>169</ele>
        <time>2015-05-12T14:15:14.000Z</time>
      </trkpt>
      <trkpt lat="50.80627" lon="1.89383">
        <ele>169</ele>
        <time>2015-05-12T14:15:15.000Z</time>
      </trkpt>
      <trkpt lat="50.80627" lon="1.89383">
        <ele>169</ele>
        <time>2015-05-12T14:15:16.000Z</time>
      </trkpt>
      <trkpt lat="50.80627" lon="1.89383">
        <ele>170</ele>
        <time>2015-05-12T14:15:17.000Z</time>
      </trkpt>
      <trkpt lat="50.80627" lon="1.89382">
        <ele>170</ele>
        <time>2015-05-12T14:15:18.000Z</time>
      </trkpt>
      <trkpt lat="50.80628" lon="1.89382">
        <ele>170</ele>
        <time>2015-05-12T14:15:19.000Z</time>
      </trkpt>
      <trkpt lat="50.80628" lon="1.89382">
        <ele>170</ele>
        <time>2015-05-12T14:15:20.000Z</time>
      </trkpt>
      <trkpt lat="50.80628" lon="1.89382">
        <ele>170</ele>
        <time>2015-05-12T14:15:21.000Z</time>
      </trkpt>
      <trkpt lat="50.80628" lon="1.89381">
        <ele>170</ele>
        <time>2015-05-12T14:15:22.000Z</time>
      </trkpt>
      <trkpt lat="50.80628" lon="1.89382">
        <ele>170</ele>
        <time>2015-05-12T14:15:23.000Z</time>
      </trkpt>
      <trkpt lat="50.80628" lon="1.89382">
        <ele>170</ele>
        <time>2015-05-12T14:15:24.000Z</time>
      </trkpt>
      <trkpt lat="50.80628" lon="1.89382">
        <ele>170</ele>
        <time>2015-05-12T14:15:25.000Z</time>
      </trkpt>
      <trkpt lat="50.80628" lon="1.89382">
        <ele>170</ele>
        <time>2015-05-12T14:15:26.000Z</time>
      </trkpt>
      <trkpt lat="50.80628" lon="1.89382">
        <ele>169</ele>
        <time>2015-05-12T14:15:27.000Z</time>
      </trkpt>
      <trkpt lat="50.80628" lon="1.89381">
        <ele>169</ele>
        <time>2015-05-12T14:15:28.000Z</time>
      </trkpt>
      <trkpt lat="50.80629" lon="1.89381">
        <ele>169</ele>
        <time>2015-05-12T14:15:29.000Z</time>
      </trkpt>
      <trkpt lat="50.80629" lon="1.8938">
        <ele>169</ele>
        <time>2015-05-12T14:15:30.000Z</time>
      </trkpt>
      <trkpt lat="50.8063" lon="1.89379">
        <ele>170</ele>
        <time>2015-05-12T14:15:31.000Z</time>
      </trkpt>
      <trkpt lat="50.8063" lon="1.89379">
        <ele>171</ele>
        <time>2015-05-12T14:15:32.000Z</time>
      </trkpt>
      <trkpt lat="50.80631" lon="1.89379">
        <ele>171</ele>
        <time>2015-05-12T14:15:33.000Z</time>
      </trkpt>
      <trkpt lat="50.80632" lon="1.89379">
        <ele>171</ele>
        <time>2015-05-12T14:15:34.000Z</time>
      </trkpt>
      <trkpt lat="50.80632" lon="1.89379">
        <ele>171</ele>
        <time>2015-05-12T14:15:35.000Z</time>
      </trkpt>
      <trkpt lat="50.80632" lon="1.89379">
        <ele>171</ele>
        <time>2015-05-12T14:15:36.000Z</time>
      </trkpt>
      <trkpt lat="50.80633" lon="1.89379">
        <ele>171</ele>
        <time>2015-05-12T14:15:37.000Z</time>
      </trkpt>
      <trkpt lat="50.80633" lon="1.89378">
        <ele>170</ele>
        <time>2015-05-12T14:15:38.000Z</time>
      </trkpt>
      <trkpt lat="50.80633" lon="1.89378">
        <ele>171</ele>
        <time>2015-05-12T14:15:39.000Z</time>
      </trkpt>
      <trkpt lat="50.80633" lon="1.89378">
        <ele>171</ele>
        <time>2015-05-12T14:15:40.000Z</time>
      </trkpt>
      <trkpt lat="50.80633" lon="1.89378">
        <ele>171</ele>
        <time>2015-05-12T14:15:41.000Z</time>
      </trkpt>
      <trkpt lat="50.80633" lon="1.89377">
        <ele>171</ele>
        <time>2015-05-12T14:15:42.000Z</time>
      </trkpt>
      <trkpt lat="50.80633" lon="1.89377">
        <ele>171</ele>
        <time>2015-05-12T14:15:43.000Z</time>
      </trkpt>
      <trkpt lat="50.80634" lon="1.89377">
        <ele>171</ele>
        <time>2015-05-12T14:15:44.000Z</time>
      </trkpt>
      <trkpt lat="50.80634" lon="1.89376">
        <ele>172</ele>
        <time>2015-05-12T14:15:45.000Z</time>
      </trkpt>
      <trkpt lat="50.80635" lon="1.89376">
        <ele>172</ele>
        <time>2015-05-12T14:15:46.000Z</time>
      </trkpt>
      <trkpt lat="50.80635" lon="1.89376">
        <ele>172</ele>
        <time>2015-05-12T14:15:47.000Z</time>
      </trkpt>
      <trkpt lat="50.80636" lon="1.89376">
        <ele>172</ele>
        <time>2015-05-12T14:15:48.000Z</time>
      </trkpt>
      <trkpt lat="50.80636" lon="1.89376">
        <ele>172</ele>
        <time>2015-05-12T14:15:49.000Z</time>
      </trkpt>
      <trkpt lat="50.80637" lon="1.89375">
        <ele>172</ele>
        <time>2015-05-12T14:15:50.000Z</time>
      </trkpt>
      <trkpt lat="50.80638" lon="1.89375">
        <ele>172</ele>
        <time>2015-05-12T14:15:51.000Z</time>
      </trkpt>
      <trkpt lat="50.80638" lon="1.89375">
        <ele>172</ele>
        <time>2015-05-12T14:15:52.000Z</time>
      </trkpt>
      <trkpt lat="50.80639" lon="1.89375">
        <ele>172</ele>
        <time>2015-05-12T14:15:53.000Z</time>
      </trkpt>
      <trkpt lat="50.8064" lon="1.89375">
        <ele>172</ele>
        <time>2015-05-12T14:15:54.000Z</time>
      </trkpt>
      <trkpt lat="50.80641" lon="1.89375">
        <ele>173</ele>
        <time>2015-05-12T14:15:55.000Z</time>
      </trkpt>
      <trkpt lat="50.80641" lon="1.89375">
        <ele>173</ele>
        <time>2015-05-12T14:15:56.000Z</time>
      </trkpt>
      <trkpt lat="50.80642" lon="1.89374">
        <ele>173</ele>
        <time>2015-05-12T14:15:57.000Z</time>
      </trkpt>
      <trkpt lat="50.80642" lon="1.89374">
        <ele>173</ele>
        <time>2015-05-12T14:15:58.000Z</time>
      </trkpt>
      <trkpt lat="50.80643" lon="1.89374">
        <ele>173</ele>
        <time>2015-05-12T14:15:59.000Z</time>
      </trkpt>
      <trkpt lat="50.80644" lon="1.89374">
        <ele>173</ele>
        <time>2015-05-12T14:16:00.000Z</time>
      </trkpt>
      <trkpt lat="50.80645" lon="1.89373">
        <ele>173</ele>
        <time>2015-05-12T14:16:01.000Z</time>
      </trkpt>
      <trkpt lat="50.80646" lon="1.89373">
        <ele>173</ele>
        <time>2015-05-12T14:16:02.000Z</time>
      </trkpt>
      <trkpt lat="50.80646" lon="1.89373">
        <ele>173</ele>
        <time>2015-05-12T14:16:03.000Z</time>
      </trkpt>
      <trkpt lat="50.80647" lon="1.89373">
        <ele>173</ele>
        <time>2015-05-12T14:16:04.000Z</time>
      </trkpt>
      <trkpt lat="50.80648" lon="1.89374">
        <ele>174</ele>
        <time>2015-05-12T14:16:05.000Z</time>
      </trkpt>
      <trkpt lat="50.80649" lon="1.89374">
        <ele>174</ele>
        <time>2015-05-12T14:16:06.000Z</time>
      </trkpt>
      <trkpt lat="50.8065" lon="1.89374">
        <ele>174</ele>
        <time>2015-05-12T14:16:07.000Z</time>
      </trkpt>
      <trkpt lat="50.80651" lon="1.89374">
        <ele>174</ele>
        <time>2015-05-12T14:16:08.000Z</time>
      </trkpt>
      <trkpt lat="50.80652" lon="1.89374">
        <ele>174</ele>
        <time>2015-05-12T14:16:09.000Z</time>
      </trkpt>
      <trkpt lat="50.80653" lon="1.89375">
        <ele>174</ele>
        <time>2015-05-12T14:16:10.000Z</time>
      </trkpt>
      <trkpt lat="50.80655" lon="1.89375">
        <ele>173</ele>
        <time>2015-05-12T14:16:11.000Z</time>
      </trkpt>
      <trkpt lat="50.80656" lon="1.89376">
        <ele>173</ele>
        <time>2015-05-12T14:16:12.000Z</time>
      </trkpt>
      <trkpt lat="50.80657" lon="1.89376">
        <ele>173</ele>
        <time>2015-05-12T14:16:13.000Z</time>
      </trkpt>
      <trkpt lat="50.80659" lon="1.89376">
        <ele>173</ele>
        <time>2015-05-12T14:16:14.000Z</time>
      </trkpt>
      <trkpt lat="50.8066" lon="1.89376">
        <ele>173</ele>
        <time>2015-05-12T14:16:15.000Z</time>
      </trkpt>
      <trkpt lat="50.80661" lon="1.89376">
        <ele>173</ele>
        <time>2015-05-12T14:16:16.000Z</time>
      </trkpt>
      <trkpt lat="50.80662" lon="1.89376">
        <ele>173</ele>
        <time>2015-05-12T14:16:17.000Z</time>
      </trkpt>
      <trkpt lat="50.80663" lon="1.89376">
        <ele>173</ele>
        <time>2015-05-12T14:16:18.000Z</time>
      </trkpt>
      <trkpt lat="50.80664" lon="1.89376">
        <ele>172</ele>
        <time>2015-05-12T14:16:19.000Z</time>
      </trkpt>
      <trkpt lat="50.80665" lon="1.89377">
        <ele>172</ele>
        <time>2015-05-12T14:16:20.000Z</time>
      </trkpt>
      <trkpt lat="50.80666" lon="1.89376">
        <ele>172</ele>
        <time>2015-05-12T14:16:21.000Z</time>
      </trkpt>
      <trkpt lat="50.80667" lon="1.89377">
        <ele>173</ele>
        <time>2015-05-12T14:16:22.000Z</time>
      </trkpt>
      <trkpt lat="50.80668" lon="1.89377">
        <ele>172</ele>
        <time>2015-05-12T14:16:23.000Z</time>
      </trkpt>
      <trkpt lat="50.8067" lon="1.89377">
        <ele>173</ele>
        <time>2015-05-12T14:16:24.000Z</time>
      </trkpt>
      <trkpt lat="50.80671" lon="1.89377">
        <ele>172</ele>
        <time>2015-05-12T14:16:25.000Z</time>
      </trkpt>
      <trkpt lat="50.80672" lon="1.89377">
        <ele>172</ele>
        <time>2015-05-12T14:16:26.000Z</time>
      </trkpt>
      <trkpt lat="50.80673" lon="1.89377">
        <ele>173</ele>
        <time>2015-05-12T14:16:27.000Z</time>
      </trkpt>
      <trkpt lat="50.80674" lon="1.89377">
        <ele>173</ele>
        <time>2015-05-12T14:16:28.000Z</time>
      </trkpt>
      <trkpt lat="50.80675" lon="1.89377">
        <ele>173</ele>
        <time>2015-05-12T14:16:29.000Z</time>
      </trkpt>
      <trkpt lat="50.80676" lon="1.89376">
        <ele>173</ele>
        <time>2015-05-12T14:16:30.000Z</time>
      </trkpt>
      <trkpt lat="50.80677" lon="1.89376">
        <ele>173</ele>
        <time>2015-05-12T14:16:31.000Z</time>
      </trkpt>
      <trkpt lat="50.80678" lon="1.89376">
        <ele>173</ele>
        <time>2015-05-12T14:16:32.000Z</time>
      </trkpt>
      <trkpt lat="50.80679" lon="1.89376">
        <ele>173</ele>
        <time>2015-05-12T14:16:33.000Z</time>
      </trkpt>
      <trkpt lat="50.80679" lon="1.89376">
        <ele>173</ele>
        <time>2015-05-12T14:16:34.000Z</time>
      </trkpt>
      <trkpt lat="50.8068" lon="1.89376">
        <ele>173</ele>
        <time>2015-05-12T14:16:35.000Z</time>
      </trkpt>
      <trkpt lat="50.8068" lon="1.89376">
        <ele>173</ele>
        <time>2015-05-12T14:16:36.000Z</time>
      </trkpt>
      <trkpt lat="50.80681" lon="1.89375">
        <ele>173</ele>
        <time>2015-05-12T14:16:37.000Z</time>
      </trkpt>
      <trkpt lat="50.80682" lon="1.89375">
        <ele>173</ele>
        <time>2015-05-12T14:16:38.000Z</time>
      </trkpt>
      <trkpt lat="50.80683" lon="1.89376">
        <ele>173</ele>
        <time>2015-05-12T14:16:39.000Z</time>
      </trkpt>
      <trkpt lat="50.80683" lon="1.89376">
        <ele>173</ele>
        <time>2015-05-12T14:16:40.000Z</time>
      </trkpt>
      <trkpt lat="50.80684" lon="1.89376">
        <ele>174</ele>
        <time>2015-05-12T14:16:41.000Z</time>
      </trkpt>
      <trkpt lat="50.80685" lon="1.89376">
        <ele>173</ele>
        <time>2015-05-12T14:16:42.000Z</time>
      </trkpt>
      <trkpt lat="50.80685" lon="1.89376">
        <ele>174</ele>
        <time>2015-05-12T14:16:43.000Z</time>
      </trkpt>
      <trkpt lat="50.80686" lon="1.89376">
        <ele>174</ele>
        <time>2015-05-12T14:16:44.000Z</time>
      </trkpt>
      <trkpt lat="50.80687" lon="1.89376">
        <ele>174</ele>
        <time>2015-05-12T14:16:45.000Z</time>
      </trkpt>
      <trkpt lat="50.80688" lon="1.89377">
        <ele>173</ele>
        <time>2015-05-12T14:16:46.000Z</time>
      </trkpt>
      <trkpt lat="50.80689" lon="1.89377">
        <ele>173</ele>
        <time>2015-05-12T14:16:47.000Z</time>
      </trkpt>
      <trkpt lat="50.8069" lon="1.89377">
        <ele>173</ele>
        <time>2015-05-12T14:16:48.000Z</time>
      </trkpt>
      <trkpt lat="50.80691" lon="1.89378">
        <ele>173</ele>
        <time>2015-05-12T14:16:49.000Z</time>
      </trkpt>
      <trkpt lat="50.80693" lon="1.89378">
        <ele>172</ele>
        <time>2015-05-12T14:16:50.000Z</time>
      </trkpt>
      <trkpt lat="50.80694" lon="1.89379">
        <ele>172</ele>
        <time>2015-05-12T14:16:51.000Z</time>
      </trkpt>
      <trkpt lat="50.80695" lon="1.89379">
        <ele>172</ele>
        <time>2015-05-12T14:16:52.000Z</time>
      </trkpt>
      <trkpt lat="50.80696" lon="1.89379">
        <ele>172</ele>
        <time>2015-05-12T14:16:53.000Z</time>
      </trkpt>
      <trkpt lat="50.80697" lon="1.89379">
        <ele>172</ele>
        <time>2015-05-12T14:16:54.000Z</time>
      </trkpt>
      <trkpt lat="50.80698" lon="1.89379">
        <ele>172</ele>
        <time>2015-05-12T14:16:55.000Z</time>
      </trkpt>
      <trkpt lat="50.80699" lon="1.8938">
        <ele>172</ele>
        <time>2015-05-12T14:16:56.000Z</time>
      </trkpt>
      <trkpt lat="50.807" lon="1.8938">
        <ele>172</ele>
        <time>2015-05-12T14:16:57.000Z</time>
      </trkpt>
      <trkpt lat="50.80701" lon="1.8938">
        <ele>172</ele>
        <time>2015-05-12T14:16:58.000Z</time>
      </trkpt>
      <trkpt lat="50.80703" lon="1.8938">
        <ele>173</ele>
        <time>2015-05-12T14:16:59.000Z</time>
      </trkpt>
      <trkpt lat="50.80704" lon="1.8938">
        <ele>173</ele>
        <time>2015-05-12T14:17:00.000Z</time>
      </trkpt>
      <trkpt lat="50.80705" lon="1.89381">
        <ele>174</ele>
        <time>2015-05-12T14:17:01.000Z</time>
      </trkpt>
      <trkpt lat="50.80706" lon="1.89381">
        <ele>174</ele>
        <time>2015-05-12T14:17:02.000Z</time>
      </trkpt>
      <trkpt lat="50.80707" lon="1.89381">
        <ele>174</ele>
        <time>2015-05-12T14:17:03.000Z</time>
      </trkpt>
      <trkpt lat="50.80708" lon="1.89381">
        <ele>174</ele>
        <time>2015-05-12T14:17:04.000Z</time>
      </trkpt>
      <trkpt lat="50.80709" lon="1.89381">
        <ele>174</ele>
        <time>2015-05-12T14:17:05.000Z</time>
      </trkpt>
      <trkpt lat="50.8071" lon="1.89381">
        <ele>174</ele>
        <time>2015-05-12T14:17:06.000Z</time>
      </trkpt>
      <trkpt lat="50.80711" lon="1.89382">
        <ele>174</ele>
        <time>2015-05-12T14:17:07.000Z</time>
      </trkpt>
      <trkpt lat="50.80712" lon="1.89382">
        <ele>174</ele>
        <time>2015-05-12T14:17:08.000Z</time>
      </trkpt>
      <trkpt lat="50.80713" lon="1.89382">
        <ele>173</ele>
        <time>2015-05-12T14:17:09.000Z</time>
      </trkpt>
      <trkpt lat="50.80714" lon="1.89382">
        <ele>174</ele>
        <time>2015-05-12T14:17:10.000Z</time>
      </trkpt>
      <trkpt lat="50.80715" lon="1.89382">
        <ele>174</ele>
        <time>2015-05-12T14:17:11.000Z</time>
      </trkpt>
      <trkpt lat="50.80716" lon="1.89382">
        <ele>174</ele>
        <time>2015-05-12T14:17:12.000Z</time>
      </trkpt>
      <trkpt lat="50.80716" lon="1.89382">
        <ele>174</ele>
        <time>2015-05-12T14:17:13.000Z</time>
      </trkpt>
      <trkpt lat="50.80717" lon="1.89382">
        <ele>174</ele>
        <time>2015-05-12T14:17:14.000Z</time>
      </trkpt>
      <trkpt lat="50.80718" lon="1.89382">
        <ele>173</ele>
        <time>2015-05-12T14:17:15.000Z</time>
      </trkpt>
      <trkpt lat="50.80719" lon="1.89382">
        <ele>173</ele>
        <time>2015-05-12T14:17:16.000Z</time>
      </trkpt>
      <trkpt lat="50.8072" lon="1.89382">
        <ele>173</ele>
        <time>2015-05-12T14:17:17.000Z</time>
      </trkpt>
      <trkpt lat="50.80721" lon="1.89382">
        <ele>173</ele>
        <time>2015-05-12T14:17:18.000Z</time>
      </trkpt>
      <trkpt lat="50.80722" lon="1.89381">
        <ele>173</ele>
        <time>2015-05-12T14:17:19.000Z</time>
      </trkpt>
      <trkpt lat="50.80723" lon="1.89381">
        <ele>173</ele>
        <time>2015-05-12T14:17:20.000Z</time>
      </trkpt>
      <trkpt lat="50.80723" lon="1.89382">
        <ele>173</ele>
        <time>2015-05-12T14:17:21.000Z</time>
      </trkpt>
      <trkpt lat="50.80724" lon="1.89382">
        <ele>173</ele>
        <time>2015-05-12T14:17:22.000Z</time>
      </trkpt>
      <trkpt lat="50.80725" lon="1.89382">
        <ele>173</ele>
        <time>2015-05-12T14:17:23.000Z</time>
      </trkpt>
      <trkpt lat="50.80726" lon="1.89381">
        <ele>173</ele>
        <time>2015-05-12T14:17:24.000Z</time>
      </trkpt>
      <trkpt lat="50.80727" lon="1.89381">
        <ele>173</ele>
        <time>2015-05-12T14:17:25.000Z</time>
      </trkpt>
      <trkpt lat="50.80728" lon="1.89381">
        <ele>173</ele>
        <time>2015-05-12T14:17:26.000Z</time>
      </trkpt>
      <trkpt lat="50.80729" lon="1.89381">
        <ele>173</ele>
        <time>2015-05-12T14:17:27.000Z</time>
      </trkpt>
      <trkpt lat="50.8073" lon="1.89381">
        <ele>173</ele>
        <time>2015-05-12T14:17:28.000Z</time>
      </trkpt>
      <trkpt lat="50.80731" lon="1.89381">
        <ele>172</ele>
        <time>2015-05-12T14:17:29.000Z</time>
      </trkpt>
      <trkpt lat="50.80732" lon="1.89381">
        <ele>172</ele>
        <time>2015-05-12T14:17:30.000Z</time>
      </trkpt>
      <trkpt lat="50.80733" lon="1.89381">
        <ele>172</ele>
        <time>2015-05-12T14:17:31.000Z</time>
      </trkpt>
      <trkpt lat="50.80734" lon="1.89381">
        <ele>173</ele>
        <time>2015-05-12T14:17:32.000Z</time>
      </trkpt>
      <trkpt lat="50.80735" lon="1.89381">
        <ele>172</ele>
        <time>2015-05-12T14:17:33.000Z</time>
      </trkpt>
      <trkpt lat="50.80736" lon="1.89381">
        <ele>172</ele>
        <time>2015-05-12T14:17:34.000Z</time>
      </trkpt>
      <trkpt lat="50.80737" lon="1.89381">
        <ele>172</ele>
        <time>2015-05-12T14:17:35.000Z</time>
      </trkpt>
      <trkpt lat="50.80738" lon="1.89381">
        <ele>171</ele>
        <time>2015-05-12T14:17:36.000Z</time>
      </trkpt>
      <trkpt lat="50.80739" lon="1.89381">
        <ele>171</ele>
        <time>2015-05-12T14:17:37.000Z</time>
      </trkpt>
      <trkpt lat="50.8074" lon="1.89381">
        <ele>170</ele>
        <time>2015-05-12T14:17:38.000Z</time>
      </trkpt>
      <trkpt lat="50.80741" lon="1.89381">
        <ele>170</ele>
        <time>2015-05-12T14:17:39.000Z</time>
      </trkpt>
      <trkpt lat="50.80742" lon="1.89381">
        <ele>170</ele>
        <time>2015-05-12T14:17:40.000Z</time>
      </trkpt>
      <trkpt lat="50.80743" lon="1.89381">
        <ele>169</ele>
        <time>2015-05-12T14:17:41.000Z</time>
      </trkpt>
      <trkpt lat="50.80745" lon="1.89381">
        <ele>169</ele>
        <time>2015-05-12T14:17:42.000Z</time>
      </trkpt>
      <trkpt lat="50.80746" lon="1.89381">
        <ele>169</ele>
        <time>2015-05-12T14:17:43.000Z</time>
      </trkpt>
      <trkpt lat="50.80748" lon="1.89382">
        <ele>169</ele>
        <time>2015-05-12T14:17:44.000Z</time>
      </trkpt>
      <trkpt lat="50.80749" lon="1.89382">
        <ele>169</ele>
        <time>2015-05-12T14:17:45.000Z</time>
      </trkpt>
      <trkpt lat="50.8075" lon="1.89382">
        <ele>169</ele>
        <time>2015-05-12T14:17:46.000Z</time>
      </trkpt>
      <trkpt lat="50.80752" lon="1.89382">
        <ele>170</ele>
        <time>2015-05-12T14:17:47.000Z</time>
      </trkpt>
      <trkpt lat="50.80753" lon="1.89382">
        <ele>169</ele>
        <time>2015-05-12T14:17:48.000Z</time>
      </trkpt>
      <trkpt lat="50.80754" lon="1.89383">
        <ele>169</ele>
        <time>2015-05-12T14:17:49.000Z</time>
      </trkpt>
      <trkpt lat="50.80756" lon="1.89383">
        <ele>169</ele>
        <time>2015-05-12T14:17:50.000Z</time>
      </trkpt>
      <trkpt lat="50.80757" lon="1.89383">
        <ele>168</ele>
        <time>2015-05-12T14:17:51.000Z</time>
      </trkpt>
      <trkpt lat="50.80758" lon="1.89384">
        <ele>168</ele>
        <time>2015-05-12T14:17:52.000Z</time>
      </trkpt>
      <trkpt lat="50.80759" lon="1.89384">
        <ele>168</ele>
        <time>2015-05-12T14:17:53.000Z</time>
      </trkpt>
      <trkpt lat="50.8076" lon="1.89384">
        <ele>168</ele>
        <time>2015-05-12T14:17:54.000Z</time>
      </trkpt>
      <trkpt lat="50.80761" lon="1.89384">
        <ele>168</ele>
        <time>2015-05-12T14:17:55.000Z</time>
      </trkpt>
      <trkpt lat="50.80763" lon="1.89384">
        <ele>169</ele>
        <time>2015-05-12T14:17:56.000Z</time>
      </trkpt>
      <trkpt lat="50.80764" lon="1.89384">
        <ele>169</ele>
        <time>2015-05-12T14:17:57.000Z</time>
      </trkpt>
      <trkpt lat="50.80766" lon="1.89384">
        <ele>168</ele>
        <time>2015-05-12T14:17:58.000Z</time>
      </trkpt>
      <trkpt lat="50.80766" lon="1.89384">
        <ele>168</ele>
        <time>2015-05-12T14:17:59.000Z</time>
      </trkpt>
      <trkpt lat="50.80767" lon="1.89384">
        <ele>168</ele>
        <time>2015-05-12T14:18:00.000Z</time>
      </trkpt>
      <trkpt lat="50.80769" lon="1.89385">
        <ele>167</ele>
        <time>2015-05-12T14:18:01.000Z</time>
      </trkpt>
      <trkpt lat="50.8077" lon="1.89386">
        <ele>167</ele>
        <time>2015-05-12T14:18:02.000Z</time>
      </trkpt>
      <trkpt lat="50.80771" lon="1.89387">
        <ele>167</ele>
        <time>2015-05-12T14:18:03.000Z</time>
      </trkpt>
      <trkpt lat="50.80772" lon="1.89388">
        <ele>167</ele>
        <time>2015-05-12T14:18:04.000Z</time>
      </trkpt>
      <trkpt lat="50.80773" lon="1.89388">
        <ele>167</ele>
        <time>2015-05-12T14:18:05.000Z</time>
      </trkpt>
      <trkpt lat="50.80774" lon="1.89389">
        <ele>167</ele>
        <time>2015-05-12T14:18:06.000Z</time>
      </trkpt>
      <trkpt lat="50.80775" lon="1.8939">
        <ele>167</ele>
        <time>2015-05-12T14:18:07.000Z</time>
      </trkpt>
      <trkpt lat="50.80776" lon="1.89391">
        <ele>166</ele>
        <time>2015-05-12T14:18:08.000Z</time>
      </trkpt>
      <trkpt lat="50.80777" lon="1.89391">
        <ele>166</ele>
        <time>2015-05-12T14:18:09.000Z</time>
      </trkpt>
      <trkpt lat="50.80778" lon="1.89392">
        <ele>166</ele>
        <time>2015-05-12T14:18:10.000Z</time>
      </trkpt>
      <trkpt lat="50.80779" lon="1.89393">
        <ele>166</ele>
        <time>2015-05-12T14:18:11.000Z</time>
      </trkpt>
      <trkpt lat="50.8078" lon="1.89394">
        <ele>166</ele>
        <time>2015-05-12T14:18:12.000Z</time>
      </trkpt>
      <trkpt lat="50.80781" lon="1.89394">
        <ele>166</ele>
        <time>2015-05-12T14:18:13.000Z</time>
      </trkpt>
      <trkpt lat="50.80782" lon="1.89395">
        <ele>166</ele>
        <time>2015-05-12T14:18:14.000Z</time>
      </trkpt>
      <trkpt lat="50.80783" lon="1.89395">
        <ele>166</ele>
        <time>2015-05-12T14:18:15.000Z</time>
      </trkpt>
      <trkpt lat="50.80783" lon="1.89396">
        <ele>166</ele>
        <time>2015-05-12T14:18:16.000Z</time>
      </trkpt>
      <trkpt lat="50.80784" lon="1.89396">
        <ele>166</ele>
        <time>2015-05-12T14:18:17.000Z</time>
      </trkpt>
      <trkpt lat="50.80785" lon="1.89397">
        <ele>167</ele>
        <time>2015-05-12T14:18:18.000Z</time>
      </trkpt>
      <trkpt lat="50.80786" lon="1.89398">
        <ele>166</ele>
        <time>2015-05-12T14:18:19.000Z</time>
      </trkpt>
      <trkpt lat="50.80787" lon="1.89399">
        <ele>167</ele>
        <time>2015-05-12T14:18:20.000Z</time>
      </trkpt>
      <trkpt lat="50.80788" lon="1.89399">
        <ele>167</ele>
        <time>2015-05-12T14:18:21.000Z</time>
      </trkpt>
      <trkpt lat="50.80789" lon="1.894">
        <ele>167</ele>
        <time>2015-05-12T14:18:22.000Z</time>
      </trkpt>
      <trkpt lat="50.8079" lon="1.89401">
        <ele>167</ele>
        <time>2015-05-12T14:18:23.000Z</time>
      </trkpt>
      <trkpt lat="50.80791" lon="1.89402">
        <ele>167</ele>
        <time>2015-05-12T14:18:24.000Z</time>
      </trkpt>
      <trkpt lat="50.80792" lon="1.89402">
        <ele>167</ele>
        <time>2015-05-12T14:18:25.000Z</time>
      </trkpt>
      <trkpt lat="50.80793" lon="1.89403">
        <ele>167</ele>
        <time>2015-05-12T14:18:26.000Z</time>
      </trkpt>
      <trkpt lat="50.80794" lon="1.89403">
        <ele>167</ele>
        <time>2015-05-12T14:18:27.000Z</time>
      </trkpt>
      <trkpt lat="50.80795" lon="1.89404">
        <ele>167</ele>
        <time>2015-05-12T14:18:28.000Z</time>
      </trkpt>
      <trkpt lat="50.80796" lon="1.89405">
        <ele>167</ele>
        <time>2015-05-12T14:18:29.000Z</time>
      </trkpt>
      <trkpt lat="50.80796" lon="1.89406">
        <ele>167</ele>
        <time>2015-05-12T14:18:30.000Z</time>
      </trkpt>
      <trkpt lat="50.80797" lon="1.89407">
        <ele>167</ele>
        <time>2015-05-12T14:18:31.000Z</time>
      </trkpt>
      <trkpt lat="50.80798" lon="1.89408">
        <ele>167</ele>
        <time>2015-05-12T14:18:32.000Z</time>
      </trkpt>
      <trkpt lat="50.80799" lon="1.89409">
        <ele>167</ele>
        <time>2015-05-12T14:18:33.000Z</time>
      </trkpt>
      <trkpt lat="50.808" lon="1.8941">
        <ele>167</ele>
        <time>2015-05-12T14:18:34.000Z</time>
      </trkpt>
      <trkpt lat="50.808" lon="1.89411">
        <ele>167</ele>
        <time>2015-05-12T14:18:35.000Z</time>
      </trkpt>
      <trkpt lat="50.80801" lon="1.89412">
        <ele>167</ele>
        <time>2015-05-12T14:18:36.000Z</time>
      </trkpt>
      <trkpt lat="50.80802" lon="1.89413">
        <ele>167</ele>
        <time>2015-05-12T14:18:37.000Z</time>
      </trkpt>
      <trkpt lat="50.80803" lon="1.89414">
        <ele>168</ele>
        <time>2015-05-12T14:18:38.000Z</time>
      </trkpt>
      <trkpt lat="50.80804" lon="1.89415">
        <ele>167</ele>
        <time>2015-05-12T14:18:39.000Z</time>
      </trkpt>
      <trkpt lat="50.80805" lon="1.89416">
        <ele>167</ele>
        <time>2015-05-12T14:18:40.000Z</time>
      </trkpt>
      <trkpt lat="50.80806" lon="1.89416">
        <ele>167</ele>
        <time>2015-05-12T14:18:41.000Z</time>
      </trkpt>
      <trkpt lat="50.80807" lon="1.89417">
        <ele>167</ele>
        <time>2015-05-12T14:18:42.000Z</time>
      </trkpt>
      <trkpt lat="50.80808" lon="1.89418">
        <ele>167</ele>
        <time>2015-05-12T14:18:43.000Z</time>
      </trkpt>
      <trkpt lat="50.80809" lon="1.89419">
        <ele>167</ele>
        <time>2015-05-12T14:18:44.000Z</time>
      </trkpt>
      <trkpt lat="50.8081" lon="1.8942">
        <ele>166</ele>
        <time>2015-05-12T14:18:45.000Z</time>
      </trkpt>
      <trkpt lat="50.80811" lon="1.89422">
        <ele>166</ele>
        <time>2015-05-12T14:18:46.000Z</time>
      </trkpt>
      <trkpt lat="50.80812" lon="1.89423">
        <ele>166</ele>
        <time>2015-05-12T14:18:47.000Z</time>
      </trkpt>
      <trkpt lat="50.80813" lon="1.89424">
        <ele>166</ele>
        <time>2015-05-12T14:18:48.000Z</time>
      </trkpt>
      <trkpt lat="50.80813" lon="1.89424">
        <ele>166</ele>
        <time>2015-05-12T14:18:49.000Z</time>
      </trkpt>
      <trkpt lat="50.80814" lon="1.89425">
        <ele>166</ele>
        <time>2015-05-12T14:18:50.000Z</time>
      </trkpt>
      <trkpt lat="50.80815" lon="1.89427">
        <ele>166</ele>
        <time>2015-05-12T14:18:51.000Z</time>
      </trkpt>
      <trkpt lat="50.80817" lon="1.89428">
        <ele>166</ele>
        <time>2015-05-12T14:18:52.000Z</time>
      </trkpt>
      <trkpt lat="50.80817" lon="1.89429">
        <ele>166</ele>
        <time>2015-05-12T14:18:53.000Z</time>
      </trkpt>
      <trkpt lat="50.80818" lon="1.89431">
        <ele>166</ele>
        <time>2015-05-12T14:18:54.000Z</time>
      </trkpt>
      <trkpt lat="50.80819" lon="1.89431">
        <ele>166</ele>
        <time>2015-05-12T14:18:55.000Z</time>
      </trkpt>
      <trkpt lat="50.8082" lon="1.89432">
        <ele>166</ele>
        <time>2015-05-12T14:18:56.000Z</time>
      </trkpt>
      <trkpt lat="50.80821" lon="1.89433">
        <ele>165</ele>
        <time>2015-05-12T14:18:57.000Z</time>
      </trkpt>
      <trkpt lat="50.80823" lon="1.89434">
        <ele>165</ele>
        <time>2015-05-12T14:18:58.000Z</time>
      </trkpt>
      <trkpt lat="50.80824" lon="1.89435">
        <ele>165</ele>
        <time>2015-05-12T14:18:59.000Z</time>
      </trkpt>
      <trkpt lat="50.80825" lon="1.89437">
        <ele>165</ele>
        <time>2015-05-12T14:19:00.000Z</time>
      </trkpt>
      <trkpt lat="50.80826" lon="1.89438">
        <ele>165</ele>
        <time>2015-05-12T14:19:01.000Z</time>
      </trkpt>
      <trkpt lat="50.80827" lon="1.89439">
        <ele>165</ele>
        <time>2015-05-12T14:19:02.000Z</time>
      </trkpt>
      <trkpt lat="50.80828" lon="1.8944">
        <ele>166</ele>
        <time>2015-05-12T14:19:03.000Z</time>
      </trkpt>
      <trkpt lat="50.80829" lon="1.89441">
        <ele>166</ele>
        <time>2015-05-12T14:19:04.000Z</time>
      </trkpt>
      <trkpt lat="50.8083" lon="1.89442">
        <ele>166</ele>
        <time>2015-05-12T14:19:05.000Z</time>
      </trkpt>
      <trkpt lat="50.80831" lon="1.89443">
        <ele>166</ele>
        <time>2015-05-12T14:19:06.000Z</time>
      </trkpt>
      <trkpt lat="50.80832" lon="1.89444">
        <ele>167</ele>
        <time>2015-05-12T14:19:07.000Z</time>
      </trkpt>
      <trkpt lat="50.80833" lon="1.89445">
        <ele>167</ele>
        <time>2015-05-12T14:19:08.000Z</time>
      </trkpt>
      <trkpt lat="50.80834" lon="1.89447">
        <ele>167</ele>
        <time>2015-05-12T14:19:09.000Z</time>
      </trkpt>
      <trkpt lat="50.80835" lon="1.89448">
        <ele>168</ele>
        <time>2015-05-12T14:19:10.000Z</time>
      </trkpt>
      <trkpt lat="50.80836" lon="1.89449">
        <ele>168</ele>
        <time>2015-05-12T14:19:11.000Z</time>
      </trkpt>
      <trkpt lat="50.80837" lon="1.8945">
        <ele>168</ele>
        <time>2015-05-12T14:19:12.000Z</time>
      </trkpt>
      <trkpt lat="50.80838" lon="1.89452">
        <ele>168</ele>
        <time>2015-05-12T14:19:13.000Z</time>
      </trkpt>
      <trkpt lat="50.80839" lon="1.89453">
        <ele>168</ele>
        <time>2015-05-12T14:19:14.000Z</time>
      </trkpt>
      <trkpt lat="50.8084" lon="1.89454">
        <ele>168</ele>
        <time>2015-05-12T14:19:15.000Z</time>
      </trkpt>
      <trkpt lat="50.80841" lon="1.89455">
        <ele>168</ele>
        <time>2015-05-12T14:19:16.000Z</time>
      </trkpt>
      <trkpt lat="50.80842" lon="1.89456">
        <ele>168</ele>
        <time>2015-05-12T14:19:17.000Z</time>
      </trkpt>
      <trkpt lat="50.80843" lon="1.89457">
        <ele>167</ele>
        <time>2015-05-12T14:19:18.000Z</time>
      </trkpt>
      <trkpt lat="50.80843" lon="1.89459">
        <ele>167</ele>
        <time>2015-05-12T14:19:19.000Z</time>
      </trkpt>
      <trkpt lat="50.80844" lon="1.89459">
        <ele>167</ele>
        <time>2015-05-12T14:19:20.000Z</time>
      </trkpt>
      <trkpt lat="50.80845" lon="1.8946">
        <ele>166</ele>
        <time>2015-05-12T14:19:21.000Z</time>
      </trkpt>
      <trkpt lat="50.80846" lon="1.89461">
        <ele>166</ele>
        <time>2015-05-12T14:19:22.000Z</time>
      </trkpt>
      <trkpt lat="50.80847" lon="1.89462">
        <ele>166</ele>
        <time>2015-05-12T14:19:23.000Z</time>
      </trkpt>
      <trkpt lat="50.80848" lon="1.89463">
        <ele>166</ele>
        <time>2015-05-12T14:19:24.000Z</time>
      </trkpt>
      <trkpt lat="50.80848" lon="1.89464">
        <ele>165</ele>
        <time>2015-05-12T14:19:25.000Z</time>
      </trkpt>
      <trkpt lat="50.80849" lon="1.89466">
        <ele>166</ele>
        <time>2015-05-12T14:19:26.000Z</time>
      </trkpt>
      <trkpt lat="50.8085" lon="1.89467">
        <ele>166</ele>
        <time>2015-05-12T14:19:27.000Z</time>
      </trkpt>
      <trkpt lat="50.8085" lon="1.89468">
        <ele>166</ele>
        <time>2015-05-12T14:19:28.000Z</time>
      </trkpt>
      <trkpt lat="50.80851" lon="1.8947">
        <ele>167</ele>
        <time>2015-05-12T14:19:29.000Z</time>
      </trkpt>
      <trkpt lat="50.80852" lon="1.89471">
        <ele>166</ele>
        <time>2015-05-12T14:19:30.000Z</time>
      </trkpt>
      <trkpt lat="50.80853" lon="1.89472">
        <ele>166</ele>
        <time>2015-05-12T14:19:31.000Z</time>
      </trkpt>
      <trkpt lat="50.80853" lon="1.89473">
        <ele>166</ele>
        <time>2015-05-12T14:19:32.000Z</time>
      </trkpt>
      <trkpt lat="50.80854" lon="1.89474">
        <ele>166</ele>
        <time>2015-05-12T14:19:33.000Z</time>
      </trkpt>
      <trkpt lat="50.80855" lon="1.89475">
        <ele>166</ele>
        <time>2015-05-12T14:19:34.000Z</time>
      </trkpt>
      <trkpt lat="50.80856" lon="1.89476">
        <ele>166</ele>
        <time>2015-05-12T14:19:35.000Z</time>
      </trkpt>
      <trkpt lat="50.80856" lon="1.89477">
        <ele>166</ele>
        <time>2015-05-12T14:19:36.000Z</time>
      </trkpt>
      <trkpt lat="50.80857" lon="1.89478">
        <ele>166</ele>
        <time>2015-05-12T14:19:37.000Z</time>
      </trkpt>
      <trkpt lat="50.80858" lon="1.89479">
        <ele>166</ele>
        <time>2015-05-12T14:19:38.000Z</time>
      </trkpt>
      <trkpt lat="50.80859" lon="1.8948">
        <ele>166</ele>
        <time>2015-05-12T14:19:39.000Z</time>
      </trkpt>
      <trkpt lat="50.8086" lon="1.89482">
        <ele>165</ele>
        <time>2015-05-12T14:19:40.000Z</time>
      </trkpt>
      <trkpt lat="50.8086" lon="1.89483">
        <ele>165</ele>
        <time>2015-05-12T14:19:41.000Z</time>
      </trkpt>
      <trkpt lat="50.80861" lon="1.89484">
        <ele>165</ele>
        <time>2015-05-12T14:19:42.000Z</time>
      </trkpt>
      <trkpt lat="50.80862" lon="1.89485">
        <ele>165</ele>
        <time>2015-05-12T14:19:43.000Z</time>
      </trkpt>
      <trkpt lat="50.80862" lon="1.89486">
        <ele>165</ele>
        <time>2015-05-12T14:19:44.000Z</time>
      </trkpt>
      <trkpt lat="50.80863" lon="1.89487">
        <ele>165</ele>
        <time>2015-05-12T14:19:45.000Z</time>
      </trkpt>
      <trkpt lat="50.80864" lon="1.89488">
        <ele>165</ele>
        <time>2015-05-12T14:19:46.000Z</time>
      </trkpt>
      <trkpt lat="50.80865" lon="1.89489">
        <ele>165</ele>
        <time>2015-05-12T14:19:47.000Z</time>
      </trkpt>
      <trkpt lat="50.80865" lon="1.89491">
        <ele>165</ele>
        <time>2015-05-12T14:19:48.000Z</time>
      </trkpt>
      <trkpt lat="50.80866" lon="1.89492">
        <ele>165</ele>
        <time>2015-05-12T14:19:49.000Z</time>
      </trkpt>
      <trkpt lat="50.80867" lon="1.89493">
        <ele>166</ele>
        <time>2015-05-12T14:19:50.000Z</time>
      </trkpt>
      <trkpt lat="50.80868" lon="1.89494">
        <ele>166</ele>
        <time>2015-05-12T14:19:51.000Z</time>
      </trkpt>
      <trkpt lat="50.80869" lon="1.89495">
        <ele>165</ele>
        <time>2015-05-12T14:19:52.000Z</time>
      </trkpt>
      <trkpt lat="50.80869" lon="1.89496">
        <ele>165</ele>
        <time>2015-05-12T14:19:53.000Z</time>
      </trkpt>
      <trkpt lat="50.8087" lon="1.89497">
        <ele>165</ele>
        <time>2015-05-12T14:19:54.000Z</time>
      </trkpt>
      <trkpt lat="50.80871" lon="1.89498">
        <ele>165</ele>
        <time>2015-05-12T14:19:55.000Z</time>
      </trkpt>
      <trkpt lat="50.80872" lon="1.89499">
        <ele>165</ele>
        <time>2015-05-12T14:19:56.000Z</time>
      </trkpt>
      <trkpt lat="50.80872" lon="1.89499">
        <ele>165</ele>
        <time>2015-05-12T14:19:57.000Z</time>
      </trkpt>
      <trkpt lat="50.80873" lon="1.895">
        <ele>166</ele>
        <time>2015-05-12T14:19:58.000Z</time>
      </trkpt>
      <trkpt lat="50.80874" lon="1.89501">
        <ele>166</ele>
        <time>2015-05-12T14:19:59.000Z</time>
      </trkpt>
      <trkpt lat="50.80874" lon="1.89502">
        <ele>165</ele>
        <time>2015-05-12T14:20:00.000Z</time>
      </trkpt>
      <trkpt lat="50.80875" lon="1.89503">
        <ele>165</ele>
        <time>2015-05-12T14:20:01.000Z</time>
      </trkpt>
      <trkpt lat="50.80876" lon="1.89504">
        <ele>165</ele>
        <time>2015-05-12T14:20:02.000Z</time>
      </trkpt>
      <trkpt lat="50.80877" lon="1.89505">
        <ele>166</ele>
        <time>2015-05-12T14:20:03.000Z</time>
      </trkpt>
      <trkpt lat="50.80878" lon="1.89506">
        <ele>166</ele>
        <time>2015-05-12T14:20:04.000Z</time>
      </trkpt>
      <trkpt lat="50.80879" lon="1.89507">
        <ele>167</ele>
        <time>2015-05-12T14:20:05.000Z</time>
      </trkpt>
      <trkpt lat="50.8088" lon="1.89508">
        <ele>167</ele>
        <time>2015-05-12T14:20:06.000Z</time>
      </trkpt>
      <trkpt lat="50.80881" lon="1.8951">
        <ele>167</ele>
        <time>2015-05-12T14:20:07.000Z</time>
      </trkpt>
      <trkpt lat="50.80882" lon="1.89511">
        <ele>167</ele>
        <time>2015-05-12T14:20:08.000Z</time>
      </trkpt>
      <trkpt lat="50.80883" lon="1.89512">
        <ele>169</ele>
        <time>2015-05-12T14:20:09.000Z</time>
      </trkpt>
      <trkpt lat="50.80884" lon="1.89513">
        <ele>168</ele>
        <time>2015-05-12T14:20:10.000Z</time>
      </trkpt>
      <trkpt lat="50.80885" lon="1.89514">
        <ele>169</ele>
        <time>2015-05-12T14:20:11.000Z</time>
      </trkpt>
      <trkpt lat="50.80886" lon="1.89515">
        <ele>169</ele>
        <time>2015-05-12T14:20:12.000Z</time>
      </trkpt>
      <trkpt lat="50.80887" lon="1.89516">
        <ele>169</ele>
        <time>2015-05-12T14:20:13.000Z</time>
      </trkpt>
      <trkpt lat="50.80888" lon="1.89517">
        <ele>169</ele>
        <time>2015-05-12T14:20:14.000Z</time>
      </trkpt>
      <trkpt lat="50.80889" lon="1.89518">
        <ele>169</ele>
        <time>2015-05-12T14:20:15.000Z</time>
      </trkpt>
      <trkpt lat="50.8089" lon="1.89519">
        <ele>169</ele>
        <time>2015-05-12T14:20:16.000Z</time>
      </trkpt>
      <trkpt lat="50.80891" lon="1.8952">
        <ele>169</ele>
        <time>2015-05-12T14:20:17.000Z</time>
      </trkpt>
      <trkpt lat="50.80892" lon="1.89521">
        <ele>168</ele>
        <time>2015-05-12T14:20:18.000Z</time>
      </trkpt>
      <trkpt lat="50.80893" lon="1.89522">
        <ele>168</ele>
        <time>2015-05-12T14:20:19.000Z</time>
      </trkpt>
      <trkpt lat="50.80894" lon="1.89522">
        <ele>168</ele>
        <time>2015-05-12T14:20:20.000Z</time>
      </trkpt>
      <trkpt lat="50.80895" lon="1.89524">
        <ele>168</ele>
        <time>2015-05-12T14:20:21.000Z</time>
      </trkpt>
      <trkpt lat="50.80896" lon="1.89525">
        <ele>168</ele>
        <time>2015-05-12T14:20:22.000Z</time>
      </trkpt>
      <trkpt lat="50.80897" lon="1.89525">
        <ele>168</ele>
        <time>2015-05-12T14:20:23.000Z</time>
      </trkpt>
      <trkpt lat="50.80898" lon="1.89526">
        <ele>168</ele>
        <time>2015-05-12T14:20:24.000Z</time>
      </trkpt>
      <trkpt lat="50.80899" lon="1.89527">
        <ele>168</ele>
        <time>2015-05-12T14:20:25.000Z</time>
      </trkpt>
      <trkpt lat="50.809" lon="1.89528">
        <ele>168</ele>
        <time>2015-05-12T14:20:26.000Z</time>
      </trkpt>
      <trkpt lat="50.80901" lon="1.89528">
        <ele>168</ele>
        <time>2015-05-12T14:20:27.000Z</time>
      </trkpt>
      <trkpt lat="50.80902" lon="1.89529">
        <ele>168</ele>
        <time>2015-05-12T14:20:28.000Z</time>
      </trkpt>
      <trkpt lat="50.80903" lon="1.8953">
        <ele>168</ele>
        <time>2015-05-12T14:20:29.000Z</time>
      </trkpt>
      <trkpt lat="50.80903" lon="1.89531">
        <ele>168</ele>
        <time>2015-05-12T14:20:30.000Z</time>
      </trkpt>
      <trkpt lat="50.80904" lon="1.89532">
        <ele>168</ele>
        <time>2015-05-12T14:20:31.000Z</time>
      </trkpt>
      <trkpt lat="50.80904" lon="1.89533">
        <ele>168</ele>
        <time>2015-05-12T14:20:32.000Z</time>
      </trkpt>
      <trkpt lat="50.80905" lon="1.89534">
        <ele>167</ele>
        <time>2015-05-12T14:20:33.000Z</time>
      </trkpt>
      <trkpt lat="50.80906" lon="1.89535">
        <ele>167</ele>
        <time>2015-05-12T14:20:34.000Z</time>
      </trkpt>
      <trkpt lat="50.80907" lon="1.89536">
        <ele>167</ele>
        <time>2015-05-12T14:20:35.000Z</time>
      </trkpt>
      <trkpt lat="50.80908" lon="1.89536">
        <ele>167</ele>
        <time>2015-05-12T14:20:36.000Z</time>
      </trkpt>
      <trkpt lat="50.80909" lon="1.89537">
        <ele>168</ele>
        <time>2015-05-12T14:20:37.000Z</time>
      </trkpt>
      <trkpt lat="50.8091" lon="1.89538">
        <ele>168</ele>
        <time>2015-05-12T14:20:38.000Z</time>
      </trkpt>
      <trkpt lat="50.80911" lon="1.89539">
        <ele>168</ele>
        <time>2015-05-12T14:20:39.000Z</time>
      </trkpt>
      <trkpt lat="50.80912" lon="1.8954">
        <ele>168</ele>
        <time>2015-05-12T14:20:40.000Z</time>
      </trkpt>
      <trkpt lat="50.80913" lon="1.89541">
        <ele>168</ele>
        <time>2015-05-12T14:20:41.000Z</time>
      </trkpt>
      <trkpt lat="50.80913" lon="1.89542">
        <ele>168</ele>
        <time>2015-05-12T14:20:42.000Z</time>
      </trkpt>
      <trkpt lat="50.80913" lon="1.89542">
        <ele>168</ele>
        <time>2015-05-12T14:20:43.000Z</time>
      </trkpt>
      <trkpt lat="50.80912" lon="1.89542">
        <ele>168</ele>
        <time>2015-05-12T14:20:44.000Z</time>
      </trkpt>
      <trkpt lat="50.80912" lon="1.89542">
        <ele>168</ele>
        <time>2015-05-12T14:20:45.000Z</time>
      </trkpt>
      <trkpt lat="50.80912" lon="1.89542">
        <ele>168</ele>
        <time>2015-05-12T14:20:46.000Z</time>
      </trkpt>
      <trkpt lat="50.80912" lon="1.89543">
        <ele>168</ele>
        <time>2015-05-12T14:20:47.000Z</time>
      </trkpt>
      <trkpt lat="50.80912" lon="1.89543">
        <ele>168</ele>
        <time>2015-05-12T14:20:48.000Z</time>
      </trkpt>
      <trkpt lat="50.80912" lon="1.89543">
        <ele>168</ele>
        <time>2015-05-12T14:20:49.000Z</time>
      </trkpt>
      <trkpt lat="50.80913" lon="1.89544">
        <ele>168</ele>
        <time>2015-05-12T14:20:50.000Z</time>
      </trkpt>
      <trkpt lat="50.80913" lon="1.89544">
        <ele>168</ele>
        <time>2015-05-12T14:20:51.000Z</time>
      </trkpt>
      <trkpt lat="50.80914" lon="1.89545">
        <ele>168</ele>
        <time>2015-05-12T14:20:52.000Z</time>
      </trkpt>
      <trkpt lat="50.80915" lon="1.89546">
        <ele>167</ele>
        <time>2015-05-12T14:20:53.000Z</time>
      </trkpt>
      <trkpt lat="50.80916" lon="1.89546">
        <ele>168</ele>
        <time>2015-05-12T14:20:54.000Z</time>
      </trkpt>
      <trkpt lat="50.80917" lon="1.89547">
        <ele>167</ele>
        <time>2015-05-12T14:20:55.000Z</time>
      </trkpt>
      <trkpt lat="50.80918" lon="1.89549">
        <ele>167</ele>
        <time>2015-05-12T14:20:56.000Z</time>
      </trkpt>
      <trkpt lat="50.8092" lon="1.8955">
        <ele>167</ele>
        <time>2015-05-12T14:20:57.000Z</time>
      </trkpt>
      <trkpt lat="50.80921" lon="1.89551">
        <ele>167</ele>
        <time>2015-05-12T14:20:58.000Z</time>
      </trkpt>
      <trkpt lat="50.80921" lon="1.89552">
        <ele>167</ele>
        <time>2015-05-12T14:20:59.000Z</time>
      </trkpt>
      <trkpt lat="50.80922" lon="1.89553">
        <ele>167</ele>
        <time>2015-05-12T14:21:00.000Z</time>
      </trkpt>
      <trkpt lat="50.80923" lon="1.89555">
        <ele>167</ele>
        <time>2015-05-12T14:21:01.000Z</time>
      </trkpt>
      <trkpt lat="50.80924" lon="1.89556">
        <ele>167</ele>
        <time>2015-05-12T14:21:02.000Z</time>
      </trkpt>
      <trkpt lat="50.80925" lon="1.89557">
        <ele>167</ele>
        <time>2015-05-12T14:21:03.000Z</time>
      </trkpt>
      <trkpt lat="50.80926" lon="1.89558">
        <ele>167</ele>
        <time>2015-05-12T14:21:04.000Z</time>
      </trkpt>
      <trkpt lat="50.80927" lon="1.8956">
        <ele>167</ele>
        <time>2015-05-12T14:21:05.000Z</time>
      </trkpt>
      <trkpt lat="50.80928" lon="1.89561">
        <ele>167</ele>
        <time>2015-05-12T14:21:06.000Z</time>
      </trkpt>
      <trkpt lat="50.80929" lon="1.89561">
        <ele>167</ele>
        <time>2015-05-12T14:21:07.000Z</time>
      </trkpt>
      <trkpt lat="50.8093" lon="1.89562">
        <ele>167</ele>
        <time>2015-05-12T14:21:08.000Z</time>
      </trkpt>
      <trkpt lat="50.80931" lon="1.89563">
        <ele>167</ele>
        <time>2015-05-12T14:21:09.000Z</time>
      </trkpt>
      <trkpt lat="50.80933" lon="1.89563">
        <ele>166</ele>
        <time>2015-05-12T14:21:10.000Z</time>
      </trkpt>
      <trkpt lat="50.80934" lon="1.89564">
        <ele>166</ele>
        <time>2015-05-12T14:21:11.000Z</time>
      </trkpt>
      <trkpt lat="50.80935" lon="1.89566">
        <ele>166</ele>
        <time>2015-05-12T14:21:12.000Z</time>
      </trkpt>
      <trkpt lat="50.80936" lon="1.89567">
        <ele>166</ele>
        <time>2015-05-12T14:21:13.000Z</time>
      </trkpt>
      <trkpt lat="50.80937" lon="1.89568">
        <ele>166</ele>
        <time>2015-05-12T14:21:14.000Z</time>
      </trkpt>
      <trkpt lat="50.80938" lon="1.89569">
        <ele>166</ele>
        <time>2015-05-12T14:21:15.000Z</time>
      </trkpt>
      <trkpt lat="50.80939" lon="1.8957">
        <ele>166</ele>
        <time>2015-05-12T14:21:16.000Z</time>
      </trkpt>
      <trkpt lat="50.8094" lon="1.89571">
        <ele>166</ele>
        <time>2015-05-12T14:21:17.000Z</time>
      </trkpt>
      <trkpt lat="50.80941" lon="1.89572">
        <ele>166</ele>
        <time>2015-05-12T14:21:18.000Z</time>
      </trkpt>
      <trkpt lat="50.80942" lon="1.89573">
        <ele>166</ele>
        <time>2015-05-12T14:21:19.000Z</time>
      </trkpt>
      <trkpt lat="50.80943" lon="1.89575">
        <ele>166</ele>
        <time>2015-05-12T14:21:20.000Z</time>
      </trkpt>
      <trkpt lat="50.80944" lon="1.89576">
        <ele>166</ele>
        <time>2015-05-12T14:21:21.000Z</time>
      </trkpt>
      <trkpt lat="50.80945" lon="1.89577">
        <ele>166</ele>
        <time>2015-05-12T14:21:22.000Z</time>
      </trkpt>
      <trkpt lat="50.80946" lon="1.89579">
        <ele>166</ele>
        <time>2015-05-12T14:21:23.000Z</time>
      </trkpt>
      <trkpt lat="50.80948" lon="1.8958">
        <ele>166</ele>
        <time>2015-05-12T14:21:24.000Z</time>
      </trkpt>
      <trkpt lat="50.80949" lon="1.89581">
        <ele>166</ele>
        <time>2015-05-12T14:21:25.000Z</time>
      </trkpt>
      <trkpt lat="50.8095" lon="1.89582">
        <ele>166</ele>
        <time>2015-05-12T14:21:26.000Z</time>
      </trkpt>
      <trkpt lat="50.80951" lon="1.89583">
        <ele>166</ele>
        <time>2015-05-12T14:21:27.000Z</time>
      </trkpt>
      <trkpt lat="50.80952" lon="1.89584">
        <ele>166</ele>
        <time>2015-05-12T14:21:28.000Z</time>
      </trkpt>
      <trkpt lat="50.80953" lon="1.89585">
        <ele>167</ele>
        <time>2015-05-12T14:21:29.000Z</time>
      </trkpt>
      <trkpt lat="50.80954" lon="1.89587">
        <ele>166</ele>
        <time>2015-05-12T14:21:30.000Z</time>
      </trkpt>
      <trkpt lat="50.80954" lon="1.89588">
        <ele>167</ele>
        <time>2015-05-12T14:21:31.000Z</time>
      </trkpt>
      <trkpt lat="50.80955" lon="1.89589">
        <ele>167</ele>
        <time>2015-05-12T14:21:32.000Z</time>
      </trkpt>
      <trkpt lat="50.80956" lon="1.8959">
        <ele>167</ele>
        <time>2015-05-12T14:21:33.000Z</time>
      </trkpt>
      <trkpt lat="50.80957" lon="1.89591">
        <ele>167</ele>
        <time>2015-05-12T14:21:34.000Z</time>
      </trkpt>
      <trkpt lat="50.80958" lon="1.89593">
        <ele>167</ele>
        <time>2015-05-12T14:21:35.000Z</time>
      </trkpt>
      <trkpt lat="50.80959" lon="1.89594">
        <ele>167</ele>
        <time>2015-05-12T14:21:36.000Z</time>
      </trkpt>
      <trkpt lat="50.8096" lon="1.89595">
        <ele>167</ele>
        <time>2015-05-12T14:21:37.000Z</time>
      </trkpt>
      <trkpt lat="50.80961" lon="1.89596">
        <ele>168</ele>
        <time>2015-05-12T14:21:38.000Z</time>
      </trkpt>
      <trkpt lat="50.80962" lon="1.89597">
        <ele>168</ele>
        <time>2015-05-12T14:21:39.000Z</time>
      </trkpt>
      <trkpt lat="50.80963" lon="1.89598">
        <ele>168</ele>
        <time>2015-05-12T14:21:40.000Z</time>
      </trkpt>
      <trkpt lat="50.80964" lon="1.89599">
        <ele>168</ele>
        <time>2015-05-12T14:21:41.000Z</time>
      </trkpt>
      <trkpt lat="50.80965" lon="1.896">
        <ele>168</ele>
        <time>2015-05-12T14:21:42.000Z</time>
      </trkpt>
      <trkpt lat="50.80966" lon="1.89601">
        <ele>169</ele>
        <time>2015-05-12T14:21:43.000Z</time>
      </trkpt>
      <trkpt lat="50.80967" lon="1.89602">
        <ele>169</ele>
        <time>2015-05-12T14:21:44.000Z</time>
      </trkpt>
      <trkpt lat="50.80967" lon="1.89603">
        <ele>169</ele>
        <time>2015-05-12T14:21:45.000Z</time>
      </trkpt>
      <trkpt lat="50.80968" lon="1.89604">
        <ele>170</ele>
        <time>2015-05-12T14:21:46.000Z</time>
      </trkpt>
      <trkpt lat="50.80968" lon="1.89605">
        <ele>170</ele>
        <time>2015-05-12T14:21:47.000Z</time>
      </trkpt>
      <trkpt lat="50.80969" lon="1.89606">
        <ele>170</ele>
        <time>2015-05-12T14:21:48.000Z</time>
      </trkpt>
      <trkpt lat="50.80969" lon="1.89607">
        <ele>171</ele>
        <time>2015-05-12T14:21:49.000Z</time>
      </trkpt>
      <trkpt lat="50.8097" lon="1.89608">
        <ele>171</ele>
        <time>2015-05-12T14:21:50.000Z</time>
      </trkpt>
      <trkpt lat="50.80971" lon="1.8961">
        <ele>172</ele>
        <time>2015-05-12T14:21:51.000Z</time>
      </trkpt>
      <trkpt lat="50.80972" lon="1.89611">
        <ele>173</ele>
        <time>2015-05-12T14:21:52.000Z</time>
      </trkpt>
      <trkpt lat="50.80973" lon="1.89613">
        <ele>173</ele>
        <time>2015-05-12T14:21:53.000Z</time>
      </trkpt>
      <trkpt lat="50.80974" lon="1.89614">
        <ele>173</ele>
        <time>2015-05-12T14:21:54.000Z</time>
      </trkpt>
      <trkpt lat="50.80975" lon="1.89616">
        <ele>172</ele>
        <time>2015-05-12T14:21:55.000Z</time>
      </trkpt>
      <trkpt lat="50.80976" lon="1.89617">
        <ele>172</ele>
        <time>2015-05-12T14:21:56.000Z</time>
      </trkpt>
      <trkpt lat="50.80977" lon="1.89618">
        <ele>172</ele>
        <time>2015-05-12T14:21:57.000Z</time>
      </trkpt>
      <trkpt lat="50.80978" lon="1.89619">
        <ele>171</ele>
        <time>2015-05-12T14:21:58.000Z</time>
      </trkpt>
      <trkpt lat="50.80979" lon="1.89621">
        <ele>171</ele>
        <time>2015-05-12T14:21:59.000Z</time>
      </trkpt>
      <trkpt lat="50.8098" lon="1.89623">
        <ele>171</ele>
        <time>2015-05-12T14:22:00.000Z</time>
      </trkpt>
      <trkpt lat="50.80981" lon="1.89624">
        <ele>171</ele>
        <time>2015-05-12T14:22:01.000Z</time>
      </trkpt>
      <trkpt lat="50.80981" lon="1.89626">
        <ele>171</ele>
        <time>2015-05-12T14:22:02.000Z</time>
      </trkpt>
      <trkpt lat="50.80982" lon="1.89627">
        <ele>171</ele>
        <time>2015-05-12T14:22:03.000Z</time>
      </trkpt>
      <trkpt lat="50.80983" lon="1.89629">
        <ele>171</ele>
        <time>2015-05-12T14:22:04.000Z</time>
      </trkpt>
      <trkpt lat="50.80984" lon="1.8963">
        <ele>170</ele>
        <time>2015-05-12T14:22:05.000Z</time>
      </trkpt>
      <trkpt lat="50.80985" lon="1.89631">
        <ele>170</ele>
        <time>2015-05-12T14:22:06.000Z</time>
      </trkpt>
      <trkpt lat="50.80986" lon="1.89633">
        <ele>170</ele>
        <time>2015-05-12T14:22:07.000Z</time>
      </trkpt>
      <trkpt lat="50.80987" lon="1.89634">
        <ele>170</ele>
        <time>2015-05-12T14:22:08.000Z</time>
      </trkpt>
      <trkpt lat="50.80987" lon="1.89636">
        <ele>169</ele>
        <time>2015-05-12T14:22:09.000Z</time>
      </trkpt>
      <trkpt lat="50.80988" lon="1.89637">
        <ele>170</ele>
        <time>2015-05-12T14:22:10.000Z</time>
      </trkpt>
      <trkpt lat="50.80989" lon="1.89638">
        <ele>170</ele>
        <time>2015-05-12T14:22:11.000Z</time>
      </trkpt>
      <trkpt lat="50.8099" lon="1.89639">
        <ele>170</ele>
        <time>2015-05-12T14:22:12.000Z</time>
      </trkpt>
      <trkpt lat="50.80991" lon="1.89641">
        <ele>170</ele>
        <time>2015-05-12T14:22:13.000Z</time>
      </trkpt>
      <trkpt lat="50.80992" lon="1.89643">
        <ele>170</ele>
        <time>2015-05-12T14:22:14.000Z</time>
      </trkpt>
      <trkpt lat="50.80993" lon="1.89645">
        <ele>170</ele>
        <time>2015-05-12T14:22:15.000Z</time>
      </trkpt>
      <trkpt lat="50.80994" lon="1.89646">
        <ele>170</ele>
        <time>2015-05-12T14:22:16.000Z</time>
      </trkpt>
      <trkpt lat="50.80996" lon="1.89647">
        <ele>170</ele>
        <time>2015-05-12T14:22:17.000Z</time>
      </trkpt>
      <trkpt lat="50.80997" lon="1.89648">
        <ele>171</ele>
        <time>2015-05-12T14:22:18.000Z</time>
      </trkpt>
      <trkpt lat="50.80998" lon="1.8965">
        <ele>171</ele>
        <time>2015-05-12T14:22:19.000Z</time>
      </trkpt>
      <trkpt lat="50.80999" lon="1.89651">
        <ele>171</ele>
        <time>2015-05-12T14:22:20.000Z</time>
      </trkpt>
      <trkpt lat="50.81" lon="1.89652">
        <ele>171</ele>
        <time>2015-05-12T14:22:21.000Z</time>
      </trkpt>
      <trkpt lat="50.81001" lon="1.89654">
        <ele>171</ele>
        <time>2015-05-12T14:22:22.000Z</time>
      </trkpt>
      <trkpt lat="50.81002" lon="1.89655">
        <ele>172</ele>
        <time>2015-05-12T14:22:23.000Z</time>
      </trkpt>
      <trkpt lat="50.81003" lon="1.89656">
        <ele>171</ele>
        <time>2015-05-12T14:22:24.000Z</time>
      </trkpt>
      <trkpt lat="50.81004" lon="1.89657">
        <ele>170</ele>
        <time>2015-05-12T14:22:25.000Z</time>
      </trkpt>
      <trkpt lat="50.81004" lon="1.89658">
        <ele>170</ele>
        <time>2015-05-12T14:22:26.000Z</time>
      </trkpt>
      <trkpt lat="50.81005" lon="1.8966">
        <ele>170</ele>
        <time>2015-05-12T14:22:27.000Z</time>
      </trkpt>
      <trkpt lat="50.81006" lon="1.89661">
        <ele>170</ele>
        <time>2015-05-12T14:22:28.000Z</time>
      </trkpt>
      <trkpt lat="50.81007" lon="1.89662">
        <ele>170</ele>
        <time>2015-05-12T14:22:29.000Z</time>
      </trkpt>
      <trkpt lat="50.81008" lon="1.89664">
        <ele>171</ele>
        <time>2015-05-12T14:22:30.000Z</time>
      </trkpt>
      <trkpt lat="50.81008" lon="1.89666">
        <ele>172</ele>
        <time>2015-05-12T14:22:31.000Z</time>
      </trkpt>
      <trkpt lat="50.81009" lon="1.89668">
        <ele>172</ele>
        <time>2015-05-12T14:22:32.000Z</time>
      </trkpt>
      <trkpt lat="50.8101" lon="1.89669">
        <ele>172</ele>
        <time>2015-05-12T14:22:33.000Z</time>
      </trkpt>
      <trkpt lat="50.81011" lon="1.8967">
        <ele>172</ele>
        <time>2015-05-12T14:22:34.000Z</time>
      </trkpt>
      <trkpt lat="50.81011" lon="1.89672">
        <ele>172</ele>
        <time>2015-05-12T14:22:35.000Z</time>
      </trkpt>
      <trkpt lat="50.81012" lon="1.89673">
        <ele>172</ele>
        <time>2015-05-12T14:22:36.000Z</time>
      </trkpt>
      <trkpt lat="50.81013" lon="1.89674">
        <ele>172</ele>
        <time>2015-05-12T14:22:37.000Z</time>
      </trkpt>
      <trkpt lat="50.81013" lon="1.89675">
        <ele>172</ele>
        <time>2015-05-12T14:22:38.000Z</time>
      </trkpt>
      <trkpt lat="50.81014" lon="1.89677">
        <ele>171</ele>
        <time>2015-05-12T14:22:39.000Z</time>
      </trkpt>
      <trkpt lat="50.81015" lon="1.89678">
        <ele>171</ele>
        <time>2015-05-12T14:22:40.000Z</time>
      </trkpt>
      <trkpt lat="50.81016" lon="1.89679">
        <ele>171</ele>
        <time>2015-05-12T14:22:41.000Z</time>
      </trkpt>
      <trkpt lat="50.81017" lon="1.8968">
        <ele>171</ele>
        <time>2015-05-12T14:22:42.000Z</time>
      </trkpt>
      <trkpt lat="50.81018" lon="1.89682">
        <ele>171</ele>
        <time>2015-05-12T14:22:43.000Z</time>
      </trkpt>
      <trkpt lat="50.81019" lon="1.89683">
        <ele>171</ele>
        <time>2015-05-12T14:22:44.000Z</time>
      </trkpt>
      <trkpt lat="50.81019" lon="1.89684">
        <ele>170</ele>
        <time>2015-05-12T14:22:45.000Z</time>
      </trkpt>
      <trkpt lat="50.8102" lon="1.89685">
        <ele>170</ele>
        <time>2015-05-12T14:22:46.000Z</time>
      </trkpt>
      <trkpt lat="50.81021" lon="1.89687">
        <ele>170</ele>
        <time>2015-05-12T14:22:47.000Z</time>
      </trkpt>
      <trkpt lat="50.81021" lon="1.89688">
        <ele>170</ele>
        <time>2015-05-12T14:22:48.000Z</time>
      </trkpt>
      <trkpt lat="50.81022" lon="1.89689">
        <ele>169</ele>
        <time>2015-05-12T14:22:49.000Z</time>
      </trkpt>
      <trkpt lat="50.81022" lon="1.8969">
        <ele>169</ele>
        <time>2015-05-12T14:22:50.000Z</time>
      </trkpt>
      <trkpt lat="50.81022" lon="1.89692">
        <ele>169</ele>
        <time>2015-05-12T14:22:51.000Z</time>
      </trkpt>
      <trkpt lat="50.81023" lon="1.89693">
        <ele>169</ele>
        <time>2015-05-12T14:22:52.000Z</time>
      </trkpt>
      <trkpt lat="50.81024" lon="1.89695">
        <ele>169</ele>
        <time>2015-05-12T14:22:53.000Z</time>
      </trkpt>
      <trkpt lat="50.81025" lon="1.89696">
        <ele>169</ele>
        <time>2015-05-12T14:22:54.000Z</time>
      </trkpt>
      <trkpt lat="50.81026" lon="1.89697">
        <ele>169</ele>
        <time>2015-05-12T14:22:55.000Z</time>
      </trkpt>
      <trkpt lat="50.81027" lon="1.89699">
        <ele>170</ele>
        <time>2015-05-12T14:22:56.000Z</time>
      </trkpt>
      <trkpt lat="50.81028" lon="1.897">
        <ele>169</ele>
        <time>2015-05-12T14:22:57.000Z</time>
      </trkpt>
      <trkpt lat="50.81029" lon="1.89701">
        <ele>169</ele>
        <time>2015-05-12T14:22:58.000Z</time>
      </trkpt>
      <trkpt lat="50.8103" lon="1.89703">
        <ele>169</ele>
        <time>2015-05-12T14:22:59.000Z</time>
      </trkpt>
      <trkpt lat="50.81031" lon="1.89704">
        <ele>170</ele>
        <time>2015-05-12T14:23:00.000Z</time>
      </trkpt>
      <trkpt lat="50.81031" lon="1.89705">
        <ele>170</ele>
        <time>2015-05-12T14:23:01.000Z</time>
      </trkpt>
      <trkpt lat="50.81032" lon="1.89706">
        <ele>169</ele>
        <time>2015-05-12T14:23:02.000Z</time>
      </trkpt>
      <trkpt lat="50.81032" lon="1.89707">
        <ele>170</ele>
        <time>2015-05-12T14:23:03.000Z</time>
      </trkpt>
      <trkpt lat="50.81033" lon="1.89708">
        <ele>170</ele>
        <time>2015-05-12T14:23:04.000Z</time>
      </trkpt>
      <trkpt lat="50.81033" lon="1.89708">
        <ele>170</ele>
        <time>2015-05-12T14:23:05.000Z</time>
      </trkpt>
      <trkpt lat="50.81034" lon="1.89709">
        <ele>170</ele>
        <time>2015-05-12T14:23:06.000Z</time>
      </trkpt>
      <trkpt lat="50.81035" lon="1.8971">
        <ele>170</ele>
        <time>2015-05-12T14:23:07.000Z</time>
      </trkpt>
      <trkpt lat="50.81035" lon="1.89712">
        <ele>168</ele>
        <time>2015-05-12T14:23:08.000Z</time>
      </trkpt>
      <trkpt lat="50.81036" lon="1.89714">
        <ele>168</ele>
        <time>2015-05-12T14:23:09.000Z</time>
      </trkpt>
      <trkpt lat="50.81037" lon="1.89716">
        <ele>168</ele>
        <time>2015-05-12T14:23:10.000Z</time>
      </trkpt>
      <trkpt lat="50.81038" lon="1.89717">
        <ele>168</ele>
        <time>2015-05-12T14:23:11.000Z</time>
      </trkpt>
      <trkpt lat="50.81039" lon="1.89719">
        <ele>168</ele>
        <time>2015-05-12T14:23:12.000Z</time>
      </trkpt>
      <trkpt lat="50.8104" lon="1.89721">
        <ele>168</ele>
        <time>2015-05-12T14:23:13.000Z</time>
      </trkpt>
      <trkpt lat="50.81042" lon="1.89723">
        <ele>168</ele>
        <time>2015-05-12T14:23:14.000Z</time>
      </trkpt>
      <trkpt lat="50.81043" lon="1.89724">
        <ele>168</ele>
        <time>2015-05-12T14:23:15.000Z</time>
      </trkpt>
      <trkpt lat="50.81044" lon="1.89726">
        <ele>168</ele>
        <time>2015-05-12T14:23:16.000Z</time>
      </trkpt>
      <trkpt lat="50.81045" lon="1.89728">
        <ele>167</ele>
        <time>2015-05-12T14:23:17.000Z</time>
      </trkpt>
      <trkpt lat="50.81046" lon="1.8973">
        <ele>167</ele>
        <time>2015-05-12T14:23:18.000Z</time>
      </trkpt>
      <trkpt lat="50.81047" lon="1.89732">
        <ele>167</ele>
        <time>2015-05-12T14:23:19.000Z</time>
      </trkpt>
      <trkpt lat="50.81048" lon="1.89733">
        <ele>166</ele>
        <time>2015-05-12T14:23:20.000Z</time>
      </trkpt>
      <trkpt lat="50.81049" lon="1.89735">
        <ele>166</ele>
        <time>2015-05-12T14:23:21.000Z</time>
      </trkpt>
      <trkpt lat="50.8105" lon="1.89737">
        <ele>166</ele>
        <time>2015-05-12T14:23:22.000Z</time>
      </trkpt>
      <trkpt lat="50.8105" lon="1.89739">
        <ele>166</ele>
        <time>2015-05-12T14:23:23.000Z</time>
      </trkpt>
      <trkpt lat="50.81051" lon="1.89741">
        <ele>166</ele>
        <time>2015-05-12T14:23:24.000Z</time>
      </trkpt>
      <trkpt lat="50.81053" lon="1.89743">
        <ele>165</ele>
        <time>2015-05-12T14:23:25.000Z</time>
      </trkpt>
      <trkpt lat="50.81054" lon="1.89744">
        <ele>165</ele>
        <time>2015-05-12T14:23:26.000Z</time>
      </trkpt>
      <trkpt lat="50.81055" lon="1.89745">
        <ele>165</ele>
        <time>2015-05-12T14:23:27.000Z</time>
      </trkpt>
      <trkpt lat="50.81055" lon="1.89747">
        <ele>164</ele>
        <time>2015-05-12T14:23:28.000Z</time>
      </trkpt>
      <trkpt lat="50.81055" lon="1.89748">
        <ele>163</ele>
        <time>2015-05-12T14:23:29.000Z</time>
      </trkpt>
      <trkpt lat="50.81056" lon="1.8975">
        <ele>163</ele>
        <time>2015-05-12T14:23:30.000Z</time>
      </trkpt>
      <trkpt lat="50.81057" lon="1.89751">
        <ele>163</ele>
        <time>2015-05-12T14:23:31.000Z</time>
      </trkpt>
      <trkpt lat="50.81057" lon="1.89753">
        <ele>163</ele>
        <time>2015-05-12T14:23:32.000Z</time>
      </trkpt>
      <trkpt lat="50.81058" lon="1.89754">
        <ele>163</ele>
        <time>2015-05-12T14:23:33.000Z</time>
      </trkpt>
      <trkpt lat="50.81058" lon="1.89756">
        <ele>163</ele>
        <time>2015-05-12T14:23:34.000Z</time>
      </trkpt>
      <trkpt lat="50.81058" lon="1.89757">
        <ele>164</ele>
        <time>2015-05-12T14:23:35.000Z</time>
      </trkpt>
      <trkpt lat="50.81058" lon="1.89758">
        <ele>164</ele>
        <time>2015-05-12T14:23:36.000Z</time>
      </trkpt>
      <trkpt lat="50.81059" lon="1.8976">
        <ele>164</ele>
        <time>2015-05-12T14:23:37.000Z</time>
      </trkpt>
      <trkpt lat="50.81059" lon="1.89761">
        <ele>164</ele>
        <time>2015-05-12T14:23:38.000Z</time>
      </trkpt>
      <trkpt lat="50.81059" lon="1.89761">
        <ele>164</ele>
        <time>2015-05-12T14:23:39.000Z</time>
      </trkpt>
      <trkpt lat="50.81059" lon="1.89762">
        <ele>164</ele>
        <time>2015-05-12T14:23:40.000Z</time>
      </trkpt>
      <trkpt lat="50.81059" lon="1.89761">
        <ele>164</ele>
        <time>2015-05-12T14:23:41.000Z</time>
      </trkpt>
      <trkpt lat="50.81058" lon="1.89761">
        <ele>164</ele>
        <time>2015-05-12T14:23:42.000Z</time>
      </trkpt>
      <trkpt lat="50.81058" lon="1.89761">
        <ele>164</ele>
        <time>2015-05-12T14:23:43.000Z</time>
      </trkpt>
      <trkpt lat="50.81058" lon="1.89761">
        <ele>164</ele>
        <time>2015-05-12T14:23:44.000Z</time>
      </trkpt>
      <trkpt lat="50.81058" lon="1.89761">
        <ele>164</ele>
        <time>2015-05-12T14:23:45.000Z</time>
      </trkpt>
      <trkpt lat="50.81058" lon="1.89761">
        <ele>164</ele>
        <time>2015-05-12T14:23:46.000Z</time>
      </trkpt>
      <trkpt lat="50.81057" lon="1.89761">
        <ele>164</ele>
        <time>2015-05-12T14:23:47.000Z</time>
      </trkpt>
      <trkpt lat="50.81057" lon="1.89761">
        <ele>164</ele>
        <time>2015-05-12T14:23:48.000Z</time>
      </trkpt>
      <trkpt lat="50.81058" lon="1.89761">
        <ele>164</ele>
        <time>2015-05-12T14:23:49.000Z</time>
      </trkpt>
      <trkpt lat="50.81058" lon="1.89762">
        <ele>163</ele>
        <time>2015-05-12T14:23:50.000Z</time>
      </trkpt>
      <trkpt lat="50.81059" lon="1.89763">
        <ele>163</ele>
        <time>2015-05-12T14:23:51.000Z</time>
      </trkpt>
      <trkpt lat="50.81059" lon="1.89764">
        <ele>163</ele>
        <time>2015-05-12T14:23:52.000Z</time>
      </trkpt>
      <trkpt lat="50.8106" lon="1.89766">
        <ele>163</ele>
        <time>2015-05-12T14:23:53.000Z</time>
      </trkpt>
      <trkpt lat="50.81061" lon="1.89767">
        <ele>163</ele>
        <time>2015-05-12T14:23:54.000Z</time>
      </trkpt>
      <trkpt lat="50.81062" lon="1.89769">
        <ele>163</ele>
        <time>2015-05-12T14:23:55.000Z</time>
      </trkpt>
      <trkpt lat="50.81063" lon="1.89771">
        <ele>163</ele>
        <time>2015-05-12T14:23:56.000Z</time>
      </trkpt>
      <trkpt lat="50.81063" lon="1.89773">
        <ele>163</ele>
        <time>2015-05-12T14:23:57.000Z</time>
      </trkpt>
      <trkpt lat="50.81064" lon="1.89774">
        <ele>162</ele>
        <time>2015-05-12T14:23:58.000Z</time>
      </trkpt>
      <trkpt lat="50.81065" lon="1.89776">
        <ele>162</ele>
        <time>2015-05-12T14:23:59.000Z</time>
      </trkpt>
      <trkpt lat="50.81066" lon="1.89777">
        <ele>162</ele>
        <time>2015-05-12T14:24:00.000Z</time>
      </trkpt>
      <trkpt lat="50.81066" lon="1.89778">
        <ele>161</ele>
        <time>2015-05-12T14:24:01.000Z</time>
      </trkpt>
      <trkpt lat="50.81067" lon="1.8978">
        <ele>161</ele>
        <time>2015-05-12T14:24:02.000Z</time>
      </trkpt>
      <trkpt lat="50.81068" lon="1.89781">
        <ele>160</ele>
        <time>2015-05-12T14:24:03.000Z</time>
      </trkpt>
      <trkpt lat="50.81068" lon="1.89782">
        <ele>159</ele>
        <time>2015-05-12T14:24:04.000Z</time>
      </trkpt>
      <trkpt lat="50.81069" lon="1.89783">
        <ele>159</ele>
        <time>2015-05-12T14:24:05.000Z</time>
      </trkpt>
      <trkpt lat="50.8107" lon="1.89784">
        <ele>158</ele>
        <time>2015-05-12T14:24:06.000Z</time>
      </trkpt>
      <trkpt lat="50.81071" lon="1.89786">
        <ele>158</ele>
        <time>2015-05-12T14:24:07.000Z</time>
      </trkpt>
      <trkpt lat="50.81071" lon="1.89787">
        <ele>157</ele>
        <time>2015-05-12T14:24:08.000Z</time>
      </trkpt>
      <trkpt lat="50.81072" lon="1.89789">
        <ele>157</ele>
        <time>2015-05-12T14:24:09.000Z</time>
      </trkpt>
      <trkpt lat="50.81073" lon="1.8979">
        <ele>157</ele>
        <time>2015-05-12T14:24:10.000Z</time>
      </trkpt>
      <trkpt lat="50.81073" lon="1.89792">
        <ele>156</ele>
        <time>2015-05-12T14:24:11.000Z</time>
      </trkpt>
      <trkpt lat="50.81074" lon="1.89794">
        <ele>156</ele>
        <time>2015-05-12T14:24:12.000Z</time>
      </trkpt>
      <trkpt lat="50.81075" lon="1.89795">
        <ele>156</ele>
        <time>2015-05-12T14:24:13.000Z</time>
      </trkpt>
      <trkpt lat="50.81075" lon="1.89797">
        <ele>156</ele>
        <time>2015-05-12T14:24:14.000Z</time>
      </trkpt>
      <trkpt lat="50.81076" lon="1.89799">
        <ele>156</ele>
        <time>2015-05-12T14:24:15.000Z</time>
      </trkpt>
      <trkpt lat="50.81077" lon="1.898">
        <ele>156</ele>
        <time>2015-05-12T14:24:16.000Z</time>
      </trkpt>
      <trkpt lat="50.81077" lon="1.89802">
        <ele>156</ele>
        <time>2015-05-12T14:24:17.000Z</time>
      </trkpt>
      <trkpt lat="50.81078" lon="1.89804">
        <ele>157</ele>
        <time>2015-05-12T14:24:18.000Z</time>
      </trkpt>
      <trkpt lat="50.81079" lon="1.89806">
        <ele>157</ele>
        <time>2015-05-12T14:24:19.000Z</time>
      </trkpt>
      <trkpt lat="50.81079" lon="1.89808">
        <ele>157</ele>
        <time>2015-05-12T14:24:20.000Z</time>
      </trkpt>
      <trkpt lat="50.8108" lon="1.8981">
        <ele>157</ele>
        <time>2015-05-12T14:24:21.000Z</time>
      </trkpt>
      <trkpt lat="50.81081" lon="1.89812">
        <ele>157</ele>
        <time>2015-05-12T14:24:22.000Z</time>
      </trkpt>
      <trkpt lat="50.81082" lon="1.89814">
        <ele>158</ele>
        <time>2015-05-12T14:24:23.000Z</time>
      </trkpt>
      <trkpt lat="50.81082" lon="1.89816">
        <ele>157</ele>
        <time>2015-05-12T14:24:24.000Z</time>
      </trkpt>
      <trkpt lat="50.81083" lon="1.89818">
        <ele>157</ele>
        <time>2015-05-12T14:24:25.000Z</time>
      </trkpt>
      <trkpt lat="50.81084" lon="1.89819">
        <ele>158</ele>
        <time>2015-05-12T14:24:26.000Z</time>
      </trkpt>
      <trkpt lat="50.81085" lon="1.89821">
        <ele>158</ele>
        <time>2015-05-12T14:24:27.000Z</time>
      </trkpt>
      <trkpt lat="50.81086" lon="1.89823">
        <ele>159</ele>
        <time>2015-05-12T14:24:28.000Z</time>
      </trkpt>
      <trkpt lat="50.81086" lon="1.89825">
        <ele>159</ele>
        <time>2015-05-12T14:24:29.000Z</time>
      </trkpt>
      <trkpt lat="50.81087" lon="1.89827">
        <ele>159</ele>
        <time>2015-05-12T14:24:30.000Z</time>
      </trkpt>
      <trkpt lat="50.81087" lon="1.89829">
        <ele>159</ele>
        <time>2015-05-12T14:24:31.000Z</time>
      </trkpt>
      <trkpt lat="50.81088" lon="1.89831">
        <ele>159</ele>
        <time>2015-05-12T14:24:32.000Z</time>
      </trkpt>
      <trkpt lat="50.81089" lon="1.89833">
        <ele>160</ele>
        <time>2015-05-12T14:24:33.000Z</time>
      </trkpt>
      <trkpt lat="50.8109" lon="1.89834">
        <ele>159</ele>
        <time>2015-05-12T14:24:34.000Z</time>
      </trkpt>
      <trkpt lat="50.81091" lon="1.89836">
        <ele>160</ele>
        <time>2015-05-12T14:24:35.000Z</time>
      </trkpt>
      <trkpt lat="50.81091" lon="1.89838">
        <ele>160</ele>
        <time>2015-05-12T14:24:36.000Z</time>
      </trkpt>
      <trkpt lat="50.81092" lon="1.89839">
        <ele>159</ele>
        <time>2015-05-12T14:24:37.000Z</time>
      </trkpt>
      <trkpt lat="50.81093" lon="1.89841">
        <ele>159</ele>
        <time>2015-05-12T14:24:38.000Z</time>
      </trkpt>
      <trkpt lat="50.81094" lon="1.89842">
        <ele>159</ele>
        <time>2015-05-12T14:24:39.000Z</time>
      </trkpt>
      <trkpt lat="50.81095" lon="1.89843">
        <ele>159</ele>
        <time>2015-05-12T14:24:40.000Z</time>
      </trkpt>
      <trkpt lat="50.81096" lon="1.89845">
        <ele>159</ele>
        <time>2015-05-12T14:24:41.000Z</time>
      </trkpt>
      <trkpt lat="50.81098" lon="1.89846">
        <ele>159</ele>
        <time>2015-05-12T14:24:42.000Z</time>
      </trkpt>
      <trkpt lat="50.81099" lon="1.89847">
        <ele>159</ele>
        <time>2015-05-12T14:24:43.000Z</time>
      </trkpt>
      <trkpt lat="50.811" lon="1.89848">
        <ele>159</ele>
        <time>2015-05-12T14:24:44.000Z</time>
      </trkpt>
      <trkpt lat="50.81101" lon="1.89849">
        <ele>159</ele>
        <time>2015-05-12T14:24:45.000Z</time>
      </trkpt>
      <trkpt lat="50.81103" lon="1.89851">
        <ele>159</ele>
        <time>2015-05-12T14:24:46.000Z</time>
      </trkpt>
      <trkpt lat="50.81104" lon="1.89852">
        <ele>159</ele>
        <time>2015-05-12T14:24:47.000Z</time>
      </trkpt>
      <trkpt lat="50.81105" lon="1.89853">
        <ele>159</ele>
        <time>2015-05-12T14:24:48.000Z</time>
      </trkpt>
      <trkpt lat="50.81106" lon="1.89854">
        <ele>159</ele>
        <time>2015-05-12T14:24:49.000Z</time>
      </trkpt>
      <trkpt lat="50.81107" lon="1.89855">
        <ele>159</ele>
        <time>2015-05-12T14:24:50.000Z</time>
      </trkpt>
      <trkpt lat="50.81108" lon="1.89857">
        <ele>159</ele>
        <time>2015-05-12T14:24:51.000Z</time>
      </trkpt>
      <trkpt lat="50.81109" lon="1.89858">
        <ele>159</ele>
        <time>2015-05-12T14:24:52.000Z</time>
      </trkpt>
      <trkpt lat="50.8111" lon="1.89859">
        <ele>159</ele>
        <time>2015-05-12T14:24:53.000Z</time>
      </trkpt>
      <trkpt lat="50.81111" lon="1.8986">
        <ele>159</ele>
        <time>2015-05-12T14:24:54.000Z</time>
      </trkpt>
      <trkpt lat="50.81112" lon="1.89861">
        <ele>158</ele>
        <time>2015-05-12T14:24:55.000Z</time>
      </trkpt>
      <trkpt lat="50.81114" lon="1.89863">
        <ele>158</ele>
        <time>2015-05-12T14:24:56.000Z</time>
      </trkpt>
      <trkpt lat="50.81115" lon="1.89864">
        <ele>158</ele>
        <time>2015-05-12T14:24:57.000Z</time>
      </trkpt>
      <trkpt lat="50.81116" lon="1.89865">
        <ele>158</ele>
        <time>2015-05-12T14:24:58.000Z</time>
      </trkpt>
      <trkpt lat="50.81118" lon="1.89867">
        <ele>158</ele>
        <time>2015-05-12T14:24:59.000Z</time>
      </trkpt>
      <trkpt lat="50.81119" lon="1.89868">
        <ele>158</ele>
        <time>2015-05-12T14:25:00.000Z</time>
      </trkpt>
      <trkpt lat="50.8112" lon="1.89869">
        <ele>158</ele>
        <time>2015-05-12T14:25:01.000Z</time>
      </trkpt>
      <trkpt lat="50.81121" lon="1.8987">
        <ele>158</ele>
        <time>2015-05-12T14:25:02.000Z</time>
      </trkpt>
      <trkpt lat="50.81122" lon="1.89871">
        <ele>159</ele>
        <time>2015-05-12T14:25:03.000Z</time>
      </trkpt>
      <trkpt lat="50.81123" lon="1.89873">
        <ele>159</ele>
        <time>2015-05-12T14:25:04.000Z</time>
      </trkpt>
      <trkpt lat="50.81124" lon="1.89874">
        <ele>159</ele>
        <time>2015-05-12T14:25:05.000Z</time>
      </trkpt>
      <trkpt lat="50.81125" lon="1.89876">
        <ele>159</ele>
        <time>2015-05-12T14:25:06.000Z</time>
      </trkpt>
      <trkpt lat="50.81126" lon="1.89878">
        <ele>159</ele>
        <time>2015-05-12T14:25:07.000Z</time>
      </trkpt>
      <trkpt lat="50.81127" lon="1.89879">
        <ele>158</ele>
        <time>2015-05-12T14:25:08.000Z</time>
      </trkpt>
      <trkpt lat="50.81128" lon="1.89881">
        <ele>159</ele>
        <time>2015-05-12T14:25:09.000Z</time>
      </trkpt>
      <trkpt lat="50.81129" lon="1.89883">
        <ele>158</ele>
        <time>2015-05-12T14:25:10.000Z</time>
      </trkpt>
      <trkpt lat="50.8113" lon="1.89884">
        <ele>158</ele>
        <time>2015-05-12T14:25:11.000Z</time>
      </trkpt>
      <trkpt lat="50.81131" lon="1.89885">
        <ele>158</ele>
        <time>2015-05-12T14:25:12.000Z</time>
      </trkpt>
      <trkpt lat="50.81131" lon="1.89887">
        <ele>158</ele>
        <time>2015-05-12T14:25:13.000Z</time>
      </trkpt>
      <trkpt lat="50.81132" lon="1.89888">
        <ele>158</ele>
        <time>2015-05-12T14:25:14.000Z</time>
      </trkpt>
      <trkpt lat="50.81133" lon="1.8989">
        <ele>158</ele>
        <time>2015-05-12T14:25:15.000Z</time>
      </trkpt>
      <trkpt lat="50.81134" lon="1.89891">
        <ele>158</ele>
        <time>2015-05-12T14:25:16.000Z</time>
      </trkpt>
      <trkpt lat="50.81135" lon="1.89893">
        <ele>158</ele>
        <time>2015-05-12T14:25:17.000Z</time>
      </trkpt>
      <trkpt lat="50.81135" lon="1.89895">
        <ele>158</ele>
        <time>2015-05-12T14:25:18.000Z</time>
      </trkpt>
      <trkpt lat="50.81136" lon="1.89897">
        <ele>159</ele>
        <time>2015-05-12T14:25:19.000Z</time>
      </trkpt>
      <trkpt lat="50.81137" lon="1.89899">
        <ele>158</ele>
        <time>2015-05-12T14:25:20.000Z</time>
      </trkpt>
      <trkpt lat="50.81137" lon="1.89901">
        <ele>158</ele>
        <time>2015-05-12T14:25:21.000Z</time>
      </trkpt>
      <trkpt lat="50.81138" lon="1.89902">
        <ele>158</ele>
        <time>2015-05-12T14:25:22.000Z</time>
      </trkpt>
      <trkpt lat="50.81139" lon="1.89904">
        <ele>158</ele>
        <time>2015-05-12T14:25:23.000Z</time>
      </trkpt>
      <trkpt lat="50.8114" lon="1.89905">
        <ele>158</ele>
        <time>2015-05-12T14:25:24.000Z</time>
      </trkpt>
      <trkpt lat="50.8114" lon="1.89907">
        <ele>158</ele>
        <time>2015-05-12T14:25:25.000Z</time>
      </trkpt>
      <trkpt lat="50.81141" lon="1.89909">
        <ele>159</ele>
        <time>2015-05-12T14:25:26.000Z</time>
      </trkpt>
      <trkpt lat="50.81142" lon="1.89911">
        <ele>159</ele>
        <time>2015-05-12T14:25:27.000Z</time>
      </trkpt>
      <trkpt lat="50.81143" lon="1.89912">
        <ele>159</ele>
        <time>2015-05-12T14:25:28.000Z</time>
      </trkpt>
      <trkpt lat="50.81144" lon="1.89915">
        <ele>159</ele>
        <time>2015-05-12T14:25:29.000Z</time>
      </trkpt>
      <trkpt lat="50.81144" lon="1.89917">
        <ele>159</ele>
        <time>2015-05-12T14:25:30.000Z</time>
      </trkpt>
      <trkpt lat="50.81145" lon="1.89919">
        <ele>159</ele>
        <time>2015-05-12T14:25:31.000Z</time>
      </trkpt>
      <trkpt lat="50.81146" lon="1.8992">
        <ele>159</ele>
        <time>2015-05-12T14:25:32.000Z</time>
      </trkpt>
      <trkpt lat="50.81146" lon="1.89922">
        <ele>159</ele>
        <time>2015-05-12T14:25:33.000Z</time>
      </trkpt>
      <trkpt lat="50.81147" lon="1.89924">
        <ele>159</ele>
        <time>2015-05-12T14:25:34.000Z</time>
      </trkpt>
      <trkpt lat="50.81147" lon="1.89926">
        <ele>159</ele>
        <time>2015-05-12T14:25:35.000Z</time>
      </trkpt>
      <trkpt lat="50.81148" lon="1.89928">
        <ele>159</ele>
        <time>2015-05-12T14:25:36.000Z</time>
      </trkpt>
      <trkpt lat="50.81149" lon="1.89929">
        <ele>159</ele>
        <time>2015-05-12T14:25:37.000Z</time>
      </trkpt>
      <trkpt lat="50.8115" lon="1.89931">
        <ele>159</ele>
        <time>2015-05-12T14:25:38.000Z</time>
      </trkpt>
      <trkpt lat="50.8115" lon="1.89933">
        <ele>159</ele>
        <time>2015-05-12T14:25:39.000Z</time>
      </trkpt>
      <trkpt lat="50.81151" lon="1.89935">
        <ele>159</ele>
        <time>2015-05-12T14:25:40.000Z</time>
      </trkpt>
      <trkpt lat="50.81152" lon="1.89937">
        <ele>158</ele>
        <time>2015-05-12T14:25:41.000Z</time>
      </trkpt>
      <trkpt lat="50.81153" lon="1.89938">
        <ele>158</ele>
        <time>2015-05-12T14:25:42.000Z</time>
      </trkpt>
      <trkpt lat="50.81154" lon="1.8994">
        <ele>158</ele>
        <time>2015-05-12T14:25:43.000Z</time>
      </trkpt>
      <trkpt lat="50.81155" lon="1.89942">
        <ele>158</ele>
        <time>2015-05-12T14:25:44.000Z</time>
      </trkpt>
      <trkpt lat="50.81155" lon="1.89943">
        <ele>158</ele>
        <time>2015-05-12T14:25:45.000Z</time>
      </trkpt>
      <trkpt lat="50.81156" lon="1.89945">
        <ele>158</ele>
        <time>2015-05-12T14:25:46.000Z</time>
      </trkpt>
      <trkpt lat="50.81156" lon="1.89946">
        <ele>158</ele>
        <time>2015-05-12T14:25:47.000Z</time>
      </trkpt>
      <trkpt lat="50.81157" lon="1.89948">
        <ele>158</ele>
        <time>2015-05-12T14:25:48.000Z</time>
      </trkpt>
      <trkpt lat="50.81158" lon="1.8995">
        <ele>158</ele>
        <time>2015-05-12T14:25:49.000Z</time>
      </trkpt>
      <trkpt lat="50.81158" lon="1.89952">
        <ele>158</ele>
        <time>2015-05-12T14:25:50.000Z</time>
      </trkpt>
      <trkpt lat="50.81159" lon="1.89954">
        <ele>158</ele>
        <time>2015-05-12T14:25:51.000Z</time>
      </trkpt>
      <trkpt lat="50.8116" lon="1.89956">
        <ele>158</ele>
        <time>2015-05-12T14:25:52.000Z</time>
      </trkpt>
      <trkpt lat="50.8116" lon="1.89957">
        <ele>158</ele>
        <time>2015-05-12T14:25:53.000Z</time>
      </trkpt>
      <trkpt lat="50.81161" lon="1.89959">
        <ele>158</ele>
        <time>2015-05-12T14:25:54.000Z</time>
      </trkpt>
      <trkpt lat="50.81161" lon="1.89961">
        <ele>158</ele>
        <time>2015-05-12T14:25:55.000Z</time>
      </trkpt>
      <trkpt lat="50.81161" lon="1.89962">
        <ele>158</ele>
        <time>2015-05-12T14:25:56.000Z</time>
      </trkpt>
      <trkpt lat="50.81162" lon="1.89964">
        <ele>158</ele>
        <time>2015-05-12T14:25:57.000Z</time>
      </trkpt>
      <trkpt lat="50.81163" lon="1.89966">
        <ele>158</ele>
        <time>2015-05-12T14:25:58.000Z</time>
      </trkpt>
      <trkpt lat="50.81164" lon="1.89967">
        <ele>158</ele>
        <time>2015-05-12T14:25:59.000Z</time>
      </trkpt>
      <trkpt lat="50.81165" lon="1.89969">
        <ele>157</ele>
        <time>2015-05-12T14:26:00.000Z</time>
      </trkpt>
      <trkpt lat="50.81165" lon="1.89971">
        <ele>157</ele>
        <time>2015-05-12T14:26:01.000Z</time>
      </trkpt>
      <trkpt lat="50.81166" lon="1.89972">
        <ele>157</ele>
        <time>2015-05-12T14:26:02.000Z</time>
      </trkpt>
      <trkpt lat="50.81166" lon="1.89974">
        <ele>157</ele>
        <time>2015-05-12T14:26:03.000Z</time>
      </trkpt>
      <trkpt lat="50.81167" lon="1.89975">
        <ele>157</ele>
        <time>2015-05-12T14:26:04.000Z</time>
      </trkpt>
      <trkpt lat="50.81168" lon="1.89977">
        <ele>157</ele>
        <time>2015-05-12T14:26:05.000Z</time>
      </trkpt>
      <trkpt lat="50.81168" lon="1.89979">
        <ele>157</ele>
        <time>2015-05-12T14:26:06.000Z</time>
      </trkpt>
      <trkpt lat="50.81169" lon="1.8998">
        <ele>157</ele>
        <time>2015-05-12T14:26:07.000Z</time>
      </trkpt>
      <trkpt lat="50.8117" lon="1.89982">
        <ele>157</ele>
        <time>2015-05-12T14:26:08.000Z</time>
      </trkpt>
      <trkpt lat="50.8117" lon="1.89983">
        <ele>157</ele>
        <time>2015-05-12T14:26:09.000Z</time>
      </trkpt>
      <trkpt lat="50.81171" lon="1.89984">
        <ele>157</ele>
        <time>2015-05-12T14:26:10.000Z</time>
      </trkpt>
      <trkpt lat="50.81171" lon="1.89986">
        <ele>157</ele>
        <time>2015-05-12T14:26:11.000Z</time>
      </trkpt>
      <trkpt lat="50.81172" lon="1.89987">
        <ele>156</ele>
        <time>2015-05-12T14:26:12.000Z</time>
      </trkpt>
      <trkpt lat="50.81173" lon="1.89988">
        <ele>157</ele>
        <time>2015-05-12T14:26:13.000Z</time>
      </trkpt>
      <trkpt lat="50.81174" lon="1.8999">
        <ele>157</ele>
        <time>2015-05-12T14:26:14.000Z</time>
      </trkpt>
      <trkpt lat="50.81175" lon="1.89991">
        <ele>157</ele>
        <time>2015-05-12T14:26:15.000Z</time>
      </trkpt>
      <trkpt lat="50.81175" lon="1.89993">
        <ele>157</ele>
        <time>2015-05-12T14:26:16.000Z</time>
      </trkpt>
      <trkpt lat="50.81176" lon="1.89994">
        <ele>157</ele>
        <time>2015-05-12T14:26:17.000Z</time>
      </trkpt>
      <trkpt lat="50.81177" lon="1.89995">
        <ele>157</ele>
        <time>2015-05-12T14:26:18.000Z</time>
      </trkpt>
      <trkpt lat="50.81177" lon="1.89996">
        <ele>157</ele>
        <time>2015-05-12T14:26:19.000Z</time>
      </trkpt>
      <trkpt lat="50.81178" lon="1.89997">
        <ele>157</ele>
        <time>2015-05-12T14:26:20.000Z</time>
      </trkpt>
      <trkpt lat="50.81179" lon="1.89999">
        <ele>156</ele>
        <time>2015-05-12T14:26:21.000Z</time>
      </trkpt>
      <trkpt lat="50.81179" lon="1.9">
        <ele>156</ele>
        <time>2015-05-12T14:26:22.000Z</time>
      </trkpt>
      <trkpt lat="50.8118" lon="1.90001">
        <ele>156</ele>
        <time>2015-05-12T14:26:23.000Z</time>
      </trkpt>
      <trkpt lat="50.81181" lon="1.90002">
        <ele>156</ele>
        <time>2015-05-12T14:26:24.000Z</time>
      </trkpt>
      <trkpt lat="50.81182" lon="1.90003">
        <ele>156</ele>
        <time>2015-05-12T14:26:25.000Z</time>
      </trkpt>
      <trkpt lat="50.81182" lon="1.90004">
        <ele>156</ele>
        <time>2015-05-12T14:26:26.000Z</time>
      </trkpt>
      <trkpt lat="50.81183" lon="1.90005">
        <ele>156</ele>
        <time>2015-05-12T14:26:27.000Z</time>
      </trkpt>
      <trkpt lat="50.81184" lon="1.90005">
        <ele>156</ele>
        <time>2015-05-12T14:26:28.000Z</time>
      </trkpt>
      <trkpt lat="50.81184" lon="1.90006">
        <ele>156</ele>
        <time>2015-05-12T14:26:29.000Z</time>
      </trkpt>
      <trkpt lat="50.81184" lon="1.90006">
        <ele>156</ele>
        <time>2015-05-12T14:26:30.000Z</time>
      </trkpt>
      <trkpt lat="50.81184" lon="1.90006">
        <ele>156</ele>
        <time>2015-05-12T14:26:31.000Z</time>
      </trkpt>
      <trkpt lat="50.81184" lon="1.90006">
        <ele>156</ele>
        <time>2015-05-12T14:26:32.000Z</time>
      </trkpt>
      <trkpt lat="50.81184" lon="1.90005">
        <ele>156</ele>
        <time>2015-05-12T14:26:33.000Z</time>
      </trkpt>
      <trkpt lat="50.81183" lon="1.90005">
        <ele>156</ele>
        <time>2015-05-12T14:26:34.000Z</time>
      </trkpt>
      <trkpt lat="50.81183" lon="1.90006">
        <ele>156</ele>
        <time>2015-05-12T14:26:35.000Z</time>
      </trkpt>
      <trkpt lat="50.81183" lon="1.90006">
        <ele>156</ele>
        <time>2015-05-12T14:26:36.000Z</time>
      </trkpt>
      <trkpt lat="50.81183" lon="1.90006">
        <ele>156</ele>
        <time>2015-05-12T14:26:37.000Z</time>
      </trkpt>
      <trkpt lat="50.81183" lon="1.90006">
        <ele>156</ele>
        <time>2015-05-12T14:26:38.000Z</time>
      </trkpt>
      <trkpt lat="50.81183" lon="1.90005">
        <ele>156</ele>
        <time>2015-05-12T14:26:39.000Z</time>
      </trkpt>
      <trkpt lat="50.81183" lon="1.90005">
        <ele>156</ele>
        <time>2015-05-12T14:26:40.000Z</time>
      </trkpt>
      <trkpt lat="50.81183" lon="1.90005">
        <ele>156</ele>
        <time>2015-05-12T14:26:41.000Z</time>
      </trkpt>
      <trkpt lat="50.81183" lon="1.90005">
        <ele>156</ele>
        <time>2015-05-12T14:26:42.000Z</time>
      </trkpt>
      <trkpt lat="50.81183" lon="1.90005">
        <ele>156</ele>
        <time>2015-05-12T14:26:43.000Z</time>
      </trkpt>
      <trkpt lat="50.81183" lon="1.90005">
        <ele>156</ele>
        <time>2015-05-12T14:26:44.000Z</time>
      </trkpt>
      <trkpt lat="50.81183" lon="1.90006">
        <ele>156</ele>
        <time>2015-05-12T14:26:45.000Z</time>
      </trkpt>
      <trkpt lat="50.81183" lon="1.90006">
        <ele>155</ele>
        <time>2015-05-12T14:26:46.000Z</time>
      </trkpt>
      <trkpt lat="50.81184" lon="1.90007">
        <ele>155</ele>
        <time>2015-05-12T14:26:47.000Z</time>
      </trkpt>
      <trkpt lat="50.81184" lon="1.90008">
        <ele>155</ele>
        <time>2015-05-12T14:26:48.000Z</time>
      </trkpt>
      <trkpt lat="50.81185" lon="1.9001">
        <ele>155</ele>
        <time>2015-05-12T14:26:49.000Z</time>
      </trkpt>
      <trkpt lat="50.81186" lon="1.90011">
        <ele>155</ele>
        <time>2015-05-12T14:26:50.000Z</time>
      </trkpt>
      <trkpt lat="50.81186" lon="1.90012">
        <ele>155</ele>
        <time>2015-05-12T14:26:51.000Z</time>
      </trkpt>
      <trkpt lat="50.81187" lon="1.90013">
        <ele>155</ele>
        <time>2015-05-12T14:26:52.000Z</time>
      </trkpt>
      <trkpt lat="50.81188" lon="1.90014">
        <ele>155</ele>
        <time>2015-05-12T14:26:53.000Z</time>
      </trkpt>
      <trkpt lat="50.81189" lon="1.90015">
        <ele>155</ele>
        <time>2015-05-12T14:26:54.000Z</time>
      </trkpt>
      <trkpt lat="50.81189" lon="1.90016">
        <ele>155</ele>
        <time>2015-05-12T14:26:55.000Z</time>
      </trkpt>
      <trkpt lat="50.8119" lon="1.90016">
        <ele>155</ele>
        <time>2015-05-12T14:26:56.000Z</time>
      </trkpt>
      <trkpt lat="50.81191" lon="1.90017">
        <ele>155</ele>
        <time>2015-05-12T14:26:57.000Z</time>
      </trkpt>
      <trkpt lat="50.81191" lon="1.90018">
        <ele>155</ele>
        <time>2015-05-12T14:26:58.000Z</time>
      </trkpt>
      <trkpt lat="50.81192" lon="1.90019">
        <ele>155</ele>
        <time>2015-05-12T14:26:59.000Z</time>
      </trkpt>
      <trkpt lat="50.81193" lon="1.9002">
        <ele>155</ele>
        <time>2015-05-12T14:27:00.000Z</time>
      </trkpt>
      <trkpt lat="50.81194" lon="1.90021">
        <ele>155</ele>
        <time>2015-05-12T14:27:01.000Z</time>
      </trkpt>
      <trkpt lat="50.81195" lon="1.90022">
        <ele>154</ele>
        <time>2015-05-12T14:27:02.000Z</time>
      </trkpt>
      <trkpt lat="50.81196" lon="1.90023">
        <ele>154</ele>
        <time>2015-05-12T14:27:03.000Z</time>
      </trkpt>
      <trkpt lat="50.81197" lon="1.90024">
        <ele>154</ele>
        <time>2015-05-12T14:27:04.000Z</time>
      </trkpt>
      <trkpt lat="50.81198" lon="1.90025">
        <ele>154</ele>
        <time>2015-05-12T14:27:05.000Z</time>
      </trkpt>
      <trkpt lat="50.81199" lon="1.90026">
        <ele>154</ele>
        <time>2015-05-12T14:27:06.000Z</time>
      </trkpt>
      <trkpt lat="50.81199" lon="1.90027">
        <ele>154</ele>
        <time>2015-05-12T14:27:07.000Z</time>
      </trkpt>
      <trkpt lat="50.812" lon="1.90028">
        <ele>154</ele>
        <time>2015-05-12T14:27:08.000Z</time>
      </trkpt>
      <trkpt lat="50.81201" lon="1.90028">
        <ele>154</ele>
        <time>2015-05-12T14:27:09.000Z</time>
      </trkpt>
      <trkpt lat="50.81201" lon="1.90029">
        <ele>154</ele>
        <time>2015-05-12T14:27:10.000Z</time>
      </trkpt>
      <trkpt lat="50.81202" lon="1.9003">
        <ele>154</ele>
        <time>2015-05-12T14:27:11.000Z</time>
      </trkpt>
      <trkpt lat="50.81203" lon="1.90031">
        <ele>154</ele>
        <time>2015-05-12T14:27:12.000Z</time>
      </trkpt>
      <trkpt lat="50.81204" lon="1.90032">
        <ele>154</ele>
        <time>2015-05-12T14:27:13.000Z</time>
      </trkpt>
      <trkpt lat="50.81205" lon="1.90033">
        <ele>154</ele>
        <time>2015-05-12T14:27:14.000Z</time>
      </trkpt>
      <trkpt lat="50.81206" lon="1.90034">
        <ele>153</ele>
        <time>2015-05-12T14:27:15.000Z</time>
      </trkpt>
      <trkpt lat="50.81207" lon="1.90035">
        <ele>153</ele>
        <time>2015-05-12T14:27:16.000Z</time>
      </trkpt>
      <trkpt lat="50.81208" lon="1.90036">
        <ele>153</ele>
        <time>2015-05-12T14:27:17.000Z</time>
      </trkpt>
      <trkpt lat="50.81209" lon="1.90037">
        <ele>153</ele>
        <time>2015-05-12T14:27:18.000Z</time>
      </trkpt>
      <trkpt lat="50.8121" lon="1.90038">
        <ele>153</ele>
        <time>2015-05-12T14:27:19.000Z</time>
      </trkpt>
      <trkpt lat="50.81211" lon="1.9004">
        <ele>153</ele>
        <time>2015-05-12T14:27:20.000Z</time>
      </trkpt>
      <trkpt lat="50.81212" lon="1.90041">
        <ele>153</ele>
        <time>2015-05-12T14:27:21.000Z</time>
      </trkpt>
      <trkpt lat="50.81213" lon="1.90042">
        <ele>153</ele>
        <time>2015-05-12T14:27:22.000Z</time>
      </trkpt>
      <trkpt lat="50.81214" lon="1.90043">
        <ele>153</ele>
        <time>2015-05-12T14:27:23.000Z</time>
      </trkpt>
      <trkpt lat="50.81215" lon="1.90044">
        <ele>152</ele>
        <time>2015-05-12T14:27:24.000Z</time>
      </trkpt>
      <trkpt lat="50.81216" lon="1.90045">
        <ele>153</ele>
        <time>2015-05-12T14:27:25.000Z</time>
      </trkpt>
      <trkpt lat="50.81217" lon="1.90046">
        <ele>152</ele>
        <time>2015-05-12T14:27:26.000Z</time>
      </trkpt>
      <trkpt lat="50.81218" lon="1.90047">
        <ele>152</ele>
        <time>2015-05-12T14:27:27.000Z</time>
      </trkpt>
      <trkpt lat="50.81219" lon="1.90048">
        <ele>152</ele>
        <time>2015-05-12T14:27:28.000Z</time>
      </trkpt>
      <trkpt lat="50.8122" lon="1.90049">
        <ele>152</ele>
        <time>2015-05-12T14:27:29.000Z</time>
      </trkpt>
      <trkpt lat="50.81222" lon="1.9005">
        <ele>152</ele>
        <time>2015-05-12T14:27:30.000Z</time>
      </trkpt>
      <trkpt lat="50.81223" lon="1.90051">
        <ele>152</ele>
        <time>2015-05-12T14:27:31.000Z</time>
      </trkpt>
      <trkpt lat="50.81224" lon="1.90052">
        <ele>152</ele>
        <time>2015-05-12T14:27:32.000Z</time>
      </trkpt>
      <trkpt lat="50.81224" lon="1.90053">
        <ele>152</ele>
        <time>2015-05-12T14:27:33.000Z</time>
      </trkpt>
      <trkpt lat="50.81225" lon="1.90055">
        <ele>152</ele>
        <time>2015-05-12T14:27:34.000Z</time>
      </trkpt>
      <trkpt lat="50.81227" lon="1.90056">
        <ele>152</ele>
        <time>2015-05-12T14:27:35.000Z</time>
      </trkpt>
      <trkpt lat="50.81228" lon="1.90057">
        <ele>153</ele>
        <time>2015-05-12T14:27:36.000Z</time>
      </trkpt>
      <trkpt lat="50.81229" lon="1.90058">
        <ele>153</ele>
        <time>2015-05-12T14:27:37.000Z</time>
      </trkpt>
      <trkpt lat="50.8123" lon="1.90059">
        <ele>152</ele>
        <time>2015-05-12T14:27:38.000Z</time>
      </trkpt>
      <trkpt lat="50.81231" lon="1.90061">
        <ele>152</ele>
        <time>2015-05-12T14:27:39.000Z</time>
      </trkpt>
      <trkpt lat="50.81232" lon="1.90062">
        <ele>152</ele>
        <time>2015-05-12T14:27:40.000Z</time>
      </trkpt>
      <trkpt lat="50.81233" lon="1.90063">
        <ele>153</ele>
        <time>2015-05-12T14:27:41.000Z</time>
      </trkpt>
      <trkpt lat="50.81234" lon="1.90065">
        <ele>152</ele>
        <time>2015-05-12T14:27:42.000Z</time>
      </trkpt>
      <trkpt lat="50.81235" lon="1.90066">
        <ele>152</ele>
        <time>2015-05-12T14:27:43.000Z</time>
      </trkpt>
      <trkpt lat="50.81236" lon="1.90067">
        <ele>152</ele>
        <time>2015-05-12T14:27:44.000Z</time>
      </trkpt>
      <trkpt lat="50.81237" lon="1.90068">
        <ele>152</ele>
        <time>2015-05-12T14:27:45.000Z</time>
      </trkpt>
      <trkpt lat="50.81238" lon="1.9007">
        <ele>152</ele>
        <time>2015-05-12T14:27:46.000Z</time>
      </trkpt>
      <trkpt lat="50.81239" lon="1.90071">
        <ele>152</ele>
        <time>2015-05-12T14:27:47.000Z</time>
      </trkpt>
      <trkpt lat="50.81239" lon="1.90072">
        <ele>152</ele>
        <time>2015-05-12T14:27:48.000Z</time>
      </trkpt>
      <trkpt lat="50.8124" lon="1.90073">
        <ele>152</ele>
        <time>2015-05-12T14:27:49.000Z</time>
      </trkpt>
      <trkpt lat="50.81241" lon="1.90074">
        <ele>152</ele>
        <time>2015-05-12T14:27:50.000Z</time>
      </trkpt>
      <trkpt lat="50.81242" lon="1.90076">
        <ele>152</ele>
        <time>2015-05-12T14:27:51.000Z</time>
      </trkpt>
      <trkpt lat="50.81243" lon="1.90077">
        <ele>152</ele>
        <time>2015-05-12T14:27:52.000Z</time>
      </trkpt>
      <trkpt lat="50.81244" lon="1.90078">
        <ele>152</ele>
        <time>2015-05-12T14:27:53.000Z</time>
      </trkpt>
      <trkpt lat="50.81244" lon="1.9008">
        <ele>152</ele>
        <time>2015-05-12T14:27:54.000Z</time>
      </trkpt>
      <trkpt lat="50.81245" lon="1.90081">
        <ele>152</ele>
        <time>2015-05-12T14:27:55.000Z</time>
      </trkpt>
      <trkpt lat="50.81246" lon="1.90083">
        <ele>152</ele>
        <time>2015-05-12T14:27:56.000Z</time>
      </trkpt>
      <trkpt lat="50.81247" lon="1.90085">
        <ele>152</ele>
        <time>2015-05-12T14:27:57.000Z</time>
      </trkpt>
      <trkpt lat="50.81248" lon="1.90086">
        <ele>152</ele>
        <time>2015-05-12T14:27:58.000Z</time>
      </trkpt>
      <trkpt lat="50.81249" lon="1.90087">
        <ele>152</ele>
        <time>2015-05-12T14:27:59.000Z</time>
      </trkpt>
      <trkpt lat="50.8125" lon="1.90088">
        <ele>152</ele>
        <time>2015-05-12T14:28:00.000Z</time>
      </trkpt>
      <trkpt lat="50.8125" lon="1.9009">
        <ele>152</ele>
        <time>2015-05-12T14:28:01.000Z</time>
      </trkpt>
      <trkpt lat="50.81251" lon="1.90091">
        <ele>152</ele>
        <time>2015-05-12T14:28:02.000Z</time>
      </trkpt>
      <trkpt lat="50.81252" lon="1.90092">
        <ele>152</ele>
        <time>2015-05-12T14:28:03.000Z</time>
      </trkpt>
      <trkpt lat="50.81252" lon="1.90093">
        <ele>152</ele>
        <time>2015-05-12T14:28:04.000Z</time>
      </trkpt>
      <trkpt lat="50.81253" lon="1.90095">
        <ele>152</ele>
        <time>2015-05-12T14:28:05.000Z</time>
      </trkpt>
      <trkpt lat="50.81254" lon="1.90096">
        <ele>152</ele>
        <time>2015-05-12T14:28:06.000Z</time>
      </trkpt>
      <trkpt lat="50.81255" lon="1.90098">
        <ele>152</ele>
        <time>2015-05-12T14:28:07.000Z</time>
      </trkpt>
      <trkpt lat="50.81255" lon="1.90099">
        <ele>152</ele>
        <time>2015-05-12T14:28:08.000Z</time>
      </trkpt>
      <trkpt lat="50.81256" lon="1.90101">
        <ele>152</ele>
        <time>2015-05-12T14:28:09.000Z</time>
      </trkpt>
      <trkpt lat="50.81257" lon="1.90102">
        <ele>152</ele>
        <time>2015-05-12T14:28:10.000Z</time>
      </trkpt>
      <trkpt lat="50.81258" lon="1.90104">
        <ele>152</ele>
        <time>2015-05-12T14:28:11.000Z</time>
      </trkpt>
      <trkpt lat="50.81258" lon="1.90105">
        <ele>151</ele>
        <time>2015-05-12T14:28:12.000Z</time>
      </trkpt>
      <trkpt lat="50.81259" lon="1.90106">
        <ele>151</ele>
        <time>2015-05-12T14:28:13.000Z</time>
      </trkpt>
      <trkpt lat="50.8126" lon="1.90107">
        <ele>152</ele>
        <time>2015-05-12T14:28:14.000Z</time>
      </trkpt>
      <trkpt lat="50.81261" lon="1.90109">
        <ele>151</ele>
        <time>2015-05-12T14:28:15.000Z</time>
      </trkpt>
      <trkpt lat="50.81262" lon="1.9011">
        <ele>152</ele>
        <time>2015-05-12T14:28:16.000Z</time>
      </trkpt>
      <trkpt lat="50.81263" lon="1.90111">
        <ele>151</ele>
        <time>2015-05-12T14:28:17.000Z</time>
      </trkpt>
      <trkpt lat="50.81264" lon="1.90113">
        <ele>151</ele>
        <time>2015-05-12T14:28:18.000Z</time>
      </trkpt>
      <trkpt lat="50.81265" lon="1.90114">
        <ele>151</ele>
        <time>2015-05-12T14:28:19.000Z</time>
      </trkpt>
      <trkpt lat="50.81266" lon="1.90115">
        <ele>151</ele>
        <time>2015-05-12T14:28:20.000Z</time>
      </trkpt>
      <trkpt lat="50.81267" lon="1.90117">
        <ele>151</ele>
        <time>2015-05-12T14:28:21.000Z</time>
      </trkpt>
      <trkpt lat="50.81268" lon="1.90118">
        <ele>151</ele>
        <time>2015-05-12T14:28:22.000Z</time>
      </trkpt>
      <trkpt lat="50.81269" lon="1.90119">
        <ele>151</ele>
        <time>2015-05-12T14:28:23.000Z</time>
      </trkpt>
      <trkpt lat="50.81269" lon="1.9012">
        <ele>151</ele>
        <time>2015-05-12T14:28:24.000Z</time>
      </trkpt>
      <trkpt lat="50.8127" lon="1.90122">
        <ele>151</ele>
        <time>2015-05-12T14:28:25.000Z</time>
      </trkpt>
      <trkpt lat="50.81271" lon="1.90123">
        <ele>151</ele>
        <time>2015-05-12T14:28:26.000Z</time>
      </trkpt>
      <trkpt lat="50.81272" lon="1.90125">
        <ele>150</ele>
        <time>2015-05-12T14:28:27.000Z</time>
      </trkpt>
      <trkpt lat="50.81272" lon="1.90126">
        <ele>150</ele>
        <time>2015-05-12T14:28:28.000Z</time>
      </trkpt>
      <trkpt lat="50.81273" lon="1.90128">
        <ele>150</ele>
        <time>2015-05-12T14:28:29.000Z</time>
      </trkpt>
      <trkpt lat="50.81274" lon="1.90129">
        <ele>150</ele>
        <time>2015-05-12T14:28:30.000Z</time>
      </trkpt>
      <trkpt lat="50.81275" lon="1.9013">
        <ele>150</ele>
        <time>2015-05-12T14:28:31.000Z</time>
      </trkpt>
      <trkpt lat="50.81276" lon="1.90132">
        <ele>150</ele>
        <time>2015-05-12T14:28:32.000Z</time>
      </trkpt>
      <trkpt lat="50.81277" lon="1.90133">
        <ele>150</ele>
        <time>2015-05-12T14:28:33.000Z</time>
      </trkpt>
      <trkpt lat="50.81278" lon="1.90134">
        <ele>150</ele>
        <time>2015-05-12T14:28:34.000Z</time>
      </trkpt>
      <trkpt lat="50.81278" lon="1.90136">
        <ele>150</ele>
        <time>2015-05-12T14:28:35.000Z</time>
      </trkpt>
      <trkpt lat="50.81279" lon="1.90137">
        <ele>150</ele>
        <time>2015-05-12T14:28:36.000Z</time>
      </trkpt>
      <trkpt lat="50.8128" lon="1.90138">
        <ele>150</ele>
        <time>2015-05-12T14:28:37.000Z</time>
      </trkpt>
      <trkpt lat="50.81282" lon="1.90139">
        <ele>150</ele>
        <time>2015-05-12T14:28:38.000Z</time>
      </trkpt>
      <trkpt lat="50.81283" lon="1.9014">
        <ele>150</ele>
        <time>2015-05-12T14:28:39.000Z</time>
      </trkpt>
      <trkpt lat="50.81284" lon="1.90142">
        <ele>150</ele>
        <time>2015-05-12T14:28:40.000Z</time>
      </trkpt>
      <trkpt lat="50.81285" lon="1.90143">
        <ele>150</ele>
        <time>2015-05-12T14:28:41.000Z</time>
      </trkpt>
      <trkpt lat="50.81286" lon="1.90144">
        <ele>150</ele>
        <time>2015-05-12T14:28:42.000Z</time>
      </trkpt>
      <trkpt lat="50.81287" lon="1.90145">
        <ele>150</ele>
        <time>2015-05-12T14:28:43.000Z</time>
      </trkpt>
      <trkpt lat="50.81288" lon="1.90146">
        <ele>150</ele>
        <time>2015-05-12T14:28:44.000Z</time>
      </trkpt>
      <trkpt lat="50.81289" lon="1.90147">
        <ele>150</ele>
        <time>2015-05-12T14:28:45.000Z</time>
      </trkpt>
      <trkpt lat="50.8129" lon="1.90148">
        <ele>149</ele>
        <time>2015-05-12T14:28:46.000Z</time>
      </trkpt>
      <trkpt lat="50.8129" lon="1.90149">
        <ele>149</ele>
        <time>2015-05-12T14:28:47.000Z</time>
      </trkpt>
      <trkpt lat="50.81291" lon="1.9015">
        <ele>149</ele>
        <time>2015-05-12T14:28:48.000Z</time>
      </trkpt>
      <trkpt lat="50.81292" lon="1.90151">
        <ele>149</ele>
        <time>2015-05-12T14:28:49.000Z</time>
      </trkpt>
      <trkpt lat="50.81293" lon="1.90152">
        <ele>149</ele>
        <time>2015-05-12T14:28:50.000Z</time>
      </trkpt>
      <trkpt lat="50.81294" lon="1.90154">
        <ele>149</ele>
        <time>2015-05-12T14:28:51.000Z</time>
      </trkpt>
      <trkpt lat="50.81295" lon="1.90155">
        <ele>149</ele>
        <time>2015-05-12T14:28:52.000Z</time>
      </trkpt>
      <trkpt lat="50.81296" lon="1.90156">
        <ele>149</ele>
        <time>2015-05-12T14:28:53.000Z</time>
      </trkpt>
      <trkpt lat="50.81297" lon="1.90157">
        <ele>149</ele>
        <time>2015-05-12T14:28:54.000Z</time>
      </trkpt>
      <trkpt lat="50.81298" lon="1.90157">
        <ele>149</ele>
        <time>2015-05-12T14:28:55.000Z</time>
      </trkpt>
      <trkpt lat="50.81299" lon="1.90158">
        <ele>149</ele>
        <time>2015-05-12T14:28:56.000Z</time>
      </trkpt>
      <trkpt lat="50.813" lon="1.90159">
        <ele>149</ele>
        <time>2015-05-12T14:28:57.000Z</time>
      </trkpt>
      <trkpt lat="50.81301" lon="1.9016">
        <ele>149</ele>
        <time>2015-05-12T14:28:58.000Z</time>
      </trkpt>
      <trkpt lat="50.81302" lon="1.90161">
        <ele>149</ele>
        <time>2015-05-12T14:28:59.000Z</time>
      </trkpt>
      <trkpt lat="50.81303" lon="1.90162">
        <ele>148</ele>
        <time>2015-05-12T14:29:00.000Z</time>
      </trkpt>
      <trkpt lat="50.81304" lon="1.90163">
        <ele>148</ele>
        <time>2015-05-12T14:29:01.000Z</time>
      </trkpt>
      <trkpt lat="50.81304" lon="1.90164">
        <ele>148</ele>
        <time>2015-05-12T14:29:02.000Z</time>
      </trkpt>
      <trkpt lat="50.81305" lon="1.90165">
        <ele>148</ele>
        <time>2015-05-12T14:29:03.000Z</time>
      </trkpt>
      <trkpt lat="50.81306" lon="1.90166">
        <ele>148</ele>
        <time>2015-05-12T14:29:04.000Z</time>
      </trkpt>
      <trkpt lat="50.81307" lon="1.90166">
        <ele>148</ele>
        <time>2015-05-12T14:29:05.000Z</time>
      </trkpt>
      <trkpt lat="50.81308" lon="1.90167">
        <ele>148</ele>
        <time>2015-05-12T14:29:06.000Z</time>
      </trkpt>
      <trkpt lat="50.81309" lon="1.90168">
        <ele>148</ele>
        <time>2015-05-12T14:29:07.000Z</time>
      </trkpt>
      <trkpt lat="50.8131" lon="1.90169">
        <ele>148</ele>
        <time>2015-05-12T14:29:08.000Z</time>
      </trkpt>
      <trkpt lat="50.81311" lon="1.9017">
        <ele>148</ele>
        <time>2015-05-12T14:29:09.000Z</time>
      </trkpt>
      <trkpt lat="50.81312" lon="1.90171">
        <ele>148</ele>
        <time>2015-05-12T14:29:10.000Z</time>
      </trkpt>
      <trkpt lat="50.81313" lon="1.90172">
        <ele>148</ele>
        <time>2015-05-12T14:29:11.000Z</time>
      </trkpt>
      <trkpt lat="50.81314" lon="1.90173">
        <ele>148</ele>
        <time>2015-05-12T14:29:12.000Z</time>
      </trkpt>
      <trkpt lat="50.81315" lon="1.90175">
        <ele>148</ele>
        <time>2015-05-12T14:29:13.000Z</time>
      </trkpt>
      <trkpt lat="50.81316" lon="1.90175">
        <ele>148</ele>
        <time>2015-05-12T14:29:14.000Z</time>
      </trkpt>
      <trkpt lat="50.81316" lon="1.90176">
        <ele>148</ele>
        <time>2015-05-12T14:29:15.000Z</time>
      </trkpt>
      <trkpt lat="50.81317" lon="1.90177">
        <ele>148</ele>
        <time>2015-05-12T14:29:16.000Z</time>
      </trkpt>
      <trkpt lat="50.81317" lon="1.90178">
        <ele>148</ele>
        <time>2015-05-12T14:29:17.000Z</time>
      </trkpt>
      <trkpt lat="50.81318" lon="1.90179">
        <ele>148</ele>
        <time>2015-05-12T14:29:18.000Z</time>
      </trkpt>
      <trkpt lat="50.81319" lon="1.9018">
        <ele>148</ele>
        <time>2015-05-12T14:29:19.000Z</time>
      </trkpt>
      <trkpt lat="50.8132" lon="1.90181">
        <ele>148</ele>
        <time>2015-05-12T14:29:20.000Z</time>
      </trkpt>
      <trkpt lat="50.81321" lon="1.90182">
        <ele>147</ele>
        <time>2015-05-12T14:29:21.000Z</time>
      </trkpt>
      <trkpt lat="50.81322" lon="1.90183">
        <ele>147</ele>
        <time>2015-05-12T14:29:22.000Z</time>
      </trkpt>
      <trkpt lat="50.81323" lon="1.90184">
        <ele>147</ele>
        <time>2015-05-12T14:29:23.000Z</time>
      </trkpt>
      <trkpt lat="50.81324" lon="1.90185">
        <ele>146</ele>
        <time>2015-05-12T14:29:24.000Z</time>
      </trkpt>
      <trkpt lat="50.81324" lon="1.90186">
        <ele>146</ele>
        <time>2015-05-12T14:29:25.000Z</time>
      </trkpt>
      <trkpt lat="50.81325" lon="1.90187">
        <ele>146</ele>
        <time>2015-05-12T14:29:26.000Z</time>
      </trkpt>
      <trkpt lat="50.81326" lon="1.90188">
        <ele>146</ele>
        <time>2015-05-12T14:29:27.000Z</time>
      </trkpt>
      <trkpt lat="50.81327" lon="1.90189">
        <ele>146</ele>
        <time>2015-05-12T14:29:28.000Z</time>
      </trkpt>
      <trkpt lat="50.81328" lon="1.9019">
        <ele>145</ele>
        <time>2015-05-12T14:29:29.000Z</time>
      </trkpt>
      <trkpt lat="50.81329" lon="1.90191">
        <ele>145</ele>
        <time>2015-05-12T14:29:30.000Z</time>
      </trkpt>
      <trkpt lat="50.81329" lon="1.90193">
        <ele>145</ele>
        <time>2015-05-12T14:29:31.000Z</time>
      </trkpt>
      <trkpt lat="50.8133" lon="1.90194">
        <ele>145</ele>
        <time>2015-05-12T14:29:32.000Z</time>
      </trkpt>
      <trkpt lat="50.81331" lon="1.90194">
        <ele>145</ele>
        <time>2015-05-12T14:29:33.000Z</time>
      </trkpt>
      <trkpt lat="50.81331" lon="1.90195">
        <ele>145</ele>
        <time>2015-05-12T14:29:34.000Z</time>
      </trkpt>
      <trkpt lat="50.81332" lon="1.90196">
        <ele>145</ele>
        <time>2015-05-12T14:29:35.000Z</time>
      </trkpt>
      <trkpt lat="50.81333" lon="1.90197">
        <ele>145</ele>
        <time>2015-05-12T14:29:36.000Z</time>
      </trkpt>
      <trkpt lat="50.81333" lon="1.90197">
        <ele>145</ele>
        <time>2015-05-12T14:29:37.000Z</time>
      </trkpt>
      <trkpt lat="50.81334" lon="1.90198">
        <ele>145</ele>
        <time>2015-05-12T14:29:38.000Z</time>
      </trkpt>
      <trkpt lat="50.81335" lon="1.90199">
        <ele>144</ele>
        <time>2015-05-12T14:29:39.000Z</time>
      </trkpt>
      <trkpt lat="50.81335" lon="1.902">
        <ele>144</ele>
        <time>2015-05-12T14:29:40.000Z</time>
      </trkpt>
      <trkpt lat="50.81336" lon="1.90201">
        <ele>144</ele>
        <time>2015-05-12T14:29:41.000Z</time>
      </trkpt>
      <trkpt lat="50.81337" lon="1.90201">
        <ele>145</ele>
        <time>2015-05-12T14:29:42.000Z</time>
      </trkpt>
      <trkpt lat="50.81338" lon="1.90202">
        <ele>145</ele>
        <time>2015-05-12T14:29:43.000Z</time>
      </trkpt>
      <trkpt lat="50.81339" lon="1.90203">
        <ele>145</ele>
        <time>2015-05-12T14:29:44.000Z</time>
      </trkpt>
      <trkpt lat="50.8134" lon="1.90204">
        <ele>145</ele>
        <time>2015-05-12T14:29:45.000Z</time>
      </trkpt>
      <trkpt lat="50.81341" lon="1.90206">
        <ele>145</ele>
        <time>2015-05-12T14:29:46.000Z</time>
      </trkpt>
      <trkpt lat="50.81342" lon="1.90207">
        <ele>144</ele>
        <time>2015-05-12T14:29:47.000Z</time>
      </trkpt>
      <trkpt lat="50.81343" lon="1.90208">
        <ele>144</ele>
        <time>2015-05-12T14:29:48.000Z</time>
      </trkpt>
      <trkpt lat="50.81344" lon="1.90209">
        <ele>144</ele>
        <time>2015-05-12T14:29:49.000Z</time>
      </trkpt>
      <trkpt lat="50.81345" lon="1.90209">
        <ele>144</ele>
        <time>2015-05-12T14:29:50.000Z</time>
      </trkpt>
      <trkpt lat="50.81346" lon="1.9021">
        <ele>144</ele>
        <time>2015-05-12T14:29:51.000Z</time>
      </trkpt>
      <trkpt lat="50.81346" lon="1.90212">
        <ele>144</ele>
        <time>2015-05-12T14:29:52.000Z</time>
      </trkpt>
      <trkpt lat="50.81347" lon="1.90213">
        <ele>144</ele>
        <time>2015-05-12T14:29:53.000Z</time>
      </trkpt>
      <trkpt lat="50.81348" lon="1.90214">
        <ele>144</ele>
        <time>2015-05-12T14:29:54.000Z</time>
      </trkpt>
      <trkpt lat="50.8135" lon="1.90215">
        <ele>144</ele>
        <time>2015-05-12T14:29:55.000Z</time>
      </trkpt>
      <trkpt lat="50.8135" lon="1.90216">
        <ele>144</ele>
        <time>2015-05-12T14:29:56.000Z</time>
      </trkpt>
      <trkpt lat="50.81351" lon="1.90217">
        <ele>144</ele>
        <time>2015-05-12T14:29:57.000Z</time>
      </trkpt>
      <trkpt lat="50.81352" lon="1.90218">
        <ele>144</ele>
        <time>2015-05-12T14:29:58.000Z</time>
      </trkpt>
      <trkpt lat="50.81353" lon="1.90219">
        <ele>144</ele>
        <time>2015-05-12T14:29:59.000Z</time>
      </trkpt>
      <trkpt lat="50.81354" lon="1.9022">
        <ele>144</ele>
        <time>2015-05-12T14:30:00.000Z</time>
      </trkpt>
      <trkpt lat="50.81354" lon="1.90221">
        <ele>144</ele>
        <time>2015-05-12T14:30:01.000Z</time>
      </trkpt>
      <trkpt lat="50.81355" lon="1.90222">
        <ele>143</ele>
        <time>2015-05-12T14:30:02.000Z</time>
      </trkpt>
      <trkpt lat="50.81356" lon="1.90223">
        <ele>143</ele>
        <time>2015-05-12T14:30:03.000Z</time>
      </trkpt>
      <trkpt lat="50.81357" lon="1.90224">
        <ele>143</ele>
        <time>2015-05-12T14:30:04.000Z</time>
      </trkpt>
      <trkpt lat="50.81358" lon="1.90225">
        <ele>143</ele>
        <time>2015-05-12T14:30:05.000Z</time>
      </trkpt>
      <trkpt lat="50.81358" lon="1.90227">
        <ele>143</ele>
        <time>2015-05-12T14:30:06.000Z</time>
      </trkpt>
      <trkpt lat="50.81359" lon="1.90228">
        <ele>143</ele>
        <time>2015-05-12T14:30:07.000Z</time>
      </trkpt>
      <trkpt lat="50.8136" lon="1.90228">
        <ele>143</ele>
        <time>2015-05-12T14:30:08.000Z</time>
      </trkpt>
      <trkpt lat="50.81361" lon="1.90229">
        <ele>143</ele>
        <time>2015-05-12T14:30:09.000Z</time>
      </trkpt>
      <trkpt lat="50.81362" lon="1.9023">
        <ele>143</ele>
        <time>2015-05-12T14:30:10.000Z</time>
      </trkpt>
      <trkpt lat="50.81363" lon="1.90232">
        <ele>143</ele>
        <time>2015-05-12T14:30:11.000Z</time>
      </trkpt>
      <trkpt lat="50.81364" lon="1.90233">
        <ele>143</ele>
        <time>2015-05-12T14:30:12.000Z</time>
      </trkpt>
      <trkpt lat="50.81365" lon="1.90234">
        <ele>143</ele>
        <time>2015-05-12T14:30:13.000Z</time>
      </trkpt>
      <trkpt lat="50.81366" lon="1.90235">
        <ele>143</ele>
        <time>2015-05-12T14:30:14.000Z</time>
      </trkpt>
      <trkpt lat="50.81367" lon="1.90236">
        <ele>143</ele>
        <time>2015-05-12T14:30:15.000Z</time>
      </trkpt>
      <trkpt lat="50.81367" lon="1.90238">
        <ele>142</ele>
        <time>2015-05-12T14:30:16.000Z</time>
      </trkpt>
      <trkpt lat="50.81368" lon="1.90239">
        <ele>142</ele>
        <time>2015-05-12T14:30:17.000Z</time>
      </trkpt>
      <trkpt lat="50.81369" lon="1.9024">
        <ele>142</ele>
        <time>2015-05-12T14:30:18.000Z</time>
      </trkpt>
      <trkpt lat="50.81369" lon="1.90241">
        <ele>141</ele>
        <time>2015-05-12T14:30:19.000Z</time>
      </trkpt>
      <trkpt lat="50.8137" lon="1.90242">
        <ele>142</ele>
        <time>2015-05-12T14:30:20.000Z</time>
      </trkpt>
      <trkpt lat="50.81371" lon="1.90243">
        <ele>141</ele>
        <time>2015-05-12T14:30:21.000Z</time>
      </trkpt>
      <trkpt lat="50.81372" lon="1.90244">
        <ele>141</ele>
        <time>2015-05-12T14:30:22.000Z</time>
      </trkpt>
      <trkpt lat="50.81372" lon="1.90245">
        <ele>141</ele>
        <time>2015-05-12T14:30:23.000Z</time>
      </trkpt>
      <trkpt lat="50.81373" lon="1.90246">
        <ele>141</ele>
        <time>2015-05-12T14:30:24.000Z</time>
      </trkpt>
      <trkpt lat="50.81375" lon="1.90248">
        <ele>141</ele>
        <time>2015-05-12T14:30:25.000Z</time>
      </trkpt>
      <trkpt lat="50.81376" lon="1.90249">
        <ele>141</ele>
        <time>2015-05-12T14:30:26.000Z</time>
      </trkpt>
      <trkpt lat="50.81377" lon="1.9025">
        <ele>141</ele>
        <time>2015-05-12T14:30:27.000Z</time>
      </trkpt>
      <trkpt lat="50.81377" lon="1.90251">
        <ele>141</ele>
        <time>2015-05-12T14:30:28.000Z</time>
      </trkpt>
      <trkpt lat="50.81378" lon="1.90252">
        <ele>141</ele>
        <time>2015-05-12T14:30:29.000Z</time>
      </trkpt>
      <trkpt lat="50.81379" lon="1.90253">
        <ele>141</ele>
        <time>2015-05-12T14:30:30.000Z</time>
      </trkpt>
      <trkpt lat="50.81379" lon="1.90254">
        <ele>141</ele>
        <time>2015-05-12T14:30:31.000Z</time>
      </trkpt>
      <trkpt lat="50.8138" lon="1.90255">
        <ele>141</ele>
        <time>2015-05-12T14:30:32.000Z</time>
      </trkpt>
      <trkpt lat="50.81381" lon="1.90256">
        <ele>141</ele>
        <time>2015-05-12T14:30:33.000Z</time>
      </trkpt>
      <trkpt lat="50.81382" lon="1.90257">
        <ele>141</ele>
        <time>2015-05-12T14:30:34.000Z</time>
      </trkpt>
      <trkpt lat="50.81383" lon="1.90259">
        <ele>141</ele>
        <time>2015-05-12T14:30:35.000Z</time>
      </trkpt>
      <trkpt lat="50.81384" lon="1.9026">
        <ele>141</ele>
        <time>2015-05-12T14:30:36.000Z</time>
      </trkpt>
      <trkpt lat="50.81385" lon="1.90261">
        <ele>141</ele>
        <time>2015-05-12T14:30:37.000Z</time>
      </trkpt>
      <trkpt lat="50.81386" lon="1.90263">
        <ele>141</ele>
        <time>2015-05-12T14:30:38.000Z</time>
      </trkpt>
      <trkpt lat="50.81387" lon="1.90264">
        <ele>141</ele>
        <time>2015-05-12T14:30:39.000Z</time>
      </trkpt>
      <trkpt lat="50.81387" lon="1.90265">
        <ele>142</ele>
        <time>2015-05-12T14:30:40.000Z</time>
      </trkpt>
      <trkpt lat="50.81388" lon="1.90265">
        <ele>142</ele>
        <time>2015-05-12T14:30:41.000Z</time>
      </trkpt>
      <trkpt lat="50.81388" lon="1.90266">
        <ele>141</ele>
        <time>2015-05-12T14:30:42.000Z</time>
      </trkpt>
      <trkpt lat="50.81388" lon="1.90266">
        <ele>141</ele>
        <time>2015-05-12T14:30:43.000Z</time>
      </trkpt>
      <trkpt lat="50.81388" lon="1.90266">
        <ele>141</ele>
        <time>2015-05-12T14:30:44.000Z</time>
      </trkpt>
      <trkpt lat="50.81388" lon="1.90266">
        <ele>141</ele>
        <time>2015-05-12T14:30:45.000Z</time>
      </trkpt>
      <trkpt lat="50.81388" lon="1.90266">
        <ele>141</ele>
        <time>2015-05-12T14:30:46.000Z</time>
      </trkpt>
      <trkpt lat="50.81389" lon="1.90267">
        <ele>141</ele>
        <time>2015-05-12T14:30:47.000Z</time>
      </trkpt>
      <trkpt lat="50.81389" lon="1.90268">
        <ele>140</ele>
        <time>2015-05-12T14:30:48.000Z</time>
      </trkpt>
      <trkpt lat="50.8139" lon="1.90269">
        <ele>140</ele>
        <time>2015-05-12T14:30:49.000Z</time>
      </trkpt>
      <trkpt lat="50.81391" lon="1.90271">
        <ele>140</ele>
        <time>2015-05-12T14:30:50.000Z</time>
      </trkpt>
      <trkpt lat="50.81392" lon="1.90272">
        <ele>141</ele>
        <time>2015-05-12T14:30:51.000Z</time>
      </trkpt>
      <trkpt lat="50.81392" lon="1.90273">
        <ele>140</ele>
        <time>2015-05-12T14:30:52.000Z</time>
      </trkpt>
      <trkpt lat="50.81393" lon="1.90273">
        <ele>140</ele>
        <time>2015-05-12T14:30:53.000Z</time>
      </trkpt>
      <trkpt lat="50.81393" lon="1.90273">
        <ele>140</ele>
        <time>2015-05-12T14:30:54.000Z</time>
      </trkpt>
      <trkpt lat="50.81392" lon="1.90273">
        <ele>140</ele>
        <time>2015-05-12T14:30:55.000Z</time>
      </trkpt>
      <trkpt lat="50.81392" lon="1.90273">
        <ele>140</ele>
        <time>2015-05-12T14:30:56.000Z</time>
      </trkpt>
      <trkpt lat="50.81392" lon="1.90274">
        <ele>139</ele>
        <time>2015-05-12T14:30:57.000Z</time>
      </trkpt>
      <trkpt lat="50.81393" lon="1.90274">
        <ele>139</ele>
        <time>2015-05-12T14:30:58.000Z</time>
      </trkpt>
      <trkpt lat="50.81393" lon="1.90276">
        <ele>139</ele>
        <time>2015-05-12T14:30:59.000Z</time>
      </trkpt>
      <trkpt lat="50.81394" lon="1.90277">
        <ele>139</ele>
        <time>2015-05-12T14:31:00.000Z</time>
      </trkpt>
      <trkpt lat="50.81395" lon="1.90279">
        <ele>138</ele>
        <time>2015-05-12T14:31:01.000Z</time>
      </trkpt>
      <trkpt lat="50.81396" lon="1.9028">
        <ele>138</ele>
        <time>2015-05-12T14:31:02.000Z</time>
      </trkpt>
      <trkpt lat="50.81397" lon="1.90282">
        <ele>138</ele>
        <time>2015-05-12T14:31:03.000Z</time>
      </trkpt>
      <trkpt lat="50.81398" lon="1.90283">
        <ele>138</ele>
        <time>2015-05-12T14:31:04.000Z</time>
      </trkpt>
      <trkpt lat="50.81399" lon="1.90285">
        <ele>138</ele>
        <time>2015-05-12T14:31:05.000Z</time>
      </trkpt>
      <trkpt lat="50.814" lon="1.90287">
        <ele>138</ele>
        <time>2015-05-12T14:31:06.000Z</time>
      </trkpt>
      <trkpt lat="50.81401" lon="1.90288">
        <ele>138</ele>
        <time>2015-05-12T14:31:07.000Z</time>
      </trkpt>
      <trkpt lat="50.81402" lon="1.9029">
        <ele>138</ele>
        <time>2015-05-12T14:31:08.000Z</time>
      </trkpt>
      <trkpt lat="50.81403" lon="1.90291">
        <ele>138</ele>
        <time>2015-05-12T14:31:09.000Z</time>
      </trkpt>
      <trkpt lat="50.81404" lon="1.90292">
        <ele>137</ele>
        <time>2015-05-12T14:31:10.000Z</time>
      </trkpt>
      <trkpt lat="50.81405" lon="1.90294">
        <ele>137</ele>
        <time>2015-05-12T14:31:11.000Z</time>
      </trkpt>
      <trkpt lat="50.81406" lon="1.90295">
        <ele>137</ele>
        <time>2015-05-12T14:31:12.000Z</time>
      </trkpt>
      <trkpt lat="50.81406" lon="1.90296">
        <ele>137</ele>
        <time>2015-05-12T14:31:13.000Z</time>
      </trkpt>
      <trkpt lat="50.81407" lon="1.90298">
        <ele>137</ele>
        <time>2015-05-12T14:31:14.000Z</time>
      </trkpt>
      <trkpt lat="50.81408" lon="1.903">
        <ele>137</ele>
        <time>2015-05-12T14:31:15.000Z</time>
      </trkpt>
      <trkpt lat="50.81409" lon="1.90301">
        <ele>137</ele>
        <time>2015-05-12T14:31:16.000Z</time>
      </trkpt>
      <trkpt lat="50.8141" lon="1.90303">
        <ele>137</ele>
        <time>2015-05-12T14:31:17.000Z</time>
      </trkpt>
      <trkpt lat="50.81411" lon="1.90304">
        <ele>137</ele>
        <time>2015-05-12T14:31:18.000Z</time>
      </trkpt>
      <trkpt lat="50.81412" lon="1.90306">
        <ele>137</ele>
        <time>2015-05-12T14:31:19.000Z</time>
      </trkpt>
      <trkpt lat="50.81413" lon="1.90307">
        <ele>136</ele>
        <time>2015-05-12T14:31:20.000Z</time>
      </trkpt>
      <trkpt lat="50.81414" lon="1.90309">
        <ele>136</ele>
        <time>2015-05-12T14:31:21.000Z</time>
      </trkpt>
      <trkpt lat="50.81415" lon="1.9031">
        <ele>136</ele>
        <time>2015-05-12T14:31:22.000Z</time>
      </trkpt>
      <trkpt lat="50.81416" lon="1.90312">
        <ele>136</ele>
        <time>2015-05-12T14:31:23.000Z</time>
      </trkpt>
      <trkpt lat="50.81417" lon="1.90313">
        <ele>136</ele>
        <time>2015-05-12T14:31:24.000Z</time>
      </trkpt>
      <trkpt lat="50.81418" lon="1.90314">
        <ele>136</ele>
        <time>2015-05-12T14:31:25.000Z</time>
      </trkpt>
      <trkpt lat="50.81418" lon="1.90315">
        <ele>136</ele>
        <time>2015-05-12T14:31:26.000Z</time>
      </trkpt>
      <trkpt lat="50.81419" lon="1.90316">
        <ele>136</ele>
        <time>2015-05-12T14:31:27.000Z</time>
      </trkpt>
      <trkpt lat="50.8142" lon="1.90317">
        <ele>136</ele>
        <time>2015-05-12T14:31:28.000Z</time>
      </trkpt>
      <trkpt lat="50.81421" lon="1.90319">
        <ele>136</ele>
        <time>2015-05-12T14:31:29.000Z</time>
      </trkpt>
      <trkpt lat="50.81422" lon="1.9032">
        <ele>135</ele>
        <time>2015-05-12T14:31:30.000Z</time>
      </trkpt>
      <trkpt lat="50.81423" lon="1.90321">
        <ele>135</ele>
        <time>2015-05-12T14:31:31.000Z</time>
      </trkpt>
      <trkpt lat="50.81424" lon="1.90322">
        <ele>135</ele>
        <time>2015-05-12T14:31:32.000Z</time>
      </trkpt>
      <trkpt lat="50.81425" lon="1.90324">
        <ele>135</ele>
        <time>2015-05-12T14:31:33.000Z</time>
      </trkpt>
      <trkpt lat="50.81426" lon="1.90325">
        <ele>134</ele>
        <time>2015-05-12T14:31:34.000Z</time>
      </trkpt>
      <trkpt lat="50.81426" lon="1.90326">
        <ele>134</ele>
        <time>2015-05-12T14:31:35.000Z</time>
      </trkpt>
      <trkpt lat="50.81427" lon="1.90327">
        <ele>134</ele>
        <time>2015-05-12T14:31:36.000Z</time>
      </trkpt>
      <trkpt lat="50.81428" lon="1.90328">
        <ele>134</ele>
        <time>2015-05-12T14:31:37.000Z</time>
      </trkpt>
      <trkpt lat="50.81429" lon="1.9033">
        <ele>134</ele>
        <time>2015-05-12T14:31:38.000Z</time>
      </trkpt>
      <trkpt lat="50.8143" lon="1.90331">
        <ele>133</ele>
        <time>2015-05-12T14:31:39.000Z</time>
      </trkpt>
      <trkpt lat="50.81431" lon="1.90332">
        <ele>133</ele>
        <time>2015-05-12T14:31:40.000Z</time>
      </trkpt>
      <trkpt lat="50.81432" lon="1.90334">
        <ele>133</ele>
        <time>2015-05-12T14:31:41.000Z</time>
      </trkpt>
      <trkpt lat="50.81433" lon="1.90335">
        <ele>133</ele>
        <time>2015-05-12T14:31:42.000Z</time>
      </trkpt>
      <trkpt lat="50.81434" lon="1.90337">
        <ele>133</ele>
        <time>2015-05-12T14:31:43.000Z</time>
      </trkpt>
      <trkpt lat="50.81435" lon="1.90339">
        <ele>133</ele>
        <time>2015-05-12T14:31:44.000Z</time>
      </trkpt>
      <trkpt lat="50.81436" lon="1.9034">
        <ele>132</ele>
        <time>2015-05-12T14:31:45.000Z</time>
      </trkpt>
      <trkpt lat="50.81437" lon="1.90341">
        <ele>132</ele>
        <time>2015-05-12T14:31:46.000Z</time>
      </trkpt>
      <trkpt lat="50.81438" lon="1.90343">
        <ele>133</ele>
        <time>2015-05-12T14:31:47.000Z</time>
      </trkpt>
      <trkpt lat="50.81439" lon="1.90344">
        <ele>132</ele>
        <time>2015-05-12T14:31:48.000Z</time>
      </trkpt>
      <trkpt lat="50.8144" lon="1.90345">
        <ele>132</ele>
        <time>2015-05-12T14:31:49.000Z</time>
      </trkpt>
      <trkpt lat="50.81441" lon="1.90346">
        <ele>132</ele>
        <time>2015-05-12T14:31:50.000Z</time>
      </trkpt>
      <trkpt lat="50.81442" lon="1.90347">
        <ele>132</ele>
        <time>2015-05-12T14:31:51.000Z</time>
      </trkpt>
      <trkpt lat="50.81443" lon="1.90349">
        <ele>132</ele>
        <time>2015-05-12T14:31:52.000Z</time>
      </trkpt>
      <trkpt lat="50.81444" lon="1.9035">
        <ele>132</ele>
        <time>2015-05-12T14:31:53.000Z</time>
      </trkpt>
      <trkpt lat="50.81445" lon="1.90352">
        <ele>131</ele>
        <time>2015-05-12T14:31:54.000Z</time>
      </trkpt>
      <trkpt lat="50.81446" lon="1.90353">
        <ele>131</ele>
        <time>2015-05-12T14:31:55.000Z</time>
      </trkpt>
      <trkpt lat="50.81447" lon="1.90354">
        <ele>131</ele>
        <time>2015-05-12T14:31:56.000Z</time>
      </trkpt>
      <trkpt lat="50.81448" lon="1.90355">
        <ele>131</ele>
        <time>2015-05-12T14:31:57.000Z</time>
      </trkpt>
      <trkpt lat="50.81449" lon="1.90356">
        <ele>131</ele>
        <time>2015-05-12T14:31:58.000Z</time>
      </trkpt>
      <trkpt lat="50.8145" lon="1.90357">
        <ele>132</ele>
        <time>2015-05-12T14:31:59.000Z</time>
      </trkpt>
      <trkpt lat="50.81451" lon="1.90358">
        <ele>132</ele>
        <time>2015-05-12T14:32:00.000Z</time>
      </trkpt>
      <trkpt lat="50.81452" lon="1.90358">
        <ele>131</ele>
        <time>2015-05-12T14:32:01.000Z</time>
      </trkpt>
      <trkpt lat="50.81452" lon="1.90359">
        <ele>131</ele>
        <time>2015-05-12T14:32:02.000Z</time>
      </trkpt>
      <trkpt lat="50.81453" lon="1.9036">
        <ele>131</ele>
        <time>2015-05-12T14:32:03.000Z</time>
      </trkpt>
      <trkpt lat="50.81454" lon="1.90361">
        <ele>132</ele>
        <time>2015-05-12T14:32:04.000Z</time>
      </trkpt>
      <trkpt lat="50.81455" lon="1.90362">
        <ele>132</ele>
        <time>2015-05-12T14:32:05.000Z</time>
      </trkpt>
      <trkpt lat="50.81456" lon="1.90362">
        <ele>132</ele>
        <time>2015-05-12T14:32:06.000Z</time>
      </trkpt>
      <trkpt lat="50.81457" lon="1.90363">
        <ele>132</ele>
        <time>2015-05-12T14:32:07.000Z</time>
      </trkpt>
      <trkpt lat="50.81457" lon="1.90363">
        <ele>133</ele>
        <time>2015-05-12T14:32:08.000Z</time>
      </trkpt>
      <trkpt lat="50.81458" lon="1.90363">
        <ele>133</ele>
        <time>2015-05-12T14:32:09.000Z</time>
      </trkpt>
      <trkpt lat="50.81458" lon="1.90364">
        <ele>133</ele>
        <time>2015-05-12T14:32:10.000Z</time>
      </trkpt>
      <trkpt lat="50.81458" lon="1.90364">
        <ele>133</ele>
        <time>2015-05-12T14:32:11.000Z</time>
      </trkpt>
      <trkpt lat="50.81459" lon="1.90364">
        <ele>133</ele>
        <time>2015-05-12T14:32:12.000Z</time>
      </trkpt>
      <trkpt lat="50.8146" lon="1.90365">
        <ele>133</ele>
        <time>2015-05-12T14:32:13.000Z</time>
      </trkpt>
      <trkpt lat="50.8146" lon="1.90366">
        <ele>133</ele>
        <time>2015-05-12T14:32:14.000Z</time>
      </trkpt>
      <trkpt lat="50.81461" lon="1.90366">
        <ele>133</ele>
        <time>2015-05-12T14:32:15.000Z</time>
      </trkpt>
      <trkpt lat="50.81461" lon="1.90367">
        <ele>133</ele>
        <time>2015-05-12T14:32:16.000Z</time>
      </trkpt>
      <trkpt lat="50.81462" lon="1.90367">
        <ele>133</ele>
        <time>2015-05-12T14:32:17.000Z</time>
      </trkpt>
      <trkpt lat="50.81462" lon="1.90368">
        <ele>133</ele>
        <time>2015-05-12T14:32:18.000Z</time>
      </trkpt>
      <trkpt lat="50.81463" lon="1.90368">
        <ele>133</ele>
        <time>2015-05-12T14:32:19.000Z</time>
      </trkpt>
      <trkpt lat="50.81464" lon="1.90369">
        <ele>133</ele>
        <time>2015-05-12T14:32:20.000Z</time>
      </trkpt>
      <trkpt lat="50.81464" lon="1.90369">
        <ele>133</ele>
        <time>2015-05-12T14:32:21.000Z</time>
      </trkpt>
      <trkpt lat="50.81465" lon="1.9037">
        <ele>133</ele>
        <time>2015-05-12T14:32:22.000Z</time>
      </trkpt>
      <trkpt lat="50.81466" lon="1.9037">
        <ele>133</ele>
        <time>2015-05-12T14:32:23.000Z</time>
      </trkpt>
      <trkpt lat="50.81466" lon="1.90371">
        <ele>133</ele>
        <time>2015-05-12T14:32:24.000Z</time>
      </trkpt>
      <trkpt lat="50.81467" lon="1.90372">
        <ele>133</ele>
        <time>2015-05-12T14:32:25.000Z</time>
      </trkpt>
      <trkpt lat="50.81468" lon="1.90373">
        <ele>133</ele>
        <time>2015-05-12T14:32:26.000Z</time>
      </trkpt>
      <trkpt lat="50.81469" lon="1.90374">
        <ele>133</ele>
        <time>2015-05-12T14:32:27.000Z</time>
      </trkpt>
      <trkpt lat="50.8147" lon="1.90374">
        <ele>133</ele>
        <time>2015-05-12T14:32:28.000Z</time>
      </trkpt>
      <trkpt lat="50.8147" lon="1.90375">
        <ele>133</ele>
        <time>2015-05-12T14:32:29.000Z</time>
      </trkpt>
      <trkpt lat="50.81471" lon="1.90376">
        <ele>133</ele>
        <time>2015-05-12T14:32:30.000Z</time>
      </trkpt>
      <trkpt lat="50.81472" lon="1.90377">
        <ele>132</ele>
        <time>2015-05-12T14:32:31.000Z</time>
      </trkpt>
      <trkpt lat="50.81473" lon="1.90378">
        <ele>132</ele>
        <time>2015-05-12T14:32:32.000Z</time>
      </trkpt>
      <trkpt lat="50.81474" lon="1.90379">
        <ele>132</ele>
        <time>2015-05-12T14:32:33.000Z</time>
      </trkpt>
      <trkpt lat="50.81475" lon="1.9038">
        <ele>132</ele>
        <time>2015-05-12T14:32:34.000Z</time>
      </trkpt>
      <trkpt lat="50.81476" lon="1.90381">
        <ele>132</ele>
        <time>2015-05-12T14:32:35.000Z</time>
      </trkpt>
      <trkpt lat="50.81477" lon="1.90381">
        <ele>132</ele>
        <time>2015-05-12T14:32:36.000Z</time>
      </trkpt>
      <trkpt lat="50.81477" lon="1.90382">
        <ele>132</ele>
        <time>2015-05-12T14:32:37.000Z</time>
      </trkpt>
      <trkpt lat="50.81478" lon="1.90383">
        <ele>132</ele>
        <time>2015-05-12T14:32:38.000Z</time>
      </trkpt>
      <trkpt lat="50.81479" lon="1.90384">
        <ele>132</ele>
        <time>2015-05-12T14:32:39.000Z</time>
      </trkpt>
      <trkpt lat="50.8148" lon="1.90384">
        <ele>132</ele>
        <time>2015-05-12T14:32:40.000Z</time>
      </trkpt>
      <trkpt lat="50.81481" lon="1.90385">
        <ele>132</ele>
        <time>2015-05-12T14:32:41.000Z</time>
      </trkpt>
      <trkpt lat="50.81481" lon="1.90386">
        <ele>132</ele>
        <time>2015-05-12T14:32:42.000Z</time>
      </trkpt>
      <trkpt lat="50.81482" lon="1.90386">
        <ele>132</ele>
        <time>2015-05-12T14:32:43.000Z</time>
      </trkpt>
      <trkpt lat="50.81482" lon="1.90387">
        <ele>132</ele>
        <time>2015-05-12T14:32:44.000Z</time>
      </trkpt>
      <trkpt lat="50.81483" lon="1.90388">
        <ele>132</ele>
        <time>2015-05-12T14:32:45.000Z</time>
      </trkpt>
      <trkpt lat="50.81484" lon="1.90388">
        <ele>132</ele>
        <time>2015-05-12T14:32:46.000Z</time>
      </trkpt>
      <trkpt lat="50.81485" lon="1.90389">
        <ele>132</ele>
        <time>2015-05-12T14:32:47.000Z</time>
      </trkpt>
      <trkpt lat="50.81485" lon="1.9039">
        <ele>132</ele>
        <time>2015-05-12T14:32:48.000Z</time>
      </trkpt>
      <trkpt lat="50.81486" lon="1.9039">
        <ele>132</ele>
        <time>2015-05-12T14:32:49.000Z</time>
      </trkpt>
      <trkpt lat="50.81487" lon="1.90391">
        <ele>132</ele>
        <time>2015-05-12T14:32:50.000Z</time>
      </trkpt>
      <trkpt lat="50.81488" lon="1.90392">
        <ele>132</ele>
        <time>2015-05-12T14:32:51.000Z</time>
      </trkpt>
      <trkpt lat="50.81488" lon="1.90393">
        <ele>132</ele>
        <time>2015-05-12T14:32:52.000Z</time>
      </trkpt>
      <trkpt lat="50.81489" lon="1.90393">
        <ele>132</ele>
        <time>2015-05-12T14:32:53.000Z</time>
      </trkpt>
      <trkpt lat="50.8149" lon="1.90394">
        <ele>132</ele>
        <time>2015-05-12T14:32:54.000Z</time>
      </trkpt>
      <trkpt lat="50.81491" lon="1.90395">
        <ele>132</ele>
        <time>2015-05-12T14:32:55.000Z</time>
      </trkpt>
      <trkpt lat="50.81492" lon="1.90396">
        <ele>132</ele>
        <time>2015-05-12T14:32:56.000Z</time>
      </trkpt>
      <trkpt lat="50.81493" lon="1.90397">
        <ele>132</ele>
        <time>2015-05-12T14:32:57.000Z</time>
      </trkpt>
      <trkpt lat="50.81494" lon="1.90398">
        <ele>132</ele>
        <time>2015-05-12T14:32:58.000Z</time>
      </trkpt>
      <trkpt lat="50.81495" lon="1.90399">
        <ele>132</ele>
        <time>2015-05-12T14:32:59.000Z</time>
      </trkpt>
      <trkpt lat="50.81496" lon="1.904">
        <ele>131</ele>
        <time>2015-05-12T14:33:00.000Z</time>
      </trkpt>
      <trkpt lat="50.81497" lon="1.90401">
        <ele>131</ele>
        <time>2015-05-12T14:33:01.000Z</time>
      </trkpt>
      <trkpt lat="50.81498" lon="1.90402">
        <ele>131</ele>
        <time>2015-05-12T14:33:02.000Z</time>
      </trkpt>
      <trkpt lat="50.81499" lon="1.90403">
        <ele>131</ele>
        <time>2015-05-12T14:33:03.000Z</time>
      </trkpt>
      <trkpt lat="50.815" lon="1.90405">
        <ele>131</ele>
        <time>2015-05-12T14:33:04.000Z</time>
      </trkpt>
      <trkpt lat="50.81501" lon="1.90406">
        <ele>131</ele>
        <time>2015-05-12T14:33:05.000Z</time>
      </trkpt>
      <trkpt lat="50.81502" lon="1.90407">
        <ele>131</ele>
        <time>2015-05-12T14:33:06.000Z</time>
      </trkpt>
      <trkpt lat="50.81503" lon="1.90408">
        <ele>131</ele>
        <time>2015-05-12T14:33:07.000Z</time>
      </trkpt>
      <trkpt lat="50.81504" lon="1.90409">
        <ele>131</ele>
        <time>2015-05-12T14:33:08.000Z</time>
      </trkpt>
      <trkpt lat="50.81505" lon="1.9041">
        <ele>131</ele>
        <time>2015-05-12T14:33:09.000Z</time>
      </trkpt>
      <trkpt lat="50.81506" lon="1.90411">
        <ele>131</ele>
        <time>2015-05-12T14:33:10.000Z</time>
      </trkpt>
      <trkpt lat="50.81507" lon="1.90412">
        <ele>131</ele>
        <time>2015-05-12T14:33:11.000Z</time>
      </trkpt>
      <trkpt lat="50.81508" lon="1.90413">
        <ele>131</ele>
        <time>2015-05-12T14:33:12.000Z</time>
      </trkpt>
      <trkpt lat="50.81509" lon="1.90414">
        <ele>131</ele>
        <time>2015-05-12T14:33:13.000Z</time>
      </trkpt>
      <trkpt lat="50.8151" lon="1.90415">
        <ele>131</ele>
        <time>2015-05-12T14:33:14.000Z</time>
      </trkpt>
      <trkpt lat="50.81511" lon="1.90416">
        <ele>131</ele>
        <time>2015-05-12T14:33:15.000Z</time>
      </trkpt>
      <trkpt lat="50.81512" lon="1.90417">
        <ele>131</ele>
        <time>2015-05-12T14:33:16.000Z</time>
      </trkpt>
      <trkpt lat="50.81513" lon="1.90418">
        <ele>131</ele>
        <time>2015-05-12T14:33:17.000Z</time>
      </trkpt>
      <trkpt lat="50.81514" lon="1.90419">
        <ele>131</ele>
        <time>2015-05-12T14:33:18.000Z</time>
      </trkpt>
      <trkpt lat="50.81516" lon="1.9042">
        <ele>131</ele>
        <time>2015-05-12T14:33:19.000Z</time>
      </trkpt>
      <trkpt lat="50.81517" lon="1.90421">
        <ele>131</ele>
        <time>2015-05-12T14:33:20.000Z</time>
      </trkpt>
      <trkpt lat="50.81517" lon="1.90422">
        <ele>131</ele>
        <time>2015-05-12T14:33:21.000Z</time>
      </trkpt>
      <trkpt lat="50.81518" lon="1.90423">
        <ele>131</ele>
        <time>2015-05-12T14:33:22.000Z</time>
      </trkpt>
      <trkpt lat="50.81519" lon="1.90423">
        <ele>131</ele>
        <time>2015-05-12T14:33:23.000Z</time>
      </trkpt>
      <trkpt lat="50.8152" lon="1.90424">
        <ele>131</ele>
        <time>2015-05-12T14:33:24.000Z</time>
      </trkpt>
      <trkpt lat="50.81521" lon="1.90425">
        <ele>131</ele>
        <time>2015-05-12T14:33:25.000Z</time>
      </trkpt>
      <trkpt lat="50.81523" lon="1.90426">
        <ele>131</ele>
        <time>2015-05-12T14:33:26.000Z</time>
      </trkpt>
      <trkpt lat="50.81524" lon="1.90428">
        <ele>131</ele>
        <time>2015-05-12T14:33:27.000Z</time>
      </trkpt>
      <trkpt lat="50.81525" lon="1.90429">
        <ele>131</ele>
        <time>2015-05-12T14:33:28.000Z</time>
      </trkpt>
      <trkpt lat="50.81526" lon="1.9043">
        <ele>131</ele>
        <time>2015-05-12T14:33:29.000Z</time>
      </trkpt>
      <trkpt lat="50.81527" lon="1.90431">
        <ele>131</ele>
        <time>2015-05-12T14:33:30.000Z</time>
      </trkpt>
      <trkpt lat="50.81528" lon="1.90432">
        <ele>130</ele>
        <time>2015-05-12T14:33:31.000Z</time>
      </trkpt>
      <trkpt lat="50.81528" lon="1.90432">
        <ele>130</ele>
        <time>2015-05-12T14:33:32.000Z</time>
      </trkpt>
      <trkpt lat="50.81529" lon="1.90433">
        <ele>130</ele>
        <time>2015-05-12T14:33:33.000Z</time>
      </trkpt>
      <trkpt lat="50.8153" lon="1.90433">
        <ele>130</ele>
        <time>2015-05-12T14:33:34.000Z</time>
      </trkpt>
      <trkpt lat="50.81531" lon="1.90434">
        <ele>130</ele>
        <time>2015-05-12T14:33:35.000Z</time>
      </trkpt>
      <trkpt lat="50.81531" lon="1.90435">
        <ele>130</ele>
        <time>2015-05-12T14:33:36.000Z</time>
      </trkpt>
      <trkpt lat="50.81531" lon="1.90435">
        <ele>130</ele>
        <time>2015-05-12T14:33:37.000Z</time>
      </trkpt>
      <trkpt lat="50.81532" lon="1.90435">
        <ele>130</ele>
        <time>2015-05-12T14:33:38.000Z</time>
      </trkpt>
      <trkpt lat="50.81531" lon="1.90435">
        <ele>130</ele>
        <time>2015-05-12T14:33:39.000Z</time>
      </trkpt>
      <trkpt lat="50.81531" lon="1.90435">
        <ele>130</ele>
        <time>2015-05-12T14:33:40.000Z</time>
      </trkpt>
      <trkpt lat="50.81531" lon="1.90435">
        <ele>130</ele>
        <time>2015-05-12T14:33:41.000Z</time>
      </trkpt>
      <trkpt lat="50.81531" lon="1.90435">
        <ele>130</ele>
        <time>2015-05-12T14:33:42.000Z</time>
      </trkpt>
      <trkpt lat="50.81532" lon="1.90436">
        <ele>129</ele>
        <time>2015-05-12T14:33:43.000Z</time>
      </trkpt>
      <trkpt lat="50.81532" lon="1.90436">
        <ele>129</ele>
        <time>2015-05-12T14:33:44.000Z</time>
      </trkpt>
      <trkpt lat="50.81533" lon="1.90437">
        <ele>129</ele>
        <time>2015-05-12T14:33:45.000Z</time>
      </trkpt>
      <trkpt lat="50.81534" lon="1.90438">
        <ele>129</ele>
        <time>2015-05-12T14:33:46.000Z</time>
      </trkpt>
      <trkpt lat="50.81534" lon="1.90438">
        <ele>129</ele>
        <time>2015-05-12T14:33:47.000Z</time>
      </trkpt>
      <trkpt lat="50.81534" lon="1.90439">
        <ele>129</ele>
        <time>2015-05-12T14:33:48.000Z</time>
      </trkpt>
      <trkpt lat="50.81535" lon="1.90439">
        <ele>129</ele>
        <time>2015-05-12T14:33:49.000Z</time>
      </trkpt>
      <trkpt lat="50.81535" lon="1.90439">
        <ele>129</ele>
        <time>2015-05-12T14:33:50.000Z</time>
      </trkpt>
      <trkpt lat="50.81535" lon="1.9044">
        <ele>129</ele>
        <time>2015-05-12T14:33:51.000Z</time>
      </trkpt>
      <trkpt lat="50.81536" lon="1.90441">
        <ele>129</ele>
        <time>2015-05-12T14:33:52.000Z</time>
      </trkpt>
      <trkpt lat="50.81537" lon="1.90442">
        <ele>129</ele>
        <time>2015-05-12T14:33:53.000Z</time>
      </trkpt>
      <trkpt lat="50.81538" lon="1.90443">
        <ele>129</ele>
        <time>2015-05-12T14:33:54.000Z</time>
      </trkpt>
      <trkpt lat="50.81538" lon="1.90443">
        <ele>128</ele>
        <time>2015-05-12T14:33:55.000Z</time>
      </trkpt>
      <trkpt lat="50.81539" lon="1.90444">
        <ele>129</ele>
        <time>2015-05-12T14:33:56.000Z</time>
      </trkpt>
      <trkpt lat="50.8154" lon="1.90444">
        <ele>129</ele>
        <time>2015-05-12T14:33:57.000Z</time>
      </trkpt>
      <trkpt lat="50.81541" lon="1.90445">
        <ele>128</ele>
        <time>2015-05-12T14:33:58.000Z</time>
      </trkpt>
      <trkpt lat="50.81541" lon="1.90446">
        <ele>128</ele>
        <time>2015-05-12T14:33:59.000Z</time>
      </trkpt>
      <trkpt lat="50.81542" lon="1.90447">
        <ele>128</ele>
        <time>2015-05-12T14:34:00.000Z</time>
      </trkpt>
      <trkpt lat="50.81543" lon="1.90448">
        <ele>128</ele>
        <time>2015-05-12T14:34:01.000Z</time>
      </trkpt>
      <trkpt lat="50.81544" lon="1.90449">
        <ele>127</ele>
        <time>2015-05-12T14:34:02.000Z</time>
      </trkpt>
      <trkpt lat="50.81545" lon="1.9045">
        <ele>127</ele>
        <time>2015-05-12T14:34:03.000Z</time>
      </trkpt>
      <trkpt lat="50.81546" lon="1.90451">
        <ele>127</ele>
        <time>2015-05-12T14:34:04.000Z</time>
      </trkpt>
      <trkpt lat="50.81547" lon="1.90452">
        <ele>127</ele>
        <time>2015-05-12T14:34:05.000Z</time>
      </trkpt>
      <trkpt lat="50.81548" lon="1.90453">
        <ele>127</ele>
        <time>2015-05-12T14:34:06.000Z</time>
      </trkpt>
      <trkpt lat="50.81549" lon="1.90455">
        <ele>127</ele>
        <time>2015-05-12T14:34:07.000Z</time>
      </trkpt>
      <trkpt lat="50.8155" lon="1.90456">
        <ele>126</ele>
        <time>2015-05-12T14:34:08.000Z</time>
      </trkpt>
      <trkpt lat="50.81551" lon="1.90457">
        <ele>127</ele>
        <time>2015-05-12T14:34:09.000Z</time>
      </trkpt>
      <trkpt lat="50.81552" lon="1.90459">
        <ele>126</ele>
        <time>2015-05-12T14:34:10.000Z</time>
      </trkpt>
      <trkpt lat="50.81553" lon="1.90459">
        <ele>126</ele>
        <time>2015-05-12T14:34:11.000Z</time>
      </trkpt>
      <trkpt lat="50.81554" lon="1.9046">
        <ele>126</ele>
        <time>2015-05-12T14:34:12.000Z</time>
      </trkpt>
      <trkpt lat="50.81555" lon="1.9046">
        <ele>126</ele>
        <time>2015-05-12T14:34:13.000Z</time>
      </trkpt>
      <trkpt lat="50.81556" lon="1.90461">
        <ele>126</ele>
        <time>2015-05-12T14:34:14.000Z</time>
      </trkpt>
      <trkpt lat="50.81556" lon="1.90462">
        <ele>126</ele>
        <time>2015-05-12T14:34:15.000Z</time>
      </trkpt>
      <trkpt lat="50.81557" lon="1.90463">
        <ele>126</ele>
        <time>2015-05-12T14:34:16.000Z</time>
      </trkpt>
      <trkpt lat="50.81557" lon="1.90463">
        <ele>126</ele>
        <time>2015-05-12T14:34:17.000Z</time>
      </trkpt>
      <trkpt lat="50.81557" lon="1.90463">
        <ele>127</ele>
        <time>2015-05-12T14:34:18.000Z</time>
      </trkpt>
      <trkpt lat="50.81557" lon="1.90463">
        <ele>127</ele>
        <time>2015-05-12T14:34:19.000Z</time>
      </trkpt>
      <trkpt lat="50.81557" lon="1.90463">
        <ele>127</ele>
        <time>2015-05-12T14:34:20.000Z</time>
      </trkpt>
      <trkpt lat="50.81557" lon="1.90462">
        <ele>127</ele>
        <time>2015-05-12T14:34:21.000Z</time>
      </trkpt>
      <trkpt lat="50.81557" lon="1.90462">
        <ele>127</ele>
        <time>2015-05-12T14:34:22.000Z</time>
      </trkpt>
      <trkpt lat="50.81557" lon="1.90462">
        <ele>127</ele>
        <time>2015-05-12T14:34:23.000Z</time>
      </trkpt>
      <trkpt lat="50.81557" lon="1.90463">
        <ele>127</ele>
        <time>2015-05-12T14:34:24.000Z</time>
      </trkpt>
      <trkpt lat="50.81558" lon="1.90463">
        <ele>127</ele>
        <time>2015-05-12T14:34:25.000Z</time>
      </trkpt>
      <trkpt lat="50.81558" lon="1.90464">
        <ele>127</ele>
        <time>2015-05-12T14:34:26.000Z</time>
      </trkpt>
      <trkpt lat="50.81559" lon="1.90466">
        <ele>127</ele>
        <time>2015-05-12T14:34:27.000Z</time>
      </trkpt>
      <trkpt lat="50.8156" lon="1.90467">
        <ele>127</ele>
        <time>2015-05-12T14:34:28.000Z</time>
      </trkpt>
      <trkpt lat="50.8156" lon="1.90468">
        <ele>126</ele>
        <time>2015-05-12T14:34:29.000Z</time>
      </trkpt>
      <trkpt lat="50.81561" lon="1.90469">
        <ele>126</ele>
        <time>2015-05-12T14:34:30.000Z</time>
      </trkpt>
      <trkpt lat="50.81562" lon="1.90469">
        <ele>127</ele>
        <time>2015-05-12T14:34:31.000Z</time>
      </trkpt>
      <trkpt lat="50.81563" lon="1.9047">
        <ele>127</ele>
        <time>2015-05-12T14:34:32.000Z</time>
      </trkpt>
      <trkpt lat="50.81564" lon="1.90471">
        <ele>127</ele>
        <time>2015-05-12T14:34:33.000Z</time>
      </trkpt>
      <trkpt lat="50.81565" lon="1.90472">
        <ele>127</ele>
        <time>2015-05-12T14:34:34.000Z</time>
      </trkpt>
      <trkpt lat="50.81566" lon="1.90473">
        <ele>127</ele>
        <time>2015-05-12T14:34:35.000Z</time>
      </trkpt>
      <trkpt lat="50.81567" lon="1.90474">
        <ele>127</ele>
        <time>2015-05-12T14:34:36.000Z</time>
      </trkpt>
      <trkpt lat="50.81568" lon="1.90475">
        <ele>127</ele>
        <time>2015-05-12T14:34:37.000Z</time>
      </trkpt>
      <trkpt lat="50.81569" lon="1.90476">
        <ele>127</ele>
        <time>2015-05-12T14:34:38.000Z</time>
      </trkpt>
      <trkpt lat="50.8157" lon="1.90477">
        <ele>127</ele>
        <time>2015-05-12T14:34:39.000Z</time>
      </trkpt>
      <trkpt lat="50.81571" lon="1.90478">
        <ele>127</ele>
        <time>2015-05-12T14:34:40.000Z</time>
      </trkpt>
      <trkpt lat="50.81572" lon="1.90479">
        <ele>127</ele>
        <time>2015-05-12T14:34:41.000Z</time>
      </trkpt>
      <trkpt lat="50.81573" lon="1.9048">
        <ele>127</ele>
        <time>2015-05-12T14:34:42.000Z</time>
      </trkpt>
      <trkpt lat="50.81574" lon="1.90481">
        <ele>127</ele>
        <time>2015-05-12T14:34:43.000Z</time>
      </trkpt>
      <trkpt lat="50.81575" lon="1.90482">
        <ele>127</ele>
        <time>2015-05-12T14:34:44.000Z</time>
      </trkpt>
      <trkpt lat="50.81576" lon="1.90484">
        <ele>127</ele>
        <time>2015-05-12T14:34:45.000Z</time>
      </trkpt>
      <trkpt lat="50.81577" lon="1.90485">
        <ele>127</ele>
        <time>2015-05-12T14:34:46.000Z</time>
      </trkpt>
      <trkpt lat="50.81578" lon="1.90486">
        <ele>127</ele>
        <time>2015-05-12T14:34:47.000Z</time>
      </trkpt>
      <trkpt lat="50.81579" lon="1.90487">
        <ele>127</ele>
        <time>2015-05-12T14:34:48.000Z</time>
      </trkpt>
      <trkpt lat="50.8158" lon="1.90488">
        <ele>127</ele>
        <time>2015-05-12T14:34:49.000Z</time>
      </trkpt>
      <trkpt lat="50.81581" lon="1.9049">
        <ele>127</ele>
        <time>2015-05-12T14:34:50.000Z</time>
      </trkpt>
      <trkpt lat="50.81582" lon="1.9049">
        <ele>127</ele>
        <time>2015-05-12T14:34:51.000Z</time>
      </trkpt>
      <trkpt lat="50.81583" lon="1.90492">
        <ele>127</ele>
        <time>2015-05-12T14:34:52.000Z</time>
      </trkpt>
      <trkpt lat="50.81584" lon="1.90493">
        <ele>127</ele>
        <time>2015-05-12T14:34:53.000Z</time>
      </trkpt>
      <trkpt lat="50.81585" lon="1.90494">
        <ele>127</ele>
        <time>2015-05-12T14:34:54.000Z</time>
      </trkpt>
      <trkpt lat="50.81586" lon="1.90495">
        <ele>127</ele>
        <time>2015-05-12T14:34:55.000Z</time>
      </trkpt>
      <trkpt lat="50.81587" lon="1.90496">
        <ele>127</ele>
        <time>2015-05-12T14:34:56.000Z</time>
      </trkpt>
      <trkpt lat="50.81588" lon="1.90497">
        <ele>127</ele>
        <time>2015-05-12T14:34:57.000Z</time>
      </trkpt>
      <trkpt lat="50.81589" lon="1.90498">
        <ele>127</ele>
        <time>2015-05-12T14:34:58.000Z</time>
      </trkpt>
      <trkpt lat="50.8159" lon="1.905">
        <ele>127</ele>
        <time>2015-05-12T14:34:59.000Z</time>
      </trkpt>
      <trkpt lat="50.81591" lon="1.90501">
        <ele>127</ele>
        <time>2015-05-12T14:35:00.000Z</time>
      </trkpt>
      <trkpt lat="50.81592" lon="1.90502">
        <ele>127</ele>
        <time>2015-05-12T14:35:01.000Z</time>
      </trkpt>
      <trkpt lat="50.81593" lon="1.90503">
        <ele>127</ele>
        <time>2015-05-12T14:35:02.000Z</time>
      </trkpt>
      <trkpt lat="50.81594" lon="1.90504">
        <ele>127</ele>
        <time>2015-05-12T14:35:03.000Z</time>
      </trkpt>
      <trkpt lat="50.81595" lon="1.90505">
        <ele>127</ele>
        <time>2015-05-12T14:35:04.000Z</time>
      </trkpt>
      <trkpt lat="50.81596" lon="1.90506">
        <ele>127</ele>
        <time>2015-05-12T14:35:05.000Z</time>
      </trkpt>
      <trkpt lat="50.81597" lon="1.90507">
        <ele>127</ele>
        <time>2015-05-12T14:35:06.000Z</time>
      </trkpt>
      <trkpt lat="50.81598" lon="1.90508">
        <ele>127</ele>
        <time>2015-05-12T14:35:07.000Z</time>
      </trkpt>
      <trkpt lat="50.81599" lon="1.90509">
        <ele>127</ele>
        <time>2015-05-12T14:35:08.000Z</time>
      </trkpt>
      <trkpt lat="50.81601" lon="1.9051">
        <ele>127</ele>
        <time>2015-05-12T14:35:09.000Z</time>
      </trkpt>
      <trkpt lat="50.81602" lon="1.90511">
        <ele>127</ele>
        <time>2015-05-12T14:35:10.000Z</time>
      </trkpt>
      <trkpt lat="50.81603" lon="1.90512">
        <ele>127</ele>
        <time>2015-05-12T14:35:11.000Z</time>
      </trkpt>
      <trkpt lat="50.81604" lon="1.90514">
        <ele>127</ele>
        <time>2015-05-12T14:35:12.000Z</time>
      </trkpt>
      <trkpt lat="50.81605" lon="1.90515">
        <ele>127</ele>
        <time>2015-05-12T14:35:13.000Z</time>
      </trkpt>
      <trkpt lat="50.81606" lon="1.90516">
        <ele>127</ele>
        <time>2015-05-12T14:35:14.000Z</time>
      </trkpt>
      <trkpt lat="50.81607" lon="1.90517">
        <ele>127</ele>
        <time>2015-05-12T14:35:15.000Z</time>
      </trkpt>
      <trkpt lat="50.81608" lon="1.90518">
        <ele>127</ele>
        <time>2015-05-12T14:35:16.000Z</time>
      </trkpt>
      <trkpt lat="50.81609" lon="1.90519">
        <ele>127</ele>
        <time>2015-05-12T14:35:17.000Z</time>
      </trkpt>
      <trkpt lat="50.8161" lon="1.9052">
        <ele>127</ele>
        <time>2015-05-12T14:35:18.000Z</time>
      </trkpt>
      <trkpt lat="50.81611" lon="1.90521">
        <ele>127</ele>
        <time>2015-05-12T14:35:19.000Z</time>
      </trkpt>
      <trkpt lat="50.81612" lon="1.90522">
        <ele>127</ele>
        <time>2015-05-12T14:35:20.000Z</time>
      </trkpt>
      <trkpt lat="50.81614" lon="1.90523">
        <ele>127</ele>
        <time>2015-05-12T14:35:21.000Z</time>
      </trkpt>
      <trkpt lat="50.81615" lon="1.90525">
        <ele>127</ele>
        <time>2015-05-12T14:35:22.000Z</time>
      </trkpt>
      <trkpt lat="50.81616" lon="1.90526">
        <ele>127</ele>
        <time>2015-05-12T14:35:23.000Z</time>
      </trkpt>
      <trkpt lat="50.81617" lon="1.90527">
        <ele>127</ele>
        <time>2015-05-12T14:35:24.000Z</time>
      </trkpt>
      <trkpt lat="50.81618" lon="1.90528">
        <ele>127</ele>
        <time>2015-05-12T14:35:25.000Z</time>
      </trkpt>
      <trkpt lat="50.81619" lon="1.90529">
        <ele>127</ele>
        <time>2015-05-12T14:35:26.000Z</time>
      </trkpt>
      <trkpt lat="50.8162" lon="1.9053">
        <ele>126</ele>
        <time>2015-05-12T14:35:27.000Z</time>
      </trkpt>
      <trkpt lat="50.81621" lon="1.90531">
        <ele>126</ele>
        <time>2015-05-12T14:35:28.000Z</time>
      </trkpt>
      <trkpt lat="50.81621" lon="1.90532">
        <ele>127</ele>
        <time>2015-05-12T14:35:29.000Z</time>
      </trkpt>
      <trkpt lat="50.81622" lon="1.90534">
        <ele>127</ele>
        <time>2015-05-12T14:35:30.000Z</time>
      </trkpt>
      <trkpt lat="50.81623" lon="1.90535">
        <ele>127</ele>
        <time>2015-05-12T14:35:31.000Z</time>
      </trkpt>
      <trkpt lat="50.81624" lon="1.90536">
        <ele>127</ele>
        <time>2015-05-12T14:35:32.000Z</time>
      </trkpt>
      <trkpt lat="50.81626" lon="1.90537">
        <ele>127</ele>
        <time>2015-05-12T14:35:33.000Z</time>
      </trkpt>
      <trkpt lat="50.81627" lon="1.90539">
        <ele>127</ele>
        <time>2015-05-12T14:35:34.000Z</time>
      </trkpt>
      <trkpt lat="50.81628" lon="1.9054">
        <ele>127</ele>
        <time>2015-05-12T14:35:35.000Z</time>
      </trkpt>
      <trkpt lat="50.81629" lon="1.90541">
        <ele>127</ele>
        <time>2015-05-12T14:35:36.000Z</time>
      </trkpt>
      <trkpt lat="50.8163" lon="1.90542">
        <ele>127</ele>
        <time>2015-05-12T14:35:37.000Z</time>
      </trkpt>
      <trkpt lat="50.81631" lon="1.90543">
        <ele>127</ele>
        <time>2015-05-12T14:35:38.000Z</time>
      </trkpt>
      <trkpt lat="50.81632" lon="1.90544">
        <ele>127</ele>
        <time>2015-05-12T14:35:39.000Z</time>
      </trkpt>
      <trkpt lat="50.81633" lon="1.90545">
        <ele>127</ele>
        <time>2015-05-12T14:35:40.000Z</time>
      </trkpt>
      <trkpt lat="50.81634" lon="1.90546">
        <ele>127</ele>
        <time>2015-05-12T14:35:41.000Z</time>
      </trkpt>
      <trkpt lat="50.81635" lon="1.90547">
        <ele>128</ele>
        <time>2015-05-12T14:35:42.000Z</time>
      </trkpt>
      <trkpt lat="50.81637" lon="1.90549">
        <ele>128</ele>
        <time>2015-05-12T14:35:43.000Z</time>
      </trkpt>
      <trkpt lat="50.81638" lon="1.9055">
        <ele>127</ele>
        <time>2015-05-12T14:35:44.000Z</time>
      </trkpt>
      <trkpt lat="50.81639" lon="1.90551">
        <ele>127</ele>
        <time>2015-05-12T14:35:45.000Z</time>
      </trkpt>
      <trkpt lat="50.8164" lon="1.90552">
        <ele>127</ele>
        <time>2015-05-12T14:35:46.000Z</time>
      </trkpt>
      <trkpt lat="50.81641" lon="1.90553">
        <ele>127</ele>
        <time>2015-05-12T14:35:47.000Z</time>
      </trkpt>
      <trkpt lat="50.81642" lon="1.90554">
        <ele>127</ele>
        <time>2015-05-12T14:35:48.000Z</time>
      </trkpt>
      <trkpt lat="50.81643" lon="1.90555">
        <ele>127</ele>
        <time>2015-05-12T14:35:49.000Z</time>
      </trkpt>
      <trkpt lat="50.81644" lon="1.90556">
        <ele>127</ele>
        <time>2015-05-12T14:35:50.000Z</time>
      </trkpt>
      <trkpt lat="50.81645" lon="1.90558">
        <ele>127</ele>
        <time>2015-05-12T14:35:51.000Z</time>
      </trkpt>
      <trkpt lat="50.81646" lon="1.90559">
        <ele>127</ele>
        <time>2015-05-12T14:35:52.000Z</time>
      </trkpt>
      <trkpt lat="50.81647" lon="1.9056">
        <ele>127</ele>
        <time>2015-05-12T14:35:53.000Z</time>
      </trkpt>
      <trkpt lat="50.81648" lon="1.90561">
        <ele>127</ele>
        <time>2015-05-12T14:35:54.000Z</time>
      </trkpt>
      <trkpt lat="50.8165" lon="1.90562">
        <ele>127</ele>
        <time>2015-05-12T14:35:55.000Z</time>
      </trkpt>
      <trkpt lat="50.81651" lon="1.90563">
        <ele>126</ele>
        <time>2015-05-12T14:35:56.000Z</time>
      </trkpt>
      <trkpt lat="50.81652" lon="1.90564">
        <ele>127</ele>
        <time>2015-05-12T14:35:57.000Z</time>
      </trkpt>
      <trkpt lat="50.81653" lon="1.90565">
        <ele>127</ele>
        <time>2015-05-12T14:35:58.000Z</time>
      </trkpt>
      <trkpt lat="50.81655" lon="1.90566">
        <ele>127</ele>
        <time>2015-05-12T14:35:59.000Z</time>
      </trkpt>
      <trkpt lat="50.81656" lon="1.90567">
        <ele>127</ele>
        <time>2015-05-12T14:36:00.000Z</time>
      </trkpt>
      <trkpt lat="50.81657" lon="1.90568">
        <ele>127</ele>
        <time>2015-05-12T14:36:01.000Z</time>
      </trkpt>
      <trkpt lat="50.81658" lon="1.90569">
        <ele>127</ele>
        <time>2015-05-12T14:36:02.000Z</time>
      </trkpt>
      <trkpt lat="50.81659" lon="1.9057">
        <ele>127</ele>
        <time>2015-05-12T14:36:03.000Z</time>
      </trkpt>
      <trkpt lat="50.8166" lon="1.90571">
        <ele>127</ele>
        <time>2015-05-12T14:36:04.000Z</time>
      </trkpt>
      <trkpt lat="50.81662" lon="1.90572">
        <ele>127</ele>
        <time>2015-05-12T14:36:05.000Z</time>
      </trkpt>
      <trkpt lat="50.81663" lon="1.90573">
        <ele>127</ele>
        <time>2015-05-12T14:36:06.000Z</time>
      </trkpt>
      <trkpt lat="50.81664" lon="1.90574">
        <ele>126</ele>
        <time>2015-05-12T14:36:07.000Z</time>
      </trkpt>
      <trkpt lat="50.81665" lon="1.90575">
        <ele>126</ele>
        <time>2015-05-12T14:36:08.000Z</time>
      </trkpt>
      <trkpt lat="50.81666" lon="1.90576">
        <ele>126</ele>
        <time>2015-05-12T14:36:09.000Z</time>
      </trkpt>
      <trkpt lat="50.81667" lon="1.90577">
        <ele>126</ele>
        <time>2015-05-12T14:36:10.000Z</time>
      </trkpt>
      <trkpt lat="50.81668" lon="1.90578">
        <ele>126</ele>
        <time>2015-05-12T14:36:11.000Z</time>
      </trkpt>
      <trkpt lat="50.81669" lon="1.90578">
        <ele>126</ele>
        <time>2015-05-12T14:36:12.000Z</time>
      </trkpt>
      <trkpt lat="50.81671" lon="1.90579">
        <ele>126</ele>
        <time>2015-05-12T14:36:13.000Z</time>
      </trkpt>
      <trkpt lat="50.81672" lon="1.9058">
        <ele>126</ele>
        <time>2015-05-12T14:36:14.000Z</time>
      </trkpt>
      <trkpt lat="50.81673" lon="1.9058">
        <ele>126</ele>
        <time>2015-05-12T14:36:15.000Z</time>
      </trkpt>
      <trkpt lat="50.81674" lon="1.90581">
        <ele>126</ele>
        <time>2015-05-12T14:36:16.000Z</time>
      </trkpt>
      <trkpt lat="50.81675" lon="1.90581">
        <ele>126</ele>
        <time>2015-05-12T14:36:17.000Z</time>
      </trkpt>
      <trkpt lat="50.81676" lon="1.90581">
        <ele>126</ele>
        <time>2015-05-12T14:36:18.000Z</time>
      </trkpt>
      <trkpt lat="50.81677" lon="1.90582">
        <ele>126</ele>
        <time>2015-05-12T14:36:19.000Z</time>
      </trkpt>
      <trkpt lat="50.81678" lon="1.90582">
        <ele>126</ele>
        <time>2015-05-12T14:36:20.000Z</time>
      </trkpt>
      <trkpt lat="50.81678" lon="1.90582">
        <ele>126</ele>
        <time>2015-05-12T14:36:21.000Z</time>
      </trkpt>
      <trkpt lat="50.81679" lon="1.90583">
        <ele>126</ele>
        <time>2015-05-12T14:36:22.000Z</time>
      </trkpt>
      <trkpt lat="50.81681" lon="1.90583">
        <ele>126</ele>
        <time>2015-05-12T14:36:23.000Z</time>
      </trkpt>
      <trkpt lat="50.81681" lon="1.90584">
        <ele>126</ele>
        <time>2015-05-12T14:36:24.000Z</time>
      </trkpt>
      <trkpt lat="50.81682" lon="1.90585">
        <ele>126</ele>
        <time>2015-05-12T14:36:25.000Z</time>
      </trkpt>
      <trkpt lat="50.81682" lon="1.90585">
        <ele>126</ele>
        <time>2015-05-12T14:36:26.000Z</time>
      </trkpt>
      <trkpt lat="50.81681" lon="1.90585">
        <ele>126</ele>
        <time>2015-05-12T14:36:27.000Z</time>
      </trkpt>
      <trkpt lat="50.81681" lon="1.90585">
        <ele>126</ele>
        <time>2015-05-12T14:36:28.000Z</time>
      </trkpt>
      <trkpt lat="50.81681" lon="1.90585">
        <ele>126</ele>
        <time>2015-05-12T14:36:29.000Z</time>
      </trkpt>
      <trkpt lat="50.81681" lon="1.90585">
        <ele>126</ele>
        <time>2015-05-12T14:36:30.000Z</time>
      </trkpt>
      <trkpt lat="50.81681" lon="1.90585">
        <ele>126</ele>
        <time>2015-05-12T14:36:31.000Z</time>
      </trkpt>
      <trkpt lat="50.81682" lon="1.90585">
        <ele>125</ele>
        <time>2015-05-12T14:36:32.000Z</time>
      </trkpt>
      <trkpt lat="50.81682" lon="1.90586">
        <ele>126</ele>
        <time>2015-05-12T14:36:33.000Z</time>
      </trkpt>
      <trkpt lat="50.81683" lon="1.90586">
        <ele>126</ele>
        <time>2015-05-12T14:36:34.000Z</time>
      </trkpt>
      <trkpt lat="50.81684" lon="1.90587">
        <ele>126</ele>
        <time>2015-05-12T14:36:35.000Z</time>
      </trkpt>
      <trkpt lat="50.81685" lon="1.90588">
        <ele>127</ele>
        <time>2015-05-12T14:36:36.000Z</time>
      </trkpt>
      <trkpt lat="50.81686" lon="1.90588">
        <ele>126</ele>
        <time>2015-05-12T14:36:37.000Z</time>
      </trkpt>
      <trkpt lat="50.81687" lon="1.90589">
        <ele>126</ele>
        <time>2015-05-12T14:36:38.000Z</time>
      </trkpt>
      <trkpt lat="50.81688" lon="1.90589">
        <ele>127</ele>
        <time>2015-05-12T14:36:39.000Z</time>
      </trkpt>
      <trkpt lat="50.81689" lon="1.90589">
        <ele>127</ele>
        <time>2015-05-12T14:36:40.000Z</time>
      </trkpt>
      <trkpt lat="50.81691" lon="1.90589">
        <ele>127</ele>
        <time>2015-05-12T14:36:41.000Z</time>
      </trkpt>
      <trkpt lat="50.81692" lon="1.9059">
        <ele>127</ele>
        <time>2015-05-12T14:36:42.000Z</time>
      </trkpt>
      <trkpt lat="50.81693" lon="1.9059">
        <ele>127</ele>
        <time>2015-05-12T14:36:43.000Z</time>
      </trkpt>
      <trkpt lat="50.81694" lon="1.90591">
        <ele>127</ele>
        <time>2015-05-12T14:36:44.000Z</time>
      </trkpt>
      <trkpt lat="50.81696" lon="1.90591">
        <ele>127</ele>
        <time>2015-05-12T14:36:45.000Z</time>
      </trkpt>
      <trkpt lat="50.81697" lon="1.90592">
        <ele>127</ele>
        <time>2015-05-12T14:36:46.000Z</time>
      </trkpt>
      <trkpt lat="50.81698" lon="1.90593">
        <ele>127</ele>
        <time>2015-05-12T14:36:47.000Z</time>
      </trkpt>
      <trkpt lat="50.81699" lon="1.90593">
        <ele>127</ele>
        <time>2015-05-12T14:36:48.000Z</time>
      </trkpt>
      <trkpt lat="50.81701" lon="1.90594">
        <ele>127</ele>
        <time>2015-05-12T14:36:49.000Z</time>
      </trkpt>
      <trkpt lat="50.81702" lon="1.90594">
        <ele>128</ele>
        <time>2015-05-12T14:36:50.000Z</time>
      </trkpt>
      <trkpt lat="50.81703" lon="1.90595">
        <ele>128</ele>
        <time>2015-05-12T14:36:51.000Z</time>
      </trkpt>
      <trkpt lat="50.81704" lon="1.90595">
        <ele>128</ele>
        <time>2015-05-12T14:36:52.000Z</time>
      </trkpt>
      <trkpt lat="50.81705" lon="1.90596">
        <ele>128</ele>
        <time>2015-05-12T14:36:53.000Z</time>
      </trkpt>
      <trkpt lat="50.81706" lon="1.90597">
        <ele>129</ele>
        <time>2015-05-12T14:36:54.000Z</time>
      </trkpt>
      <trkpt lat="50.81707" lon="1.90598">
        <ele>129</ele>
        <time>2015-05-12T14:36:55.000Z</time>
      </trkpt>
      <trkpt lat="50.81708" lon="1.90598">
        <ele>129</ele>
        <time>2015-05-12T14:36:56.000Z</time>
      </trkpt>
      <trkpt lat="50.81709" lon="1.90599">
        <ele>130</ele>
        <time>2015-05-12T14:36:57.000Z</time>
      </trkpt>
      <trkpt lat="50.8171" lon="1.906">
        <ele>131</ele>
        <time>2015-05-12T14:36:58.000Z</time>
      </trkpt>
      <trkpt lat="50.81711" lon="1.90601">
        <ele>131</ele>
        <time>2015-05-12T14:36:59.000Z</time>
      </trkpt>
      <trkpt lat="50.81712" lon="1.90602">
        <ele>131</ele>
        <time>2015-05-12T14:37:00.000Z</time>
      </trkpt>
      <trkpt lat="50.81712" lon="1.90603">
        <ele>131</ele>
        <time>2015-05-12T14:37:01.000Z</time>
      </trkpt>
      <trkpt lat="50.81713" lon="1.90604">
        <ele>130</ele>
        <time>2015-05-12T14:37:02.000Z</time>
      </trkpt>
      <trkpt lat="50.81715" lon="1.90606">
        <ele>131</ele>
        <time>2015-05-12T14:37:03.000Z</time>
      </trkpt>
      <trkpt lat="50.81716" lon="1.90607">
        <ele>131</ele>
        <time>2015-05-12T14:37:04.000Z</time>
      </trkpt>
      <trkpt lat="50.81717" lon="1.90609">
        <ele>131</ele>
        <time>2015-05-12T14:37:05.000Z</time>
      </trkpt>
      <trkpt lat="50.81718" lon="1.9061">
        <ele>131</ele>
        <time>2015-05-12T14:37:06.000Z</time>
      </trkpt>
      <trkpt lat="50.81718" lon="1.90611">
        <ele>131</ele>
        <time>2015-05-12T14:37:07.000Z</time>
      </trkpt>
      <trkpt lat="50.81719" lon="1.90612">
        <ele>131</ele>
        <time>2015-05-12T14:37:08.000Z</time>
      </trkpt>
      <trkpt lat="50.8172" lon="1.90613">
        <ele>131</ele>
        <time>2015-05-12T14:37:09.000Z</time>
      </trkpt>
      <trkpt lat="50.81722" lon="1.90614">
        <ele>130</ele>
        <time>2015-05-12T14:37:10.000Z</time>
      </trkpt>
      <trkpt lat="50.81723" lon="1.90615">
        <ele>130</ele>
        <time>2015-05-12T14:37:11.000Z</time>
      </trkpt>
      <trkpt lat="50.81724" lon="1.90617">
        <ele>129</ele>
        <time>2015-05-12T14:37:12.000Z</time>
      </trkpt>
      <trkpt lat="50.81725" lon="1.90618">
        <ele>129</ele>
        <time>2015-05-12T14:37:13.000Z</time>
      </trkpt>
      <trkpt lat="50.81726" lon="1.90619">
        <ele>129</ele>
        <time>2015-05-12T14:37:14.000Z</time>
      </trkpt>
      <trkpt lat="50.81728" lon="1.9062">
        <ele>129</ele>
        <time>2015-05-12T14:37:15.000Z</time>
      </trkpt>
      <trkpt lat="50.81729" lon="1.90621">
        <ele>128</ele>
        <time>2015-05-12T14:37:16.000Z</time>
      </trkpt>
      <trkpt lat="50.8173" lon="1.90622">
        <ele>129</ele>
        <time>2015-05-12T14:37:17.000Z</time>
      </trkpt>
      <trkpt lat="50.81731" lon="1.90624">
        <ele>129</ele>
        <time>2015-05-12T14:37:18.000Z</time>
      </trkpt>
      <trkpt lat="50.81732" lon="1.90625">
        <ele>128</ele>
        <time>2015-05-12T14:37:19.000Z</time>
      </trkpt>
      <trkpt lat="50.81733" lon="1.90627">
        <ele>128</ele>
        <time>2015-05-12T14:37:20.000Z</time>
      </trkpt>
      <trkpt lat="50.81734" lon="1.90628">
        <ele>128</ele>
        <time>2015-05-12T14:37:21.000Z</time>
      </trkpt>
      <trkpt lat="50.81735" lon="1.9063">
        <ele>128</ele>
        <time>2015-05-12T14:37:22.000Z</time>
      </trkpt>
      <trkpt lat="50.81736" lon="1.90631">
        <ele>128</ele>
        <time>2015-05-12T14:37:23.000Z</time>
      </trkpt>
      <trkpt lat="50.81737" lon="1.90633">
        <ele>128</ele>
        <time>2015-05-12T14:37:24.000Z</time>
      </trkpt>
      <trkpt lat="50.81738" lon="1.90634">
        <ele>128</ele>
        <time>2015-05-12T14:37:25.000Z</time>
      </trkpt>
      <trkpt lat="50.81739" lon="1.90636">
        <ele>128</ele>
        <time>2015-05-12T14:37:26.000Z</time>
      </trkpt>
      <trkpt lat="50.8174" lon="1.90637">
        <ele>128</ele>
        <time>2015-05-12T14:37:27.000Z</time>
      </trkpt>
      <trkpt lat="50.81741" lon="1.90639">
        <ele>128</ele>
        <time>2015-05-12T14:37:28.000Z</time>
      </trkpt>
      <trkpt lat="50.81742" lon="1.9064">
        <ele>128</ele>
        <time>2015-05-12T14:37:29.000Z</time>
      </trkpt>
      <trkpt lat="50.81743" lon="1.90641">
        <ele>128</ele>
        <time>2015-05-12T14:37:30.000Z</time>
      </trkpt>
      <trkpt lat="50.81745" lon="1.90643">
        <ele>128</ele>
        <time>2015-05-12T14:37:31.000Z</time>
      </trkpt>
      <trkpt lat="50.81746" lon="1.90644">
        <ele>128</ele>
        <time>2015-05-12T14:37:32.000Z</time>
      </trkpt>
      <trkpt lat="50.81747" lon="1.90646">
        <ele>127</ele>
        <time>2015-05-12T14:37:33.000Z</time>
      </trkpt>
      <trkpt lat="50.81748" lon="1.90647">
        <ele>127</ele>
        <time>2015-05-12T14:37:34.000Z</time>
      </trkpt>
      <trkpt lat="50.81749" lon="1.90648">
        <ele>127</ele>
        <time>2015-05-12T14:37:35.000Z</time>
      </trkpt>
      <trkpt lat="50.8175" lon="1.9065">
        <ele>127</ele>
        <time>2015-05-12T14:37:36.000Z</time>
      </trkpt>
      <trkpt lat="50.81751" lon="1.90652">
        <ele>127</ele>
        <time>2015-05-12T14:37:37.000Z</time>
      </trkpt>
      <trkpt lat="50.81752" lon="1.90653">
        <ele>127</ele>
        <time>2015-05-12T14:37:38.000Z</time>
      </trkpt>
      <trkpt lat="50.81753" lon="1.90655">
        <ele>127</ele>
        <time>2015-05-12T14:37:39.000Z</time>
      </trkpt>
      <trkpt lat="50.81754" lon="1.90656">
        <ele>127</ele>
        <time>2015-05-12T14:37:40.000Z</time>
      </trkpt>
      <trkpt lat="50.81755" lon="1.90658">
        <ele>127</ele>
        <time>2015-05-12T14:37:41.000Z</time>
      </trkpt>
      <trkpt lat="50.81756" lon="1.9066">
        <ele>127</ele>
        <time>2015-05-12T14:37:42.000Z</time>
      </trkpt>
      <trkpt lat="50.81758" lon="1.90661">
        <ele>127</ele>
        <time>2015-05-12T14:37:43.000Z</time>
      </trkpt>
      <trkpt lat="50.81759" lon="1.90663">
        <ele>128</ele>
        <time>2015-05-12T14:37:44.000Z</time>
      </trkpt>
      <trkpt lat="50.8176" lon="1.90665">
        <ele>127</ele>
        <time>2015-05-12T14:37:45.000Z</time>
      </trkpt>
      <trkpt lat="50.81761" lon="1.90666">
        <ele>128</ele>
        <time>2015-05-12T14:37:46.000Z</time>
      </trkpt>
      <trkpt lat="50.81762" lon="1.90667">
        <ele>128</ele>
        <time>2015-05-12T14:37:47.000Z</time>
      </trkpt>
      <trkpt lat="50.81763" lon="1.90669">
        <ele>128</ele>
        <time>2015-05-12T14:37:48.000Z</time>
      </trkpt>
      <trkpt lat="50.81764" lon="1.9067">
        <ele>127</ele>
        <time>2015-05-12T14:37:49.000Z</time>
      </trkpt>
      <trkpt lat="50.81765" lon="1.90671">
        <ele>127</ele>
        <time>2015-05-12T14:37:50.000Z</time>
      </trkpt>
      <trkpt lat="50.81766" lon="1.90673">
        <ele>127</ele>
        <time>2015-05-12T14:37:51.000Z</time>
      </trkpt>
      <trkpt lat="50.81767" lon="1.90675">
        <ele>127</ele>
        <time>2015-05-12T14:37:52.000Z</time>
      </trkpt>
      <trkpt lat="50.81768" lon="1.90676">
        <ele>127</ele>
        <time>2015-05-12T14:37:53.000Z</time>
      </trkpt>
      <trkpt lat="50.8177" lon="1.90678">
        <ele>127</ele>
        <time>2015-05-12T14:37:54.000Z</time>
      </trkpt>
      <trkpt lat="50.81771" lon="1.90679">
        <ele>127</ele>
        <time>2015-05-12T14:37:55.000Z</time>
      </trkpt>
      <trkpt lat="50.81772" lon="1.90681">
        <ele>127</ele>
        <time>2015-05-12T14:37:56.000Z</time>
      </trkpt>
      <trkpt lat="50.81773" lon="1.90683">
        <ele>127</ele>
        <time>2015-05-12T14:37:57.000Z</time>
      </trkpt>
      <trkpt lat="50.81774" lon="1.90684">
        <ele>126</ele>
        <time>2015-05-12T14:37:58.000Z</time>
      </trkpt>
      <trkpt lat="50.81775" lon="1.90686">
        <ele>126</ele>
        <time>2015-05-12T14:37:59.000Z</time>
      </trkpt>
      <trkpt lat="50.81775" lon="1.90688">
        <ele>126</ele>
        <time>2015-05-12T14:38:00.000Z</time>
      </trkpt>
      <trkpt lat="50.81776" lon="1.90689">
        <ele>125</ele>
        <time>2015-05-12T14:38:01.000Z</time>
      </trkpt>
      <trkpt lat="50.81777" lon="1.90691">
        <ele>125</ele>
        <time>2015-05-12T14:38:02.000Z</time>
      </trkpt>
      <trkpt lat="50.81778" lon="1.90692">
        <ele>125</ele>
        <time>2015-05-12T14:38:03.000Z</time>
      </trkpt>
      <trkpt lat="50.81779" lon="1.90693">
        <ele>125</ele>
        <time>2015-05-12T14:38:04.000Z</time>
      </trkpt>
      <trkpt lat="50.8178" lon="1.90694">
        <ele>125</ele>
        <time>2015-05-12T14:38:05.000Z</time>
      </trkpt>
      <trkpt lat="50.81781" lon="1.90695">
        <ele>125</ele>
        <time>2015-05-12T14:38:06.000Z</time>
      </trkpt>
      <trkpt lat="50.81781" lon="1.90697">
        <ele>125</ele>
        <time>2015-05-12T14:38:07.000Z</time>
      </trkpt>
      <trkpt lat="50.81782" lon="1.90698">
        <ele>126</ele>
        <time>2015-05-12T14:38:08.000Z</time>
      </trkpt>
      <trkpt lat="50.81783" lon="1.90699">
        <ele>126</ele>
        <time>2015-05-12T14:38:09.000Z</time>
      </trkpt>
      <trkpt lat="50.81784" lon="1.90699">
        <ele>126</ele>
        <time>2015-05-12T14:38:10.000Z</time>
      </trkpt>
      <trkpt lat="50.81784" lon="1.907">
        <ele>125</ele>
        <time>2015-05-12T14:38:11.000Z</time>
      </trkpt>
      <trkpt lat="50.81785" lon="1.90701">
        <ele>125</ele>
        <time>2015-05-12T14:38:12.000Z</time>
      </trkpt>
      <trkpt lat="50.81786" lon="1.90702">
        <ele>125</ele>
        <time>2015-05-12T14:38:13.000Z</time>
      </trkpt>
      <trkpt lat="50.81787" lon="1.90703">
        <ele>125</ele>
        <time>2015-05-12T14:38:14.000Z</time>
      </trkpt>
      <trkpt lat="50.81788" lon="1.90705">
        <ele>125</ele>
        <time>2015-05-12T14:38:15.000Z</time>
      </trkpt>
      <trkpt lat="50.81789" lon="1.90706">
        <ele>125</ele>
        <time>2015-05-12T14:38:16.000Z</time>
      </trkpt>
      <trkpt lat="50.8179" lon="1.90707">
        <ele>125</ele>
        <time>2015-05-12T14:38:17.000Z</time>
      </trkpt>
      <trkpt lat="50.8179" lon="1.90708">
        <ele>125</ele>
        <time>2015-05-12T14:38:18.000Z</time>
      </trkpt>
      <trkpt lat="50.81791" lon="1.90709">
        <ele>125</ele>
        <time>2015-05-12T14:38:19.000Z</time>
      </trkpt>
      <trkpt lat="50.81792" lon="1.9071">
        <ele>125</ele>
        <time>2015-05-12T14:38:20.000Z</time>
      </trkpt>
      <trkpt lat="50.81793" lon="1.90711">
        <ele>125</ele>
        <time>2015-05-12T14:38:21.000Z</time>
      </trkpt>
      <trkpt lat="50.81794" lon="1.90712">
        <ele>125</ele>
        <time>2015-05-12T14:38:22.000Z</time>
      </trkpt>
      <trkpt lat="50.81795" lon="1.90713">
        <ele>125</ele>
        <time>2015-05-12T14:38:23.000Z</time>
      </trkpt>
      <trkpt lat="50.81796" lon="1.90714">
        <ele>126</ele>
        <time>2015-05-12T14:38:24.000Z</time>
      </trkpt>
      <trkpt lat="50.81797" lon="1.90715">
        <ele>125</ele>
        <time>2015-05-12T14:38:25.000Z</time>
      </trkpt>
      <trkpt lat="50.81798" lon="1.90717">
        <ele>126</ele>
        <time>2015-05-12T14:38:26.000Z</time>
      </trkpt>
      <trkpt lat="50.81798" lon="1.90718">
        <ele>125</ele>
        <time>2015-05-12T14:38:27.000Z</time>
      </trkpt>
      <trkpt lat="50.81799" lon="1.90719">
        <ele>125</ele>
        <time>2015-05-12T14:38:28.000Z</time>
      </trkpt>
      <trkpt lat="50.818" lon="1.9072">
        <ele>125</ele>
        <time>2015-05-12T14:38:29.000Z</time>
      </trkpt>
      <trkpt lat="50.81801" lon="1.90722">
        <ele>125</ele>
        <time>2015-05-12T14:38:30.000Z</time>
      </trkpt>
      <trkpt lat="50.81802" lon="1.90723">
        <ele>124</ele>
        <time>2015-05-12T14:38:31.000Z</time>
      </trkpt>
      <trkpt lat="50.81803" lon="1.90725">
        <ele>124</ele>
        <time>2015-05-12T14:38:32.000Z</time>
      </trkpt>
      <trkpt lat="50.81804" lon="1.90726">
        <ele>124</ele>
        <time>2015-05-12T14:38:33.000Z</time>
      </trkpt>
      <trkpt lat="50.81805" lon="1.90728">
        <ele>123</ele>
        <time>2015-05-12T14:38:34.000Z</time>
      </trkpt>
      <trkpt lat="50.81806" lon="1.9073">
        <ele>123</ele>
        <time>2015-05-12T14:38:35.000Z</time>
      </trkpt>
      <trkpt lat="50.81807" lon="1.90731">
        <ele>123</ele>
        <time>2015-05-12T14:38:36.000Z</time>
      </trkpt>
      <trkpt lat="50.81808" lon="1.90732">
        <ele>123</ele>
        <time>2015-05-12T14:38:37.000Z</time>
      </trkpt>
      <trkpt lat="50.81808" lon="1.90733">
        <ele>123</ele>
        <time>2015-05-12T14:38:38.000Z</time>
      </trkpt>
      <trkpt lat="50.81809" lon="1.90735">
        <ele>122</ele>
        <time>2015-05-12T14:38:39.000Z</time>
      </trkpt>
      <trkpt lat="50.8181" lon="1.90736">
        <ele>122</ele>
        <time>2015-05-12T14:38:40.000Z</time>
      </trkpt>
      <trkpt lat="50.81811" lon="1.90738">
        <ele>122</ele>
        <time>2015-05-12T14:38:41.000Z</time>
      </trkpt>
      <trkpt lat="50.81812" lon="1.90739">
        <ele>122</ele>
        <time>2015-05-12T14:38:42.000Z</time>
      </trkpt>
      <trkpt lat="50.81813" lon="1.90741">
        <ele>122</ele>
        <time>2015-05-12T14:38:43.000Z</time>
      </trkpt>
      <trkpt lat="50.81814" lon="1.90742">
        <ele>122</ele>
        <time>2015-05-12T14:38:44.000Z</time>
      </trkpt>
      <trkpt lat="50.81814" lon="1.90743">
        <ele>122</ele>
        <time>2015-05-12T14:38:45.000Z</time>
      </trkpt>
      <trkpt lat="50.81815" lon="1.90745">
        <ele>122</ele>
        <time>2015-05-12T14:38:46.000Z</time>
      </trkpt>
      <trkpt lat="50.81816" lon="1.90746">
        <ele>122</ele>
        <time>2015-05-12T14:38:47.000Z</time>
      </trkpt>
      <trkpt lat="50.81817" lon="1.90747">
        <ele>122</ele>
        <time>2015-05-12T14:38:48.000Z</time>
      </trkpt>
      <trkpt lat="50.81818" lon="1.90748">
        <ele>122</ele>
        <time>2015-05-12T14:38:49.000Z</time>
      </trkpt>
      <trkpt lat="50.81818" lon="1.9075">
        <ele>122</ele>
        <time>2015-05-12T14:38:50.000Z</time>
      </trkpt>
      <trkpt lat="50.81819" lon="1.90752">
        <ele>122</ele>
        <time>2015-05-12T14:38:51.000Z</time>
      </trkpt>
      <trkpt lat="50.8182" lon="1.90753">
        <ele>122</ele>
        <time>2015-05-12T14:38:52.000Z</time>
      </trkpt>
      <trkpt lat="50.81821" lon="1.90755">
        <ele>122</ele>
        <time>2015-05-12T14:38:53.000Z</time>
      </trkpt>
      <trkpt lat="50.81822" lon="1.90756">
        <ele>122</ele>
        <time>2015-05-12T14:38:54.000Z</time>
      </trkpt>
      <trkpt lat="50.81823" lon="1.90758">
        <ele>122</ele>
        <time>2015-05-12T14:38:55.000Z</time>
      </trkpt>
      <trkpt lat="50.81823" lon="1.90759">
        <ele>122</ele>
        <time>2015-05-12T14:38:56.000Z</time>
      </trkpt>
      <trkpt lat="50.81824" lon="1.90761">
        <ele>121</ele>
        <time>2015-05-12T14:38:57.000Z</time>
      </trkpt>
      <trkpt lat="50.81825" lon="1.90762">
        <ele>121</ele>
        <time>2015-05-12T14:38:58.000Z</time>
      </trkpt>
      <trkpt lat="50.81825" lon="1.90764">
        <ele>121</ele>
        <time>2015-05-12T14:38:59.000Z</time>
      </trkpt>
      <trkpt lat="50.81826" lon="1.90765">
        <ele>121</ele>
        <time>2015-05-12T14:39:00.000Z</time>
      </trkpt>
      <trkpt lat="50.81827" lon="1.90767">
        <ele>121</ele>
        <time>2015-05-12T14:39:01.000Z</time>
      </trkpt>
      <trkpt lat="50.81828" lon="1.90768">
        <ele>121</ele>
        <time>2015-05-12T14:39:02.000Z</time>
      </trkpt>
      <trkpt lat="50.81829" lon="1.9077">
        <ele>121</ele>
        <time>2015-05-12T14:39:03.000Z</time>
      </trkpt>
      <trkpt lat="50.8183" lon="1.90771">
        <ele>121</ele>
        <time>2015-05-12T14:39:04.000Z</time>
      </trkpt>
      <trkpt lat="50.81831" lon="1.90773">
        <ele>121</ele>
        <time>2015-05-12T14:39:05.000Z</time>
      </trkpt>
      <trkpt lat="50.81832" lon="1.90774">
        <ele>121</ele>
        <time>2015-05-12T14:39:06.000Z</time>
      </trkpt>
      <trkpt lat="50.81832" lon="1.90775">
        <ele>121</ele>
        <time>2015-05-12T14:39:07.000Z</time>
      </trkpt>
      <trkpt lat="50.81833" lon="1.90777">
        <ele>121</ele>
        <time>2015-05-12T14:39:08.000Z</time>
      </trkpt>
      <trkpt lat="50.81834" lon="1.90778">
        <ele>121</ele>
        <time>2015-05-12T14:39:09.000Z</time>
      </trkpt>
      <trkpt lat="50.81835" lon="1.9078">
        <ele>121</ele>
        <time>2015-05-12T14:39:10.000Z</time>
      </trkpt>
      <trkpt lat="50.81836" lon="1.90781">
        <ele>121</ele>
        <time>2015-05-12T14:39:11.000Z</time>
      </trkpt>
      <trkpt lat="50.81837" lon="1.90783">
        <ele>121</ele>
        <time>2015-05-12T14:39:12.000Z</time>
      </trkpt>
      <trkpt lat="50.81838" lon="1.90784">
        <ele>121</ele>
        <time>2015-05-12T14:39:13.000Z</time>
      </trkpt>
      <trkpt lat="50.81839" lon="1.90785">
        <ele>121</ele>
        <time>2015-05-12T14:39:14.000Z</time>
      </trkpt>
      <trkpt lat="50.8184" lon="1.90787">
        <ele>120</ele>
        <time>2015-05-12T14:39:15.000Z</time>
      </trkpt>
      <trkpt lat="50.81841" lon="1.90788">
        <ele>120</ele>
        <time>2015-05-12T14:39:16.000Z</time>
      </trkpt>
      <trkpt lat="50.81841" lon="1.90789">
        <ele>120</ele>
        <time>2015-05-12T14:39:17.000Z</time>
      </trkpt>
      <trkpt lat="50.81842" lon="1.90791">
        <ele>120</ele>
        <time>2015-05-12T14:39:18.000Z</time>
      </trkpt>
      <trkpt lat="50.81843" lon="1.90792">
        <ele>120</ele>
        <time>2015-05-12T14:39:19.000Z</time>
      </trkpt>
      <trkpt lat="50.81844" lon="1.90794">
        <ele>119</ele>
        <time>2015-05-12T14:39:20.000Z</time>
      </trkpt>
      <trkpt lat="50.81845" lon="1.90795">
        <ele>119</ele>
        <time>2015-05-12T14:39:21.000Z</time>
      </trkpt>
      <trkpt lat="50.81846" lon="1.90796">
        <ele>119</ele>
        <time>2015-05-12T14:39:22.000Z</time>
      </trkpt>
      <trkpt lat="50.81847" lon="1.90797">
        <ele>119</ele>
        <time>2015-05-12T14:39:23.000Z</time>
      </trkpt>
      <trkpt lat="50.81848" lon="1.90799">
        <ele>119</ele>
        <time>2015-05-12T14:39:24.000Z</time>
      </trkpt>
      <trkpt lat="50.81848" lon="1.908">
        <ele>119</ele>
        <time>2015-05-12T14:39:25.000Z</time>
      </trkpt>
      <trkpt lat="50.81849" lon="1.90801">
        <ele>119</ele>
        <time>2015-05-12T14:39:26.000Z</time>
      </trkpt>
      <trkpt lat="50.8185" lon="1.90802">
        <ele>118</ele>
        <time>2015-05-12T14:39:27.000Z</time>
      </trkpt>
      <trkpt lat="50.81851" lon="1.90804">
        <ele>119</ele>
        <time>2015-05-12T14:39:28.000Z</time>
      </trkpt>
      <trkpt lat="50.81852" lon="1.90805">
        <ele>119</ele>
        <time>2015-05-12T14:39:29.000Z</time>
      </trkpt>
      <trkpt lat="50.81853" lon="1.90806">
        <ele>119</ele>
        <time>2015-05-12T14:39:30.000Z</time>
      </trkpt>
      <trkpt lat="50.81854" lon="1.90807">
        <ele>118</ele>
        <time>2015-05-12T14:39:31.000Z</time>
      </trkpt>
      <trkpt lat="50.81855" lon="1.90808">
        <ele>119</ele>
        <time>2015-05-12T14:39:32.000Z</time>
      </trkpt>
      <trkpt lat="50.81855" lon="1.9081">
        <ele>118</ele>
        <time>2015-05-12T14:39:33.000Z</time>
      </trkpt>
      <trkpt lat="50.81856" lon="1.90811">
        <ele>118</ele>
        <time>2015-05-12T14:39:34.000Z</time>
      </trkpt>
      <trkpt lat="50.81857" lon="1.90812">
        <ele>118</ele>
        <time>2015-05-12T14:39:35.000Z</time>
      </trkpt>
      <trkpt lat="50.81858" lon="1.90814">
        <ele>118</ele>
        <time>2015-05-12T14:39:36.000Z</time>
      </trkpt>
      <trkpt lat="50.81859" lon="1.90815">
        <ele>118</ele>
        <time>2015-05-12T14:39:37.000Z</time>
      </trkpt>
      <trkpt lat="50.8186" lon="1.90816">
        <ele>118</ele>
        <time>2015-05-12T14:39:38.000Z</time>
      </trkpt>
      <trkpt lat="50.8186" lon="1.90817">
        <ele>118</ele>
        <time>2015-05-12T14:39:39.000Z</time>
      </trkpt>
      <trkpt lat="50.81861" lon="1.90818">
        <ele>118</ele>
        <time>2015-05-12T14:39:40.000Z</time>
      </trkpt>
      <trkpt lat="50.81862" lon="1.90819">
        <ele>118</ele>
        <time>2015-05-12T14:39:41.000Z</time>
      </trkpt>
      <trkpt lat="50.81863" lon="1.90821">
        <ele>118</ele>
        <time>2015-05-12T14:39:42.000Z</time>
      </trkpt>
      <trkpt lat="50.81864" lon="1.90822">
        <ele>118</ele>
        <time>2015-05-12T14:39:43.000Z</time>
      </trkpt>
      <trkpt lat="50.81865" lon="1.90823">
        <ele>118</ele>
        <time>2015-05-12T14:39:44.000Z</time>
      </trkpt>
      <trkpt lat="50.81866" lon="1.90824">
        <ele>118</ele>
        <time>2015-05-12T14:39:45.000Z</time>
      </trkpt>
      <trkpt lat="50.81867" lon="1.90826">
        <ele>118</ele>
        <time>2015-05-12T14:39:46.000Z</time>
      </trkpt>
      <trkpt lat="50.81867" lon="1.90827">
        <ele>118</ele>
        <time>2015-05-12T14:39:47.000Z</time>
      </trkpt>
      <trkpt lat="50.81868" lon="1.90828">
        <ele>118</ele>
        <time>2015-05-12T14:39:48.000Z</time>
      </trkpt>
      <trkpt lat="50.81869" lon="1.90829">
        <ele>117</ele>
        <time>2015-05-12T14:39:49.000Z</time>
      </trkpt>
      <trkpt lat="50.8187" lon="1.9083">
        <ele>117</ele>
        <time>2015-05-12T14:39:50.000Z</time>
      </trkpt>
      <trkpt lat="50.81871" lon="1.90832">
        <ele>117</ele>
        <time>2015-05-12T14:39:51.000Z</time>
      </trkpt>
      <trkpt lat="50.81872" lon="1.90833">
        <ele>117</ele>
        <time>2015-05-12T14:39:52.000Z</time>
      </trkpt>
      <trkpt lat="50.81873" lon="1.90834">
        <ele>117</ele>
        <time>2015-05-12T14:39:53.000Z</time>
      </trkpt>
      <trkpt lat="50.81874" lon="1.90835">
        <ele>117</ele>
        <time>2015-05-12T14:39:54.000Z</time>
      </trkpt>
      <trkpt lat="50.81874" lon="1.90836">
        <ele>117</ele>
        <time>2015-05-12T14:39:55.000Z</time>
      </trkpt>
      <trkpt lat="50.81875" lon="1.90838">
        <ele>117</ele>
        <time>2015-05-12T14:39:56.000Z</time>
      </trkpt>
      <trkpt lat="50.81876" lon="1.90839">
        <ele>117</ele>
        <time>2015-05-12T14:39:57.000Z</time>
      </trkpt>
      <trkpt lat="50.81877" lon="1.9084">
        <ele>117</ele>
        <time>2015-05-12T14:39:58.000Z</time>
      </trkpt>
      <trkpt lat="50.81878" lon="1.90842">
        <ele>117</ele>
        <time>2015-05-12T14:39:59.000Z</time>
      </trkpt>
      <trkpt lat="50.81879" lon="1.90843">
        <ele>117</ele>
        <time>2015-05-12T14:40:00.000Z</time>
      </trkpt>
      <trkpt lat="50.8188" lon="1.90844">
        <ele>117</ele>
        <time>2015-05-12T14:40:01.000Z</time>
      </trkpt>
      <trkpt lat="50.81881" lon="1.90845">
        <ele>117</ele>
        <time>2015-05-12T14:40:02.000Z</time>
      </trkpt>
      <trkpt lat="50.81881" lon="1.90847">
        <ele>117</ele>
        <time>2015-05-12T14:40:03.000Z</time>
      </trkpt>
      <trkpt lat="50.81882" lon="1.90848">
        <ele>117</ele>
        <time>2015-05-12T14:40:04.000Z</time>
      </trkpt>
      <trkpt lat="50.81883" lon="1.90849">
        <ele>117</ele>
        <time>2015-05-12T14:40:05.000Z</time>
      </trkpt>
      <trkpt lat="50.81884" lon="1.9085">
        <ele>117</ele>
        <time>2015-05-12T14:40:06.000Z</time>
      </trkpt>
      <trkpt lat="50.81885" lon="1.90852">
        <ele>117</ele>
        <time>2015-05-12T14:40:07.000Z</time>
      </trkpt>
      <trkpt lat="50.81886" lon="1.90853">
        <ele>117</ele>
        <time>2015-05-12T14:40:08.000Z</time>
      </trkpt>
      <trkpt lat="50.81887" lon="1.90854">
        <ele>116</ele>
        <time>2015-05-12T14:40:09.000Z</time>
      </trkpt>
      <trkpt lat="50.81888" lon="1.90855">
        <ele>116</ele>
        <time>2015-05-12T14:40:10.000Z</time>
      </trkpt>
      <trkpt lat="50.81889" lon="1.90856">
        <ele>116</ele>
        <time>2015-05-12T14:40:11.000Z</time>
      </trkpt>
      <trkpt lat="50.8189" lon="1.90858">
        <ele>116</ele>
        <time>2015-05-12T14:40:12.000Z</time>
      </trkpt>
      <trkpt lat="50.81891" lon="1.90859">
        <ele>116</ele>
        <time>2015-05-12T14:40:13.000Z</time>
      </trkpt>
      <trkpt lat="50.81892" lon="1.9086">
        <ele>116</ele>
        <time>2015-05-12T14:40:14.000Z</time>
      </trkpt>
      <trkpt lat="50.81892" lon="1.90862">
        <ele>116</ele>
        <time>2015-05-12T14:40:15.000Z</time>
      </trkpt>
      <trkpt lat="50.81893" lon="1.90863">
        <ele>115</ele>
        <time>2015-05-12T14:40:16.000Z</time>
      </trkpt>
      <trkpt lat="50.81894" lon="1.90864">
        <ele>115</ele>
        <time>2015-05-12T14:40:17.000Z</time>
      </trkpt>
      <trkpt lat="50.81895" lon="1.90865">
        <ele>115</ele>
        <time>2015-05-12T14:40:18.000Z</time>
      </trkpt>
      <trkpt lat="50.81895" lon="1.90866">
        <ele>115</ele>
        <time>2015-05-12T14:40:19.000Z</time>
      </trkpt>
      <trkpt lat="50.81896" lon="1.90868">
        <ele>116</ele>
        <time>2015-05-12T14:40:20.000Z</time>
      </trkpt>
      <trkpt lat="50.81897" lon="1.90869">
        <ele>115</ele>
        <time>2015-05-12T14:40:21.000Z</time>
      </trkpt>
      <trkpt lat="50.81898" lon="1.9087">
        <ele>116</ele>
        <time>2015-05-12T14:40:22.000Z</time>
      </trkpt>
      <trkpt lat="50.81899" lon="1.90872">
        <ele>116</ele>
        <time>2015-05-12T14:40:23.000Z</time>
      </trkpt>
      <trkpt lat="50.819" lon="1.90873">
        <ele>116</ele>
        <time>2015-05-12T14:40:24.000Z</time>
      </trkpt>
      <trkpt lat="50.81901" lon="1.90874">
        <ele>116</ele>
        <time>2015-05-12T14:40:25.000Z</time>
      </trkpt>
      <trkpt lat="50.81902" lon="1.90876">
        <ele>116</ele>
        <time>2015-05-12T14:40:26.000Z</time>
      </trkpt>
      <trkpt lat="50.81903" lon="1.90877">
        <ele>115</ele>
        <time>2015-05-12T14:40:27.000Z</time>
      </trkpt>
      <trkpt lat="50.81903" lon="1.90878">
        <ele>115</ele>
        <time>2015-05-12T14:40:28.000Z</time>
      </trkpt>
      <trkpt lat="50.81904" lon="1.90879">
        <ele>115</ele>
        <time>2015-05-12T14:40:29.000Z</time>
      </trkpt>
      <trkpt lat="50.81905" lon="1.9088">
        <ele>115</ele>
        <time>2015-05-12T14:40:30.000Z</time>
      </trkpt>
      <trkpt lat="50.81906" lon="1.90881">
        <ele>115</ele>
        <time>2015-05-12T14:40:31.000Z</time>
      </trkpt>
      <trkpt lat="50.81907" lon="1.90883">
        <ele>115</ele>
        <time>2015-05-12T14:40:32.000Z</time>
      </trkpt>
      <trkpt lat="50.81908" lon="1.90884">
        <ele>114</ele>
        <time>2015-05-12T14:40:33.000Z</time>
      </trkpt>
      <trkpt lat="50.81909" lon="1.90885">
        <ele>115</ele>
        <time>2015-05-12T14:40:34.000Z</time>
      </trkpt>
      <trkpt lat="50.81909" lon="1.90886">
        <ele>114</ele>
        <time>2015-05-12T14:40:35.000Z</time>
      </trkpt>
      <trkpt lat="50.8191" lon="1.90887">
        <ele>114</ele>
        <time>2015-05-12T14:40:36.000Z</time>
      </trkpt>
      <trkpt lat="50.81911" lon="1.90889">
        <ele>114</ele>
        <time>2015-05-12T14:40:37.000Z</time>
      </trkpt>
      <trkpt lat="50.81912" lon="1.9089">
        <ele>114</ele>
        <time>2015-05-12T14:40:38.000Z</time>
      </trkpt>
      <trkpt lat="50.81913" lon="1.90891">
        <ele>114</ele>
        <time>2015-05-12T14:40:39.000Z</time>
      </trkpt>
      <trkpt lat="50.81914" lon="1.90893">
        <ele>114</ele>
        <time>2015-05-12T14:40:40.000Z</time>
      </trkpt>
      <trkpt lat="50.81915" lon="1.90894">
        <ele>114</ele>
        <time>2015-05-12T14:40:41.000Z</time>
      </trkpt>
      <trkpt lat="50.81916" lon="1.90895">
        <ele>114</ele>
        <time>2015-05-12T14:40:42.000Z</time>
      </trkpt>
      <trkpt lat="50.81917" lon="1.90896">
        <ele>114</ele>
        <time>2015-05-12T14:40:43.000Z</time>
      </trkpt>
      <trkpt lat="50.81918" lon="1.90897">
        <ele>113</ele>
        <time>2015-05-12T14:40:44.000Z</time>
      </trkpt>
      <trkpt lat="50.81918" lon="1.90898">
        <ele>113</ele>
        <time>2015-05-12T14:40:45.000Z</time>
      </trkpt>
      <trkpt lat="50.81919" lon="1.909">
        <ele>113</ele>
        <time>2015-05-12T14:40:46.000Z</time>
      </trkpt>
      <trkpt lat="50.8192" lon="1.90901">
        <ele>113</ele>
        <time>2015-05-12T14:40:47.000Z</time>
      </trkpt>
      <trkpt lat="50.81921" lon="1.90902">
        <ele>113</ele>
        <time>2015-05-12T14:40:48.000Z</time>
      </trkpt>
      <trkpt lat="50.81922" lon="1.90903">
        <ele>112</ele>
        <time>2015-05-12T14:40:49.000Z</time>
      </trkpt>
      <trkpt lat="50.81923" lon="1.90905">
        <ele>112</ele>
        <time>2015-05-12T14:40:50.000Z</time>
      </trkpt>
      <trkpt lat="50.81923" lon="1.90906">
        <ele>112</ele>
        <time>2015-05-12T14:40:51.000Z</time>
      </trkpt>
      <trkpt lat="50.81924" lon="1.90907">
        <ele>112</ele>
        <time>2015-05-12T14:40:52.000Z</time>
      </trkpt>
      <trkpt lat="50.81925" lon="1.90908">
        <ele>112</ele>
        <time>2015-05-12T14:40:53.000Z</time>
      </trkpt>
      <trkpt lat="50.81926" lon="1.9091">
        <ele>112</ele>
        <time>2015-05-12T14:40:54.000Z</time>
      </trkpt>
      <trkpt lat="50.81927" lon="1.90911">
        <ele>112</ele>
        <time>2015-05-12T14:40:55.000Z</time>
      </trkpt>
      <trkpt lat="50.81928" lon="1.90912">
        <ele>112</ele>
        <time>2015-05-12T14:40:56.000Z</time>
      </trkpt>
      <trkpt lat="50.81928" lon="1.90913">
        <ele>112</ele>
        <time>2015-05-12T14:40:57.000Z</time>
      </trkpt>
      <trkpt lat="50.81929" lon="1.90914">
        <ele>112</ele>
        <time>2015-05-12T14:40:58.000Z</time>
      </trkpt>
      <trkpt lat="50.8193" lon="1.90915">
        <ele>112</ele>
        <time>2015-05-12T14:40:59.000Z</time>
      </trkpt>
      <trkpt lat="50.81931" lon="1.90917">
        <ele>112</ele>
        <time>2015-05-12T14:41:00.000Z</time>
      </trkpt>
      <trkpt lat="50.81932" lon="1.90918">
        <ele>112</ele>
        <time>2015-05-12T14:41:01.000Z</time>
      </trkpt>
      <trkpt lat="50.81933" lon="1.9092">
        <ele>112</ele>
        <time>2015-05-12T14:41:02.000Z</time>
      </trkpt>
      <trkpt lat="50.81934" lon="1.90921">
        <ele>112</ele>
        <time>2015-05-12T14:41:03.000Z</time>
      </trkpt>
      <trkpt lat="50.81935" lon="1.90922">
        <ele>112</ele>
        <time>2015-05-12T14:41:04.000Z</time>
      </trkpt>
      <trkpt lat="50.81936" lon="1.90923">
        <ele>112</ele>
        <time>2015-05-12T14:41:05.000Z</time>
      </trkpt>
      <trkpt lat="50.81937" lon="1.90924">
        <ele>112</ele>
        <time>2015-05-12T14:41:06.000Z</time>
      </trkpt>
      <trkpt lat="50.81938" lon="1.90925">
        <ele>112</ele>
        <time>2015-05-12T14:41:07.000Z</time>
      </trkpt>
      <trkpt lat="50.81939" lon="1.90927">
        <ele>112</ele>
        <time>2015-05-12T14:41:08.000Z</time>
      </trkpt>
      <trkpt lat="50.8194" lon="1.90928">
        <ele>112</ele>
        <time>2015-05-12T14:41:09.000Z</time>
      </trkpt>
      <trkpt lat="50.81941" lon="1.90929">
        <ele>112</ele>
        <time>2015-05-12T14:41:10.000Z</time>
      </trkpt>
      <trkpt lat="50.81942" lon="1.90931">
        <ele>112</ele>
        <time>2015-05-12T14:41:11.000Z</time>
      </trkpt>
      <trkpt lat="50.81943" lon="1.90932">
        <ele>112</ele>
        <time>2015-05-12T14:41:12.000Z</time>
      </trkpt>
      <trkpt lat="50.81943" lon="1.90933">
        <ele>112</ele>
        <time>2015-05-12T14:41:13.000Z</time>
      </trkpt>
      <trkpt lat="50.81944" lon="1.90934">
        <ele>112</ele>
        <time>2015-05-12T14:41:14.000Z</time>
      </trkpt>
      <trkpt lat="50.81945" lon="1.90936">
        <ele>112</ele>
        <time>2015-05-12T14:41:15.000Z</time>
      </trkpt>
      <trkpt lat="50.81946" lon="1.90937">
        <ele>112</ele>
        <time>2015-05-12T14:41:16.000Z</time>
      </trkpt>
      <trkpt lat="50.81947" lon="1.90938">
        <ele>112</ele>
        <time>2015-05-12T14:41:17.000Z</time>
      </trkpt>
      <trkpt lat="50.81948" lon="1.90939">
        <ele>112</ele>
        <time>2015-05-12T14:41:18.000Z</time>
      </trkpt>
      <trkpt lat="50.81949" lon="1.90941">
        <ele>112</ele>
        <time>2015-05-12T14:41:19.000Z</time>
      </trkpt>
      <trkpt lat="50.8195" lon="1.90942">
        <ele>112</ele>
        <time>2015-05-12T14:41:20.000Z</time>
      </trkpt>
      <trkpt lat="50.8195" lon="1.90943">
        <ele>112</ele>
        <time>2015-05-12T14:41:21.000Z</time>
      </trkpt>
      <trkpt lat="50.81951" lon="1.90944">
        <ele>112</ele>
        <time>2015-05-12T14:41:22.000Z</time>
      </trkpt>
      <trkpt lat="50.81952" lon="1.90945">
        <ele>112</ele>
        <time>2015-05-12T14:41:23.000Z</time>
      </trkpt>
      <trkpt lat="50.81953" lon="1.90947">
        <ele>112</ele>
        <time>2015-05-12T14:41:24.000Z</time>
      </trkpt>
      <trkpt lat="50.81954" lon="1.90948">
        <ele>111</ele>
        <time>2015-05-12T14:41:25.000Z</time>
      </trkpt>
      <trkpt lat="50.81955" lon="1.90949">
        <ele>112</ele>
        <time>2015-05-12T14:41:26.000Z</time>
      </trkpt>
      <trkpt lat="50.81955" lon="1.90951">
        <ele>111</ele>
        <time>2015-05-12T14:41:27.000Z</time>
      </trkpt>
      <trkpt lat="50.81956" lon="1.90952">
        <ele>111</ele>
        <time>2015-05-12T14:41:28.000Z</time>
      </trkpt>
      <trkpt lat="50.81957" lon="1.90953">
        <ele>111</ele>
        <time>2015-05-12T14:41:29.000Z</time>
      </trkpt>
      <trkpt lat="50.81958" lon="1.90954">
        <ele>111</ele>
        <time>2015-05-12T14:41:30.000Z</time>
      </trkpt>
      <trkpt lat="50.81958" lon="1.90955">
        <ele>111</ele>
        <time>2015-05-12T14:41:31.000Z</time>
      </trkpt>
      <trkpt lat="50.81959" lon="1.90957">
        <ele>111</ele>
        <time>2015-05-12T14:41:32.000Z</time>
      </trkpt>
      <trkpt lat="50.8196" lon="1.90958">
        <ele>111</ele>
        <time>2015-05-12T14:41:33.000Z</time>
      </trkpt>
      <trkpt lat="50.81961" lon="1.9096">
        <ele>111</ele>
        <time>2015-05-12T14:41:34.000Z</time>
      </trkpt>
      <trkpt lat="50.81962" lon="1.90961">
        <ele>111</ele>
        <time>2015-05-12T14:41:35.000Z</time>
      </trkpt>
      <trkpt lat="50.81963" lon="1.90962">
        <ele>111</ele>
        <time>2015-05-12T14:41:36.000Z</time>
      </trkpt>
      <trkpt lat="50.81963" lon="1.90963">
        <ele>111</ele>
        <time>2015-05-12T14:41:37.000Z</time>
      </trkpt>
      <trkpt lat="50.81964" lon="1.90964">
        <ele>111</ele>
        <time>2015-05-12T14:41:38.000Z</time>
      </trkpt>
      <trkpt lat="50.81965" lon="1.90965">
        <ele>111</ele>
        <time>2015-05-12T14:41:39.000Z</time>
      </trkpt>
      <trkpt lat="50.81966" lon="1.90967">
        <ele>111</ele>
        <time>2015-05-12T14:41:40.000Z</time>
      </trkpt>
      <trkpt lat="50.81967" lon="1.90968">
        <ele>111</ele>
        <time>2015-05-12T14:41:41.000Z</time>
      </trkpt>
      <trkpt lat="50.81968" lon="1.90969">
        <ele>111</ele>
        <time>2015-05-12T14:41:42.000Z</time>
      </trkpt>
      <trkpt lat="50.81969" lon="1.9097">
        <ele>111</ele>
        <time>2015-05-12T14:41:43.000Z</time>
      </trkpt>
      <trkpt lat="50.81969" lon="1.90971">
        <ele>111</ele>
        <time>2015-05-12T14:41:44.000Z</time>
      </trkpt>
      <trkpt lat="50.8197" lon="1.90972">
        <ele>111</ele>
        <time>2015-05-12T14:41:45.000Z</time>
      </trkpt>
      <trkpt lat="50.81971" lon="1.90973">
        <ele>110</ele>
        <time>2015-05-12T14:41:46.000Z</time>
      </trkpt>
      <trkpt lat="50.81972" lon="1.90975">
        <ele>110</ele>
        <time>2015-05-12T14:41:47.000Z</time>
      </trkpt>
      <trkpt lat="50.81973" lon="1.90976">
        <ele>111</ele>
        <time>2015-05-12T14:41:48.000Z</time>
      </trkpt>
      <trkpt lat="50.81974" lon="1.90977">
        <ele>110</ele>
        <time>2015-05-12T14:41:49.000Z</time>
      </trkpt>
      <trkpt lat="50.81975" lon="1.90978">
        <ele>110</ele>
        <time>2015-05-12T14:41:50.000Z</time>
      </trkpt>
      <trkpt lat="50.81976" lon="1.90979">
        <ele>110</ele>
        <time>2015-05-12T14:41:51.000Z</time>
      </trkpt>
      <trkpt lat="50.81977" lon="1.90981">
        <ele>110</ele>
        <time>2015-05-12T14:41:52.000Z</time>
      </trkpt>
      <trkpt lat="50.81978" lon="1.90982">
        <ele>110</ele>
        <time>2015-05-12T14:41:53.000Z</time>
      </trkpt>
      <trkpt lat="50.81979" lon="1.90983">
        <ele>110</ele>
        <time>2015-05-12T14:41:54.000Z</time>
      </trkpt>
      <trkpt lat="50.8198" lon="1.90985">
        <ele>110</ele>
        <time>2015-05-12T14:41:55.000Z</time>
      </trkpt>
      <trkpt lat="50.81981" lon="1.90986">
        <ele>110</ele>
        <time>2015-05-12T14:41:56.000Z</time>
      </trkpt>
      <trkpt lat="50.81982" lon="1.90987">
        <ele>110</ele>
        <time>2015-05-12T14:41:57.000Z</time>
      </trkpt>
      <trkpt lat="50.81983" lon="1.90988">
        <ele>110</ele>
        <time>2015-05-12T14:41:58.000Z</time>
      </trkpt>
      <trkpt lat="50.81983" lon="1.90989">
        <ele>110</ele>
        <time>2015-05-12T14:41:59.000Z</time>
      </trkpt>
      <trkpt lat="50.81984" lon="1.90991">
        <ele>110</ele>
        <time>2015-05-12T14:42:00.000Z</time>
      </trkpt>
      <trkpt lat="50.81985" lon="1.90992">
        <ele>110</ele>
        <time>2015-05-12T14:42:01.000Z</time>
      </trkpt>
      <trkpt lat="50.81986" lon="1.90993">
        <ele>110</ele>
        <time>2015-05-12T14:42:02.000Z</time>
      </trkpt>
      <trkpt lat="50.81987" lon="1.90995">
        <ele>110</ele>
        <time>2015-05-12T14:42:03.000Z</time>
      </trkpt>
      <trkpt lat="50.81988" lon="1.90996">
        <ele>110</ele>
        <time>2015-05-12T14:42:04.000Z</time>
      </trkpt>
      <trkpt lat="50.81989" lon="1.90997">
        <ele>109</ele>
        <time>2015-05-12T14:42:05.000Z</time>
      </trkpt>
      <trkpt lat="50.81989" lon="1.90998">
        <ele>109</ele>
        <time>2015-05-12T14:42:06.000Z</time>
      </trkpt>
      <trkpt lat="50.8199" lon="1.90999">
        <ele>109</ele>
        <time>2015-05-12T14:42:07.000Z</time>
      </trkpt>
      <trkpt lat="50.81991" lon="1.91001">
        <ele>109</ele>
        <time>2015-05-12T14:42:08.000Z</time>
      </trkpt>
      <trkpt lat="50.81992" lon="1.91002">
        <ele>109</ele>
        <time>2015-05-12T14:42:09.000Z</time>
      </trkpt>
      <trkpt lat="50.81993" lon="1.91003">
        <ele>109</ele>
        <time>2015-05-12T14:42:10.000Z</time>
      </trkpt>
      <trkpt lat="50.81994" lon="1.91005">
        <ele>109</ele>
        <time>2015-05-12T14:42:11.000Z</time>
      </trkpt>
      <trkpt lat="50.81994" lon="1.91006">
        <ele>109</ele>
        <time>2015-05-12T14:42:12.000Z</time>
      </trkpt>
      <trkpt lat="50.81995" lon="1.91007">
        <ele>109</ele>
        <time>2015-05-12T14:42:13.000Z</time>
      </trkpt>
      <trkpt lat="50.81996" lon="1.91008">
        <ele>109</ele>
        <time>2015-05-12T14:42:14.000Z</time>
      </trkpt>
      <trkpt lat="50.81997" lon="1.91009">
        <ele>109</ele>
        <time>2015-05-12T14:42:15.000Z</time>
      </trkpt>
      <trkpt lat="50.81998" lon="1.91011">
        <ele>109</ele>
        <time>2015-05-12T14:42:16.000Z</time>
      </trkpt>
      <trkpt lat="50.81999" lon="1.91012">
        <ele>109</ele>
        <time>2015-05-12T14:42:17.000Z</time>
      </trkpt>
      <trkpt lat="50.82" lon="1.91013">
        <ele>109</ele>
        <time>2015-05-12T14:42:18.000Z</time>
      </trkpt>
      <trkpt lat="50.82001" lon="1.91015">
        <ele>109</ele>
        <time>2015-05-12T14:42:19.000Z</time>
      </trkpt>
      <trkpt lat="50.82002" lon="1.91016">
        <ele>108</ele>
        <time>2015-05-12T14:42:20.000Z</time>
      </trkpt>
      <trkpt lat="50.82003" lon="1.91017">
        <ele>108</ele>
        <time>2015-05-12T14:42:21.000Z</time>
      </trkpt>
      <trkpt lat="50.82003" lon="1.91018">
        <ele>108</ele>
        <time>2015-05-12T14:42:22.000Z</time>
      </trkpt>
      <trkpt lat="50.82004" lon="1.91019">
        <ele>108</ele>
        <time>2015-05-12T14:42:23.000Z</time>
      </trkpt>
      <trkpt lat="50.82005" lon="1.91021">
        <ele>108</ele>
        <time>2015-05-12T14:42:24.000Z</time>
      </trkpt>
      <trkpt lat="50.82006" lon="1.91022">
        <ele>108</ele>
        <time>2015-05-12T14:42:25.000Z</time>
      </trkpt>
      <trkpt lat="50.82007" lon="1.91023">
        <ele>108</ele>
        <time>2015-05-12T14:42:26.000Z</time>
      </trkpt>
      <trkpt lat="50.82008" lon="1.91025">
        <ele>108</ele>
        <time>2015-05-12T14:42:27.000Z</time>
      </trkpt>
      <trkpt lat="50.82009" lon="1.91026">
        <ele>108</ele>
        <time>2015-05-12T14:42:28.000Z</time>
      </trkpt>
      <trkpt lat="50.8201" lon="1.91027">
        <ele>108</ele>
        <time>2015-05-12T14:42:29.000Z</time>
      </trkpt>
      <trkpt lat="50.8201" lon="1.91028">
        <ele>108</ele>
        <time>2015-05-12T14:42:30.000Z</time>
      </trkpt>
      <trkpt lat="50.82011" lon="1.91029">
        <ele>108</ele>
        <time>2015-05-12T14:42:31.000Z</time>
      </trkpt>
      <trkpt lat="50.82012" lon="1.9103">
        <ele>108</ele>
        <time>2015-05-12T14:42:32.000Z</time>
      </trkpt>
      <trkpt lat="50.82013" lon="1.91032">
        <ele>107</ele>
        <time>2015-05-12T14:42:33.000Z</time>
      </trkpt>
      <trkpt lat="50.82014" lon="1.91033">
        <ele>107</ele>
        <time>2015-05-12T14:42:34.000Z</time>
      </trkpt>
      <trkpt lat="50.82015" lon="1.91034">
        <ele>107</ele>
        <time>2015-05-12T14:42:35.000Z</time>
      </trkpt>
      <trkpt lat="50.82015" lon="1.91035">
        <ele>107</ele>
        <time>2015-05-12T14:42:36.000Z</time>
      </trkpt>
      <trkpt lat="50.82016" lon="1.91036">
        <ele>107</ele>
        <time>2015-05-12T14:42:37.000Z</time>
      </trkpt>
      <trkpt lat="50.82017" lon="1.91037">
        <ele>107</ele>
        <time>2015-05-12T14:42:38.000Z</time>
      </trkpt>
      <trkpt lat="50.82018" lon="1.91037">
        <ele>107</ele>
        <time>2015-05-12T14:42:39.000Z</time>
      </trkpt>
      <trkpt lat="50.82019" lon="1.91038">
        <ele>107</ele>
        <time>2015-05-12T14:42:40.000Z</time>
      </trkpt>
      <trkpt lat="50.8202" lon="1.91039">
        <ele>107</ele>
        <time>2015-05-12T14:42:41.000Z</time>
      </trkpt>
      <trkpt lat="50.82021" lon="1.91039">
        <ele>107</ele>
        <time>2015-05-12T14:42:42.000Z</time>
      </trkpt>
      <trkpt lat="50.82022" lon="1.91039">
        <ele>107</ele>
        <time>2015-05-12T14:42:43.000Z</time>
      </trkpt>
      <trkpt lat="50.82023" lon="1.91039">
        <ele>107</ele>
        <time>2015-05-12T14:42:44.000Z</time>
      </trkpt>
      <trkpt lat="50.82024" lon="1.91039">
        <ele>107</ele>
        <time>2015-05-12T14:42:45.000Z</time>
      </trkpt>
      <trkpt lat="50.82025" lon="1.91039">
        <ele>107</ele>
        <time>2015-05-12T14:42:46.000Z</time>
      </trkpt>
      <trkpt lat="50.82026" lon="1.91039">
        <ele>107</ele>
        <time>2015-05-12T14:42:47.000Z</time>
      </trkpt>
      <trkpt lat="50.82028" lon="1.91039">
        <ele>107</ele>
        <time>2015-05-12T14:42:48.000Z</time>
      </trkpt>
      <trkpt lat="50.82029" lon="1.91038">
        <ele>107</ele>
        <time>2015-05-12T14:42:49.000Z</time>
      </trkpt>
      <trkpt lat="50.8203" lon="1.91038">
        <ele>106</ele>
        <time>2015-05-12T14:42:50.000Z</time>
      </trkpt>
      <trkpt lat="50.82031" lon="1.91037">
        <ele>106</ele>
        <time>2015-05-12T14:42:51.000Z</time>
      </trkpt>
      <trkpt lat="50.82032" lon="1.91036">
        <ele>106</ele>
        <time>2015-05-12T14:42:52.000Z</time>
      </trkpt>
      <trkpt lat="50.82033" lon="1.91036">
        <ele>106</ele>
        <time>2015-05-12T14:42:53.000Z</time>
      </trkpt>
      <trkpt lat="50.82034" lon="1.91035">
        <ele>106</ele>
        <time>2015-05-12T14:42:54.000Z</time>
      </trkpt>
      <trkpt lat="50.82035" lon="1.91035">
        <ele>106</ele>
        <time>2015-05-12T14:42:55.000Z</time>
      </trkpt>
      <trkpt lat="50.82036" lon="1.91034">
        <ele>106</ele>
        <time>2015-05-12T14:42:56.000Z</time>
      </trkpt>
      <trkpt lat="50.82037" lon="1.91033">
        <ele>106</ele>
        <time>2015-05-12T14:42:57.000Z</time>
      </trkpt>
      <trkpt lat="50.82038" lon="1.91032">
        <ele>106</ele>
        <time>2015-05-12T14:42:58.000Z</time>
      </trkpt>
      <trkpt lat="50.8204" lon="1.91032">
        <ele>105</ele>
        <time>2015-05-12T14:42:59.000Z</time>
      </trkpt>
      <trkpt lat="50.82041" lon="1.91031">
        <ele>105</ele>
        <time>2015-05-12T14:43:00.000Z</time>
      </trkpt>
      <trkpt lat="50.82042" lon="1.91031">
        <ele>105</ele>
        <time>2015-05-12T14:43:01.000Z</time>
      </trkpt>
      <trkpt lat="50.82043" lon="1.9103">
        <ele>105</ele>
        <time>2015-05-12T14:43:02.000Z</time>
      </trkpt>
      <trkpt lat="50.82044" lon="1.91029">
        <ele>105</ele>
        <time>2015-05-12T14:43:03.000Z</time>
      </trkpt>
      <trkpt lat="50.82045" lon="1.91028">
        <ele>105</ele>
        <time>2015-05-12T14:43:04.000Z</time>
      </trkpt>
      <trkpt lat="50.82046" lon="1.91028">
        <ele>105</ele>
        <time>2015-05-12T14:43:05.000Z</time>
      </trkpt>
      <trkpt lat="50.82048" lon="1.91027">
        <ele>105</ele>
        <time>2015-05-12T14:43:06.000Z</time>
      </trkpt>
      <trkpt lat="50.82049" lon="1.91026">
        <ele>105</ele>
        <time>2015-05-12T14:43:07.000Z</time>
      </trkpt>
      <trkpt lat="50.8205" lon="1.91025">
        <ele>104</ele>
        <time>2015-05-12T14:43:08.000Z</time>
      </trkpt>
      <trkpt lat="50.82051" lon="1.91024">
        <ele>104</ele>
        <time>2015-05-12T14:43:09.000Z</time>
      </trkpt>
      <trkpt lat="50.82052" lon="1.91024">
        <ele>105</ele>
        <time>2015-05-12T14:43:10.000Z</time>
      </trkpt>
      <trkpt lat="50.82053" lon="1.91023">
        <ele>104</ele>
        <time>2015-05-12T14:43:11.000Z</time>
      </trkpt>
      <trkpt lat="50.82054" lon="1.91022">
        <ele>104</ele>
        <time>2015-05-12T14:43:12.000Z</time>
      </trkpt>
      <trkpt lat="50.82055" lon="1.91021">
        <ele>104</ele>
        <time>2015-05-12T14:43:13.000Z</time>
      </trkpt>
      <trkpt lat="50.82057" lon="1.9102">
        <ele>104</ele>
        <time>2015-05-12T14:43:14.000Z</time>
      </trkpt>
      <trkpt lat="50.82058" lon="1.91019">
        <ele>104</ele>
        <time>2015-05-12T14:43:15.000Z</time>
      </trkpt>
      <trkpt lat="50.82059" lon="1.91018">
        <ele>104</ele>
        <time>2015-05-12T14:43:16.000Z</time>
      </trkpt>
      <trkpt lat="50.8206" lon="1.91017">
        <ele>104</ele>
        <time>2015-05-12T14:43:17.000Z</time>
      </trkpt>
      <trkpt lat="50.82061" lon="1.91016">
        <ele>104</ele>
        <time>2015-05-12T14:43:18.000Z</time>
      </trkpt>
      <trkpt lat="50.82062" lon="1.91015">
        <ele>104</ele>
        <time>2015-05-12T14:43:19.000Z</time>
      </trkpt>
      <trkpt lat="50.82063" lon="1.91014">
        <ele>104</ele>
        <time>2015-05-12T14:43:20.000Z</time>
      </trkpt>
      <trkpt lat="50.82064" lon="1.91013">
        <ele>104</ele>
        <time>2015-05-12T14:43:21.000Z</time>
      </trkpt>
      <trkpt lat="50.82066" lon="1.91012">
        <ele>103</ele>
        <time>2015-05-12T14:43:22.000Z</time>
      </trkpt>
      <trkpt lat="50.82067" lon="1.91012">
        <ele>103</ele>
        <time>2015-05-12T14:43:23.000Z</time>
      </trkpt>
      <trkpt lat="50.82068" lon="1.91011">
        <ele>103</ele>
        <time>2015-05-12T14:43:24.000Z</time>
      </trkpt>
      <trkpt lat="50.82068" lon="1.9101">
        <ele>103</ele>
        <time>2015-05-12T14:43:25.000Z</time>
      </trkpt>
      <trkpt lat="50.82069" lon="1.9101">
        <ele>103</ele>
        <time>2015-05-12T14:43:26.000Z</time>
      </trkpt>
      <trkpt lat="50.8207" lon="1.91009">
        <ele>103</ele>
        <time>2015-05-12T14:43:27.000Z</time>
      </trkpt>
      <trkpt lat="50.82071" lon="1.91008">
        <ele>103</ele>
        <time>2015-05-12T14:43:28.000Z</time>
      </trkpt>
      <trkpt lat="50.82072" lon="1.91007">
        <ele>103</ele>
        <time>2015-05-12T14:43:29.000Z</time>
      </trkpt>
      <trkpt lat="50.82073" lon="1.91007">
        <ele>103</ele>
        <time>2015-05-12T14:43:30.000Z</time>
      </trkpt>
      <trkpt lat="50.82074" lon="1.91006">
        <ele>102</ele>
        <time>2015-05-12T14:43:31.000Z</time>
      </trkpt>
      <trkpt lat="50.82075" lon="1.91005">
        <ele>102</ele>
        <time>2015-05-12T14:43:32.000Z</time>
      </trkpt>
      <trkpt lat="50.82076" lon="1.91004">
        <ele>102</ele>
        <time>2015-05-12T14:43:33.000Z</time>
      </trkpt>
      <trkpt lat="50.82077" lon="1.91003">
        <ele>102</ele>
        <time>2015-05-12T14:43:34.000Z</time>
      </trkpt>
      <trkpt lat="50.82078" lon="1.91002">
        <ele>101</ele>
        <time>2015-05-12T14:43:35.000Z</time>
      </trkpt>
      <trkpt lat="50.82079" lon="1.91001">
        <ele>101</ele>
        <time>2015-05-12T14:43:36.000Z</time>
      </trkpt>
      <trkpt lat="50.8208" lon="1.91">
        <ele>101</ele>
        <time>2015-05-12T14:43:37.000Z</time>
      </trkpt>
      <trkpt lat="50.82081" lon="1.90999">
        <ele>101</ele>
        <time>2015-05-12T14:43:38.000Z</time>
      </trkpt>
      <trkpt lat="50.82083" lon="1.90999">
        <ele>101</ele>
        <time>2015-05-12T14:43:39.000Z</time>
      </trkpt>
      <trkpt lat="50.82084" lon="1.90998">
        <ele>100</ele>
        <time>2015-05-12T14:43:40.000Z</time>
      </trkpt>
      <trkpt lat="50.82085" lon="1.90996">
        <ele>100</ele>
        <time>2015-05-12T14:43:41.000Z</time>
      </trkpt>
      <trkpt lat="50.82086" lon="1.90995">
        <ele>100</ele>
        <time>2015-05-12T14:43:42.000Z</time>
      </trkpt>
      <trkpt lat="50.82087" lon="1.90994">
        <ele>100</ele>
        <time>2015-05-12T14:43:43.000Z</time>
      </trkpt>
      <trkpt lat="50.82088" lon="1.90993">
        <ele>100</ele>
        <time>2015-05-12T14:43:44.000Z</time>
      </trkpt>
      <trkpt lat="50.82089" lon="1.90992">
        <ele>100</ele>
        <time>2015-05-12T14:43:45.000Z</time>
      </trkpt>
      <trkpt lat="50.8209" lon="1.90991">
        <ele>100</ele>
        <time>2015-05-12T14:43:46.000Z</time>
      </trkpt>
      <trkpt lat="50.82091" lon="1.9099">
        <ele>100</ele>
        <time>2015-05-12T14:43:47.000Z</time>
      </trkpt>
      <trkpt lat="50.82092" lon="1.90989">
        <ele>100</ele>
        <time>2015-05-12T14:43:48.000Z</time>
      </trkpt>
      <trkpt lat="50.82093" lon="1.90987">
        <ele>100</ele>
        <time>2015-05-12T14:43:49.000Z</time>
      </trkpt>
      <trkpt lat="50.82094" lon="1.90986">
        <ele>99</ele>
        <time>2015-05-12T14:43:50.000Z</time>
      </trkpt>
      <trkpt lat="50.82095" lon="1.90984">
        <ele>98</ele>
        <time>2015-05-12T14:43:51.000Z</time>
      </trkpt>
      <trkpt lat="50.82095" lon="1.90983">
        <ele>98</ele>
        <time>2015-05-12T14:43:52.000Z</time>
      </trkpt>
      <trkpt lat="50.82096" lon="1.90982">
        <ele>97</ele>
        <time>2015-05-12T14:43:53.000Z</time>
      </trkpt>
      <trkpt lat="50.82097" lon="1.90981">
        <ele>97</ele>
        <time>2015-05-12T14:43:54.000Z</time>
      </trkpt>
      <trkpt lat="50.82098" lon="1.9098">
        <ele>97</ele>
        <time>2015-05-12T14:43:55.000Z</time>
      </trkpt>
      <trkpt lat="50.82099" lon="1.90979">
        <ele>97</ele>
        <time>2015-05-12T14:43:56.000Z</time>
      </trkpt>
      <trkpt lat="50.821" lon="1.90977">
        <ele>97</ele>
        <time>2015-05-12T14:43:57.000Z</time>
      </trkpt>
      <trkpt lat="50.82101" lon="1.90976">
        <ele>96</ele>
        <time>2015-05-12T14:43:58.000Z</time>
      </trkpt>
      <trkpt lat="50.82102" lon="1.90975">
        <ele>96</ele>
        <time>2015-05-12T14:43:59.000Z</time>
      </trkpt>
      <trkpt lat="50.82102" lon="1.90974">
        <ele>96</ele>
        <time>2015-05-12T14:44:00.000Z</time>
      </trkpt>
      <trkpt lat="50.82103" lon="1.90972">
        <ele>96</ele>
        <time>2015-05-12T14:44:01.000Z</time>
      </trkpt>
      <trkpt lat="50.82104" lon="1.90971">
        <ele>96</ele>
        <time>2015-05-12T14:44:02.000Z</time>
      </trkpt>
      <trkpt lat="50.82104" lon="1.9097">
        <ele>96</ele>
        <time>2015-05-12T14:44:03.000Z</time>
      </trkpt>
      <trkpt lat="50.82105" lon="1.90969">
        <ele>96</ele>
        <time>2015-05-12T14:44:04.000Z</time>
      </trkpt>
      <trkpt lat="50.82106" lon="1.90967">
        <ele>96</ele>
        <time>2015-05-12T14:44:05.000Z</time>
      </trkpt>
      <trkpt lat="50.82107" lon="1.90966">
        <ele>96</ele>
        <time>2015-05-12T14:44:06.000Z</time>
      </trkpt>
      <trkpt lat="50.82107" lon="1.90964">
        <ele>96</ele>
        <time>2015-05-12T14:44:07.000Z</time>
      </trkpt>
      <trkpt lat="50.82108" lon="1.90962">
        <ele>95</ele>
        <time>2015-05-12T14:44:08.000Z</time>
      </trkpt>
      <trkpt lat="50.82109" lon="1.90961">
        <ele>95</ele>
        <time>2015-05-12T14:44:09.000Z</time>
      </trkpt>
      <trkpt lat="50.82109" lon="1.9096">
        <ele>95</ele>
        <time>2015-05-12T14:44:10.000Z</time>
      </trkpt>
      <trkpt lat="50.8211" lon="1.90958">
        <ele>95</ele>
        <time>2015-05-12T14:44:11.000Z</time>
      </trkpt>
      <trkpt lat="50.82111" lon="1.90957">
        <ele>95</ele>
        <time>2015-05-12T14:44:12.000Z</time>
      </trkpt>
      <trkpt lat="50.82111" lon="1.90956">
        <ele>95</ele>
        <time>2015-05-12T14:44:13.000Z</time>
      </trkpt>
      <trkpt lat="50.82112" lon="1.90954">
        <ele>95</ele>
        <time>2015-05-12T14:44:14.000Z</time>
      </trkpt>
      <trkpt lat="50.82113" lon="1.90952">
        <ele>94</ele>
        <time>2015-05-12T14:44:15.000Z</time>
      </trkpt>
      <trkpt lat="50.82113" lon="1.90951">
        <ele>94</ele>
        <time>2015-05-12T14:44:16.000Z</time>
      </trkpt>
      <trkpt lat="50.82114" lon="1.90949">
        <ele>95</ele>
        <time>2015-05-12T14:44:17.000Z</time>
      </trkpt>
      <trkpt lat="50.82115" lon="1.90947">
        <ele>94</ele>
        <time>2015-05-12T14:44:18.000Z</time>
      </trkpt>
      <trkpt lat="50.82115" lon="1.90946">
        <ele>94</ele>
        <time>2015-05-12T14:44:19.000Z</time>
      </trkpt>
      <trkpt lat="50.82116" lon="1.90944">
        <ele>94</ele>
        <time>2015-05-12T14:44:20.000Z</time>
      </trkpt>
      <trkpt lat="50.82117" lon="1.90943">
        <ele>94</ele>
        <time>2015-05-12T14:44:21.000Z</time>
      </trkpt>
      <trkpt lat="50.82117" lon="1.90941">
        <ele>94</ele>
        <time>2015-05-12T14:44:22.000Z</time>
      </trkpt>
      <trkpt lat="50.82118" lon="1.90939">
        <ele>94</ele>
        <time>2015-05-12T14:44:23.000Z</time>
      </trkpt>
      <trkpt lat="50.82119" lon="1.90938">
        <ele>94</ele>
        <time>2015-05-12T14:44:24.000Z</time>
      </trkpt>
      <trkpt lat="50.8212" lon="1.90936">
        <ele>94</ele>
        <time>2015-05-12T14:44:25.000Z</time>
      </trkpt>
      <trkpt lat="50.8212" lon="1.90935">
        <ele>94</ele>
        <time>2015-05-12T14:44:26.000Z</time>
      </trkpt>
      <trkpt lat="50.82121" lon="1.90933">
        <ele>94</ele>
        <time>2015-05-12T14:44:27.000Z</time>
      </trkpt>
      <trkpt lat="50.82121" lon="1.90932">
        <ele>94</ele>
        <time>2015-05-12T14:44:28.000Z</time>
      </trkpt>
      <trkpt lat="50.82122" lon="1.90931">
        <ele>94</ele>
        <time>2015-05-12T14:44:29.000Z</time>
      </trkpt>
      <trkpt lat="50.82123" lon="1.90929">
        <ele>94</ele>
        <time>2015-05-12T14:44:30.000Z</time>
      </trkpt>
      <trkpt lat="50.82123" lon="1.90928">
        <ele>93</ele>
        <time>2015-05-12T14:44:31.000Z</time>
      </trkpt>
      <trkpt lat="50.82124" lon="1.90926">
        <ele>93</ele>
        <time>2015-05-12T14:44:32.000Z</time>
      </trkpt>
      <trkpt lat="50.82124" lon="1.90925">
        <ele>93</ele>
        <time>2015-05-12T14:44:33.000Z</time>
      </trkpt>
      <trkpt lat="50.82124" lon="1.90923">
        <ele>93</ele>
        <time>2015-05-12T14:44:34.000Z</time>
      </trkpt>
      <trkpt lat="50.82125" lon="1.90922">
        <ele>92</ele>
        <time>2015-05-12T14:44:35.000Z</time>
      </trkpt>
      <trkpt lat="50.82125" lon="1.90921">
        <ele>93</ele>
        <time>2015-05-12T14:44:36.000Z</time>
      </trkpt>
      <trkpt lat="50.82125" lon="1.90919">
        <ele>93</ele>
        <time>2015-05-12T14:44:37.000Z</time>
      </trkpt>
      <trkpt lat="50.82126" lon="1.90918">
        <ele>93</ele>
        <time>2015-05-12T14:44:38.000Z</time>
      </trkpt>
      <trkpt lat="50.82126" lon="1.90916">
        <ele>93</ele>
        <time>2015-05-12T14:44:39.000Z</time>
      </trkpt>
      <trkpt lat="50.82126" lon="1.90914">
        <ele>93</ele>
        <time>2015-05-12T14:44:40.000Z</time>
      </trkpt>
      <trkpt lat="50.82127" lon="1.90912">
        <ele>93</ele>
        <time>2015-05-12T14:44:41.000Z</time>
      </trkpt>
      <trkpt lat="50.82127" lon="1.90911">
        <ele>93</ele>
        <time>2015-05-12T14:44:42.000Z</time>
      </trkpt>
      <trkpt lat="50.82128" lon="1.90909">
        <ele>92</ele>
        <time>2015-05-12T14:44:43.000Z</time>
      </trkpt>
      <trkpt lat="50.82128" lon="1.90907">
        <ele>92</ele>
        <time>2015-05-12T14:44:44.000Z</time>
      </trkpt>
      <trkpt lat="50.82128" lon="1.90905">
        <ele>93</ele>
        <time>2015-05-12T14:44:45.000Z</time>
      </trkpt>
      <trkpt lat="50.82129" lon="1.90904">
        <ele>93</ele>
        <time>2015-05-12T14:44:46.000Z</time>
      </trkpt>
      <trkpt lat="50.82129" lon="1.90902">
        <ele>92</ele>
        <time>2015-05-12T14:44:47.000Z</time>
      </trkpt>
      <trkpt lat="50.82129" lon="1.909">
        <ele>93</ele>
        <time>2015-05-12T14:44:48.000Z</time>
      </trkpt>
      <trkpt lat="50.8213" lon="1.90898">
        <ele>93</ele>
        <time>2015-05-12T14:44:49.000Z</time>
      </trkpt>
      <trkpt lat="50.8213" lon="1.90897">
        <ele>93</ele>
        <time>2015-05-12T14:44:50.000Z</time>
      </trkpt>
      <trkpt lat="50.8213" lon="1.90895">
        <ele>93</ele>
        <time>2015-05-12T14:44:51.000Z</time>
      </trkpt>
      <trkpt lat="50.82131" lon="1.90893">
        <ele>93</ele>
        <time>2015-05-12T14:44:52.000Z</time>
      </trkpt>
      <trkpt lat="50.82131" lon="1.90892">
        <ele>93</ele>
        <time>2015-05-12T14:44:53.000Z</time>
      </trkpt>
      <trkpt lat="50.82131" lon="1.9089">
        <ele>94</ele>
        <time>2015-05-12T14:44:54.000Z</time>
      </trkpt>
      <trkpt lat="50.82132" lon="1.90888">
        <ele>94</ele>
        <time>2015-05-12T14:44:55.000Z</time>
      </trkpt>
      <trkpt lat="50.82132" lon="1.90886">
        <ele>94</ele>
        <time>2015-05-12T14:44:56.000Z</time>
      </trkpt>
      <trkpt lat="50.82132" lon="1.90885">
        <ele>94</ele>
        <time>2015-05-12T14:44:57.000Z</time>
      </trkpt>
      <trkpt lat="50.82132" lon="1.90883">
        <ele>94</ele>
        <time>2015-05-12T14:44:58.000Z</time>
      </trkpt>
      <trkpt lat="50.82132" lon="1.90881">
        <ele>95</ele>
        <time>2015-05-12T14:44:59.000Z</time>
      </trkpt>
      <trkpt lat="50.82133" lon="1.90879">
        <ele>95</ele>
        <time>2015-05-12T14:45:00.000Z</time>
      </trkpt>
      <trkpt lat="50.82133" lon="1.90877">
        <ele>94</ele>
        <time>2015-05-12T14:45:01.000Z</time>
      </trkpt>
      <trkpt lat="50.82133" lon="1.90875">
        <ele>95</ele>
        <time>2015-05-12T14:45:02.000Z</time>
      </trkpt>
      <trkpt lat="50.82133" lon="1.90874">
        <ele>95</ele>
        <time>2015-05-12T14:45:03.000Z</time>
      </trkpt>
      <trkpt lat="50.82134" lon="1.90872">
        <ele>95</ele>
        <time>2015-05-12T14:45:04.000Z</time>
      </trkpt>
      <trkpt lat="50.82134" lon="1.9087">
        <ele>95</ele>
        <time>2015-05-12T14:45:05.000Z</time>
      </trkpt>
      <trkpt lat="50.82134" lon="1.90869">
        <ele>95</ele>
        <time>2015-05-12T14:45:06.000Z</time>
      </trkpt>
      <trkpt lat="50.82134" lon="1.90867">
        <ele>95</ele>
        <time>2015-05-12T14:45:07.000Z</time>
      </trkpt>
      <trkpt lat="50.82135" lon="1.90865">
        <ele>96</ele>
        <time>2015-05-12T14:45:08.000Z</time>
      </trkpt>
      <trkpt lat="50.82135" lon="1.90863">
        <ele>95</ele>
        <time>2015-05-12T14:45:09.000Z</time>
      </trkpt>
      <trkpt lat="50.82135" lon="1.90862">
        <ele>95</ele>
        <time>2015-05-12T14:45:10.000Z</time>
      </trkpt>
      <trkpt lat="50.82136" lon="1.9086">
        <ele>95</ele>
        <time>2015-05-12T14:45:11.000Z</time>
      </trkpt>
      <trkpt lat="50.82136" lon="1.90858">
        <ele>95</ele>
        <time>2015-05-12T14:45:12.000Z</time>
      </trkpt>
      <trkpt lat="50.82137" lon="1.90856">
        <ele>95</ele>
        <time>2015-05-12T14:45:13.000Z</time>
      </trkpt>
      <trkpt lat="50.82137" lon="1.90854">
        <ele>95</ele>
        <time>2015-05-12T14:45:14.000Z</time>
      </trkpt>
      <trkpt lat="50.82138" lon="1.90852">
        <ele>95</ele>
        <time>2015-05-12T14:45:15.000Z</time>
      </trkpt>
      <trkpt lat="50.82139" lon="1.9085">
        <ele>94</ele>
        <time>2015-05-12T14:45:16.000Z</time>
      </trkpt>
      <trkpt lat="50.8214" lon="1.90848">
        <ele>94</ele>
        <time>2015-05-12T14:45:17.000Z</time>
      </trkpt>
      <trkpt lat="50.82141" lon="1.90846">
        <ele>93</ele>
        <time>2015-05-12T14:45:18.000Z</time>
      </trkpt>
      <trkpt lat="50.82142" lon="1.90844">
        <ele>93</ele>
        <time>2015-05-12T14:45:19.000Z</time>
      </trkpt>
      <trkpt lat="50.82143" lon="1.90843">
        <ele>93</ele>
        <time>2015-05-12T14:45:20.000Z</time>
      </trkpt>
      <trkpt lat="50.82144" lon="1.90841">
        <ele>94</ele>
        <time>2015-05-12T14:45:21.000Z</time>
      </trkpt>
      <trkpt lat="50.82145" lon="1.9084">
        <ele>94</ele>
        <time>2015-05-12T14:45:22.000Z</time>
      </trkpt>
      <trkpt lat="50.82146" lon="1.90839">
        <ele>93</ele>
        <time>2015-05-12T14:45:23.000Z</time>
      </trkpt>
      <trkpt lat="50.82147" lon="1.90837">
        <ele>93</ele>
        <time>2015-05-12T14:45:24.000Z</time>
      </trkpt>
      <trkpt lat="50.82148" lon="1.90836">
        <ele>93</ele>
        <time>2015-05-12T14:45:25.000Z</time>
      </trkpt>
      <trkpt lat="50.8215" lon="1.90836">
        <ele>93</ele>
        <time>2015-05-12T14:45:26.000Z</time>
      </trkpt>
      <trkpt lat="50.82151" lon="1.90835">
        <ele>93</ele>
        <time>2015-05-12T14:45:27.000Z</time>
      </trkpt>
      <trkpt lat="50.82152" lon="1.90834">
        <ele>93</ele>
        <time>2015-05-12T14:45:28.000Z</time>
      </trkpt>
      <trkpt lat="50.82153" lon="1.90833">
        <ele>93</ele>
        <time>2015-05-12T14:45:29.000Z</time>
      </trkpt>
      <trkpt lat="50.82155" lon="1.90833">
        <ele>94</ele>
        <time>2015-05-12T14:45:30.000Z</time>
      </trkpt>
      <trkpt lat="50.82157" lon="1.90833">
        <ele>93</ele>
        <time>2015-05-12T14:45:31.000Z</time>
      </trkpt>
      <trkpt lat="50.82158" lon="1.90833">
        <ele>93</ele>
        <time>2015-05-12T14:45:32.000Z</time>
      </trkpt>
      <trkpt lat="50.8216" lon="1.90834">
        <ele>93</ele>
        <time>2015-05-12T14:45:33.000Z</time>
      </trkpt>
      <trkpt lat="50.82161" lon="1.90835">
        <ele>93</ele>
        <time>2015-05-12T14:45:34.000Z</time>
      </trkpt>
      <trkpt lat="50.82163" lon="1.90836">
        <ele>93</ele>
        <time>2015-05-12T14:45:35.000Z</time>
      </trkpt>
      <trkpt lat="50.82164" lon="1.90837">
        <ele>93</ele>
        <time>2015-05-12T14:45:36.000Z</time>
      </trkpt>
      <trkpt lat="50.82166" lon="1.90837">
        <ele>93</ele>
        <time>2015-05-12T14:45:37.000Z</time>
      </trkpt>
      <trkpt lat="50.82167" lon="1.90838">
        <ele>93</ele>
        <time>2015-05-12T14:45:38.000Z</time>
      </trkpt>
      <trkpt lat="50.82168" lon="1.90838">
        <ele>93</ele>
        <time>2015-05-12T14:45:39.000Z</time>
      </trkpt>
      <trkpt lat="50.82169" lon="1.90839">
        <ele>93</ele>
        <time>2015-05-12T14:45:40.000Z</time>
      </trkpt>
      <trkpt lat="50.8217" lon="1.90839">
        <ele>93</ele>
        <time>2015-05-12T14:45:41.000Z</time>
      </trkpt>
      <trkpt lat="50.82172" lon="1.90839">
        <ele>93</ele>
        <time>2015-05-12T14:45:42.000Z</time>
      </trkpt>
      <trkpt lat="50.82173" lon="1.9084">
        <ele>92</ele>
        <time>2015-05-12T14:45:43.000Z</time>
      </trkpt>
      <trkpt lat="50.82174" lon="1.9084">
        <ele>93</ele>
        <time>2015-05-12T14:45:44.000Z</time>
      </trkpt>
      <trkpt lat="50.82176" lon="1.90839">
        <ele>92</ele>
        <time>2015-05-12T14:45:45.000Z</time>
      </trkpt>
      <trkpt lat="50.82177" lon="1.90839">
        <ele>93</ele>
        <time>2015-05-12T14:45:46.000Z</time>
      </trkpt>
      <trkpt lat="50.82179" lon="1.90839">
        <ele>93</ele>
        <time>2015-05-12T14:45:47.000Z</time>
      </trkpt>
      <trkpt lat="50.8218" lon="1.90839">
        <ele>93</ele>
        <time>2015-05-12T14:45:48.000Z</time>
      </trkpt>
      <trkpt lat="50.82182" lon="1.90839">
        <ele>93</ele>
        <time>2015-05-12T14:45:49.000Z</time>
      </trkpt>
      <trkpt lat="50.82183" lon="1.90839">
        <ele>93</ele>
        <time>2015-05-12T14:45:50.000Z</time>
      </trkpt>
      <trkpt lat="50.82184" lon="1.90839">
        <ele>93</ele>
        <time>2015-05-12T14:45:51.000Z</time>
      </trkpt>
      <trkpt lat="50.82185" lon="1.90839">
        <ele>92</ele>
        <time>2015-05-12T14:45:52.000Z</time>
      </trkpt>
      <trkpt lat="50.82186" lon="1.90839">
        <ele>92</ele>
        <time>2015-05-12T14:45:53.000Z</time>
      </trkpt>
      <trkpt lat="50.82187" lon="1.90838">
        <ele>92</ele>
        <time>2015-05-12T14:45:54.000Z</time>
      </trkpt>
      <trkpt lat="50.82188" lon="1.90838">
        <ele>92</ele>
        <time>2015-05-12T14:45:55.000Z</time>
      </trkpt>
      <trkpt lat="50.82189" lon="1.90837">
        <ele>92</ele>
        <time>2015-05-12T14:45:56.000Z</time>
      </trkpt>
      <trkpt lat="50.82191" lon="1.90837">
        <ele>92</ele>
        <time>2015-05-12T14:45:57.000Z</time>
      </trkpt>
      <trkpt lat="50.82192" lon="1.90837">
        <ele>92</ele>
        <time>2015-05-12T14:45:58.000Z</time>
      </trkpt>
      <trkpt lat="50.82193" lon="1.90837">
        <ele>92</ele>
        <time>2015-05-12T14:45:59.000Z</time>
      </trkpt>
      <trkpt lat="50.82195" lon="1.90836">
        <ele>91</ele>
        <time>2015-05-12T14:46:00.000Z</time>
      </trkpt>
      <trkpt lat="50.82196" lon="1.90836">
        <ele>92</ele>
        <time>2015-05-12T14:46:01.000Z</time>
      </trkpt>
      <trkpt lat="50.82197" lon="1.90835">
        <ele>91</ele>
        <time>2015-05-12T14:46:02.000Z</time>
      </trkpt>
      <trkpt lat="50.82198" lon="1.90835">
        <ele>91</ele>
        <time>2015-05-12T14:46:03.000Z</time>
      </trkpt>
      <trkpt lat="50.82199" lon="1.90834">
        <ele>91</ele>
        <time>2015-05-12T14:46:04.000Z</time>
      </trkpt>
      <trkpt lat="50.82201" lon="1.90833">
        <ele>90</ele>
        <time>2015-05-12T14:46:05.000Z</time>
      </trkpt>
      <trkpt lat="50.82202" lon="1.90833">
        <ele>90</ele>
        <time>2015-05-12T14:46:06.000Z</time>
      </trkpt>
      <trkpt lat="50.82203" lon="1.90832">
        <ele>89</ele>
        <time>2015-05-12T14:46:07.000Z</time>
      </trkpt>
      <trkpt lat="50.82204" lon="1.90832">
        <ele>89</ele>
        <time>2015-05-12T14:46:08.000Z</time>
      </trkpt>
      <trkpt lat="50.82205" lon="1.90831">
        <ele>89</ele>
        <time>2015-05-12T14:46:09.000Z</time>
      </trkpt>
      <trkpt lat="50.82206" lon="1.90831">
        <ele>89</ele>
        <time>2015-05-12T14:46:10.000Z</time>
      </trkpt>
      <trkpt lat="50.82207" lon="1.9083">
        <ele>88</ele>
        <time>2015-05-12T14:46:11.000Z</time>
      </trkpt>
      <trkpt lat="50.82208" lon="1.90829">
        <ele>88</ele>
        <time>2015-05-12T14:46:12.000Z</time>
      </trkpt>
      <trkpt lat="50.82209" lon="1.90829">
        <ele>88</ele>
        <time>2015-05-12T14:46:13.000Z</time>
      </trkpt>
      <trkpt lat="50.8221" lon="1.90828">
        <ele>88</ele>
        <time>2015-05-12T14:46:14.000Z</time>
      </trkpt>
      <trkpt lat="50.82211" lon="1.90827">
        <ele>88</ele>
        <time>2015-05-12T14:46:15.000Z</time>
      </trkpt>
      <trkpt lat="50.82212" lon="1.90826">
        <ele>87</ele>
        <time>2015-05-12T14:46:16.000Z</time>
      </trkpt>
      <trkpt lat="50.82214" lon="1.90825">
        <ele>87</ele>
        <time>2015-05-12T14:46:17.000Z</time>
      </trkpt>
      <trkpt lat="50.82215" lon="1.90824">
        <ele>88</ele>
        <time>2015-05-12T14:46:18.000Z</time>
      </trkpt>
      <trkpt lat="50.82216" lon="1.90824">
        <ele>88</ele>
        <time>2015-05-12T14:46:19.000Z</time>
      </trkpt>
      <trkpt lat="50.82217" lon="1.90823">
        <ele>88</ele>
        <time>2015-05-12T14:46:20.000Z</time>
      </trkpt>
      <trkpt lat="50.82218" lon="1.90823">
        <ele>88</ele>
        <time>2015-05-12T14:46:21.000Z</time>
      </trkpt>
      <trkpt lat="50.82219" lon="1.90822">
        <ele>88</ele>
        <time>2015-05-12T14:46:22.000Z</time>
      </trkpt>
      <trkpt lat="50.82219" lon="1.90821">
        <ele>88</ele>
        <time>2015-05-12T14:46:23.000Z</time>
      </trkpt>
      <trkpt lat="50.8222" lon="1.9082">
        <ele>88</ele>
        <time>2015-05-12T14:46:24.000Z</time>
      </trkpt>
      <trkpt lat="50.82221" lon="1.90819">
        <ele>87</ele>
        <time>2015-05-12T14:46:25.000Z</time>
      </trkpt>
      <trkpt lat="50.82222" lon="1.90818">
        <ele>87</ele>
        <time>2015-05-12T14:46:26.000Z</time>
      </trkpt>
      <trkpt lat="50.82223" lon="1.90817">
        <ele>87</ele>
        <time>2015-05-12T14:46:27.000Z</time>
      </trkpt>
      <trkpt lat="50.82224" lon="1.90817">
        <ele>87</ele>
        <time>2015-05-12T14:46:28.000Z</time>
      </trkpt>
      <trkpt lat="50.82226" lon="1.90816">
        <ele>87</ele>
        <time>2015-05-12T14:46:29.000Z</time>
      </trkpt>
      <trkpt lat="50.82227" lon="1.90815">
        <ele>87</ele>
        <time>2015-05-12T14:46:30.000Z</time>
      </trkpt>
      <trkpt lat="50.82228" lon="1.90814">
        <ele>87</ele>
        <time>2015-05-12T14:46:31.000Z</time>
      </trkpt>
      <trkpt lat="50.82229" lon="1.90814">
        <ele>87</ele>
        <time>2015-05-12T14:46:32.000Z</time>
      </trkpt>
      <trkpt lat="50.8223" lon="1.90813">
        <ele>87</ele>
        <time>2015-05-12T14:46:33.000Z</time>
      </trkpt>
      <trkpt lat="50.82231" lon="1.90812">
        <ele>87</ele>
        <time>2015-05-12T14:46:34.000Z</time>
      </trkpt>
      <trkpt lat="50.82232" lon="1.90811">
        <ele>86</ele>
        <time>2015-05-12T14:46:35.000Z</time>
      </trkpt>
      <trkpt lat="50.82233" lon="1.90811">
        <ele>86</ele>
        <time>2015-05-12T14:46:36.000Z</time>
      </trkpt>
      <trkpt lat="50.82235" lon="1.9081">
        <ele>86</ele>
        <time>2015-05-12T14:46:37.000Z</time>
      </trkpt>
      <trkpt lat="50.82236" lon="1.90809">
        <ele>86</ele>
        <time>2015-05-12T14:46:38.000Z</time>
      </trkpt>
      <trkpt lat="50.82237" lon="1.90808">
        <ele>86</ele>
        <time>2015-05-12T14:46:39.000Z</time>
      </trkpt>
      <trkpt lat="50.82238" lon="1.90808">
        <ele>86</ele>
        <time>2015-05-12T14:46:40.000Z</time>
      </trkpt>
      <trkpt lat="50.82239" lon="1.90807">
        <ele>86</ele>
        <time>2015-05-12T14:46:41.000Z</time>
      </trkpt>
      <trkpt lat="50.8224" lon="1.90806">
        <ele>86</ele>
        <time>2015-05-12T14:46:42.000Z</time>
      </trkpt>
      <trkpt lat="50.82242" lon="1.90805">
        <ele>86</ele>
        <time>2015-05-12T14:46:43.000Z</time>
      </trkpt>
      <trkpt lat="50.82243" lon="1.90805">
        <ele>86</ele>
        <time>2015-05-12T14:46:44.000Z</time>
      </trkpt>
      <trkpt lat="50.82244" lon="1.90804">
        <ele>85</ele>
        <time>2015-05-12T14:46:45.000Z</time>
      </trkpt>
      <trkpt lat="50.82244" lon="1.90803">
        <ele>85</ele>
        <time>2015-05-12T14:46:46.000Z</time>
      </trkpt>
      <trkpt lat="50.82245" lon="1.90803">
        <ele>85</ele>
        <time>2015-05-12T14:46:47.000Z</time>
      </trkpt>
      <trkpt lat="50.82246" lon="1.90802">
        <ele>84</ele>
        <time>2015-05-12T14:46:48.000Z</time>
      </trkpt>
      <trkpt lat="50.82248" lon="1.90801">
        <ele>84</ele>
        <time>2015-05-12T14:46:49.000Z</time>
      </trkpt>
      <trkpt lat="50.82249" lon="1.908">
        <ele>84</ele>
        <time>2015-05-12T14:46:50.000Z</time>
      </trkpt>
      <trkpt lat="50.8225" lon="1.90799">
        <ele>83</ele>
        <time>2015-05-12T14:46:51.000Z</time>
      </trkpt>
      <trkpt lat="50.82251" lon="1.90798">
        <ele>83</ele>
        <time>2015-05-12T14:46:52.000Z</time>
      </trkpt>
      <trkpt lat="50.82252" lon="1.90798">
        <ele>84</ele>
        <time>2015-05-12T14:46:53.000Z</time>
      </trkpt>
      <trkpt lat="50.82253" lon="1.90797">
        <ele>83</ele>
        <time>2015-05-12T14:46:54.000Z</time>
      </trkpt>
      <trkpt lat="50.82254" lon="1.90796">
        <ele>83</ele>
        <time>2015-05-12T14:46:55.000Z</time>
      </trkpt>
      <trkpt lat="50.82255" lon="1.90795">
        <ele>83</ele>
        <time>2015-05-12T14:46:56.000Z</time>
      </trkpt>
      <trkpt lat="50.82256" lon="1.90794">
        <ele>83</ele>
        <time>2015-05-12T14:46:57.000Z</time>
      </trkpt>
      <trkpt lat="50.82257" lon="1.90793">
        <ele>82</ele>
        <time>2015-05-12T14:46:58.000Z</time>
      </trkpt>
      <trkpt lat="50.82258" lon="1.90793">
        <ele>82</ele>
        <time>2015-05-12T14:46:59.000Z</time>
      </trkpt>
      <trkpt lat="50.82259" lon="1.90792">
        <ele>82</ele>
        <time>2015-05-12T14:47:00.000Z</time>
      </trkpt>
      <trkpt lat="50.8226" lon="1.90791">
        <ele>83</ele>
        <time>2015-05-12T14:47:01.000Z</time>
      </trkpt>
      <trkpt lat="50.82261" lon="1.9079">
        <ele>83</ele>
        <time>2015-05-12T14:47:02.000Z</time>
      </trkpt>
      <trkpt lat="50.82263" lon="1.9079">
        <ele>82</ele>
        <time>2015-05-12T14:47:03.000Z</time>
      </trkpt>
      <trkpt lat="50.82264" lon="1.90789">
        <ele>82</ele>
        <time>2015-05-12T14:47:04.000Z</time>
      </trkpt>
      <trkpt lat="50.82264" lon="1.90788">
        <ele>82</ele>
        <time>2015-05-12T14:47:05.000Z</time>
      </trkpt>
      <trkpt lat="50.82265" lon="1.90787">
        <ele>82</ele>
        <time>2015-05-12T14:47:06.000Z</time>
      </trkpt>
      <trkpt lat="50.82266" lon="1.90786">
        <ele>82</ele>
        <time>2015-05-12T14:47:07.000Z</time>
      </trkpt>
      <trkpt lat="50.82267" lon="1.90785">
        <ele>82</ele>
        <time>2015-05-12T14:47:08.000Z</time>
      </trkpt>
      <trkpt lat="50.82268" lon="1.90785">
        <ele>83</ele>
        <time>2015-05-12T14:47:09.000Z</time>
      </trkpt>
      <trkpt lat="50.82269" lon="1.90784">
        <ele>83</ele>
        <time>2015-05-12T14:47:10.000Z</time>
      </trkpt>
      <trkpt lat="50.82271" lon="1.90783">
        <ele>83</ele>
        <time>2015-05-12T14:47:11.000Z</time>
      </trkpt>
      <trkpt lat="50.82272" lon="1.90783">
        <ele>83</ele>
        <time>2015-05-12T14:47:12.000Z</time>
      </trkpt>
      <trkpt lat="50.82273" lon="1.90782">
        <ele>83</ele>
        <time>2015-05-12T14:47:13.000Z</time>
      </trkpt>
      <trkpt lat="50.82274" lon="1.90781">
        <ele>83</ele>
        <time>2015-05-12T14:47:14.000Z</time>
      </trkpt>
      <trkpt lat="50.82275" lon="1.9078">
        <ele>83</ele>
        <time>2015-05-12T14:47:15.000Z</time>
      </trkpt>
      <trkpt lat="50.82276" lon="1.9078">
        <ele>83</ele>
        <time>2015-05-12T14:47:16.000Z</time>
      </trkpt>
      <trkpt lat="50.82277" lon="1.90779">
        <ele>83</ele>
        <time>2015-05-12T14:47:17.000Z</time>
      </trkpt>
      <trkpt lat="50.82279" lon="1.90778">
        <ele>83</ele>
        <time>2015-05-12T14:47:18.000Z</time>
      </trkpt>
      <trkpt lat="50.8228" lon="1.90777">
        <ele>83</ele>
        <time>2015-05-12T14:47:19.000Z</time>
      </trkpt>
      <trkpt lat="50.8228" lon="1.90776">
        <ele>83</ele>
        <time>2015-05-12T14:47:20.000Z</time>
      </trkpt>
      <trkpt lat="50.82281" lon="1.90775">
        <ele>82</ele>
        <time>2015-05-12T14:47:21.000Z</time>
      </trkpt>
      <trkpt lat="50.82283" lon="1.90774">
        <ele>82</ele>
        <time>2015-05-12T14:47:22.000Z</time>
      </trkpt>
      <trkpt lat="50.82284" lon="1.90773">
        <ele>82</ele>
        <time>2015-05-12T14:47:23.000Z</time>
      </trkpt>
      <trkpt lat="50.82285" lon="1.90773">
        <ele>82</ele>
        <time>2015-05-12T14:47:24.000Z</time>
      </trkpt>
      <trkpt lat="50.82286" lon="1.90772">
        <ele>81</ele>
        <time>2015-05-12T14:47:25.000Z</time>
      </trkpt>
      <trkpt lat="50.82287" lon="1.90771">
        <ele>81</ele>
        <time>2015-05-12T14:47:26.000Z</time>
      </trkpt>
      <trkpt lat="50.82288" lon="1.9077">
        <ele>81</ele>
        <time>2015-05-12T14:47:27.000Z</time>
      </trkpt>
      <trkpt lat="50.82289" lon="1.90769">
        <ele>81</ele>
        <time>2015-05-12T14:47:28.000Z</time>
      </trkpt>
      <trkpt lat="50.8229" lon="1.90769">
        <ele>81</ele>
        <time>2015-05-12T14:47:29.000Z</time>
      </trkpt>
      <trkpt lat="50.82291" lon="1.90768">
        <ele>81</ele>
        <time>2015-05-12T14:47:30.000Z</time>
      </trkpt>
      <trkpt lat="50.82292" lon="1.90767">
        <ele>81</ele>
        <time>2015-05-12T14:47:31.000Z</time>
      </trkpt>
      <trkpt lat="50.82293" lon="1.90766">
        <ele>81</ele>
        <time>2015-05-12T14:47:32.000Z</time>
      </trkpt>
      <trkpt lat="50.82294" lon="1.90765">
        <ele>81</ele>
        <time>2015-05-12T14:47:33.000Z</time>
      </trkpt>
      <trkpt lat="50.82295" lon="1.90765">
        <ele>81</ele>
        <time>2015-05-12T14:47:34.000Z</time>
      </trkpt>
      <trkpt lat="50.82296" lon="1.90764">
        <ele>81</ele>
        <time>2015-05-12T14:47:35.000Z</time>
      </trkpt>
      <trkpt lat="50.82297" lon="1.90763">
        <ele>81</ele>
        <time>2015-05-12T14:47:36.000Z</time>
      </trkpt>
      <trkpt lat="50.82298" lon="1.90762">
        <ele>81</ele>
        <time>2015-05-12T14:47:37.000Z</time>
      </trkpt>
      <trkpt lat="50.82299" lon="1.90761">
        <ele>81</ele>
        <time>2015-05-12T14:47:38.000Z</time>
      </trkpt>
      <trkpt lat="50.823" lon="1.9076">
        <ele>81</ele>
        <time>2015-05-12T14:47:39.000Z</time>
      </trkpt>
      <trkpt lat="50.82301" lon="1.9076">
        <ele>81</ele>
        <time>2015-05-12T14:47:40.000Z</time>
      </trkpt>
      <trkpt lat="50.82303" lon="1.90759">
        <ele>81</ele>
        <time>2015-05-12T14:47:41.000Z</time>
      </trkpt>
      <trkpt lat="50.82304" lon="1.90758">
        <ele>81</ele>
        <time>2015-05-12T14:47:42.000Z</time>
      </trkpt>
      <trkpt lat="50.82305" lon="1.90757">
        <ele>80</ele>
        <time>2015-05-12T14:47:43.000Z</time>
      </trkpt>
      <trkpt lat="50.82306" lon="1.90756">
        <ele>80</ele>
        <time>2015-05-12T14:47:44.000Z</time>
      </trkpt>
      <trkpt lat="50.82307" lon="1.90756">
        <ele>80</ele>
        <time>2015-05-12T14:47:45.000Z</time>
      </trkpt>
      <trkpt lat="50.82308" lon="1.90755">
        <ele>79</ele>
        <time>2015-05-12T14:47:46.000Z</time>
      </trkpt>
      <trkpt lat="50.82309" lon="1.90754">
        <ele>79</ele>
        <time>2015-05-12T14:47:47.000Z</time>
      </trkpt>
      <trkpt lat="50.8231" lon="1.90753">
        <ele>79</ele>
        <time>2015-05-12T14:47:48.000Z</time>
      </trkpt>
      <trkpt lat="50.82311" lon="1.90752">
        <ele>79</ele>
        <time>2015-05-12T14:47:49.000Z</time>
      </trkpt>
      <trkpt lat="50.82313" lon="1.90751">
        <ele>79</ele>
        <time>2015-05-12T14:47:50.000Z</time>
      </trkpt>
      <trkpt lat="50.82314" lon="1.9075">
        <ele>79</ele>
        <time>2015-05-12T14:47:51.000Z</time>
      </trkpt>
      <trkpt lat="50.82315" lon="1.90749">
        <ele>79</ele>
        <time>2015-05-12T14:47:52.000Z</time>
      </trkpt>
      <trkpt lat="50.82316" lon="1.90748">
        <ele>78</ele>
        <time>2015-05-12T14:47:53.000Z</time>
      </trkpt>
      <trkpt lat="50.82317" lon="1.90747">
        <ele>79</ele>
        <time>2015-05-12T14:47:54.000Z</time>
      </trkpt>
      <trkpt lat="50.82318" lon="1.90747">
        <ele>78</ele>
        <time>2015-05-12T14:47:55.000Z</time>
      </trkpt>
      <trkpt lat="50.82319" lon="1.90746">
        <ele>78</ele>
        <time>2015-05-12T14:47:56.000Z</time>
      </trkpt>
      <trkpt lat="50.8232" lon="1.90745">
        <ele>78</ele>
        <time>2015-05-12T14:47:57.000Z</time>
      </trkpt>
      <trkpt lat="50.82321" lon="1.90745">
        <ele>78</ele>
        <time>2015-05-12T14:47:58.000Z</time>
      </trkpt>
      <trkpt lat="50.82322" lon="1.90744">
        <ele>78</ele>
        <time>2015-05-12T14:47:59.000Z</time>
      </trkpt>
      <trkpt lat="50.82323" lon="1.90743">
        <ele>78</ele>
        <time>2015-05-12T14:48:00.000Z</time>
      </trkpt>
      <trkpt lat="50.82324" lon="1.90742">
        <ele>77</ele>
        <time>2015-05-12T14:48:01.000Z</time>
      </trkpt>
      <trkpt lat="50.82325" lon="1.90741">
        <ele>77</ele>
        <time>2015-05-12T14:48:02.000Z</time>
      </trkpt>
      <trkpt lat="50.82326" lon="1.9074">
        <ele>78</ele>
        <time>2015-05-12T14:48:03.000Z</time>
      </trkpt>
      <trkpt lat="50.82327" lon="1.90739">
        <ele>78</ele>
        <time>2015-05-12T14:48:04.000Z</time>
      </trkpt>
      <trkpt lat="50.82328" lon="1.90739">
        <ele>78</ele>
        <time>2015-05-12T14:48:05.000Z</time>
      </trkpt>
      <trkpt lat="50.82329" lon="1.90738">
        <ele>78</ele>
        <time>2015-05-12T14:48:06.000Z</time>
      </trkpt>
      <trkpt lat="50.8233" lon="1.90737">
        <ele>78</ele>
        <time>2015-05-12T14:48:07.000Z</time>
      </trkpt>
      <trkpt lat="50.82331" lon="1.90736">
        <ele>78</ele>
        <time>2015-05-12T14:48:08.000Z</time>
      </trkpt>
      <trkpt lat="50.82332" lon="1.90735">
        <ele>78</ele>
        <time>2015-05-12T14:48:09.000Z</time>
      </trkpt>
      <trkpt lat="50.82333" lon="1.90734">
        <ele>78</ele>
        <time>2015-05-12T14:48:10.000Z</time>
      </trkpt>
      <trkpt lat="50.82334" lon="1.90733">
        <ele>78</ele>
        <time>2015-05-12T14:48:11.000Z</time>
      </trkpt>
      <trkpt lat="50.82335" lon="1.90732">
        <ele>78</ele>
        <time>2015-05-12T14:48:12.000Z</time>
      </trkpt>
      <trkpt lat="50.82336" lon="1.90732">
        <ele>78</ele>
        <time>2015-05-12T14:48:13.000Z</time>
      </trkpt>
      <trkpt lat="50.82337" lon="1.90731">
        <ele>77</ele>
        <time>2015-05-12T14:48:14.000Z</time>
      </trkpt>
      <trkpt lat="50.82338" lon="1.9073">
        <ele>77</ele>
        <time>2015-05-12T14:48:15.000Z</time>
      </trkpt>
      <trkpt lat="50.82339" lon="1.90729">
        <ele>78</ele>
        <time>2015-05-12T14:48:16.000Z</time>
      </trkpt>
      <trkpt lat="50.8234" lon="1.90729">
        <ele>78</ele>
        <time>2015-05-12T14:48:17.000Z</time>
      </trkpt>
      <trkpt lat="50.82341" lon="1.90728">
        <ele>78</ele>
        <time>2015-05-12T14:48:18.000Z</time>
      </trkpt>
      <trkpt lat="50.82342" lon="1.90727">
        <ele>78</ele>
        <time>2015-05-12T14:48:19.000Z</time>
      </trkpt>
      <trkpt lat="50.82343" lon="1.90727">
        <ele>78</ele>
        <time>2015-05-12T14:48:20.000Z</time>
      </trkpt>
      <trkpt lat="50.82343" lon="1.90726">
        <ele>78</ele>
        <time>2015-05-12T14:48:21.000Z</time>
      </trkpt>
      <trkpt lat="50.82344" lon="1.90726">
        <ele>78</ele>
        <time>2015-05-12T14:48:22.000Z</time>
      </trkpt>
      <trkpt lat="50.82344" lon="1.90726">
        <ele>77</ele>
        <time>2015-05-12T14:48:23.000Z</time>
      </trkpt>
      <trkpt lat="50.82344" lon="1.90726">
        <ele>77</ele>
        <time>2015-05-12T14:48:24.000Z</time>
      </trkpt>
      <trkpt lat="50.82344" lon="1.90726">
        <ele>77</ele>
        <time>2015-05-12T14:48:25.000Z</time>
      </trkpt>
      <trkpt lat="50.82344" lon="1.90726">
        <ele>78</ele>
        <time>2015-05-12T14:48:26.000Z</time>
      </trkpt>
      <trkpt lat="50.82344" lon="1.90726">
        <ele>78</ele>
        <time>2015-05-12T14:48:27.000Z</time>
      </trkpt>
      <trkpt lat="50.82344" lon="1.90726">
        <ele>78</ele>
        <time>2015-05-12T14:48:28.000Z</time>
      </trkpt>
      <trkpt lat="50.82344" lon="1.90726">
        <ele>77</ele>
        <time>2015-05-12T14:48:29.000Z</time>
      </trkpt>
      <trkpt lat="50.82344" lon="1.90726">
        <ele>77</ele>
        <time>2015-05-12T14:48:30.000Z</time>
      </trkpt>
      <trkpt lat="50.82345" lon="1.90726">
        <ele>77</ele>
        <time>2015-05-12T14:48:31.000Z</time>
      </trkpt>
      <trkpt lat="50.82346" lon="1.90725">
        <ele>77</ele>
        <time>2015-05-12T14:48:32.000Z</time>
      </trkpt>
      <trkpt lat="50.82347" lon="1.90725">
        <ele>77</ele>
        <time>2015-05-12T14:48:33.000Z</time>
      </trkpt>
      <trkpt lat="50.82349" lon="1.90724">
        <ele>76</ele>
        <time>2015-05-12T14:48:34.000Z</time>
      </trkpt>
      <trkpt lat="50.8235" lon="1.90724">
        <ele>76</ele>
        <time>2015-05-12T14:48:35.000Z</time>
      </trkpt>
      <trkpt lat="50.82351" lon="1.90724">
        <ele>75</ele>
        <time>2015-05-12T14:48:36.000Z</time>
      </trkpt>
      <trkpt lat="50.82352" lon="1.90724">
        <ele>76</ele>
        <time>2015-05-12T14:48:37.000Z</time>
      </trkpt>
      <trkpt lat="50.82354" lon="1.90723">
        <ele>75</ele>
        <time>2015-05-12T14:48:38.000Z</time>
      </trkpt>
      <trkpt lat="50.82355" lon="1.90723">
        <ele>76</ele>
        <time>2015-05-12T14:48:39.000Z</time>
      </trkpt>
      <trkpt lat="50.82356" lon="1.90723">
        <ele>76</ele>
        <time>2015-05-12T14:48:40.000Z</time>
      </trkpt>
      <trkpt lat="50.82358" lon="1.90723">
        <ele>75</ele>
        <time>2015-05-12T14:48:41.000Z</time>
      </trkpt>
      <trkpt lat="50.82359" lon="1.90722">
        <ele>75</ele>
        <time>2015-05-12T14:48:42.000Z</time>
      </trkpt>
      <trkpt lat="50.8236" lon="1.90722">
        <ele>75</ele>
        <time>2015-05-12T14:48:43.000Z</time>
      </trkpt>
      <trkpt lat="50.82361" lon="1.90722">
        <ele>74</ele>
        <time>2015-05-12T14:48:44.000Z</time>
      </trkpt>
      <trkpt lat="50.82363" lon="1.90722">
        <ele>74</ele>
        <time>2015-05-12T14:48:45.000Z</time>
      </trkpt>
      <trkpt lat="50.82364" lon="1.90722">
        <ele>75</ele>
        <time>2015-05-12T14:48:46.000Z</time>
      </trkpt>
      <trkpt lat="50.82365" lon="1.90722">
        <ele>75</ele>
        <time>2015-05-12T14:48:47.000Z</time>
      </trkpt>
      <trkpt lat="50.82367" lon="1.90722">
        <ele>75</ele>
        <time>2015-05-12T14:48:48.000Z</time>
      </trkpt>
      <trkpt lat="50.82368" lon="1.90722">
        <ele>75</ele>
        <time>2015-05-12T14:48:49.000Z</time>
      </trkpt>
      <trkpt lat="50.82369" lon="1.90721">
        <ele>75</ele>
        <time>2015-05-12T14:48:50.000Z</time>
      </trkpt>
      <trkpt lat="50.8237" lon="1.90721">
        <ele>75</ele>
        <time>2015-05-12T14:48:51.000Z</time>
      </trkpt>
      <trkpt lat="50.82371" lon="1.9072">
        <ele>75</ele>
        <time>2015-05-12T14:48:52.000Z</time>
      </trkpt>
      <trkpt lat="50.82372" lon="1.9072">
        <ele>75</ele>
        <time>2015-05-12T14:48:53.000Z</time>
      </trkpt>
      <trkpt lat="50.82373" lon="1.90719">
        <ele>75</ele>
        <time>2015-05-12T14:48:54.000Z</time>
      </trkpt>
      <trkpt lat="50.82374" lon="1.90719">
        <ele>74</ele>
        <time>2015-05-12T14:48:55.000Z</time>
      </trkpt>
      <trkpt lat="50.82376" lon="1.90719">
        <ele>74</ele>
        <time>2015-05-12T14:48:56.000Z</time>
      </trkpt>
      <trkpt lat="50.82377" lon="1.90719">
        <ele>74</ele>
        <time>2015-05-12T14:48:57.000Z</time>
      </trkpt>
      <trkpt lat="50.82378" lon="1.90719">
        <ele>74</ele>
        <time>2015-05-12T14:48:58.000Z</time>
      </trkpt>
      <trkpt lat="50.82379" lon="1.90718">
        <ele>74</ele>
        <time>2015-05-12T14:48:59.000Z</time>
      </trkpt>
      <trkpt lat="50.82381" lon="1.90718">
        <ele>74</ele>
        <time>2015-05-12T14:49:00.000Z</time>
      </trkpt>
      <trkpt lat="50.82382" lon="1.90718">
        <ele>74</ele>
        <time>2015-05-12T14:49:01.000Z</time>
      </trkpt>
      <trkpt lat="50.82384" lon="1.90718">
        <ele>73</ele>
        <time>2015-05-12T14:49:02.000Z</time>
      </trkpt>
      <trkpt lat="50.82385" lon="1.90717">
        <ele>72</ele>
        <time>2015-05-12T14:49:03.000Z</time>
      </trkpt>
      <trkpt lat="50.82386" lon="1.90717">
        <ele>72</ele>
        <time>2015-05-12T14:49:04.000Z</time>
      </trkpt>
      <trkpt lat="50.82387" lon="1.90716">
        <ele>72</ele>
        <time>2015-05-12T14:49:05.000Z</time>
      </trkpt>
      <trkpt lat="50.82389" lon="1.90716">
        <ele>72</ele>
        <time>2015-05-12T14:49:06.000Z</time>
      </trkpt>
      <trkpt lat="50.8239" lon="1.90716">
        <ele>72</ele>
        <time>2015-05-12T14:49:07.000Z</time>
      </trkpt>
      <trkpt lat="50.82391" lon="1.90716">
        <ele>72</ele>
        <time>2015-05-12T14:49:08.000Z</time>
      </trkpt>
      <trkpt lat="50.82392" lon="1.90716">
        <ele>71</ele>
        <time>2015-05-12T14:49:09.000Z</time>
      </trkpt>
      <trkpt lat="50.82393" lon="1.90716">
        <ele>72</ele>
        <time>2015-05-12T14:49:10.000Z</time>
      </trkpt>
      <trkpt lat="50.82395" lon="1.90715">
        <ele>72</ele>
        <time>2015-05-12T14:49:11.000Z</time>
      </trkpt>
      <trkpt lat="50.82396" lon="1.90715">
        <ele>72</ele>
        <time>2015-05-12T14:49:12.000Z</time>
      </trkpt>
      <trkpt lat="50.82397" lon="1.90715">
        <ele>71</ele>
        <time>2015-05-12T14:49:13.000Z</time>
      </trkpt>
      <trkpt lat="50.82398" lon="1.90715">
        <ele>71</ele>
        <time>2015-05-12T14:49:14.000Z</time>
      </trkpt>
      <trkpt lat="50.82399" lon="1.90714">
        <ele>72</ele>
        <time>2015-05-12T14:49:15.000Z</time>
      </trkpt>
      <trkpt lat="50.824" lon="1.90714">
        <ele>71</ele>
        <time>2015-05-12T14:49:16.000Z</time>
      </trkpt>
      <trkpt lat="50.82402" lon="1.90714">
        <ele>72</ele>
        <time>2015-05-12T14:49:17.000Z</time>
      </trkpt>
      <trkpt lat="50.82403" lon="1.90714">
        <ele>72</ele>
        <time>2015-05-12T14:49:18.000Z</time>
      </trkpt>
      <trkpt lat="50.82404" lon="1.90714">
        <ele>72</ele>
        <time>2015-05-12T14:49:19.000Z</time>
      </trkpt>
      <trkpt lat="50.82405" lon="1.90714">
        <ele>72</ele>
        <time>2015-05-12T14:49:20.000Z</time>
      </trkpt>
      <trkpt lat="50.82406" lon="1.90715">
        <ele>72</ele>
        <time>2015-05-12T14:49:21.000Z</time>
      </trkpt>
      <trkpt lat="50.82407" lon="1.90715">
        <ele>72</ele>
        <time>2015-05-12T14:49:22.000Z</time>
      </trkpt>
      <trkpt lat="50.82408" lon="1.90715">
        <ele>72</ele>
        <time>2015-05-12T14:49:23.000Z</time>
      </trkpt>
      <trkpt lat="50.82409" lon="1.90715">
        <ele>71</ele>
        <time>2015-05-12T14:49:24.000Z</time>
      </trkpt>
      <trkpt lat="50.8241" lon="1.90715">
        <ele>71</ele>
        <time>2015-05-12T14:49:25.000Z</time>
      </trkpt>
      <trkpt lat="50.82411" lon="1.90715">
        <ele>71</ele>
        <time>2015-05-12T14:49:26.000Z</time>
      </trkpt>
      <trkpt lat="50.82412" lon="1.90714">
        <ele>71</ele>
        <time>2015-05-12T14:49:27.000Z</time>
      </trkpt>
      <trkpt lat="50.82414" lon="1.90714">
        <ele>71</ele>
        <time>2015-05-12T14:49:28.000Z</time>
      </trkpt>
      <trkpt lat="50.82415" lon="1.90713">
        <ele>72</ele>
        <time>2015-05-12T14:49:29.000Z</time>
      </trkpt>
      <trkpt lat="50.82416" lon="1.90713">
        <ele>72</ele>
        <time>2015-05-12T14:49:30.000Z</time>
      </trkpt>
      <trkpt lat="50.82417" lon="1.90713">
        <ele>71</ele>
        <time>2015-05-12T14:49:31.000Z</time>
      </trkpt>
      <trkpt lat="50.82418" lon="1.90712">
        <ele>71</ele>
        <time>2015-05-12T14:49:32.000Z</time>
      </trkpt>
      <trkpt lat="50.82419" lon="1.90712">
        <ele>72</ele>
        <time>2015-05-12T14:49:33.000Z</time>
      </trkpt>
      <trkpt lat="50.8242" lon="1.90712">
        <ele>72</ele>
        <time>2015-05-12T14:49:34.000Z</time>
      </trkpt>
      <trkpt lat="50.8242" lon="1.90713">
        <ele>72</ele>
        <time>2015-05-12T14:49:35.000Z</time>
      </trkpt>
      <trkpt lat="50.82421" lon="1.90713">
        <ele>72</ele>
        <time>2015-05-12T14:49:36.000Z</time>
      </trkpt>
      <trkpt lat="50.82421" lon="1.90713">
        <ele>72</ele>
        <time>2015-05-12T14:49:37.000Z</time>
      </trkpt>
      <trkpt lat="50.82421" lon="1.90713">
        <ele>72</ele>
        <time>2015-05-12T14:49:38.000Z</time>
      </trkpt>
      <trkpt lat="50.82421" lon="1.90714">
        <ele>72</ele>
        <time>2015-05-12T14:49:39.000Z</time>
      </trkpt>
      <trkpt lat="50.82422" lon="1.90714">
        <ele>72</ele>
        <time>2015-05-12T14:49:40.000Z</time>
      </trkpt>
      <trkpt lat="50.82422" lon="1.90714">
        <ele>72</ele>
        <time>2015-05-12T14:49:41.000Z</time>
      </trkpt>
      <trkpt lat="50.82422" lon="1.90714">
        <ele>72</ele>
        <time>2015-05-12T14:49:42.000Z</time>
      </trkpt>
      <trkpt lat="50.82422" lon="1.90713">
        <ele>72</ele>
        <time>2015-05-12T14:49:43.000Z</time>
      </trkpt>
      <trkpt lat="50.82422" lon="1.90713">
        <ele>72</ele>
        <time>2015-05-12T14:49:44.000Z</time>
      </trkpt>
      <trkpt lat="50.82422" lon="1.90713">
        <ele>71</ele>
        <time>2015-05-12T14:49:45.000Z</time>
      </trkpt>
      <trkpt lat="50.82423" lon="1.90713">
        <ele>71</ele>
        <time>2015-05-12T14:49:46.000Z</time>
      </trkpt>
      <trkpt lat="50.82423" lon="1.90713">
        <ele>71</ele>
        <time>2015-05-12T14:49:47.000Z</time>
      </trkpt>
      <trkpt lat="50.82424" lon="1.90713">
        <ele>71</ele>
        <time>2015-05-12T14:49:48.000Z</time>
      </trkpt>
      <trkpt lat="50.82424" lon="1.90713">
        <ele>71</ele>
        <time>2015-05-12T14:49:49.000Z</time>
      </trkpt>
      <trkpt lat="50.82425" lon="1.90713">
        <ele>71</ele>
        <time>2015-05-12T14:49:50.000Z</time>
      </trkpt>
      <trkpt lat="50.82425" lon="1.90713">
        <ele>71</ele>
        <time>2015-05-12T14:49:51.000Z</time>
      </trkpt>
      <trkpt lat="50.82425" lon="1.90713">
        <ele>71</ele>
        <time>2015-05-12T14:49:52.000Z</time>
      </trkpt>
      <trkpt lat="50.82425" lon="1.90713">
        <ele>72</ele>
        <time>2015-05-12T14:49:53.000Z</time>
      </trkpt>
      <trkpt lat="50.82426" lon="1.90713">
        <ele>71</ele>
        <time>2015-05-12T14:49:54.000Z</time>
      </trkpt>
      <trkpt lat="50.82427" lon="1.90713">
        <ele>71</ele>
        <time>2015-05-12T14:49:55.000Z</time>
      </trkpt>
      <trkpt lat="50.82428" lon="1.90713">
        <ele>71</ele>
        <time>2015-05-12T14:49:56.000Z</time>
      </trkpt>
      <trkpt lat="50.82428" lon="1.90712">
        <ele>71</ele>
        <time>2015-05-12T14:49:57.000Z</time>
      </trkpt>
      <trkpt lat="50.82429" lon="1.90712">
        <ele>71</ele>
        <time>2015-05-12T14:49:58.000Z</time>
      </trkpt>
      <trkpt lat="50.8243" lon="1.90712">
        <ele>71</ele>
        <time>2015-05-12T14:49:59.000Z</time>
      </trkpt>
      <trkpt lat="50.82431" lon="1.90712">
        <ele>71</ele>
        <time>2015-05-12T14:50:00.000Z</time>
      </trkpt>
      <trkpt lat="50.82431" lon="1.90712">
        <ele>72</ele>
        <time>2015-05-12T14:50:01.000Z</time>
      </trkpt>
      <trkpt lat="50.82432" lon="1.90712">
        <ele>72</ele>
        <time>2015-05-12T14:50:02.000Z</time>
      </trkpt>
      <trkpt lat="50.82433" lon="1.90712">
        <ele>72</ele>
        <time>2015-05-12T14:50:03.000Z</time>
      </trkpt>
      <trkpt lat="50.82434" lon="1.90712">
        <ele>72</ele>
        <time>2015-05-12T14:50:04.000Z</time>
      </trkpt>
      <trkpt lat="50.82435" lon="1.90712">
        <ele>71</ele>
        <time>2015-05-12T14:50:05.000Z</time>
      </trkpt>
      <trkpt lat="50.82436" lon="1.90711">
        <ele>71</ele>
        <time>2015-05-12T14:50:06.000Z</time>
      </trkpt>
      <trkpt lat="50.82437" lon="1.90711">
        <ele>71</ele>
        <time>2015-05-12T14:50:07.000Z</time>
      </trkpt>
      <trkpt lat="50.82438" lon="1.90711">
        <ele>71</ele>
        <time>2015-05-12T14:50:08.000Z</time>
      </trkpt>
      <trkpt lat="50.82439" lon="1.90711">
        <ele>71</ele>
        <time>2015-05-12T14:50:09.000Z</time>
      </trkpt>
      <trkpt lat="50.8244" lon="1.90711">
        <ele>71</ele>
        <time>2015-05-12T14:50:10.000Z</time>
      </trkpt>
      <trkpt lat="50.82441" lon="1.9071">
        <ele>71</ele>
        <time>2015-05-12T14:50:11.000Z</time>
      </trkpt>
      <trkpt lat="50.82442" lon="1.9071">
        <ele>71</ele>
        <time>2015-05-12T14:50:12.000Z</time>
      </trkpt>
      <trkpt lat="50.82443" lon="1.9071">
        <ele>71</ele>
        <time>2015-05-12T14:50:13.000Z</time>
      </trkpt>
      <trkpt lat="50.82444" lon="1.90709">
        <ele>71</ele>
        <time>2015-05-12T14:50:14.000Z</time>
      </trkpt>
      <trkpt lat="50.82445" lon="1.90709">
        <ele>71</ele>
        <time>2015-05-12T14:50:15.000Z</time>
      </trkpt>
      <trkpt lat="50.82446" lon="1.90708">
        <ele>71</ele>
        <time>2015-05-12T14:50:16.000Z</time>
      </trkpt>
      <trkpt lat="50.82447" lon="1.90708">
        <ele>71</ele>
        <time>2015-05-12T14:50:17.000Z</time>
      </trkpt>
      <trkpt lat="50.82448" lon="1.90707">
        <ele>71</ele>
        <time>2015-05-12T14:50:18.000Z</time>
      </trkpt>
      <trkpt lat="50.82449" lon="1.90707">
        <ele>71</ele>
        <time>2015-05-12T14:50:19.000Z</time>
      </trkpt>
      <trkpt lat="50.8245" lon="1.90706">
        <ele>71</ele>
        <time>2015-05-12T14:50:20.000Z</time>
      </trkpt>
      <trkpt lat="50.82452" lon="1.90705">
        <ele>70</ele>
        <time>2015-05-12T14:50:21.000Z</time>
      </trkpt>
      <trkpt lat="50.82453" lon="1.90704">
        <ele>70</ele>
        <time>2015-05-12T14:50:22.000Z</time>
      </trkpt>
      <trkpt lat="50.82454" lon="1.90704">
        <ele>70</ele>
        <time>2015-05-12T14:50:23.000Z</time>
      </trkpt>
      <trkpt lat="50.82455" lon="1.90703">
        <ele>70</ele>
        <time>2015-05-12T14:50:24.000Z</time>
      </trkpt>
      <trkpt lat="50.82456" lon="1.90702">
        <ele>70</ele>
        <time>2015-05-12T14:50:25.000Z</time>
      </trkpt>
      <trkpt lat="50.82457" lon="1.90701">
        <ele>70</ele>
        <time>2015-05-12T14:50:26.000Z</time>
      </trkpt>
      <trkpt lat="50.82458" lon="1.907">
        <ele>70</ele>
        <time>2015-05-12T14:50:27.000Z</time>
      </trkpt>
      <trkpt lat="50.82459" lon="1.90699">
        <ele>69</ele>
        <time>2015-05-12T14:50:28.000Z</time>
      </trkpt>
      <trkpt lat="50.8246" lon="1.90697">
        <ele>69</ele>
        <time>2015-05-12T14:50:29.000Z</time>
      </trkpt>
      <trkpt lat="50.82461" lon="1.90696">
        <ele>68</ele>
        <time>2015-05-12T14:50:30.000Z</time>
      </trkpt>
      <trkpt lat="50.82462" lon="1.90695">
        <ele>69</ele>
        <time>2015-05-12T14:50:31.000Z</time>
      </trkpt>
      <trkpt lat="50.82463" lon="1.90694">
        <ele>68</ele>
        <time>2015-05-12T14:50:32.000Z</time>
      </trkpt>
      <trkpt lat="50.82463" lon="1.90692">
        <ele>68</ele>
        <time>2015-05-12T14:50:33.000Z</time>
      </trkpt>
      <trkpt lat="50.82464" lon="1.90691">
        <ele>68</ele>
        <time>2015-05-12T14:50:34.000Z</time>
      </trkpt>
      <trkpt lat="50.82465" lon="1.90689">
        <ele>68</ele>
        <time>2015-05-12T14:50:35.000Z</time>
      </trkpt>
      <trkpt lat="50.82466" lon="1.90688">
        <ele>67</ele>
        <time>2015-05-12T14:50:36.000Z</time>
      </trkpt>
      <trkpt lat="50.82466" lon="1.90686">
        <ele>67</ele>
        <time>2015-05-12T14:50:37.000Z</time>
      </trkpt>
      <trkpt lat="50.82467" lon="1.90685">
        <ele>67</ele>
        <time>2015-05-12T14:50:38.000Z</time>
      </trkpt>
      <trkpt lat="50.82468" lon="1.90683">
        <ele>66</ele>
        <time>2015-05-12T14:50:39.000Z</time>
      </trkpt>
      <trkpt lat="50.82468" lon="1.90682">
        <ele>66</ele>
        <time>2015-05-12T14:50:40.000Z</time>
      </trkpt>
      <trkpt lat="50.82469" lon="1.9068">
        <ele>66</ele>
        <time>2015-05-12T14:50:41.000Z</time>
      </trkpt>
      <trkpt lat="50.8247" lon="1.90679">
        <ele>66</ele>
        <time>2015-05-12T14:50:42.000Z</time>
      </trkpt>
      <trkpt lat="50.8247" lon="1.90678">
        <ele>66</ele>
        <time>2015-05-12T14:50:43.000Z</time>
      </trkpt>
      <trkpt lat="50.82471" lon="1.90676">
        <ele>66</ele>
        <time>2015-05-12T14:50:44.000Z</time>
      </trkpt>
      <trkpt lat="50.82472" lon="1.90675">
        <ele>66</ele>
        <time>2015-05-12T14:50:45.000Z</time>
      </trkpt>
      <trkpt lat="50.82472" lon="1.90673">
        <ele>66</ele>
        <time>2015-05-12T14:50:46.000Z</time>
      </trkpt>
      <trkpt lat="50.82473" lon="1.90672">
        <ele>66</ele>
        <time>2015-05-12T14:50:47.000Z</time>
      </trkpt>
      <trkpt lat="50.82473" lon="1.9067">
        <ele>66</ele>
        <time>2015-05-12T14:50:48.000Z</time>
      </trkpt>
      <trkpt lat="50.82474" lon="1.90669">
        <ele>66</ele>
        <time>2015-05-12T14:50:49.000Z</time>
      </trkpt>
      <trkpt lat="50.82475" lon="1.90667">
        <ele>66</ele>
        <time>2015-05-12T14:50:50.000Z</time>
      </trkpt>
      <trkpt lat="50.82475" lon="1.90666">
        <ele>65</ele>
        <time>2015-05-12T14:50:51.000Z</time>
      </trkpt>
      <trkpt lat="50.82476" lon="1.90664">
        <ele>66</ele>
        <time>2015-05-12T14:50:52.000Z</time>
      </trkpt>
      <trkpt lat="50.82476" lon="1.90663">
        <ele>66</ele>
        <time>2015-05-12T14:50:53.000Z</time>
      </trkpt>
      <trkpt lat="50.82477" lon="1.90661">
        <ele>66</ele>
        <time>2015-05-12T14:50:54.000Z</time>
      </trkpt>
      <trkpt lat="50.82477" lon="1.9066">
        <ele>65</ele>
        <time>2015-05-12T14:50:55.000Z</time>
      </trkpt>
      <trkpt lat="50.82478" lon="1.90658">
        <ele>65</ele>
        <time>2015-05-12T14:50:56.000Z</time>
      </trkpt>
      <trkpt lat="50.82479" lon="1.90656">
        <ele>65</ele>
        <time>2015-05-12T14:50:57.000Z</time>
      </trkpt>
      <trkpt lat="50.82479" lon="1.90655">
        <ele>65</ele>
        <time>2015-05-12T14:50:58.000Z</time>
      </trkpt>
      <trkpt lat="50.8248" lon="1.90653">
        <ele>65</ele>
        <time>2015-05-12T14:50:59.000Z</time>
      </trkpt>
      <trkpt lat="50.82481" lon="1.90652">
        <ele>65</ele>
        <time>2015-05-12T14:51:00.000Z</time>
      </trkpt>
      <trkpt lat="50.82481" lon="1.9065">
        <ele>65</ele>
        <time>2015-05-12T14:51:01.000Z</time>
      </trkpt>
      <trkpt lat="50.82482" lon="1.90649">
        <ele>64</ele>
        <time>2015-05-12T14:51:02.000Z</time>
      </trkpt>
      <trkpt lat="50.82483" lon="1.90648">
        <ele>64</ele>
        <time>2015-05-12T14:51:03.000Z</time>
      </trkpt>
      <trkpt lat="50.82483" lon="1.90646">
        <ele>64</ele>
        <time>2015-05-12T14:51:04.000Z</time>
      </trkpt>
      <trkpt lat="50.82484" lon="1.90645">
        <ele>65</ele>
        <time>2015-05-12T14:51:05.000Z</time>
      </trkpt>
      <trkpt lat="50.82484" lon="1.90643">
        <ele>64</ele>
        <time>2015-05-12T14:51:06.000Z</time>
      </trkpt>
      <trkpt lat="50.82485" lon="1.90642">
        <ele>65</ele>
        <time>2015-05-12T14:51:07.000Z</time>
      </trkpt>
      <trkpt lat="50.82485" lon="1.9064">
        <ele>65</ele>
        <time>2015-05-12T14:51:08.000Z</time>
      </trkpt>
      <trkpt lat="50.82486" lon="1.90639">
        <ele>65</ele>
        <time>2015-05-12T14:51:09.000Z</time>
      </trkpt>
      <trkpt lat="50.82487" lon="1.90637">
        <ele>64</ele>
        <time>2015-05-12T14:51:10.000Z</time>
      </trkpt>
      <trkpt lat="50.82487" lon="1.90635">
        <ele>64</ele>
        <time>2015-05-12T14:51:11.000Z</time>
      </trkpt>
      <trkpt lat="50.82488" lon="1.90634">
        <ele>65</ele>
        <time>2015-05-12T14:51:12.000Z</time>
      </trkpt>
      <trkpt lat="50.82488" lon="1.90632">
        <ele>64</ele>
        <time>2015-05-12T14:51:13.000Z</time>
      </trkpt>
      <trkpt lat="50.82489" lon="1.90631">
        <ele>64</ele>
        <time>2015-05-12T14:51:14.000Z</time>
      </trkpt>
      <trkpt lat="50.8249" lon="1.90629">
        <ele>64</ele>
        <time>2015-05-12T14:51:15.000Z</time>
      </trkpt>
      <trkpt lat="50.8249" lon="1.90628">
        <ele>64</ele>
        <time>2015-05-12T14:51:16.000Z</time>
      </trkpt>
      <trkpt lat="50.82491" lon="1.90627">
        <ele>64</ele>
        <time>2015-05-12T14:51:17.000Z</time>
      </trkpt>
      <trkpt lat="50.82491" lon="1.90625">
        <ele>64</ele>
        <time>2015-05-12T14:51:18.000Z</time>
      </trkpt>
      <trkpt lat="50.82492" lon="1.90624">
        <ele>64</ele>
        <time>2015-05-12T14:51:19.000Z</time>
      </trkpt>
      <trkpt lat="50.82493" lon="1.90622">
        <ele>63</ele>
        <time>2015-05-12T14:51:20.000Z</time>
      </trkpt>
      <trkpt lat="50.82493" lon="1.9062">
        <ele>63</ele>
        <time>2015-05-12T14:51:21.000Z</time>
      </trkpt>
      <trkpt lat="50.82494" lon="1.90618">
        <ele>63</ele>
        <time>2015-05-12T14:51:22.000Z</time>
      </trkpt>
      <trkpt lat="50.82495" lon="1.90617">
        <ele>63</ele>
        <time>2015-05-12T14:51:23.000Z</time>
      </trkpt>
      <trkpt lat="50.82495" lon="1.90615">
        <ele>63</ele>
        <time>2015-05-12T14:51:24.000Z</time>
      </trkpt>
      <trkpt lat="50.82496" lon="1.90614">
        <ele>64</ele>
        <time>2015-05-12T14:51:25.000Z</time>
      </trkpt>
      <trkpt lat="50.82497" lon="1.90612">
        <ele>64</ele>
        <time>2015-05-12T14:51:26.000Z</time>
      </trkpt>
      <trkpt lat="50.82497" lon="1.90611">
        <ele>64</ele>
        <time>2015-05-12T14:51:27.000Z</time>
      </trkpt>
      <trkpt lat="50.82498" lon="1.90609">
        <ele>65</ele>
        <time>2015-05-12T14:51:28.000Z</time>
      </trkpt>
      <trkpt lat="50.82499" lon="1.90607">
        <ele>65</ele>
        <time>2015-05-12T14:51:29.000Z</time>
      </trkpt>
      <trkpt lat="50.825" lon="1.90605">
        <ele>64</ele>
        <time>2015-05-12T14:51:30.000Z</time>
      </trkpt>
      <trkpt lat="50.825" lon="1.90604">
        <ele>64</ele>
        <time>2015-05-12T14:51:31.000Z</time>
      </trkpt>
      <trkpt lat="50.82501" lon="1.90602">
        <ele>64</ele>
        <time>2015-05-12T14:51:32.000Z</time>
      </trkpt>
      <trkpt lat="50.82502" lon="1.906">
        <ele>64</ele>
        <time>2015-05-12T14:51:33.000Z</time>
      </trkpt>
      <trkpt lat="50.82502" lon="1.90599">
        <ele>63</ele>
        <time>2015-05-12T14:51:34.000Z</time>
      </trkpt>
      <trkpt lat="50.82503" lon="1.90597">
        <ele>63</ele>
        <time>2015-05-12T14:51:35.000Z</time>
      </trkpt>
      <trkpt lat="50.82504" lon="1.90596">
        <ele>63</ele>
        <time>2015-05-12T14:51:36.000Z</time>
      </trkpt>
      <trkpt lat="50.82504" lon="1.90594">
        <ele>63</ele>
        <time>2015-05-12T14:51:37.000Z</time>
      </trkpt>
      <trkpt lat="50.82505" lon="1.90593">
        <ele>63</ele>
        <time>2015-05-12T14:51:38.000Z</time>
      </trkpt>
      <trkpt lat="50.82506" lon="1.90591">
        <ele>63</ele>
        <time>2015-05-12T14:51:39.000Z</time>
      </trkpt>
      <trkpt lat="50.82507" lon="1.9059">
        <ele>63</ele>
        <time>2015-05-12T14:51:40.000Z</time>
      </trkpt>
      <trkpt lat="50.82508" lon="1.90588">
        <ele>62</ele>
        <time>2015-05-12T14:51:41.000Z</time>
      </trkpt>
      <trkpt lat="50.82508" lon="1.90587">
        <ele>62</ele>
        <time>2015-05-12T14:51:42.000Z</time>
      </trkpt>
      <trkpt lat="50.82509" lon="1.90585">
        <ele>62</ele>
        <time>2015-05-12T14:51:43.000Z</time>
      </trkpt>
      <trkpt lat="50.8251" lon="1.90584">
        <ele>63</ele>
        <time>2015-05-12T14:51:44.000Z</time>
      </trkpt>
      <trkpt lat="50.8251" lon="1.90583">
        <ele>62</ele>
        <time>2015-05-12T14:51:45.000Z</time>
      </trkpt>
      <trkpt lat="50.82511" lon="1.90581">
        <ele>62</ele>
        <time>2015-05-12T14:51:46.000Z</time>
      </trkpt>
      <trkpt lat="50.82512" lon="1.9058">
        <ele>62</ele>
        <time>2015-05-12T14:51:47.000Z</time>
      </trkpt>
      <trkpt lat="50.82512" lon="1.90578">
        <ele>62</ele>
        <time>2015-05-12T14:51:48.000Z</time>
      </trkpt>
      <trkpt lat="50.82513" lon="1.90576">
        <ele>62</ele>
        <time>2015-05-12T14:51:49.000Z</time>
      </trkpt>
      <trkpt lat="50.82514" lon="1.90575">
        <ele>62</ele>
        <time>2015-05-12T14:51:50.000Z</time>
      </trkpt>
      <trkpt lat="50.82514" lon="1.90573">
        <ele>61</ele>
        <time>2015-05-12T14:51:51.000Z</time>
      </trkpt>
      <trkpt lat="50.82515" lon="1.90571">
        <ele>61</ele>
        <time>2015-05-12T14:51:52.000Z</time>
      </trkpt>
      <trkpt lat="50.82515" lon="1.9057">
        <ele>61</ele>
        <time>2015-05-12T14:51:53.000Z</time>
      </trkpt>
      <trkpt lat="50.82516" lon="1.90568">
        <ele>60</ele>
        <time>2015-05-12T14:51:54.000Z</time>
      </trkpt>
      <trkpt lat="50.82517" lon="1.90566">
        <ele>61</ele>
        <time>2015-05-12T14:51:55.000Z</time>
      </trkpt>
      <trkpt lat="50.82517" lon="1.90565">
        <ele>60</ele>
        <time>2015-05-12T14:51:56.000Z</time>
      </trkpt>
      <trkpt lat="50.82518" lon="1.90563">
        <ele>60</ele>
        <time>2015-05-12T14:51:57.000Z</time>
      </trkpt>
      <trkpt lat="50.82518" lon="1.90562">
        <ele>60</ele>
        <time>2015-05-12T14:51:58.000Z</time>
      </trkpt>
      <trkpt lat="50.82519" lon="1.9056">
        <ele>60</ele>
        <time>2015-05-12T14:51:59.000Z</time>
      </trkpt>
      <trkpt lat="50.8252" lon="1.90559">
        <ele>60</ele>
        <time>2015-05-12T14:52:00.000Z</time>
      </trkpt>
      <trkpt lat="50.8252" lon="1.90557">
        <ele>60</ele>
        <time>2015-05-12T14:52:01.000Z</time>
      </trkpt>
      <trkpt lat="50.82521" lon="1.90556">
        <ele>60</ele>
        <time>2015-05-12T14:52:02.000Z</time>
      </trkpt>
      <trkpt lat="50.82522" lon="1.90554">
        <ele>60</ele>
        <time>2015-05-12T14:52:03.000Z</time>
      </trkpt>
      <trkpt lat="50.82522" lon="1.90553">
        <ele>60</ele>
        <time>2015-05-12T14:52:04.000Z</time>
      </trkpt>
      <trkpt lat="50.82523" lon="1.90551">
        <ele>60</ele>
        <time>2015-05-12T14:52:05.000Z</time>
      </trkpt>
      <trkpt lat="50.82524" lon="1.90549">
        <ele>61</ele>
        <time>2015-05-12T14:52:06.000Z</time>
      </trkpt>
      <trkpt lat="50.82524" lon="1.90548">
        <ele>61</ele>
        <time>2015-05-12T14:52:07.000Z</time>
      </trkpt>
      <trkpt lat="50.82525" lon="1.90546">
        <ele>60</ele>
        <time>2015-05-12T14:52:08.000Z</time>
      </trkpt>
      <trkpt lat="50.82526" lon="1.90544">
        <ele>61</ele>
        <time>2015-05-12T14:52:09.000Z</time>
      </trkpt>
      <trkpt lat="50.82526" lon="1.90543">
        <ele>60</ele>
        <time>2015-05-12T14:52:10.000Z</time>
      </trkpt>
      <trkpt lat="50.82527" lon="1.90541">
        <ele>60</ele>
        <time>2015-05-12T14:52:11.000Z</time>
      </trkpt>
      <trkpt lat="50.82528" lon="1.90539">
        <ele>60</ele>
        <time>2015-05-12T14:52:12.000Z</time>
      </trkpt>
      <trkpt lat="50.82528" lon="1.90538">
        <ele>60</ele>
        <time>2015-05-12T14:52:13.000Z</time>
      </trkpt>
      <trkpt lat="50.82528" lon="1.90536">
        <ele>60</ele>
        <time>2015-05-12T14:52:14.000Z</time>
      </trkpt>
      <trkpt lat="50.82529" lon="1.90535">
        <ele>60</ele>
        <time>2015-05-12T14:52:15.000Z</time>
      </trkpt>
      <trkpt lat="50.82529" lon="1.90533">
        <ele>60</ele>
        <time>2015-05-12T14:52:16.000Z</time>
      </trkpt>
      <trkpt lat="50.8253" lon="1.90531">
        <ele>60</ele>
        <time>2015-05-12T14:52:17.000Z</time>
      </trkpt>
      <trkpt lat="50.82531" lon="1.9053">
        <ele>60</ele>
        <time>2015-05-12T14:52:18.000Z</time>
      </trkpt>
      <trkpt lat="50.82531" lon="1.90528">
        <ele>59</ele>
        <time>2015-05-12T14:52:19.000Z</time>
      </trkpt>
      <trkpt lat="50.82532" lon="1.90527">
        <ele>59</ele>
        <time>2015-05-12T14:52:20.000Z</time>
      </trkpt>
      <trkpt lat="50.82532" lon="1.90525">
        <ele>59</ele>
        <time>2015-05-12T14:52:21.000Z</time>
      </trkpt>
      <trkpt lat="50.82533" lon="1.90524">
        <ele>59</ele>
        <time>2015-05-12T14:52:22.000Z</time>
      </trkpt>
      <trkpt lat="50.82534" lon="1.90522">
        <ele>59</ele>
        <time>2015-05-12T14:52:23.000Z</time>
      </trkpt>
      <trkpt lat="50.82534" lon="1.90521">
        <ele>59</ele>
        <time>2015-05-12T14:52:24.000Z</time>
      </trkpt>
      <trkpt lat="50.82535" lon="1.9052">
        <ele>58</ele>
        <time>2015-05-12T14:52:25.000Z</time>
      </trkpt>
      <trkpt lat="50.82536" lon="1.90519">
        <ele>59</ele>
        <time>2015-05-12T14:52:26.000Z</time>
      </trkpt>
      <trkpt lat="50.82537" lon="1.90517">
        <ele>58</ele>
        <time>2015-05-12T14:52:27.000Z</time>
      </trkpt>
      <trkpt lat="50.82538" lon="1.90516">
        <ele>58</ele>
        <time>2015-05-12T14:52:28.000Z</time>
      </trkpt>
      <trkpt lat="50.82538" lon="1.90514">
        <ele>57</ele>
        <time>2015-05-12T14:52:29.000Z</time>
      </trkpt>
      <trkpt lat="50.82539" lon="1.90512">
        <ele>57</ele>
        <time>2015-05-12T14:52:30.000Z</time>
      </trkpt>
      <trkpt lat="50.8254" lon="1.9051">
        <ele>57</ele>
        <time>2015-05-12T14:52:31.000Z</time>
      </trkpt>
      <trkpt lat="50.8254" lon="1.90509">
        <ele>58</ele>
        <time>2015-05-12T14:52:32.000Z</time>
      </trkpt>
      <trkpt lat="50.82541" lon="1.90507">
        <ele>57</ele>
        <time>2015-05-12T14:52:33.000Z</time>
      </trkpt>
      <trkpt lat="50.82541" lon="1.90506">
        <ele>58</ele>
        <time>2015-05-12T14:52:34.000Z</time>
      </trkpt>
      <trkpt lat="50.82542" lon="1.90504">
        <ele>58</ele>
        <time>2015-05-12T14:52:35.000Z</time>
      </trkpt>
      <trkpt lat="50.82543" lon="1.90502">
        <ele>58</ele>
        <time>2015-05-12T14:52:36.000Z</time>
      </trkpt>
      <trkpt lat="50.82544" lon="1.90501">
        <ele>58</ele>
        <time>2015-05-12T14:52:37.000Z</time>
      </trkpt>
      <trkpt lat="50.82544" lon="1.90499">
        <ele>58</ele>
        <time>2015-05-12T14:52:38.000Z</time>
      </trkpt>
      <trkpt lat="50.82545" lon="1.90497">
        <ele>58</ele>
        <time>2015-05-12T14:52:39.000Z</time>
      </trkpt>
      <trkpt lat="50.82546" lon="1.90496">
        <ele>58</ele>
        <time>2015-05-12T14:52:40.000Z</time>
      </trkpt>
      <trkpt lat="50.82546" lon="1.90494">
        <ele>57</ele>
        <time>2015-05-12T14:52:41.000Z</time>
      </trkpt>
      <trkpt lat="50.82547" lon="1.90492">
        <ele>57</ele>
        <time>2015-05-12T14:52:42.000Z</time>
      </trkpt>
      <trkpt lat="50.82547" lon="1.9049">
        <ele>57</ele>
        <time>2015-05-12T14:52:43.000Z</time>
      </trkpt>
      <trkpt lat="50.82548" lon="1.90489">
        <ele>57</ele>
        <time>2015-05-12T14:52:44.000Z</time>
      </trkpt>
      <trkpt lat="50.82549" lon="1.90487">
        <ele>57</ele>
        <time>2015-05-12T14:52:45.000Z</time>
      </trkpt>
      <trkpt lat="50.8255" lon="1.90486">
        <ele>57</ele>
        <time>2015-05-12T14:52:46.000Z</time>
      </trkpt>
      <trkpt lat="50.8255" lon="1.90484">
        <ele>57</ele>
        <time>2015-05-12T14:52:47.000Z</time>
      </trkpt>
      <trkpt lat="50.82551" lon="1.90483">
        <ele>57</ele>
        <time>2015-05-12T14:52:48.000Z</time>
      </trkpt>
      <trkpt lat="50.82552" lon="1.90481">
        <ele>57</ele>
        <time>2015-05-12T14:52:49.000Z</time>
      </trkpt>
      <trkpt lat="50.82553" lon="1.9048">
        <ele>57</ele>
        <time>2015-05-12T14:52:50.000Z</time>
      </trkpt>
      <trkpt lat="50.82554" lon="1.90478">
        <ele>57</ele>
        <time>2015-05-12T14:52:51.000Z</time>
      </trkpt>
      <trkpt lat="50.82555" lon="1.90476">
        <ele>56</ele>
        <time>2015-05-12T14:52:52.000Z</time>
      </trkpt>
      <trkpt lat="50.82555" lon="1.90475">
        <ele>56</ele>
        <time>2015-05-12T14:52:53.000Z</time>
      </trkpt>
      <trkpt lat="50.82556" lon="1.90473">
        <ele>56</ele>
        <time>2015-05-12T14:52:54.000Z</time>
      </trkpt>
      <trkpt lat="50.82557" lon="1.90472">
        <ele>55</ele>
        <time>2015-05-12T14:52:55.000Z</time>
      </trkpt>
      <trkpt lat="50.82558" lon="1.9047">
        <ele>55</ele>
        <time>2015-05-12T14:52:56.000Z</time>
      </trkpt>
      <trkpt lat="50.82558" lon="1.90469">
        <ele>55</ele>
        <time>2015-05-12T14:52:57.000Z</time>
      </trkpt>
      <trkpt lat="50.82559" lon="1.90467">
        <ele>55</ele>
        <time>2015-05-12T14:52:58.000Z</time>
      </trkpt>
      <trkpt lat="50.8256" lon="1.90466">
        <ele>55</ele>
        <time>2015-05-12T14:52:59.000Z</time>
      </trkpt>
      <trkpt lat="50.82561" lon="1.90464">
        <ele>55</ele>
        <time>2015-05-12T14:53:00.000Z</time>
      </trkpt>
      <trkpt lat="50.82562" lon="1.90463">
        <ele>55</ele>
        <time>2015-05-12T14:53:01.000Z</time>
      </trkpt>
      <trkpt lat="50.82563" lon="1.90461">
        <ele>55</ele>
        <time>2015-05-12T14:53:02.000Z</time>
      </trkpt>
      <trkpt lat="50.82563" lon="1.9046">
        <ele>55</ele>
        <time>2015-05-12T14:53:03.000Z</time>
      </trkpt>
      <trkpt lat="50.82564" lon="1.90459">
        <ele>55</ele>
        <time>2015-05-12T14:53:04.000Z</time>
      </trkpt>
      <trkpt lat="50.82565" lon="1.90457">
        <ele>55</ele>
        <time>2015-05-12T14:53:05.000Z</time>
      </trkpt>
      <trkpt lat="50.82566" lon="1.90456">
        <ele>56</ele>
        <time>2015-05-12T14:53:06.000Z</time>
      </trkpt>
      <trkpt lat="50.82566" lon="1.90455">
        <ele>55</ele>
        <time>2015-05-12T14:53:07.000Z</time>
      </trkpt>
      <trkpt lat="50.82567" lon="1.90453">
        <ele>55</ele>
        <time>2015-05-12T14:53:08.000Z</time>
      </trkpt>
      <trkpt lat="50.82568" lon="1.90452">
        <ele>55</ele>
        <time>2015-05-12T14:53:09.000Z</time>
      </trkpt>
      <trkpt lat="50.82569" lon="1.90451">
        <ele>54</ele>
        <time>2015-05-12T14:53:10.000Z</time>
      </trkpt>
      <trkpt lat="50.8257" lon="1.9045">
        <ele>54</ele>
        <time>2015-05-12T14:53:11.000Z</time>
      </trkpt>
      <trkpt lat="50.82571" lon="1.90449">
        <ele>55</ele>
        <time>2015-05-12T14:53:12.000Z</time>
      </trkpt>
      <trkpt lat="50.82572" lon="1.90447">
        <ele>55</ele>
        <time>2015-05-12T14:53:13.000Z</time>
      </trkpt>
      <trkpt lat="50.82573" lon="1.90446">
        <ele>55</ele>
        <time>2015-05-12T14:53:14.000Z</time>
      </trkpt>
      <trkpt lat="50.82574" lon="1.90445">
        <ele>55</ele>
        <time>2015-05-12T14:53:15.000Z</time>
      </trkpt>
      <trkpt lat="50.82574" lon="1.90444">
        <ele>55</ele>
        <time>2015-05-12T14:53:16.000Z</time>
      </trkpt>
      <trkpt lat="50.82575" lon="1.90443">
        <ele>55</ele>
        <time>2015-05-12T14:53:17.000Z</time>
      </trkpt>
      <trkpt lat="50.82576" lon="1.90441">
        <ele>55</ele>
        <time>2015-05-12T14:53:18.000Z</time>
      </trkpt>
      <trkpt lat="50.82577" lon="1.9044">
        <ele>55</ele>
        <time>2015-05-12T14:53:19.000Z</time>
      </trkpt>
      <trkpt lat="50.82578" lon="1.90439">
        <ele>55</ele>
        <time>2015-05-12T14:53:20.000Z</time>
      </trkpt>
      <trkpt lat="50.82579" lon="1.90438">
        <ele>55</ele>
        <time>2015-05-12T14:53:21.000Z</time>
      </trkpt>
      <trkpt lat="50.8258" lon="1.90437">
        <ele>55</ele>
        <time>2015-05-12T14:53:22.000Z</time>
      </trkpt>
      <trkpt lat="50.82581" lon="1.90435">
        <ele>55</ele>
        <time>2015-05-12T14:53:23.000Z</time>
      </trkpt>
      <trkpt lat="50.82582" lon="1.90434">
        <ele>55</ele>
        <time>2015-05-12T14:53:24.000Z</time>
      </trkpt>
      <trkpt lat="50.82583" lon="1.90433">
        <ele>55</ele>
        <time>2015-05-12T14:53:25.000Z</time>
      </trkpt>
      <trkpt lat="50.82584" lon="1.90432">
        <ele>55</ele>
        <time>2015-05-12T14:53:26.000Z</time>
      </trkpt>
      <trkpt lat="50.82585" lon="1.90431">
        <ele>55</ele>
        <time>2015-05-12T14:53:27.000Z</time>
      </trkpt>
      <trkpt lat="50.82585" lon="1.9043">
        <ele>55</ele>
        <time>2015-05-12T14:53:28.000Z</time>
      </trkpt>
      <trkpt lat="50.82586" lon="1.90429">
        <ele>55</ele>
        <time>2015-05-12T14:53:29.000Z</time>
      </trkpt>
      <trkpt lat="50.82587" lon="1.90428">
        <ele>55</ele>
        <time>2015-05-12T14:53:30.000Z</time>
      </trkpt>
      <trkpt lat="50.82588" lon="1.90427">
        <ele>56</ele>
        <time>2015-05-12T14:53:31.000Z</time>
      </trkpt>
      <trkpt lat="50.82589" lon="1.90426">
        <ele>56</ele>
        <time>2015-05-12T14:53:32.000Z</time>
      </trkpt>
      <trkpt lat="50.8259" lon="1.90425">
        <ele>56</ele>
        <time>2015-05-12T14:53:33.000Z</time>
      </trkpt>
      <trkpt lat="50.82591" lon="1.90424">
        <ele>56</ele>
        <time>2015-05-12T14:53:34.000Z</time>
      </trkpt>
      <trkpt lat="50.82592" lon="1.90423">
        <ele>56</ele>
        <time>2015-05-12T14:53:35.000Z</time>
      </trkpt>
      <trkpt lat="50.82593" lon="1.90421">
        <ele>56</ele>
        <time>2015-05-12T14:53:36.000Z</time>
      </trkpt>
      <trkpt lat="50.82594" lon="1.9042">
        <ele>56</ele>
        <time>2015-05-12T14:53:37.000Z</time>
      </trkpt>
      <trkpt lat="50.82595" lon="1.90419">
        <ele>56</ele>
        <time>2015-05-12T14:53:38.000Z</time>
      </trkpt>
      <trkpt lat="50.82596" lon="1.90418">
        <ele>56</ele>
        <time>2015-05-12T14:53:39.000Z</time>
      </trkpt>
      <trkpt lat="50.82597" lon="1.90416">
        <ele>56</ele>
        <time>2015-05-12T14:53:40.000Z</time>
      </trkpt>
      <trkpt lat="50.82597" lon="1.90415">
        <ele>56</ele>
        <time>2015-05-12T14:53:41.000Z</time>
      </trkpt>
      <trkpt lat="50.82598" lon="1.90414">
        <ele>57</ele>
        <time>2015-05-12T14:53:42.000Z</time>
      </trkpt>
      <trkpt lat="50.82599" lon="1.90413">
        <ele>57</ele>
        <time>2015-05-12T14:53:43.000Z</time>
      </trkpt>
      <trkpt lat="50.826" lon="1.90412">
        <ele>57</ele>
        <time>2015-05-12T14:53:44.000Z</time>
      </trkpt>
      <trkpt lat="50.82601" lon="1.90411">
        <ele>57</ele>
        <time>2015-05-12T14:53:45.000Z</time>
      </trkpt>
      <trkpt lat="50.82602" lon="1.90409">
        <ele>57</ele>
        <time>2015-05-12T14:53:46.000Z</time>
      </trkpt>
      <trkpt lat="50.82603" lon="1.90408">
        <ele>57</ele>
        <time>2015-05-12T14:53:47.000Z</time>
      </trkpt>
      <trkpt lat="50.82604" lon="1.90408">
        <ele>57</ele>
        <time>2015-05-12T14:53:48.000Z</time>
      </trkpt>
      <trkpt lat="50.82604" lon="1.90407">
        <ele>57</ele>
        <time>2015-05-12T14:53:49.000Z</time>
      </trkpt>
      <trkpt lat="50.82605" lon="1.90406">
        <ele>57</ele>
        <time>2015-05-12T14:53:50.000Z</time>
      </trkpt>
      <trkpt lat="50.82606" lon="1.90406">
        <ele>58</ele>
        <time>2015-05-12T14:53:51.000Z</time>
      </trkpt>
      <trkpt lat="50.82607" lon="1.90405">
        <ele>58</ele>
        <time>2015-05-12T14:53:52.000Z</time>
      </trkpt>
      <trkpt lat="50.82607" lon="1.90404">
        <ele>58</ele>
        <time>2015-05-12T14:53:53.000Z</time>
      </trkpt>
      <trkpt lat="50.82608" lon="1.90403">
        <ele>58</ele>
        <time>2015-05-12T14:53:54.000Z</time>
      </trkpt>
      <trkpt lat="50.82609" lon="1.90401">
        <ele>58</ele>
        <time>2015-05-12T14:53:55.000Z</time>
      </trkpt>
      <trkpt lat="50.82609" lon="1.904">
        <ele>57</ele>
        <time>2015-05-12T14:53:56.000Z</time>
      </trkpt>
      <trkpt lat="50.8261" lon="1.90398">
        <ele>57</ele>
        <time>2015-05-12T14:53:57.000Z</time>
      </trkpt>
      <trkpt lat="50.82611" lon="1.90396">
        <ele>57</ele>
        <time>2015-05-12T14:53:58.000Z</time>
      </trkpt>
      <trkpt lat="50.82612" lon="1.90394">
        <ele>57</ele>
        <time>2015-05-12T14:53:59.000Z</time>
      </trkpt>
      <trkpt lat="50.82613" lon="1.90392">
        <ele>57</ele>
        <time>2015-05-12T14:54:00.000Z</time>
      </trkpt>
      <trkpt lat="50.82613" lon="1.90391">
        <ele>57</ele>
        <time>2015-05-12T14:54:01.000Z</time>
      </trkpt>
      <trkpt lat="50.82614" lon="1.9039">
        <ele>57</ele>
        <time>2015-05-12T14:54:02.000Z</time>
      </trkpt>
      <trkpt lat="50.82615" lon="1.90389">
        <ele>57</ele>
        <time>2015-05-12T14:54:03.000Z</time>
      </trkpt>
      <trkpt lat="50.82615" lon="1.90387">
        <ele>57</ele>
        <time>2015-05-12T14:54:04.000Z</time>
      </trkpt>
      <trkpt lat="50.82616" lon="1.90386">
        <ele>58</ele>
        <time>2015-05-12T14:54:05.000Z</time>
      </trkpt>
      <trkpt lat="50.82616" lon="1.90384">
        <ele>57</ele>
        <time>2015-05-12T14:54:06.000Z</time>
      </trkpt>
      <trkpt lat="50.82617" lon="1.90382">
        <ele>58</ele>
        <time>2015-05-12T14:54:07.000Z</time>
      </trkpt>
      <trkpt lat="50.82617" lon="1.90381">
        <ele>58</ele>
        <time>2015-05-12T14:54:08.000Z</time>
      </trkpt>
      <trkpt lat="50.82618" lon="1.90379">
        <ele>58</ele>
        <time>2015-05-12T14:54:09.000Z</time>
      </trkpt>
      <trkpt lat="50.82618" lon="1.90378">
        <ele>58</ele>
        <time>2015-05-12T14:54:10.000Z</time>
      </trkpt>
      <trkpt lat="50.82619" lon="1.90376">
        <ele>59</ele>
        <time>2015-05-12T14:54:11.000Z</time>
      </trkpt>
      <trkpt lat="50.82619" lon="1.90374">
        <ele>58</ele>
        <time>2015-05-12T14:54:12.000Z</time>
      </trkpt>
      <trkpt lat="50.8262" lon="1.90372">
        <ele>59</ele>
        <time>2015-05-12T14:54:13.000Z</time>
      </trkpt>
      <trkpt lat="50.8262" lon="1.90371">
        <ele>59</ele>
        <time>2015-05-12T14:54:14.000Z</time>
      </trkpt>
      <trkpt lat="50.82621" lon="1.90369">
        <ele>59</ele>
        <time>2015-05-12T14:54:15.000Z</time>
      </trkpt>
      <trkpt lat="50.82621" lon="1.90368">
        <ele>60</ele>
        <time>2015-05-12T14:54:16.000Z</time>
      </trkpt>
      <trkpt lat="50.82622" lon="1.90367">
        <ele>60</ele>
        <time>2015-05-12T14:54:17.000Z</time>
      </trkpt>
      <trkpt lat="50.82622" lon="1.90365">
        <ele>60</ele>
        <time>2015-05-12T14:54:18.000Z</time>
      </trkpt>
      <trkpt lat="50.82623" lon="1.90363">
        <ele>59</ele>
        <time>2015-05-12T14:54:19.000Z</time>
      </trkpt>
      <trkpt lat="50.82623" lon="1.90361">
        <ele>60</ele>
        <time>2015-05-12T14:54:20.000Z</time>
      </trkpt>
      <trkpt lat="50.82624" lon="1.9036">
        <ele>60</ele>
        <time>2015-05-12T14:54:21.000Z</time>
      </trkpt>
      <trkpt lat="50.82624" lon="1.90358">
        <ele>60</ele>
        <time>2015-05-12T14:54:22.000Z</time>
      </trkpt>
      <trkpt lat="50.82625" lon="1.90356">
        <ele>59</ele>
        <time>2015-05-12T14:54:23.000Z</time>
      </trkpt>
      <trkpt lat="50.82625" lon="1.90354">
        <ele>60</ele>
        <time>2015-05-12T14:54:24.000Z</time>
      </trkpt>
      <trkpt lat="50.82626" lon="1.90352">
        <ele>60</ele>
        <time>2015-05-12T14:54:25.000Z</time>
      </trkpt>
      <trkpt lat="50.82626" lon="1.9035">
        <ele>60</ele>
        <time>2015-05-12T14:54:26.000Z</time>
      </trkpt>
      <trkpt lat="50.82626" lon="1.90349">
        <ele>60</ele>
        <time>2015-05-12T14:54:27.000Z</time>
      </trkpt>
      <trkpt lat="50.82627" lon="1.90347">
        <ele>61</ele>
        <time>2015-05-12T14:54:28.000Z</time>
      </trkpt>
      <trkpt lat="50.82627" lon="1.90345">
        <ele>61</ele>
        <time>2015-05-12T14:54:29.000Z</time>
      </trkpt>
      <trkpt lat="50.82628" lon="1.90343">
        <ele>61</ele>
        <time>2015-05-12T14:54:30.000Z</time>
      </trkpt>
      <trkpt lat="50.82628" lon="1.90342">
        <ele>61</ele>
        <time>2015-05-12T14:54:31.000Z</time>
      </trkpt>
      <trkpt lat="50.82629" lon="1.9034">
        <ele>61</ele>
        <time>2015-05-12T14:54:32.000Z</time>
      </trkpt>
      <trkpt lat="50.82629" lon="1.90338">
        <ele>63</ele>
        <time>2015-05-12T14:54:33.000Z</time>
      </trkpt>
      <trkpt lat="50.82629" lon="1.90336">
        <ele>63</ele>
        <time>2015-05-12T14:54:34.000Z</time>
      </trkpt>
      <trkpt lat="50.8263" lon="1.90335">
        <ele>63</ele>
        <time>2015-05-12T14:54:35.000Z</time>
      </trkpt>
      <trkpt lat="50.8263" lon="1.90333">
        <ele>63</ele>
        <time>2015-05-12T14:54:36.000Z</time>
      </trkpt>
      <trkpt lat="50.8263" lon="1.90332">
        <ele>64</ele>
        <time>2015-05-12T14:54:37.000Z</time>
      </trkpt>
      <trkpt lat="50.82631" lon="1.9033">
        <ele>64</ele>
        <time>2015-05-12T14:54:38.000Z</time>
      </trkpt>
      <trkpt lat="50.82631" lon="1.90328">
        <ele>64</ele>
        <time>2015-05-12T14:54:39.000Z</time>
      </trkpt>
      <trkpt lat="50.82632" lon="1.90327">
        <ele>64</ele>
        <time>2015-05-12T14:54:40.000Z</time>
      </trkpt>
      <trkpt lat="50.82632" lon="1.90325">
        <ele>64</ele>
        <time>2015-05-12T14:54:41.000Z</time>
      </trkpt>
      <trkpt lat="50.82633" lon="1.90324">
        <ele>64</ele>
        <time>2015-05-12T14:54:42.000Z</time>
      </trkpt>
      <trkpt lat="50.82633" lon="1.90322">
        <ele>64</ele>
        <time>2015-05-12T14:54:43.000Z</time>
      </trkpt>
      <trkpt lat="50.82634" lon="1.90321">
        <ele>64</ele>
        <time>2015-05-12T14:54:44.000Z</time>
      </trkpt>
      <trkpt lat="50.82634" lon="1.90319">
        <ele>64</ele>
        <time>2015-05-12T14:54:45.000Z</time>
      </trkpt>
      <trkpt lat="50.82635" lon="1.90317">
        <ele>64</ele>
        <time>2015-05-12T14:54:46.000Z</time>
      </trkpt>
      <trkpt lat="50.82636" lon="1.90315">
        <ele>64</ele>
        <time>2015-05-12T14:54:47.000Z</time>
      </trkpt>
      <trkpt lat="50.82637" lon="1.90313">
        <ele>63</ele>
        <time>2015-05-12T14:54:48.000Z</time>
      </trkpt>
      <trkpt lat="50.82637" lon="1.90312">
        <ele>63</ele>
        <time>2015-05-12T14:54:49.000Z</time>
      </trkpt>
      <trkpt lat="50.82638" lon="1.9031">
        <ele>64</ele>
        <time>2015-05-12T14:54:50.000Z</time>
      </trkpt>
      <trkpt lat="50.82639" lon="1.90309">
        <ele>63</ele>
        <time>2015-05-12T14:54:51.000Z</time>
      </trkpt>
      <trkpt lat="50.8264" lon="1.90308">
        <ele>62</ele>
        <time>2015-05-12T14:54:52.000Z</time>
      </trkpt>
      <trkpt lat="50.82641" lon="1.90306">
        <ele>62</ele>
        <time>2015-05-12T14:54:53.000Z</time>
      </trkpt>
      <trkpt lat="50.82642" lon="1.90305">
        <ele>62</ele>
        <time>2015-05-12T14:54:54.000Z</time>
      </trkpt>
      <trkpt lat="50.82643" lon="1.90303">
        <ele>62</ele>
        <time>2015-05-12T14:54:55.000Z</time>
      </trkpt>
      <trkpt lat="50.82644" lon="1.90302">
        <ele>62</ele>
        <time>2015-05-12T14:54:56.000Z</time>
      </trkpt>
      <trkpt lat="50.82644" lon="1.90301">
        <ele>61</ele>
        <time>2015-05-12T14:54:57.000Z</time>
      </trkpt>
      <trkpt lat="50.82645" lon="1.903">
        <ele>61</ele>
        <time>2015-05-12T14:54:58.000Z</time>
      </trkpt>
      <trkpt lat="50.82646" lon="1.90299">
        <ele>61</ele>
        <time>2015-05-12T14:54:59.000Z</time>
      </trkpt>
      <trkpt lat="50.82647" lon="1.90298">
        <ele>61</ele>
        <time>2015-05-12T14:55:00.000Z</time>
      </trkpt>
      <trkpt lat="50.82649" lon="1.90297">
        <ele>61</ele>
        <time>2015-05-12T14:55:01.000Z</time>
      </trkpt>
      <trkpt lat="50.8265" lon="1.90297">
        <ele>61</ele>
        <time>2015-05-12T14:55:02.000Z</time>
      </trkpt>
      <trkpt lat="50.82651" lon="1.90296">
        <ele>61</ele>
        <time>2015-05-12T14:55:03.000Z</time>
      </trkpt>
      <trkpt lat="50.82652" lon="1.90296">
        <ele>61</ele>
        <time>2015-05-12T14:55:04.000Z</time>
      </trkpt>
      <trkpt lat="50.82653" lon="1.90296">
        <ele>61</ele>
        <time>2015-05-12T14:55:05.000Z</time>
      </trkpt>
      <trkpt lat="50.82654" lon="1.90295">
        <ele>61</ele>
        <time>2015-05-12T14:55:06.000Z</time>
      </trkpt>
      <trkpt lat="50.82655" lon="1.90295">
        <ele>61</ele>
        <time>2015-05-12T14:55:07.000Z</time>
      </trkpt>
      <trkpt lat="50.82657" lon="1.90295">
        <ele>60</ele>
        <time>2015-05-12T14:55:08.000Z</time>
      </trkpt>
      <trkpt lat="50.82658" lon="1.90295">
        <ele>60</ele>
        <time>2015-05-12T14:55:09.000Z</time>
      </trkpt>
      <trkpt lat="50.82659" lon="1.90295">
        <ele>60</ele>
        <time>2015-05-12T14:55:10.000Z</time>
      </trkpt>
      <trkpt lat="50.8266" lon="1.90295">
        <ele>60</ele>
        <time>2015-05-12T14:55:11.000Z</time>
      </trkpt>
      <trkpt lat="50.82661" lon="1.90295">
        <ele>60</ele>
        <time>2015-05-12T14:55:12.000Z</time>
      </trkpt>
      <trkpt lat="50.82662" lon="1.90294">
        <ele>60</ele>
        <time>2015-05-12T14:55:13.000Z</time>
      </trkpt>
      <trkpt lat="50.82663" lon="1.90294">
        <ele>60</ele>
        <time>2015-05-12T14:55:14.000Z</time>
      </trkpt>
      <trkpt lat="50.82664" lon="1.90295">
        <ele>60</ele>
        <time>2015-05-12T14:55:15.000Z</time>
      </trkpt>
      <trkpt lat="50.82666" lon="1.90295">
        <ele>60</ele>
        <time>2015-05-12T14:55:16.000Z</time>
      </trkpt>
      <trkpt lat="50.82667" lon="1.90295">
        <ele>60</ele>
        <time>2015-05-12T14:55:17.000Z</time>
      </trkpt>
      <trkpt lat="50.82668" lon="1.90295">
        <ele>60</ele>
        <time>2015-05-12T14:55:18.000Z</time>
      </trkpt>
      <trkpt lat="50.82669" lon="1.90295">
        <ele>60</ele>
        <time>2015-05-12T14:55:19.000Z</time>
      </trkpt>
      <trkpt lat="50.8267" lon="1.90295">
        <ele>60</ele>
        <time>2015-05-12T14:55:20.000Z</time>
      </trkpt>
      <trkpt lat="50.82671" lon="1.90295">
        <ele>60</ele>
        <time>2015-05-12T14:55:21.000Z</time>
      </trkpt>
      <trkpt lat="50.82673" lon="1.90295">
        <ele>60</ele>
        <time>2015-05-12T14:55:22.000Z</time>
      </trkpt>
      <trkpt lat="50.82674" lon="1.90295">
        <ele>61</ele>
        <time>2015-05-12T14:55:23.000Z</time>
      </trkpt>
      <trkpt lat="50.82675" lon="1.90295">
        <ele>61</ele>
        <time>2015-05-12T14:55:24.000Z</time>
      </trkpt>
      <trkpt lat="50.82676" lon="1.90295">
        <ele>60</ele>
        <time>2015-05-12T14:55:25.000Z</time>
      </trkpt>
      <trkpt lat="50.82678" lon="1.90295">
        <ele>60</ele>
        <time>2015-05-12T14:55:26.000Z</time>
      </trkpt>
      <trkpt lat="50.82679" lon="1.90295">
        <ele>60</ele>
        <time>2015-05-12T14:55:27.000Z</time>
      </trkpt>
      <trkpt lat="50.8268" lon="1.90296">
        <ele>60</ele>
        <time>2015-05-12T14:55:28.000Z</time>
      </trkpt>
      <trkpt lat="50.82681" lon="1.90297">
        <ele>60</ele>
        <time>2015-05-12T14:55:29.000Z</time>
      </trkpt>
      <trkpt lat="50.82682" lon="1.90297">
        <ele>60</ele>
        <time>2015-05-12T14:55:30.000Z</time>
      </trkpt>
      <trkpt lat="50.82683" lon="1.90298">
        <ele>60</ele>
        <time>2015-05-12T14:55:31.000Z</time>
      </trkpt>
      <trkpt lat="50.82684" lon="1.90298">
        <ele>60</ele>
        <time>2015-05-12T14:55:32.000Z</time>
      </trkpt>
      <trkpt lat="50.82685" lon="1.90299">
        <ele>60</ele>
        <time>2015-05-12T14:55:33.000Z</time>
      </trkpt>
      <trkpt lat="50.82686" lon="1.90299">
        <ele>59</ele>
        <time>2015-05-12T14:55:34.000Z</time>
      </trkpt>
      <trkpt lat="50.82687" lon="1.903">
        <ele>59</ele>
        <time>2015-05-12T14:55:35.000Z</time>
      </trkpt>
      <trkpt lat="50.82688" lon="1.903">
        <ele>59</ele>
        <time>2015-05-12T14:55:36.000Z</time>
      </trkpt>
      <trkpt lat="50.82689" lon="1.90301">
        <ele>59</ele>
        <time>2015-05-12T14:55:37.000Z</time>
      </trkpt>
      <trkpt lat="50.8269" lon="1.90302">
        <ele>59</ele>
        <time>2015-05-12T14:55:38.000Z</time>
      </trkpt>
      <trkpt lat="50.82692" lon="1.90303">
        <ele>59</ele>
        <time>2015-05-12T14:55:39.000Z</time>
      </trkpt>
      <trkpt lat="50.82693" lon="1.90303">
        <ele>59</ele>
        <time>2015-05-12T14:55:40.000Z</time>
      </trkpt>
      <trkpt lat="50.82694" lon="1.90304">
        <ele>59</ele>
        <time>2015-05-12T14:55:41.000Z</time>
      </trkpt>
      <trkpt lat="50.82695" lon="1.90304">
        <ele>59</ele>
        <time>2015-05-12T14:55:42.000Z</time>
      </trkpt>
      <trkpt lat="50.82696" lon="1.90305">
        <ele>59</ele>
        <time>2015-05-12T14:55:43.000Z</time>
      </trkpt>
      <trkpt lat="50.82697" lon="1.90305">
        <ele>59</ele>
        <time>2015-05-12T14:55:44.000Z</time>
      </trkpt>
      <trkpt lat="50.82699" lon="1.90306">
        <ele>59</ele>
        <time>2015-05-12T14:55:45.000Z</time>
      </trkpt>
      <trkpt lat="50.827" lon="1.90307">
        <ele>59</ele>
        <time>2015-05-12T14:55:46.000Z</time>
      </trkpt>
      <trkpt lat="50.82701" lon="1.90307">
        <ele>59</ele>
        <time>2015-05-12T14:55:47.000Z</time>
      </trkpt>
      <trkpt lat="50.82702" lon="1.90308">
        <ele>59</ele>
        <time>2015-05-12T14:55:48.000Z</time>
      </trkpt>
      <trkpt lat="50.82703" lon="1.90309">
        <ele>59</ele>
        <time>2015-05-12T14:55:49.000Z</time>
      </trkpt>
      <trkpt lat="50.82704" lon="1.90309">
        <ele>59</ele>
        <time>2015-05-12T14:55:50.000Z</time>
      </trkpt>
      <trkpt lat="50.82705" lon="1.9031">
        <ele>59</ele>
        <time>2015-05-12T14:55:51.000Z</time>
      </trkpt>
      <trkpt lat="50.82706" lon="1.90311">
        <ele>59</ele>
        <time>2015-05-12T14:55:52.000Z</time>
      </trkpt>
      <trkpt lat="50.82707" lon="1.90312">
        <ele>59</ele>
        <time>2015-05-12T14:55:53.000Z</time>
      </trkpt>
      <trkpt lat="50.82708" lon="1.90312">
        <ele>59</ele>
        <time>2015-05-12T14:55:54.000Z</time>
      </trkpt>
      <trkpt lat="50.8271" lon="1.90313">
        <ele>59</ele>
        <time>2015-05-12T14:55:55.000Z</time>
      </trkpt>
      <trkpt lat="50.82711" lon="1.90314">
        <ele>59</ele>
        <time>2015-05-12T14:55:56.000Z</time>
      </trkpt>
      <trkpt lat="50.82712" lon="1.90315">
        <ele>59</ele>
        <time>2015-05-12T14:55:57.000Z</time>
      </trkpt>
      <trkpt lat="50.82713" lon="1.90315">
        <ele>59</ele>
        <time>2015-05-12T14:55:58.000Z</time>
      </trkpt>
      <trkpt lat="50.82714" lon="1.90316">
        <ele>59</ele>
        <time>2015-05-12T14:55:59.000Z</time>
      </trkpt>
      <trkpt lat="50.82715" lon="1.90317">
        <ele>59</ele>
        <time>2015-05-12T14:56:00.000Z</time>
      </trkpt>
      <trkpt lat="50.82716" lon="1.90318">
        <ele>58</ele>
        <time>2015-05-12T14:56:01.000Z</time>
      </trkpt>
      <trkpt lat="50.82717" lon="1.90319">
        <ele>59</ele>
        <time>2015-05-12T14:56:02.000Z</time>
      </trkpt>
      <trkpt lat="50.82718" lon="1.9032">
        <ele>58</ele>
        <time>2015-05-12T14:56:03.000Z</time>
      </trkpt>
      <trkpt lat="50.82719" lon="1.90321">
        <ele>58</ele>
        <time>2015-05-12T14:56:04.000Z</time>
      </trkpt>
      <trkpt lat="50.8272" lon="1.90321">
        <ele>58</ele>
        <time>2015-05-12T14:56:05.000Z</time>
      </trkpt>
      <trkpt lat="50.82721" lon="1.90322">
        <ele>58</ele>
        <time>2015-05-12T14:56:06.000Z</time>
      </trkpt>
      <trkpt lat="50.82722" lon="1.90323">
        <ele>58</ele>
        <time>2015-05-12T14:56:07.000Z</time>
      </trkpt>
      <trkpt lat="50.82723" lon="1.90324">
        <ele>58</ele>
        <time>2015-05-12T14:56:08.000Z</time>
      </trkpt>
      <trkpt lat="50.82724" lon="1.90325">
        <ele>58</ele>
        <time>2015-05-12T14:56:09.000Z</time>
      </trkpt>
      <trkpt lat="50.82725" lon="1.90326">
        <ele>58</ele>
        <time>2015-05-12T14:56:10.000Z</time>
      </trkpt>
      <trkpt lat="50.82726" lon="1.90327">
        <ele>58</ele>
        <time>2015-05-12T14:56:11.000Z</time>
      </trkpt>
      <trkpt lat="50.82728" lon="1.90329">
        <ele>59</ele>
        <time>2015-05-12T14:56:12.000Z</time>
      </trkpt>
      <trkpt lat="50.82729" lon="1.9033">
        <ele>59</ele>
        <time>2015-05-12T14:56:13.000Z</time>
      </trkpt>
      <trkpt lat="50.8273" lon="1.90331">
        <ele>59</ele>
        <time>2015-05-12T14:56:14.000Z</time>
      </trkpt>
      <trkpt lat="50.8273" lon="1.90332">
        <ele>59</ele>
        <time>2015-05-12T14:56:15.000Z</time>
      </trkpt>
      <trkpt lat="50.82731" lon="1.90332">
        <ele>59</ele>
        <time>2015-05-12T14:56:16.000Z</time>
      </trkpt>
      <trkpt lat="50.82732" lon="1.90334">
        <ele>59</ele>
        <time>2015-05-12T14:56:17.000Z</time>
      </trkpt>
      <trkpt lat="50.82733" lon="1.90335">
        <ele>59</ele>
        <time>2015-05-12T14:56:18.000Z</time>
      </trkpt>
      <trkpt lat="50.82734" lon="1.90336">
        <ele>58</ele>
        <time>2015-05-12T14:56:19.000Z</time>
      </trkpt>
      <trkpt lat="50.82735" lon="1.90337">
        <ele>58</ele>
        <time>2015-05-12T14:56:20.000Z</time>
      </trkpt>
      <trkpt lat="50.82736" lon="1.90338">
        <ele>58</ele>
        <time>2015-05-12T14:56:21.000Z</time>
      </trkpt>
      <trkpt lat="50.82737" lon="1.90339">
        <ele>57</ele>
        <time>2015-05-12T14:56:22.000Z</time>
      </trkpt>
      <trkpt lat="50.82738" lon="1.9034">
        <ele>58</ele>
        <time>2015-05-12T14:56:23.000Z</time>
      </trkpt>
      <trkpt lat="50.82739" lon="1.90342">
        <ele>57</ele>
        <time>2015-05-12T14:56:24.000Z</time>
      </trkpt>
      <trkpt lat="50.82739" lon="1.90343">
        <ele>57</ele>
        <time>2015-05-12T14:56:25.000Z</time>
      </trkpt>
      <trkpt lat="50.8274" lon="1.90344">
        <ele>57</ele>
        <time>2015-05-12T14:56:26.000Z</time>
      </trkpt>
      <trkpt lat="50.82741" lon="1.90346">
        <ele>57</ele>
        <time>2015-05-12T14:56:27.000Z</time>
      </trkpt>
      <trkpt lat="50.82742" lon="1.90347">
        <ele>58</ele>
        <time>2015-05-12T14:56:28.000Z</time>
      </trkpt>
      <trkpt lat="50.82743" lon="1.90349">
        <ele>58</ele>
        <time>2015-05-12T14:56:29.000Z</time>
      </trkpt>
      <trkpt lat="50.82744" lon="1.9035">
        <ele>59</ele>
        <time>2015-05-12T14:56:30.000Z</time>
      </trkpt>
      <trkpt lat="50.82745" lon="1.90351">
        <ele>58</ele>
        <time>2015-05-12T14:56:31.000Z</time>
      </trkpt>
      <trkpt lat="50.82746" lon="1.90352">
        <ele>59</ele>
        <time>2015-05-12T14:56:32.000Z</time>
      </trkpt>
      <trkpt lat="50.82747" lon="1.90354">
        <ele>59</ele>
        <time>2015-05-12T14:56:33.000Z</time>
      </trkpt>
      <trkpt lat="50.82747" lon="1.90355">
        <ele>59</ele>
        <time>2015-05-12T14:56:34.000Z</time>
      </trkpt>
      <trkpt lat="50.82748" lon="1.90356">
        <ele>59</ele>
        <time>2015-05-12T14:56:35.000Z</time>
      </trkpt>
      <trkpt lat="50.82749" lon="1.90357">
        <ele>58</ele>
        <time>2015-05-12T14:56:36.000Z</time>
      </trkpt>
      <trkpt lat="50.8275" lon="1.90359">
        <ele>59</ele>
        <time>2015-05-12T14:56:37.000Z</time>
      </trkpt>
      <trkpt lat="50.82751" lon="1.9036">
        <ele>59</ele>
        <time>2015-05-12T14:56:38.000Z</time>
      </trkpt>
      <trkpt lat="50.82752" lon="1.90361">
        <ele>58</ele>
        <time>2015-05-12T14:56:39.000Z</time>
      </trkpt>
      <trkpt lat="50.82752" lon="1.90362">
        <ele>59</ele>
        <time>2015-05-12T14:56:40.000Z</time>
      </trkpt>
      <trkpt lat="50.82753" lon="1.90363">
        <ele>58</ele>
        <time>2015-05-12T14:56:41.000Z</time>
      </trkpt>
      <trkpt lat="50.82754" lon="1.90365">
        <ele>58</ele>
        <time>2015-05-12T14:56:42.000Z</time>
      </trkpt>
      <trkpt lat="50.82754" lon="1.90366">
        <ele>59</ele>
        <time>2015-05-12T14:56:43.000Z</time>
      </trkpt>
      <trkpt lat="50.82755" lon="1.90367">
        <ele>59</ele>
        <time>2015-05-12T14:56:44.000Z</time>
      </trkpt>
      <trkpt lat="50.82756" lon="1.90368">
        <ele>59</ele>
        <time>2015-05-12T14:56:45.000Z</time>
      </trkpt>
      <trkpt lat="50.82757" lon="1.9037">
        <ele>59</ele>
        <time>2015-05-12T14:56:46.000Z</time>
      </trkpt>
      <trkpt lat="50.82758" lon="1.90371">
        <ele>58</ele>
        <time>2015-05-12T14:56:47.000Z</time>
      </trkpt>
      <trkpt lat="50.82759" lon="1.90372">
        <ele>58</ele>
        <time>2015-05-12T14:56:48.000Z</time>
      </trkpt>
      <trkpt lat="50.8276" lon="1.90373">
        <ele>58</ele>
        <time>2015-05-12T14:56:49.000Z</time>
      </trkpt>
      <trkpt lat="50.8276" lon="1.90374">
        <ele>58</ele>
        <time>2015-05-12T14:56:50.000Z</time>
      </trkpt>
      <trkpt lat="50.82761" lon="1.90375">
        <ele>58</ele>
        <time>2015-05-12T14:56:51.000Z</time>
      </trkpt>
      <trkpt lat="50.82762" lon="1.90377">
        <ele>58</ele>
        <time>2015-05-12T14:56:52.000Z</time>
      </trkpt>
      <trkpt lat="50.82763" lon="1.90378">
        <ele>58</ele>
        <time>2015-05-12T14:56:53.000Z</time>
      </trkpt>
      <trkpt lat="50.82763" lon="1.9038">
        <ele>58</ele>
        <time>2015-05-12T14:56:54.000Z</time>
      </trkpt>
      <trkpt lat="50.82764" lon="1.90381">
        <ele>58</ele>
        <time>2015-05-12T14:56:55.000Z</time>
      </trkpt>
      <trkpt lat="50.82765" lon="1.90382">
        <ele>57</ele>
        <time>2015-05-12T14:56:56.000Z</time>
      </trkpt>
      <trkpt lat="50.82765" lon="1.90383">
        <ele>57</ele>
        <time>2015-05-12T14:56:57.000Z</time>
      </trkpt>
      <trkpt lat="50.82766" lon="1.90383">
        <ele>57</ele>
        <time>2015-05-12T14:56:58.000Z</time>
      </trkpt>
      <trkpt lat="50.82767" lon="1.90383">
        <ele>57</ele>
        <time>2015-05-12T14:56:59.000Z</time>
      </trkpt>
      <trkpt lat="50.82768" lon="1.90384">
        <ele>57</ele>
        <time>2015-05-12T14:57:00.000Z</time>
      </trkpt>
      <trkpt lat="50.82769" lon="1.90384">
        <ele>57</ele>
        <time>2015-05-12T14:57:01.000Z</time>
      </trkpt>
      <trkpt lat="50.8277" lon="1.90385">
        <ele>57</ele>
        <time>2015-05-12T14:57:02.000Z</time>
      </trkpt>
      <trkpt lat="50.82771" lon="1.90386">
        <ele>57</ele>
        <time>2015-05-12T14:57:03.000Z</time>
      </trkpt>
      <trkpt lat="50.82772" lon="1.90388">
        <ele>57</ele>
        <time>2015-05-12T14:57:04.000Z</time>
      </trkpt>
      <trkpt lat="50.82773" lon="1.90389">
        <ele>57</ele>
        <time>2015-05-12T14:57:05.000Z</time>
      </trkpt>
      <trkpt lat="50.82773" lon="1.90391">
        <ele>57</ele>
        <time>2015-05-12T14:57:06.000Z</time>
      </trkpt>
      <trkpt lat="50.82774" lon="1.90392">
        <ele>56</ele>
        <time>2015-05-12T14:57:07.000Z</time>
      </trkpt>
      <trkpt lat="50.82775" lon="1.90394">
        <ele>56</ele>
        <time>2015-05-12T14:57:08.000Z</time>
      </trkpt>
      <trkpt lat="50.82775" lon="1.90395">
        <ele>56</ele>
        <time>2015-05-12T14:57:09.000Z</time>
      </trkpt>
      <trkpt lat="50.82776" lon="1.90397">
        <ele>57</ele>
        <time>2015-05-12T14:57:10.000Z</time>
      </trkpt>
      <trkpt lat="50.82777" lon="1.90398">
        <ele>57</ele>
        <time>2015-05-12T14:57:11.000Z</time>
      </trkpt>
      <trkpt lat="50.82777" lon="1.904">
        <ele>56</ele>
        <time>2015-05-12T14:57:12.000Z</time>
      </trkpt>
      <trkpt lat="50.82778" lon="1.90401">
        <ele>56</ele>
        <time>2015-05-12T14:57:13.000Z</time>
      </trkpt>
      <trkpt lat="50.82779" lon="1.90403">
        <ele>56</ele>
        <time>2015-05-12T14:57:14.000Z</time>
      </trkpt>
      <trkpt lat="50.82779" lon="1.90404">
        <ele>56</ele>
        <time>2015-05-12T14:57:15.000Z</time>
      </trkpt>
      <trkpt lat="50.8278" lon="1.90406">
        <ele>56</ele>
        <time>2015-05-12T14:57:16.000Z</time>
      </trkpt>
      <trkpt lat="50.8278" lon="1.90408">
        <ele>56</ele>
        <time>2015-05-12T14:57:17.000Z</time>
      </trkpt>
      <trkpt lat="50.82781" lon="1.9041">
        <ele>56</ele>
        <time>2015-05-12T14:57:18.000Z</time>
      </trkpt>
      <trkpt lat="50.82781" lon="1.90412">
        <ele>56</ele>
        <time>2015-05-12T14:57:19.000Z</time>
      </trkpt>
      <trkpt lat="50.82782" lon="1.90413">
        <ele>56</ele>
        <time>2015-05-12T14:57:20.000Z</time>
      </trkpt>
      <trkpt lat="50.82782" lon="1.90415">
        <ele>57</ele>
        <time>2015-05-12T14:57:21.000Z</time>
      </trkpt>
      <trkpt lat="50.82782" lon="1.90417">
        <ele>57</ele>
        <time>2015-05-12T14:57:22.000Z</time>
      </trkpt>
      <trkpt lat="50.82783" lon="1.90418">
        <ele>58</ele>
        <time>2015-05-12T14:57:23.000Z</time>
      </trkpt>
      <trkpt lat="50.82783" lon="1.9042">
        <ele>58</ele>
        <time>2015-05-12T14:57:24.000Z</time>
      </trkpt>
      <trkpt lat="50.82784" lon="1.90422">
        <ele>58</ele>
        <time>2015-05-12T14:57:25.000Z</time>
      </trkpt>
      <trkpt lat="50.82784" lon="1.90424">
        <ele>58</ele>
        <time>2015-05-12T14:57:26.000Z</time>
      </trkpt>
      <trkpt lat="50.82785" lon="1.90426">
        <ele>59</ele>
        <time>2015-05-12T14:57:27.000Z</time>
      </trkpt>
      <trkpt lat="50.82785" lon="1.90428">
        <ele>59</ele>
        <time>2015-05-12T14:57:28.000Z</time>
      </trkpt>
      <trkpt lat="50.82785" lon="1.9043">
        <ele>59</ele>
        <time>2015-05-12T14:57:29.000Z</time>
      </trkpt>
      <trkpt lat="50.82785" lon="1.90432">
        <ele>59</ele>
        <time>2015-05-12T14:57:30.000Z</time>
      </trkpt>
      <trkpt lat="50.82786" lon="1.90434">
        <ele>59</ele>
        <time>2015-05-12T14:57:31.000Z</time>
      </trkpt>
      <trkpt lat="50.82786" lon="1.90435">
        <ele>59</ele>
        <time>2015-05-12T14:57:32.000Z</time>
      </trkpt>
      <trkpt lat="50.82787" lon="1.90437">
        <ele>59</ele>
        <time>2015-05-12T14:57:33.000Z</time>
      </trkpt>
      <trkpt lat="50.82787" lon="1.90439">
        <ele>58</ele>
        <time>2015-05-12T14:57:34.000Z</time>
      </trkpt>
      <trkpt lat="50.82787" lon="1.9044">
        <ele>58</ele>
        <time>2015-05-12T14:57:35.000Z</time>
      </trkpt>
      <trkpt lat="50.82787" lon="1.90442">
        <ele>58</ele>
        <time>2015-05-12T14:57:36.000Z</time>
      </trkpt>
      <trkpt lat="50.82787" lon="1.90444">
        <ele>58</ele>
        <time>2015-05-12T14:57:37.000Z</time>
      </trkpt>
      <trkpt lat="50.82788" lon="1.90446">
        <ele>58</ele>
        <time>2015-05-12T14:57:38.000Z</time>
      </trkpt>
      <trkpt lat="50.82788" lon="1.90448">
        <ele>58</ele>
        <time>2015-05-12T14:57:39.000Z</time>
      </trkpt>
      <trkpt lat="50.82788" lon="1.90449">
        <ele>57</ele>
        <time>2015-05-12T14:57:40.000Z</time>
      </trkpt>
      <trkpt lat="50.82789" lon="1.90451">
        <ele>58</ele>
        <time>2015-05-12T14:57:41.000Z</time>
      </trkpt>
      <trkpt lat="50.82789" lon="1.90453">
        <ele>57</ele>
        <time>2015-05-12T14:57:42.000Z</time>
      </trkpt>
      <trkpt lat="50.82789" lon="1.90454">
        <ele>57</ele>
        <time>2015-05-12T14:57:43.000Z</time>
      </trkpt>
      <trkpt lat="50.82789" lon="1.90456">
        <ele>57</ele>
        <time>2015-05-12T14:57:44.000Z</time>
      </trkpt>
      <trkpt lat="50.8279" lon="1.90458">
        <ele>57</ele>
        <time>2015-05-12T14:57:45.000Z</time>
      </trkpt>
      <trkpt lat="50.8279" lon="1.90459">
        <ele>57</ele>
        <time>2015-05-12T14:57:46.000Z</time>
      </trkpt>
      <trkpt lat="50.8279" lon="1.90461">
        <ele>57</ele>
        <time>2015-05-12T14:57:47.000Z</time>
      </trkpt>
      <trkpt lat="50.82791" lon="1.90463">
        <ele>57</ele>
        <time>2015-05-12T14:57:48.000Z</time>
      </trkpt>
      <trkpt lat="50.82791" lon="1.90465">
        <ele>57</ele>
        <time>2015-05-12T14:57:49.000Z</time>
      </trkpt>
      <trkpt lat="50.82791" lon="1.90466">
        <ele>57</ele>
        <time>2015-05-12T14:57:50.000Z</time>
      </trkpt>
      <trkpt lat="50.82792" lon="1.90468">
        <ele>57</ele>
        <time>2015-05-12T14:57:51.000Z</time>
      </trkpt>
      <trkpt lat="50.82792" lon="1.9047">
        <ele>57</ele>
        <time>2015-05-12T14:57:52.000Z</time>
      </trkpt>
      <trkpt lat="50.82792" lon="1.90472">
        <ele>57</ele>
        <time>2015-05-12T14:57:53.000Z</time>
      </trkpt>
      <trkpt lat="50.82793" lon="1.90474">
        <ele>56</ele>
        <time>2015-05-12T14:57:54.000Z</time>
      </trkpt>
      <trkpt lat="50.82793" lon="1.90476">
        <ele>56</ele>
        <time>2015-05-12T14:57:55.000Z</time>
      </trkpt>
      <trkpt lat="50.82793" lon="1.90478">
        <ele>56</ele>
        <time>2015-05-12T14:57:56.000Z</time>
      </trkpt>
      <trkpt lat="50.82794" lon="1.90479">
        <ele>56</ele>
        <time>2015-05-12T14:57:57.000Z</time>
      </trkpt>
      <trkpt lat="50.82794" lon="1.90481">
        <ele>56</ele>
        <time>2015-05-12T14:57:58.000Z</time>
      </trkpt>
      <trkpt lat="50.82794" lon="1.90483">
        <ele>56</ele>
        <time>2015-05-12T14:57:59.000Z</time>
      </trkpt>
      <trkpt lat="50.82795" lon="1.90485">
        <ele>56</ele>
        <time>2015-05-12T14:58:00.000Z</time>
      </trkpt>
      <trkpt lat="50.82796" lon="1.90487">
        <ele>57</ele>
        <time>2015-05-12T14:58:01.000Z</time>
      </trkpt>
      <trkpt lat="50.82796" lon="1.90489">
        <ele>56</ele>
        <time>2015-05-12T14:58:02.000Z</time>
      </trkpt>
      <trkpt lat="50.82797" lon="1.9049">
        <ele>56</ele>
        <time>2015-05-12T14:58:03.000Z</time>
      </trkpt>
      <trkpt lat="50.82797" lon="1.90492">
        <ele>56</ele>
        <time>2015-05-12T14:58:04.000Z</time>
      </trkpt>
      <trkpt lat="50.82797" lon="1.90494">
        <ele>56</ele>
        <time>2015-05-12T14:58:05.000Z</time>
      </trkpt>
      <trkpt lat="50.82798" lon="1.90495">
        <ele>56</ele>
        <time>2015-05-12T14:58:06.000Z</time>
      </trkpt>
      <trkpt lat="50.82798" lon="1.90497">
        <ele>56</ele>
        <time>2015-05-12T14:58:07.000Z</time>
      </trkpt>
      <trkpt lat="50.82798" lon="1.905">
        <ele>56</ele>
        <time>2015-05-12T14:58:08.000Z</time>
      </trkpt>
      <trkpt lat="50.82799" lon="1.90501">
        <ele>56</ele>
        <time>2015-05-12T14:58:09.000Z</time>
      </trkpt>
      <trkpt lat="50.82799" lon="1.90503">
        <ele>56</ele>
        <time>2015-05-12T14:58:10.000Z</time>
      </trkpt>
      <trkpt lat="50.828" lon="1.90505">
        <ele>55</ele>
        <time>2015-05-12T14:58:11.000Z</time>
      </trkpt>
      <trkpt lat="50.828" lon="1.90506">
        <ele>55</ele>
        <time>2015-05-12T14:58:12.000Z</time>
      </trkpt>
      <trkpt lat="50.828" lon="1.90508">
        <ele>55</ele>
        <time>2015-05-12T14:58:13.000Z</time>
      </trkpt>
      <trkpt lat="50.828" lon="1.9051">
        <ele>55</ele>
        <time>2015-05-12T14:58:14.000Z</time>
      </trkpt>
      <trkpt lat="50.82801" lon="1.90511">
        <ele>55</ele>
        <time>2015-05-12T14:58:15.000Z</time>
      </trkpt>
      <trkpt lat="50.82801" lon="1.90513">
        <ele>55</ele>
        <time>2015-05-12T14:58:16.000Z</time>
      </trkpt>
      <trkpt lat="50.82802" lon="1.90515">
        <ele>55</ele>
        <time>2015-05-12T14:58:17.000Z</time>
      </trkpt>
      <trkpt lat="50.82803" lon="1.90517">
        <ele>55</ele>
        <time>2015-05-12T14:58:18.000Z</time>
      </trkpt>
      <trkpt lat="50.82803" lon="1.90518">
        <ele>55</ele>
        <time>2015-05-12T14:58:19.000Z</time>
      </trkpt>
      <trkpt lat="50.82804" lon="1.9052">
        <ele>55</ele>
        <time>2015-05-12T14:58:20.000Z</time>
      </trkpt>
      <trkpt lat="50.82804" lon="1.90522">
        <ele>55</ele>
        <time>2015-05-12T14:58:21.000Z</time>
      </trkpt>
      <trkpt lat="50.82804" lon="1.90523">
        <ele>55</ele>
        <time>2015-05-12T14:58:22.000Z</time>
      </trkpt>
      <trkpt lat="50.82805" lon="1.90525">
        <ele>55</ele>
        <time>2015-05-12T14:58:23.000Z</time>
      </trkpt>
      <trkpt lat="50.82805" lon="1.90527">
        <ele>55</ele>
        <time>2015-05-12T14:58:24.000Z</time>
      </trkpt>
      <trkpt lat="50.82805" lon="1.90529">
        <ele>55</ele>
        <time>2015-05-12T14:58:25.000Z</time>
      </trkpt>
      <trkpt lat="50.82806" lon="1.9053">
        <ele>54</ele>
        <time>2015-05-12T14:58:26.000Z</time>
      </trkpt>
      <trkpt lat="50.82806" lon="1.90531">
        <ele>54</ele>
        <time>2015-05-12T14:58:27.000Z</time>
      </trkpt>
      <trkpt lat="50.82806" lon="1.90532">
        <ele>54</ele>
        <time>2015-05-12T14:58:28.000Z</time>
      </trkpt>
      <trkpt lat="50.82807" lon="1.90533">
        <ele>54</ele>
        <time>2015-05-12T14:58:29.000Z</time>
      </trkpt>
      <trkpt lat="50.82807" lon="1.90535">
        <ele>54</ele>
        <time>2015-05-12T14:58:30.000Z</time>
      </trkpt>
      <trkpt lat="50.82807" lon="1.90537">
        <ele>54</ele>
        <time>2015-05-12T14:58:31.000Z</time>
      </trkpt>
      <trkpt lat="50.82808" lon="1.90538">
        <ele>54</ele>
        <time>2015-05-12T14:58:32.000Z</time>
      </trkpt>
      <trkpt lat="50.82808" lon="1.9054">
        <ele>54</ele>
        <time>2015-05-12T14:58:33.000Z</time>
      </trkpt>
      <trkpt lat="50.82809" lon="1.90541">
        <ele>54</ele>
        <time>2015-05-12T14:58:34.000Z</time>
      </trkpt>
      <trkpt lat="50.82809" lon="1.90543">
        <ele>55</ele>
        <time>2015-05-12T14:58:35.000Z</time>
      </trkpt>
      <trkpt lat="50.82809" lon="1.90544">
        <ele>55</ele>
        <time>2015-05-12T14:58:36.000Z</time>
      </trkpt>
      <trkpt lat="50.82809" lon="1.90546">
        <ele>55</ele>
        <time>2015-05-12T14:58:37.000Z</time>
      </trkpt>
      <trkpt lat="50.8281" lon="1.90547">
        <ele>55</ele>
        <time>2015-05-12T14:58:38.000Z</time>
      </trkpt>
      <trkpt lat="50.8281" lon="1.90548">
        <ele>55</ele>
        <time>2015-05-12T14:58:39.000Z</time>
      </trkpt>
      <trkpt lat="50.82811" lon="1.90549">
        <ele>55</ele>
        <time>2015-05-12T14:58:40.000Z</time>
      </trkpt>
      <trkpt lat="50.82811" lon="1.9055">
        <ele>55</ele>
        <time>2015-05-12T14:58:41.000Z</time>
      </trkpt>
      <trkpt lat="50.82812" lon="1.90551">
        <ele>55</ele>
        <time>2015-05-12T14:58:42.000Z</time>
      </trkpt>
      <trkpt lat="50.82812" lon="1.90553">
        <ele>55</ele>
        <time>2015-05-12T14:58:43.000Z</time>
      </trkpt>
      <trkpt lat="50.82813" lon="1.90554">
        <ele>55</ele>
        <time>2015-05-12T14:58:44.000Z</time>
      </trkpt>
      <trkpt lat="50.82813" lon="1.90555">
        <ele>55</ele>
        <time>2015-05-12T14:58:45.000Z</time>
      </trkpt>
      <trkpt lat="50.82813" lon="1.90557">
        <ele>55</ele>
        <time>2015-05-12T14:58:46.000Z</time>
      </trkpt>
      <trkpt lat="50.82814" lon="1.90558">
        <ele>55</ele>
        <time>2015-05-12T14:58:47.000Z</time>
      </trkpt>
      <trkpt lat="50.82814" lon="1.9056">
        <ele>55</ele>
        <time>2015-05-12T14:58:48.000Z</time>
      </trkpt>
      <trkpt lat="50.82814" lon="1.90561">
        <ele>55</ele>
        <time>2015-05-12T14:58:49.000Z</time>
      </trkpt>
      <trkpt lat="50.82814" lon="1.90563">
        <ele>55</ele>
        <time>2015-05-12T14:58:50.000Z</time>
      </trkpt>
      <trkpt lat="50.82815" lon="1.90564">
        <ele>55</ele>
        <time>2015-05-12T14:58:51.000Z</time>
      </trkpt>
      <trkpt lat="50.82815" lon="1.90565">
        <ele>55</ele>
        <time>2015-05-12T14:58:52.000Z</time>
      </trkpt>
      <trkpt lat="50.82816" lon="1.90567">
        <ele>55</ele>
        <time>2015-05-12T14:58:53.000Z</time>
      </trkpt>
      <trkpt lat="50.82816" lon="1.90568">
        <ele>55</ele>
        <time>2015-05-12T14:58:54.000Z</time>
      </trkpt>
      <trkpt lat="50.82816" lon="1.90569">
        <ele>55</ele>
        <time>2015-05-12T14:58:55.000Z</time>
      </trkpt>
      <trkpt lat="50.82817" lon="1.9057">
        <ele>55</ele>
        <time>2015-05-12T14:58:56.000Z</time>
      </trkpt>
      <trkpt lat="50.82818" lon="1.90572">
        <ele>55</ele>
        <time>2015-05-12T14:58:57.000Z</time>
      </trkpt>
      <trkpt lat="50.82818" lon="1.90574">
        <ele>55</ele>
        <time>2015-05-12T14:58:58.000Z</time>
      </trkpt>
      <trkpt lat="50.82819" lon="1.90576">
        <ele>55</ele>
        <time>2015-05-12T14:58:59.000Z</time>
      </trkpt>
      <trkpt lat="50.82819" lon="1.90577">
        <ele>54</ele>
        <time>2015-05-12T14:59:00.000Z</time>
      </trkpt>
      <trkpt lat="50.8282" lon="1.90579">
        <ele>54</ele>
        <time>2015-05-12T14:59:01.000Z</time>
      </trkpt>
      <trkpt lat="50.82821" lon="1.9058">
        <ele>54</ele>
        <time>2015-05-12T14:59:02.000Z</time>
      </trkpt>
      <trkpt lat="50.82821" lon="1.90582">
        <ele>54</ele>
        <time>2015-05-12T14:59:03.000Z</time>
      </trkpt>
      <trkpt lat="50.82822" lon="1.90584">
        <ele>55</ele>
        <time>2015-05-12T14:59:04.000Z</time>
      </trkpt>
      <trkpt lat="50.82823" lon="1.90585">
        <ele>55</ele>
        <time>2015-05-12T14:59:05.000Z</time>
      </trkpt>
      <trkpt lat="50.82823" lon="1.90587">
        <ele>54</ele>
        <time>2015-05-12T14:59:06.000Z</time>
      </trkpt>
      <trkpt lat="50.82824" lon="1.90588">
        <ele>55</ele>
        <time>2015-05-12T14:59:07.000Z</time>
      </trkpt>
      <trkpt lat="50.82825" lon="1.9059">
        <ele>55</ele>
        <time>2015-05-12T14:59:08.000Z</time>
      </trkpt>
      <trkpt lat="50.82825" lon="1.90591">
        <ele>55</ele>
        <time>2015-05-12T14:59:09.000Z</time>
      </trkpt>
      <trkpt lat="50.82826" lon="1.90592">
        <ele>55</ele>
        <time>2015-05-12T14:59:10.000Z</time>
      </trkpt>
      <trkpt lat="50.82827" lon="1.90594">
        <ele>55</ele>
        <time>2015-05-12T14:59:11.000Z</time>
      </trkpt>
      <trkpt lat="50.82827" lon="1.90595">
        <ele>56</ele>
        <time>2015-05-12T14:59:12.000Z</time>
      </trkpt>
      <trkpt lat="50.82828" lon="1.90597">
        <ele>55</ele>
        <time>2015-05-12T14:59:13.000Z</time>
      </trkpt>
      <trkpt lat="50.82828" lon="1.90598">
        <ele>55</ele>
        <time>2015-05-12T14:59:14.000Z</time>
      </trkpt>
      <trkpt lat="50.82829" lon="1.906">
        <ele>56</ele>
        <time>2015-05-12T14:59:15.000Z</time>
      </trkpt>
      <trkpt lat="50.82829" lon="1.90601">
        <ele>55</ele>
        <time>2015-05-12T14:59:16.000Z</time>
      </trkpt>
      <trkpt lat="50.8283" lon="1.90602">
        <ele>55</ele>
        <time>2015-05-12T14:59:17.000Z</time>
      </trkpt>
      <trkpt lat="50.8283" lon="1.90603">
        <ele>55</ele>
        <time>2015-05-12T14:59:18.000Z</time>
      </trkpt>
      <trkpt lat="50.82831" lon="1.90604">
        <ele>55</ele>
        <time>2015-05-12T14:59:19.000Z</time>
      </trkpt>
      <trkpt lat="50.82831" lon="1.90605">
        <ele>55</ele>
        <time>2015-05-12T14:59:20.000Z</time>
      </trkpt>
      <trkpt lat="50.82832" lon="1.90606">
        <ele>55</ele>
        <time>2015-05-12T14:59:21.000Z</time>
      </trkpt>
      <trkpt lat="50.82833" lon="1.90608">
        <ele>56</ele>
        <time>2015-05-12T14:59:22.000Z</time>
      </trkpt>
      <trkpt lat="50.82834" lon="1.90609">
        <ele>56</ele>
        <time>2015-05-12T14:59:23.000Z</time>
      </trkpt>
      <trkpt lat="50.82835" lon="1.9061">
        <ele>56</ele>
        <time>2015-05-12T14:59:24.000Z</time>
      </trkpt>
      <trkpt lat="50.82836" lon="1.90612">
        <ele>56</ele>
        <time>2015-05-12T14:59:25.000Z</time>
      </trkpt>
      <trkpt lat="50.82836" lon="1.90613">
        <ele>56</ele>
        <time>2015-05-12T14:59:26.000Z</time>
      </trkpt>
      <trkpt lat="50.82837" lon="1.90614">
        <ele>56</ele>
        <time>2015-05-12T14:59:27.000Z</time>
      </trkpt>
      <trkpt lat="50.82837" lon="1.90615">
        <ele>56</ele>
        <time>2015-05-12T14:59:28.000Z</time>
      </trkpt>
      <trkpt lat="50.82838" lon="1.90617">
        <ele>56</ele>
        <time>2015-05-12T14:59:29.000Z</time>
      </trkpt>
      <trkpt lat="50.82839" lon="1.90619">
        <ele>55</ele>
        <time>2015-05-12T14:59:30.000Z</time>
      </trkpt>
      <trkpt lat="50.8284" lon="1.9062">
        <ele>54</ele>
        <time>2015-05-12T14:59:31.000Z</time>
      </trkpt>
      <trkpt lat="50.82841" lon="1.90622">
        <ele>54</ele>
        <time>2015-05-12T14:59:32.000Z</time>
      </trkpt>
      <trkpt lat="50.82842" lon="1.90623">
        <ele>54</ele>
        <time>2015-05-12T14:59:33.000Z</time>
      </trkpt>
      <trkpt lat="50.82842" lon="1.90625">
        <ele>53</ele>
        <time>2015-05-12T14:59:34.000Z</time>
      </trkpt>
      <trkpt lat="50.82843" lon="1.90627">
        <ele>54</ele>
        <time>2015-05-12T14:59:35.000Z</time>
      </trkpt>
      <trkpt lat="50.82843" lon="1.90628">
        <ele>53</ele>
        <time>2015-05-12T14:59:36.000Z</time>
      </trkpt>
      <trkpt lat="50.82844" lon="1.9063">
        <ele>53</ele>
        <time>2015-05-12T14:59:37.000Z</time>
      </trkpt>
      <trkpt lat="50.82845" lon="1.90631">
        <ele>54</ele>
        <time>2015-05-12T14:59:38.000Z</time>
      </trkpt>
      <trkpt lat="50.82846" lon="1.90633">
        <ele>53</ele>
        <time>2015-05-12T14:59:39.000Z</time>
      </trkpt>
      <trkpt lat="50.82847" lon="1.90634">
        <ele>54</ele>
        <time>2015-05-12T14:59:40.000Z</time>
      </trkpt>
      <trkpt lat="50.82848" lon="1.90636">
        <ele>54</ele>
        <time>2015-05-12T14:59:41.000Z</time>
      </trkpt>
      <trkpt lat="50.82848" lon="1.90637">
        <ele>54</ele>
        <time>2015-05-12T14:59:42.000Z</time>
      </trkpt>
      <trkpt lat="50.82849" lon="1.90639">
        <ele>54</ele>
        <time>2015-05-12T14:59:43.000Z</time>
      </trkpt>
      <trkpt lat="50.8285" lon="1.9064">
        <ele>54</ele>
        <time>2015-05-12T14:59:44.000Z</time>
      </trkpt>
      <trkpt lat="50.82851" lon="1.90641">
        <ele>54</ele>
        <time>2015-05-12T14:59:45.000Z</time>
      </trkpt>
      <trkpt lat="50.82851" lon="1.90642">
        <ele>54</ele>
        <time>2015-05-12T14:59:46.000Z</time>
      </trkpt>
      <trkpt lat="50.82852" lon="1.90644">
        <ele>53</ele>
        <time>2015-05-12T14:59:47.000Z</time>
      </trkpt>
      <trkpt lat="50.82853" lon="1.90645">
        <ele>53</ele>
        <time>2015-05-12T14:59:48.000Z</time>
      </trkpt>
      <trkpt lat="50.82854" lon="1.90646">
        <ele>53</ele>
        <time>2015-05-12T14:59:49.000Z</time>
      </trkpt>
      <trkpt lat="50.82855" lon="1.90647">
        <ele>53</ele>
        <time>2015-05-12T14:59:50.000Z</time>
      </trkpt>
      <trkpt lat="50.82856" lon="1.90648">
        <ele>53</ele>
        <time>2015-05-12T14:59:51.000Z</time>
      </trkpt>
      <trkpt lat="50.82857" lon="1.90649">
        <ele>53</ele>
        <time>2015-05-12T14:59:52.000Z</time>
      </trkpt>
      <trkpt lat="50.82857" lon="1.9065">
        <ele>53</ele>
        <time>2015-05-12T14:59:53.000Z</time>
      </trkpt>
      <trkpt lat="50.82858" lon="1.90651">
        <ele>53</ele>
        <time>2015-05-12T14:59:54.000Z</time>
      </trkpt>
      <trkpt lat="50.82859" lon="1.90652">
        <ele>52</ele>
        <time>2015-05-12T14:59:55.000Z</time>
      </trkpt>
      <trkpt lat="50.8286" lon="1.90653">
        <ele>52</ele>
        <time>2015-05-12T14:59:56.000Z</time>
      </trkpt>
      <trkpt lat="50.82861" lon="1.90654">
        <ele>53</ele>
        <time>2015-05-12T14:59:57.000Z</time>
      </trkpt>
      <trkpt lat="50.82862" lon="1.90654">
        <ele>53</ele>
        <time>2015-05-12T14:59:58.000Z</time>
      </trkpt>
      <trkpt lat="50.82863" lon="1.90655">
        <ele>53</ele>
        <time>2015-05-12T14:59:59.000Z</time>
      </trkpt>
      <trkpt lat="50.82863" lon="1.90655">
        <ele>53</ele>
        <time>2015-05-12T15:00:00.000Z</time>
      </trkpt>
      <trkpt lat="50.82864" lon="1.90654">
        <ele>52</ele>
        <time>2015-05-12T15:00:01.000Z</time>
      </trkpt>
      <trkpt lat="50.82864" lon="1.90654">
        <ele>52</ele>
        <time>2015-05-12T15:00:02.000Z</time>
      </trkpt>
      <trkpt lat="50.82865" lon="1.90653">
        <ele>52</ele>
        <time>2015-05-12T15:00:03.000Z</time>
      </trkpt>
      <trkpt lat="50.82866" lon="1.90653">
        <ele>52</ele>
        <time>2015-05-12T15:00:04.000Z</time>
      </trkpt>
    </trkseg>
  </trk>
</gpx>